<?xml version='1.0' encoding='UTF-8'?>
<gpx version="1.1" creator="https://www.komoot.de" xmlns="http://www.topografix.com/GPX/1/1" xmlns:xsi="http://www.w3.org/2001/XMLSchema-instance" xsi:schemaLocation="http://www.topografix.com/GPX/1/1 http://www.topografix.com/GPX/1/1/gpx.xsd">
  <metadata>
    <name>Road ride</name>
    <author>
      <link href="https://www.komoot.de">
        <text>komoot</text>
        <type>text/html</type>
      </link>
    </author>
  </metadata>
  <trk>
    <name>Road ride</name>
    <type>racebike</type>
    <trkseg>
      <trkpt lat="22.818985" lon="109.875990">
        <ele>70.817674</ele>
        <time>2026-08-16T01:19:58.000Z</time>
      </trkpt>
      <trkpt lat="22.818985" lon="109.875990">
        <ele>70.817674</ele>
        <time>2026-08-16T01:20:01.000Z</time>
      </trkpt>
      <trkpt lat="22.818890" lon="109.876030">
        <ele>70.817674</ele>
        <time>2026-08-16T01:20:18.000Z</time>
      </trkpt>
      <trkpt lat="22.818879" lon="109.876047">
        <ele>70.817674</ele>
        <time>2026-08-16T01:20:19.000Z</time>
      </trkpt>
      <trkpt lat="22.818877" lon="109.876067">
        <ele>70.817674</ele>
        <time>2026-08-16T01:20:20.000Z</time>
      </trkpt>
      <trkpt lat="22.818869" lon="109.876087">
        <ele>70.817674</ele>
        <time>2026-08-16T01:20:21.000Z</time>
      </trkpt>
      <trkpt lat="22.818857" lon="109.876105">
        <ele>70.817674</ele>
        <time>2026-08-16T01:20:22.000Z</time>
      </trkpt>
      <trkpt lat="22.818841" lon="109.876123">
        <ele>70.817674</ele>
        <time>2026-08-16T01:20:23.000Z</time>
      </trkpt>
      <trkpt lat="22.818824" lon="109.876147">
        <ele>70.817674</ele>
        <time>2026-08-16T01:20:24.000Z</time>
      </trkpt>
      <trkpt lat="22.818804" lon="109.876170">
        <ele>70.817674</ele>
        <time>2026-08-16T01:20:25.000Z</time>
      </trkpt>
      <trkpt lat="22.818784" lon="109.876191">
        <ele>70.817674</ele>
        <time>2026-08-16T01:20:26.000Z</time>
      </trkpt>
      <trkpt lat="22.818767" lon="109.876214">
        <ele>70.817674</ele>
        <time>2026-08-16T01:20:27.000Z</time>
      </trkpt>
      <trkpt lat="22.818747" lon="109.876238">
        <ele>70.817674</ele>
        <time>2026-08-16T01:20:28.000Z</time>
      </trkpt>
      <trkpt lat="22.818726" lon="109.876263">
        <ele>70.817674</ele>
        <time>2026-08-16T01:20:29.000Z</time>
      </trkpt>
      <trkpt lat="22.818705" lon="109.876293">
        <ele>70.817674</ele>
        <time>2026-08-16T01:20:30.000Z</time>
      </trkpt>
      <trkpt lat="22.818680" lon="109.876325">
        <ele>70.817674</ele>
        <time>2026-08-16T01:20:31.000Z</time>
      </trkpt>
      <trkpt lat="22.818655" lon="109.876358">
        <ele>70.817674</ele>
        <time>2026-08-16T01:20:32.000Z</time>
      </trkpt>
      <trkpt lat="22.818634" lon="109.876392">
        <ele>70.817674</ele>
        <time>2026-08-16T01:20:33.000Z</time>
      </trkpt>
      <trkpt lat="22.818614" lon="109.876428">
        <ele>70.817674</ele>
        <time>2026-08-16T01:20:34.000Z</time>
      </trkpt>
      <trkpt lat="22.818596" lon="109.876460">
        <ele>70.817674</ele>
        <time>2026-08-16T01:20:35.000Z</time>
      </trkpt>
      <trkpt lat="22.818576" lon="109.876496">
        <ele>70.817674</ele>
        <time>2026-08-16T01:20:36.000Z</time>
      </trkpt>
      <trkpt lat="22.818556" lon="109.876531">
        <ele>70.817674</ele>
        <time>2026-08-16T01:20:37.000Z</time>
      </trkpt>
      <trkpt lat="22.818534" lon="109.876566">
        <ele>70.817674</ele>
        <time>2026-08-16T01:20:38.000Z</time>
      </trkpt>
      <trkpt lat="22.818514" lon="109.876601">
        <ele>70.817674</ele>
        <time>2026-08-16T01:20:39.000Z</time>
      </trkpt>
      <trkpt lat="22.818495" lon="109.876637">
        <ele>70.817674</ele>
        <time>2026-08-16T01:20:40.000Z</time>
      </trkpt>
      <trkpt lat="22.818477" lon="109.876675">
        <ele>70.817674</ele>
        <time>2026-08-16T01:20:41.000Z</time>
      </trkpt>
      <trkpt lat="22.818460" lon="109.876712">
        <ele>70.817674</ele>
        <time>2026-08-16T01:20:42.000Z</time>
      </trkpt>
      <trkpt lat="22.818442" lon="109.876750">
        <ele>70.823317</ele>
        <time>2026-08-16T01:20:43.000Z</time>
      </trkpt>
      <trkpt lat="22.818423" lon="109.876784">
        <ele>70.845003</ele>
        <time>2026-08-16T01:20:44.000Z</time>
      </trkpt>
      <trkpt lat="22.818394" lon="109.876815">
        <ele>70.869094</ele>
        <time>2026-08-16T01:20:45.000Z</time>
      </trkpt>
      <trkpt lat="22.818364" lon="109.876847">
        <ele>70.893988</ele>
        <time>2026-08-16T01:20:46.000Z</time>
      </trkpt>
      <trkpt lat="22.818334" lon="109.876883">
        <ele>70.920459</ele>
        <time>2026-08-16T01:20:47.000Z</time>
      </trkpt>
      <trkpt lat="22.818307" lon="109.876918">
        <ele>70.945352</ele>
        <time>2026-08-16T01:20:48.000Z</time>
      </trkpt>
      <trkpt lat="22.818280" lon="109.876957">
        <ele>70.971955</ele>
        <time>2026-08-16T01:20:49.000Z</time>
      </trkpt>
      <trkpt lat="22.818256" lon="109.876995">
        <ele>70.997080</ele>
        <time>2026-08-16T01:20:50.000Z</time>
      </trkpt>
      <trkpt lat="22.818233" lon="109.877036">
        <ele>71.023258</ele>
        <time>2026-08-16T01:20:51.000Z</time>
      </trkpt>
      <trkpt lat="22.818211" lon="109.877076">
        <ele>71.048663</ele>
        <time>2026-08-16T01:20:52.000Z</time>
      </trkpt>
      <trkpt lat="22.818189" lon="109.877113">
        <ele>71.072679</ele>
        <time>2026-08-16T01:20:53.000Z</time>
      </trkpt>
      <trkpt lat="22.818164" lon="109.877151">
        <ele>71.098142</ele>
        <time>2026-08-16T01:20:54.000Z</time>
      </trkpt>
      <trkpt lat="22.818141" lon="109.877187">
        <ele>71.122033</ele>
        <time>2026-08-16T01:20:55.000Z</time>
      </trkpt>
      <trkpt lat="22.818117" lon="109.877226">
        <ele>71.147610</ele>
        <time>2026-08-16T01:20:56.000Z</time>
      </trkpt>
      <trkpt lat="22.818094" lon="109.877267">
        <ele>71.173788</ele>
        <time>2026-08-16T01:20:57.000Z</time>
      </trkpt>
      <trkpt lat="22.818071" lon="109.877308">
        <ele>71.199966</ele>
        <time>2026-08-16T01:20:58.000Z</time>
      </trkpt>
      <trkpt lat="22.818049" lon="109.877349">
        <ele>71.225841</ele>
        <time>2026-08-16T01:20:59.000Z</time>
      </trkpt>
      <trkpt lat="22.818028" lon="109.877390">
        <ele>71.251424</ele>
        <time>2026-08-16T01:21:00.000Z</time>
      </trkpt>
      <trkpt lat="22.818007" lon="109.877429">
        <ele>71.276059</ele>
        <time>2026-08-16T01:21:01.000Z</time>
      </trkpt>
      <trkpt lat="22.817986" lon="109.877471">
        <ele>71.302121</ele>
        <time>2026-08-16T01:21:02.000Z</time>
      </trkpt>
      <trkpt lat="22.817964" lon="109.877513">
        <ele>71.328469</ele>
        <time>2026-08-16T01:21:03.000Z</time>
      </trkpt>
      <trkpt lat="22.817940" lon="109.877555">
        <ele>71.355422</ele>
        <time>2026-08-16T01:21:04.000Z</time>
      </trkpt>
      <trkpt lat="22.817919" lon="109.877596">
        <ele>71.381004</ele>
        <time>2026-08-16T01:21:05.000Z</time>
      </trkpt>
      <trkpt lat="22.817896" lon="109.877638">
        <ele>71.407650</ele>
        <time>2026-08-16T01:21:06.000Z</time>
      </trkpt>
      <trkpt lat="22.817872" lon="109.877678">
        <ele>71.433682</ele>
        <time>2026-08-16T01:21:07.000Z</time>
      </trkpt>
      <trkpt lat="22.817846" lon="109.877720">
        <ele>71.461277</ele>
        <time>2026-08-16T01:21:08.000Z</time>
      </trkpt>
      <trkpt lat="22.817822" lon="109.877761">
        <ele>71.487767</ele>
        <time>2026-08-16T01:21:09.000Z</time>
      </trkpt>
      <trkpt lat="22.817797" lon="109.877804">
        <ele>71.515496</ele>
        <time>2026-08-16T01:21:10.000Z</time>
      </trkpt>
      <trkpt lat="22.817772" lon="109.877849">
        <ele>71.544154</ele>
        <time>2026-08-16T01:21:11.000Z</time>
      </trkpt>
      <trkpt lat="22.817747" lon="109.877892">
        <ele>71.571883</ele>
        <time>2026-08-16T01:21:12.000Z</time>
      </trkpt>
      <trkpt lat="22.817725" lon="109.877936">
        <ele>71.599185</ele>
        <time>2026-08-16T01:21:13.000Z</time>
      </trkpt>
      <trkpt lat="22.817702" lon="109.877980">
        <ele>71.626774</ele>
        <time>2026-08-16T01:21:14.000Z</time>
      </trkpt>
      <trkpt lat="22.817678" lon="109.878024">
        <ele>71.654660</ele>
        <time>2026-08-16T01:21:15.000Z</time>
      </trkpt>
      <trkpt lat="22.817655" lon="109.878064">
        <ele>71.680373</ele>
        <time>2026-08-16T01:21:16.000Z</time>
      </trkpt>
      <trkpt lat="22.817633" lon="109.878107">
        <ele>71.707197</ele>
        <time>2026-08-16T01:21:17.000Z</time>
      </trkpt>
      <trkpt lat="22.817609" lon="109.878149">
        <ele>71.734150</ele>
        <time>2026-08-16T01:21:18.000Z</time>
      </trkpt>
      <trkpt lat="22.817588" lon="109.878186">
        <ele>71.757850</ele>
        <time>2026-08-16T01:21:19.000Z</time>
      </trkpt>
      <trkpt lat="22.817564" lon="109.878232">
        <ele>71.786680</ele>
        <time>2026-08-16T01:21:20.000Z</time>
      </trkpt>
      <trkpt lat="22.817538" lon="109.878274">
        <ele>71.814274</ele>
        <time>2026-08-16T01:21:21.000Z</time>
      </trkpt>
      <trkpt lat="22.817516" lon="109.878316">
        <ele>71.840623</ele>
        <time>2026-08-16T01:21:22.000Z</time>
      </trkpt>
      <trkpt lat="22.817489" lon="109.878360">
        <ele>71.869453</ele>
        <time>2026-08-16T01:21:23.000Z</time>
      </trkpt>
      <trkpt lat="22.817469" lon="109.878399">
        <ele>71.902212</ele>
        <time>2026-08-16T01:21:24.000Z</time>
      </trkpt>
      <trkpt lat="22.817449" lon="109.878442">
        <ele>71.947206</ele>
        <time>2026-08-16T01:21:25.000Z</time>
      </trkpt>
      <trkpt lat="22.817426" lon="109.878485">
        <ele>71.993649</ele>
        <time>2026-08-16T01:21:26.000Z</time>
      </trkpt>
      <trkpt lat="22.817405" lon="109.878527">
        <ele>72.038285</ele>
        <time>2026-08-16T01:21:27.000Z</time>
      </trkpt>
      <trkpt lat="22.817382" lon="109.878570">
        <ele>72.084728</ele>
        <time>2026-08-16T01:21:28.000Z</time>
      </trkpt>
      <trkpt lat="22.817361" lon="109.878613">
        <ele>72.130187</ele>
        <time>2026-08-16T01:21:29.000Z</time>
      </trkpt>
      <trkpt lat="22.817341" lon="109.878656">
        <ele>72.175181</ele>
        <time>2026-08-16T01:21:30.000Z</time>
      </trkpt>
      <trkpt lat="22.817321" lon="109.878695">
        <ele>72.216872</ele>
        <time>2026-08-16T01:21:31.000Z</time>
      </trkpt>
      <trkpt lat="22.817300" lon="109.878734">
        <ele>72.259066</ele>
        <time>2026-08-16T01:21:32.000Z</time>
      </trkpt>
      <trkpt lat="22.817282" lon="109.878777">
        <ele>72.303184</ele>
        <time>2026-08-16T01:21:33.000Z</time>
      </trkpt>
      <trkpt lat="22.817262" lon="109.878818">
        <ele>72.346518</ele>
        <time>2026-08-16T01:21:34.000Z</time>
      </trkpt>
      <trkpt lat="22.817244" lon="109.878861">
        <ele>72.390635</ele>
        <time>2026-08-16T01:21:35.000Z</time>
      </trkpt>
      <trkpt lat="22.817225" lon="109.878906">
        <ele>72.436874</ele>
        <time>2026-08-16T01:21:36.000Z</time>
      </trkpt>
      <trkpt lat="22.817205" lon="109.878949">
        <ele>72.481867</ele>
        <time>2026-08-16T01:21:37.000Z</time>
      </trkpt>
      <trkpt lat="22.817183" lon="109.878993">
        <ele>72.528629</ele>
        <time>2026-08-16T01:21:38.000Z</time>
      </trkpt>
      <trkpt lat="22.817165" lon="109.879038">
        <ele>72.574454</ele>
        <time>2026-08-16T01:21:39.000Z</time>
      </trkpt>
      <trkpt lat="22.817146" lon="109.879082">
        <ele>72.619845</ele>
        <time>2026-08-16T01:21:40.000Z</time>
      </trkpt>
      <trkpt lat="22.817128" lon="109.879127">
        <ele>72.665670</ele>
        <time>2026-08-16T01:21:41.000Z</time>
      </trkpt>
      <trkpt lat="22.817110" lon="109.879173">
        <ele>72.712354</ele>
        <time>2026-08-16T01:21:42.000Z</time>
      </trkpt>
      <trkpt lat="22.817091" lon="109.879216">
        <ele>72.756900</ele>
        <time>2026-08-16T01:21:43.000Z</time>
      </trkpt>
      <trkpt lat="22.817073" lon="109.879261">
        <ele>72.802726</ele>
        <time>2026-08-16T01:21:44.000Z</time>
      </trkpt>
      <trkpt lat="22.817055" lon="109.879307">
        <ele>72.849410</ele>
        <time>2026-08-16T01:21:45.000Z</time>
      </trkpt>
      <trkpt lat="22.817035" lon="109.879353">
        <ele>72.896922</ele>
        <time>2026-08-16T01:21:46.000Z</time>
      </trkpt>
      <trkpt lat="22.817016" lon="109.879398">
        <ele>72.943160</ele>
        <time>2026-08-16T01:21:47.000Z</time>
      </trkpt>
      <trkpt lat="22.816998" lon="109.879445">
        <ele>72.990706</ele>
        <time>2026-08-16T01:21:48.000Z</time>
      </trkpt>
      <trkpt lat="22.816981" lon="109.879489">
        <ele>73.035274</ele>
        <time>2026-08-16T01:21:49.000Z</time>
      </trkpt>
      <trkpt lat="22.816965" lon="109.879534">
        <ele>73.080331</ele>
        <time>2026-08-16T01:21:50.000Z</time>
      </trkpt>
      <trkpt lat="22.816946" lon="109.879579">
        <ele>73.126569</ele>
        <time>2026-08-16T01:21:51.000Z</time>
      </trkpt>
      <trkpt lat="22.816932" lon="109.879623">
        <ele>73.170053</ele>
        <time>2026-08-16T01:21:52.000Z</time>
      </trkpt>
      <trkpt lat="22.816913" lon="109.879670">
        <ele>73.217996</ele>
        <time>2026-08-16T01:21:53.000Z</time>
      </trkpt>
      <trkpt lat="22.816896" lon="109.879717">
        <ele>73.265162</ele>
        <time>2026-08-16T01:21:54.000Z</time>
      </trkpt>
      <trkpt lat="22.816878" lon="109.879763">
        <ele>73.311846</ele>
        <time>2026-08-16T01:21:55.000Z</time>
      </trkpt>
      <trkpt lat="22.816860" lon="109.879809">
        <ele>73.358530</ele>
        <time>2026-08-16T01:21:56.000Z</time>
      </trkpt>
      <trkpt lat="22.816845" lon="109.879858">
        <ele>73.406763</ele>
        <time>2026-08-16T01:21:57.000Z</time>
      </trkpt>
      <trkpt lat="22.816829" lon="109.879907">
        <ele>73.455324</ele>
        <time>2026-08-16T01:21:58.000Z</time>
      </trkpt>
      <trkpt lat="22.816812" lon="109.879956">
        <ele>73.504234</ele>
        <time>2026-08-16T01:21:59.000Z</time>
      </trkpt>
      <trkpt lat="22.816794" lon="109.880007">
        <ele>73.555250</ele>
        <time>2026-08-16T01:22:00.000Z</time>
      </trkpt>
      <trkpt lat="22.816778" lon="109.880052">
        <ele>73.600307</ele>
        <time>2026-08-16T01:22:01.000Z</time>
      </trkpt>
      <trkpt lat="22.816764" lon="109.880098">
        <ele>73.645561</ele>
        <time>2026-08-16T01:22:02.000Z</time>
      </trkpt>
      <trkpt lat="22.816749" lon="109.880146">
        <ele>73.692908</ele>
        <time>2026-08-16T01:22:03.000Z</time>
      </trkpt>
      <trkpt lat="22.816733" lon="109.880195">
        <ele>73.720222</ele>
        <time>2026-08-16T01:22:04.000Z</time>
      </trkpt>
      <trkpt lat="22.816721" lon="109.880242">
        <ele>73.739329</ele>
        <time>2026-08-16T01:22:05.000Z</time>
      </trkpt>
      <trkpt lat="22.816709" lon="109.880288">
        <ele>73.758058</ele>
        <time>2026-08-16T01:22:06.000Z</time>
      </trkpt>
      <trkpt lat="22.816693" lon="109.880337">
        <ele>73.778424</ele>
        <time>2026-08-16T01:22:07.000Z</time>
      </trkpt>
      <trkpt lat="22.816678" lon="109.880385">
        <ele>73.798280</ele>
        <time>2026-08-16T01:22:08.000Z</time>
      </trkpt>
      <trkpt lat="22.816662" lon="109.880432">
        <ele>73.817909</ele>
        <time>2026-08-16T01:22:09.000Z</time>
      </trkpt>
      <trkpt lat="22.816646" lon="109.880470">
        <ele>73.834276</ele>
        <time>2026-08-16T01:22:10.000Z</time>
      </trkpt>
      <trkpt lat="22.816633" lon="109.880512">
        <ele>73.851634</ele>
        <time>2026-08-16T01:22:11.000Z</time>
      </trkpt>
      <trkpt lat="22.816621" lon="109.880557">
        <ele>73.869987</ele>
        <time>2026-08-16T01:22:12.000Z</time>
      </trkpt>
      <trkpt lat="22.816604" lon="109.880602">
        <ele>73.889040</ele>
        <time>2026-08-16T01:22:13.000Z</time>
      </trkpt>
      <trkpt lat="22.816587" lon="109.880649">
        <ele>73.908820</ele>
        <time>2026-08-16T01:22:14.000Z</time>
      </trkpt>
      <trkpt lat="22.816572" lon="109.880698">
        <ele>73.929048</ele>
        <time>2026-08-16T01:22:15.000Z</time>
      </trkpt>
      <trkpt lat="22.816554" lon="109.880745">
        <ele>73.948987</ele>
        <time>2026-08-16T01:22:16.000Z</time>
      </trkpt>
      <trkpt lat="22.816535" lon="109.880794">
        <ele>73.969814</ele>
        <time>2026-08-16T01:22:17.000Z</time>
      </trkpt>
      <trkpt lat="22.816520" lon="109.880839">
        <ele>73.988561</ele>
        <time>2026-08-16T01:22:18.000Z</time>
      </trkpt>
      <trkpt lat="22.816502" lon="109.880888">
        <ele>74.009226</ele>
        <time>2026-08-16T01:22:19.000Z</time>
      </trkpt>
      <trkpt lat="22.816481" lon="109.880935">
        <ele>74.029689</ele>
        <time>2026-08-16T01:22:20.000Z</time>
      </trkpt>
      <trkpt lat="22.816464" lon="109.880984">
        <ele>74.050201</ele>
        <time>2026-08-16T01:22:21.000Z</time>
      </trkpt>
      <trkpt lat="22.816447" lon="109.881037">
        <ele>74.072186</ele>
        <time>2026-08-16T01:22:22.000Z</time>
      </trkpt>
      <trkpt lat="22.816427" lon="109.881090">
        <ele>74.094623</ele>
        <time>2026-08-16T01:22:23.000Z</time>
      </trkpt>
      <trkpt lat="22.816404" lon="109.881141">
        <ele>74.116866</ele>
        <time>2026-08-16T01:22:24.000Z</time>
      </trkpt>
      <trkpt lat="22.816384" lon="109.881191">
        <ele>74.138220</ele>
        <time>2026-08-16T01:22:25.000Z</time>
      </trkpt>
      <trkpt lat="22.816364" lon="109.881243">
        <ele>74.160295</ele>
        <time>2026-08-16T01:22:26.000Z</time>
      </trkpt>
      <trkpt lat="22.816341" lon="109.881290">
        <ele>74.181142</ele>
        <time>2026-08-16T01:22:27.000Z</time>
      </trkpt>
      <trkpt lat="22.816322" lon="109.881341">
        <ele>74.202693</ele>
        <time>2026-08-16T01:22:28.000Z</time>
      </trkpt>
      <trkpt lat="22.816304" lon="109.881391">
        <ele>74.223723</ele>
        <time>2026-08-16T01:22:29.000Z</time>
      </trkpt>
      <trkpt lat="22.816285" lon="109.881441">
        <ele>74.244911</ele>
        <time>2026-08-16T01:22:30.000Z</time>
      </trkpt>
      <trkpt lat="22.816264" lon="109.881488">
        <ele>74.265373</ele>
        <time>2026-08-16T01:22:31.000Z</time>
      </trkpt>
      <trkpt lat="22.816246" lon="109.881530">
        <ele>74.283520</ele>
        <time>2026-08-16T01:22:32.000Z</time>
      </trkpt>
      <trkpt lat="22.816228" lon="109.881580">
        <ele>74.304549</ele>
        <time>2026-08-16T01:22:33.000Z</time>
      </trkpt>
      <trkpt lat="22.816210" lon="109.881631">
        <ele>74.325944</ele>
        <time>2026-08-16T01:22:34.000Z</time>
      </trkpt>
      <trkpt lat="22.816191" lon="109.881683">
        <ele>74.347859</ele>
        <time>2026-08-16T01:22:35.000Z</time>
      </trkpt>
      <trkpt lat="22.816173" lon="109.881738">
        <ele>74.370724</ele>
        <time>2026-08-16T01:22:36.000Z</time>
      </trkpt>
      <trkpt lat="22.816158" lon="109.881791">
        <ele>74.392445</ele>
        <time>2026-08-16T01:22:37.000Z</time>
      </trkpt>
      <trkpt lat="22.816142" lon="109.881845">
        <ele>74.414667</ele>
        <time>2026-08-16T01:22:38.000Z</time>
      </trkpt>
      <trkpt lat="22.816128" lon="109.881899">
        <ele>74.436644</ele>
        <time>2026-08-16T01:22:39.000Z</time>
      </trkpt>
      <trkpt lat="22.816114" lon="109.881953">
        <ele>74.458621</ele>
        <time>2026-08-16T01:22:40.000Z</time>
      </trkpt>
      <trkpt lat="22.816098" lon="109.882004">
        <ele>74.460706</ele>
        <time>2026-08-16T01:22:41.000Z</time>
      </trkpt>
      <trkpt lat="22.816086" lon="109.882054">
        <ele>74.443826</ele>
        <time>2026-08-16T01:22:42.000Z</time>
      </trkpt>
      <trkpt lat="22.816072" lon="109.882105">
        <ele>74.426440</ele>
        <time>2026-08-16T01:22:43.000Z</time>
      </trkpt>
      <trkpt lat="22.816055" lon="109.882158">
        <ele>74.408105</ele>
        <time>2026-08-16T01:22:44.000Z</time>
      </trkpt>
      <trkpt lat="22.816036" lon="109.882212">
        <ele>74.389221</ele>
        <time>2026-08-16T01:22:45.000Z</time>
      </trkpt>
      <trkpt lat="22.816016" lon="109.882268">
        <ele>74.369599</ele>
        <time>2026-08-16T01:22:46.000Z</time>
      </trkpt>
      <trkpt lat="22.815999" lon="109.882325">
        <ele>74.350025</ele>
        <time>2026-08-16T01:22:47.000Z</time>
      </trkpt>
      <trkpt lat="22.815984" lon="109.882383">
        <ele>74.330344</ele>
        <time>2026-08-16T01:22:48.000Z</time>
      </trkpt>
      <trkpt lat="22.815972" lon="109.882443">
        <ele>74.310285</ele>
        <time>2026-08-16T01:22:49.000Z</time>
      </trkpt>
      <trkpt lat="22.815960" lon="109.882505">
        <ele>74.289586</ele>
        <time>2026-08-16T01:22:50.000Z</time>
      </trkpt>
      <trkpt lat="22.815949" lon="109.882570">
        <ele>74.267995</ele>
        <time>2026-08-16T01:22:51.000Z</time>
      </trkpt>
      <trkpt lat="22.815933" lon="109.882631">
        <ele>74.247274</ele>
        <time>2026-08-16T01:22:52.000Z</time>
      </trkpt>
      <trkpt lat="22.815918" lon="109.882696">
        <ele>74.225381</ele>
        <time>2026-08-16T01:22:53.000Z</time>
      </trkpt>
      <trkpt lat="22.815902" lon="109.882761">
        <ele>74.203401</ele>
        <time>2026-08-16T01:22:54.000Z</time>
      </trkpt>
      <trkpt lat="22.815885" lon="109.882822">
        <ele>74.182580</ele>
        <time>2026-08-16T01:22:55.000Z</time>
      </trkpt>
      <trkpt lat="22.815869" lon="109.882885">
        <ele>74.161229</ele>
        <time>2026-08-16T01:22:56.000Z</time>
      </trkpt>
      <trkpt lat="22.815859" lon="109.882953">
        <ele>74.138731</ele>
        <time>2026-08-16T01:22:57.000Z</time>
      </trkpt>
      <trkpt lat="22.815844" lon="109.883020">
        <ele>74.116205</ele>
        <time>2026-08-16T01:22:58.000Z</time>
      </trkpt>
      <trkpt lat="22.815827" lon="109.883087">
        <ele>74.093500</ele>
        <time>2026-08-16T01:22:59.000Z</time>
      </trkpt>
      <trkpt lat="22.815811" lon="109.883154">
        <ele>74.070888</ele>
        <time>2026-08-16T01:23:00.000Z</time>
      </trkpt>
      <trkpt lat="22.815805" lon="109.883222">
        <ele>74.048569</ele>
        <time>2026-08-16T01:23:01.000Z</time>
      </trkpt>
      <trkpt lat="22.815791" lon="109.883286">
        <ele>74.027078</ele>
        <time>2026-08-16T01:23:02.000Z</time>
      </trkpt>
      <trkpt lat="22.815774" lon="109.883353">
        <ele>74.004374</ele>
        <time>2026-08-16T01:23:03.000Z</time>
      </trkpt>
      <trkpt lat="22.815760" lon="109.883421">
        <ele>73.981610</ele>
        <time>2026-08-16T01:23:04.000Z</time>
      </trkpt>
      <trkpt lat="22.815742" lon="109.883487">
        <ele>73.959122</ele>
        <time>2026-08-16T01:23:05.000Z</time>
      </trkpt>
      <trkpt lat="22.815725" lon="109.883551">
        <ele>73.937361</ele>
        <time>2026-08-16T01:23:06.000Z</time>
      </trkpt>
      <trkpt lat="22.815708" lon="109.883611">
        <ele>73.916853</ele>
        <time>2026-08-16T01:23:07.000Z</time>
      </trkpt>
      <trkpt lat="22.815695" lon="109.883673">
        <ele>73.896079</ele>
        <time>2026-08-16T01:23:08.000Z</time>
      </trkpt>
      <trkpt lat="22.815681" lon="109.883734">
        <ele>73.875540</ele>
        <time>2026-08-16T01:23:09.000Z</time>
      </trkpt>
      <trkpt lat="22.815666" lon="109.883795">
        <ele>73.854913</ele>
        <time>2026-08-16T01:23:10.000Z</time>
      </trkpt>
      <trkpt lat="22.815649" lon="109.883855">
        <ele>73.834405</ele>
        <time>2026-08-16T01:23:11.000Z</time>
      </trkpt>
      <trkpt lat="22.815635" lon="109.883912">
        <ele>73.838783</ele>
        <time>2026-08-16T01:23:12.000Z</time>
      </trkpt>
      <trkpt lat="22.815623" lon="109.883967">
        <ele>73.846487</ele>
        <time>2026-08-16T01:23:13.000Z</time>
      </trkpt>
      <trkpt lat="22.815608" lon="109.884025">
        <ele>73.854698</ele>
        <time>2026-08-16T01:23:14.000Z</time>
      </trkpt>
      <trkpt lat="22.815591" lon="109.884084">
        <ele>73.863123</ele>
        <time>2026-08-16T01:23:15.000Z</time>
      </trkpt>
      <trkpt lat="22.815578" lon="109.884138">
        <ele>73.870730</ele>
        <time>2026-08-16T01:23:16.000Z</time>
      </trkpt>
      <trkpt lat="22.815565" lon="109.884193">
        <ele>73.878470</ele>
        <time>2026-08-16T01:23:17.000Z</time>
      </trkpt>
      <trkpt lat="22.815550" lon="109.884247">
        <ele>73.886157</ele>
        <time>2026-08-16T01:23:18.000Z</time>
      </trkpt>
      <trkpt lat="22.815534" lon="109.884301">
        <ele>73.893888</ele>
        <time>2026-08-16T01:23:19.000Z</time>
      </trkpt>
      <trkpt lat="22.815518" lon="109.884355">
        <ele>73.901619</ele>
        <time>2026-08-16T01:23:20.000Z</time>
      </trkpt>
      <trkpt lat="22.815503" lon="109.884412">
        <ele>73.909699</ele>
        <time>2026-08-16T01:23:21.000Z</time>
      </trkpt>
      <trkpt lat="22.815487" lon="109.884467">
        <ele>73.917560</ele>
        <time>2026-08-16T01:23:22.000Z</time>
      </trkpt>
      <trkpt lat="22.815477" lon="109.884526">
        <ele>73.925737</ele>
        <time>2026-08-16T01:23:23.000Z</time>
      </trkpt>
      <trkpt lat="22.815463" lon="109.884577">
        <ele>73.932990</ele>
        <time>2026-08-16T01:23:24.000Z</time>
      </trkpt>
      <trkpt lat="22.815447" lon="109.884634">
        <ele>73.941111</ele>
        <time>2026-08-16T01:23:25.000Z</time>
      </trkpt>
      <trkpt lat="22.815428" lon="109.884697">
        <ele>73.950146</ele>
        <time>2026-08-16T01:23:26.000Z</time>
      </trkpt>
      <trkpt lat="22.815414" lon="109.884755">
        <ele>73.958319</ele>
        <time>2026-08-16T01:23:27.000Z</time>
      </trkpt>
      <trkpt lat="22.815392" lon="109.884812">
        <ele>73.966741</ele>
        <time>2026-08-16T01:23:28.000Z</time>
      </trkpt>
      <trkpt lat="22.815378" lon="109.884873">
        <ele>73.975310</ele>
        <time>2026-08-16T01:23:29.000Z</time>
      </trkpt>
      <trkpt lat="22.815358" lon="109.884932">
        <ele>73.983878</ele>
        <time>2026-08-16T01:23:30.000Z</time>
      </trkpt>
      <trkpt lat="22.815338" lon="109.884993">
        <ele>73.992703</ele>
        <time>2026-08-16T01:23:31.000Z</time>
      </trkpt>
      <trkpt lat="22.815317" lon="109.885060">
        <ele>74.002349</ele>
        <time>2026-08-16T01:23:32.000Z</time>
      </trkpt>
      <trkpt lat="22.815298" lon="109.885130">
        <ele>74.012295</ele>
        <time>2026-08-16T01:23:33.000Z</time>
      </trkpt>
      <trkpt lat="22.815279" lon="109.885198">
        <ele>74.021980</ele>
        <time>2026-08-16T01:23:34.000Z</time>
      </trkpt>
      <trkpt lat="22.815262" lon="109.885264">
        <ele>74.031321</ele>
        <time>2026-08-16T01:23:35.000Z</time>
      </trkpt>
      <trkpt lat="22.815245" lon="109.885330">
        <ele>74.040661</ele>
        <time>2026-08-16T01:23:36.000Z</time>
      </trkpt>
      <trkpt lat="22.815225" lon="109.885398">
        <ele>74.050390</ele>
        <time>2026-08-16T01:23:37.000Z</time>
      </trkpt>
      <trkpt lat="22.815207" lon="109.885469">
        <ele>74.060427</ele>
        <time>2026-08-16T01:23:38.000Z</time>
      </trkpt>
      <trkpt lat="22.815197" lon="109.885545">
        <ele>74.070891</ele>
        <time>2026-08-16T01:23:39.000Z</time>
      </trkpt>
      <trkpt lat="22.815183" lon="109.885616">
        <ele>74.080787</ele>
        <time>2026-08-16T01:23:40.000Z</time>
      </trkpt>
      <trkpt lat="22.815169" lon="109.885685">
        <ele>74.090417</ele>
        <time>2026-08-16T01:23:41.000Z</time>
      </trkpt>
      <trkpt lat="22.815155" lon="109.885754">
        <ele>74.101151</ele>
        <time>2026-08-16T01:23:42.000Z</time>
      </trkpt>
      <trkpt lat="22.815139" lon="109.885821">
        <ele>74.115194</ele>
        <time>2026-08-16T01:23:43.000Z</time>
      </trkpt>
      <trkpt lat="22.815120" lon="109.885887">
        <ele>74.129224</ele>
        <time>2026-08-16T01:23:44.000Z</time>
      </trkpt>
      <trkpt lat="22.815100" lon="109.885953">
        <ele>74.143322</ele>
        <time>2026-08-16T01:23:45.000Z</time>
      </trkpt>
      <trkpt lat="22.815081" lon="109.886018">
        <ele>74.157158</ele>
        <time>2026-08-16T01:23:46.000Z</time>
      </trkpt>
      <trkpt lat="22.815061" lon="109.886079">
        <ele>74.170295</ele>
        <time>2026-08-16T01:23:47.000Z</time>
      </trkpt>
      <trkpt lat="22.815046" lon="109.886140">
        <ele>74.183106</ele>
        <time>2026-08-16T01:23:48.000Z</time>
      </trkpt>
      <trkpt lat="22.815029" lon="109.886202">
        <ele>74.196231</ele>
        <time>2026-08-16T01:23:49.000Z</time>
      </trkpt>
      <trkpt lat="22.815006" lon="109.886263">
        <ele>74.209604</ele>
        <time>2026-08-16T01:23:50.000Z</time>
      </trkpt>
      <trkpt lat="22.814989" lon="109.886331">
        <ele>74.223900</ele>
        <time>2026-08-16T01:23:51.000Z</time>
      </trkpt>
      <trkpt lat="22.814975" lon="109.886396">
        <ele>74.237445</ele>
        <time>2026-08-16T01:23:52.000Z</time>
      </trkpt>
      <trkpt lat="22.814959" lon="109.886454">
        <ele>74.249729</ele>
        <time>2026-08-16T01:23:53.000Z</time>
      </trkpt>
      <trkpt lat="22.814946" lon="109.886517">
        <ele>74.262829</ele>
        <time>2026-08-16T01:23:54.000Z</time>
      </trkpt>
      <trkpt lat="22.814934" lon="109.886581">
        <ele>74.276081</ele>
        <time>2026-08-16T01:23:55.000Z</time>
      </trkpt>
      <trkpt lat="22.814921" lon="109.886643">
        <ele>74.288983</ele>
        <time>2026-08-16T01:23:56.000Z</time>
      </trkpt>
      <trkpt lat="22.814906" lon="109.886707">
        <ele>74.302382</ele>
        <time>2026-08-16T01:23:57.000Z</time>
      </trkpt>
      <trkpt lat="22.814889" lon="109.886772">
        <ele>74.316092</ele>
        <time>2026-08-16T01:23:58.000Z</time>
      </trkpt>
      <trkpt lat="22.814874" lon="109.886837">
        <ele>74.329688</ele>
        <time>2026-08-16T01:23:59.000Z</time>
      </trkpt>
      <trkpt lat="22.814861" lon="109.886901">
        <ele>74.342986</ele>
        <time>2026-08-16T01:24:00.000Z</time>
      </trkpt>
      <trkpt lat="22.814849" lon="109.886965">
        <ele>74.356238</ele>
        <time>2026-08-16T01:24:01.000Z</time>
      </trkpt>
      <trkpt lat="22.814835" lon="109.887031">
        <ele>74.369980</ele>
        <time>2026-08-16T01:24:02.000Z</time>
      </trkpt>
      <trkpt lat="22.814822" lon="109.887095">
        <ele>74.383278</ele>
        <time>2026-08-16T01:24:03.000Z</time>
      </trkpt>
      <trkpt lat="22.814812" lon="109.887156">
        <ele>74.395850</ele>
        <time>2026-08-16T01:24:04.000Z</time>
      </trkpt>
      <trkpt lat="22.814806" lon="109.887217">
        <ele>74.408298</ele>
        <time>2026-08-16T01:24:05.000Z</time>
      </trkpt>
      <trkpt lat="22.814800" lon="109.887280">
        <ele>74.421149</ele>
        <time>2026-08-16T01:24:06.000Z</time>
      </trkpt>
      <trkpt lat="22.814794" lon="109.887340">
        <ele>74.433395</ele>
        <time>2026-08-16T01:24:07.000Z</time>
      </trkpt>
      <trkpt lat="22.814787" lon="109.887401">
        <ele>74.445868</ele>
        <time>2026-08-16T01:24:08.000Z</time>
      </trkpt>
      <trkpt lat="22.814775" lon="109.887462">
        <ele>74.458524</ele>
        <time>2026-08-16T01:24:09.000Z</time>
      </trkpt>
      <trkpt lat="22.814767" lon="109.887525">
        <ele>74.471429</ele>
        <time>2026-08-16T01:24:10.000Z</time>
      </trkpt>
      <trkpt lat="22.814764" lon="109.887588">
        <ele>74.484229</ele>
        <time>2026-08-16T01:24:11.000Z</time>
      </trkpt>
      <trkpt lat="22.814763" lon="109.887651">
        <ele>74.497260</ele>
        <time>2026-08-16T01:24:12.000Z</time>
      </trkpt>
      <trkpt lat="22.814764" lon="109.887716">
        <ele>74.511440</ele>
        <time>2026-08-16T01:24:13.000Z</time>
      </trkpt>
      <trkpt lat="22.814768" lon="109.887781">
        <ele>74.525649</ele>
        <time>2026-08-16T01:24:14.000Z</time>
      </trkpt>
      <trkpt lat="22.814771" lon="109.887847">
        <ele>74.540062</ele>
        <time>2026-08-16T01:24:15.000Z</time>
      </trkpt>
      <trkpt lat="22.814773" lon="109.887915">
        <ele>74.554901</ele>
        <time>2026-08-16T01:24:16.000Z</time>
      </trkpt>
      <trkpt lat="22.814773" lon="109.887982">
        <ele>74.569515</ele>
        <time>2026-08-16T01:24:17.000Z</time>
      </trkpt>
      <trkpt lat="22.814774" lon="109.888051">
        <ele>74.584567</ele>
        <time>2026-08-16T01:24:18.000Z</time>
      </trkpt>
      <trkpt lat="22.814775" lon="109.888118">
        <ele>74.599183</ele>
        <time>2026-08-16T01:24:19.000Z</time>
      </trkpt>
      <trkpt lat="22.814776" lon="109.888189">
        <ele>74.614671</ele>
        <time>2026-08-16T01:24:20.000Z</time>
      </trkpt>
      <trkpt lat="22.814778" lon="109.888259">
        <ele>74.629946</ele>
        <time>2026-08-16T01:24:21.000Z</time>
      </trkpt>
      <trkpt lat="22.814780" lon="109.888329">
        <ele>74.645222</ele>
        <time>2026-08-16T01:24:22.000Z</time>
      </trkpt>
      <trkpt lat="22.814782" lon="109.888399">
        <ele>74.660497</ele>
        <time>2026-08-16T01:24:23.000Z</time>
      </trkpt>
      <trkpt lat="22.814786" lon="109.888471">
        <ele>74.676230</ele>
        <time>2026-08-16T01:24:24.000Z</time>
      </trkpt>
      <trkpt lat="22.814788" lon="109.888542">
        <ele>74.691723</ele>
        <time>2026-08-16T01:24:25.000Z</time>
      </trkpt>
      <trkpt lat="22.814790" lon="109.888613">
        <ele>74.707217</ele>
        <time>2026-08-16T01:24:26.000Z</time>
      </trkpt>
      <trkpt lat="22.814793" lon="109.888684">
        <ele>74.722719</ele>
        <time>2026-08-16T01:24:27.000Z</time>
      </trkpt>
      <trkpt lat="22.814795" lon="109.888756">
        <ele>74.738431</ele>
        <time>2026-08-16T01:24:28.000Z</time>
      </trkpt>
      <trkpt lat="22.814798" lon="109.888827">
        <ele>74.753933</ele>
        <time>2026-08-16T01:24:29.000Z</time>
      </trkpt>
      <trkpt lat="22.814801" lon="109.888895">
        <ele>74.768782</ele>
        <time>2026-08-16T01:24:30.000Z</time>
      </trkpt>
      <trkpt lat="22.814805" lon="109.888962">
        <ele>74.783426</ele>
        <time>2026-08-16T01:24:31.000Z</time>
      </trkpt>
      <trkpt lat="22.814809" lon="109.889033">
        <ele>74.798942</ele>
        <time>2026-08-16T01:24:32.000Z</time>
      </trkpt>
      <trkpt lat="22.814813" lon="109.889102">
        <ele>74.814021</ele>
        <time>2026-08-16T01:24:33.000Z</time>
      </trkpt>
      <trkpt lat="22.814813" lon="109.889173">
        <ele>74.829508</ele>
        <time>2026-08-16T01:24:34.000Z</time>
      </trkpt>
      <trkpt lat="22.814814" lon="109.889243">
        <ele>74.844777</ele>
        <time>2026-08-16T01:24:35.000Z</time>
      </trkpt>
      <trkpt lat="22.814816" lon="109.889314">
        <ele>74.860271</ele>
        <time>2026-08-16T01:24:36.000Z</time>
      </trkpt>
      <trkpt lat="22.814816" lon="109.889386">
        <ele>74.875975</ele>
        <time>2026-08-16T01:24:37.000Z</time>
      </trkpt>
      <trkpt lat="22.814817" lon="109.889456">
        <ele>74.891245</ele>
        <time>2026-08-16T01:24:38.000Z</time>
      </trkpt>
      <trkpt lat="22.814819" lon="109.889524">
        <ele>74.906085</ele>
        <time>2026-08-16T01:24:39.000Z</time>
      </trkpt>
      <trkpt lat="22.814819" lon="109.889591">
        <ele>74.921185</ele>
        <time>2026-08-16T01:24:40.000Z</time>
      </trkpt>
      <trkpt lat="22.814819" lon="109.889660">
        <ele>74.941631</ele>
        <time>2026-08-16T01:24:41.000Z</time>
      </trkpt>
      <trkpt lat="22.814820" lon="109.889728">
        <ele>74.961784</ele>
        <time>2026-08-16T01:24:42.000Z</time>
      </trkpt>
      <trkpt lat="22.814822" lon="109.889795">
        <ele>74.981647</ele>
        <time>2026-08-16T01:24:43.000Z</time>
      </trkpt>
      <trkpt lat="22.814823" lon="109.889862">
        <ele>75.001504</ele>
        <time>2026-08-16T01:24:44.000Z</time>
      </trkpt>
      <trkpt lat="22.814824" lon="109.889930">
        <ele>75.021656</ele>
        <time>2026-08-16T01:24:45.000Z</time>
      </trkpt>
      <trkpt lat="22.814825" lon="109.889998">
        <ele>75.041808</ele>
        <time>2026-08-16T01:24:46.000Z</time>
      </trkpt>
      <trkpt lat="22.814826" lon="109.890065">
        <ele>75.061664</ele>
        <time>2026-08-16T01:24:47.000Z</time>
      </trkpt>
      <trkpt lat="22.814827" lon="109.890134">
        <ele>75.082113</ele>
        <time>2026-08-16T01:24:48.000Z</time>
      </trkpt>
      <trkpt lat="22.814829" lon="109.890204">
        <ele>75.102866</ele>
        <time>2026-08-16T01:24:49.000Z</time>
      </trkpt>
      <trkpt lat="22.814830" lon="109.890273">
        <ele>75.123314</ele>
        <time>2026-08-16T01:24:50.000Z</time>
      </trkpt>
      <trkpt lat="22.814829" lon="109.890341">
        <ele>75.143467</ele>
        <time>2026-08-16T01:24:51.000Z</time>
      </trkpt>
      <trkpt lat="22.814827" lon="109.890410">
        <ele>75.163923</ele>
        <time>2026-08-16T01:24:52.000Z</time>
      </trkpt>
      <trkpt lat="22.814826" lon="109.890480">
        <ele>75.184668</ele>
        <time>2026-08-16T01:24:53.000Z</time>
      </trkpt>
      <trkpt lat="22.814824" lon="109.890550">
        <ele>75.205420</ele>
        <time>2026-08-16T01:24:54.000Z</time>
      </trkpt>
      <trkpt lat="22.814823" lon="109.890621">
        <ele>75.226461</ele>
        <time>2026-08-16T01:24:55.000Z</time>
      </trkpt>
      <trkpt lat="22.814823" lon="109.890689">
        <ele>75.246611</ele>
        <time>2026-08-16T01:24:56.000Z</time>
      </trkpt>
      <trkpt lat="22.814822" lon="109.890757">
        <ele>75.266764</ele>
        <time>2026-08-16T01:24:57.000Z</time>
      </trkpt>
      <trkpt lat="22.814818" lon="109.890823">
        <ele>75.286363</ele>
        <time>2026-08-16T01:24:58.000Z</time>
      </trkpt>
      <trkpt lat="22.814811" lon="109.890891">
        <ele>75.306638</ele>
        <time>2026-08-16T01:24:59.000Z</time>
      </trkpt>
      <trkpt lat="22.814803" lon="109.890958">
        <ele>75.326657</ele>
        <time>2026-08-16T01:25:00.000Z</time>
      </trkpt>
      <trkpt lat="22.814793" lon="109.891026">
        <ele>75.347062</ele>
        <time>2026-08-16T01:25:01.000Z</time>
      </trkpt>
      <trkpt lat="22.814783" lon="109.891093">
        <ele>75.367174</ele>
        <time>2026-08-16T01:25:02.000Z</time>
      </trkpt>
      <trkpt lat="22.814772" lon="109.891158">
        <ele>75.386757</ele>
        <time>2026-08-16T01:25:03.000Z</time>
      </trkpt>
      <trkpt lat="22.814760" lon="109.891226">
        <ele>75.407273</ele>
        <time>2026-08-16T01:25:04.000Z</time>
      </trkpt>
      <trkpt lat="22.814746" lon="109.891293">
        <ele>75.427630</ele>
        <time>2026-08-16T01:25:05.000Z</time>
      </trkpt>
      <trkpt lat="22.814732" lon="109.891359">
        <ele>75.447698</ele>
        <time>2026-08-16T01:25:06.000Z</time>
      </trkpt>
      <trkpt lat="22.814717" lon="109.891427">
        <ele>75.468417</ele>
        <time>2026-08-16T01:25:07.000Z</time>
      </trkpt>
      <trkpt lat="22.814697" lon="109.891492">
        <ele>75.488723</ele>
        <time>2026-08-16T01:25:08.000Z</time>
      </trkpt>
      <trkpt lat="22.814675" lon="109.891554">
        <ele>75.504317</ele>
        <time>2026-08-16T01:25:09.000Z</time>
      </trkpt>
      <trkpt lat="22.814651" lon="109.891616">
        <ele>75.516731</ele>
        <time>2026-08-16T01:25:10.000Z</time>
      </trkpt>
      <trkpt lat="22.814626" lon="109.891679">
        <ele>75.529394</ele>
        <time>2026-08-16T01:25:11.000Z</time>
      </trkpt>
      <trkpt lat="22.814599" lon="109.891743">
        <ele>75.542388</ele>
        <time>2026-08-16T01:25:12.000Z</time>
      </trkpt>
      <trkpt lat="22.814570" lon="109.891805">
        <ele>75.555223</ele>
        <time>2026-08-16T01:25:13.000Z</time>
      </trkpt>
      <trkpt lat="22.814539" lon="109.891864">
        <ele>75.567761</ele>
        <time>2026-08-16T01:25:14.000Z</time>
      </trkpt>
      <trkpt lat="22.814506" lon="109.891923">
        <ele>75.580501</ele>
        <time>2026-08-16T01:25:15.000Z</time>
      </trkpt>
      <trkpt lat="22.814472" lon="109.891980">
        <ele>75.593035</ele>
        <time>2026-08-16T01:25:16.000Z</time>
      </trkpt>
      <trkpt lat="22.814439" lon="109.892039">
        <ele>75.605776</ele>
        <time>2026-08-16T01:25:17.000Z</time>
      </trkpt>
      <trkpt lat="22.814404" lon="109.892098">
        <ele>75.618729</ele>
        <time>2026-08-16T01:25:18.000Z</time>
      </trkpt>
      <trkpt lat="22.814368" lon="109.892155">
        <ele>75.631485</ele>
        <time>2026-08-16T01:25:19.000Z</time>
      </trkpt>
      <trkpt lat="22.814327" lon="109.892209">
        <ele>75.644401</ele>
        <time>2026-08-16T01:25:20.000Z</time>
      </trkpt>
      <trkpt lat="22.814285" lon="109.892266">
        <ele>75.657873</ele>
        <time>2026-08-16T01:25:21.000Z</time>
      </trkpt>
      <trkpt lat="22.814238" lon="109.892318">
        <ele>75.671318</ele>
        <time>2026-08-16T01:25:22.000Z</time>
      </trkpt>
      <trkpt lat="22.814192" lon="109.892370">
        <ele>75.684623</ele>
        <time>2026-08-16T01:25:23.000Z</time>
      </trkpt>
      <trkpt lat="22.814144" lon="109.892424">
        <ele>75.698473</ele>
        <time>2026-08-16T01:25:24.000Z</time>
      </trkpt>
      <trkpt lat="22.814098" lon="109.892479">
        <ele>75.712183</ele>
        <time>2026-08-16T01:25:25.000Z</time>
      </trkpt>
      <trkpt lat="22.814055" lon="109.892530">
        <ele>75.724943</ele>
        <time>2026-08-16T01:25:26.000Z</time>
      </trkpt>
      <trkpt lat="22.814015" lon="109.892579">
        <ele>75.737027</ele>
        <time>2026-08-16T01:25:27.000Z</time>
      </trkpt>
      <trkpt lat="22.813973" lon="109.892637">
        <ele>75.750643</ele>
        <time>2026-08-16T01:25:28.000Z</time>
      </trkpt>
      <trkpt lat="22.813933" lon="109.892687">
        <ele>75.762866</ele>
        <time>2026-08-16T01:25:29.000Z</time>
      </trkpt>
      <trkpt lat="22.813894" lon="109.892736">
        <ele>75.774818</ele>
        <time>2026-08-16T01:25:30.000Z</time>
      </trkpt>
      <trkpt lat="22.813855" lon="109.892783">
        <ele>75.786492</ele>
        <time>2026-08-16T01:25:31.000Z</time>
      </trkpt>
      <trkpt lat="22.813815" lon="109.892834">
        <ele>75.798855</ele>
        <time>2026-08-16T01:25:32.000Z</time>
      </trkpt>
      <trkpt lat="22.813779" lon="109.892875">
        <ele>75.809308</ele>
        <time>2026-08-16T01:25:33.000Z</time>
      </trkpt>
      <trkpt lat="22.813744" lon="109.892912">
        <ele>75.819096</ele>
        <time>2026-08-16T01:25:34.000Z</time>
      </trkpt>
      <trkpt lat="22.813710" lon="109.892951">
        <ele>75.829006</ele>
        <time>2026-08-16T01:25:35.000Z</time>
      </trkpt>
      <trkpt lat="22.813675" lon="109.892989">
        <ele>75.838923</ele>
        <time>2026-08-16T01:25:36.000Z</time>
      </trkpt>
      <trkpt lat="22.813640" lon="109.893020">
        <ele>75.847973</ele>
        <time>2026-08-16T01:25:37.000Z</time>
      </trkpt>
      <trkpt lat="22.813606" lon="109.893051">
        <ele>75.856868</ele>
        <time>2026-08-16T01:25:38.000Z</time>
      </trkpt>
      <trkpt lat="22.813572" lon="109.893084">
        <ele>75.886204</ele>
        <time>2026-08-16T01:25:39.000Z</time>
      </trkpt>
      <trkpt lat="22.813538" lon="109.893112">
        <ele>75.915776</ele>
        <time>2026-08-16T01:25:40.000Z</time>
      </trkpt>
      <trkpt lat="22.813505" lon="109.893143">
        <ele>75.946018</ele>
        <time>2026-08-16T01:25:41.000Z</time>
      </trkpt>
      <trkpt lat="22.813471" lon="109.893173">
        <ele>75.976380</ele>
        <time>2026-08-16T01:25:42.000Z</time>
      </trkpt>
      <trkpt lat="22.813437" lon="109.893202">
        <ele>76.006343</ele>
        <time>2026-08-16T01:25:43.000Z</time>
      </trkpt>
      <trkpt lat="22.813403" lon="109.893230">
        <ele>76.035916</ele>
        <time>2026-08-16T01:25:44.000Z</time>
      </trkpt>
      <trkpt lat="22.813371" lon="109.893260">
        <ele>76.065216</ele>
        <time>2026-08-16T01:25:45.000Z</time>
      </trkpt>
      <trkpt lat="22.813341" lon="109.893292">
        <ele>76.094363</ele>
        <time>2026-08-16T01:25:46.000Z</time>
      </trkpt>
      <trkpt lat="22.813311" lon="109.893327">
        <ele>76.124884</ele>
        <time>2026-08-16T01:25:47.000Z</time>
      </trkpt>
      <trkpt lat="22.813277" lon="109.893360">
        <ele>76.156490</ele>
        <time>2026-08-16T01:25:48.000Z</time>
      </trkpt>
      <trkpt lat="22.813243" lon="109.893396">
        <ele>76.189404</ele>
        <time>2026-08-16T01:25:49.000Z</time>
      </trkpt>
      <trkpt lat="22.813208" lon="109.893431">
        <ele>76.222381</ele>
        <time>2026-08-16T01:25:50.000Z</time>
      </trkpt>
      <trkpt lat="22.813180" lon="109.893480">
        <ele>76.259197</ele>
        <time>2026-08-16T01:25:51.000Z</time>
      </trkpt>
      <trkpt lat="22.813148" lon="109.893524">
        <ele>76.294988</ele>
        <time>2026-08-16T01:25:52.000Z</time>
      </trkpt>
      <trkpt lat="22.813115" lon="109.893564">
        <ele>76.329268</ele>
        <time>2026-08-16T01:25:53.000Z</time>
      </trkpt>
      <trkpt lat="22.813080" lon="109.893607">
        <ele>76.365901</ele>
        <time>2026-08-16T01:25:54.000Z</time>
      </trkpt>
      <trkpt lat="22.813046" lon="109.893650">
        <ele>76.402080</ele>
        <time>2026-08-16T01:25:55.000Z</time>
      </trkpt>
      <trkpt lat="22.813012" lon="109.893690">
        <ele>76.436826</ele>
        <time>2026-08-16T01:25:56.000Z</time>
      </trkpt>
      <trkpt lat="22.812977" lon="109.893731">
        <ele>76.472512</ele>
        <time>2026-08-16T01:25:57.000Z</time>
      </trkpt>
      <trkpt lat="22.812942" lon="109.893778">
        <ele>76.511096</ele>
        <time>2026-08-16T01:25:58.000Z</time>
      </trkpt>
      <trkpt lat="22.812906" lon="109.893819">
        <ele>76.547256</ele>
        <time>2026-08-16T01:25:59.000Z</time>
      </trkpt>
      <trkpt lat="22.812870" lon="109.893860">
        <ele>76.583416</ele>
        <time>2026-08-16T01:26:00.000Z</time>
      </trkpt>
      <trkpt lat="22.812834" lon="109.893904">
        <ele>76.620987</ele>
        <time>2026-08-16T01:26:01.000Z</time>
      </trkpt>
      <trkpt lat="22.812800" lon="109.893946">
        <ele>76.656682</ele>
        <time>2026-08-16T01:26:02.000Z</time>
      </trkpt>
      <trkpt lat="22.812766" lon="109.893991">
        <ele>76.693839</ele>
        <time>2026-08-16T01:26:03.000Z</time>
      </trkpt>
      <trkpt lat="22.812734" lon="109.894037">
        <ele>76.730641</ele>
        <time>2026-08-16T01:26:04.000Z</time>
      </trkpt>
      <trkpt lat="22.812701" lon="109.894084">
        <ele>76.768371</ele>
        <time>2026-08-16T01:26:05.000Z</time>
      </trkpt>
      <trkpt lat="22.812667" lon="109.894129">
        <ele>76.805528</ele>
        <time>2026-08-16T01:26:06.000Z</time>
      </trkpt>
      <trkpt lat="22.812632" lon="109.894174">
        <ele>76.843128</ele>
        <time>2026-08-16T01:26:07.000Z</time>
      </trkpt>
      <trkpt lat="22.812591" lon="109.894216">
        <ele>76.882194</ele>
        <time>2026-08-16T01:26:08.000Z</time>
      </trkpt>
      <trkpt lat="22.812554" lon="109.894260">
        <ele>76.920228</ele>
        <time>2026-08-16T01:26:09.000Z</time>
      </trkpt>
      <trkpt lat="22.812519" lon="109.894306">
        <ele>76.958318</ele>
        <time>2026-08-16T01:26:10.000Z</time>
      </trkpt>
      <trkpt lat="22.812484" lon="109.894352">
        <ele>76.996408</ele>
        <time>2026-08-16T01:26:11.000Z</time>
      </trkpt>
      <trkpt lat="22.812444" lon="109.894397">
        <ele>77.036330</ele>
        <time>2026-08-16T01:26:12.000Z</time>
      </trkpt>
      <trkpt lat="22.812402" lon="109.894441">
        <ele>77.076779</ele>
        <time>2026-08-16T01:26:13.000Z</time>
      </trkpt>
      <trkpt lat="22.812363" lon="109.894484">
        <ele>77.114003</ele>
        <time>2026-08-16T01:26:14.000Z</time>
      </trkpt>
      <trkpt lat="22.812325" lon="109.894527">
        <ele>77.147721</ele>
        <time>2026-08-16T01:26:15.000Z</time>
      </trkpt>
      <trkpt lat="22.812292" lon="109.894574">
        <ele>77.181163</ele>
        <time>2026-08-16T01:26:16.000Z</time>
      </trkpt>
      <trkpt lat="22.812259" lon="109.894625">
        <ele>77.216432</ele>
        <time>2026-08-16T01:26:17.000Z</time>
      </trkpt>
      <trkpt lat="22.812223" lon="109.894670">
        <ele>77.250159</ele>
        <time>2026-08-16T01:26:18.000Z</time>
      </trkpt>
      <trkpt lat="22.812187" lon="109.894711">
        <ele>77.282209</ele>
        <time>2026-08-16T01:26:19.000Z</time>
      </trkpt>
      <trkpt lat="22.812149" lon="109.894752">
        <ele>77.315119</ele>
        <time>2026-08-16T01:26:20.000Z</time>
      </trkpt>
      <trkpt lat="22.812110" lon="109.894791">
        <ele>77.347690</ele>
        <time>2026-08-16T01:26:21.000Z</time>
      </trkpt>
      <trkpt lat="22.812072" lon="109.894832">
        <ele>77.380599</ele>
        <time>2026-08-16T01:26:22.000Z</time>
      </trkpt>
      <trkpt lat="22.812033" lon="109.894873">
        <ele>77.413947</ele>
        <time>2026-08-16T01:26:23.000Z</time>
      </trkpt>
      <trkpt lat="22.811994" lon="109.894906">
        <ele>77.444319</ele>
        <time>2026-08-16T01:26:24.000Z</time>
      </trkpt>
      <trkpt lat="22.811952" lon="109.894942">
        <ele>77.477188</ele>
        <time>2026-08-16T01:26:25.000Z</time>
      </trkpt>
      <trkpt lat="22.811911" lon="109.894981">
        <ele>77.510672</ele>
        <time>2026-08-16T01:26:26.000Z</time>
      </trkpt>
      <trkpt lat="22.811874" lon="109.895018">
        <ele>77.541572</ele>
        <time>2026-08-16T01:26:27.000Z</time>
      </trkpt>
      <trkpt lat="22.811839" lon="109.895062">
        <ele>77.574468</ele>
        <time>2026-08-16T01:26:28.000Z</time>
      </trkpt>
      <trkpt lat="22.811804" lon="109.895115">
        <ele>77.611372</ele>
        <time>2026-08-16T01:26:29.000Z</time>
      </trkpt>
      <trkpt lat="22.811765" lon="109.895155">
        <ele>77.644328</ele>
        <time>2026-08-16T01:26:30.000Z</time>
      </trkpt>
      <trkpt lat="22.811723" lon="109.895194">
        <ele>77.678276</ele>
        <time>2026-08-16T01:26:31.000Z</time>
      </trkpt>
      <trkpt lat="22.811683" lon="109.895224">
        <ele>77.708137</ele>
        <time>2026-08-16T01:26:32.000Z</time>
      </trkpt>
      <trkpt lat="22.811648" lon="109.895261">
        <ele>77.738146</ele>
        <time>2026-08-16T01:26:33.000Z</time>
      </trkpt>
      <trkpt lat="22.811611" lon="109.895301">
        <ele>77.770221</ele>
        <time>2026-08-16T01:26:34.000Z</time>
      </trkpt>
      <trkpt lat="22.811587" lon="109.895331">
        <ele>77.792705</ele>
        <time>2026-08-16T01:26:35.000Z</time>
      </trkpt>
      <trkpt lat="22.811568" lon="109.895365">
        <ele>77.815211</ele>
        <time>2026-08-16T01:26:36.000Z</time>
      </trkpt>
      <trkpt lat="22.811539" lon="109.895383">
        <ele>77.835727</ele>
        <time>2026-08-16T01:26:37.000Z</time>
      </trkpt>
      <trkpt lat="22.811505" lon="109.895416">
        <ele>77.863741</ele>
        <time>2026-08-16T01:26:38.000Z</time>
      </trkpt>
      <trkpt lat="22.811468" lon="109.895447">
        <ele>77.892448</ele>
        <time>2026-08-16T01:26:39.000Z</time>
      </trkpt>
      <trkpt lat="22.811430" lon="109.895474">
        <ele>77.920342</ele>
        <time>2026-08-16T01:26:40.000Z</time>
      </trkpt>
      <trkpt lat="22.811392" lon="109.895506">
        <ele>77.949881</ele>
        <time>2026-08-16T01:26:41.000Z</time>
      </trkpt>
      <trkpt lat="22.811356" lon="109.895542">
        <ele>77.979946</ele>
        <time>2026-08-16T01:26:42.000Z</time>
      </trkpt>
      <trkpt lat="22.811329" lon="109.895582">
        <ele>78.008009</ele>
        <time>2026-08-16T01:26:43.000Z</time>
      </trkpt>
      <trkpt lat="22.811292" lon="109.895606">
        <ele>78.034480</ele>
        <time>2026-08-16T01:26:44.000Z</time>
      </trkpt>
      <trkpt lat="22.811254" lon="109.895637">
        <ele>78.063676</ele>
        <time>2026-08-16T01:26:45.000Z</time>
      </trkpt>
      <trkpt lat="22.811217" lon="109.895670">
        <ele>78.093089</ele>
        <time>2026-08-16T01:26:46.000Z</time>
      </trkpt>
      <trkpt lat="22.811184" lon="109.895709">
        <ele>78.123054</ele>
        <time>2026-08-16T01:26:47.000Z</time>
      </trkpt>
      <trkpt lat="22.811148" lon="109.895750">
        <ele>78.155105</ele>
        <time>2026-08-16T01:26:48.000Z</time>
      </trkpt>
      <trkpt lat="22.811102" lon="109.895791">
        <ele>78.191663</ele>
        <time>2026-08-16T01:26:49.000Z</time>
      </trkpt>
      <trkpt lat="22.811048" lon="109.895810">
        <ele>78.242443</ele>
        <time>2026-08-16T01:26:50.000Z</time>
      </trkpt>
      <trkpt lat="22.811009" lon="109.895846">
        <ele>78.301424</ele>
        <time>2026-08-16T01:26:51.000Z</time>
      </trkpt>
      <trkpt lat="22.810960" lon="109.895871">
        <ele>78.363792</ele>
        <time>2026-08-16T01:26:52.000Z</time>
      </trkpt>
      <trkpt lat="22.810912" lon="109.895901">
        <ele>78.427597</ele>
        <time>2026-08-16T01:26:53.000Z</time>
      </trkpt>
      <trkpt lat="22.810866" lon="109.895945">
        <ele>78.498234</ele>
        <time>2026-08-16T01:26:54.000Z</time>
      </trkpt>
      <trkpt lat="22.810824" lon="109.895986">
        <ele>78.563311</ele>
        <time>2026-08-16T01:26:55.000Z</time>
      </trkpt>
      <trkpt lat="22.810782" lon="109.896020">
        <ele>78.623671</ele>
        <time>2026-08-16T01:26:56.000Z</time>
      </trkpt>
      <trkpt lat="22.810740" lon="109.896056">
        <ele>78.685324</ele>
        <time>2026-08-16T01:26:57.000Z</time>
      </trkpt>
      <trkpt lat="22.810696" lon="109.896088">
        <ele>78.746337</ele>
        <time>2026-08-16T01:26:58.000Z</time>
      </trkpt>
      <trkpt lat="22.810653" lon="109.896124">
        <ele>78.808898</ele>
        <time>2026-08-16T01:26:59.000Z</time>
      </trkpt>
      <trkpt lat="22.810611" lon="109.896157">
        <ele>78.868629</ele>
        <time>2026-08-16T01:27:00.000Z</time>
      </trkpt>
      <trkpt lat="22.810572" lon="109.896191">
        <ele>78.926256</ele>
        <time>2026-08-16T01:27:01.000Z</time>
      </trkpt>
      <trkpt lat="22.810534" lon="109.896224">
        <ele>78.982321</ele>
        <time>2026-08-16T01:27:02.000Z</time>
      </trkpt>
      <trkpt lat="22.810494" lon="109.896259">
        <ele>79.041511</ele>
        <time>2026-08-16T01:27:03.000Z</time>
      </trkpt>
      <trkpt lat="22.810452" lon="109.896292">
        <ele>79.101242</ele>
        <time>2026-08-16T01:27:04.000Z</time>
      </trkpt>
      <trkpt lat="22.810408" lon="109.896318">
        <ele>79.158952</ele>
        <time>2026-08-16T01:27:05.000Z</time>
      </trkpt>
      <trkpt lat="22.810366" lon="109.896346">
        <ele>79.215731</ele>
        <time>2026-08-16T01:27:06.000Z</time>
      </trkpt>
      <trkpt lat="22.810327" lon="109.896376">
        <ele>79.270798</ele>
        <time>2026-08-16T01:27:07.000Z</time>
      </trkpt>
      <trkpt lat="22.810289" lon="109.896403">
        <ele>79.323119</ele>
        <time>2026-08-16T01:27:08.000Z</time>
      </trkpt>
      <trkpt lat="22.810248" lon="109.896431">
        <ele>79.378920</ele>
        <time>2026-08-16T01:27:09.000Z</time>
      </trkpt>
      <trkpt lat="22.810206" lon="109.896457">
        <ele>79.434618</ele>
        <time>2026-08-16T01:27:10.000Z</time>
      </trkpt>
      <trkpt lat="22.810168" lon="109.896488">
        <ele>79.489381</ele>
        <time>2026-08-16T01:27:11.000Z</time>
      </trkpt>
      <trkpt lat="22.810125" lon="109.896516">
        <ele>79.547145</ele>
        <time>2026-08-16T01:27:12.000Z</time>
      </trkpt>
      <trkpt lat="22.810084" lon="109.896542">
        <ele>79.601845</ele>
        <time>2026-08-16T01:27:13.000Z</time>
      </trkpt>
      <trkpt lat="22.810042" lon="109.896570">
        <ele>79.658625</ele>
        <time>2026-08-16T01:27:14.000Z</time>
      </trkpt>
      <trkpt lat="22.809999" lon="109.896597">
        <ele>79.715850</ele>
        <time>2026-08-16T01:27:15.000Z</time>
      </trkpt>
      <trkpt lat="22.809954" lon="109.896623">
        <ele>79.774574</ele>
        <time>2026-08-16T01:27:16.000Z</time>
      </trkpt>
      <trkpt lat="22.809911" lon="109.896649">
        <ele>79.831275</ele>
        <time>2026-08-16T01:27:17.000Z</time>
      </trkpt>
      <trkpt lat="22.809869" lon="109.896677">
        <ele>79.888055</ele>
        <time>2026-08-16T01:27:18.000Z</time>
      </trkpt>
      <trkpt lat="22.809827" lon="109.896703">
        <ele>79.943752</ele>
        <time>2026-08-16T01:27:19.000Z</time>
      </trkpt>
      <trkpt lat="22.809785" lon="109.896725">
        <ele>79.997472</ele>
        <time>2026-08-16T01:27:20.000Z</time>
      </trkpt>
      <trkpt lat="22.809742" lon="109.896747">
        <ele>80.052231</ele>
        <time>2026-08-16T01:27:21.000Z</time>
      </trkpt>
      <trkpt lat="22.809698" lon="109.896768">
        <ele>80.107597</ele>
        <time>2026-08-16T01:27:22.000Z</time>
      </trkpt>
      <trkpt lat="22.809653" lon="109.896789">
        <ele>80.164021</ele>
        <time>2026-08-16T01:27:23.000Z</time>
      </trkpt>
      <trkpt lat="22.809607" lon="109.896808">
        <ele>80.220714</ele>
        <time>2026-08-16T01:27:24.000Z</time>
      </trkpt>
      <trkpt lat="22.809561" lon="109.896828">
        <ele>80.277793</ele>
        <time>2026-08-16T01:27:25.000Z</time>
      </trkpt>
      <trkpt lat="22.809513" lon="109.896846">
        <ele>80.307023</ele>
        <time>2026-08-16T01:27:26.000Z</time>
      </trkpt>
      <trkpt lat="22.809467" lon="109.896864">
        <ele>80.334054</ele>
        <time>2026-08-16T01:27:27.000Z</time>
      </trkpt>
      <trkpt lat="22.809421" lon="109.896881">
        <ele>80.360917</ele>
        <time>2026-08-16T01:27:28.000Z</time>
      </trkpt>
      <trkpt lat="22.809372" lon="109.896896">
        <ele>80.389061</ele>
        <time>2026-08-16T01:27:29.000Z</time>
      </trkpt>
      <trkpt lat="22.809322" lon="109.896910">
        <ele>80.417606</ele>
        <time>2026-08-16T01:27:30.000Z</time>
      </trkpt>
      <trkpt lat="22.809274" lon="109.896922">
        <ele>80.444835</ele>
        <time>2026-08-16T01:27:31.000Z</time>
      </trkpt>
      <trkpt lat="22.809223" lon="109.896929">
        <ele>80.473252</ele>
        <time>2026-08-16T01:27:32.000Z</time>
      </trkpt>
      <trkpt lat="22.809173" lon="109.896938">
        <ele>80.501269</ele>
        <time>2026-08-16T01:27:33.000Z</time>
      </trkpt>
      <trkpt lat="22.809133" lon="109.896938">
        <ele>80.523380</ele>
        <time>2026-08-16T01:27:34.000Z</time>
      </trkpt>
      <trkpt lat="22.809093" lon="109.896938">
        <ele>80.545491</ele>
        <time>2026-08-16T01:27:35.000Z</time>
      </trkpt>
      <trkpt lat="22.809049" lon="109.896946">
        <ele>80.570153</ele>
        <time>2026-08-16T01:27:36.000Z</time>
      </trkpt>
      <trkpt lat="22.809005" lon="109.896953">
        <ele>80.594736</ele>
        <time>2026-08-16T01:27:37.000Z</time>
      </trkpt>
      <trkpt lat="22.808964" lon="109.896960">
        <ele>80.617679</ele>
        <time>2026-08-16T01:27:38.000Z</time>
      </trkpt>
      <trkpt lat="22.808920" lon="109.896975">
        <ele>80.643174</ele>
        <time>2026-08-16T01:27:39.000Z</time>
      </trkpt>
      <trkpt lat="22.808875" lon="109.896995">
        <ele>80.670056</ele>
        <time>2026-08-16T01:27:40.000Z</time>
      </trkpt>
      <trkpt lat="22.808830" lon="109.897014">
        <ele>80.696748</ele>
        <time>2026-08-16T01:27:41.000Z</time>
      </trkpt>
      <trkpt lat="22.808786" lon="109.897043">
        <ele>80.725208</ele>
        <time>2026-08-16T01:27:42.000Z</time>
      </trkpt>
      <trkpt lat="22.808751" lon="109.897080">
        <ele>80.752222</ele>
        <time>2026-08-16T01:27:43.000Z</time>
      </trkpt>
      <trkpt lat="22.808711" lon="109.897113">
        <ele>80.780001</ele>
        <time>2026-08-16T01:27:44.000Z</time>
      </trkpt>
      <trkpt lat="22.808664" lon="109.897137">
        <ele>80.808716</ele>
        <time>2026-08-16T01:27:45.000Z</time>
      </trkpt>
      <trkpt lat="22.808618" lon="109.897171">
        <ele>80.839485</ele>
        <time>2026-08-16T01:27:46.000Z</time>
      </trkpt>
      <trkpt lat="22.808578" lon="109.897212">
        <ele>80.869905</ele>
        <time>2026-08-16T01:27:47.000Z</time>
      </trkpt>
      <trkpt lat="22.808548" lon="109.897264">
        <ele>80.901164</ele>
        <time>2026-08-16T01:27:48.000Z</time>
      </trkpt>
      <trkpt lat="22.808529" lon="109.897318">
        <ele>80.930616</ele>
        <time>2026-08-16T01:27:49.000Z</time>
      </trkpt>
      <trkpt lat="22.808515" lon="109.897376">
        <ele>80.961167</ele>
        <time>2026-08-16T01:27:50.000Z</time>
      </trkpt>
      <trkpt lat="22.808498" lon="109.897437">
        <ele>80.993640</ele>
        <time>2026-08-16T01:27:51.000Z</time>
      </trkpt>
      <trkpt lat="22.808480" lon="109.897495">
        <ele>81.024824</ele>
        <time>2026-08-16T01:27:52.000Z</time>
      </trkpt>
      <trkpt lat="22.808464" lon="109.897556">
        <ele>81.057141</ele>
        <time>2026-08-16T01:27:53.000Z</time>
      </trkpt>
      <trkpt lat="22.808447" lon="109.897615">
        <ele>81.088639</ele>
        <time>2026-08-16T01:27:54.000Z</time>
      </trkpt>
      <trkpt lat="22.808428" lon="109.897676">
        <ele>81.121449</ele>
        <time>2026-08-16T01:27:55.000Z</time>
      </trkpt>
      <trkpt lat="22.808408" lon="109.897734">
        <ele>81.153003</ele>
        <time>2026-08-16T01:27:56.000Z</time>
      </trkpt>
      <trkpt lat="22.808385" lon="109.897794">
        <ele>81.186115</ele>
        <time>2026-08-16T01:27:57.000Z</time>
      </trkpt>
      <trkpt lat="22.808362" lon="109.897850">
        <ele>81.217354</ele>
        <time>2026-08-16T01:27:58.000Z</time>
      </trkpt>
      <trkpt lat="22.808337" lon="109.897907">
        <ele>81.249519</ele>
        <time>2026-08-16T01:27:59.000Z</time>
      </trkpt>
      <trkpt lat="22.808317" lon="109.897963">
        <ele>81.277660</ele>
        <time>2026-08-16T01:28:00.000Z</time>
      </trkpt>
      <trkpt lat="22.808302" lon="109.898022">
        <ele>81.295720</ele>
        <time>2026-08-16T01:28:01.000Z</time>
      </trkpt>
      <trkpt lat="22.808292" lon="109.898083">
        <ele>81.314003</ele>
        <time>2026-08-16T01:28:02.000Z</time>
      </trkpt>
      <trkpt lat="22.808284" lon="109.898147">
        <ele>81.333061</ele>
        <time>2026-08-16T01:28:03.000Z</time>
      </trkpt>
      <trkpt lat="22.808278" lon="109.898211">
        <ele>81.352044</ele>
        <time>2026-08-16T01:28:04.000Z</time>
      </trkpt>
      <trkpt lat="22.808268" lon="109.898276">
        <ele>81.371490</ele>
        <time>2026-08-16T01:28:05.000Z</time>
      </trkpt>
      <trkpt lat="22.808251" lon="109.898338">
        <ele>81.390578</ele>
        <time>2026-08-16T01:28:06.000Z</time>
      </trkpt>
      <trkpt lat="22.808226" lon="109.898395">
        <ele>81.409205</ele>
        <time>2026-08-16T01:28:07.000Z</time>
      </trkpt>
      <trkpt lat="22.808201" lon="109.898453">
        <ele>81.428099</ele>
        <time>2026-08-16T01:28:08.000Z</time>
      </trkpt>
      <trkpt lat="22.808178" lon="109.898511">
        <ele>81.446731</ele>
        <time>2026-08-16T01:28:09.000Z</time>
      </trkpt>
      <trkpt lat="22.808160" lon="109.898569">
        <ele>81.464790</ele>
        <time>2026-08-16T01:28:10.000Z</time>
      </trkpt>
      <trkpt lat="22.808145" lon="109.898629">
        <ele>81.483135</ele>
        <time>2026-08-16T01:28:11.000Z</time>
      </trkpt>
      <trkpt lat="22.808131" lon="109.898689">
        <ele>81.501398</ele>
        <time>2026-08-16T01:28:12.000Z</time>
      </trkpt>
      <trkpt lat="22.808114" lon="109.898746">
        <ele>81.519077</ele>
        <time>2026-08-16T01:28:13.000Z</time>
      </trkpt>
      <trkpt lat="22.808096" lon="109.898795">
        <ele>81.534642</ele>
        <time>2026-08-16T01:28:14.000Z</time>
      </trkpt>
      <trkpt lat="22.808075" lon="109.898840">
        <ele>81.549526</ele>
        <time>2026-08-16T01:28:15.000Z</time>
      </trkpt>
      <trkpt lat="22.808053" lon="109.898894">
        <ele>81.566948</ele>
        <time>2026-08-16T01:28:16.000Z</time>
      </trkpt>
      <trkpt lat="22.808033" lon="109.898949">
        <ele>81.584395</ele>
        <time>2026-08-16T01:28:17.000Z</time>
      </trkpt>
      <trkpt lat="22.808013" lon="109.899007">
        <ele>81.602668</ele>
        <time>2026-08-16T01:28:18.000Z</time>
      </trkpt>
      <trkpt lat="22.807999" lon="109.899071">
        <ele>81.622078</ele>
        <time>2026-08-16T01:28:19.000Z</time>
      </trkpt>
      <trkpt lat="22.807984" lon="109.899132">
        <ele>81.640708</ele>
        <time>2026-08-16T01:28:20.000Z</time>
      </trkpt>
      <trkpt lat="22.807970" lon="109.899195">
        <ele>81.659831</ele>
        <time>2026-08-16T01:28:21.000Z</time>
      </trkpt>
      <trkpt lat="22.807955" lon="109.899260">
        <ele>81.679604</ele>
        <time>2026-08-16T01:28:22.000Z</time>
      </trkpt>
      <trkpt lat="22.807938" lon="109.899325">
        <ele>81.699542</ele>
        <time>2026-08-16T01:28:23.000Z</time>
      </trkpt>
      <trkpt lat="22.807919" lon="109.899390">
        <ele>81.719664</ele>
        <time>2026-08-16T01:28:24.000Z</time>
      </trkpt>
      <trkpt lat="22.807902" lon="109.899451">
        <ele>81.738469</ele>
        <time>2026-08-16T01:28:25.000Z</time>
      </trkpt>
      <trkpt lat="22.807887" lon="109.899516">
        <ele>81.758242</ele>
        <time>2026-08-16T01:28:26.000Z</time>
      </trkpt>
      <trkpt lat="22.807869" lon="109.899582">
        <ele>81.778552</ele>
        <time>2026-08-16T01:28:27.000Z</time>
      </trkpt>
      <trkpt lat="22.807854" lon="109.899648">
        <ele>81.798611</ele>
        <time>2026-08-16T01:28:28.000Z</time>
      </trkpt>
      <trkpt lat="22.807841" lon="109.899715">
        <ele>81.818816</ele>
        <time>2026-08-16T01:28:29.000Z</time>
      </trkpt>
      <trkpt lat="22.807828" lon="109.899780">
        <ele>81.838443</ele>
        <time>2026-08-16T01:28:30.000Z</time>
      </trkpt>
      <trkpt lat="22.807812" lon="109.899842">
        <ele>81.893325</ele>
        <time>2026-08-16T01:28:31.000Z</time>
      </trkpt>
      <trkpt lat="22.807792" lon="109.899904">
        <ele>82.006852</ele>
        <time>2026-08-16T01:28:32.000Z</time>
      </trkpt>
      <trkpt lat="22.807768" lon="109.899961">
        <ele>82.115157</ele>
        <time>2026-08-16T01:28:33.000Z</time>
      </trkpt>
      <trkpt lat="22.807746" lon="109.900016">
        <ele>82.218778</ele>
        <time>2026-08-16T01:28:34.000Z</time>
      </trkpt>
      <trkpt lat="22.807727" lon="109.900071">
        <ele>82.320291</ele>
        <time>2026-08-16T01:28:35.000Z</time>
      </trkpt>
      <trkpt lat="22.807708" lon="109.900129">
        <ele>82.426675</ele>
        <time>2026-08-16T01:28:36.000Z</time>
      </trkpt>
      <trkpt lat="22.807692" lon="109.900187">
        <ele>82.531310</ele>
        <time>2026-08-16T01:28:37.000Z</time>
      </trkpt>
      <trkpt lat="22.807678" lon="109.900247">
        <ele>82.638280</ele>
        <time>2026-08-16T01:28:38.000Z</time>
      </trkpt>
      <trkpt lat="22.807665" lon="109.900304">
        <ele>82.739764</ele>
        <time>2026-08-16T01:28:39.000Z</time>
      </trkpt>
      <trkpt lat="22.807651" lon="109.900361">
        <ele>82.841716</ele>
        <time>2026-08-16T01:28:40.000Z</time>
      </trkpt>
      <trkpt lat="22.807635" lon="109.900418">
        <ele>82.944696</ele>
        <time>2026-08-16T01:28:41.000Z</time>
      </trkpt>
      <trkpt lat="22.807621" lon="109.900474">
        <ele>83.044978</ele>
        <time>2026-08-16T01:28:42.000Z</time>
      </trkpt>
      <trkpt lat="22.807609" lon="109.900528">
        <ele>83.140981</ele>
        <time>2026-08-16T01:28:43.000Z</time>
      </trkpt>
      <trkpt lat="22.807597" lon="109.900586">
        <ele>83.243718</ele>
        <time>2026-08-16T01:28:44.000Z</time>
      </trkpt>
      <trkpt lat="22.807587" lon="109.900644">
        <ele>83.345698</ele>
        <time>2026-08-16T01:28:45.000Z</time>
      </trkpt>
      <trkpt lat="22.807576" lon="109.900700">
        <ele>83.444657</ele>
        <time>2026-08-16T01:28:46.000Z</time>
      </trkpt>
      <trkpt lat="22.807563" lon="109.900757">
        <ele>83.546142</ele>
        <time>2026-08-16T01:28:47.000Z</time>
      </trkpt>
      <trkpt lat="22.807549" lon="109.900812">
        <ele>83.644757</ele>
        <time>2026-08-16T01:28:48.000Z</time>
      </trkpt>
      <trkpt lat="22.807533" lon="109.900865">
        <ele>83.741145</ele>
        <time>2026-08-16T01:28:49.000Z</time>
      </trkpt>
      <trkpt lat="22.807519" lon="109.900920">
        <ele>83.839761</ele>
        <time>2026-08-16T01:28:50.000Z</time>
      </trkpt>
      <trkpt lat="22.807505" lon="109.900973">
        <ele>83.935048</ele>
        <time>2026-08-16T01:28:51.000Z</time>
      </trkpt>
      <trkpt lat="22.807490" lon="109.901026">
        <ele>84.030869</ele>
        <time>2026-08-16T01:28:52.000Z</time>
      </trkpt>
      <trkpt lat="22.807473" lon="109.901079">
        <ele>84.127857</ele>
        <time>2026-08-16T01:28:53.000Z</time>
      </trkpt>
      <trkpt lat="22.807455" lon="109.901131">
        <ele>84.223858</ele>
        <time>2026-08-16T01:28:54.000Z</time>
      </trkpt>
      <trkpt lat="22.807439" lon="109.901183">
        <ele>84.318605</ele>
        <time>2026-08-16T01:28:55.000Z</time>
      </trkpt>
      <trkpt lat="22.807425" lon="109.901235">
        <ele>84.412232</ele>
        <time>2026-08-16T01:28:56.000Z</time>
      </trkpt>
      <trkpt lat="22.807409" lon="109.901285">
        <ele>84.503707</ele>
        <time>2026-08-16T01:28:57.000Z</time>
      </trkpt>
      <trkpt lat="22.807393" lon="109.901334">
        <ele>84.593551</ele>
        <time>2026-08-16T01:28:58.000Z</time>
      </trkpt>
      <trkpt lat="22.807376" lon="109.901380">
        <ele>84.679205</ele>
        <time>2026-08-16T01:28:59.000Z</time>
      </trkpt>
      <trkpt lat="22.807360" lon="109.901429">
        <ele>84.769049</ele>
        <time>2026-08-16T01:29:00.000Z</time>
      </trkpt>
      <trkpt lat="22.807347" lon="109.901478">
        <ele>84.857175</ele>
        <time>2026-08-16T01:29:01.000Z</time>
      </trkpt>
      <trkpt lat="22.807335" lon="109.901527">
        <ele>84.944801</ele>
        <time>2026-08-16T01:29:02.000Z</time>
      </trkpt>
      <trkpt lat="22.807325" lon="109.901576">
        <ele>85.031539</ele>
        <time>2026-08-16T01:29:03.000Z</time>
      </trkpt>
      <trkpt lat="22.807318" lon="109.901627">
        <ele>85.120655</ele>
        <time>2026-08-16T01:29:04.000Z</time>
      </trkpt>
      <trkpt lat="22.807311" lon="109.901676">
        <ele>85.206354</ele>
        <time>2026-08-16T01:29:05.000Z</time>
      </trkpt>
      <trkpt lat="22.807301" lon="109.901724">
        <ele>85.336503</ele>
        <time>2026-08-16T01:29:06.000Z</time>
      </trkpt>
      <trkpt lat="22.807284" lon="109.901767">
        <ele>85.470184</ele>
        <time>2026-08-16T01:29:07.000Z</time>
      </trkpt>
      <trkpt lat="22.807270" lon="109.901810">
        <ele>85.600480</ele>
        <time>2026-08-16T01:29:08.000Z</time>
      </trkpt>
      <trkpt lat="22.807256" lon="109.901854">
        <ele>85.733473</ele>
        <time>2026-08-16T01:29:09.000Z</time>
      </trkpt>
      <trkpt lat="22.807241" lon="109.901898">
        <ele>85.867510</ele>
        <time>2026-08-16T01:29:10.000Z</time>
      </trkpt>
      <trkpt lat="22.807228" lon="109.901944">
        <ele>86.004977</ele>
        <time>2026-08-16T01:29:11.000Z</time>
      </trkpt>
      <trkpt lat="22.807215" lon="109.901992">
        <ele>86.147918</ele>
        <time>2026-08-16T01:29:12.000Z</time>
      </trkpt>
      <trkpt lat="22.807203" lon="109.902038">
        <ele>86.284509</ele>
        <time>2026-08-16T01:29:13.000Z</time>
      </trkpt>
      <trkpt lat="22.807190" lon="109.902086">
        <ele>86.427450</ele>
        <time>2026-08-16T01:29:14.000Z</time>
      </trkpt>
      <trkpt lat="22.807176" lon="109.902135">
        <ele>86.574021</ele>
        <time>2026-08-16T01:29:15.000Z</time>
      </trkpt>
      <trkpt lat="22.807164" lon="109.902184">
        <ele>86.718879</ele>
        <time>2026-08-16T01:29:16.000Z</time>
      </trkpt>
      <trkpt lat="22.807150" lon="109.902232">
        <ele>86.862724</ele>
        <time>2026-08-16T01:29:17.000Z</time>
      </trkpt>
      <trkpt lat="22.807137" lon="109.902281">
        <ele>87.008408</ele>
        <time>2026-08-16T01:29:18.000Z</time>
      </trkpt>
      <trkpt lat="22.807124" lon="109.902327">
        <ele>87.145876</ele>
        <time>2026-08-16T01:29:19.000Z</time>
      </trkpt>
      <trkpt lat="22.807110" lon="109.902372">
        <ele>87.281573</ele>
        <time>2026-08-16T01:29:20.000Z</time>
      </trkpt>
      <trkpt lat="22.807097" lon="109.902416">
        <ele>87.413588</ele>
        <time>2026-08-16T01:29:21.000Z</time>
      </trkpt>
      <trkpt lat="22.807084" lon="109.902462">
        <ele>87.551056</ele>
        <time>2026-08-16T01:29:22.000Z</time>
      </trkpt>
      <trkpt lat="22.807071" lon="109.902508">
        <ele>87.688523</ele>
        <time>2026-08-16T01:29:23.000Z</time>
      </trkpt>
      <trkpt lat="22.807057" lon="109.902554">
        <ele>87.826931</ele>
        <time>2026-08-16T01:29:24.000Z</time>
      </trkpt>
      <trkpt lat="22.807045" lon="109.902599">
        <ele>87.960775</ele>
        <time>2026-08-16T01:29:25.000Z</time>
      </trkpt>
      <trkpt lat="22.807033" lon="109.902643">
        <ele>88.091878</ele>
        <time>2026-08-16T01:29:26.000Z</time>
      </trkpt>
      <trkpt lat="22.807021" lon="109.902689">
        <ele>88.228469</ele>
        <time>2026-08-16T01:29:27.000Z</time>
      </trkpt>
      <trkpt lat="22.807009" lon="109.902733">
        <ele>88.359571</ele>
        <time>2026-08-16T01:29:28.000Z</time>
      </trkpt>
      <trkpt lat="22.806996" lon="109.902777">
        <ele>88.491586</ele>
        <time>2026-08-16T01:29:29.000Z</time>
      </trkpt>
      <trkpt lat="22.806987" lon="109.902820">
        <ele>88.617571</ele>
        <time>2026-08-16T01:29:30.000Z</time>
      </trkpt>
      <trkpt lat="22.806975" lon="109.902863">
        <ele>88.745936</ele>
        <time>2026-08-16T01:29:31.000Z</time>
      </trkpt>
      <trkpt lat="22.806963" lon="109.902908">
        <ele>88.879781</ele>
        <time>2026-08-16T01:29:32.000Z</time>
      </trkpt>
      <trkpt lat="22.806952" lon="109.902952">
        <ele>89.010037</ele>
        <time>2026-08-16T01:29:33.000Z</time>
      </trkpt>
      <trkpt lat="22.806941" lon="109.902994">
        <ele>89.134788</ele>
        <time>2026-08-16T01:29:34.000Z</time>
      </trkpt>
      <trkpt lat="22.806929" lon="109.903036">
        <ele>89.260421</ele>
        <time>2026-08-16T01:29:35.000Z</time>
      </trkpt>
      <trkpt lat="22.806917" lon="109.903078">
        <ele>89.386054</ele>
        <time>2026-08-16T01:29:36.000Z</time>
      </trkpt>
      <trkpt lat="22.806905" lon="109.903118">
        <ele>89.506241</ele>
        <time>2026-08-16T01:29:37.000Z</time>
      </trkpt>
      <trkpt lat="22.806893" lon="109.903159">
        <ele>89.629148</ele>
        <time>2026-08-16T01:29:38.000Z</time>
      </trkpt>
      <trkpt lat="22.806882" lon="109.903200">
        <ele>89.751153</ele>
        <time>2026-08-16T01:29:39.000Z</time>
      </trkpt>
      <trkpt lat="22.806871" lon="109.903240">
        <ele>89.870417</ele>
        <time>2026-08-16T01:29:40.000Z</time>
      </trkpt>
      <trkpt lat="22.806858" lon="109.903281">
        <ele>89.994297</ele>
        <time>2026-08-16T01:29:41.000Z</time>
      </trkpt>
      <trkpt lat="22.806848" lon="109.903322">
        <ele>90.115472</ele>
        <time>2026-08-16T01:29:42.000Z</time>
      </trkpt>
      <trkpt lat="22.806837" lon="109.903364">
        <ele>90.240223</ele>
        <time>2026-08-16T01:29:43.000Z</time>
      </trkpt>
      <trkpt lat="22.806826" lon="109.903405">
        <ele>90.362227</ele>
        <time>2026-08-16T01:29:44.000Z</time>
      </trkpt>
      <trkpt lat="22.806814" lon="109.903447">
        <ele>90.487861</ele>
        <time>2026-08-16T01:29:45.000Z</time>
      </trkpt>
      <trkpt lat="22.806801" lon="109.903487">
        <ele>90.609043</ele>
        <time>2026-08-16T01:29:46.000Z</time>
      </trkpt>
      <trkpt lat="22.806789" lon="109.903527">
        <ele>90.729230</ele>
        <time>2026-08-16T01:29:47.000Z</time>
      </trkpt>
      <trkpt lat="22.806778" lon="109.903566">
        <ele>90.851361</ele>
        <time>2026-08-16T01:29:48.000Z</time>
      </trkpt>
      <trkpt lat="22.806767" lon="109.903605">
        <ele>90.981351</ele>
        <time>2026-08-16T01:29:49.000Z</time>
      </trkpt>
      <trkpt lat="22.806755" lon="109.903644">
        <ele>91.112393</ele>
        <time>2026-08-16T01:29:50.000Z</time>
      </trkpt>
      <trkpt lat="22.806744" lon="109.903684">
        <ele>91.245434</ele>
        <time>2026-08-16T01:29:51.000Z</time>
      </trkpt>
      <trkpt lat="22.806732" lon="109.903723">
        <ele>91.376477</ele>
        <time>2026-08-16T01:29:52.000Z</time>
      </trkpt>
      <trkpt lat="22.806721" lon="109.903762">
        <ele>91.506466</ele>
        <time>2026-08-16T01:29:53.000Z</time>
      </trkpt>
      <trkpt lat="22.806708" lon="109.903801">
        <ele>91.638644</ele>
        <time>2026-08-16T01:29:54.000Z</time>
      </trkpt>
      <trkpt lat="22.806697" lon="109.903839">
        <ele>91.765590</ele>
        <time>2026-08-16T01:29:55.000Z</time>
      </trkpt>
      <trkpt lat="22.806686" lon="109.903877">
        <ele>91.892535</ele>
        <time>2026-08-16T01:29:56.000Z</time>
      </trkpt>
      <trkpt lat="22.806676" lon="109.903913">
        <ele>92.012371</ele>
        <time>2026-08-16T01:29:57.000Z</time>
      </trkpt>
      <trkpt lat="22.806665" lon="109.903947">
        <ele>92.127216</ele>
        <time>2026-08-16T01:29:58.000Z</time>
      </trkpt>
      <trkpt lat="22.806654" lon="109.903981">
        <ele>92.242062</ele>
        <time>2026-08-16T01:29:59.000Z</time>
      </trkpt>
      <trkpt lat="22.806644" lon="109.904017">
        <ele>92.361898</ele>
        <time>2026-08-16T01:30:00.000Z</time>
      </trkpt>
      <trkpt lat="22.806636" lon="109.904052">
        <ele>92.476828</ele>
        <time>2026-08-16T01:30:01.000Z</time>
      </trkpt>
      <trkpt lat="22.806627" lon="109.904089">
        <ele>92.598791</ele>
        <time>2026-08-16T01:30:02.000Z</time>
      </trkpt>
      <trkpt lat="22.806616" lon="109.904122">
        <ele>92.710634</ele>
        <time>2026-08-16T01:30:03.000Z</time>
      </trkpt>
      <trkpt lat="22.806605" lon="109.904153">
        <ele>92.816505</ele>
        <time>2026-08-16T01:30:04.000Z</time>
      </trkpt>
      <trkpt lat="22.806597" lon="109.904186">
        <ele>92.925260</ele>
        <time>2026-08-16T01:30:05.000Z</time>
      </trkpt>
      <trkpt lat="22.806590" lon="109.904221">
        <ele>93.039407</ele>
        <time>2026-08-16T01:30:06.000Z</time>
      </trkpt>
      <trkpt lat="22.806580" lon="109.904254">
        <ele>93.150123</ele>
        <time>2026-08-16T01:30:07.000Z</time>
      </trkpt>
      <trkpt lat="22.806571" lon="109.904285">
        <ele>93.253711</ele>
        <time>2026-08-16T01:30:08.000Z</time>
      </trkpt>
      <trkpt lat="22.806561" lon="109.904315">
        <ele>93.355386</ele>
        <time>2026-08-16T01:30:09.000Z</time>
      </trkpt>
      <trkpt lat="22.806551" lon="109.904347">
        <ele>93.463078</ele>
        <time>2026-08-16T01:30:10.000Z</time>
      </trkpt>
      <trkpt lat="22.806544" lon="109.904380">
        <ele>93.571005</ele>
        <time>2026-08-16T01:30:11.000Z</time>
      </trkpt>
      <trkpt lat="22.806537" lon="109.904410">
        <ele>93.669637</ele>
        <time>2026-08-16T01:30:12.000Z</time>
      </trkpt>
      <trkpt lat="22.806527" lon="109.904442">
        <ele>93.777329</ele>
        <time>2026-08-16T01:30:13.000Z</time>
      </trkpt>
      <trkpt lat="22.806519" lon="109.904475">
        <ele>93.886083</ele>
        <time>2026-08-16T01:30:14.000Z</time>
      </trkpt>
      <trkpt lat="22.806513" lon="109.904509">
        <ele>93.996416</ele>
        <time>2026-08-16T01:30:15.000Z</time>
      </trkpt>
      <trkpt lat="22.806508" lon="109.904542">
        <ele>94.103006</ele>
        <time>2026-08-16T01:30:16.000Z</time>
      </trkpt>
      <trkpt lat="22.806500" lon="109.904572">
        <ele>94.202543</ele>
        <time>2026-08-16T01:30:17.000Z</time>
      </trkpt>
      <trkpt lat="22.806494" lon="109.904604">
        <ele>94.306622</ele>
        <time>2026-08-16T01:30:18.000Z</time>
      </trkpt>
      <trkpt lat="22.806487" lon="109.904633">
        <ele>94.402167</ele>
        <time>2026-08-16T01:30:19.000Z</time>
      </trkpt>
      <trkpt lat="22.806478" lon="109.904665">
        <ele>94.508800</ele>
        <time>2026-08-16T01:30:20.000Z</time>
      </trkpt>
      <trkpt lat="22.806465" lon="109.904697">
        <ele>94.620256</ele>
        <time>2026-08-16T01:30:21.000Z</time>
      </trkpt>
      <trkpt lat="22.806454" lon="109.904727">
        <ele>94.723159</ele>
        <time>2026-08-16T01:30:22.000Z</time>
      </trkpt>
      <trkpt lat="22.806444" lon="109.904758">
        <ele>94.827837</ele>
        <time>2026-08-16T01:30:23.000Z</time>
      </trkpt>
      <trkpt lat="22.806432" lon="109.904789">
        <ele>94.934999</ele>
        <time>2026-08-16T01:30:24.000Z</time>
      </trkpt>
      <trkpt lat="22.806421" lon="109.904822">
        <ele>95.046842</ele>
        <time>2026-08-16T01:30:25.000Z</time>
      </trkpt>
      <trkpt lat="22.806414" lon="109.904856">
        <ele>95.157877</ele>
        <time>2026-08-16T01:30:26.000Z</time>
      </trkpt>
      <trkpt lat="22.806405" lon="109.904888">
        <ele>95.264510</ele>
        <time>2026-08-16T01:30:27.000Z</time>
      </trkpt>
      <trkpt lat="22.806398" lon="109.904920">
        <ele>95.369333</ele>
        <time>2026-08-16T01:30:28.000Z</time>
      </trkpt>
      <trkpt lat="22.806388" lon="109.904951">
        <ele>95.474012</ele>
        <time>2026-08-16T01:30:29.000Z</time>
      </trkpt>
      <trkpt lat="22.806380" lon="109.904983">
        <ele>95.579687</ele>
        <time>2026-08-16T01:30:30.000Z</time>
      </trkpt>
      <trkpt lat="22.806374" lon="109.905014">
        <ele>95.680645</ele>
        <time>2026-08-16T01:30:31.000Z</time>
      </trkpt>
      <trkpt lat="22.806367" lon="109.905046">
        <ele>95.785468</ele>
        <time>2026-08-16T01:30:32.000Z</time>
      </trkpt>
      <trkpt lat="22.806359" lon="109.905079">
        <ele>95.894223</ele>
        <time>2026-08-16T01:30:33.000Z</time>
      </trkpt>
      <trkpt lat="22.806352" lon="109.905110">
        <ele>95.995947</ele>
        <time>2026-08-16T01:30:34.000Z</time>
      </trkpt>
      <trkpt lat="22.806342" lon="109.905139">
        <ele>96.094632</ele>
        <time>2026-08-16T01:30:35.000Z</time>
      </trkpt>
      <trkpt lat="22.806332" lon="109.905168">
        <ele>96.193316</ele>
        <time>2026-08-16T01:30:36.000Z</time>
      </trkpt>
      <trkpt lat="22.806324" lon="109.905200">
        <ele>96.298992</ele>
        <time>2026-08-16T01:30:37.000Z</time>
      </trkpt>
      <trkpt lat="22.806318" lon="109.905232">
        <ele>96.403071</ele>
        <time>2026-08-16T01:30:38.000Z</time>
      </trkpt>
      <trkpt lat="22.806311" lon="109.905263">
        <ele>96.504796</ele>
        <time>2026-08-16T01:30:39.000Z</time>
      </trkpt>
      <trkpt lat="22.806304" lon="109.905293">
        <ele>96.603428</ele>
        <time>2026-08-16T01:30:40.000Z</time>
      </trkpt>
      <trkpt lat="22.806298" lon="109.905325">
        <ele>96.707507</ele>
        <time>2026-08-16T01:30:41.000Z</time>
      </trkpt>
      <trkpt lat="22.806295" lon="109.905360">
        <ele>96.819541</ele>
        <time>2026-08-16T01:30:42.000Z</time>
      </trkpt>
      <trkpt lat="22.806294" lon="109.905394">
        <ele>96.927962</ele>
        <time>2026-08-16T01:30:43.000Z</time>
      </trkpt>
      <trkpt lat="22.806294" lon="109.905430">
        <ele>97.000549</ele>
        <time>2026-08-16T01:30:44.000Z</time>
      </trkpt>
      <trkpt lat="22.806293" lon="109.905465">
        <ele>96.935224</ele>
        <time>2026-08-16T01:30:45.000Z</time>
      </trkpt>
      <trkpt lat="22.806293" lon="109.905499">
        <ele>96.871797</ele>
        <time>2026-08-16T01:30:46.000Z</time>
      </trkpt>
      <trkpt lat="22.806293" lon="109.905533">
        <ele>96.808369</ele>
        <time>2026-08-16T01:30:47.000Z</time>
      </trkpt>
      <trkpt lat="22.806292" lon="109.905567">
        <ele>96.744910</ele>
        <time>2026-08-16T01:30:48.000Z</time>
      </trkpt>
      <trkpt lat="22.806292" lon="109.905603">
        <ele>96.677751</ele>
        <time>2026-08-16T01:30:49.000Z</time>
      </trkpt>
      <trkpt lat="22.806294" lon="109.905641">
        <ele>96.606746</ele>
        <time>2026-08-16T01:30:50.000Z</time>
      </trkpt>
      <trkpt lat="22.806296" lon="109.905680">
        <ele>96.533878</ele>
        <time>2026-08-16T01:30:51.000Z</time>
      </trkpt>
      <trkpt lat="22.806301" lon="109.905726">
        <ele>96.447470</ele>
        <time>2026-08-16T01:30:52.000Z</time>
      </trkpt>
      <trkpt lat="22.806307" lon="109.905772">
        <ele>96.360802</ele>
        <time>2026-08-16T01:30:53.000Z</time>
      </trkpt>
      <trkpt lat="22.806310" lon="109.905820">
        <ele>96.271051</ele>
        <time>2026-08-16T01:30:54.000Z</time>
      </trkpt>
      <trkpt lat="22.806312" lon="109.905870">
        <ele>96.177688</ele>
        <time>2026-08-16T01:30:55.000Z</time>
      </trkpt>
      <trkpt lat="22.806316" lon="109.905921">
        <ele>96.082203</ele>
        <time>2026-08-16T01:30:56.000Z</time>
      </trkpt>
      <trkpt lat="22.806318" lon="109.905976">
        <ele>95.979520</ele>
        <time>2026-08-16T01:30:57.000Z</time>
      </trkpt>
      <trkpt lat="22.806320" lon="109.906031">
        <ele>95.876837</ele>
        <time>2026-08-16T01:30:58.000Z</time>
      </trkpt>
      <trkpt lat="22.806323" lon="109.906089">
        <ele>95.768467</ele>
        <time>2026-08-16T01:30:59.000Z</time>
      </trkpt>
      <trkpt lat="22.806325" lon="109.906149">
        <ele>95.656463</ele>
        <time>2026-08-16T01:31:00.000Z</time>
      </trkpt>
      <trkpt lat="22.806326" lon="109.906210">
        <ele>95.542648</ele>
        <time>2026-08-16T01:31:01.000Z</time>
      </trkpt>
      <trkpt lat="22.806327" lon="109.906272">
        <ele>95.426969</ele>
        <time>2026-08-16T01:31:02.000Z</time>
      </trkpt>
      <trkpt lat="22.806329" lon="109.906338">
        <ele>95.303778</ele>
        <time>2026-08-16T01:31:03.000Z</time>
      </trkpt>
      <trkpt lat="22.806332" lon="109.906405">
        <ele>95.178642</ele>
        <time>2026-08-16T01:31:04.000Z</time>
      </trkpt>
      <trkpt lat="22.806335" lon="109.906470">
        <ele>95.057231</ele>
        <time>2026-08-16T01:31:05.000Z</time>
      </trkpt>
      <trkpt lat="22.806337" lon="109.906537">
        <ele>94.932176</ele>
        <time>2026-08-16T01:31:06.000Z</time>
      </trkpt>
      <trkpt lat="22.806339" lon="109.906605">
        <ele>94.805257</ele>
        <time>2026-08-16T01:31:07.000Z</time>
      </trkpt>
      <trkpt lat="22.806343" lon="109.906673">
        <ele>94.678144</ele>
        <time>2026-08-16T01:31:08.000Z</time>
      </trkpt>
      <trkpt lat="22.806347" lon="109.906740">
        <ele>94.552893</ele>
        <time>2026-08-16T01:31:09.000Z</time>
      </trkpt>
      <trkpt lat="22.806354" lon="109.906809">
        <ele>94.423395</ele>
        <time>2026-08-16T01:31:10.000Z</time>
      </trkpt>
      <trkpt lat="22.806359" lon="109.906880">
        <ele>94.290558</ele>
        <time>2026-08-16T01:31:11.000Z</time>
      </trkpt>
      <trkpt lat="22.806369" lon="109.906952">
        <ele>94.154725</ele>
        <time>2026-08-16T01:31:12.000Z</time>
      </trkpt>
      <trkpt lat="22.806380" lon="109.907026">
        <ele>94.014893</ele>
        <time>2026-08-16T01:31:13.000Z</time>
      </trkpt>
      <trkpt lat="22.806392" lon="109.907099">
        <ele>93.876562</ele>
        <time>2026-08-16T01:31:14.000Z</time>
      </trkpt>
      <trkpt lat="22.806405" lon="109.907175">
        <ele>93.732363</ele>
        <time>2026-08-16T01:31:15.000Z</time>
      </trkpt>
      <trkpt lat="22.806416" lon="109.907250">
        <ele>93.590690</ele>
        <time>2026-08-16T01:31:16.000Z</time>
      </trkpt>
      <trkpt lat="22.806426" lon="109.907327">
        <ele>93.445627</ele>
        <time>2026-08-16T01:31:17.000Z</time>
      </trkpt>
      <trkpt lat="22.806437" lon="109.907404">
        <ele>93.278929</ele>
        <time>2026-08-16T01:31:18.000Z</time>
      </trkpt>
      <trkpt lat="22.806449" lon="109.907483">
        <ele>93.087563</ele>
        <time>2026-08-16T01:31:19.000Z</time>
      </trkpt>
      <trkpt lat="22.806462" lon="109.907562">
        <ele>92.895758</ele>
        <time>2026-08-16T01:31:20.000Z</time>
      </trkpt>
      <trkpt lat="22.806471" lon="109.907640">
        <ele>92.707874</ele>
        <time>2026-08-16T01:31:21.000Z</time>
      </trkpt>
      <trkpt lat="22.806480" lon="109.907720">
        <ele>92.515245</ele>
        <time>2026-08-16T01:31:22.000Z</time>
      </trkpt>
      <trkpt lat="22.806493" lon="109.907799">
        <ele>92.323440</ele>
        <time>2026-08-16T01:31:23.000Z</time>
      </trkpt>
      <trkpt lat="22.806507" lon="109.907879">
        <ele>92.128815</ele>
        <time>2026-08-16T01:31:24.000Z</time>
      </trkpt>
      <trkpt lat="22.806523" lon="109.907959">
        <ele>91.933157</ele>
        <time>2026-08-16T01:31:25.000Z</time>
      </trkpt>
      <trkpt lat="22.806537" lon="109.908038">
        <ele>91.740880</ele>
        <time>2026-08-16T01:31:26.000Z</time>
      </trkpt>
      <trkpt lat="22.806552" lon="109.908116">
        <ele>91.550436</ele>
        <time>2026-08-16T01:31:27.000Z</time>
      </trkpt>
      <trkpt lat="22.806568" lon="109.908195">
        <ele>91.357113</ele>
        <time>2026-08-16T01:31:28.000Z</time>
      </trkpt>
      <trkpt lat="22.806579" lon="109.908282">
        <ele>91.147226</ele>
        <time>2026-08-16T01:31:29.000Z</time>
      </trkpt>
      <trkpt lat="22.806591" lon="109.908368">
        <ele>90.939334</ele>
        <time>2026-08-16T01:31:30.000Z</time>
      </trkpt>
      <trkpt lat="22.806604" lon="109.908452">
        <ele>90.735754</ele>
        <time>2026-08-16T01:31:31.000Z</time>
      </trkpt>
      <trkpt lat="22.806616" lon="109.908538">
        <ele>90.527862</ele>
        <time>2026-08-16T01:31:32.000Z</time>
      </trkpt>
      <trkpt lat="22.806629" lon="109.908621">
        <ele>90.326638</ele>
        <time>2026-08-16T01:31:33.000Z</time>
      </trkpt>
      <trkpt lat="22.806645" lon="109.908707">
        <ele>90.116943</ele>
        <time>2026-08-16T01:31:34.000Z</time>
      </trkpt>
      <trkpt lat="22.806670" lon="109.908792">
        <ele>89.903693</ele>
        <time>2026-08-16T01:31:35.000Z</time>
      </trkpt>
      <trkpt lat="22.806698" lon="109.908873">
        <ele>89.696928</ele>
        <time>2026-08-16T01:31:36.000Z</time>
      </trkpt>
      <trkpt lat="22.806729" lon="109.908949">
        <ele>89.498290</ele>
        <time>2026-08-16T01:31:37.000Z</time>
      </trkpt>
      <trkpt lat="22.806759" lon="109.909016">
        <ele>89.320260</ele>
        <time>2026-08-16T01:31:38.000Z</time>
      </trkpt>
      <trkpt lat="22.806790" lon="109.909078">
        <ele>89.151678</ele>
        <time>2026-08-16T01:31:39.000Z</time>
      </trkpt>
      <trkpt lat="22.806821" lon="109.909134">
        <ele>88.995551</ele>
        <time>2026-08-16T01:31:40.000Z</time>
      </trkpt>
      <trkpt lat="22.806855" lon="109.909189">
        <ele>88.837272</ele>
        <time>2026-08-16T01:31:41.000Z</time>
      </trkpt>
      <trkpt lat="22.806885" lon="109.909248">
        <ele>88.691824</ele>
        <time>2026-08-16T01:31:42.000Z</time>
      </trkpt>
      <trkpt lat="22.806916" lon="109.909309">
        <ele>88.596807</ele>
        <time>2026-08-16T01:31:43.000Z</time>
      </trkpt>
      <trkpt lat="22.806953" lon="109.909367">
        <ele>88.500592</ele>
        <time>2026-08-16T01:31:44.000Z</time>
      </trkpt>
      <trkpt lat="22.806994" lon="109.909421">
        <ele>88.405162</ele>
        <time>2026-08-16T01:31:45.000Z</time>
      </trkpt>
      <trkpt lat="22.807035" lon="109.909476">
        <ele>88.308675</ele>
        <time>2026-08-16T01:31:46.000Z</time>
      </trkpt>
      <trkpt lat="22.807073" lon="109.909531">
        <ele>88.214916</ele>
        <time>2026-08-16T01:31:47.000Z</time>
      </trkpt>
      <trkpt lat="22.807115" lon="109.909584">
        <ele>88.119577</ele>
        <time>2026-08-16T01:31:48.000Z</time>
      </trkpt>
      <trkpt lat="22.807161" lon="109.909637">
        <ele>88.020277</ele>
        <time>2026-08-16T01:31:49.000Z</time>
      </trkpt>
      <trkpt lat="22.807211" lon="109.909691">
        <ele>87.915872</ele>
        <time>2026-08-16T01:31:50.000Z</time>
      </trkpt>
      <trkpt lat="22.807261" lon="109.909743">
        <ele>87.813374</ele>
        <time>2026-08-16T01:31:51.000Z</time>
      </trkpt>
      <trkpt lat="22.807312" lon="109.909794">
        <ele>87.710732</ele>
        <time>2026-08-16T01:31:52.000Z</time>
      </trkpt>
      <trkpt lat="22.807361" lon="109.909847">
        <ele>87.608339</ele>
        <time>2026-08-16T01:31:53.000Z</time>
      </trkpt>
      <trkpt lat="22.807406" lon="109.909901">
        <ele>87.509040</ele>
        <time>2026-08-16T01:31:54.000Z</time>
      </trkpt>
      <trkpt lat="22.807452" lon="109.909960">
        <ele>87.403633</ele>
        <time>2026-08-16T01:31:55.000Z</time>
      </trkpt>
      <trkpt lat="22.807495" lon="109.910018">
        <ele>87.302103</ele>
        <time>2026-08-16T01:31:56.000Z</time>
      </trkpt>
      <trkpt lat="22.807537" lon="109.910078">
        <ele>87.199334</ele>
        <time>2026-08-16T01:31:57.000Z</time>
      </trkpt>
      <trkpt lat="22.807582" lon="109.910143">
        <ele>87.088447</ele>
        <time>2026-08-16T01:31:58.000Z</time>
      </trkpt>
      <trkpt lat="22.807619" lon="109.910202">
        <ele>86.991108</ele>
        <time>2026-08-16T01:31:59.000Z</time>
      </trkpt>
      <trkpt lat="22.807658" lon="109.910261">
        <ele>86.892073</ele>
        <time>2026-08-16T01:32:00.000Z</time>
      </trkpt>
      <trkpt lat="22.807697" lon="109.910322">
        <ele>86.790809</ele>
        <time>2026-08-16T01:32:01.000Z</time>
      </trkpt>
      <trkpt lat="22.807739" lon="109.910383">
        <ele>86.686951</ele>
        <time>2026-08-16T01:32:02.000Z</time>
      </trkpt>
      <trkpt lat="22.807783" lon="109.910448">
        <ele>86.576947</ele>
        <time>2026-08-16T01:32:03.000Z</time>
      </trkpt>
      <trkpt lat="22.807828" lon="109.910510">
        <ele>86.469305</ele>
        <time>2026-08-16T01:32:04.000Z</time>
      </trkpt>
      <trkpt lat="22.807882" lon="109.910565">
        <ele>86.359696</ele>
        <time>2026-08-16T01:32:05.000Z</time>
      </trkpt>
      <trkpt lat="22.807933" lon="109.910621">
        <ele>86.252314</ele>
        <time>2026-08-16T01:32:06.000Z</time>
      </trkpt>
      <trkpt lat="22.807983" lon="109.910675">
        <ele>86.147910</ele>
        <time>2026-08-16T01:32:07.000Z</time>
      </trkpt>
      <trkpt lat="22.808037" lon="109.910729">
        <ele>86.048850</ele>
        <time>2026-08-16T01:32:08.000Z</time>
      </trkpt>
      <trkpt lat="22.808095" lon="109.910791">
        <ele>86.027218</ele>
        <time>2026-08-16T01:32:09.000Z</time>
      </trkpt>
      <trkpt lat="22.808148" lon="109.910846">
        <ele>86.007732</ele>
        <time>2026-08-16T01:32:10.000Z</time>
      </trkpt>
      <trkpt lat="22.808204" lon="109.910901">
        <ele>85.987663</ele>
        <time>2026-08-16T01:32:11.000Z</time>
      </trkpt>
      <trkpt lat="22.808255" lon="109.910953">
        <ele>85.969068</ele>
        <time>2026-08-16T01:32:12.000Z</time>
      </trkpt>
      <trkpt lat="22.808302" lon="109.911007">
        <ele>85.950880</ele>
        <time>2026-08-16T01:32:13.000Z</time>
      </trkpt>
      <trkpt lat="22.808345" lon="109.911067">
        <ele>85.932268</ele>
        <time>2026-08-16T01:32:14.000Z</time>
      </trkpt>
      <trkpt lat="22.808384" lon="109.911130">
        <ele>85.913683</ele>
        <time>2026-08-16T01:32:15.000Z</time>
      </trkpt>
      <trkpt lat="22.808420" lon="109.911197">
        <ele>85.894691</ele>
        <time>2026-08-16T01:32:16.000Z</time>
      </trkpt>
      <trkpt lat="22.808452" lon="109.911261">
        <ele>85.876860</ele>
        <time>2026-08-16T01:32:17.000Z</time>
      </trkpt>
      <trkpt lat="22.808486" lon="109.911333">
        <ele>85.857048</ele>
        <time>2026-08-16T01:32:18.000Z</time>
      </trkpt>
      <trkpt lat="22.808504" lon="109.911398">
        <ele>85.840427</ele>
        <time>2026-08-16T01:32:19.000Z</time>
      </trkpt>
      <trkpt lat="22.808514" lon="109.911462">
        <ele>85.824530</ele>
        <time>2026-08-16T01:32:20.000Z</time>
      </trkpt>
      <trkpt lat="22.808523" lon="109.911527">
        <ele>85.808433</ele>
        <time>2026-08-16T01:32:21.000Z</time>
      </trkpt>
      <trkpt lat="22.808529" lon="109.911594">
        <ele>85.791947</ele>
        <time>2026-08-16T01:32:22.000Z</time>
      </trkpt>
      <trkpt lat="22.808539" lon="109.911663">
        <ele>85.774842</ele>
        <time>2026-08-16T01:32:23.000Z</time>
      </trkpt>
      <trkpt lat="22.808545" lon="109.911733">
        <ele>85.757625</ele>
        <time>2026-08-16T01:32:24.000Z</time>
      </trkpt>
      <trkpt lat="22.808547" lon="109.911803">
        <ele>85.740474</ele>
        <time>2026-08-16T01:32:25.000Z</time>
      </trkpt>
      <trkpt lat="22.808550" lon="109.911873">
        <ele>85.723312</ele>
        <time>2026-08-16T01:32:26.000Z</time>
      </trkpt>
      <trkpt lat="22.808555" lon="109.911942">
        <ele>85.706362</ele>
        <time>2026-08-16T01:32:27.000Z</time>
      </trkpt>
      <trkpt lat="22.808558" lon="109.912010">
        <ele>85.689690</ele>
        <time>2026-08-16T01:32:28.000Z</time>
      </trkpt>
      <trkpt lat="22.808562" lon="109.912078">
        <ele>85.673003</ele>
        <time>2026-08-16T01:32:29.000Z</time>
      </trkpt>
      <trkpt lat="22.808559" lon="109.912146">
        <ele>85.656331</ele>
        <time>2026-08-16T01:32:30.000Z</time>
      </trkpt>
      <trkpt lat="22.808551" lon="109.912214">
        <ele>85.639542</ele>
        <time>2026-08-16T01:32:31.000Z</time>
      </trkpt>
      <trkpt lat="22.808538" lon="109.912282">
        <ele>85.622535</ele>
        <time>2026-08-16T01:32:32.000Z</time>
      </trkpt>
      <trkpt lat="22.808524" lon="109.912351">
        <ele>85.605232</ele>
        <time>2026-08-16T01:32:33.000Z</time>
      </trkpt>
      <trkpt lat="22.808513" lon="109.912421">
        <ele>85.587842</ele>
        <time>2026-08-16T01:32:34.000Z</time>
      </trkpt>
      <trkpt lat="22.808503" lon="109.912491">
        <ele>85.583992</ele>
        <time>2026-08-16T01:32:35.000Z</time>
      </trkpt>
      <trkpt lat="22.808492" lon="109.912560">
        <ele>85.655532</ele>
        <time>2026-08-16T01:32:36.000Z</time>
      </trkpt>
      <trkpt lat="22.808482" lon="109.912626">
        <ele>85.723866</ele>
        <time>2026-08-16T01:32:37.000Z</time>
      </trkpt>
      <trkpt lat="22.808473" lon="109.912692">
        <ele>85.792029</ele>
        <time>2026-08-16T01:32:38.000Z</time>
      </trkpt>
      <trkpt lat="22.808465" lon="109.912753">
        <ele>85.854977</ele>
        <time>2026-08-16T01:32:39.000Z</time>
      </trkpt>
      <trkpt lat="22.808460" lon="109.912811">
        <ele>85.914491</ele>
        <time>2026-08-16T01:32:40.000Z</time>
      </trkpt>
      <trkpt lat="22.808454" lon="109.912868">
        <ele>85.973104</ele>
        <time>2026-08-16T01:32:41.000Z</time>
      </trkpt>
      <trkpt lat="22.808448" lon="109.912922">
        <ele>86.028672</ele>
        <time>2026-08-16T01:32:42.000Z</time>
      </trkpt>
      <trkpt lat="22.808439" lon="109.912974">
        <ele>86.082727</ele>
        <time>2026-08-16T01:32:43.000Z</time>
      </trkpt>
      <trkpt lat="22.808428" lon="109.913025">
        <ele>86.136238</ele>
        <time>2026-08-16T01:32:44.000Z</time>
      </trkpt>
      <trkpt lat="22.808416" lon="109.913078">
        <ele>86.191995</ele>
        <time>2026-08-16T01:32:45.000Z</time>
      </trkpt>
      <trkpt lat="22.808404" lon="109.913133">
        <ele>86.249738</ele>
        <time>2026-08-16T01:32:46.000Z</time>
      </trkpt>
      <trkpt lat="22.808395" lon="109.913188">
        <ele>86.306808</ele>
        <time>2026-08-16T01:32:47.000Z</time>
      </trkpt>
      <trkpt lat="22.808386" lon="109.913241">
        <ele>86.361866</ele>
        <time>2026-08-16T01:32:48.000Z</time>
      </trkpt>
      <trkpt lat="22.808368" lon="109.913294">
        <ele>86.419572</ele>
        <time>2026-08-16T01:32:49.000Z</time>
      </trkpt>
      <trkpt lat="22.808347" lon="109.913346">
        <ele>86.477573</ele>
        <time>2026-08-16T01:32:50.000Z</time>
      </trkpt>
      <trkpt lat="22.808341" lon="109.913402">
        <ele>86.535170</ele>
        <time>2026-08-16T01:32:51.000Z</time>
      </trkpt>
      <trkpt lat="22.808325" lon="109.913455">
        <ele>86.592148</ele>
        <time>2026-08-16T01:32:52.000Z</time>
      </trkpt>
      <trkpt lat="22.808314" lon="109.913510">
        <ele>86.649646</ele>
        <time>2026-08-16T01:32:53.000Z</time>
      </trkpt>
      <trkpt lat="22.808301" lon="109.913565">
        <ele>86.707655</ele>
        <time>2026-08-16T01:32:54.000Z</time>
      </trkpt>
      <trkpt lat="22.808288" lon="109.913618">
        <ele>86.763686</ele>
        <time>2026-08-16T01:32:55.000Z</time>
      </trkpt>
      <trkpt lat="22.808276" lon="109.913670">
        <ele>86.818452</ele>
        <time>2026-08-16T01:32:56.000Z</time>
      </trkpt>
      <trkpt lat="22.808264" lon="109.913721">
        <ele>86.872226</ele>
        <time>2026-08-16T01:32:57.000Z</time>
      </trkpt>
      <trkpt lat="22.808257" lon="109.913775">
        <ele>86.927939</ele>
        <time>2026-08-16T01:32:58.000Z</time>
      </trkpt>
      <trkpt lat="22.808247" lon="109.913827">
        <ele>86.982208</ele>
        <time>2026-08-16T01:32:59.000Z</time>
      </trkpt>
      <trkpt lat="22.808237" lon="109.913878">
        <ele>87.035478</ele>
        <time>2026-08-16T01:33:00.000Z</time>
      </trkpt>
      <trkpt lat="22.808230" lon="109.913930">
        <ele>87.089168</ele>
        <time>2026-08-16T01:33:01.000Z</time>
      </trkpt>
      <trkpt lat="22.808222" lon="109.913984">
        <ele>87.145045</ele>
        <time>2026-08-16T01:33:02.000Z</time>
      </trkpt>
      <trkpt lat="22.808216" lon="109.914038">
        <ele>87.200613</ele>
        <time>2026-08-16T01:33:03.000Z</time>
      </trkpt>
      <trkpt lat="22.808209" lon="109.914092">
        <ele>87.256326</ele>
        <time>2026-08-16T01:33:04.000Z</time>
      </trkpt>
      <trkpt lat="22.808202" lon="109.914146">
        <ele>87.312038</ele>
        <time>2026-08-16T01:33:05.000Z</time>
      </trkpt>
      <trkpt lat="22.808195" lon="109.914200">
        <ele>87.367750</ele>
        <time>2026-08-16T01:33:06.000Z</time>
      </trkpt>
      <trkpt lat="22.808187" lon="109.914254">
        <ele>87.423627</ele>
        <time>2026-08-16T01:33:07.000Z</time>
      </trkpt>
      <trkpt lat="22.808177" lon="109.914308">
        <ele>87.479898</ele>
        <time>2026-08-16T01:33:08.000Z</time>
      </trkpt>
      <trkpt lat="22.808170" lon="109.914362">
        <ele>87.535611</ele>
        <time>2026-08-16T01:33:09.000Z</time>
      </trkpt>
      <trkpt lat="22.808164" lon="109.914419">
        <ele>87.585565</ele>
        <time>2026-08-16T01:33:10.000Z</time>
      </trkpt>
      <trkpt lat="22.808158" lon="109.914474">
        <ele>87.624435</ele>
        <time>2026-08-16T01:33:11.000Z</time>
      </trkpt>
      <trkpt lat="22.808150" lon="109.914530">
        <ele>87.664206</ele>
        <time>2026-08-16T01:33:12.000Z</time>
      </trkpt>
      <trkpt lat="22.808138" lon="109.914585">
        <ele>87.703872</ele>
        <time>2026-08-16T01:33:13.000Z</time>
      </trkpt>
      <trkpt lat="22.808126" lon="109.914640">
        <ele>87.743539</ele>
        <time>2026-08-16T01:33:14.000Z</time>
      </trkpt>
      <trkpt lat="22.808112" lon="109.914694">
        <ele>87.782907</ele>
        <time>2026-08-16T01:33:15.000Z</time>
      </trkpt>
      <trkpt lat="22.808100" lon="109.914750">
        <ele>87.823257</ele>
        <time>2026-08-16T01:33:16.000Z</time>
      </trkpt>
      <trkpt lat="22.808081" lon="109.914803">
        <ele>87.863167</ele>
        <time>2026-08-16T01:33:17.000Z</time>
      </trkpt>
      <trkpt lat="22.808060" lon="109.914856">
        <ele>87.903655</ele>
        <time>2026-08-16T01:33:18.000Z</time>
      </trkpt>
      <trkpt lat="22.808042" lon="109.914907">
        <ele>87.941981</ele>
        <time>2026-08-16T01:33:19.000Z</time>
      </trkpt>
      <trkpt lat="22.808025" lon="109.914959">
        <ele>87.980703</ele>
        <time>2026-08-16T01:33:20.000Z</time>
      </trkpt>
      <trkpt lat="22.808004" lon="109.915013">
        <ele>88.021836</ele>
        <time>2026-08-16T01:33:21.000Z</time>
      </trkpt>
      <trkpt lat="22.807985" lon="109.915068">
        <ele>88.063057</ele>
        <time>2026-08-16T01:33:22.000Z</time>
      </trkpt>
      <trkpt lat="22.807967" lon="109.915122">
        <ele>88.103357</ele>
        <time>2026-08-16T01:33:23.000Z</time>
      </trkpt>
      <trkpt lat="22.807949" lon="109.915176">
        <ele>88.143657</ele>
        <time>2026-08-16T01:33:24.000Z</time>
      </trkpt>
      <trkpt lat="22.807923" lon="109.915217">
        <ele>88.178583</ele>
        <time>2026-08-16T01:33:25.000Z</time>
      </trkpt>
      <trkpt lat="22.807902" lon="109.915267">
        <ele>88.217145</ele>
        <time>2026-08-16T01:33:26.000Z</time>
      </trkpt>
      <trkpt lat="22.807882" lon="109.915318">
        <ele>88.256042</ele>
        <time>2026-08-16T01:33:27.000Z</time>
      </trkpt>
      <trkpt lat="22.807862" lon="109.915370">
        <ele>88.295586</ele>
        <time>2026-08-16T01:33:28.000Z</time>
      </trkpt>
      <trkpt lat="22.807843" lon="109.915421">
        <ele>88.334192</ele>
        <time>2026-08-16T01:33:29.000Z</time>
      </trkpt>
      <trkpt lat="22.807824" lon="109.915472">
        <ele>88.372797</ele>
        <time>2026-08-16T01:33:30.000Z</time>
      </trkpt>
      <trkpt lat="22.807805" lon="109.915524">
        <ele>88.412054</ele>
        <time>2026-08-16T01:33:31.000Z</time>
      </trkpt>
      <trkpt lat="22.807787" lon="109.915572">
        <ele>88.448422</ele>
        <time>2026-08-16T01:33:32.000Z</time>
      </trkpt>
      <trkpt lat="22.807767" lon="109.915619">
        <ele>88.484753</ele>
        <time>2026-08-16T01:33:33.000Z</time>
      </trkpt>
      <trkpt lat="22.807750" lon="109.915667">
        <ele>88.520841</ele>
        <time>2026-08-16T01:33:34.000Z</time>
      </trkpt>
      <trkpt lat="22.807734" lon="109.915714">
        <ele>88.556004</ele>
        <time>2026-08-16T01:33:35.000Z</time>
      </trkpt>
      <trkpt lat="22.807718" lon="109.915764">
        <ele>88.593150</ele>
        <time>2026-08-16T01:33:36.000Z</time>
      </trkpt>
      <trkpt lat="22.807699" lon="109.915819">
        <ele>88.634371</ele>
        <time>2026-08-16T01:33:37.000Z</time>
      </trkpt>
      <trkpt lat="22.807683" lon="109.915869">
        <ele>88.671517</ele>
        <time>2026-08-16T01:33:38.000Z</time>
      </trkpt>
      <trkpt lat="22.807667" lon="109.915922">
        <ele>88.710657</ele>
        <time>2026-08-16T01:33:39.000Z</time>
      </trkpt>
      <trkpt lat="22.807656" lon="109.915974">
        <ele>88.748100</ele>
        <time>2026-08-16T01:33:40.000Z</time>
      </trkpt>
      <trkpt lat="22.807645" lon="109.916025">
        <ele>88.784860</ele>
        <time>2026-08-16T01:33:41.000Z</time>
      </trkpt>
      <trkpt lat="22.807633" lon="109.916083">
        <ele>88.826578</ele>
        <time>2026-08-16T01:33:42.000Z</time>
      </trkpt>
      <trkpt lat="22.807625" lon="109.916142">
        <ele>88.868431</ele>
        <time>2026-08-16T01:33:43.000Z</time>
      </trkpt>
      <trkpt lat="22.807617" lon="109.916203">
        <ele>88.911674</ele>
        <time>2026-08-16T01:33:44.000Z</time>
      </trkpt>
      <trkpt lat="22.807608" lon="109.916264">
        <ele>88.943841</ele>
        <time>2026-08-16T01:33:45.000Z</time>
      </trkpt>
      <trkpt lat="22.807598" lon="109.916325">
        <ele>88.961806</ele>
        <time>2026-08-16T01:33:46.000Z</time>
      </trkpt>
      <trkpt lat="22.807591" lon="109.916385">
        <ele>88.979342</ele>
        <time>2026-08-16T01:33:47.000Z</time>
      </trkpt>
      <trkpt lat="22.807581" lon="109.916446">
        <ele>88.997307</ele>
        <time>2026-08-16T01:33:48.000Z</time>
      </trkpt>
      <trkpt lat="22.807571" lon="109.916508">
        <ele>89.015558</ele>
        <time>2026-08-16T01:33:49.000Z</time>
      </trkpt>
      <trkpt lat="22.807562" lon="109.916570">
        <ele>89.033756</ele>
        <time>2026-08-16T01:33:50.000Z</time>
      </trkpt>
      <trkpt lat="22.807554" lon="109.916632">
        <ele>89.051909</ele>
        <time>2026-08-16T01:33:51.000Z</time>
      </trkpt>
      <trkpt lat="22.807547" lon="109.916694">
        <ele>89.070021</ele>
        <time>2026-08-16T01:33:52.000Z</time>
      </trkpt>
      <trkpt lat="22.807544" lon="109.916757">
        <ele>89.088312</ele>
        <time>2026-08-16T01:33:53.000Z</time>
      </trkpt>
      <trkpt lat="22.807535" lon="109.916818">
        <ele>89.106225</ele>
        <time>2026-08-16T01:33:54.000Z</time>
      </trkpt>
      <trkpt lat="22.807527" lon="109.916879">
        <ele>89.124090</ele>
        <time>2026-08-16T01:33:55.000Z</time>
      </trkpt>
      <trkpt lat="22.807522" lon="109.916940">
        <ele>89.141847</ele>
        <time>2026-08-16T01:33:56.000Z</time>
      </trkpt>
      <trkpt lat="22.807518" lon="109.916999">
        <ele>89.159001</ele>
        <time>2026-08-16T01:33:57.000Z</time>
      </trkpt>
      <trkpt lat="22.807509" lon="109.917058">
        <ele>89.176341</ele>
        <time>2026-08-16T01:33:58.000Z</time>
      </trkpt>
      <trkpt lat="22.807497" lon="109.917117">
        <ele>89.193860</ele>
        <time>2026-08-16T01:33:59.000Z</time>
      </trkpt>
      <trkpt lat="22.807479" lon="109.917174">
        <ele>89.211330</ele>
        <time>2026-08-16T01:34:00.000Z</time>
      </trkpt>
      <trkpt lat="22.807458" lon="109.917231">
        <ele>89.229129</ele>
        <time>2026-08-16T01:34:01.000Z</time>
      </trkpt>
      <trkpt lat="22.807435" lon="109.917288">
        <ele>89.247171</ele>
        <time>2026-08-16T01:34:02.000Z</time>
      </trkpt>
      <trkpt lat="22.807416" lon="109.917344">
        <ele>89.264473</ele>
        <time>2026-08-16T01:34:03.000Z</time>
      </trkpt>
      <trkpt lat="22.807399" lon="109.917397">
        <ele>89.280745</ele>
        <time>2026-08-16T01:34:04.000Z</time>
      </trkpt>
      <trkpt lat="22.807379" lon="109.917450">
        <ele>89.297350</ele>
        <time>2026-08-16T01:34:05.000Z</time>
      </trkpt>
      <trkpt lat="22.807363" lon="109.917505">
        <ele>89.314073</ele>
        <time>2026-08-16T01:34:06.000Z</time>
      </trkpt>
      <trkpt lat="22.807349" lon="109.917558">
        <ele>89.330059</ele>
        <time>2026-08-16T01:34:07.000Z</time>
      </trkpt>
      <trkpt lat="22.807341" lon="109.917610">
        <ele>89.345345</ele>
        <time>2026-08-16T01:34:08.000Z</time>
      </trkpt>
      <trkpt lat="22.807335" lon="109.917664">
        <ele>89.361116</ele>
        <time>2026-08-16T01:34:09.000Z</time>
      </trkpt>
      <trkpt lat="22.807330" lon="109.917719">
        <ele>89.377141</ele>
        <time>2026-08-16T01:34:10.000Z</time>
      </trkpt>
      <trkpt lat="22.807321" lon="109.917774">
        <ele>89.393338</ele>
        <time>2026-08-16T01:34:11.000Z</time>
      </trkpt>
      <trkpt lat="22.807312" lon="109.917829">
        <ele>89.409535</ele>
        <time>2026-08-16T01:34:12.000Z</time>
      </trkpt>
      <trkpt lat="22.807298" lon="109.917885">
        <ele>89.426360</ele>
        <time>2026-08-16T01:34:13.000Z</time>
      </trkpt>
      <trkpt lat="22.807280" lon="109.917943">
        <ele>89.444105</ele>
        <time>2026-08-16T01:34:14.000Z</time>
      </trkpt>
      <trkpt lat="22.807261" lon="109.918003">
        <ele>89.462500</ele>
        <time>2026-08-16T01:34:15.000Z</time>
      </trkpt>
      <trkpt lat="22.807241" lon="109.918060">
        <ele>89.480184</ele>
        <time>2026-08-16T01:34:16.000Z</time>
      </trkpt>
      <trkpt lat="22.807225" lon="109.918118">
        <ele>89.497739</ele>
        <time>2026-08-16T01:34:17.000Z</time>
      </trkpt>
      <trkpt lat="22.807210" lon="109.918174">
        <ele>89.537467</ele>
        <time>2026-08-16T01:34:18.000Z</time>
      </trkpt>
      <trkpt lat="22.807194" lon="109.918229">
        <ele>89.583728</ele>
        <time>2026-08-16T01:34:19.000Z</time>
      </trkpt>
      <trkpt lat="22.807176" lon="109.918285">
        <ele>89.631299</ele>
        <time>2026-08-16T01:34:20.000Z</time>
      </trkpt>
      <trkpt lat="22.807157" lon="109.918340">
        <ele>89.678412</ele>
        <time>2026-08-16T01:34:21.000Z</time>
      </trkpt>
      <trkpt lat="22.807140" lon="109.918395">
        <ele>89.724942</ele>
        <time>2026-08-16T01:34:22.000Z</time>
      </trkpt>
      <trkpt lat="22.807121" lon="109.918449">
        <ele>89.771304</ele>
        <time>2026-08-16T01:34:23.000Z</time>
      </trkpt>
      <trkpt lat="22.807103" lon="109.918505">
        <ele>89.818875</ele>
        <time>2026-08-16T01:34:24.000Z</time>
      </trkpt>
      <trkpt lat="22.807086" lon="109.918560">
        <ele>89.865405</ele>
        <time>2026-08-16T01:34:25.000Z</time>
      </trkpt>
      <trkpt lat="22.807069" lon="109.918615">
        <ele>89.911936</ele>
        <time>2026-08-16T01:34:26.000Z</time>
      </trkpt>
      <trkpt lat="22.807053" lon="109.918669">
        <ele>89.957432</ele>
        <time>2026-08-16T01:34:27.000Z</time>
      </trkpt>
      <trkpt lat="22.807039" lon="109.918717">
        <ele>89.997815</ele>
        <time>2026-08-16T01:34:28.000Z</time>
      </trkpt>
      <trkpt lat="22.807026" lon="109.918769">
        <ele>90.041032</ele>
        <time>2026-08-16T01:34:29.000Z</time>
      </trkpt>
      <trkpt lat="22.807012" lon="109.918821">
        <ele>90.084484</ele>
        <time>2026-08-16T01:34:30.000Z</time>
      </trkpt>
      <trkpt lat="22.807001" lon="109.918873">
        <ele>90.127279</ele>
        <time>2026-08-16T01:34:31.000Z</time>
      </trkpt>
      <trkpt lat="22.806988" lon="109.918924">
        <ele>90.169722</ele>
        <time>2026-08-16T01:34:32.000Z</time>
      </trkpt>
      <trkpt lat="22.806976" lon="109.918978">
        <ele>90.214277</ele>
        <time>2026-08-16T01:34:33.000Z</time>
      </trkpt>
      <trkpt lat="22.806963" lon="109.919033">
        <ele>90.259820</ele>
        <time>2026-08-16T01:34:34.000Z</time>
      </trkpt>
      <trkpt lat="22.806949" lon="109.919086">
        <ele>90.304044</ele>
        <time>2026-08-16T01:34:35.000Z</time>
      </trkpt>
      <trkpt lat="22.806934" lon="109.919139">
        <ele>90.348514</ele>
        <time>2026-08-16T01:34:36.000Z</time>
      </trkpt>
      <trkpt lat="22.806916" lon="109.919193">
        <ele>90.394573</ele>
        <time>2026-08-16T01:34:37.000Z</time>
      </trkpt>
      <trkpt lat="22.806899" lon="109.919246">
        <ele>90.439586</ele>
        <time>2026-08-16T01:34:38.000Z</time>
      </trkpt>
      <trkpt lat="22.806881" lon="109.919299">
        <ele>90.484891</ele>
        <time>2026-08-16T01:34:39.000Z</time>
      </trkpt>
      <trkpt lat="22.806862" lon="109.919349">
        <ele>90.528271</ele>
        <time>2026-08-16T01:34:40.000Z</time>
      </trkpt>
      <trkpt lat="22.806840" lon="109.919399">
        <ele>90.572712</ele>
        <time>2026-08-16T01:34:41.000Z</time>
      </trkpt>
      <trkpt lat="22.806814" lon="109.919448">
        <ele>90.618062</ele>
        <time>2026-08-16T01:34:42.000Z</time>
      </trkpt>
      <trkpt lat="22.806789" lon="109.919500">
        <ele>90.665104</ele>
        <time>2026-08-16T01:34:43.000Z</time>
      </trkpt>
      <trkpt lat="22.806765" lon="109.919546">
        <ele>90.707501</ele>
        <time>2026-08-16T01:34:44.000Z</time>
      </trkpt>
      <trkpt lat="22.806743" lon="109.919591">
        <ele>90.748358</ele>
        <time>2026-08-16T01:34:45.000Z</time>
      </trkpt>
      <trkpt lat="22.806720" lon="109.919636">
        <ele>90.789631</ele>
        <time>2026-08-16T01:34:46.000Z</time>
      </trkpt>
      <trkpt lat="22.806695" lon="109.919678">
        <ele>90.829733</ele>
        <time>2026-08-16T01:34:47.000Z</time>
      </trkpt>
      <trkpt lat="22.806670" lon="109.919726">
        <ele>90.873955</ele>
        <time>2026-08-16T01:34:48.000Z</time>
      </trkpt>
      <trkpt lat="22.806650" lon="109.919771">
        <ele>90.914027</ele>
        <time>2026-08-16T01:34:49.000Z</time>
      </trkpt>
      <trkpt lat="22.806624" lon="109.919815">
        <ele>90.955948</ele>
        <time>2026-08-16T01:34:50.000Z</time>
      </trkpt>
      <trkpt lat="22.806604" lon="109.919858">
        <ele>90.994581</ele>
        <time>2026-08-16T01:34:51.000Z</time>
      </trkpt>
      <trkpt lat="22.806587" lon="109.919901">
        <ele>91.032111</ele>
        <time>2026-08-16T01:34:52.000Z</time>
      </trkpt>
      <trkpt lat="22.806571" lon="109.919946">
        <ele>91.067363</ele>
        <time>2026-08-16T01:34:53.000Z</time>
      </trkpt>
      <trkpt lat="22.806559" lon="109.919991">
        <ele>91.072542</ele>
        <time>2026-08-16T01:34:54.000Z</time>
      </trkpt>
      <trkpt lat="22.806548" lon="109.920035">
        <ele>91.077582</ele>
        <time>2026-08-16T01:34:55.000Z</time>
      </trkpt>
      <trkpt lat="22.806542" lon="109.920081">
        <ele>91.082719</ele>
        <time>2026-08-16T01:34:56.000Z</time>
      </trkpt>
      <trkpt lat="22.806541" lon="109.920130">
        <ele>91.088137</ele>
        <time>2026-08-16T01:34:57.000Z</time>
      </trkpt>
      <trkpt lat="22.806545" lon="109.920177">
        <ele>91.093356</ele>
        <time>2026-08-16T01:34:58.000Z</time>
      </trkpt>
      <trkpt lat="22.806550" lon="109.920226">
        <ele>91.098806</ele>
        <time>2026-08-16T01:34:59.000Z</time>
      </trkpt>
      <trkpt lat="22.806556" lon="109.920275">
        <ele>91.104271</ele>
        <time>2026-08-16T01:35:00.000Z</time>
      </trkpt>
      <trkpt lat="22.806564" lon="109.920325">
        <ele>91.109882</ele>
        <time>2026-08-16T01:35:01.000Z</time>
      </trkpt>
      <trkpt lat="22.806574" lon="109.920377">
        <ele>91.115754</ele>
        <time>2026-08-16T01:35:02.000Z</time>
      </trkpt>
      <trkpt lat="22.806587" lon="109.920428">
        <ele>91.121604</ele>
        <time>2026-08-16T01:35:03.000Z</time>
      </trkpt>
      <trkpt lat="22.806606" lon="109.920477">
        <ele>91.127481</ele>
        <time>2026-08-16T01:35:04.000Z</time>
      </trkpt>
      <trkpt lat="22.806627" lon="109.920523">
        <ele>91.133157</ele>
        <time>2026-08-16T01:35:05.000Z</time>
      </trkpt>
      <trkpt lat="22.806653" lon="109.920566">
        <ele>91.138842</ele>
        <time>2026-08-16T01:35:06.000Z</time>
      </trkpt>
      <trkpt lat="22.806685" lon="109.920604">
        <ele>91.144532</ele>
        <time>2026-08-16T01:35:07.000Z</time>
      </trkpt>
      <trkpt lat="22.806722" lon="109.920642">
        <ele>91.150643</ele>
        <time>2026-08-16T01:35:08.000Z</time>
      </trkpt>
      <trkpt lat="22.806760" lon="109.920672">
        <ele>91.156280</ele>
        <time>2026-08-16T01:35:09.000Z</time>
      </trkpt>
      <trkpt lat="22.806796" lon="109.920699">
        <ele>91.161529</ele>
        <time>2026-08-16T01:35:10.000Z</time>
      </trkpt>
      <trkpt lat="22.806834" lon="109.920727">
        <ele>91.167038</ele>
        <time>2026-08-16T01:35:11.000Z</time>
      </trkpt>
      <trkpt lat="22.806876" lon="109.920753">
        <ele>91.172838</ele>
        <time>2026-08-16T01:35:12.000Z</time>
      </trkpt>
      <trkpt lat="22.806914" lon="109.920779">
        <ele>91.178226</ele>
        <time>2026-08-16T01:35:13.000Z</time>
      </trkpt>
      <trkpt lat="22.806939" lon="109.920813">
        <ele>91.183034</ele>
        <time>2026-08-16T01:35:14.000Z</time>
      </trkpt>
      <trkpt lat="22.806973" lon="109.920838">
        <ele>91.187961</ele>
        <time>2026-08-16T01:35:15.000Z</time>
      </trkpt>
      <trkpt lat="22.807008" lon="109.920865">
        <ele>91.193111</ele>
        <time>2026-08-16T01:35:16.000Z</time>
      </trkpt>
      <trkpt lat="22.807046" lon="109.920898">
        <ele>91.198949</ele>
        <time>2026-08-16T01:35:17.000Z</time>
      </trkpt>
      <trkpt lat="22.807072" lon="109.920940">
        <ele>91.204543</ele>
        <time>2026-08-16T01:35:18.000Z</time>
      </trkpt>
      <trkpt lat="22.807094" lon="109.920985">
        <ele>91.210174</ele>
        <time>2026-08-16T01:35:19.000Z</time>
      </trkpt>
      <trkpt lat="22.807106" lon="109.921034">
        <ele>91.215779</ele>
        <time>2026-08-16T01:35:20.000Z</time>
      </trkpt>
      <trkpt lat="22.807115" lon="109.921086">
        <ele>91.221629</ele>
        <time>2026-08-16T01:35:21.000Z</time>
      </trkpt>
      <trkpt lat="22.807112" lon="109.921137">
        <ele>91.227279</ele>
        <time>2026-08-16T01:35:22.000Z</time>
      </trkpt>
      <trkpt lat="22.807109" lon="109.921190">
        <ele>91.233149</ele>
        <time>2026-08-16T01:35:23.000Z</time>
      </trkpt>
      <trkpt lat="22.807107" lon="109.921245">
        <ele>91.239235</ele>
        <time>2026-08-16T01:35:24.000Z</time>
      </trkpt>
      <trkpt lat="22.807105" lon="109.921297">
        <ele>91.244989</ele>
        <time>2026-08-16T01:35:25.000Z</time>
      </trkpt>
      <trkpt lat="22.807102" lon="109.921350">
        <ele>91.250859</ele>
        <time>2026-08-16T01:35:26.000Z</time>
      </trkpt>
      <trkpt lat="22.807099" lon="109.921406">
        <ele>91.257061</ele>
        <time>2026-08-16T01:35:27.000Z</time>
      </trkpt>
      <trkpt lat="22.807098" lon="109.921463">
        <ele>91.263364</ele>
        <time>2026-08-16T01:35:28.000Z</time>
      </trkpt>
      <trkpt lat="22.807096" lon="109.921519">
        <ele>91.269560</ele>
        <time>2026-08-16T01:35:29.000Z</time>
      </trkpt>
      <trkpt lat="22.807099" lon="109.921570">
        <ele>91.275209</ele>
        <time>2026-08-16T01:35:30.000Z</time>
      </trkpt>
      <trkpt lat="22.807101" lon="109.921625">
        <ele>91.281295</ele>
        <time>2026-08-16T01:35:31.000Z</time>
      </trkpt>
      <trkpt lat="22.807100" lon="109.921680">
        <ele>91.330732</ele>
        <time>2026-08-16T01:35:32.000Z</time>
      </trkpt>
      <trkpt lat="22.807100" lon="109.921733">
        <ele>91.389039</ele>
        <time>2026-08-16T01:35:33.000Z</time>
      </trkpt>
      <trkpt lat="22.807099" lon="109.921786">
        <ele>91.447357</ele>
        <time>2026-08-16T01:35:34.000Z</time>
      </trkpt>
      <trkpt lat="22.807099" lon="109.921838">
        <ele>91.504563</ele>
        <time>2026-08-16T01:35:35.000Z</time>
      </trkpt>
      <trkpt lat="22.807100" lon="109.921890">
        <ele>91.561782</ele>
        <time>2026-08-16T01:35:36.000Z</time>
      </trkpt>
      <trkpt lat="22.807100" lon="109.921941">
        <ele>91.617888</ele>
        <time>2026-08-16T01:35:37.000Z</time>
      </trkpt>
      <trkpt lat="22.807102" lon="109.921991">
        <ele>91.672946</ele>
        <time>2026-08-16T01:35:38.000Z</time>
      </trkpt>
      <trkpt lat="22.807103" lon="109.922039">
        <ele>91.725765</ele>
        <time>2026-08-16T01:35:39.000Z</time>
      </trkpt>
      <trkpt lat="22.807103" lon="109.922086">
        <ele>91.777470</ele>
        <time>2026-08-16T01:35:40.000Z</time>
      </trkpt>
      <trkpt lat="22.807106" lon="109.922135">
        <ele>91.831495</ele>
        <time>2026-08-16T01:35:41.000Z</time>
      </trkpt>
      <trkpt lat="22.807109" lon="109.922183">
        <ele>91.884422</ele>
        <time>2026-08-16T01:35:42.000Z</time>
      </trkpt>
      <trkpt lat="22.807111" lon="109.922230">
        <ele>91.936183</ele>
        <time>2026-08-16T01:35:43.000Z</time>
      </trkpt>
      <trkpt lat="22.807113" lon="109.922276">
        <ele>91.986844</ele>
        <time>2026-08-16T01:35:44.000Z</time>
      </trkpt>
      <trkpt lat="22.807116" lon="109.922323">
        <ele>92.038674</ele>
        <time>2026-08-16T01:35:45.000Z</time>
      </trkpt>
      <trkpt lat="22.807119" lon="109.922368">
        <ele>92.088308</ele>
        <time>2026-08-16T01:35:46.000Z</time>
      </trkpt>
      <trkpt lat="22.807124" lon="109.922414">
        <ele>92.139264</ele>
        <time>2026-08-16T01:35:47.000Z</time>
      </trkpt>
      <trkpt lat="22.807129" lon="109.922459">
        <ele>92.189128</ele>
        <time>2026-08-16T01:35:48.000Z</time>
      </trkpt>
      <trkpt lat="22.807134" lon="109.922502">
        <ele>92.236808</ele>
        <time>2026-08-16T01:35:49.000Z</time>
      </trkpt>
      <trkpt lat="22.807139" lon="109.922545">
        <ele>92.284488</ele>
        <time>2026-08-16T01:35:50.000Z</time>
      </trkpt>
      <trkpt lat="22.807143" lon="109.922589">
        <ele>92.333128</ele>
        <time>2026-08-16T01:35:51.000Z</time>
      </trkpt>
      <trkpt lat="22.807147" lon="109.922635">
        <ele>92.383958</ele>
        <time>2026-08-16T01:35:52.000Z</time>
      </trkpt>
      <trkpt lat="22.807150" lon="109.922682">
        <ele>92.435788</ele>
        <time>2026-08-16T01:35:53.000Z</time>
      </trkpt>
      <trkpt lat="22.807152" lon="109.922727">
        <ele>92.485350</ele>
        <time>2026-08-16T01:35:54.000Z</time>
      </trkpt>
      <trkpt lat="22.807153" lon="109.922772">
        <ele>92.534870</ele>
        <time>2026-08-16T01:35:55.000Z</time>
      </trkpt>
      <trkpt lat="22.807151" lon="109.922818">
        <ele>92.585532</ele>
        <time>2026-08-16T01:35:56.000Z</time>
      </trkpt>
      <trkpt lat="22.807146" lon="109.922866">
        <ele>92.638674</ele>
        <time>2026-08-16T01:35:57.000Z</time>
      </trkpt>
      <trkpt lat="22.807138" lon="109.922916">
        <ele>92.694502</ele>
        <time>2026-08-16T01:35:58.000Z</time>
      </trkpt>
      <trkpt lat="22.807126" lon="109.922965">
        <ele>92.750278</ele>
        <time>2026-08-16T01:35:59.000Z</time>
      </trkpt>
      <trkpt lat="22.807113" lon="109.923014">
        <ele>92.806372</ele>
        <time>2026-08-16T01:36:00.000Z</time>
      </trkpt>
      <trkpt lat="22.807098" lon="109.923062">
        <ele>92.862129</ele>
        <time>2026-08-16T01:36:01.000Z</time>
      </trkpt>
      <trkpt lat="22.807080" lon="109.923109">
        <ele>92.918120</ele>
        <time>2026-08-16T01:36:02.000Z</time>
      </trkpt>
      <trkpt lat="22.807066" lon="109.923153">
        <ele>92.969327</ele>
        <time>2026-08-16T01:36:03.000Z</time>
      </trkpt>
      <trkpt lat="22.807049" lon="109.923199">
        <ele>93.023848</ele>
        <time>2026-08-16T01:36:04.000Z</time>
      </trkpt>
      <trkpt lat="22.807031" lon="109.923246">
        <ele>93.079839</ele>
        <time>2026-08-16T01:36:05.000Z</time>
      </trkpt>
      <trkpt lat="22.807014" lon="109.923294">
        <ele>93.136408</ele>
        <time>2026-08-16T01:36:06.000Z</time>
      </trkpt>
      <trkpt lat="22.806997" lon="109.923342">
        <ele>93.192977</ele>
        <time>2026-08-16T01:36:07.000Z</time>
      </trkpt>
      <trkpt lat="22.806977" lon="109.923391">
        <ele>93.251931</ele>
        <time>2026-08-16T01:36:08.000Z</time>
      </trkpt>
      <trkpt lat="22.806957" lon="109.923437">
        <ele>93.307883</ele>
        <time>2026-08-16T01:36:09.000Z</time>
      </trkpt>
      <trkpt lat="22.806937" lon="109.923481">
        <ele>93.361853</ele>
        <time>2026-08-16T01:36:10.000Z</time>
      </trkpt>
      <trkpt lat="22.806916" lon="109.923522">
        <ele>93.413453</ele>
        <time>2026-08-16T01:36:11.000Z</time>
      </trkpt>
      <trkpt lat="22.806899" lon="109.923563">
        <ele>93.509415</ele>
        <time>2026-08-16T01:36:12.000Z</time>
      </trkpt>
      <trkpt lat="22.806883" lon="109.923605">
        <ele>93.628138</ele>
        <time>2026-08-16T01:36:13.000Z</time>
      </trkpt>
      <trkpt lat="22.806868" lon="109.923644">
        <ele>93.738536</ele>
        <time>2026-08-16T01:36:14.000Z</time>
      </trkpt>
      <trkpt lat="22.806856" lon="109.923687">
        <ele>93.855906</ele>
        <time>2026-08-16T01:36:15.000Z</time>
      </trkpt>
      <trkpt lat="22.806842" lon="109.923726">
        <ele>93.965245</ele>
        <time>2026-08-16T01:36:16.000Z</time>
      </trkpt>
      <trkpt lat="22.806832" lon="109.923769">
        <ele>94.081100</ele>
        <time>2026-08-16T01:36:17.000Z</time>
      </trkpt>
      <trkpt lat="22.806824" lon="109.923813">
        <ele>94.198262</ele>
        <time>2026-08-16T01:36:18.000Z</time>
      </trkpt>
      <trkpt lat="22.806812" lon="109.923854">
        <ele>94.310642</ele>
        <time>2026-08-16T01:36:19.000Z</time>
      </trkpt>
      <trkpt lat="22.806802" lon="109.923896">
        <ele>94.423966</ele>
        <time>2026-08-16T01:36:20.000Z</time>
      </trkpt>
      <trkpt lat="22.806794" lon="109.923938">
        <ele>94.536006</ele>
        <time>2026-08-16T01:36:21.000Z</time>
      </trkpt>
      <trkpt lat="22.806785" lon="109.923980">
        <ele>94.648655</ele>
        <time>2026-08-16T01:36:22.000Z</time>
      </trkpt>
      <trkpt lat="22.806775" lon="109.924022">
        <ele>94.761979</ele>
        <time>2026-08-16T01:36:23.000Z</time>
      </trkpt>
      <trkpt lat="22.806767" lon="109.924065">
        <ele>94.876579</ele>
        <time>2026-08-16T01:36:24.000Z</time>
      </trkpt>
      <trkpt lat="22.806759" lon="109.924106">
        <ele>94.986063</ele>
        <time>2026-08-16T01:36:25.000Z</time>
      </trkpt>
      <trkpt lat="22.806750" lon="109.924146">
        <ele>95.093629</ele>
        <time>2026-08-16T01:36:26.000Z</time>
      </trkpt>
      <trkpt lat="22.806740" lon="109.924187">
        <ele>95.204425</ele>
        <time>2026-08-16T01:36:27.000Z</time>
      </trkpt>
      <trkpt lat="22.806732" lon="109.924229">
        <ele>95.316466</ele>
        <time>2026-08-16T01:36:28.000Z</time>
      </trkpt>
      <trkpt lat="22.806722" lon="109.924270">
        <ele>95.427262</ele>
        <time>2026-08-16T01:36:29.000Z</time>
      </trkpt>
      <trkpt lat="22.806713" lon="109.924312">
        <ele>95.539911</ele>
        <time>2026-08-16T01:36:30.000Z</time>
      </trkpt>
      <trkpt lat="22.806701" lon="109.924353">
        <ele>95.652291</ele>
        <time>2026-08-16T01:36:31.000Z</time>
      </trkpt>
      <trkpt lat="22.806689" lon="109.924392">
        <ele>95.759702</ele>
        <time>2026-08-16T01:36:32.000Z</time>
      </trkpt>
      <trkpt lat="22.806678" lon="109.924433">
        <ele>95.871257</ele>
        <time>2026-08-16T01:36:33.000Z</time>
      </trkpt>
      <trkpt lat="22.806668" lon="109.924473">
        <ele>95.979530</ele>
        <time>2026-08-16T01:36:34.000Z</time>
      </trkpt>
      <trkpt lat="22.806656" lon="109.924514">
        <ele>96.091910</ele>
        <time>2026-08-16T01:36:35.000Z</time>
      </trkpt>
      <trkpt lat="22.806645" lon="109.924554">
        <ele>96.200959</ele>
        <time>2026-08-16T01:36:36.000Z</time>
      </trkpt>
      <trkpt lat="22.806634" lon="109.924594">
        <ele>96.310008</ele>
        <time>2026-08-16T01:36:37.000Z</time>
      </trkpt>
      <trkpt lat="22.806621" lon="109.924636">
        <ele>96.425751</ele>
        <time>2026-08-16T01:36:38.000Z</time>
      </trkpt>
      <trkpt lat="22.806610" lon="109.924676">
        <ele>96.534800</ele>
        <time>2026-08-16T01:36:39.000Z</time>
      </trkpt>
      <trkpt lat="22.806598" lon="109.924713">
        <ele>96.637269</ele>
        <time>2026-08-16T01:36:40.000Z</time>
      </trkpt>
      <trkpt lat="22.806587" lon="109.924750">
        <ele>96.738833</ele>
        <time>2026-08-16T01:36:41.000Z</time>
      </trkpt>
      <trkpt lat="22.806576" lon="109.924785">
        <ele>96.835437</ele>
        <time>2026-08-16T01:36:42.000Z</time>
      </trkpt>
      <trkpt lat="22.806565" lon="109.924820">
        <ele>96.932041</ele>
        <time>2026-08-16T01:36:43.000Z</time>
      </trkpt>
      <trkpt lat="22.806552" lon="109.924857">
        <ele>97.035485</ele>
        <time>2026-08-16T01:36:44.000Z</time>
      </trkpt>
      <trkpt lat="22.806540" lon="109.924895">
        <ele>97.140422</ele>
        <time>2026-08-16T01:36:45.000Z</time>
      </trkpt>
      <trkpt lat="22.806527" lon="109.924934">
        <ele>97.248764</ele>
        <time>2026-08-16T01:36:46.000Z</time>
      </trkpt>
      <trkpt lat="22.806513" lon="109.924972">
        <ele>97.355673</ele>
        <time>2026-08-16T01:36:47.000Z</time>
      </trkpt>
      <trkpt lat="22.806500" lon="109.925011">
        <ele>97.464015</ele>
        <time>2026-08-16T01:36:48.000Z</time>
      </trkpt>
      <trkpt lat="22.806486" lon="109.925050">
        <ele>97.573354</ele>
        <time>2026-08-16T01:36:49.000Z</time>
      </trkpt>
      <trkpt lat="22.806475" lon="109.925088">
        <ele>97.677407</ele>
        <time>2026-08-16T01:36:50.000Z</time>
      </trkpt>
      <trkpt lat="22.806465" lon="109.925127">
        <ele>97.783160</ele>
        <time>2026-08-16T01:36:51.000Z</time>
      </trkpt>
      <trkpt lat="22.806451" lon="109.925163">
        <ele>97.885236</ele>
        <time>2026-08-16T01:36:52.000Z</time>
      </trkpt>
      <trkpt lat="22.806436" lon="109.925197">
        <ele>97.983708</ele>
        <time>2026-08-16T01:36:53.000Z</time>
      </trkpt>
      <trkpt lat="22.806421" lon="109.925231">
        <ele>98.082180</ele>
        <time>2026-08-16T01:36:54.000Z</time>
      </trkpt>
      <trkpt lat="22.806407" lon="109.925266">
        <ele>98.181853</ele>
        <time>2026-08-16T01:36:55.000Z</time>
      </trkpt>
      <trkpt lat="22.806392" lon="109.925303">
        <ele>98.287449</ele>
        <time>2026-08-16T01:36:56.000Z</time>
      </trkpt>
      <trkpt lat="22.806378" lon="109.925342">
        <ele>98.396787</ele>
        <time>2026-08-16T01:36:57.000Z</time>
      </trkpt>
      <trkpt lat="22.806365" lon="109.925381">
        <ele>98.505130</ele>
        <time>2026-08-16T01:36:58.000Z</time>
      </trkpt>
      <trkpt lat="22.806350" lon="109.925418">
        <ele>98.545583</ele>
        <time>2026-08-16T01:36:59.000Z</time>
      </trkpt>
      <trkpt lat="22.806336" lon="109.925457">
        <ele>98.570380</ele>
        <time>2026-08-16T01:37:00.000Z</time>
      </trkpt>
      <trkpt lat="22.806318" lon="109.925494">
        <ele>98.595167</ele>
        <time>2026-08-16T01:37:01.000Z</time>
      </trkpt>
      <trkpt lat="22.806301" lon="109.925533">
        <ele>98.620727</ele>
        <time>2026-08-16T01:37:02.000Z</time>
      </trkpt>
      <trkpt lat="22.806284" lon="109.925570">
        <ele>98.645221</ele>
        <time>2026-08-16T01:37:03.000Z</time>
      </trkpt>
      <trkpt lat="22.806267" lon="109.925609">
        <ele>98.670780</ele>
        <time>2026-08-16T01:37:04.000Z</time>
      </trkpt>
      <trkpt lat="22.806249" lon="109.925648">
        <ele>98.696621</ele>
        <time>2026-08-16T01:37:05.000Z</time>
      </trkpt>
      <trkpt lat="22.806232" lon="109.925690">
        <ele>98.723799</ele>
        <time>2026-08-16T01:37:06.000Z</time>
      </trkpt>
      <trkpt lat="22.806213" lon="109.925731">
        <ele>98.750987</ele>
        <time>2026-08-16T01:37:07.000Z</time>
      </trkpt>
      <trkpt lat="22.806192" lon="109.925770">
        <ele>98.777747</ele>
        <time>2026-08-16T01:37:08.000Z</time>
      </trkpt>
      <trkpt lat="22.806173" lon="109.925807">
        <ele>98.802840</ele>
        <time>2026-08-16T01:37:09.000Z</time>
      </trkpt>
      <trkpt lat="22.806156" lon="109.925848">
        <ele>98.829476</ele>
        <time>2026-08-16T01:37:10.000Z</time>
      </trkpt>
      <trkpt lat="22.806138" lon="109.925887">
        <ele>98.855317</ele>
        <time>2026-08-16T01:37:11.000Z</time>
      </trkpt>
      <trkpt lat="22.806122" lon="109.925929">
        <ele>98.882242</ele>
        <time>2026-08-16T01:37:12.000Z</time>
      </trkpt>
      <trkpt lat="22.806103" lon="109.925970">
        <ele>98.909431</ele>
        <time>2026-08-16T01:37:13.000Z</time>
      </trkpt>
      <trkpt lat="22.806085" lon="109.926011">
        <ele>98.936336</ele>
        <time>2026-08-16T01:37:14.000Z</time>
      </trkpt>
      <trkpt lat="22.806065" lon="109.926051">
        <ele>98.963297</ele>
        <time>2026-08-16T01:37:15.000Z</time>
      </trkpt>
      <trkpt lat="22.806046" lon="109.926091">
        <ele>98.989958</ele>
        <time>2026-08-16T01:37:16.000Z</time>
      </trkpt>
      <trkpt lat="22.806029" lon="109.926128">
        <ele>99.014451</ele>
        <time>2026-08-16T01:37:17.000Z</time>
      </trkpt>
      <trkpt lat="22.806010" lon="109.926167">
        <ele>99.040586</ele>
        <time>2026-08-16T01:37:18.000Z</time>
      </trkpt>
      <trkpt lat="22.805991" lon="109.926208">
        <ele>99.067775</ele>
        <time>2026-08-16T01:37:19.000Z</time>
      </trkpt>
      <trkpt lat="22.805970" lon="109.926247">
        <ele>99.094535</ele>
        <time>2026-08-16T01:37:20.000Z</time>
      </trkpt>
      <trkpt lat="22.805950" lon="109.926286">
        <ele>99.120976</ele>
        <time>2026-08-16T01:37:21.000Z</time>
      </trkpt>
      <trkpt lat="22.805931" lon="109.926326">
        <ele>99.147636</ele>
        <time>2026-08-16T01:37:22.000Z</time>
      </trkpt>
      <trkpt lat="22.805913" lon="109.926365">
        <ele>99.173478</ele>
        <time>2026-08-16T01:37:23.000Z</time>
      </trkpt>
      <trkpt lat="22.805895" lon="109.926403">
        <ele>99.198790</ele>
        <time>2026-08-16T01:37:24.000Z</time>
      </trkpt>
      <trkpt lat="22.805875" lon="109.926441">
        <ele>99.224716</ele>
        <time>2026-08-16T01:37:25.000Z</time>
      </trkpt>
      <trkpt lat="22.805852" lon="109.926473">
        <ele>99.248757</ele>
        <time>2026-08-16T01:37:26.000Z</time>
      </trkpt>
      <trkpt lat="22.805830" lon="109.926514">
        <ele>99.276864</ele>
        <time>2026-08-16T01:37:27.000Z</time>
      </trkpt>
      <trkpt lat="22.805809" lon="109.926553">
        <ele>99.303624</ele>
        <time>2026-08-16T01:37:28.000Z</time>
      </trkpt>
      <trkpt lat="22.805788" lon="109.926592">
        <ele>99.330384</ele>
        <time>2026-08-16T01:37:29.000Z</time>
      </trkpt>
      <trkpt lat="22.805765" lon="109.926632">
        <ele>99.358316</ele>
        <time>2026-08-16T01:37:30.000Z</time>
      </trkpt>
      <trkpt lat="22.805740" lon="109.926671">
        <ele>99.386460</ele>
        <time>2026-08-16T01:37:31.000Z</time>
      </trkpt>
      <trkpt lat="22.805715" lon="109.926710">
        <ele>99.414604</ele>
        <time>2026-08-16T01:37:32.000Z</time>
      </trkpt>
      <trkpt lat="22.805690" lon="109.926750">
        <ele>99.443237</ele>
        <time>2026-08-16T01:37:33.000Z</time>
      </trkpt>
      <trkpt lat="22.805664" lon="109.926792">
        <ele>99.473211</ele>
        <time>2026-08-16T01:37:34.000Z</time>
      </trkpt>
      <trkpt lat="22.805639" lon="109.926834">
        <ele>99.502832</ele>
        <time>2026-08-16T01:37:35.000Z</time>
      </trkpt>
      <trkpt lat="22.805613" lon="109.926875">
        <ele>99.532317</ele>
        <time>2026-08-16T01:37:36.000Z</time>
      </trkpt>
      <trkpt lat="22.805587" lon="109.926915">
        <ele>99.561315</ele>
        <time>2026-08-16T01:37:37.000Z</time>
      </trkpt>
      <trkpt lat="22.805562" lon="109.926958">
        <ele>99.591436</ele>
        <time>2026-08-16T01:37:38.000Z</time>
      </trkpt>
      <trkpt lat="22.805536" lon="109.927002">
        <ele>99.622401</ele>
        <time>2026-08-16T01:37:39.000Z</time>
      </trkpt>
      <trkpt lat="22.805510" lon="109.927048">
        <ele>99.654370</ele>
        <time>2026-08-16T01:37:40.000Z</time>
      </trkpt>
      <trkpt lat="22.805483" lon="109.927088">
        <ele>99.678199</ele>
        <time>2026-08-16T01:37:41.000Z</time>
      </trkpt>
      <trkpt lat="22.805457" lon="109.927129">
        <ele>99.575382</ele>
        <time>2026-08-16T01:37:42.000Z</time>
      </trkpt>
      <trkpt lat="22.805431" lon="109.927168">
        <ele>99.475941</ele>
        <time>2026-08-16T01:37:43.000Z</time>
      </trkpt>
      <trkpt lat="22.805404" lon="109.927209">
        <ele>99.371837</ele>
        <time>2026-08-16T01:37:44.000Z</time>
      </trkpt>
      <trkpt lat="22.805375" lon="109.927251">
        <ele>99.263419</ele>
        <time>2026-08-16T01:37:45.000Z</time>
      </trkpt>
      <trkpt lat="22.805347" lon="109.927294">
        <ele>99.154648</ele>
        <time>2026-08-16T01:37:46.000Z</time>
      </trkpt>
      <trkpt lat="22.805320" lon="109.927336">
        <ele>99.048856</ele>
        <time>2026-08-16T01:37:47.000Z</time>
      </trkpt>
      <trkpt lat="22.805292" lon="109.927380">
        <ele>98.938391</ele>
        <time>2026-08-16T01:37:48.000Z</time>
      </trkpt>
      <trkpt lat="22.805265" lon="109.927423">
        <ele>98.830898</ele>
        <time>2026-08-16T01:37:49.000Z</time>
      </trkpt>
      <trkpt lat="22.805238" lon="109.927465">
        <ele>98.725106</ele>
        <time>2026-08-16T01:37:50.000Z</time>
      </trkpt>
      <trkpt lat="22.805211" lon="109.927508">
        <ele>98.617613</ele>
        <time>2026-08-16T01:37:51.000Z</time>
      </trkpt>
      <trkpt lat="22.805183" lon="109.927552">
        <ele>98.507148</ele>
        <time>2026-08-16T01:37:52.000Z</time>
      </trkpt>
      <trkpt lat="22.805156" lon="109.927595">
        <ele>98.399655</ele>
        <time>2026-08-16T01:37:53.000Z</time>
      </trkpt>
      <trkpt lat="22.805129" lon="109.927639">
        <ele>98.290448</ele>
        <time>2026-08-16T01:37:54.000Z</time>
      </trkpt>
      <trkpt lat="22.805100" lon="109.927684">
        <ele>98.177007</ele>
        <time>2026-08-16T01:37:55.000Z</time>
      </trkpt>
      <trkpt lat="22.805073" lon="109.927731">
        <ele>98.062589</ele>
        <time>2026-08-16T01:37:56.000Z</time>
      </trkpt>
      <trkpt lat="22.805043" lon="109.927782">
        <ele>97.937593</ele>
        <time>2026-08-16T01:37:57.000Z</time>
      </trkpt>
      <trkpt lat="22.805011" lon="109.927833">
        <ele>97.810131</ele>
        <time>2026-08-16T01:37:58.000Z</time>
      </trkpt>
      <trkpt lat="22.804979" lon="109.927886">
        <ele>97.679231</ele>
        <time>2026-08-16T01:37:59.000Z</time>
      </trkpt>
      <trkpt lat="22.804948" lon="109.927940">
        <ele>97.547797</ele>
        <time>2026-08-16T01:38:00.000Z</time>
      </trkpt>
      <trkpt lat="22.804917" lon="109.927996">
        <ele>97.412837</ele>
        <time>2026-08-16T01:38:01.000Z</time>
      </trkpt>
      <trkpt lat="22.804885" lon="109.928053">
        <ele>97.274950</ele>
        <time>2026-08-16T01:38:02.000Z</time>
      </trkpt>
      <trkpt lat="22.804855" lon="109.928115">
        <ele>97.130279</ele>
        <time>2026-08-16T01:38:03.000Z</time>
      </trkpt>
      <trkpt lat="22.804826" lon="109.928182">
        <ele>96.977351</ele>
        <time>2026-08-16T01:38:04.000Z</time>
      </trkpt>
      <trkpt lat="22.804799" lon="109.928251">
        <ele>96.822479</ele>
        <time>2026-08-16T01:38:05.000Z</time>
      </trkpt>
      <trkpt lat="22.804773" lon="109.928322">
        <ele>96.664636</ele>
        <time>2026-08-16T01:38:06.000Z</time>
      </trkpt>
      <trkpt lat="22.804747" lon="109.928394">
        <ele>96.504872</ele>
        <time>2026-08-16T01:38:07.000Z</time>
      </trkpt>
      <trkpt lat="22.804723" lon="109.928466">
        <ele>96.346687</ele>
        <time>2026-08-16T01:38:08.000Z</time>
      </trkpt>
      <trkpt lat="22.804699" lon="109.928539">
        <ele>96.186558</ele>
        <time>2026-08-16T01:38:09.000Z</time>
      </trkpt>
      <trkpt lat="22.804675" lon="109.928612">
        <ele>96.026428</ele>
        <time>2026-08-16T01:38:10.000Z</time>
      </trkpt>
      <trkpt lat="22.804651" lon="109.928687">
        <ele>95.862401</ele>
        <time>2026-08-16T01:38:11.000Z</time>
      </trkpt>
      <trkpt lat="22.804626" lon="109.928762">
        <ele>95.697625</ele>
        <time>2026-08-16T01:38:12.000Z</time>
      </trkpt>
      <trkpt lat="22.804600" lon="109.928836">
        <ele>95.686627</ele>
        <time>2026-08-16T01:38:13.000Z</time>
      </trkpt>
      <trkpt lat="22.804578" lon="109.928907">
        <ele>95.733342</ele>
        <time>2026-08-16T01:38:14.000Z</time>
      </trkpt>
      <trkpt lat="22.804556" lon="109.928975">
        <ele>95.778288</ele>
        <time>2026-08-16T01:38:15.000Z</time>
      </trkpt>
      <trkpt lat="22.804535" lon="109.929043">
        <ele>95.823014</ele>
        <time>2026-08-16T01:38:16.000Z</time>
      </trkpt>
      <trkpt lat="22.804515" lon="109.929109">
        <ele>95.866343</ele>
        <time>2026-08-16T01:38:17.000Z</time>
      </trkpt>
      <trkpt lat="22.804493" lon="109.929175">
        <ele>95.910113</ele>
        <time>2026-08-16T01:38:18.000Z</time>
      </trkpt>
      <trkpt lat="22.804470" lon="109.929242">
        <ele>95.954702</ele>
        <time>2026-08-16T01:38:19.000Z</time>
      </trkpt>
      <trkpt lat="22.804447" lon="109.929306">
        <ele>95.997543</ele>
        <time>2026-08-16T01:38:20.000Z</time>
      </trkpt>
      <trkpt lat="22.804424" lon="109.929370">
        <ele>96.040384</ele>
        <time>2026-08-16T01:38:21.000Z</time>
      </trkpt>
      <trkpt lat="22.804403" lon="109.929432">
        <ele>96.081579</ele>
        <time>2026-08-16T01:38:22.000Z</time>
      </trkpt>
      <trkpt lat="22.804381" lon="109.929491">
        <ele>96.121272</ele>
        <time>2026-08-16T01:38:23.000Z</time>
      </trkpt>
      <trkpt lat="22.804362" lon="109.929551">
        <ele>96.160838</ele>
        <time>2026-08-16T01:38:24.000Z</time>
      </trkpt>
      <trkpt lat="22.804342" lon="109.929609">
        <ele>96.199459</ele>
        <time>2026-08-16T01:38:25.000Z</time>
      </trkpt>
      <trkpt lat="22.804322" lon="109.929668">
        <ele>96.238665</ele>
        <time>2026-08-16T01:38:26.000Z</time>
      </trkpt>
      <trkpt lat="22.804301" lon="109.929727">
        <ele>96.278109</ele>
        <time>2026-08-16T01:38:27.000Z</time>
      </trkpt>
      <trkpt lat="22.804280" lon="109.929785">
        <ele>96.316972</ele>
        <time>2026-08-16T01:38:28.000Z</time>
      </trkpt>
      <trkpt lat="22.804261" lon="109.929842">
        <ele>96.354774</ele>
        <time>2026-08-16T01:38:29.000Z</time>
      </trkpt>
      <trkpt lat="22.804246" lon="109.929897">
        <ele>96.390545</ele>
        <time>2026-08-16T01:38:30.000Z</time>
      </trkpt>
      <trkpt lat="22.804229" lon="109.929953">
        <ele>96.427316</ele>
        <time>2026-08-16T01:38:31.000Z</time>
      </trkpt>
      <trkpt lat="22.804209" lon="109.930005">
        <ele>96.462456</ele>
        <time>2026-08-16T01:38:32.000Z</time>
      </trkpt>
      <trkpt lat="22.804190" lon="109.930058">
        <ele>96.497922</ele>
        <time>2026-08-16T01:38:33.000Z</time>
      </trkpt>
      <trkpt lat="22.804173" lon="109.930112">
        <ele>96.533510</ele>
        <time>2026-08-16T01:38:34.000Z</time>
      </trkpt>
      <trkpt lat="22.804157" lon="109.930165">
        <ele>96.568292</ele>
        <time>2026-08-16T01:38:35.000Z</time>
      </trkpt>
      <trkpt lat="22.804141" lon="109.930218">
        <ele>96.603074</ele>
        <time>2026-08-16T01:38:36.000Z</time>
      </trkpt>
      <trkpt lat="22.804124" lon="109.930270">
        <ele>96.637484</ele>
        <time>2026-08-16T01:38:37.000Z</time>
      </trkpt>
      <trkpt lat="22.804108" lon="109.930323">
        <ele>96.672266</ele>
        <time>2026-08-16T01:38:38.000Z</time>
      </trkpt>
      <trkpt lat="22.804092" lon="109.930374">
        <ele>96.705865</ele>
        <time>2026-08-16T01:38:39.000Z</time>
      </trkpt>
      <trkpt lat="22.804077" lon="109.930424">
        <ele>96.738658</ele>
        <time>2026-08-16T01:38:40.000Z</time>
      </trkpt>
      <trkpt lat="22.804062" lon="109.930471">
        <ele>96.769677</ele>
        <time>2026-08-16T01:38:41.000Z</time>
      </trkpt>
      <trkpt lat="22.804048" lon="109.930517">
        <ele>96.799889</ele>
        <time>2026-08-16T01:38:42.000Z</time>
      </trkpt>
      <trkpt lat="22.804033" lon="109.930565">
        <ele>96.831499</ele>
        <time>2026-08-16T01:38:43.000Z</time>
      </trkpt>
      <trkpt lat="22.804019" lon="109.930609">
        <ele>96.860529</ele>
        <time>2026-08-16T01:38:44.000Z</time>
      </trkpt>
      <trkpt lat="22.804004" lon="109.930656">
        <ele>96.987308</ele>
        <time>2026-08-16T01:38:45.000Z</time>
      </trkpt>
      <trkpt lat="22.803987" lon="109.930703">
        <ele>97.147480</ele>
        <time>2026-08-16T01:38:46.000Z</time>
      </trkpt>
      <trkpt lat="22.803970" lon="109.930750">
        <ele>97.307651</ele>
        <time>2026-08-16T01:38:47.000Z</time>
      </trkpt>
      <trkpt lat="22.803953" lon="109.930798">
        <ele>97.470780</ele>
        <time>2026-08-16T01:38:48.000Z</time>
      </trkpt>
      <trkpt lat="22.803935" lon="109.930846">
        <ele>97.635175</ele>
        <time>2026-08-16T01:38:49.000Z</time>
      </trkpt>
      <trkpt lat="22.803914" lon="109.930892">
        <ele>97.798023</ele>
        <time>2026-08-16T01:38:50.000Z</time>
      </trkpt>
      <trkpt lat="22.803892" lon="109.930940">
        <ele>97.968083</ele>
        <time>2026-08-16T01:38:51.000Z</time>
      </trkpt>
      <trkpt lat="22.803872" lon="109.930988">
        <ele>98.135193</ele>
        <time>2026-08-16T01:38:52.000Z</time>
      </trkpt>
      <trkpt lat="22.803852" lon="109.931037">
        <ele>98.305199</ele>
        <time>2026-08-16T01:38:53.000Z</time>
      </trkpt>
      <trkpt lat="22.803833" lon="109.931088">
        <ele>98.479707</ele>
        <time>2026-08-16T01:38:54.000Z</time>
      </trkpt>
      <trkpt lat="22.803813" lon="109.931139">
        <ele>98.655533</ele>
        <time>2026-08-16T01:38:55.000Z</time>
      </trkpt>
      <trkpt lat="22.803799" lon="109.931197">
        <ele>98.845739</ele>
        <time>2026-08-16T01:38:56.000Z</time>
      </trkpt>
      <trkpt lat="22.803781" lon="109.931247">
        <ele>99.016027</ele>
        <time>2026-08-16T01:38:57.000Z</time>
      </trkpt>
      <trkpt lat="22.803763" lon="109.931296">
        <ele>99.183365</ele>
        <time>2026-08-16T01:38:58.000Z</time>
      </trkpt>
      <trkpt lat="22.803743" lon="109.931345">
        <ele>99.353371</ele>
        <time>2026-08-16T01:38:59.000Z</time>
      </trkpt>
      <trkpt lat="22.803722" lon="109.931394">
        <ele>99.524800</ele>
        <time>2026-08-16T01:39:00.000Z</time>
      </trkpt>
      <trkpt lat="22.803707" lon="109.931443">
        <ele>99.688597</ele>
        <time>2026-08-16T01:39:01.000Z</time>
      </trkpt>
      <trkpt lat="22.803690" lon="109.931491">
        <ele>99.851726</ele>
        <time>2026-08-16T01:39:02.000Z</time>
      </trkpt>
      <trkpt lat="22.803671" lon="109.931542">
        <ele>100.026234</ele>
        <time>2026-08-16T01:39:03.000Z</time>
      </trkpt>
      <trkpt lat="22.803650" lon="109.931592">
        <ele>100.200544</ele>
        <time>2026-08-16T01:39:04.000Z</time>
      </trkpt>
      <trkpt lat="22.803635" lon="109.931642">
        <ele>100.367355</ele>
        <time>2026-08-16T01:39:05.000Z</time>
      </trkpt>
      <trkpt lat="22.803622" lon="109.931690">
        <ele>100.526069</ele>
        <time>2026-08-16T01:39:06.000Z</time>
      </trkpt>
      <trkpt lat="22.803611" lon="109.931738">
        <ele>100.682981</ele>
        <time>2026-08-16T01:39:07.000Z</time>
      </trkpt>
      <trkpt lat="22.803598" lon="109.931781">
        <ele>100.826546</ele>
        <time>2026-08-16T01:39:08.000Z</time>
      </trkpt>
      <trkpt lat="22.803588" lon="109.931824">
        <ele>100.967235</ele>
        <time>2026-08-16T01:39:09.000Z</time>
      </trkpt>
      <trkpt lat="22.803583" lon="109.931862">
        <ele>101.089010</ele>
        <time>2026-08-16T01:39:10.000Z</time>
      </trkpt>
      <trkpt lat="22.803580" lon="109.931899">
        <ele>101.206844</ele>
        <time>2026-08-16T01:39:11.000Z</time>
      </trkpt>
      <trkpt lat="22.803574" lon="109.931936">
        <ele>101.326027</ele>
        <time>2026-08-16T01:39:12.000Z</time>
      </trkpt>
      <trkpt lat="22.803566" lon="109.931971">
        <ele>101.440425</ele>
        <time>2026-08-16T01:39:13.000Z</time>
      </trkpt>
      <trkpt lat="22.803547" lon="109.932005">
        <ele>101.566560</ele>
        <time>2026-08-16T01:39:14.000Z</time>
      </trkpt>
      <trkpt lat="22.803532" lon="109.932038">
        <ele>101.683286</ele>
        <time>2026-08-16T01:39:15.000Z</time>
      </trkpt>
      <trkpt lat="22.803518" lon="109.932071">
        <ele>101.798531</ele>
        <time>2026-08-16T01:39:16.000Z</time>
      </trkpt>
      <trkpt lat="22.803511" lon="109.932103">
        <ele>101.902869</ele>
        <time>2026-08-16T01:39:17.000Z</time>
      </trkpt>
      <trkpt lat="22.803507" lon="109.932133">
        <ele>101.999033</ele>
        <time>2026-08-16T01:39:18.000Z</time>
      </trkpt>
      <trkpt lat="22.803504" lon="109.932158">
        <ele>102.079013</ele>
        <time>2026-08-16T01:39:19.000Z</time>
      </trkpt>
      <trkpt lat="22.803498" lon="109.932180">
        <ele>102.151797</ele>
        <time>2026-08-16T01:39:20.000Z</time>
      </trkpt>
      <trkpt lat="22.803492" lon="109.932202">
        <ele>102.224582</ele>
        <time>2026-08-16T01:39:21.000Z</time>
      </trkpt>
      <trkpt lat="22.803485" lon="109.932220">
        <ele>102.286559</ele>
        <time>2026-08-16T01:39:22.000Z</time>
      </trkpt>
      <trkpt lat="22.803480" lon="109.932238">
        <ele>102.346200</ele>
        <time>2026-08-16T01:39:23.000Z</time>
      </trkpt>
      <trkpt lat="22.803477" lon="109.932262">
        <ele>102.423035</ele>
        <time>2026-08-16T01:39:24.000Z</time>
      </trkpt>
      <trkpt lat="22.803473" lon="109.932283">
        <ele>102.491064</ele>
        <time>2026-08-16T01:39:25.000Z</time>
      </trkpt>
      <trkpt lat="22.803467" lon="109.932302">
        <ele>102.554779</ele>
        <time>2026-08-16T01:39:26.000Z</time>
      </trkpt>
      <trkpt lat="22.803459" lon="109.932321">
        <ele>102.621046</ele>
        <time>2026-08-16T01:39:27.000Z</time>
      </trkpt>
      <trkpt lat="22.803448" lon="109.932341">
        <ele>102.694930</ele>
        <time>2026-08-16T01:39:28.000Z</time>
      </trkpt>
      <trkpt lat="22.803441" lon="109.932361">
        <ele>102.762798</ele>
        <time>2026-08-16T01:39:29.000Z</time>
      </trkpt>
      <trkpt lat="22.803435" lon="109.932381">
        <ele>102.829523</ele>
        <time>2026-08-16T01:39:30.000Z</time>
      </trkpt>
      <trkpt lat="22.803431" lon="109.932400">
        <ele>102.891351</ele>
        <time>2026-08-16T01:39:31.000Z</time>
      </trkpt>
      <trkpt lat="22.803427" lon="109.932422">
        <ele>102.962490</ele>
        <time>2026-08-16T01:39:32.000Z</time>
      </trkpt>
      <trkpt lat="22.803424" lon="109.932447">
        <ele>103.042470</ele>
        <time>2026-08-16T01:39:33.000Z</time>
      </trkpt>
      <trkpt lat="22.803419" lon="109.932474">
        <ele>103.103560</ele>
        <time>2026-08-16T01:39:34.000Z</time>
      </trkpt>
      <trkpt lat="22.803413" lon="109.932498">
        <ele>103.153579</ele>
        <time>2026-08-16T01:39:35.000Z</time>
      </trkpt>
      <trkpt lat="22.803410" lon="109.932518">
        <ele>103.194337</ele>
        <time>2026-08-16T01:39:36.000Z</time>
      </trkpt>
      <trkpt lat="22.803409" lon="109.932539">
        <ele>103.236634</ele>
        <time>2026-08-16T01:39:37.000Z</time>
      </trkpt>
      <trkpt lat="22.803400" lon="109.932565">
        <ele>103.292498</ele>
        <time>2026-08-16T01:39:38.000Z</time>
      </trkpt>
      <trkpt lat="22.803395" lon="109.932590">
        <ele>103.343954</ele>
        <time>2026-08-16T01:39:39.000Z</time>
      </trkpt>
      <trkpt lat="22.803392" lon="109.932614">
        <ele>103.392671</ele>
        <time>2026-08-16T01:39:40.000Z</time>
      </trkpt>
      <trkpt lat="22.803388" lon="109.932637">
        <ele>103.439750</ele>
        <time>2026-08-16T01:39:41.000Z</time>
      </trkpt>
      <trkpt lat="22.803381" lon="109.932663">
        <ele>103.494233</ele>
        <time>2026-08-16T01:39:42.000Z</time>
      </trkpt>
      <trkpt lat="22.803373" lon="109.932690">
        <ele>103.551279</ele>
        <time>2026-08-16T01:39:43.000Z</time>
      </trkpt>
      <trkpt lat="22.803363" lon="109.932716">
        <ele>103.607946</ele>
        <time>2026-08-16T01:39:44.000Z</time>
      </trkpt>
      <trkpt lat="22.803353" lon="109.932739">
        <ele>103.659097</ele>
        <time>2026-08-16T01:39:45.000Z</time>
      </trkpt>
      <trkpt lat="22.803348" lon="109.932760">
        <ele>103.702724</ele>
        <time>2026-08-16T01:39:46.000Z</time>
      </trkpt>
      <trkpt lat="22.803343" lon="109.932785">
        <ele>103.754181</ele>
        <time>2026-08-16T01:39:47.000Z</time>
      </trkpt>
      <trkpt lat="22.803339" lon="109.932807">
        <ele>103.799285</ele>
        <time>2026-08-16T01:39:48.000Z</time>
      </trkpt>
      <trkpt lat="22.803329" lon="109.932826">
        <ele>103.843293</ele>
        <time>2026-08-16T01:39:49.000Z</time>
      </trkpt>
      <trkpt lat="22.803319" lon="109.932843">
        <ele>103.883857</ele>
        <time>2026-08-16T01:39:50.000Z</time>
      </trkpt>
      <trkpt lat="22.803314" lon="109.932858">
        <ele>103.915940</ele>
        <time>2026-08-16T01:39:51.000Z</time>
      </trkpt>
      <trkpt lat="22.803309" lon="109.932875">
        <ele>103.951834</ele>
        <time>2026-08-16T01:39:52.000Z</time>
      </trkpt>
      <trkpt lat="22.803299" lon="109.932897">
        <ele>104.001173</ele>
        <time>2026-08-16T01:39:53.000Z</time>
      </trkpt>
      <trkpt lat="22.803290" lon="109.932931">
        <ele>104.072326</ele>
        <time>2026-08-16T01:39:54.000Z</time>
      </trkpt>
      <trkpt lat="22.803281" lon="109.932960">
        <ele>104.133875</ele>
        <time>2026-08-16T01:39:55.000Z</time>
      </trkpt>
      <trkpt lat="22.803272" lon="109.932985">
        <ele>104.187860</ele>
        <time>2026-08-16T01:39:56.000Z</time>
      </trkpt>
      <trkpt lat="22.803266" lon="109.933008">
        <ele>104.235941</ele>
        <time>2026-08-16T01:39:57.000Z</time>
      </trkpt>
      <trkpt lat="22.803264" lon="109.933034">
        <ele>104.288420</ele>
        <time>2026-08-16T01:39:58.000Z</time>
      </trkpt>
      <trkpt lat="22.803262" lon="109.933061">
        <ele>104.342905</ele>
        <time>2026-08-16T01:39:59.000Z</time>
      </trkpt>
      <trkpt lat="22.803255" lon="109.933086">
        <ele>104.395460</ele>
        <time>2026-08-16T01:40:00.000Z</time>
      </trkpt>
      <trkpt lat="22.803248" lon="109.933112">
        <ele>104.449943</ele>
        <time>2026-08-16T01:40:01.000Z</time>
      </trkpt>
      <trkpt lat="22.803241" lon="109.933138">
        <ele>104.504425</ele>
        <time>2026-08-16T01:40:02.000Z</time>
      </trkpt>
      <trkpt lat="22.803231" lon="109.933164">
        <ele>104.561093</ele>
        <time>2026-08-16T01:40:03.000Z</time>
      </trkpt>
      <trkpt lat="22.803221" lon="109.933191">
        <ele>104.619622</ele>
        <time>2026-08-16T01:40:04.000Z</time>
      </trkpt>
      <trkpt lat="22.803212" lon="109.933215">
        <ele>104.671738</ele>
        <time>2026-08-16T01:40:05.000Z</time>
      </trkpt>
      <trkpt lat="22.803199" lon="109.933239">
        <ele>104.727730</ele>
        <time>2026-08-16T01:40:06.000Z</time>
      </trkpt>
      <trkpt lat="22.803186" lon="109.933261">
        <ele>104.780293</ele>
        <time>2026-08-16T01:40:07.000Z</time>
      </trkpt>
      <trkpt lat="22.803173" lon="109.933282">
        <ele>104.831175</ele>
        <time>2026-08-16T01:40:08.000Z</time>
      </trkpt>
      <trkpt lat="22.803161" lon="109.933305">
        <ele>104.884334</ele>
        <time>2026-08-16T01:40:09.000Z</time>
      </trkpt>
      <trkpt lat="22.803152" lon="109.933330">
        <ele>104.938319</ele>
        <time>2026-08-16T01:40:10.000Z</time>
      </trkpt>
      <trkpt lat="22.803143" lon="109.933356">
        <ele>104.994183</ele>
        <time>2026-08-16T01:40:11.000Z</time>
      </trkpt>
      <trkpt lat="22.803132" lon="109.933380">
        <ele>105.048095</ele>
        <time>2026-08-16T01:40:12.000Z</time>
      </trkpt>
      <trkpt lat="22.803123" lon="109.933405">
        <ele>105.102080</ele>
        <time>2026-08-16T01:40:13.000Z</time>
      </trkpt>
      <trkpt lat="22.803110" lon="109.933427">
        <ele>105.154644</ele>
        <time>2026-08-16T01:40:14.000Z</time>
      </trkpt>
      <trkpt lat="22.803097" lon="109.933449">
        <ele>105.207207</ele>
        <time>2026-08-16T01:40:15.000Z</time>
      </trkpt>
      <trkpt lat="22.803083" lon="109.933469">
        <ele>105.257720</ele>
        <time>2026-08-16T01:40:16.000Z</time>
      </trkpt>
      <trkpt lat="22.803075" lon="109.933494">
        <ele>105.310950</ele>
        <time>2026-08-16T01:40:17.000Z</time>
      </trkpt>
      <trkpt lat="22.803066" lon="109.933519">
        <ele>105.364935</ele>
        <time>2026-08-16T01:40:18.000Z</time>
      </trkpt>
      <trkpt lat="22.803055" lon="109.933546">
        <ele>105.424312</ele>
        <time>2026-08-16T01:40:19.000Z</time>
      </trkpt>
      <trkpt lat="22.803046" lon="109.933575">
        <ele>105.485861</ele>
        <time>2026-08-16T01:40:20.000Z</time>
      </trkpt>
      <trkpt lat="22.803034" lon="109.933602">
        <ele>105.546153</ele>
        <time>2026-08-16T01:40:21.000Z</time>
      </trkpt>
      <trkpt lat="22.803024" lon="109.933629">
        <ele>105.604682</ele>
        <time>2026-08-16T01:40:22.000Z</time>
      </trkpt>
      <trkpt lat="22.803012" lon="109.933656">
        <ele>105.664974</ele>
        <time>2026-08-16T01:40:23.000Z</time>
      </trkpt>
      <trkpt lat="22.802995" lon="109.933685">
        <ele>105.734102</ele>
        <time>2026-08-16T01:40:24.000Z</time>
      </trkpt>
      <trkpt lat="22.802981" lon="109.933717">
        <ele>105.805350</ele>
        <time>2026-08-16T01:40:25.000Z</time>
      </trkpt>
      <trkpt lat="22.802966" lon="109.933751">
        <ele>105.881168</ele>
        <time>2026-08-16T01:40:26.000Z</time>
      </trkpt>
      <trkpt lat="22.802954" lon="109.933784">
        <ele>105.952524</ele>
        <time>2026-08-16T01:40:27.000Z</time>
      </trkpt>
      <trkpt lat="22.802940" lon="109.933819">
        <ele>106.029268</ele>
        <time>2026-08-16T01:40:28.000Z</time>
      </trkpt>
      <trkpt lat="22.802929" lon="109.933855">
        <ele>106.105555</ele>
        <time>2026-08-16T01:40:29.000Z</time>
      </trkpt>
      <trkpt lat="22.802911" lon="109.933890">
        <ele>106.186171</ele>
        <time>2026-08-16T01:40:30.000Z</time>
      </trkpt>
      <trkpt lat="22.802892" lon="109.933928">
        <ele>106.273126</ele>
        <time>2026-08-16T01:40:31.000Z</time>
      </trkpt>
      <trkpt lat="22.802871" lon="109.933968">
        <ele>106.365718</ele>
        <time>2026-08-16T01:40:32.000Z</time>
      </trkpt>
      <trkpt lat="22.802848" lon="109.934008">
        <ele>106.460545</ele>
        <time>2026-08-16T01:40:33.000Z</time>
      </trkpt>
      <trkpt lat="22.802826" lon="109.934053">
        <ele>106.563002</ele>
        <time>2026-08-16T01:40:34.000Z</time>
      </trkpt>
      <trkpt lat="22.802804" lon="109.934098">
        <ele>106.665460</ele>
        <time>2026-08-16T01:40:35.000Z</time>
      </trkpt>
      <trkpt lat="22.802788" lon="109.934145">
        <ele>106.766239</ele>
        <time>2026-08-16T01:40:36.000Z</time>
      </trkpt>
      <trkpt lat="22.802770" lon="109.934194">
        <ele>106.872338</ele>
        <time>2026-08-16T01:40:37.000Z</time>
      </trkpt>
      <trkpt lat="22.802750" lon="109.934245">
        <ele>106.981052</ele>
        <time>2026-08-16T01:40:38.000Z</time>
      </trkpt>
      <trkpt lat="22.802728" lon="109.934296">
        <ele>106.819736</ele>
        <time>2026-08-16T01:40:39.000Z</time>
      </trkpt>
      <trkpt lat="22.802708" lon="109.934350">
        <ele>106.653012</ele>
        <time>2026-08-16T01:40:40.000Z</time>
      </trkpt>
      <trkpt lat="22.802683" lon="109.934405">
        <ele>106.477328</ele>
        <time>2026-08-16T01:40:41.000Z</time>
      </trkpt>
      <trkpt lat="22.802655" lon="109.934457">
        <ele>106.304801</ele>
        <time>2026-08-16T01:40:42.000Z</time>
      </trkpt>
      <trkpt lat="22.802626" lon="109.934511">
        <ele>106.125758</ele>
        <time>2026-08-16T01:40:43.000Z</time>
      </trkpt>
      <trkpt lat="22.802597" lon="109.934569">
        <ele>105.936725</ele>
        <time>2026-08-16T01:40:44.000Z</time>
      </trkpt>
      <trkpt lat="22.802569" lon="109.934628">
        <ele>105.746611</ele>
        <time>2026-08-16T01:40:45.000Z</time>
      </trkpt>
      <trkpt lat="22.802539" lon="109.934690">
        <ele>105.546005</ele>
        <time>2026-08-16T01:40:46.000Z</time>
      </trkpt>
      <trkpt lat="22.802506" lon="109.934747">
        <ele>105.353171</ele>
        <time>2026-08-16T01:40:47.000Z</time>
      </trkpt>
      <trkpt lat="22.802471" lon="109.934806">
        <ele>105.152167</ele>
        <time>2026-08-16T01:40:48.000Z</time>
      </trkpt>
      <trkpt lat="22.802433" lon="109.934864">
        <ele>104.948310</ele>
        <time>2026-08-16T01:40:49.000Z</time>
      </trkpt>
      <trkpt lat="22.802392" lon="109.934919">
        <ele>104.745667</ele>
        <time>2026-08-16T01:40:50.000Z</time>
      </trkpt>
      <trkpt lat="22.802348" lon="109.934973">
        <ele>104.539191</ele>
        <time>2026-08-16T01:40:51.000Z</time>
      </trkpt>
      <trkpt lat="22.802306" lon="109.935028">
        <ele>104.334580</ele>
        <time>2026-08-16T01:40:52.000Z</time>
      </trkpt>
      <trkpt lat="22.802268" lon="109.935085">
        <ele>104.133052</ele>
        <time>2026-08-16T01:40:53.000Z</time>
      </trkpt>
      <trkpt lat="22.802230" lon="109.935145">
        <ele>103.924498</ele>
        <time>2026-08-16T01:40:54.000Z</time>
      </trkpt>
      <trkpt lat="22.802193" lon="109.935208">
        <ele>103.710491</ele>
        <time>2026-08-16T01:40:55.000Z</time>
      </trkpt>
      <trkpt lat="22.802156" lon="109.935271">
        <ele>103.496484</ele>
        <time>2026-08-16T01:40:56.000Z</time>
      </trkpt>
      <trkpt lat="22.802117" lon="109.935331">
        <ele>103.286155</ele>
        <time>2026-08-16T01:40:57.000Z</time>
      </trkpt>
      <trkpt lat="22.802077" lon="109.935388">
        <ele>103.080922</ele>
        <time>2026-08-16T01:40:58.000Z</time>
      </trkpt>
      <trkpt lat="22.802037" lon="109.935443">
        <ele>102.880219</ele>
        <time>2026-08-16T01:40:59.000Z</time>
      </trkpt>
      <trkpt lat="22.802001" lon="109.935503">
        <ele>102.675121</ele>
        <time>2026-08-16T01:41:00.000Z</time>
      </trkpt>
      <trkpt lat="22.801969" lon="109.935569">
        <ele>102.461478</ele>
        <time>2026-08-16T01:41:01.000Z</time>
      </trkpt>
      <trkpt lat="22.801939" lon="109.935637">
        <ele>102.245502</ele>
        <time>2026-08-16T01:41:02.000Z</time>
      </trkpt>
      <trkpt lat="22.801909" lon="109.935704">
        <ele>102.032108</ele>
        <time>2026-08-16T01:41:03.000Z</time>
      </trkpt>
      <trkpt lat="22.801879" lon="109.935770">
        <ele>101.821286</ele>
        <time>2026-08-16T01:41:04.000Z</time>
      </trkpt>
      <trkpt lat="22.801855" lon="109.935834">
        <ele>101.623341</ele>
        <time>2026-08-16T01:41:05.000Z</time>
      </trkpt>
      <trkpt lat="22.801834" lon="109.935897">
        <ele>101.431414</ele>
        <time>2026-08-16T01:41:06.000Z</time>
      </trkpt>
      <trkpt lat="22.801813" lon="109.935959">
        <ele>101.423432</ele>
        <time>2026-08-16T01:41:07.000Z</time>
      </trkpt>
      <trkpt lat="22.801788" lon="109.936018">
        <ele>101.461177</ele>
        <time>2026-08-16T01:41:08.000Z</time>
      </trkpt>
      <trkpt lat="22.801762" lon="109.936074">
        <ele>101.497623</ele>
        <time>2026-08-16T01:41:09.000Z</time>
      </trkpt>
      <trkpt lat="22.801737" lon="109.936128">
        <ele>101.532748</ele>
        <time>2026-08-16T01:41:10.000Z</time>
      </trkpt>
      <trkpt lat="22.801716" lon="109.936181">
        <ele>101.566280</ele>
        <time>2026-08-16T01:41:11.000Z</time>
      </trkpt>
      <trkpt lat="22.801694" lon="109.936234">
        <ele>101.600066</ele>
        <time>2026-08-16T01:41:12.000Z</time>
      </trkpt>
      <trkpt lat="22.801674" lon="109.936285">
        <ele>101.632282</ele>
        <time>2026-08-16T01:41:13.000Z</time>
      </trkpt>
      <trkpt lat="22.801652" lon="109.936337">
        <ele>101.665539</ele>
        <time>2026-08-16T01:41:14.000Z</time>
      </trkpt>
      <trkpt lat="22.801637" lon="109.936388">
        <ele>101.696656</ele>
        <time>2026-08-16T01:41:15.000Z</time>
      </trkpt>
      <trkpt lat="22.801621" lon="109.936437">
        <ele>101.726872</ele>
        <time>2026-08-16T01:41:16.000Z</time>
      </trkpt>
      <trkpt lat="22.801604" lon="109.936486">
        <ele>101.757305</ele>
        <time>2026-08-16T01:41:17.000Z</time>
      </trkpt>
      <trkpt lat="22.801587" lon="109.936535">
        <ele>101.787738</ele>
        <time>2026-08-16T01:41:18.000Z</time>
      </trkpt>
      <trkpt lat="22.801569" lon="109.936582">
        <ele>101.817321</ele>
        <time>2026-08-16T01:41:19.000Z</time>
      </trkpt>
      <trkpt lat="22.801554" lon="109.936632">
        <ele>101.847885</ele>
        <time>2026-08-16T01:41:20.000Z</time>
      </trkpt>
      <trkpt lat="22.801540" lon="109.936680">
        <ele>101.877149</ele>
        <time>2026-08-16T01:41:21.000Z</time>
      </trkpt>
      <trkpt lat="22.801528" lon="109.936727">
        <ele>101.905497</ele>
        <time>2026-08-16T01:41:22.000Z</time>
      </trkpt>
      <trkpt lat="22.801512" lon="109.936770">
        <ele>101.932451</ele>
        <time>2026-08-16T01:41:23.000Z</time>
      </trkpt>
      <trkpt lat="22.801497" lon="109.936817">
        <ele>101.961362</ele>
        <time>2026-08-16T01:41:24.000Z</time>
      </trkpt>
      <trkpt lat="22.801479" lon="109.936864">
        <ele>101.990945</ele>
        <time>2026-08-16T01:41:25.000Z</time>
      </trkpt>
      <trkpt lat="22.801461" lon="109.936912">
        <ele>102.021066</ele>
        <time>2026-08-16T01:41:26.000Z</time>
      </trkpt>
      <trkpt lat="22.801442" lon="109.936961">
        <ele>102.051966</ele>
        <time>2026-08-16T01:41:27.000Z</time>
      </trkpt>
      <trkpt lat="22.801421" lon="109.937006">
        <ele>102.081283</ele>
        <time>2026-08-16T01:41:28.000Z</time>
      </trkpt>
      <trkpt lat="22.801402" lon="109.937052">
        <ele>102.110583</ele>
        <time>2026-08-16T01:41:29.000Z</time>
      </trkpt>
      <trkpt lat="22.801382" lon="109.937096">
        <ele>102.139099</ele>
        <time>2026-08-16T01:41:30.000Z</time>
      </trkpt>
      <trkpt lat="22.801359" lon="109.937142">
        <ele>102.169517</ele>
        <time>2026-08-16T01:41:31.000Z</time>
      </trkpt>
      <trkpt lat="22.801333" lon="109.937188">
        <ele>102.200881</ele>
        <time>2026-08-16T01:41:32.000Z</time>
      </trkpt>
      <trkpt lat="22.801309" lon="109.937233">
        <ele>102.231101</ele>
        <time>2026-08-16T01:41:33.000Z</time>
      </trkpt>
      <trkpt lat="22.801285" lon="109.937281">
        <ele>102.262842</ele>
        <time>2026-08-16T01:41:34.000Z</time>
      </trkpt>
      <trkpt lat="22.801263" lon="109.937328">
        <ele>102.293481</ele>
        <time>2026-08-16T01:41:35.000Z</time>
      </trkpt>
      <trkpt lat="22.801240" lon="109.937373">
        <ele>102.323390</ele>
        <time>2026-08-16T01:41:36.000Z</time>
      </trkpt>
      <trkpt lat="22.801217" lon="109.937421">
        <ele>102.354835</ele>
        <time>2026-08-16T01:41:37.000Z</time>
      </trkpt>
      <trkpt lat="22.801193" lon="109.937468">
        <ele>102.386066</ele>
        <time>2026-08-16T01:41:38.000Z</time>
      </trkpt>
      <trkpt lat="22.801169" lon="109.937516">
        <ele>102.417807</ele>
        <time>2026-08-16T01:41:39.000Z</time>
      </trkpt>
      <trkpt lat="22.801145" lon="109.937563">
        <ele>102.449038</ele>
        <time>2026-08-16T01:41:40.000Z</time>
      </trkpt>
      <trkpt lat="22.801122" lon="109.937609">
        <ele>102.479456</ele>
        <time>2026-08-16T01:41:41.000Z</time>
      </trkpt>
      <trkpt lat="22.801098" lon="109.937656">
        <ele>102.510687</ele>
        <time>2026-08-16T01:41:42.000Z</time>
      </trkpt>
      <trkpt lat="22.801075" lon="109.937702">
        <ele>102.550616</ele>
        <time>2026-08-16T01:41:43.000Z</time>
      </trkpt>
      <trkpt lat="22.801051" lon="109.937749">
        <ele>102.602884</ele>
        <time>2026-08-16T01:41:44.000Z</time>
      </trkpt>
      <trkpt lat="22.801027" lon="109.937797">
        <ele>102.656006</ele>
        <time>2026-08-16T01:41:45.000Z</time>
      </trkpt>
      <trkpt lat="22.801004" lon="109.937845">
        <ele>102.708632</ele>
        <time>2026-08-16T01:41:46.000Z</time>
      </trkpt>
      <trkpt lat="22.800982" lon="109.937889">
        <ele>102.757326</ele>
        <time>2026-08-16T01:41:47.000Z</time>
      </trkpt>
      <trkpt lat="22.800964" lon="109.937921">
        <ele>102.793794</ele>
        <time>2026-08-16T01:41:48.000Z</time>
      </trkpt>
      <trkpt lat="22.800953" lon="109.937939">
        <ele>102.814803</ele>
        <time>2026-08-16T01:41:49.000Z</time>
      </trkpt>
      <trkpt lat="22.800947" lon="109.937948">
        <ele>102.825608</ele>
        <time>2026-08-16T01:41:50.000Z</time>
      </trkpt>
      <trkpt lat="22.800945" lon="109.937949">
        <ele>102.827932</ele>
        <time>2026-08-16T01:41:51.000Z</time>
      </trkpt>
      <trkpt lat="22.800945" lon="109.937949">
        <ele>102.827932</ele>
        <time>2026-08-16T01:41:52.000Z</time>
      </trkpt>
      <trkpt lat="22.800906" lon="109.938013">
        <ele>102.902565</ele>
        <time>2026-08-16T01:42:32.000Z</time>
      </trkpt>
      <trkpt lat="22.800897" lon="109.938037">
        <ele>102.927770</ele>
        <time>2026-08-16T01:42:33.000Z</time>
      </trkpt>
      <trkpt lat="22.800885" lon="109.938065">
        <ele>102.957809</ele>
        <time>2026-08-16T01:42:34.000Z</time>
      </trkpt>
      <trkpt lat="22.800873" lon="109.938094">
        <ele>102.988732</ele>
        <time>2026-08-16T01:42:35.000Z</time>
      </trkpt>
      <trkpt lat="22.800859" lon="109.938125">
        <ele>103.022314</ele>
        <time>2026-08-16T01:42:36.000Z</time>
      </trkpt>
      <trkpt lat="22.800844" lon="109.938156">
        <ele>103.056373</ele>
        <time>2026-08-16T01:42:37.000Z</time>
      </trkpt>
      <trkpt lat="22.800829" lon="109.938186">
        <ele>103.089573</ele>
        <time>2026-08-16T01:42:38.000Z</time>
      </trkpt>
      <trkpt lat="22.800812" lon="109.938216">
        <ele>103.123831</ele>
        <time>2026-08-16T01:42:39.000Z</time>
      </trkpt>
      <trkpt lat="22.800791" lon="109.938245">
        <ele>103.159706</ele>
        <time>2026-08-16T01:42:40.000Z</time>
      </trkpt>
      <trkpt lat="22.800770" lon="109.938276">
        <ele>103.197130</ele>
        <time>2026-08-16T01:42:41.000Z</time>
      </trkpt>
      <trkpt lat="22.800754" lon="109.938310">
        <ele>103.234266</ele>
        <time>2026-08-16T01:42:42.000Z</time>
      </trkpt>
      <trkpt lat="22.800738" lon="109.938344">
        <ele>103.271402</ele>
        <time>2026-08-16T01:42:43.000Z</time>
      </trkpt>
      <trkpt lat="22.800725" lon="109.938376">
        <ele>103.305421</ele>
        <time>2026-08-16T01:42:44.000Z</time>
      </trkpt>
      <trkpt lat="22.800709" lon="109.938409">
        <ele>103.341693</ele>
        <time>2026-08-16T01:42:45.000Z</time>
      </trkpt>
      <trkpt lat="22.800694" lon="109.938444">
        <ele>103.379241</ele>
        <time>2026-08-16T01:42:46.000Z</time>
      </trkpt>
      <trkpt lat="22.800676" lon="109.938478">
        <ele>103.417383</ele>
        <time>2026-08-16T01:42:47.000Z</time>
      </trkpt>
      <trkpt lat="22.800656" lon="109.938513">
        <ele>103.457442</ele>
        <time>2026-08-16T01:42:48.000Z</time>
      </trkpt>
      <trkpt lat="22.800639" lon="109.938548">
        <ele>103.495928</ele>
        <time>2026-08-16T01:42:49.000Z</time>
      </trkpt>
      <trkpt lat="22.800621" lon="109.938585">
        <ele>103.536627</ele>
        <time>2026-08-16T01:42:50.000Z</time>
      </trkpt>
      <trkpt lat="22.800602" lon="109.938624">
        <ele>103.579539</ele>
        <time>2026-08-16T01:42:51.000Z</time>
      </trkpt>
      <trkpt lat="22.800583" lon="109.938663">
        <ele>103.622451</ele>
        <time>2026-08-16T01:42:52.000Z</time>
      </trkpt>
      <trkpt lat="22.800562" lon="109.938700">
        <ele>103.664720</ele>
        <time>2026-08-16T01:42:53.000Z</time>
      </trkpt>
      <trkpt lat="22.800540" lon="109.938737">
        <ele>103.707552</ele>
        <time>2026-08-16T01:42:54.000Z</time>
      </trkpt>
      <trkpt lat="22.800519" lon="109.938775">
        <ele>103.750652</ele>
        <time>2026-08-16T01:42:55.000Z</time>
      </trkpt>
      <trkpt lat="22.800498" lon="109.938814">
        <ele>103.794590</ele>
        <time>2026-08-16T01:42:56.000Z</time>
      </trkpt>
      <trkpt lat="22.800477" lon="109.938855">
        <ele>103.840219</ele>
        <time>2026-08-16T01:42:57.000Z</time>
      </trkpt>
      <trkpt lat="22.800455" lon="109.938895">
        <ele>103.885531</ele>
        <time>2026-08-16T01:42:58.000Z</time>
      </trkpt>
      <trkpt lat="22.800436" lon="109.938936">
        <ele>103.930172</ele>
        <time>2026-08-16T01:42:59.000Z</time>
      </trkpt>
      <trkpt lat="22.800416" lon="109.938975">
        <ele>103.973587</ele>
        <time>2026-08-16T01:43:00.000Z</time>
      </trkpt>
      <trkpt lat="22.800395" lon="109.939016">
        <ele>104.019216</ele>
        <time>2026-08-16T01:43:01.000Z</time>
      </trkpt>
      <trkpt lat="22.800374" lon="109.939056">
        <ele>104.063996</ele>
        <time>2026-08-16T01:43:02.000Z</time>
      </trkpt>
      <trkpt lat="22.800353" lon="109.939094">
        <ele>104.107097</ele>
        <time>2026-08-16T01:43:03.000Z</time>
      </trkpt>
      <trkpt lat="22.800333" lon="109.939132">
        <ele>104.149665</ele>
        <time>2026-08-16T01:43:04.000Z</time>
      </trkpt>
      <trkpt lat="22.800313" lon="109.939171">
        <ele>104.193080</ele>
        <time>2026-08-16T01:43:05.000Z</time>
      </trkpt>
      <trkpt lat="22.800294" lon="109.939213">
        <ele>104.238593</ele>
        <time>2026-08-16T01:43:06.000Z</time>
      </trkpt>
      <trkpt lat="22.800273" lon="109.939252">
        <ele>104.282531</ele>
        <time>2026-08-16T01:43:07.000Z</time>
      </trkpt>
      <trkpt lat="22.800254" lon="109.939290">
        <ele>104.324585</ele>
        <time>2026-08-16T01:43:08.000Z</time>
      </trkpt>
      <trkpt lat="22.800237" lon="109.939327">
        <ele>104.364802</ele>
        <time>2026-08-16T01:43:09.000Z</time>
      </trkpt>
      <trkpt lat="22.800219" lon="109.939364">
        <ele>104.405501</ele>
        <time>2026-08-16T01:43:10.000Z</time>
      </trkpt>
      <trkpt lat="22.800200" lon="109.939400">
        <ele>104.481106</ele>
        <time>2026-08-16T01:43:11.000Z</time>
      </trkpt>
      <trkpt lat="22.800180" lon="109.939434">
        <ele>104.586821</ele>
        <time>2026-08-16T01:43:12.000Z</time>
      </trkpt>
      <trkpt lat="22.800162" lon="109.939467">
        <ele>104.687325</ele>
        <time>2026-08-16T01:43:13.000Z</time>
      </trkpt>
      <trkpt lat="22.800145" lon="109.939498">
        <ele>104.781869</ele>
        <time>2026-08-16T01:43:14.000Z</time>
      </trkpt>
      <trkpt lat="22.800130" lon="109.939530">
        <ele>104.875965</ele>
        <time>2026-08-16T01:43:15.000Z</time>
      </trkpt>
      <trkpt lat="22.800116" lon="109.939563">
        <ele>104.971182</ele>
        <time>2026-08-16T01:43:16.000Z</time>
      </trkpt>
      <trkpt lat="22.800102" lon="109.939598">
        <ele>105.071185</ele>
        <time>2026-08-16T01:43:17.000Z</time>
      </trkpt>
      <trkpt lat="22.800088" lon="109.939631">
        <ele>105.166401</ele>
        <time>2026-08-16T01:43:18.000Z</time>
      </trkpt>
      <trkpt lat="22.800072" lon="109.939664">
        <ele>105.264132</ele>
        <time>2026-08-16T01:43:19.000Z</time>
      </trkpt>
      <trkpt lat="22.800057" lon="109.939695">
        <ele>105.355899</ele>
        <time>2026-08-16T01:43:20.000Z</time>
      </trkpt>
      <trkpt lat="22.800040" lon="109.939727">
        <ele>105.452706</ele>
        <time>2026-08-16T01:43:21.000Z</time>
      </trkpt>
      <trkpt lat="22.800024" lon="109.939758">
        <ele>105.545829</ele>
        <time>2026-08-16T01:43:22.000Z</time>
      </trkpt>
      <trkpt lat="22.800010" lon="109.939791">
        <ele>105.641045</ele>
        <time>2026-08-16T01:43:23.000Z</time>
      </trkpt>
      <trkpt lat="22.800000" lon="109.939826">
        <ele>105.737090</ele>
        <time>2026-08-16T01:43:24.000Z</time>
      </trkpt>
      <trkpt lat="22.799992" lon="109.939863">
        <ele>105.836703</ele>
        <time>2026-08-16T01:43:25.000Z</time>
      </trkpt>
      <trkpt lat="22.799985" lon="109.939900">
        <ele>105.935705</ele>
        <time>2026-08-16T01:43:26.000Z</time>
      </trkpt>
      <trkpt lat="22.799976" lon="109.939934">
        <ele>106.028425</ele>
        <time>2026-08-16T01:43:27.000Z</time>
      </trkpt>
      <trkpt lat="22.799967" lon="109.939969">
        <ele>106.123666</ele>
        <time>2026-08-16T01:43:28.000Z</time>
      </trkpt>
      <trkpt lat="22.799957" lon="109.940003">
        <ele>106.217210</ele>
        <time>2026-08-16T01:43:29.000Z</time>
      </trkpt>
      <trkpt lat="22.799947" lon="109.940036">
        <ele>106.308260</ele>
        <time>2026-08-16T01:43:30.000Z</time>
      </trkpt>
      <trkpt lat="22.799937" lon="109.940071">
        <ele>106.404304</ele>
        <time>2026-08-16T01:43:31.000Z</time>
      </trkpt>
      <trkpt lat="22.799928" lon="109.940105">
        <ele>106.497023</ele>
        <time>2026-08-16T01:43:32.000Z</time>
      </trkpt>
      <trkpt lat="22.799919" lon="109.940137">
        <ele>106.584716</ele>
        <time>2026-08-16T01:43:33.000Z</time>
      </trkpt>
      <trkpt lat="22.799911" lon="109.940165">
        <ele>106.661551</ele>
        <time>2026-08-16T01:43:34.000Z</time>
      </trkpt>
      <trkpt lat="22.799905" lon="109.940194">
        <ele>106.739454</ele>
        <time>2026-08-16T01:43:35.000Z</time>
      </trkpt>
      <trkpt lat="22.799897" lon="109.940223">
        <ele>106.818797</ele>
        <time>2026-08-16T01:43:36.000Z</time>
      </trkpt>
      <trkpt lat="22.799888" lon="109.940251">
        <ele>106.896522</ele>
        <time>2026-08-16T01:43:37.000Z</time>
      </trkpt>
      <trkpt lat="22.799882" lon="109.940281">
        <ele>106.976985</ele>
        <time>2026-08-16T01:43:38.000Z</time>
      </trkpt>
      <trkpt lat="22.799875" lon="109.940311">
        <ele>107.058098</ele>
        <time>2026-08-16T01:43:39.000Z</time>
      </trkpt>
      <trkpt lat="22.799866" lon="109.940341">
        <ele>107.140791</ele>
        <time>2026-08-16T01:43:40.000Z</time>
      </trkpt>
      <trkpt lat="22.799858" lon="109.940372">
        <ele>107.225169</ele>
        <time>2026-08-16T01:43:41.000Z</time>
      </trkpt>
      <trkpt lat="22.799849" lon="109.940406">
        <ele>107.317888</ele>
        <time>2026-08-16T01:43:42.000Z</time>
      </trkpt>
      <trkpt lat="22.799839" lon="109.940440">
        <ele>107.411432</ele>
        <time>2026-08-16T01:43:43.000Z</time>
      </trkpt>
      <trkpt lat="22.799832" lon="109.940473">
        <ele>107.500189</ele>
        <time>2026-08-16T01:43:44.000Z</time>
      </trkpt>
      <trkpt lat="22.799825" lon="109.940508">
        <ele>107.594063</ele>
        <time>2026-08-16T01:43:45.000Z</time>
      </trkpt>
      <trkpt lat="22.799817" lon="109.940542">
        <ele>107.686038</ele>
        <time>2026-08-16T01:43:46.000Z</time>
      </trkpt>
      <trkpt lat="22.799810" lon="109.940576">
        <ele>107.777351</ele>
        <time>2026-08-16T01:43:47.000Z</time>
      </trkpt>
      <trkpt lat="22.799803" lon="109.940611">
        <ele>107.871225</ele>
        <time>2026-08-16T01:43:48.000Z</time>
      </trkpt>
      <trkpt lat="22.799792" lon="109.940646">
        <ele>107.968149</ele>
        <time>2026-08-16T01:43:49.000Z</time>
      </trkpt>
      <trkpt lat="22.799779" lon="109.940681">
        <ele>108.067055</ele>
        <time>2026-08-16T01:43:50.000Z</time>
      </trkpt>
      <trkpt lat="22.799765" lon="109.940715">
        <ele>108.164659</ele>
        <time>2026-08-16T01:43:51.000Z</time>
      </trkpt>
      <trkpt lat="22.799753" lon="109.940749">
        <ele>108.260085</ele>
        <time>2026-08-16T01:43:52.000Z</time>
      </trkpt>
      <trkpt lat="22.799743" lon="109.940785">
        <ele>108.358636</ele>
        <time>2026-08-16T01:43:53.000Z</time>
      </trkpt>
      <trkpt lat="22.799735" lon="109.940820">
        <ele>108.453153</ele>
        <time>2026-08-16T01:43:54.000Z</time>
      </trkpt>
      <trkpt lat="22.799729" lon="109.940856">
        <ele>108.549043</ele>
        <time>2026-08-16T01:43:55.000Z</time>
      </trkpt>
      <trkpt lat="22.799721" lon="109.940891">
        <ele>108.643560</ele>
        <time>2026-08-16T01:43:56.000Z</time>
      </trkpt>
      <trkpt lat="22.799711" lon="109.940927">
        <ele>108.742111</ele>
        <time>2026-08-16T01:43:57.000Z</time>
      </trkpt>
      <trkpt lat="22.799702" lon="109.940965">
        <ele>108.844949</ele>
        <time>2026-08-16T01:43:58.000Z</time>
      </trkpt>
      <trkpt lat="22.799694" lon="109.941003">
        <ele>108.947116</ele>
        <time>2026-08-16T01:43:59.000Z</time>
      </trkpt>
      <trkpt lat="22.799685" lon="109.941041">
        <ele>109.049953</ele>
        <time>2026-08-16T01:44:00.000Z</time>
      </trkpt>
      <trkpt lat="22.799675" lon="109.941080">
        <ele>109.156057</ele>
        <time>2026-08-16T01:44:01.000Z</time>
      </trkpt>
      <trkpt lat="22.799664" lon="109.941120">
        <ele>109.265468</ele>
        <time>2026-08-16T01:44:02.000Z</time>
      </trkpt>
      <trkpt lat="22.799654" lon="109.941157">
        <ele>109.366531</ele>
        <time>2026-08-16T01:44:03.000Z</time>
      </trkpt>
      <trkpt lat="22.799646" lon="109.941195">
        <ele>109.468698</ele>
        <time>2026-08-16T01:44:04.000Z</time>
      </trkpt>
      <trkpt lat="22.799637" lon="109.941233">
        <ele>109.573696</ele>
        <time>2026-08-16T01:44:05.000Z</time>
      </trkpt>
      <trkpt lat="22.799629" lon="109.941272">
        <ele>109.685397</ele>
        <time>2026-08-16T01:44:06.000Z</time>
      </trkpt>
      <trkpt lat="22.799621" lon="109.941311">
        <ele>109.797097</ele>
        <time>2026-08-16T01:44:07.000Z</time>
      </trkpt>
      <trkpt lat="22.799613" lon="109.941348">
        <ele>109.903346</ele>
        <time>2026-08-16T01:44:08.000Z</time>
      </trkpt>
      <trkpt lat="22.799605" lon="109.941386">
        <ele>110.012319</ele>
        <time>2026-08-16T01:44:09.000Z</time>
      </trkpt>
      <trkpt lat="22.799597" lon="109.941425">
        <ele>110.124019</ele>
        <time>2026-08-16T01:44:10.000Z</time>
      </trkpt>
      <trkpt lat="22.799590" lon="109.941464">
        <ele>110.235100</ele>
        <time>2026-08-16T01:44:11.000Z</time>
      </trkpt>
      <trkpt lat="22.799583" lon="109.941502">
        <ele>110.343438</ele>
        <time>2026-08-16T01:44:12.000Z</time>
      </trkpt>
      <trkpt lat="22.799574" lon="109.941539">
        <ele>110.450421</ele>
        <time>2026-08-16T01:44:13.000Z</time>
      </trkpt>
      <trkpt lat="22.799564" lon="109.941578">
        <ele>110.563593</ele>
        <time>2026-08-16T01:44:14.000Z</time>
      </trkpt>
      <trkpt lat="22.799556" lon="109.941616">
        <ele>110.672566</ele>
        <time>2026-08-16T01:44:15.000Z</time>
      </trkpt>
      <trkpt lat="22.799549" lon="109.941653">
        <ele>110.778164</ele>
        <time>2026-08-16T01:44:16.000Z</time>
      </trkpt>
      <trkpt lat="22.799541" lon="109.941691">
        <ele>110.887137</ele>
        <time>2026-08-16T01:44:17.000Z</time>
      </trkpt>
      <trkpt lat="22.799532" lon="109.941728">
        <ele>110.994120</ele>
        <time>2026-08-16T01:44:18.000Z</time>
      </trkpt>
      <trkpt lat="22.799523" lon="109.941764">
        <ele>111.098401</ele>
        <time>2026-08-16T01:44:19.000Z</time>
      </trkpt>
      <trkpt lat="22.799514" lon="109.941799">
        <ele>111.199988</ele>
        <time>2026-08-16T01:44:20.000Z</time>
      </trkpt>
      <trkpt lat="22.799506" lon="109.941836">
        <ele>111.306237</ele>
        <time>2026-08-16T01:44:21.000Z</time>
      </trkpt>
      <trkpt lat="22.799496" lon="109.941872">
        <ele>111.411353</ele>
        <time>2026-08-16T01:44:22.000Z</time>
      </trkpt>
      <trkpt lat="22.799486" lon="109.941908">
        <ele>111.516469</ele>
        <time>2026-08-16T01:44:23.000Z</time>
      </trkpt>
      <trkpt lat="22.799476" lon="109.941944">
        <ele>111.621586</ele>
        <time>2026-08-16T01:44:24.000Z</time>
      </trkpt>
      <trkpt lat="22.799467" lon="109.941981">
        <ele>111.728568</ele>
        <time>2026-08-16T01:44:25.000Z</time>
      </trkpt>
      <trkpt lat="22.799458" lon="109.942018">
        <ele>111.835551</ele>
        <time>2026-08-16T01:44:26.000Z</time>
      </trkpt>
      <trkpt lat="22.799449" lon="109.942052">
        <ele>111.934447</ele>
        <time>2026-08-16T01:44:27.000Z</time>
      </trkpt>
      <trkpt lat="22.799438" lon="109.942085">
        <ele>112.032552</ele>
        <time>2026-08-16T01:44:28.000Z</time>
      </trkpt>
      <trkpt lat="22.799428" lon="109.942117">
        <ele>112.127016</ele>
        <time>2026-08-16T01:44:29.000Z</time>
      </trkpt>
      <trkpt lat="22.799418" lon="109.942149">
        <ele>112.221480</ele>
        <time>2026-08-16T01:44:30.000Z</time>
      </trkpt>
      <trkpt lat="22.799409" lon="109.942182">
        <ele>112.317692</ele>
        <time>2026-08-16T01:44:31.000Z</time>
      </trkpt>
      <trkpt lat="22.799400" lon="109.942215">
        <ele>112.413904</ele>
        <time>2026-08-16T01:44:32.000Z</time>
      </trkpt>
      <trkpt lat="22.799390" lon="109.942249">
        <ele>112.513680</ele>
        <time>2026-08-16T01:44:33.000Z</time>
      </trkpt>
      <trkpt lat="22.799380" lon="109.942281">
        <ele>112.608144</ele>
        <time>2026-08-16T01:44:34.000Z</time>
      </trkpt>
      <trkpt lat="22.799370" lon="109.942315">
        <ele>112.707919</ele>
        <time>2026-08-16T01:44:35.000Z</time>
      </trkpt>
      <trkpt lat="22.799361" lon="109.942350">
        <ele>112.809506</ele>
        <time>2026-08-16T01:44:36.000Z</time>
      </trkpt>
      <trkpt lat="22.799351" lon="109.942384">
        <ele>112.909281</ele>
        <time>2026-08-16T01:44:37.000Z</time>
      </trkpt>
      <trkpt lat="22.799342" lon="109.942419">
        <ele>113.010867</ele>
        <time>2026-08-16T01:44:38.000Z</time>
      </trkpt>
      <trkpt lat="22.799334" lon="109.942454">
        <ele>113.111681</ele>
        <time>2026-08-16T01:44:39.000Z</time>
      </trkpt>
      <trkpt lat="22.799326" lon="109.942490">
        <ele>113.215211</ele>
        <time>2026-08-16T01:44:40.000Z</time>
      </trkpt>
      <trkpt lat="22.799318" lon="109.942526">
        <ele>113.318740</ele>
        <time>2026-08-16T01:44:41.000Z</time>
      </trkpt>
      <trkpt lat="22.799310" lon="109.942563">
        <ele>113.424989</ele>
        <time>2026-08-16T01:44:42.000Z</time>
      </trkpt>
      <trkpt lat="22.799302" lon="109.942600">
        <ele>113.531239</ele>
        <time>2026-08-16T01:44:43.000Z</time>
      </trkpt>
      <trkpt lat="22.799293" lon="109.942637">
        <ele>113.638222</ele>
        <time>2026-08-16T01:44:44.000Z</time>
      </trkpt>
      <trkpt lat="22.799284" lon="109.942673">
        <ele>113.742503</ele>
        <time>2026-08-16T01:44:45.000Z</time>
      </trkpt>
      <trkpt lat="22.799275" lon="109.942710">
        <ele>113.849486</ele>
        <time>2026-08-16T01:44:46.000Z</time>
      </trkpt>
      <trkpt lat="22.799267" lon="109.942746">
        <ele>113.953016</ele>
        <time>2026-08-16T01:44:47.000Z</time>
      </trkpt>
      <trkpt lat="22.799259" lon="109.942783">
        <ele>114.059265</ele>
        <time>2026-08-16T01:44:48.000Z</time>
      </trkpt>
      <trkpt lat="22.799251" lon="109.942820">
        <ele>114.165515</ele>
        <time>2026-08-16T01:44:49.000Z</time>
      </trkpt>
      <trkpt lat="22.799243" lon="109.942857">
        <ele>114.271764</ele>
        <time>2026-08-16T01:44:50.000Z</time>
      </trkpt>
      <trkpt lat="22.799234" lon="109.942893">
        <ele>114.376046</ele>
        <time>2026-08-16T01:44:51.000Z</time>
      </trkpt>
      <trkpt lat="22.799226" lon="109.942929">
        <ele>114.479575</ele>
        <time>2026-08-16T01:44:52.000Z</time>
      </trkpt>
      <trkpt lat="22.799219" lon="109.942966">
        <ele>114.585174</ele>
        <time>2026-08-16T01:44:53.000Z</time>
      </trkpt>
      <trkpt lat="22.799212" lon="109.943004">
        <ele>114.693512</ele>
        <time>2026-08-16T01:44:54.000Z</time>
      </trkpt>
      <trkpt lat="22.799202" lon="109.943039">
        <ele>114.795955</ele>
        <time>2026-08-16T01:44:55.000Z</time>
      </trkpt>
      <trkpt lat="22.799191" lon="109.943072">
        <ele>114.894060</ele>
        <time>2026-08-16T01:44:56.000Z</time>
      </trkpt>
      <trkpt lat="22.799181" lon="109.943105">
        <ele>114.991176</ele>
        <time>2026-08-16T01:44:57.000Z</time>
      </trkpt>
      <trkpt lat="22.799173" lon="109.943138">
        <ele>115.075977</ele>
        <time>2026-08-16T01:44:58.000Z</time>
      </trkpt>
      <trkpt lat="22.799164" lon="109.943170">
        <ele>115.158827</ele>
        <time>2026-08-16T01:44:59.000Z</time>
      </trkpt>
      <trkpt lat="22.799157" lon="109.943194">
        <ele>115.221163</ele>
        <time>2026-08-16T01:45:00.000Z</time>
      </trkpt>
      <trkpt lat="22.799154" lon="109.943207">
        <ele>115.254349</ele>
        <time>2026-08-16T01:45:01.000Z</time>
      </trkpt>
      <trkpt lat="22.799152" lon="109.943211">
        <ele>115.265618</ele>
        <time>2026-08-16T01:45:02.000Z</time>
      </trkpt>
      <trkpt lat="22.799144" lon="109.943254">
        <ele>115.374248</ele>
        <time>2026-08-16T01:45:22.000Z</time>
      </trkpt>
      <trkpt lat="22.799135" lon="109.943273">
        <ele>115.427147</ele>
        <time>2026-08-16T01:45:23.000Z</time>
      </trkpt>
      <trkpt lat="22.799129" lon="109.943300">
        <ele>115.495924</ele>
        <time>2026-08-16T01:45:24.000Z</time>
      </trkpt>
      <trkpt lat="22.799127" lon="109.943330">
        <ele>115.570408</ele>
        <time>2026-08-16T01:45:25.000Z</time>
      </trkpt>
      <trkpt lat="22.799123" lon="109.943360">
        <ele>115.645472</ele>
        <time>2026-08-16T01:45:26.000Z</time>
      </trkpt>
      <trkpt lat="22.799117" lon="109.943392">
        <ele>115.726338</ele>
        <time>2026-08-16T01:45:27.000Z</time>
      </trkpt>
      <trkpt lat="22.799110" lon="109.943422">
        <ele>115.802972</ele>
        <time>2026-08-16T01:45:28.000Z</time>
      </trkpt>
      <trkpt lat="22.799104" lon="109.943453">
        <ele>115.881413</ele>
        <time>2026-08-16T01:45:29.000Z</time>
      </trkpt>
      <trkpt lat="22.799099" lon="109.943485">
        <ele>115.961786</ele>
        <time>2026-08-16T01:45:30.000Z</time>
      </trkpt>
      <trkpt lat="22.799096" lon="109.943519">
        <ele>116.046368</ele>
        <time>2026-08-16T01:45:31.000Z</time>
      </trkpt>
      <trkpt lat="22.799092" lon="109.943554">
        <ele>116.133704</ele>
        <time>2026-08-16T01:45:32.000Z</time>
      </trkpt>
      <trkpt lat="22.799086" lon="109.943587">
        <ele>116.216998</ele>
        <time>2026-08-16T01:45:33.000Z</time>
      </trkpt>
      <trkpt lat="22.799079" lon="109.943620">
        <ele>116.300853</ele>
        <time>2026-08-16T01:45:34.000Z</time>
      </trkpt>
      <trkpt lat="22.799073" lon="109.943652">
        <ele>116.381719</ele>
        <time>2026-08-16T01:45:35.000Z</time>
      </trkpt>
      <trkpt lat="22.799066" lon="109.943683">
        <ele>116.460756</ele>
        <time>2026-08-16T01:45:36.000Z</time>
      </trkpt>
      <trkpt lat="22.799060" lon="109.943716">
        <ele>116.544050</ele>
        <time>2026-08-16T01:45:37.000Z</time>
      </trkpt>
      <trkpt lat="22.799055" lon="109.943749">
        <ele>116.626866</ele>
        <time>2026-08-16T01:45:38.000Z</time>
      </trkpt>
      <trkpt lat="22.799050" lon="109.943782">
        <ele>116.709683</ele>
        <time>2026-08-16T01:45:39.000Z</time>
      </trkpt>
      <trkpt lat="22.799044" lon="109.943816">
        <ele>116.795408</ele>
        <time>2026-08-16T01:45:40.000Z</time>
      </trkpt>
      <trkpt lat="22.799035" lon="109.943850">
        <ele>116.883006</ele>
        <time>2026-08-16T01:45:41.000Z</time>
      </trkpt>
      <trkpt lat="22.799021" lon="109.943882">
        <ele>116.970721</ele>
        <time>2026-08-16T01:45:42.000Z</time>
      </trkpt>
      <trkpt lat="22.799006" lon="109.943914">
        <ele>117.059620</ele>
        <time>2026-08-16T01:45:43.000Z</time>
      </trkpt>
      <trkpt lat="22.798991" lon="109.943947">
        <ele>117.150734</ele>
        <time>2026-08-16T01:45:44.000Z</time>
      </trkpt>
      <trkpt lat="22.798979" lon="109.943984">
        <ele>117.247865</ele>
        <time>2026-08-16T01:45:45.000Z</time>
      </trkpt>
      <trkpt lat="22.798967" lon="109.944023">
        <ele>117.349680</ele>
        <time>2026-08-16T01:45:46.000Z</time>
      </trkpt>
      <trkpt lat="22.798955" lon="109.944062">
        <ele>117.451496</ele>
        <time>2026-08-16T01:45:47.000Z</time>
      </trkpt>
      <trkpt lat="22.798945" lon="109.944102">
        <ele>117.554128</ele>
        <time>2026-08-16T01:45:48.000Z</time>
      </trkpt>
      <trkpt lat="22.798934" lon="109.944142">
        <ele>117.657496</ele>
        <time>2026-08-16T01:45:49.000Z</time>
      </trkpt>
      <trkpt lat="22.798922" lon="109.944181">
        <ele>117.759312</ele>
        <time>2026-08-16T01:45:50.000Z</time>
      </trkpt>
      <trkpt lat="22.798908" lon="109.944219">
        <ele>117.860650</ele>
        <time>2026-08-16T01:45:51.000Z</time>
      </trkpt>
      <trkpt lat="22.798895" lon="109.944259">
        <ele>117.965680</ele>
        <time>2026-08-16T01:45:52.000Z</time>
      </trkpt>
      <trkpt lat="22.798883" lon="109.944298">
        <ele>118.067496</ele>
        <time>2026-08-16T01:45:53.000Z</time>
      </trkpt>
      <trkpt lat="22.798872" lon="109.944337">
        <ele>118.168493</ele>
        <time>2026-08-16T01:45:54.000Z</time>
      </trkpt>
      <trkpt lat="22.798861" lon="109.944376">
        <ele>118.269491</ele>
        <time>2026-08-16T01:45:55.000Z</time>
      </trkpt>
      <trkpt lat="22.798849" lon="109.944416">
        <ele>118.373658</ele>
        <time>2026-08-16T01:45:56.000Z</time>
      </trkpt>
      <trkpt lat="22.798836" lon="109.944454">
        <ele>118.474031</ele>
        <time>2026-08-16T01:45:57.000Z</time>
      </trkpt>
      <trkpt lat="22.798825" lon="109.944492">
        <ele>118.572663</ele>
        <time>2026-08-16T01:45:58.000Z</time>
      </trkpt>
      <trkpt lat="22.798812" lon="109.944532">
        <ele>118.677693</ele>
        <time>2026-08-16T01:45:59.000Z</time>
      </trkpt>
      <trkpt lat="22.798800" lon="109.944570">
        <ele>118.777163</ele>
        <time>2026-08-16T01:46:00.000Z</time>
      </trkpt>
      <trkpt lat="22.798788" lon="109.944608">
        <ele>118.876633</ele>
        <time>2026-08-16T01:46:01.000Z</time>
      </trkpt>
      <trkpt lat="22.798778" lon="109.944646">
        <ele>118.974494</ele>
        <time>2026-08-16T01:46:02.000Z</time>
      </trkpt>
      <trkpt lat="22.798768" lon="109.944684">
        <ele>119.072355</ele>
        <time>2026-08-16T01:46:03.000Z</time>
      </trkpt>
      <trkpt lat="22.798758" lon="109.944722">
        <ele>119.170216</ele>
        <time>2026-08-16T01:46:04.000Z</time>
      </trkpt>
      <trkpt lat="22.798748" lon="109.944759">
        <ele>119.265698</ele>
        <time>2026-08-16T01:46:05.000Z</time>
      </trkpt>
      <trkpt lat="22.798738" lon="109.944796">
        <ele>119.361180</ele>
        <time>2026-08-16T01:46:06.000Z</time>
      </trkpt>
      <trkpt lat="22.798728" lon="109.944831">
        <ele>119.451920</ele>
        <time>2026-08-16T01:46:07.000Z</time>
      </trkpt>
      <trkpt lat="22.798718" lon="109.944867">
        <ele>119.545028</ele>
        <time>2026-08-16T01:46:08.000Z</time>
      </trkpt>
      <trkpt lat="22.798709" lon="109.944902">
        <ele>119.635010</ele>
        <time>2026-08-16T01:46:09.000Z</time>
      </trkpt>
      <trkpt lat="22.798698" lon="109.944936">
        <ele>119.724241</ele>
        <time>2026-08-16T01:46:10.000Z</time>
      </trkpt>
      <trkpt lat="22.798689" lon="109.944972">
        <ele>119.816610</ele>
        <time>2026-08-16T01:46:11.000Z</time>
      </trkpt>
      <trkpt lat="22.798679" lon="109.945008">
        <ele>119.825349</ele>
        <time>2026-08-16T01:46:12.000Z</time>
      </trkpt>
      <trkpt lat="22.798669" lon="109.945044">
        <ele>119.825278</ele>
        <time>2026-08-16T01:46:13.000Z</time>
      </trkpt>
      <trkpt lat="22.798660" lon="109.945080">
        <ele>119.825207</ele>
        <time>2026-08-16T01:46:14.000Z</time>
      </trkpt>
      <trkpt lat="22.798650" lon="109.945116">
        <ele>119.825136</ele>
        <time>2026-08-16T01:46:15.000Z</time>
      </trkpt>
      <trkpt lat="22.798640" lon="109.945153">
        <ele>119.825063</ele>
        <time>2026-08-16T01:46:16.000Z</time>
      </trkpt>
      <trkpt lat="22.798630" lon="109.945191">
        <ele>119.824989</ele>
        <time>2026-08-16T01:46:17.000Z</time>
      </trkpt>
      <trkpt lat="22.798620" lon="109.945227">
        <ele>119.824918</ele>
        <time>2026-08-16T01:46:18.000Z</time>
      </trkpt>
      <trkpt lat="22.798608" lon="109.945264">
        <ele>119.824843</ele>
        <time>2026-08-16T01:46:19.000Z</time>
      </trkpt>
      <trkpt lat="22.798596" lon="109.945302">
        <ele>119.824768</ele>
        <time>2026-08-16T01:46:20.000Z</time>
      </trkpt>
      <trkpt lat="22.798585" lon="109.945341">
        <ele>119.824691</ele>
        <time>2026-08-16T01:46:21.000Z</time>
      </trkpt>
      <trkpt lat="22.798574" lon="109.945381">
        <ele>119.824612</ele>
        <time>2026-08-16T01:46:22.000Z</time>
      </trkpt>
      <trkpt lat="22.798562" lon="109.945422">
        <ele>119.824530</ele>
        <time>2026-08-16T01:46:23.000Z</time>
      </trkpt>
      <trkpt lat="22.798550" lon="109.945463">
        <ele>119.824449</ele>
        <time>2026-08-16T01:46:24.000Z</time>
      </trkpt>
      <trkpt lat="22.798537" lon="109.945504">
        <ele>119.824367</ele>
        <time>2026-08-16T01:46:25.000Z</time>
      </trkpt>
      <trkpt lat="22.798526" lon="109.945544">
        <ele>119.824288</ele>
        <time>2026-08-16T01:46:26.000Z</time>
      </trkpt>
      <trkpt lat="22.798514" lon="109.945584">
        <ele>119.824209</ele>
        <time>2026-08-16T01:46:27.000Z</time>
      </trkpt>
      <trkpt lat="22.798501" lon="109.945622">
        <ele>119.824132</ele>
        <time>2026-08-16T01:46:28.000Z</time>
      </trkpt>
      <trkpt lat="22.798487" lon="109.945661">
        <ele>119.824053</ele>
        <time>2026-08-16T01:46:29.000Z</time>
      </trkpt>
      <trkpt lat="22.798474" lon="109.945699">
        <ele>119.823977</ele>
        <time>2026-08-16T01:46:30.000Z</time>
      </trkpt>
      <trkpt lat="22.798463" lon="109.945735">
        <ele>119.823905</ele>
        <time>2026-08-16T01:46:31.000Z</time>
      </trkpt>
      <trkpt lat="22.798453" lon="109.945771">
        <ele>119.823834</ele>
        <time>2026-08-16T01:46:32.000Z</time>
      </trkpt>
      <trkpt lat="22.798442" lon="109.945811">
        <ele>119.823755</ele>
        <time>2026-08-16T01:46:33.000Z</time>
      </trkpt>
      <trkpt lat="22.798429" lon="109.945852">
        <ele>119.823673</ele>
        <time>2026-08-16T01:46:34.000Z</time>
      </trkpt>
      <trkpt lat="22.798417" lon="109.945895">
        <ele>119.823588</ele>
        <time>2026-08-16T01:46:35.000Z</time>
      </trkpt>
      <trkpt lat="22.798405" lon="109.945940">
        <ele>119.823500</ele>
        <time>2026-08-16T01:46:36.000Z</time>
      </trkpt>
      <trkpt lat="22.798393" lon="109.945987">
        <ele>119.823408</ele>
        <time>2026-08-16T01:46:37.000Z</time>
      </trkpt>
      <trkpt lat="22.798382" lon="109.946038">
        <ele>119.823309</ele>
        <time>2026-08-16T01:46:38.000Z</time>
      </trkpt>
      <trkpt lat="22.798372" lon="109.946089">
        <ele>119.823210</ele>
        <time>2026-08-16T01:46:39.000Z</time>
      </trkpt>
      <trkpt lat="22.798360" lon="109.946142">
        <ele>119.823107</ele>
        <time>2026-08-16T01:46:40.000Z</time>
      </trkpt>
      <trkpt lat="22.798349" lon="109.946196">
        <ele>119.823003</ele>
        <time>2026-08-16T01:46:41.000Z</time>
      </trkpt>
      <trkpt lat="22.798338" lon="109.946252">
        <ele>119.822895</ele>
        <time>2026-08-16T01:46:42.000Z</time>
      </trkpt>
      <trkpt lat="22.798324" lon="109.946311">
        <ele>119.822780</ele>
        <time>2026-08-16T01:46:43.000Z</time>
      </trkpt>
      <trkpt lat="22.798309" lon="109.946372">
        <ele>119.822660</ele>
        <time>2026-08-16T01:46:44.000Z</time>
      </trkpt>
      <trkpt lat="22.798293" lon="109.946431">
        <ele>119.822544</ele>
        <time>2026-08-16T01:46:45.000Z</time>
      </trkpt>
      <trkpt lat="22.798277" lon="109.946488">
        <ele>119.822432</ele>
        <time>2026-08-16T01:46:46.000Z</time>
      </trkpt>
      <trkpt lat="22.798259" lon="109.946548">
        <ele>119.822312</ele>
        <time>2026-08-16T01:46:47.000Z</time>
      </trkpt>
      <trkpt lat="22.798241" lon="109.946607">
        <ele>119.822195</ele>
        <time>2026-08-16T01:46:48.000Z</time>
      </trkpt>
      <trkpt lat="22.798223" lon="109.946664">
        <ele>119.822081</ele>
        <time>2026-08-16T01:46:49.000Z</time>
      </trkpt>
      <trkpt lat="22.798205" lon="109.946721">
        <ele>119.821967</ele>
        <time>2026-08-16T01:46:50.000Z</time>
      </trkpt>
      <trkpt lat="22.798187" lon="109.946778">
        <ele>119.821854</ele>
        <time>2026-08-16T01:46:51.000Z</time>
      </trkpt>
      <trkpt lat="22.798169" lon="109.946833">
        <ele>119.821743</ele>
        <time>2026-08-16T01:46:52.000Z</time>
      </trkpt>
      <trkpt lat="22.798150" lon="109.946888">
        <ele>119.904342</ele>
        <time>2026-08-16T01:46:53.000Z</time>
      </trkpt>
      <trkpt lat="22.798133" lon="109.946944">
        <ele>120.001316</ele>
        <time>2026-08-16T01:46:54.000Z</time>
      </trkpt>
      <trkpt lat="22.798116" lon="109.947001">
        <ele>120.099854</ele>
        <time>2026-08-16T01:46:55.000Z</time>
      </trkpt>
      <trkpt lat="22.798097" lon="109.947053">
        <ele>120.191856</ele>
        <time>2026-08-16T01:46:56.000Z</time>
      </trkpt>
      <trkpt lat="22.798075" lon="109.947095">
        <ele>120.271311</ele>
        <time>2026-08-16T01:46:57.000Z</time>
      </trkpt>
      <trkpt lat="22.798055" lon="109.947127">
        <ele>120.334900</ele>
        <time>2026-08-16T01:46:58.000Z</time>
      </trkpt>
      <trkpt lat="22.798026" lon="109.947161">
        <ele>120.411088</ele>
        <time>2026-08-16T01:46:59.000Z</time>
      </trkpt>
      <trkpt lat="22.798011" lon="109.947202">
        <ele>120.483641</ele>
        <time>2026-08-16T01:47:00.000Z</time>
      </trkpt>
      <trkpt lat="22.797999" lon="109.947244">
        <ele>120.555964</ele>
        <time>2026-08-16T01:47:01.000Z</time>
      </trkpt>
      <trkpt lat="22.797992" lon="109.947294">
        <ele>120.639147</ele>
        <time>2026-08-16T01:47:02.000Z</time>
      </trkpt>
      <trkpt lat="22.797987" lon="109.947350">
        <ele>120.731687</ele>
        <time>2026-08-16T01:47:03.000Z</time>
      </trkpt>
      <trkpt lat="22.797978" lon="109.947400">
        <ele>120.815480</ele>
        <time>2026-08-16T01:47:04.000Z</time>
      </trkpt>
      <trkpt lat="22.797970" lon="109.947451">
        <ele>120.900570</ele>
        <time>2026-08-16T01:47:05.000Z</time>
      </trkpt>
      <trkpt lat="22.797962" lon="109.947500">
        <ele>120.982420</ele>
        <time>2026-08-16T01:47:06.000Z</time>
      </trkpt>
      <trkpt lat="22.797947" lon="109.947545">
        <ele>121.061125</ele>
        <time>2026-08-16T01:47:07.000Z</time>
      </trkpt>
      <trkpt lat="22.797938" lon="109.947590">
        <ele>121.136863</ele>
        <time>2026-08-16T01:47:08.000Z</time>
      </trkpt>
      <trkpt lat="22.797926" lon="109.947635">
        <ele>121.213914</ele>
        <time>2026-08-16T01:47:09.000Z</time>
      </trkpt>
      <trkpt lat="22.797909" lon="109.947676">
        <ele>121.287857</ele>
        <time>2026-08-16T01:47:10.000Z</time>
      </trkpt>
      <trkpt lat="22.797896" lon="109.947720">
        <ele>121.363855</ele>
        <time>2026-08-16T01:47:11.000Z</time>
      </trkpt>
      <trkpt lat="22.797880" lon="109.947762">
        <ele>121.438602</ele>
        <time>2026-08-16T01:47:12.000Z</time>
      </trkpt>
      <trkpt lat="22.797863" lon="109.947803">
        <ele>121.512546</ele>
        <time>2026-08-16T01:47:13.000Z</time>
      </trkpt>
      <trkpt lat="22.797845" lon="109.947841">
        <ele>121.582817</ele>
        <time>2026-08-16T01:47:14.000Z</time>
      </trkpt>
      <trkpt lat="22.797829" lon="109.947880">
        <ele>121.653029</ele>
        <time>2026-08-16T01:47:15.000Z</time>
      </trkpt>
      <trkpt lat="22.797817" lon="109.947919">
        <ele>121.720655</ele>
        <time>2026-08-16T01:47:16.000Z</time>
      </trkpt>
      <trkpt lat="22.797806" lon="109.947959">
        <ele>121.789312</ele>
        <time>2026-08-16T01:47:17.000Z</time>
      </trkpt>
      <trkpt lat="22.797792" lon="109.947998">
        <ele>121.858151</ele>
        <time>2026-08-16T01:47:18.000Z</time>
      </trkpt>
      <trkpt lat="22.797783" lon="109.948038">
        <ele>121.925874</ele>
        <time>2026-08-16T01:47:19.000Z</time>
      </trkpt>
      <trkpt lat="22.797767" lon="109.948078">
        <ele>121.997593</ele>
        <time>2026-08-16T01:47:20.000Z</time>
      </trkpt>
      <trkpt lat="22.797757" lon="109.948117">
        <ele>122.064175</ele>
        <time>2026-08-16T01:47:21.000Z</time>
      </trkpt>
      <trkpt lat="22.797745" lon="109.948156">
        <ele>122.131801</ele>
        <time>2026-08-16T01:47:22.000Z</time>
      </trkpt>
      <trkpt lat="22.797740" lon="109.948196">
        <ele>122.198195</ele>
        <time>2026-08-16T01:47:23.000Z</time>
      </trkpt>
      <trkpt lat="22.797730" lon="109.948234">
        <ele>122.263194</ele>
        <time>2026-08-16T01:47:24.000Z</time>
      </trkpt>
      <trkpt lat="22.797721" lon="109.948272">
        <ele>122.327726</ele>
        <time>2026-08-16T01:47:25.000Z</time>
      </trkpt>
      <trkpt lat="22.797713" lon="109.948309">
        <ele>122.390235</ele>
        <time>2026-08-16T01:47:26.000Z</time>
      </trkpt>
      <trkpt lat="22.797705" lon="109.948348">
        <ele>122.455952</ele>
        <time>2026-08-16T01:47:27.000Z</time>
      </trkpt>
      <trkpt lat="22.797699" lon="109.948386">
        <ele>122.519364</ele>
        <time>2026-08-16T01:47:28.000Z</time>
      </trkpt>
      <trkpt lat="22.797689" lon="109.948423">
        <ele>122.582783</ele>
        <time>2026-08-16T01:47:29.000Z</time>
      </trkpt>
      <trkpt lat="22.797677" lon="109.948463">
        <ele>122.651972</ele>
        <time>2026-08-16T01:47:30.000Z</time>
      </trkpt>
      <trkpt lat="22.797667" lon="109.948502">
        <ele>122.718554</ele>
        <time>2026-08-16T01:47:31.000Z</time>
      </trkpt>
      <trkpt lat="22.797657" lon="109.948541">
        <ele>122.785136</ele>
        <time>2026-08-16T01:47:32.000Z</time>
      </trkpt>
      <trkpt lat="22.797649" lon="109.948582">
        <ele>122.854067</ele>
        <time>2026-08-16T01:47:33.000Z</time>
      </trkpt>
      <trkpt lat="22.797640" lon="109.948623">
        <ele>122.923389</ele>
        <time>2026-08-16T01:47:34.000Z</time>
      </trkpt>
      <trkpt lat="22.797629" lon="109.948663">
        <ele>122.992046</ele>
        <time>2026-08-16T01:47:35.000Z</time>
      </trkpt>
      <trkpt lat="22.797619" lon="109.948702">
        <ele>123.067538</ele>
        <time>2026-08-16T01:47:36.000Z</time>
      </trkpt>
      <trkpt lat="22.797607" lon="109.948740">
        <ele>123.154788</ele>
        <time>2026-08-16T01:47:37.000Z</time>
      </trkpt>
      <trkpt lat="22.797595" lon="109.948778">
        <ele>123.242038</ele>
        <time>2026-08-16T01:47:38.000Z</time>
      </trkpt>
      <trkpt lat="22.797585" lon="109.948816">
        <ele>123.327877</ele>
        <time>2026-08-16T01:47:39.000Z</time>
      </trkpt>
      <trkpt lat="22.797573" lon="109.948853">
        <ele>123.413075</ele>
        <time>2026-08-16T01:47:40.000Z</time>
      </trkpt>
      <trkpt lat="22.797562" lon="109.948892">
        <ele>123.501665</ele>
        <time>2026-08-16T01:47:41.000Z</time>
      </trkpt>
      <trkpt lat="22.797552" lon="109.948929">
        <ele>123.585417</ele>
        <time>2026-08-16T01:47:42.000Z</time>
      </trkpt>
      <trkpt lat="22.797541" lon="109.948966">
        <ele>123.669862</ele>
        <time>2026-08-16T01:47:43.000Z</time>
      </trkpt>
      <trkpt lat="22.797532" lon="109.949003">
        <ele>123.752982</ele>
        <time>2026-08-16T01:47:44.000Z</time>
      </trkpt>
      <trkpt lat="22.797522" lon="109.949041">
        <ele>123.838821</ele>
        <time>2026-08-16T01:47:45.000Z</time>
      </trkpt>
      <trkpt lat="22.797513" lon="109.949078">
        <ele>123.921941</ele>
        <time>2026-08-16T01:47:46.000Z</time>
      </trkpt>
      <trkpt lat="22.797503" lon="109.949116">
        <ele>124.007779</ele>
        <time>2026-08-16T01:47:47.000Z</time>
      </trkpt>
      <trkpt lat="22.797493" lon="109.949153">
        <ele>124.091531</ele>
        <time>2026-08-16T01:47:48.000Z</time>
      </trkpt>
      <trkpt lat="22.797483" lon="109.949191">
        <ele>124.177370</ele>
        <time>2026-08-16T01:47:49.000Z</time>
      </trkpt>
      <trkpt lat="22.797472" lon="109.949230">
        <ele>124.265960</ele>
        <time>2026-08-16T01:47:50.000Z</time>
      </trkpt>
      <trkpt lat="22.797461" lon="109.949270">
        <ele>124.356629</ele>
        <time>2026-08-16T01:47:51.000Z</time>
      </trkpt>
      <trkpt lat="22.797448" lon="109.949310">
        <ele>124.448757</ele>
        <time>2026-08-16T01:47:52.000Z</time>
      </trkpt>
      <trkpt lat="22.797436" lon="109.949350">
        <ele>124.540127</ele>
        <time>2026-08-16T01:47:53.000Z</time>
      </trkpt>
      <trkpt lat="22.797426" lon="109.949390">
        <ele>124.630151</ele>
        <time>2026-08-16T01:47:54.000Z</time>
      </trkpt>
      <trkpt lat="22.797414" lon="109.949428">
        <ele>124.717401</ele>
        <time>2026-08-16T01:47:55.000Z</time>
      </trkpt>
      <trkpt lat="22.797401" lon="109.949468">
        <ele>124.809528</ele>
        <time>2026-08-16T01:47:56.000Z</time>
      </trkpt>
      <trkpt lat="22.797389" lon="109.949508">
        <ele>124.900899</ele>
        <time>2026-08-16T01:47:57.000Z</time>
      </trkpt>
      <trkpt lat="22.797377" lon="109.949548">
        <ele>124.992270</ele>
        <time>2026-08-16T01:47:58.000Z</time>
      </trkpt>
      <trkpt lat="22.797365" lon="109.949588">
        <ele>125.083641</ele>
        <time>2026-08-16T01:47:59.000Z</time>
      </trkpt>
      <trkpt lat="22.797353" lon="109.949627">
        <ele>125.172949</ele>
        <time>2026-08-16T01:48:00.000Z</time>
      </trkpt>
      <trkpt lat="22.797342" lon="109.949664">
        <ele>125.257394</ele>
        <time>2026-08-16T01:48:01.000Z</time>
      </trkpt>
      <trkpt lat="22.797331" lon="109.949701">
        <ele>125.341839</ele>
        <time>2026-08-16T01:48:02.000Z</time>
      </trkpt>
      <trkpt lat="22.797320" lon="109.949738">
        <ele>125.426285</ele>
        <time>2026-08-16T01:48:03.000Z</time>
      </trkpt>
      <trkpt lat="22.797311" lon="109.949774">
        <ele>125.507306</ele>
        <time>2026-08-16T01:48:04.000Z</time>
      </trkpt>
      <trkpt lat="22.797301" lon="109.949812">
        <ele>125.593145</ele>
        <time>2026-08-16T01:48:05.000Z</time>
      </trkpt>
      <trkpt lat="22.797290" lon="109.949847">
        <ele>125.673467</ele>
        <time>2026-08-16T01:48:06.000Z</time>
      </trkpt>
      <trkpt lat="22.797277" lon="109.949883">
        <ele>125.757450</ele>
        <time>2026-08-16T01:48:07.000Z</time>
      </trkpt>
      <trkpt lat="22.797264" lon="109.949920">
        <ele>125.843458</ele>
        <time>2026-08-16T01:48:08.000Z</time>
      </trkpt>
      <trkpt lat="22.797252" lon="109.949958">
        <ele>125.930709</ele>
        <time>2026-08-16T01:48:09.000Z</time>
      </trkpt>
      <trkpt lat="22.797242" lon="109.949997">
        <ele>126.018638</ele>
        <time>2026-08-16T01:48:10.000Z</time>
      </trkpt>
      <trkpt lat="22.797231" lon="109.950036">
        <ele>126.107228</ele>
        <time>2026-08-16T01:48:11.000Z</time>
      </trkpt>
      <trkpt lat="22.797218" lon="109.950076">
        <ele>126.199356</ele>
        <time>2026-08-16T01:48:12.000Z</time>
      </trkpt>
      <trkpt lat="22.797206" lon="109.950116">
        <ele>126.290726</ele>
        <time>2026-08-16T01:48:13.000Z</time>
      </trkpt>
      <trkpt lat="22.797194" lon="109.950157">
        <ele>126.384165</ele>
        <time>2026-08-16T01:48:14.000Z</time>
      </trkpt>
      <trkpt lat="22.797182" lon="109.950195">
        <ele>126.471415</ele>
        <time>2026-08-16T01:48:15.000Z</time>
      </trkpt>
      <trkpt lat="22.797169" lon="109.950234">
        <ele>126.561497</ele>
        <time>2026-08-16T01:48:16.000Z</time>
      </trkpt>
      <trkpt lat="22.797158" lon="109.950272">
        <ele>126.648012</ele>
        <time>2026-08-16T01:48:17.000Z</time>
      </trkpt>
      <trkpt lat="22.797145" lon="109.950307">
        <ele>126.729976</ele>
        <time>2026-08-16T01:48:18.000Z</time>
      </trkpt>
      <trkpt lat="22.797135" lon="109.950342">
        <ele>126.809569</ele>
        <time>2026-08-16T01:48:19.000Z</time>
      </trkpt>
      <trkpt lat="22.797125" lon="109.950382">
        <ele>126.899593</ele>
        <time>2026-08-16T01:48:20.000Z</time>
      </trkpt>
      <trkpt lat="22.797113" lon="109.950421">
        <ele>126.988901</ele>
        <time>2026-08-16T01:48:21.000Z</time>
      </trkpt>
      <trkpt lat="22.797102" lon="109.950460">
        <ele>127.077492</ele>
        <time>2026-08-16T01:48:22.000Z</time>
      </trkpt>
      <trkpt lat="22.797091" lon="109.950499">
        <ele>127.166082</ele>
        <time>2026-08-16T01:48:23.000Z</time>
      </trkpt>
      <trkpt lat="22.797082" lon="109.950537">
        <ele>127.251304</ele>
        <time>2026-08-16T01:48:24.000Z</time>
      </trkpt>
      <trkpt lat="22.797072" lon="109.950576">
        <ele>127.346747</ele>
        <time>2026-08-16T01:48:25.000Z</time>
      </trkpt>
      <trkpt lat="22.797060" lon="109.950615">
        <ele>127.445585</ele>
        <time>2026-08-16T01:48:26.000Z</time>
      </trkpt>
      <trkpt lat="22.797050" lon="109.950652">
        <ele>127.538274</ele>
        <time>2026-08-16T01:48:27.000Z</time>
      </trkpt>
      <trkpt lat="22.797040" lon="109.950690">
        <ele>127.633273</ele>
        <time>2026-08-16T01:48:28.000Z</time>
      </trkpt>
      <trkpt lat="22.797032" lon="109.950728">
        <ele>127.726975</ele>
        <time>2026-08-16T01:48:29.000Z</time>
      </trkpt>
      <trkpt lat="22.797024" lon="109.950765">
        <ele>127.818334</ele>
        <time>2026-08-16T01:48:30.000Z</time>
      </trkpt>
      <trkpt lat="22.797018" lon="109.950801">
        <ele>127.906279</ele>
        <time>2026-08-16T01:48:31.000Z</time>
      </trkpt>
      <trkpt lat="22.797013" lon="109.950834">
        <ele>127.986674</ele>
        <time>2026-08-16T01:48:32.000Z</time>
      </trkpt>
      <trkpt lat="22.797007" lon="109.950866">
        <ele>128.065175</ele>
        <time>2026-08-16T01:48:33.000Z</time>
      </trkpt>
      <trkpt lat="22.797002" lon="109.950898">
        <ele>128.143198</ele>
        <time>2026-08-16T01:48:34.000Z</time>
      </trkpt>
      <trkpt lat="22.796999" lon="109.950931">
        <ele>128.222913</ele>
        <time>2026-08-16T01:48:35.000Z</time>
      </trkpt>
      <trkpt lat="22.796994" lon="109.950962">
        <ele>128.298568</ele>
        <time>2026-08-16T01:48:36.000Z</time>
      </trkpt>
      <trkpt lat="22.796991" lon="109.950994">
        <ele>128.375891</ele>
        <time>2026-08-16T01:48:37.000Z</time>
      </trkpt>
      <trkpt lat="22.796989" lon="109.951024">
        <ele>128.448197</ele>
        <time>2026-08-16T01:48:38.000Z</time>
      </trkpt>
      <trkpt lat="22.796988" lon="109.951053">
        <ele>128.517960</ele>
        <time>2026-08-16T01:48:39.000Z</time>
      </trkpt>
      <trkpt lat="22.796988" lon="109.951082">
        <ele>128.587675</ele>
        <time>2026-08-16T01:48:40.000Z</time>
      </trkpt>
      <trkpt lat="22.796987" lon="109.951111">
        <ele>128.657438</ele>
        <time>2026-08-16T01:48:41.000Z</time>
      </trkpt>
      <trkpt lat="22.796984" lon="109.951142">
        <ele>128.732370</ele>
        <time>2026-08-16T01:48:42.000Z</time>
      </trkpt>
      <trkpt lat="22.796983" lon="109.951171">
        <ele>128.802133</ele>
        <time>2026-08-16T01:48:43.000Z</time>
      </trkpt>
      <trkpt lat="22.796983" lon="109.951200">
        <ele>128.871847</ele>
        <time>2026-08-16T01:48:44.000Z</time>
      </trkpt>
      <trkpt lat="22.796981" lon="109.951232">
        <ele>128.948950</ele>
        <time>2026-08-16T01:48:45.000Z</time>
      </trkpt>
      <trkpt lat="22.796979" lon="109.951267">
        <ele>129.033250</ele>
        <time>2026-08-16T01:48:46.000Z</time>
      </trkpt>
      <trkpt lat="22.796977" lon="109.951301">
        <ele>129.115150</ele>
        <time>2026-08-16T01:48:47.000Z</time>
      </trkpt>
      <trkpt lat="22.796978" lon="109.951337">
        <ele>129.201731</ele>
        <time>2026-08-16T01:48:48.000Z</time>
      </trkpt>
      <trkpt lat="22.796978" lon="109.951373">
        <ele>129.288274</ele>
        <time>2026-08-16T01:48:49.000Z</time>
      </trkpt>
      <trkpt lat="22.796980" lon="109.951408">
        <ele>129.372573</ele>
        <time>2026-08-16T01:48:50.000Z</time>
      </trkpt>
      <trkpt lat="22.796980" lon="109.951444">
        <ele>129.459115</ele>
        <time>2026-08-16T01:48:51.000Z</time>
      </trkpt>
      <trkpt lat="22.796979" lon="109.951482">
        <ele>129.550502</ele>
        <time>2026-08-16T01:48:52.000Z</time>
      </trkpt>
      <trkpt lat="22.796978" lon="109.951519">
        <ele>129.639486</ele>
        <time>2026-08-16T01:48:53.000Z</time>
      </trkpt>
      <trkpt lat="22.796978" lon="109.951557">
        <ele>129.730836</ele>
        <time>2026-08-16T01:48:54.000Z</time>
      </trkpt>
      <trkpt lat="22.796978" lon="109.951595">
        <ele>129.822186</ele>
        <time>2026-08-16T01:48:55.000Z</time>
      </trkpt>
      <trkpt lat="22.796975" lon="109.951632">
        <ele>129.911476</ele>
        <time>2026-08-16T01:48:56.000Z</time>
      </trkpt>
      <trkpt lat="22.796971" lon="109.951665">
        <ele>129.991489</ele>
        <time>2026-08-16T01:48:57.000Z</time>
      </trkpt>
      <trkpt lat="22.796970" lon="109.951698">
        <ele>130.070862</ele>
        <time>2026-08-16T01:48:58.000Z</time>
      </trkpt>
      <trkpt lat="22.796969" lon="109.951728">
        <ele>130.143027</ele>
        <time>2026-08-16T01:48:59.000Z</time>
      </trkpt>
      <trkpt lat="22.796969" lon="109.951755">
        <ele>130.207934</ele>
        <time>2026-08-16T01:49:00.000Z</time>
      </trkpt>
      <trkpt lat="22.796968" lon="109.951779">
        <ele>130.265687</ele>
        <time>2026-08-16T01:49:01.000Z</time>
      </trkpt>
      <trkpt lat="22.796962" lon="109.951805">
        <ele>130.330118</ele>
        <time>2026-08-16T01:49:02.000Z</time>
      </trkpt>
      <trkpt lat="22.796959" lon="109.951834">
        <ele>130.400270</ele>
        <time>2026-08-16T01:49:03.000Z</time>
      </trkpt>
      <trkpt lat="22.796954" lon="109.951865">
        <ele>130.475925</ele>
        <time>2026-08-16T01:49:04.000Z</time>
      </trkpt>
      <trkpt lat="22.796949" lon="109.951903">
        <ele>130.568200</ele>
        <time>2026-08-16T01:49:05.000Z</time>
      </trkpt>
      <trkpt lat="22.796941" lon="109.951939">
        <ele>130.657221</ele>
        <time>2026-08-16T01:49:06.000Z</time>
      </trkpt>
      <trkpt lat="22.796934" lon="109.951975">
        <ele>130.745667</ele>
        <time>2026-08-16T01:49:07.000Z</time>
      </trkpt>
      <trkpt lat="22.796927" lon="109.952013">
        <ele>130.838823</ele>
        <time>2026-08-16T01:49:08.000Z</time>
      </trkpt>
      <trkpt lat="22.796921" lon="109.952049">
        <ele>130.926768</ele>
        <time>2026-08-16T01:49:09.000Z</time>
      </trkpt>
      <trkpt lat="22.796912" lon="109.952089">
        <ele>131.025749</ele>
        <time>2026-08-16T01:49:10.000Z</time>
      </trkpt>
      <trkpt lat="22.796899" lon="109.952134">
        <ele>131.139113</ele>
        <time>2026-08-16T01:49:11.000Z</time>
      </trkpt>
      <trkpt lat="22.796890" lon="109.952178">
        <ele>131.247459</ele>
        <time>2026-08-16T01:49:12.000Z</time>
      </trkpt>
      <trkpt lat="22.796880" lon="109.952220">
        <ele>131.351738</ele>
        <time>2026-08-16T01:49:13.000Z</time>
      </trkpt>
      <trkpt lat="22.796868" lon="109.952264">
        <ele>131.462043</ele>
        <time>2026-08-16T01:49:14.000Z</time>
      </trkpt>
      <trkpt lat="22.796850" lon="109.952309">
        <ele>131.579965</ele>
        <time>2026-08-16T01:49:15.000Z</time>
      </trkpt>
      <trkpt lat="22.796841" lon="109.952341">
        <ele>131.660392</ele>
        <time>2026-08-16T01:49:16.000Z</time>
      </trkpt>
      <trkpt lat="22.796833" lon="109.952370">
        <ele>131.733161</ele>
        <time>2026-08-16T01:49:17.000Z</time>
      </trkpt>
      <trkpt lat="22.796826" lon="109.952396">
        <ele>131.798274</ele>
        <time>2026-08-16T01:49:18.000Z</time>
      </trkpt>
      <trkpt lat="22.796825" lon="109.952425">
        <ele>131.868037</ele>
        <time>2026-08-16T01:49:19.000Z</time>
      </trkpt>
      <trkpt lat="22.796821" lon="109.952462">
        <ele>131.957593</ele>
        <time>2026-08-16T01:49:20.000Z</time>
      </trkpt>
      <trkpt lat="22.796816" lon="109.952498">
        <ele>131.990866</ele>
        <time>2026-08-16T01:49:21.000Z</time>
      </trkpt>
      <trkpt lat="22.796808" lon="109.952533">
        <ele>132.022912</ele>
        <time>2026-08-16T01:49:22.000Z</time>
      </trkpt>
      <trkpt lat="22.796794" lon="109.952567">
        <ele>132.056005</ele>
        <time>2026-08-16T01:49:23.000Z</time>
      </trkpt>
      <trkpt lat="22.796777" lon="109.952600">
        <ele>132.089600</ele>
        <time>2026-08-16T01:49:24.000Z</time>
      </trkpt>
      <trkpt lat="22.796765" lon="109.952637">
        <ele>132.124457</ele>
        <time>2026-08-16T01:49:25.000Z</time>
      </trkpt>
      <trkpt lat="22.796751" lon="109.952680">
        <ele>132.164984</ele>
        <time>2026-08-16T01:49:26.000Z</time>
      </trkpt>
      <trkpt lat="22.796738" lon="109.952727">
        <ele>132.208592</ele>
        <time>2026-08-16T01:49:27.000Z</time>
      </trkpt>
      <trkpt lat="22.796732" lon="109.952776">
        <ele>132.252520</ele>
        <time>2026-08-16T01:49:28.000Z</time>
      </trkpt>
      <trkpt lat="22.796722" lon="109.952815">
        <ele>132.288495</ele>
        <time>2026-08-16T01:49:29.000Z</time>
      </trkpt>
      <trkpt lat="22.796708" lon="109.952857">
        <ele>132.328185</ele>
        <time>2026-08-16T01:49:30.000Z</time>
      </trkpt>
      <trkpt lat="22.796694" lon="109.952901">
        <ele>132.369551</ele>
        <time>2026-08-16T01:49:31.000Z</time>
      </trkpt>
      <trkpt lat="22.796677" lon="109.952946">
        <ele>132.412770</ele>
        <time>2026-08-16T01:49:32.000Z</time>
      </trkpt>
      <trkpt lat="22.796659" lon="109.952995">
        <ele>132.459645</ele>
        <time>2026-08-16T01:49:33.000Z</time>
      </trkpt>
      <trkpt lat="22.796644" lon="109.953046">
        <ele>132.507220</ele>
        <time>2026-08-16T01:49:34.000Z</time>
      </trkpt>
      <trkpt lat="22.796624" lon="109.953098">
        <ele>132.557292</ele>
        <time>2026-08-16T01:49:35.000Z</time>
      </trkpt>
      <trkpt lat="22.796606" lon="109.953148">
        <ele>132.604995</ele>
        <time>2026-08-16T01:49:36.000Z</time>
      </trkpt>
      <trkpt lat="22.796590" lon="109.953202">
        <ele>132.655402</ele>
        <time>2026-08-16T01:49:37.000Z</time>
      </trkpt>
      <trkpt lat="22.796569" lon="109.953257">
        <ele>132.708306</ele>
        <time>2026-08-16T01:49:38.000Z</time>
      </trkpt>
      <trkpt lat="22.796547" lon="109.953320">
        <ele>132.768176</ele>
        <time>2026-08-16T01:49:39.000Z</time>
      </trkpt>
      <trkpt lat="22.796533" lon="109.953371">
        <ele>132.815466</ele>
        <time>2026-08-16T01:49:40.000Z</time>
      </trkpt>
      <trkpt lat="22.796518" lon="109.953417">
        <ele>132.858828</ele>
        <time>2026-08-16T01:49:41.000Z</time>
      </trkpt>
      <trkpt lat="22.796500" lon="109.953468">
        <ele>132.907360</ele>
        <time>2026-08-16T01:49:42.000Z</time>
      </trkpt>
      <trkpt lat="22.796483" lon="109.953518">
        <ele>132.954720</ele>
        <time>2026-08-16T01:49:43.000Z</time>
      </trkpt>
      <trkpt lat="22.796466" lon="109.953572">
        <ele>133.005430</ele>
        <time>2026-08-16T01:49:44.000Z</time>
      </trkpt>
      <trkpt lat="22.796449" lon="109.953619">
        <ele>133.050299</ele>
        <time>2026-08-16T01:49:45.000Z</time>
      </trkpt>
      <trkpt lat="22.796434" lon="109.953668">
        <ele>133.096183</ele>
        <time>2026-08-16T01:49:46.000Z</time>
      </trkpt>
      <trkpt lat="22.796416" lon="109.953717">
        <ele>133.143059</ele>
        <time>2026-08-16T01:49:47.000Z</time>
      </trkpt>
      <trkpt lat="22.796402" lon="109.953761">
        <ele>133.184425</ele>
        <time>2026-08-16T01:49:48.000Z</time>
      </trkpt>
      <trkpt lat="22.796390" lon="109.953800">
        <ele>133.220963</ele>
        <time>2026-08-16T01:49:49.000Z</time>
      </trkpt>
      <trkpt lat="22.796377" lon="109.953837">
        <ele>133.256152</ele>
        <time>2026-08-16T01:49:50.000Z</time>
      </trkpt>
      <trkpt lat="22.796364" lon="109.953880">
        <ele>133.296369</ele>
        <time>2026-08-16T01:49:51.000Z</time>
      </trkpt>
      <trkpt lat="22.796349" lon="109.953924">
        <ele>133.338059</ele>
        <time>2026-08-16T01:49:52.000Z</time>
      </trkpt>
      <trkpt lat="22.796332" lon="109.953966">
        <ele>133.378823</ele>
        <time>2026-08-16T01:49:53.000Z</time>
      </trkpt>
      <trkpt lat="22.796314" lon="109.954006">
        <ele>133.418380</ele>
        <time>2026-08-16T01:49:54.000Z</time>
      </trkpt>
      <trkpt lat="22.796297" lon="109.954047">
        <ele>133.458332</ele>
        <time>2026-08-16T01:49:55.000Z</time>
      </trkpt>
      <trkpt lat="22.796281" lon="109.954086">
        <ele>133.496269</ele>
        <time>2026-08-16T01:49:56.000Z</time>
      </trkpt>
      <trkpt lat="22.796269" lon="109.954113">
        <ele>133.522906</ele>
        <time>2026-08-16T01:49:57.000Z</time>
      </trkpt>
      <trkpt lat="22.796258" lon="109.954142">
        <ele>133.550775</ele>
        <time>2026-08-16T01:49:58.000Z</time>
      </trkpt>
      <trkpt lat="22.796243" lon="109.954176">
        <ele>133.584272</ele>
        <time>2026-08-16T01:49:59.000Z</time>
      </trkpt>
      <trkpt lat="22.796230" lon="109.954217">
        <ele>133.622803</ele>
        <time>2026-08-16T01:50:00.000Z</time>
      </trkpt>
      <trkpt lat="22.796212" lon="109.954259">
        <ele>133.663965</ele>
        <time>2026-08-16T01:50:01.000Z</time>
      </trkpt>
      <trkpt lat="22.796192" lon="109.954297">
        <ele>133.714088</ele>
        <time>2026-08-16T01:50:02.000Z</time>
      </trkpt>
      <trkpt lat="22.796172" lon="109.954336">
        <ele>133.798683</ele>
        <time>2026-08-16T01:50:03.000Z</time>
      </trkpt>
      <trkpt lat="22.796151" lon="109.954375">
        <ele>133.884297</ele>
        <time>2026-08-16T01:50:04.000Z</time>
      </trkpt>
      <trkpt lat="22.796131" lon="109.954418">
        <ele>133.975593</ele>
        <time>2026-08-16T01:50:05.000Z</time>
      </trkpt>
      <trkpt lat="22.796112" lon="109.954464">
        <ele>134.071141</ele>
        <time>2026-08-16T01:50:06.000Z</time>
      </trkpt>
      <trkpt lat="22.796092" lon="109.954508">
        <ele>134.164133</ele>
        <time>2026-08-16T01:50:07.000Z</time>
      </trkpt>
      <trkpt lat="22.796073" lon="109.954551">
        <ele>134.254522</ele>
        <time>2026-08-16T01:50:08.000Z</time>
      </trkpt>
      <trkpt lat="22.796054" lon="109.954594">
        <ele>134.344910</ele>
        <time>2026-08-16T01:50:09.000Z</time>
      </trkpt>
      <trkpt lat="22.796034" lon="109.954636">
        <ele>134.434518</ele>
        <time>2026-08-16T01:50:10.000Z</time>
      </trkpt>
      <trkpt lat="22.796016" lon="109.954675">
        <ele>134.517192</ele>
        <time>2026-08-16T01:50:11.000Z</time>
      </trkpt>
      <trkpt lat="22.796000" lon="109.954719">
        <ele>134.606851</ele>
        <time>2026-08-16T01:50:12.000Z</time>
      </trkpt>
      <trkpt lat="22.795986" lon="109.954768">
        <ele>134.704093</ele>
        <time>2026-08-16T01:50:13.000Z</time>
      </trkpt>
      <trkpt lat="22.795973" lon="109.954814">
        <ele>134.795294</ele>
        <time>2026-08-16T01:50:14.000Z</time>
      </trkpt>
      <trkpt lat="22.795959" lon="109.954860">
        <ele>134.887120</ele>
        <time>2026-08-16T01:50:15.000Z</time>
      </trkpt>
      <trkpt lat="22.795946" lon="109.954905">
        <ele>134.976510</ele>
        <time>2026-08-16T01:50:16.000Z</time>
      </trkpt>
      <trkpt lat="22.795931" lon="109.954951">
        <ele>135.069001</ele>
        <time>2026-08-16T01:50:17.000Z</time>
      </trkpt>
      <trkpt lat="22.795917" lon="109.954997">
        <ele>135.160826</ele>
        <time>2026-08-16T01:50:18.000Z</time>
      </trkpt>
      <trkpt lat="22.795907" lon="109.955043">
        <ele>135.250414</ele>
        <time>2026-08-16T01:50:19.000Z</time>
      </trkpt>
      <trkpt lat="22.795893" lon="109.955088">
        <ele>135.340441</ele>
        <time>2026-08-16T01:50:20.000Z</time>
      </trkpt>
      <trkpt lat="22.795877" lon="109.955136">
        <ele>135.437194</ele>
        <time>2026-08-16T01:50:21.000Z</time>
      </trkpt>
      <trkpt lat="22.795859" lon="109.955183">
        <ele>135.533668</ele>
        <time>2026-08-16T01:50:22.000Z</time>
      </trkpt>
      <trkpt lat="22.795847" lon="109.955229">
        <ele>135.624288</ele>
        <time>2026-08-16T01:50:23.000Z</time>
      </trkpt>
      <trkpt lat="22.795834" lon="109.955271">
        <ele>135.708269</ele>
        <time>2026-08-16T01:50:24.000Z</time>
      </trkpt>
      <trkpt lat="22.795823" lon="109.955310">
        <ele>135.785579</ele>
        <time>2026-08-16T01:50:25.000Z</time>
      </trkpt>
      <trkpt lat="22.795811" lon="109.955347">
        <ele>135.859929</ele>
        <time>2026-08-16T01:50:26.000Z</time>
      </trkpt>
      <trkpt lat="22.795793" lon="109.955382">
        <ele>135.935900</ele>
        <time>2026-08-16T01:50:27.000Z</time>
      </trkpt>
      <trkpt lat="22.795784" lon="109.955417">
        <ele>136.004777</ele>
        <time>2026-08-16T01:50:28.000Z</time>
      </trkpt>
      <trkpt lat="22.795778" lon="109.955454">
        <ele>136.075990</ele>
        <time>2026-08-16T01:50:29.000Z</time>
      </trkpt>
      <trkpt lat="22.795773" lon="109.955492">
        <ele>136.148752</ele>
        <time>2026-08-16T01:50:30.000Z</time>
      </trkpt>
      <trkpt lat="22.795766" lon="109.955526">
        <ele>136.214789</ele>
        <time>2026-08-16T01:50:31.000Z</time>
      </trkpt>
      <trkpt lat="22.795759" lon="109.955557">
        <ele>136.275289</ele>
        <time>2026-08-16T01:50:32.000Z</time>
      </trkpt>
      <trkpt lat="22.795751" lon="109.955591">
        <ele>136.341805</ele>
        <time>2026-08-16T01:50:33.000Z</time>
      </trkpt>
      <trkpt lat="22.795742" lon="109.955631">
        <ele>136.419854</ele>
        <time>2026-08-16T01:50:34.000Z</time>
      </trkpt>
      <trkpt lat="22.795733" lon="109.955671">
        <ele>136.497902</ele>
        <time>2026-08-16T01:50:35.000Z</time>
      </trkpt>
      <trkpt lat="22.795722" lon="109.955710">
        <ele>136.575212</ele>
        <time>2026-08-16T01:50:36.000Z</time>
      </trkpt>
      <trkpt lat="22.795712" lon="109.955749">
        <ele>136.651946</ele>
        <time>2026-08-16T01:50:37.000Z</time>
      </trkpt>
      <trkpt lat="22.795706" lon="109.955785">
        <ele>136.721293</ele>
        <time>2026-08-16T01:50:38.000Z</time>
      </trkpt>
      <trkpt lat="22.795696" lon="109.955823">
        <ele>136.796202</ele>
        <time>2026-08-16T01:50:39.000Z</time>
      </trkpt>
      <trkpt lat="22.795688" lon="109.955865">
        <ele>136.877498</ele>
        <time>2026-08-16T01:50:40.000Z</time>
      </trkpt>
      <trkpt lat="22.795681" lon="109.955917">
        <ele>136.977113</ele>
        <time>2026-08-16T01:50:41.000Z</time>
      </trkpt>
      <trkpt lat="22.795676" lon="109.955962">
        <ele>137.063031</ele>
        <time>2026-08-16T01:50:42.000Z</time>
      </trkpt>
      <trkpt lat="22.795670" lon="109.956009">
        <ele>137.152974</ele>
        <time>2026-08-16T01:50:43.000Z</time>
      </trkpt>
      <trkpt lat="22.795661" lon="109.956052">
        <ele>137.236558</ele>
        <time>2026-08-16T01:50:44.000Z</time>
      </trkpt>
      <trkpt lat="22.795651" lon="109.956110">
        <ele>137.348407</ele>
        <time>2026-08-16T01:50:45.000Z</time>
      </trkpt>
      <trkpt lat="22.795645" lon="109.956160">
        <ele>137.416997</ele>
        <time>2026-08-16T01:50:46.000Z</time>
      </trkpt>
      <trkpt lat="22.795635" lon="109.956209">
        <ele>137.463427</ele>
        <time>2026-08-16T01:50:47.000Z</time>
      </trkpt>
      <trkpt lat="22.795626" lon="109.956256">
        <ele>137.507837</ele>
        <time>2026-08-16T01:50:48.000Z</time>
      </trkpt>
      <trkpt lat="22.795604" lon="109.956306">
        <ele>137.559093</ele>
        <time>2026-08-16T01:50:49.000Z</time>
      </trkpt>
      <trkpt lat="22.795593" lon="109.956351">
        <ele>137.602163</ele>
        <time>2026-08-16T01:50:50.000Z</time>
      </trkpt>
      <trkpt lat="22.795589" lon="109.956397">
        <ele>137.644909</ele>
        <time>2026-08-16T01:50:51.000Z</time>
      </trkpt>
      <trkpt lat="22.795584" lon="109.956433">
        <ele>137.678590</ele>
        <time>2026-08-16T01:50:52.000Z</time>
      </trkpt>
      <trkpt lat="22.795570" lon="109.956473">
        <ele>137.718173</ele>
        <time>2026-08-16T01:50:53.000Z</time>
      </trkpt>
      <trkpt lat="22.795560" lon="109.956522">
        <ele>137.764603</ele>
        <time>2026-08-16T01:50:54.000Z</time>
      </trkpt>
      <trkpt lat="22.795543" lon="109.956568">
        <ele>137.810452</ele>
        <time>2026-08-16T01:50:55.000Z</time>
      </trkpt>
      <trkpt lat="22.795527" lon="109.956617">
        <ele>137.858544</ele>
        <time>2026-08-16T01:50:56.000Z</time>
      </trkpt>
      <trkpt lat="22.795508" lon="109.956659">
        <ele>137.901826</ele>
        <time>2026-08-16T01:50:57.000Z</time>
      </trkpt>
      <trkpt lat="22.795487" lon="109.956702">
        <ele>137.946845</ele>
        <time>2026-08-16T01:50:58.000Z</time>
      </trkpt>
      <trkpt lat="22.795470" lon="109.956742">
        <ele>137.987594</ele>
        <time>2026-08-16T01:50:59.000Z</time>
      </trkpt>
      <trkpt lat="22.795456" lon="109.956781">
        <ele>138.026314</ele>
        <time>2026-08-16T01:51:00.000Z</time>
      </trkpt>
      <trkpt lat="22.795443" lon="109.956824">
        <ele>138.068179</ele>
        <time>2026-08-16T01:51:01.000Z</time>
      </trkpt>
      <trkpt lat="22.795427" lon="109.956868">
        <ele>138.111938</ele>
        <time>2026-08-16T01:51:02.000Z</time>
      </trkpt>
      <trkpt lat="22.795416" lon="109.956909">
        <ele>138.151443</ele>
        <time>2026-08-16T01:51:03.000Z</time>
      </trkpt>
      <trkpt lat="22.795407" lon="109.956951">
        <ele>138.191335</ele>
        <time>2026-08-16T01:51:04.000Z</time>
      </trkpt>
      <trkpt lat="22.795393" lon="109.956986">
        <ele>138.226632</ele>
        <time>2026-08-16T01:51:05.000Z</time>
      </trkpt>
      <trkpt lat="22.795374" lon="109.957021">
        <ele>138.264209</ele>
        <time>2026-08-16T01:51:06.000Z</time>
      </trkpt>
      <trkpt lat="22.795358" lon="109.957056">
        <ele>138.300352</ele>
        <time>2026-08-16T01:51:07.000Z</time>
      </trkpt>
      <trkpt lat="22.795341" lon="109.957097">
        <ele>138.341943</ele>
        <time>2026-08-16T01:51:08.000Z</time>
      </trkpt>
      <trkpt lat="22.795317" lon="109.957133">
        <ele>138.383044</ele>
        <time>2026-08-16T01:51:09.000Z</time>
      </trkpt>
      <trkpt lat="22.795299" lon="109.957175">
        <ele>138.425894</ele>
        <time>2026-08-16T01:51:10.000Z</time>
      </trkpt>
      <trkpt lat="22.795281" lon="109.957216">
        <ele>138.467907</ele>
        <time>2026-08-16T01:51:11.000Z</time>
      </trkpt>
      <trkpt lat="22.795264" lon="109.957255">
        <ele>138.507818</ele>
        <time>2026-08-16T01:51:12.000Z</time>
      </trkpt>
      <trkpt lat="22.795249" lon="109.957290">
        <ele>138.543526</ele>
        <time>2026-08-16T01:51:13.000Z</time>
      </trkpt>
      <trkpt lat="22.795237" lon="109.957322">
        <ele>138.575486</ele>
        <time>2026-08-16T01:51:14.000Z</time>
      </trkpt>
      <trkpt lat="22.795223" lon="109.957356">
        <ele>138.609936</ele>
        <time>2026-08-16T01:51:15.000Z</time>
      </trkpt>
      <trkpt lat="22.795209" lon="109.957393">
        <ele>138.646938</ele>
        <time>2026-08-16T01:51:16.000Z</time>
      </trkpt>
      <trkpt lat="22.795194" lon="109.957428">
        <ele>138.682646</ele>
        <time>2026-08-16T01:51:17.000Z</time>
      </trkpt>
      <trkpt lat="22.795180" lon="109.957460">
        <ele>138.715416</ele>
        <time>2026-08-16T01:51:18.000Z</time>
      </trkpt>
      <trkpt lat="22.795168" lon="109.957491">
        <ele>138.746521</ele>
        <time>2026-08-16T01:51:19.000Z</time>
      </trkpt>
      <trkpt lat="22.795149" lon="109.957531">
        <ele>138.788150</ele>
        <time>2026-08-16T01:51:20.000Z</time>
      </trkpt>
      <trkpt lat="22.795131" lon="109.957567">
        <ele>138.826039</ele>
        <time>2026-08-16T01:51:21.000Z</time>
      </trkpt>
      <trkpt lat="22.795113" lon="109.957604">
        <ele>138.864743</ele>
        <time>2026-08-16T01:51:22.000Z</time>
      </trkpt>
      <trkpt lat="22.795092" lon="109.957640">
        <ele>138.904156</ele>
        <time>2026-08-16T01:51:23.000Z</time>
      </trkpt>
      <trkpt lat="22.795078" lon="109.957682">
        <ele>138.945475</ele>
        <time>2026-08-16T01:51:24.000Z</time>
      </trkpt>
      <trkpt lat="22.795063" lon="109.957729">
        <ele>138.991489</ele>
        <time>2026-08-16T01:51:25.000Z</time>
      </trkpt>
      <trkpt lat="22.795045" lon="109.957771">
        <ele>139.034338</ele>
        <time>2026-08-16T01:51:26.000Z</time>
      </trkpt>
      <trkpt lat="22.795025" lon="109.957815">
        <ele>139.079724</ele>
        <time>2026-08-16T01:51:27.000Z</time>
      </trkpt>
      <trkpt lat="22.795003" lon="109.957863">
        <ele>139.129317</ele>
        <time>2026-08-16T01:51:28.000Z</time>
      </trkpt>
      <trkpt lat="22.794986" lon="109.957916">
        <ele>139.181233</ele>
        <time>2026-08-16T01:51:29.000Z</time>
      </trkpt>
      <trkpt lat="22.794968" lon="109.957971">
        <ele>139.132473</ele>
        <time>2026-08-16T01:51:30.000Z</time>
      </trkpt>
      <trkpt lat="22.794956" lon="109.958030">
        <ele>139.040966</ele>
        <time>2026-08-16T01:51:31.000Z</time>
      </trkpt>
      <trkpt lat="22.794942" lon="109.958087">
        <ele>138.951626</ele>
        <time>2026-08-16T01:51:32.000Z</time>
      </trkpt>
      <trkpt lat="22.794927" lon="109.958144">
        <ele>138.861848</ele>
        <time>2026-08-16T01:51:33.000Z</time>
      </trkpt>
      <trkpt lat="22.794910" lon="109.958199">
        <ele>138.773991</ele>
        <time>2026-08-16T01:51:34.000Z</time>
      </trkpt>
      <trkpt lat="22.794895" lon="109.958257">
        <ele>138.682756</ele>
        <time>2026-08-16T01:51:35.000Z</time>
      </trkpt>
      <trkpt lat="22.794880" lon="109.958320">
        <ele>138.584209</ele>
        <time>2026-08-16T01:51:36.000Z</time>
      </trkpt>
      <trkpt lat="22.794864" lon="109.958385">
        <ele>138.482314</ele>
        <time>2026-08-16T01:51:37.000Z</time>
      </trkpt>
      <trkpt lat="22.794850" lon="109.958450">
        <ele>138.381217</ele>
        <time>2026-08-16T01:51:38.000Z</time>
      </trkpt>
      <trkpt lat="22.794838" lon="109.958515">
        <ele>138.280817</ele>
        <time>2026-08-16T01:51:39.000Z</time>
      </trkpt>
      <trkpt lat="22.794825" lon="109.958580">
        <ele>138.180082</ele>
        <time>2026-08-16T01:51:40.000Z</time>
      </trkpt>
      <trkpt lat="22.794814" lon="109.958645">
        <ele>138.079991</ele>
        <time>2026-08-16T01:51:41.000Z</time>
      </trkpt>
      <trkpt lat="22.794801" lon="109.958706">
        <ele>137.985167</ele>
        <time>2026-08-16T01:51:42.000Z</time>
      </trkpt>
      <trkpt lat="22.794789" lon="109.958766">
        <ele>137.892180</ele>
        <time>2026-08-16T01:51:43.000Z</time>
      </trkpt>
      <trkpt lat="22.794780" lon="109.958829">
        <ele>137.795625</ele>
        <time>2026-08-16T01:51:44.000Z</time>
      </trkpt>
      <trkpt lat="22.794773" lon="109.958893">
        <ele>137.698014</ele>
        <time>2026-08-16T01:51:45.000Z</time>
      </trkpt>
      <trkpt lat="22.794763" lon="109.958958">
        <ele>137.598207</ele>
        <time>2026-08-16T01:51:46.000Z</time>
      </trkpt>
      <trkpt lat="22.794755" lon="109.959023">
        <ele>137.498888</ele>
        <time>2026-08-16T01:51:47.000Z</time>
      </trkpt>
      <trkpt lat="22.794748" lon="109.959087">
        <ele>137.401277</ele>
        <time>2026-08-16T01:51:48.000Z</time>
      </trkpt>
      <trkpt lat="22.794741" lon="109.959154">
        <ele>137.299153</ele>
        <time>2026-08-16T01:51:49.000Z</time>
      </trkpt>
      <trkpt lat="22.794732" lon="109.959219">
        <ele>137.199603</ele>
        <time>2026-08-16T01:51:50.000Z</time>
      </trkpt>
      <trkpt lat="22.794724" lon="109.959285">
        <ele>137.098782</ele>
        <time>2026-08-16T01:51:51.000Z</time>
      </trkpt>
      <trkpt lat="22.794716" lon="109.959351">
        <ele>136.997961</ele>
        <time>2026-08-16T01:51:52.000Z</time>
      </trkpt>
      <trkpt lat="22.794706" lon="109.959414">
        <ele>136.901141</ele>
        <time>2026-08-16T01:51:53.000Z</time>
      </trkpt>
      <trkpt lat="22.794694" lon="109.959479">
        <ele>136.800741</ele>
        <time>2026-08-16T01:51:54.000Z</time>
      </trkpt>
      <trkpt lat="22.794682" lon="109.959542">
        <ele>136.703309</ele>
        <time>2026-08-16T01:51:55.000Z</time>
      </trkpt>
      <trkpt lat="22.794668" lon="109.959605">
        <ele>136.605159</ele>
        <time>2026-08-16T01:51:56.000Z</time>
      </trkpt>
      <trkpt lat="22.794655" lon="109.959666">
        <ele>136.510335</ele>
        <time>2026-08-16T01:51:57.000Z</time>
      </trkpt>
      <trkpt lat="22.794641" lon="109.959726">
        <ele>136.416596</ele>
        <time>2026-08-16T01:51:58.000Z</time>
      </trkpt>
      <trkpt lat="22.794628" lon="109.959787">
        <ele>136.321772</ele>
        <time>2026-08-16T01:51:59.000Z</time>
      </trkpt>
      <trkpt lat="22.794615" lon="109.959851">
        <ele>136.235948</ele>
        <time>2026-08-16T01:52:00.000Z</time>
      </trkpt>
      <trkpt lat="22.794601" lon="109.959914">
        <ele>136.207815</ele>
        <time>2026-08-16T01:52:01.000Z</time>
      </trkpt>
      <trkpt lat="22.794585" lon="109.959976">
        <ele>136.179865</ele>
        <time>2026-08-16T01:52:02.000Z</time>
      </trkpt>
      <trkpt lat="22.794571" lon="109.960040">
        <ele>136.151310</ele>
        <time>2026-08-16T01:52:03.000Z</time>
      </trkpt>
      <trkpt lat="22.794556" lon="109.960101">
        <ele>136.123902</ele>
        <time>2026-08-16T01:52:04.000Z</time>
      </trkpt>
      <trkpt lat="22.794540" lon="109.960162">
        <ele>136.096370</ele>
        <time>2026-08-16T01:52:05.000Z</time>
      </trkpt>
      <trkpt lat="22.794525" lon="109.960222">
        <ele>136.069381</ele>
        <time>2026-08-16T01:52:06.000Z</time>
      </trkpt>
      <trkpt lat="22.794513" lon="109.960282">
        <ele>136.042728</ele>
        <time>2026-08-16T01:52:07.000Z</time>
      </trkpt>
      <trkpt lat="22.794503" lon="109.960341">
        <ele>136.016685</ele>
        <time>2026-08-16T01:52:08.000Z</time>
      </trkpt>
      <trkpt lat="22.794491" lon="109.960402">
        <ele>135.989608</ele>
        <time>2026-08-16T01:52:09.000Z</time>
      </trkpt>
      <trkpt lat="22.794474" lon="109.960461">
        <ele>135.962772</ele>
        <time>2026-08-16T01:52:10.000Z</time>
      </trkpt>
      <trkpt lat="22.794459" lon="109.960520">
        <ele>135.936203</ele>
        <time>2026-08-16T01:52:11.000Z</time>
      </trkpt>
      <trkpt lat="22.794443" lon="109.960579">
        <ele>135.909504</ele>
        <time>2026-08-16T01:52:12.000Z</time>
      </trkpt>
      <trkpt lat="22.794431" lon="109.960638">
        <ele>135.883275</ele>
        <time>2026-08-16T01:52:13.000Z</time>
      </trkpt>
      <trkpt lat="22.794418" lon="109.960695">
        <ele>135.857784</ele>
        <time>2026-08-16T01:52:14.000Z</time>
      </trkpt>
      <trkpt lat="22.794404" lon="109.960752">
        <ele>135.832176</ele>
        <time>2026-08-16T01:52:15.000Z</time>
      </trkpt>
      <trkpt lat="22.794388" lon="109.960808">
        <ele>135.806724</ele>
        <time>2026-08-16T01:52:16.000Z</time>
      </trkpt>
      <trkpt lat="22.794374" lon="109.960866">
        <ele>135.780696</ele>
        <time>2026-08-16T01:52:17.000Z</time>
      </trkpt>
      <trkpt lat="22.794360" lon="109.960923">
        <ele>135.755088</ele>
        <time>2026-08-16T01:52:18.000Z</time>
      </trkpt>
      <trkpt lat="22.794343" lon="109.960979">
        <ele>135.729492</ele>
        <time>2026-08-16T01:52:19.000Z</time>
      </trkpt>
      <trkpt lat="22.794326" lon="109.961036">
        <ele>135.703485</ele>
        <time>2026-08-16T01:52:20.000Z</time>
      </trkpt>
      <trkpt lat="22.794310" lon="109.961095">
        <ele>135.676786</ele>
        <time>2026-08-16T01:52:21.000Z</time>
      </trkpt>
      <trkpt lat="22.794295" lon="109.961151">
        <ele>135.651470</ele>
        <time>2026-08-16T01:52:22.000Z</time>
      </trkpt>
      <trkpt lat="22.794283" lon="109.961208">
        <ele>135.626088</ele>
        <time>2026-08-16T01:52:23.000Z</time>
      </trkpt>
      <trkpt lat="22.794270" lon="109.961263">
        <ele>135.601438</ele>
        <time>2026-08-16T01:52:24.000Z</time>
      </trkpt>
      <trkpt lat="22.794259" lon="109.961320">
        <ele>135.576157</ele>
        <time>2026-08-16T01:52:25.000Z</time>
      </trkpt>
      <trkpt lat="22.794244" lon="109.961375">
        <ele>135.551257</ele>
        <time>2026-08-16T01:52:26.000Z</time>
      </trkpt>
      <trkpt lat="22.794230" lon="109.961432">
        <ele>135.525649</ele>
        <time>2026-08-16T01:52:27.000Z</time>
      </trkpt>
      <trkpt lat="22.794218" lon="109.961485">
        <ele>135.501956</ele>
        <time>2026-08-16T01:52:28.000Z</time>
      </trkpt>
      <trkpt lat="22.794202" lon="109.961527">
        <ele>135.482228</ele>
        <time>2026-08-16T01:52:29.000Z</time>
      </trkpt>
      <trkpt lat="22.794190" lon="109.961574">
        <ele>135.461056</ele>
        <time>2026-08-16T01:52:30.000Z</time>
      </trkpt>
      <trkpt lat="22.794180" lon="109.961628">
        <ele>135.437145</ele>
        <time>2026-08-16T01:52:31.000Z</time>
      </trkpt>
      <trkpt lat="22.794166" lon="109.961682">
        <ele>135.412793</ele>
        <time>2026-08-16T01:52:32.000Z</time>
      </trkpt>
      <trkpt lat="22.794151" lon="109.961734">
        <ele>135.382844</ele>
        <time>2026-08-16T01:52:33.000Z</time>
      </trkpt>
      <trkpt lat="22.794134" lon="109.961785">
        <ele>135.330923</ele>
        <time>2026-08-16T01:52:34.000Z</time>
      </trkpt>
      <trkpt lat="22.794123" lon="109.961838">
        <ele>135.278912</ele>
        <time>2026-08-16T01:52:35.000Z</time>
      </trkpt>
      <trkpt lat="22.794111" lon="109.961887">
        <ele>135.230373</ele>
        <time>2026-08-16T01:52:36.000Z</time>
      </trkpt>
      <trkpt lat="22.794100" lon="109.961940">
        <ele>135.178361</ele>
        <time>2026-08-16T01:52:37.000Z</time>
      </trkpt>
      <trkpt lat="22.794080" lon="109.961985">
        <ele>135.130533</ele>
        <time>2026-08-16T01:52:38.000Z</time>
      </trkpt>
      <trkpt lat="22.794065" lon="109.962036">
        <ele>135.079282</ele>
        <time>2026-08-16T01:52:39.000Z</time>
      </trkpt>
      <trkpt lat="22.794051" lon="109.962090">
        <ele>135.025577</ele>
        <time>2026-08-16T01:52:40.000Z</time>
      </trkpt>
      <trkpt lat="22.794038" lon="109.962149">
        <ele>134.967500</ele>
        <time>2026-08-16T01:52:41.000Z</time>
      </trkpt>
      <trkpt lat="22.794025" lon="109.962210">
        <ele>134.907559</ele>
        <time>2026-08-16T01:52:42.000Z</time>
      </trkpt>
      <trkpt lat="22.794010" lon="109.962268">
        <ele>134.849887</ele>
        <time>2026-08-16T01:52:43.000Z</time>
      </trkpt>
      <trkpt lat="22.793996" lon="109.962330">
        <ele>134.788774</ele>
        <time>2026-08-16T01:52:44.000Z</time>
      </trkpt>
      <trkpt lat="22.793981" lon="109.962391">
        <ele>134.728331</ele>
        <time>2026-08-16T01:52:45.000Z</time>
      </trkpt>
      <trkpt lat="22.793965" lon="109.962451">
        <ele>134.668533</ele>
        <time>2026-08-16T01:52:46.000Z</time>
      </trkpt>
      <trkpt lat="22.793951" lon="109.962513">
        <ele>134.607420</ele>
        <time>2026-08-16T01:52:47.000Z</time>
      </trkpt>
      <trkpt lat="22.793942" lon="109.962573">
        <ele>134.549221</ele>
        <time>2026-08-16T01:52:48.000Z</time>
      </trkpt>
      <trkpt lat="22.793931" lon="109.962625">
        <ele>134.498143</ele>
        <time>2026-08-16T01:52:49.000Z</time>
      </trkpt>
      <trkpt lat="22.793917" lon="109.962689">
        <ele>134.435169</ele>
        <time>2026-08-16T01:52:50.000Z</time>
      </trkpt>
      <trkpt lat="22.793905" lon="109.962752">
        <ele>134.373579</ele>
        <time>2026-08-16T01:52:51.000Z</time>
      </trkpt>
      <trkpt lat="22.793893" lon="109.962815">
        <ele>134.311989</ele>
        <time>2026-08-16T01:52:52.000Z</time>
      </trkpt>
      <trkpt lat="22.793881" lon="109.962878">
        <ele>134.250400</ele>
        <time>2026-08-16T01:52:53.000Z</time>
      </trkpt>
      <trkpt lat="22.793868" lon="109.962939">
        <ele>134.190459</ele>
        <time>2026-08-16T01:52:54.000Z</time>
      </trkpt>
      <trkpt lat="22.793854" lon="109.963001">
        <ele>134.129346</ele>
        <time>2026-08-16T01:52:55.000Z</time>
      </trkpt>
      <trkpt lat="22.793835" lon="109.963063">
        <ele>134.066794</ele>
        <time>2026-08-16T01:52:56.000Z</time>
      </trkpt>
      <trkpt lat="22.793819" lon="109.963127">
        <ele>134.003308</ele>
        <time>2026-08-16T01:52:57.000Z</time>
      </trkpt>
      <trkpt lat="22.793804" lon="109.963189">
        <ele>133.941940</ele>
        <time>2026-08-16T01:52:58.000Z</time>
      </trkpt>
      <trkpt lat="22.793792" lon="109.963254">
        <ele>133.878474</ele>
        <time>2026-08-16T01:52:59.000Z</time>
      </trkpt>
      <trkpt lat="22.793781" lon="109.963320">
        <ele>133.814261</ele>
        <time>2026-08-16T01:53:00.000Z</time>
      </trkpt>
      <trkpt lat="22.793770" lon="109.963383">
        <ele>133.752873</ele>
        <time>2026-08-16T01:53:01.000Z</time>
      </trkpt>
      <trkpt lat="22.793758" lon="109.963447">
        <ele>133.690346</ele>
        <time>2026-08-16T01:53:02.000Z</time>
      </trkpt>
      <trkpt lat="22.793747" lon="109.963509">
        <ele>133.629898</ele>
        <time>2026-08-16T01:53:03.000Z</time>
      </trkpt>
      <trkpt lat="22.793733" lon="109.963574">
        <ele>133.565992</ele>
        <time>2026-08-16T01:53:04.000Z</time>
      </trkpt>
      <trkpt lat="22.793721" lon="109.963636">
        <ele>133.504418</ele>
        <time>2026-08-16T01:53:05.000Z</time>
      </trkpt>
      <trkpt lat="22.793711" lon="109.963699">
        <ele>133.440546</ele>
        <time>2026-08-16T01:53:06.000Z</time>
      </trkpt>
      <trkpt lat="22.793698" lon="109.963761">
        <ele>133.377017</ele>
        <time>2026-08-16T01:53:07.000Z</time>
      </trkpt>
      <trkpt lat="22.793687" lon="109.963822">
        <ele>133.314915</ele>
        <time>2026-08-16T01:53:08.000Z</time>
      </trkpt>
      <trkpt lat="22.793677" lon="109.963884">
        <ele>133.252027</ele>
        <time>2026-08-16T01:53:09.000Z</time>
      </trkpt>
      <trkpt lat="22.793666" lon="109.963948">
        <ele>133.186981</ele>
        <time>2026-08-16T01:53:10.000Z</time>
      </trkpt>
      <trkpt lat="22.793653" lon="109.964010">
        <ele>133.123452</ele>
        <time>2026-08-16T01:53:11.000Z</time>
      </trkpt>
      <trkpt lat="22.793637" lon="109.964072">
        <ele>133.059124</ele>
        <time>2026-08-16T01:53:12.000Z</time>
      </trkpt>
      <trkpt lat="22.793622" lon="109.964133">
        <ele>132.996046</ele>
        <time>2026-08-16T01:53:13.000Z</time>
      </trkpt>
      <trkpt lat="22.793605" lon="109.964196">
        <ele>132.930459</ele>
        <time>2026-08-16T01:53:14.000Z</time>
      </trkpt>
      <trkpt lat="22.793589" lon="109.964260">
        <ele>132.864205</ele>
        <time>2026-08-16T01:53:15.000Z</time>
      </trkpt>
      <trkpt lat="22.793577" lon="109.964326">
        <ele>132.796992</ele>
        <time>2026-08-16T01:53:16.000Z</time>
      </trkpt>
      <trkpt lat="22.793566" lon="109.964395">
        <ele>132.727028</ele>
        <time>2026-08-16T01:53:17.000Z</time>
      </trkpt>
      <trkpt lat="22.793553" lon="109.964462">
        <ele>132.658619</ele>
        <time>2026-08-16T01:53:18.000Z</time>
      </trkpt>
      <trkpt lat="22.793542" lon="109.964530">
        <ele>132.589639</ele>
        <time>2026-08-16T01:53:19.000Z</time>
      </trkpt>
      <trkpt lat="22.793528" lon="109.964596">
        <ele>132.521973</ele>
        <time>2026-08-16T01:53:20.000Z</time>
      </trkpt>
      <trkpt lat="22.793513" lon="109.964661">
        <ele>132.455025</ele>
        <time>2026-08-16T01:53:21.000Z</time>
      </trkpt>
      <trkpt lat="22.793499" lon="109.964726">
        <ele>132.388332</ele>
        <time>2026-08-16T01:53:22.000Z</time>
      </trkpt>
      <trkpt lat="22.793486" lon="109.964792">
        <ele>132.320901</ele>
        <time>2026-08-16T01:53:23.000Z</time>
      </trkpt>
      <trkpt lat="22.793475" lon="109.964858">
        <ele>132.253889</ele>
        <time>2026-08-16T01:53:24.000Z</time>
      </trkpt>
      <trkpt lat="22.793465" lon="109.964923">
        <ele>132.188047</ele>
        <time>2026-08-16T01:53:25.000Z</time>
      </trkpt>
      <trkpt lat="22.793455" lon="109.964987">
        <ele>132.123190</ele>
        <time>2026-08-16T01:53:26.000Z</time>
      </trkpt>
      <trkpt lat="22.793443" lon="109.965051">
        <ele>132.057936</ele>
        <time>2026-08-16T01:53:27.000Z</time>
      </trkpt>
      <trkpt lat="22.793427" lon="109.965118">
        <ele>131.988784</ele>
        <time>2026-08-16T01:53:28.000Z</time>
      </trkpt>
      <trkpt lat="22.793410" lon="109.965187">
        <ele>131.917424</ele>
        <time>2026-08-16T01:53:29.000Z</time>
      </trkpt>
      <trkpt lat="22.793393" lon="109.965254">
        <ele>131.847992</ele>
        <time>2026-08-16T01:53:30.000Z</time>
      </trkpt>
      <trkpt lat="22.793374" lon="109.965317">
        <ele>131.781764</ele>
        <time>2026-08-16T01:53:31.000Z</time>
      </trkpt>
      <trkpt lat="22.793357" lon="109.965380">
        <ele>131.716177</ele>
        <time>2026-08-16T01:53:32.000Z</time>
      </trkpt>
      <trkpt lat="22.793341" lon="109.965444">
        <ele>131.649922</ele>
        <time>2026-08-16T01:53:33.000Z</time>
      </trkpt>
      <trkpt lat="22.793324" lon="109.965505">
        <ele>131.586251</ele>
        <time>2026-08-16T01:53:34.000Z</time>
      </trkpt>
      <trkpt lat="22.793307" lon="109.965571">
        <ele>131.561661</ele>
        <time>2026-08-16T01:53:35.000Z</time>
      </trkpt>
      <trkpt lat="22.793289" lon="109.965637">
        <ele>131.543713</ele>
        <time>2026-08-16T01:53:36.000Z</time>
      </trkpt>
      <trkpt lat="22.793271" lon="109.965702">
        <ele>131.526014</ele>
        <time>2026-08-16T01:53:37.000Z</time>
      </trkpt>
      <trkpt lat="22.793251" lon="109.965764">
        <ele>131.508886</ele>
        <time>2026-08-16T01:53:38.000Z</time>
      </trkpt>
      <trkpt lat="22.793232" lon="109.965829">
        <ele>131.491104</ele>
        <time>2026-08-16T01:53:39.000Z</time>
      </trkpt>
      <trkpt lat="22.793215" lon="109.965895">
        <ele>131.473234</ele>
        <time>2026-08-16T01:53:40.000Z</time>
      </trkpt>
      <trkpt lat="22.793195" lon="109.965958">
        <ele>131.455858</ele>
        <time>2026-08-16T01:53:41.000Z</time>
      </trkpt>
      <trkpt lat="22.793177" lon="109.966023">
        <ele>131.438160</ele>
        <time>2026-08-16T01:53:42.000Z</time>
      </trkpt>
      <trkpt lat="22.793159" lon="109.966087">
        <ele>131.420711</ele>
        <time>2026-08-16T01:53:43.000Z</time>
      </trkpt>
      <trkpt lat="22.793139" lon="109.966150">
        <ele>131.403336</ele>
        <time>2026-08-16T01:53:44.000Z</time>
      </trkpt>
      <trkpt lat="22.793121" lon="109.966210">
        <ele>131.386882</ele>
        <time>2026-08-16T01:53:45.000Z</time>
      </trkpt>
      <trkpt lat="22.793104" lon="109.966269">
        <ele>131.370763</ele>
        <time>2026-08-16T01:53:46.000Z</time>
      </trkpt>
      <trkpt lat="22.793088" lon="109.966319">
        <ele>131.356961</ele>
        <time>2026-08-16T01:53:47.000Z</time>
      </trkpt>
      <trkpt lat="22.793066" lon="109.966373">
        <ele>131.341566</ele>
        <time>2026-08-16T01:53:48.000Z</time>
      </trkpt>
      <trkpt lat="22.793045" lon="109.966434">
        <ele>131.324586</ele>
        <time>2026-08-16T01:53:49.000Z</time>
      </trkpt>
      <trkpt lat="22.793029" lon="109.966492">
        <ele>131.308798</ele>
        <time>2026-08-16T01:53:50.000Z</time>
      </trkpt>
      <trkpt lat="22.793015" lon="109.966553">
        <ele>131.292406</ele>
        <time>2026-08-16T01:53:51.000Z</time>
      </trkpt>
      <trkpt lat="22.793002" lon="109.966611">
        <ele>131.276840</ele>
        <time>2026-08-16T01:53:52.000Z</time>
      </trkpt>
      <trkpt lat="22.792990" lon="109.966669">
        <ele>131.261339</ele>
        <time>2026-08-16T01:53:53.000Z</time>
      </trkpt>
      <trkpt lat="22.792978" lon="109.966726">
        <ele>131.246093</ele>
        <time>2026-08-16T01:53:54.000Z</time>
      </trkpt>
      <trkpt lat="22.792972" lon="109.966785">
        <ele>131.230614</ele>
        <time>2026-08-16T01:53:55.000Z</time>
      </trkpt>
      <trkpt lat="22.792971" lon="109.966843">
        <ele>131.215486</ele>
        <time>2026-08-16T01:53:56.000Z</time>
      </trkpt>
      <trkpt lat="22.792974" lon="109.966901">
        <ele>131.200338</ele>
        <time>2026-08-16T01:53:57.000Z</time>
      </trkpt>
      <trkpt lat="22.792981" lon="109.966961">
        <ele>131.184567</ele>
        <time>2026-08-16T01:53:58.000Z</time>
      </trkpt>
      <trkpt lat="22.792992" lon="109.967019">
        <ele>131.169125</ele>
        <time>2026-08-16T01:53:59.000Z</time>
      </trkpt>
      <trkpt lat="22.792999" lon="109.967075">
        <ele>131.154388</ele>
        <time>2026-08-16T01:54:00.000Z</time>
      </trkpt>
      <trkpt lat="22.793002" lon="109.967134">
        <ele>131.138980</ele>
        <time>2026-08-16T01:54:01.000Z</time>
      </trkpt>
      <trkpt lat="22.793007" lon="109.967194">
        <ele>131.123269</ele>
        <time>2026-08-16T01:54:02.000Z</time>
      </trkpt>
      <trkpt lat="22.793011" lon="109.967255">
        <ele>131.107322</ele>
        <time>2026-08-16T01:54:03.000Z</time>
      </trkpt>
      <trkpt lat="22.793016" lon="109.967314">
        <ele>131.091872</ele>
        <time>2026-08-16T01:54:04.000Z</time>
      </trkpt>
      <trkpt lat="22.793018" lon="109.967371">
        <ele>131.076997</ele>
        <time>2026-08-16T01:54:05.000Z</time>
      </trkpt>
      <trkpt lat="22.793016" lon="109.967428">
        <ele>131.051317</ele>
        <time>2026-08-16T01:54:06.000Z</time>
      </trkpt>
      <trkpt lat="22.793010" lon="109.967484">
        <ele>131.011284</ele>
        <time>2026-08-16T01:54:07.000Z</time>
      </trkpt>
      <trkpt lat="22.793004" lon="109.967543">
        <ele>130.969134</ele>
        <time>2026-08-16T01:54:08.000Z</time>
      </trkpt>
      <trkpt lat="22.792995" lon="109.967599">
        <ele>130.928769</ele>
        <time>2026-08-16T01:54:09.000Z</time>
      </trkpt>
      <trkpt lat="22.792985" lon="109.967658">
        <ele>130.886171</ele>
        <time>2026-08-16T01:54:10.000Z</time>
      </trkpt>
      <trkpt lat="22.792976" lon="109.967719">
        <ele>130.842304</ele>
        <time>2026-08-16T01:54:11.000Z</time>
      </trkpt>
      <trkpt lat="22.792963" lon="109.967780">
        <ele>130.797845</ele>
        <time>2026-08-16T01:54:12.000Z</time>
      </trkpt>
      <trkpt lat="22.792950" lon="109.967842">
        <ele>130.752695</ele>
        <time>2026-08-16T01:54:13.000Z</time>
      </trkpt>
      <trkpt lat="22.792935" lon="109.967904">
        <ele>130.707178</ele>
        <time>2026-08-16T01:54:14.000Z</time>
      </trkpt>
      <trkpt lat="22.792919" lon="109.967967">
        <ele>130.660775</ele>
        <time>2026-08-16T01:54:15.000Z</time>
      </trkpt>
      <trkpt lat="22.792901" lon="109.968026">
        <ele>130.616645</ele>
        <time>2026-08-16T01:54:16.000Z</time>
      </trkpt>
      <trkpt lat="22.792885" lon="109.968087">
        <ele>130.571610</ele>
        <time>2026-08-16T01:54:17.000Z</time>
      </trkpt>
      <trkpt lat="22.792870" lon="109.968148">
        <ele>130.526780</ele>
        <time>2026-08-16T01:54:18.000Z</time>
      </trkpt>
      <trkpt lat="22.792857" lon="109.968211">
        <ele>130.480937</ele>
        <time>2026-08-16T01:54:19.000Z</time>
      </trkpt>
      <trkpt lat="22.792846" lon="109.968273">
        <ele>130.436103</ele>
        <time>2026-08-16T01:54:20.000Z</time>
      </trkpt>
      <trkpt lat="22.792833" lon="109.968334">
        <ele>130.391644</ele>
        <time>2026-08-16T01:54:21.000Z</time>
      </trkpt>
      <trkpt lat="22.792821" lon="109.968396">
        <ele>130.346658</ele>
        <time>2026-08-16T01:54:22.000Z</time>
      </trkpt>
      <trkpt lat="22.792808" lon="109.968454">
        <ele>130.304273</ele>
        <time>2026-08-16T01:54:23.000Z</time>
      </trkpt>
      <trkpt lat="22.792796" lon="109.968513">
        <ele>130.261370</ele>
        <time>2026-08-16T01:54:24.000Z</time>
      </trkpt>
      <trkpt lat="22.792783" lon="109.968572">
        <ele>130.218294</ele>
        <time>2026-08-16T01:54:25.000Z</time>
      </trkpt>
      <trkpt lat="22.792771" lon="109.968631">
        <ele>130.175390</ele>
        <time>2026-08-16T01:54:26.000Z</time>
      </trkpt>
      <trkpt lat="22.792759" lon="109.968690">
        <ele>130.132487</ele>
        <time>2026-08-16T01:54:27.000Z</time>
      </trkpt>
      <trkpt lat="22.792746" lon="109.968749">
        <ele>130.089411</ele>
        <time>2026-08-16T01:54:28.000Z</time>
      </trkpt>
      <trkpt lat="22.792735" lon="109.968809">
        <ele>130.045971</ele>
        <time>2026-08-16T01:54:29.000Z</time>
      </trkpt>
      <trkpt lat="22.792723" lon="109.968869">
        <ele>130.002374</ele>
        <time>2026-08-16T01:54:30.000Z</time>
      </trkpt>
      <trkpt lat="22.792709" lon="109.968925">
        <ele>129.961172</ele>
        <time>2026-08-16T01:54:31.000Z</time>
      </trkpt>
      <trkpt lat="22.792697" lon="109.968985">
        <ele>129.917575</ele>
        <time>2026-08-16T01:54:32.000Z</time>
      </trkpt>
      <trkpt lat="22.792682" lon="109.969042">
        <ele>129.875483</ele>
        <time>2026-08-16T01:54:33.000Z</time>
      </trkpt>
      <trkpt lat="22.792666" lon="109.969100">
        <ele>129.832493</ele>
        <time>2026-08-16T01:54:34.000Z</time>
      </trkpt>
      <trkpt lat="22.792650" lon="109.969161">
        <ele>129.787458</ele>
        <time>2026-08-16T01:54:35.000Z</time>
      </trkpt>
      <trkpt lat="22.792634" lon="109.969218">
        <ele>129.745147</ele>
        <time>2026-08-16T01:54:36.000Z</time>
      </trkpt>
      <trkpt lat="22.792619" lon="109.969274">
        <ele>129.703737</ele>
        <time>2026-08-16T01:54:37.000Z</time>
      </trkpt>
      <trkpt lat="22.792605" lon="109.969330">
        <ele>129.670628</ele>
        <time>2026-08-16T01:54:38.000Z</time>
      </trkpt>
      <trkpt lat="22.792589" lon="109.969385">
        <ele>129.645873</ele>
        <time>2026-08-16T01:54:39.000Z</time>
      </trkpt>
      <trkpt lat="22.792572" lon="109.969438">
        <ele>129.621786</ele>
        <time>2026-08-16T01:54:40.000Z</time>
      </trkpt>
      <trkpt lat="22.792554" lon="109.969492">
        <ele>129.597139</ele>
        <time>2026-08-16T01:54:41.000Z</time>
      </trkpt>
      <trkpt lat="22.792536" lon="109.969548">
        <ele>129.571683</ele>
        <time>2026-08-16T01:54:42.000Z</time>
      </trkpt>
      <trkpt lat="22.792519" lon="109.969604">
        <ele>129.546376</ele>
        <time>2026-08-16T01:54:43.000Z</time>
      </trkpt>
      <trkpt lat="22.792502" lon="109.969663">
        <ele>129.519843</ele>
        <time>2026-08-16T01:54:44.000Z</time>
      </trkpt>
      <trkpt lat="22.792485" lon="109.969725">
        <ele>129.492079</ele>
        <time>2026-08-16T01:54:45.000Z</time>
      </trkpt>
      <trkpt lat="22.792469" lon="109.969787">
        <ele>129.464444</ele>
        <time>2026-08-16T01:54:46.000Z</time>
      </trkpt>
      <trkpt lat="22.792450" lon="109.969848">
        <ele>129.436806</ele>
        <time>2026-08-16T01:54:47.000Z</time>
      </trkpt>
      <trkpt lat="22.792433" lon="109.969908">
        <ele>129.409864</ele>
        <time>2026-08-16T01:54:48.000Z</time>
      </trkpt>
      <trkpt lat="22.792417" lon="109.969967">
        <ele>129.383466</ele>
        <time>2026-08-16T01:54:49.000Z</time>
      </trkpt>
      <trkpt lat="22.792402" lon="109.970023">
        <ele>129.358435</ele>
        <time>2026-08-16T01:54:50.000Z</time>
      </trkpt>
      <trkpt lat="22.792386" lon="109.970082">
        <ele>129.332037</ele>
        <time>2026-08-16T01:54:51.000Z</time>
      </trkpt>
      <trkpt lat="22.792371" lon="109.970141">
        <ele>129.305767</ele>
        <time>2026-08-16T01:54:52.000Z</time>
      </trkpt>
      <trkpt lat="22.792357" lon="109.970199">
        <ele>129.280033</ele>
        <time>2026-08-16T01:54:53.000Z</time>
      </trkpt>
      <trkpt lat="22.792341" lon="109.970256">
        <ele>129.254457</ele>
        <time>2026-08-16T01:54:54.000Z</time>
      </trkpt>
      <trkpt lat="22.792325" lon="109.970315">
        <ele>129.228060</ele>
        <time>2026-08-16T01:54:55.000Z</time>
      </trkpt>
      <trkpt lat="22.792308" lon="109.970372">
        <ele>129.202345</ele>
        <time>2026-08-16T01:54:56.000Z</time>
      </trkpt>
      <trkpt lat="22.792291" lon="109.970429">
        <ele>129.176630</ele>
        <time>2026-08-16T01:54:57.000Z</time>
      </trkpt>
      <trkpt lat="22.792275" lon="109.970488">
        <ele>129.150233</ele>
        <time>2026-08-16T01:54:58.000Z</time>
      </trkpt>
      <trkpt lat="22.792261" lon="109.970548">
        <ele>129.123667</ele>
        <time>2026-08-16T01:54:59.000Z</time>
      </trkpt>
      <trkpt lat="22.792245" lon="109.970606">
        <ele>129.097681</ele>
        <time>2026-08-16T01:55:00.000Z</time>
      </trkpt>
      <trkpt lat="22.792229" lon="109.970663">
        <ele>129.072105</ele>
        <time>2026-08-16T01:55:01.000Z</time>
      </trkpt>
      <trkpt lat="22.792214" lon="109.970722">
        <ele>129.045835</ele>
        <time>2026-08-16T01:55:02.000Z</time>
      </trkpt>
      <trkpt lat="22.792198" lon="109.970781">
        <ele>129.019438</ele>
        <time>2026-08-16T01:55:03.000Z</time>
      </trkpt>
      <trkpt lat="22.792182" lon="109.970840">
        <ele>128.993040</ele>
        <time>2026-08-16T01:55:04.000Z</time>
      </trkpt>
      <trkpt lat="22.792167" lon="109.970899">
        <ele>128.966770</ele>
        <time>2026-08-16T01:55:05.000Z</time>
      </trkpt>
      <trkpt lat="22.792152" lon="109.970958">
        <ele>128.940500</ele>
        <time>2026-08-16T01:55:06.000Z</time>
      </trkpt>
      <trkpt lat="22.792137" lon="109.971019">
        <ele>128.913401</ele>
        <time>2026-08-16T01:55:07.000Z</time>
      </trkpt>
      <trkpt lat="22.792122" lon="109.971081">
        <ele>128.885888</ele>
        <time>2026-08-16T01:55:08.000Z</time>
      </trkpt>
      <trkpt lat="22.792106" lon="109.971141">
        <ele>128.859078</ele>
        <time>2026-08-16T01:55:09.000Z</time>
      </trkpt>
      <trkpt lat="22.792091" lon="109.971201">
        <ele>128.839275</ele>
        <time>2026-08-16T01:55:10.000Z</time>
      </trkpt>
      <trkpt lat="22.792077" lon="109.971261">
        <ele>128.826585</ele>
        <time>2026-08-16T01:55:11.000Z</time>
      </trkpt>
      <trkpt lat="22.792064" lon="109.971320">
        <ele>128.814146</ele>
        <time>2026-08-16T01:55:12.000Z</time>
      </trkpt>
      <trkpt lat="22.792050" lon="109.971378">
        <ele>128.801853</ele>
        <time>2026-08-16T01:55:13.000Z</time>
      </trkpt>
      <trkpt lat="22.792035" lon="109.971436">
        <ele>128.789502</ele>
        <time>2026-08-16T01:55:14.000Z</time>
      </trkpt>
      <trkpt lat="22.792021" lon="109.971496">
        <ele>128.776811</ele>
        <time>2026-08-16T01:55:15.000Z</time>
      </trkpt>
      <trkpt lat="22.792006" lon="109.971556">
        <ele>128.764064</ele>
        <time>2026-08-16T01:55:16.000Z</time>
      </trkpt>
      <trkpt lat="22.791992" lon="109.971615">
        <ele>128.751573</ele>
        <time>2026-08-16T01:55:17.000Z</time>
      </trkpt>
      <trkpt lat="22.791977" lon="109.971674">
        <ele>128.739024</ele>
        <time>2026-08-16T01:55:18.000Z</time>
      </trkpt>
      <trkpt lat="22.791963" lon="109.971732">
        <ele>128.726730</ele>
        <time>2026-08-16T01:55:19.000Z</time>
      </trkpt>
      <trkpt lat="22.791949" lon="109.971789">
        <ele>128.714635</ele>
        <time>2026-08-16T01:55:20.000Z</time>
      </trkpt>
      <trkpt lat="22.791934" lon="109.971845">
        <ele>128.702678</ele>
        <time>2026-08-16T01:55:21.000Z</time>
      </trkpt>
      <trkpt lat="22.791920" lon="109.971899">
        <ele>128.691176</ele>
        <time>2026-08-16T01:55:22.000Z</time>
      </trkpt>
      <trkpt lat="22.791908" lon="109.971955">
        <ele>128.679388</ele>
        <time>2026-08-16T01:55:23.000Z</time>
      </trkpt>
      <trkpt lat="22.791896" lon="109.972008">
        <ele>128.668198</ele>
        <time>2026-08-16T01:55:24.000Z</time>
      </trkpt>
      <trkpt lat="22.791882" lon="109.972059">
        <ele>128.657287</ele>
        <time>2026-08-16T01:55:25.000Z</time>
      </trkpt>
      <trkpt lat="22.791869" lon="109.972112">
        <ele>128.646042</ele>
        <time>2026-08-16T01:55:26.000Z</time>
      </trkpt>
      <trkpt lat="22.791857" lon="109.972169">
        <ele>128.634053</ele>
        <time>2026-08-16T01:55:27.000Z</time>
      </trkpt>
      <trkpt lat="22.791842" lon="109.972224">
        <ele>128.622293</ele>
        <time>2026-08-16T01:55:28.000Z</time>
      </trkpt>
      <trkpt lat="22.791828" lon="109.972282">
        <ele>128.610000</ele>
        <time>2026-08-16T01:55:29.000Z</time>
      </trkpt>
      <trkpt lat="22.791811" lon="109.972342">
        <ele>128.597129</ele>
        <time>2026-08-16T01:55:30.000Z</time>
      </trkpt>
      <trkpt lat="22.791794" lon="109.972402">
        <ele>128.584259</ele>
        <time>2026-08-16T01:55:31.000Z</time>
      </trkpt>
      <trkpt lat="22.791777" lon="109.972461">
        <ele>128.571584</ele>
        <time>2026-08-16T01:55:32.000Z</time>
      </trkpt>
      <trkpt lat="22.791760" lon="109.972518">
        <ele>128.559300</ele>
        <time>2026-08-16T01:55:33.000Z</time>
      </trkpt>
      <trkpt lat="22.791743" lon="109.972575">
        <ele>128.547017</ele>
        <time>2026-08-16T01:55:34.000Z</time>
      </trkpt>
      <trkpt lat="22.791725" lon="109.972632">
        <ele>128.534663</ele>
        <time>2026-08-16T01:55:35.000Z</time>
      </trkpt>
      <trkpt lat="22.791703" lon="109.972692">
        <ele>128.521423</ele>
        <time>2026-08-16T01:55:36.000Z</time>
      </trkpt>
      <trkpt lat="22.791684" lon="109.972752">
        <ele>128.508415</ele>
        <time>2026-08-16T01:55:37.000Z</time>
      </trkpt>
      <trkpt lat="22.791664" lon="109.972812">
        <ele>128.495333</ele>
        <time>2026-08-16T01:55:38.000Z</time>
      </trkpt>
      <trkpt lat="22.791647" lon="109.972872">
        <ele>128.482462</ele>
        <time>2026-08-16T01:55:39.000Z</time>
      </trkpt>
      <trkpt lat="22.791630" lon="109.972932">
        <ele>128.469592</ele>
        <time>2026-08-16T01:55:40.000Z</time>
      </trkpt>
      <trkpt lat="22.791611" lon="109.972992">
        <ele>128.456584</ele>
        <time>2026-08-16T01:55:41.000Z</time>
      </trkpt>
      <trkpt lat="22.791593" lon="109.973051">
        <ele>128.447418</ele>
        <time>2026-08-16T01:55:42.000Z</time>
      </trkpt>
      <trkpt lat="22.791572" lon="109.973112">
        <ele>128.462247</ele>
        <time>2026-08-16T01:55:43.000Z</time>
      </trkpt>
      <trkpt lat="22.791553" lon="109.973172">
        <ele>128.476695</ele>
        <time>2026-08-16T01:55:44.000Z</time>
      </trkpt>
      <trkpt lat="22.791532" lon="109.973232">
        <ele>128.491310</ele>
        <time>2026-08-16T01:55:45.000Z</time>
      </trkpt>
      <trkpt lat="22.791513" lon="109.973292">
        <ele>128.505758</ele>
        <time>2026-08-16T01:55:46.000Z</time>
      </trkpt>
      <trkpt lat="22.791495" lon="109.973352">
        <ele>128.520128</ele>
        <time>2026-08-16T01:55:47.000Z</time>
      </trkpt>
      <trkpt lat="22.791477" lon="109.973412">
        <ele>128.534497</ele>
        <time>2026-08-16T01:55:48.000Z</time>
      </trkpt>
      <trkpt lat="22.791460" lon="109.973469">
        <ele>128.548141</ele>
        <time>2026-08-16T01:55:49.000Z</time>
      </trkpt>
      <trkpt lat="22.791442" lon="109.973525">
        <ele>128.561647</ele>
        <time>2026-08-16T01:55:50.000Z</time>
      </trkpt>
      <trkpt lat="22.791425" lon="109.973584">
        <ele>128.575724</ele>
        <time>2026-08-16T01:55:51.000Z</time>
      </trkpt>
      <trkpt lat="22.791406" lon="109.973642">
        <ele>128.589742</ele>
        <time>2026-08-16T01:55:52.000Z</time>
      </trkpt>
      <trkpt lat="22.791387" lon="109.973699">
        <ele>128.603546</ele>
        <time>2026-08-16T01:55:53.000Z</time>
      </trkpt>
      <trkpt lat="22.791369" lon="109.973753">
        <ele>128.616623</ele>
        <time>2026-08-16T01:55:54.000Z</time>
      </trkpt>
      <trkpt lat="22.791350" lon="109.973807">
        <ele>128.629786</ele>
        <time>2026-08-16T01:55:55.000Z</time>
      </trkpt>
      <trkpt lat="22.791333" lon="109.973863">
        <ele>128.643213</ele>
        <time>2026-08-16T01:55:56.000Z</time>
      </trkpt>
      <trkpt lat="22.791317" lon="109.973915">
        <ele>128.655697</ele>
        <time>2026-08-16T01:55:57.000Z</time>
      </trkpt>
      <trkpt lat="22.791299" lon="109.973963">
        <ele>128.667498</ele>
        <time>2026-08-16T01:55:58.000Z</time>
      </trkpt>
      <trkpt lat="22.791277" lon="109.974012">
        <ele>128.679911</ele>
        <time>2026-08-16T01:55:59.000Z</time>
      </trkpt>
      <trkpt lat="22.791257" lon="109.974060">
        <ele>128.691907</ele>
        <time>2026-08-16T01:56:00.000Z</time>
      </trkpt>
      <trkpt lat="22.791243" lon="109.974105">
        <ele>128.702723</ele>
        <time>2026-08-16T01:56:01.000Z</time>
      </trkpt>
      <trkpt lat="22.791228" lon="109.974152">
        <ele>128.714050</ele>
        <time>2026-08-16T01:56:02.000Z</time>
      </trkpt>
      <trkpt lat="22.791214" lon="109.974203">
        <ele>128.726168</ele>
        <time>2026-08-16T01:56:03.000Z</time>
      </trkpt>
      <trkpt lat="22.791206" lon="109.974252">
        <ele>128.737501</ele>
        <time>2026-08-16T01:56:04.000Z</time>
      </trkpt>
      <trkpt lat="22.791193" lon="109.974300">
        <ele>128.748894</ele>
        <time>2026-08-16T01:56:05.000Z</time>
      </trkpt>
      <trkpt lat="22.791188" lon="109.974347">
        <ele>128.759669</ele>
        <time>2026-08-16T01:56:06.000Z</time>
      </trkpt>
      <trkpt lat="22.791186" lon="109.974398">
        <ele>128.771294</ele>
        <time>2026-08-16T01:56:07.000Z</time>
      </trkpt>
      <trkpt lat="22.791184" lon="109.974451">
        <ele>128.783374</ele>
        <time>2026-08-16T01:56:08.000Z</time>
      </trkpt>
      <trkpt lat="22.791176" lon="109.974501">
        <ele>128.794932</ele>
        <time>2026-08-16T01:56:09.000Z</time>
      </trkpt>
      <trkpt lat="22.791172" lon="109.974555">
        <ele>128.807269</ele>
        <time>2026-08-16T01:56:10.000Z</time>
      </trkpt>
      <trkpt lat="22.791168" lon="109.974610">
        <ele>128.819834</ele>
        <time>2026-08-16T01:56:11.000Z</time>
      </trkpt>
      <trkpt lat="22.791164" lon="109.974666">
        <ele>128.832625</ele>
        <time>2026-08-16T01:56:12.000Z</time>
      </trkpt>
      <trkpt lat="22.791159" lon="109.974722">
        <ele>128.845438</ele>
        <time>2026-08-16T01:56:13.000Z</time>
      </trkpt>
      <trkpt lat="22.791157" lon="109.974780">
        <ele>128.858656</ele>
        <time>2026-08-16T01:56:14.000Z</time>
      </trkpt>
      <trkpt lat="22.791149" lon="109.974837">
        <ele>128.871787</ele>
        <time>2026-08-16T01:56:15.000Z</time>
      </trkpt>
      <trkpt lat="22.791139" lon="109.974896">
        <ele>128.885449</ele>
        <time>2026-08-16T01:56:16.000Z</time>
      </trkpt>
      <trkpt lat="22.791127" lon="109.974957">
        <ele>128.833669</ele>
        <time>2026-08-16T01:56:17.000Z</time>
      </trkpt>
      <trkpt lat="22.791113" lon="109.975018">
        <ele>128.751667</ele>
        <time>2026-08-16T01:56:18.000Z</time>
      </trkpt>
      <trkpt lat="22.791099" lon="109.975076">
        <ele>128.673457</ele>
        <time>2026-08-16T01:56:19.000Z</time>
      </trkpt>
      <trkpt lat="22.791081" lon="109.975131">
        <ele>128.597324</ele>
        <time>2026-08-16T01:56:20.000Z</time>
      </trkpt>
      <trkpt lat="22.791063" lon="109.975186">
        <ele>128.521191</ele>
        <time>2026-08-16T01:56:21.000Z</time>
      </trkpt>
      <trkpt lat="22.791054" lon="109.975239">
        <ele>128.450890</ele>
        <time>2026-08-16T01:56:22.000Z</time>
      </trkpt>
      <trkpt lat="22.791040" lon="109.975295">
        <ele>128.375201</ele>
        <time>2026-08-16T01:56:23.000Z</time>
      </trkpt>
      <trkpt lat="22.791026" lon="109.975355">
        <ele>128.294464</ele>
        <time>2026-08-16T01:56:24.000Z</time>
      </trkpt>
      <trkpt lat="22.791011" lon="109.975412">
        <ele>128.217139</ele>
        <time>2026-08-16T01:56:25.000Z</time>
      </trkpt>
      <trkpt lat="22.790997" lon="109.975470">
        <ele>128.138929</ele>
        <time>2026-08-16T01:56:26.000Z</time>
      </trkpt>
      <trkpt lat="22.790981" lon="109.975528">
        <ele>128.059954</ele>
        <time>2026-08-16T01:56:27.000Z</time>
      </trkpt>
      <trkpt lat="22.790963" lon="109.975588">
        <ele>127.977646</ele>
        <time>2026-08-16T01:56:28.000Z</time>
      </trkpt>
      <trkpt lat="22.790952" lon="109.975654">
        <ele>127.890154</ele>
        <time>2026-08-16T01:56:29.000Z</time>
      </trkpt>
      <trkpt lat="22.790941" lon="109.975719">
        <ele>127.803946</ele>
        <time>2026-08-16T01:56:30.000Z</time>
      </trkpt>
      <trkpt lat="22.790934" lon="109.975787">
        <ele>127.714690</ele>
        <time>2026-08-16T01:56:31.000Z</time>
      </trkpt>
      <trkpt lat="22.790923" lon="109.975856">
        <ele>127.623345</ele>
        <time>2026-08-16T01:56:32.000Z</time>
      </trkpt>
      <trkpt lat="22.790913" lon="109.975926">
        <ele>127.530941</ele>
        <time>2026-08-16T01:56:33.000Z</time>
      </trkpt>
      <trkpt lat="22.790904" lon="109.975989">
        <ele>127.447778</ele>
        <time>2026-08-16T01:56:34.000Z</time>
      </trkpt>
      <trkpt lat="22.790899" lon="109.976053">
        <ele>127.363992</ele>
        <time>2026-08-16T01:56:35.000Z</time>
      </trkpt>
      <trkpt lat="22.790894" lon="109.976121">
        <ele>127.275005</ele>
        <time>2026-08-16T01:56:36.000Z</time>
      </trkpt>
      <trkpt lat="22.790887" lon="109.976187">
        <ele>127.188342</ele>
        <time>2026-08-16T01:56:37.000Z</time>
      </trkpt>
      <trkpt lat="22.790875" lon="109.976248">
        <ele>127.106977</ele>
        <time>2026-08-16T01:56:38.000Z</time>
      </trkpt>
      <trkpt lat="22.790865" lon="109.976313">
        <ele>127.021013</ele>
        <time>2026-08-16T01:56:39.000Z</time>
      </trkpt>
      <trkpt lat="22.790859" lon="109.976384">
        <ele>126.928006</ele>
        <time>2026-08-16T01:56:40.000Z</time>
      </trkpt>
      <trkpt lat="22.790851" lon="109.976449">
        <ele>126.842462</ele>
        <time>2026-08-16T01:56:41.000Z</time>
      </trkpt>
      <trkpt lat="22.790845" lon="109.976515">
        <ele>126.755949</ele>
        <time>2026-08-16T01:56:42.000Z</time>
      </trkpt>
      <trkpt lat="22.790840" lon="109.976579">
        <ele>126.672163</ele>
        <time>2026-08-16T01:56:43.000Z</time>
      </trkpt>
      <trkpt lat="22.790834" lon="109.976643">
        <ele>126.588245</ele>
        <time>2026-08-16T01:56:44.000Z</time>
      </trkpt>
      <trkpt lat="22.790826" lon="109.976708">
        <ele>126.502702</ele>
        <time>2026-08-16T01:56:45.000Z</time>
      </trkpt>
      <trkpt lat="22.790816" lon="109.976772">
        <ele>126.418024</ele>
        <time>2026-08-16T01:56:46.000Z</time>
      </trkpt>
      <trkpt lat="22.790807" lon="109.976837">
        <ele>126.339720</ele>
        <time>2026-08-16T01:56:47.000Z</time>
      </trkpt>
      <trkpt lat="22.790799" lon="109.976906">
        <ele>126.302715</ele>
        <time>2026-08-16T01:56:48.000Z</time>
      </trkpt>
      <trkpt lat="22.790791" lon="109.976978">
        <ele>126.264126</ele>
        <time>2026-08-16T01:56:49.000Z</time>
      </trkpt>
      <trkpt lat="22.790785" lon="109.977048">
        <ele>126.226717</ele>
        <time>2026-08-16T01:56:50.000Z</time>
      </trkpt>
      <trkpt lat="22.790778" lon="109.977119">
        <ele>126.188722</ele>
        <time>2026-08-16T01:56:51.000Z</time>
      </trkpt>
      <trkpt lat="22.790770" lon="109.977188">
        <ele>126.151717</ele>
        <time>2026-08-16T01:56:52.000Z</time>
      </trkpt>
      <trkpt lat="22.790762" lon="109.977256">
        <ele>126.115241</ele>
        <time>2026-08-16T01:56:53.000Z</time>
      </trkpt>
      <trkpt lat="22.790755" lon="109.977323">
        <ele>126.079361</ele>
        <time>2026-08-16T01:56:54.000Z</time>
      </trkpt>
      <trkpt lat="22.790745" lon="109.977389">
        <ele>126.043771</ele>
        <time>2026-08-16T01:56:55.000Z</time>
      </trkpt>
      <trkpt lat="22.790737" lon="109.977455">
        <ele>126.008349</ele>
        <time>2026-08-16T01:56:56.000Z</time>
      </trkpt>
      <trkpt lat="22.790728" lon="109.977518">
        <ele>125.974426</ele>
        <time>2026-08-16T01:56:57.000Z</time>
      </trkpt>
      <trkpt lat="22.790719" lon="109.977582">
        <ele>125.939977</ele>
        <time>2026-08-16T01:56:58.000Z</time>
      </trkpt>
      <trkpt lat="22.790712" lon="109.977643">
        <ele>125.907268</ele>
        <time>2026-08-16T01:56:59.000Z</time>
      </trkpt>
      <trkpt lat="22.790705" lon="109.977704">
        <ele>125.874559</ele>
        <time>2026-08-16T01:57:00.000Z</time>
      </trkpt>
      <trkpt lat="22.790697" lon="109.977765">
        <ele>125.841773</ele>
        <time>2026-08-16T01:57:01.000Z</time>
      </trkpt>
      <trkpt lat="22.790689" lon="109.977826">
        <ele>125.808988</ele>
        <time>2026-08-16T01:57:02.000Z</time>
      </trkpt>
      <trkpt lat="22.790685" lon="109.977884">
        <ele>125.778039</ele>
        <time>2026-08-16T01:57:03.000Z</time>
      </trkpt>
      <trkpt lat="22.790681" lon="109.977943">
        <ele>125.746560</ele>
        <time>2026-08-16T01:57:04.000Z</time>
      </trkpt>
      <trkpt lat="22.790675" lon="109.978002">
        <ele>125.714975</ele>
        <time>2026-08-16T01:57:05.000Z</time>
      </trkpt>
      <trkpt lat="22.790667" lon="109.978060">
        <ele>125.683769</ele>
        <time>2026-08-16T01:57:06.000Z</time>
      </trkpt>
      <trkpt lat="22.790654" lon="109.978118">
        <ele>125.652008</ele>
        <time>2026-08-16T01:57:07.000Z</time>
      </trkpt>
      <trkpt lat="22.790643" lon="109.978177">
        <ele>125.619978</ele>
        <time>2026-08-16T01:57:08.000Z</time>
      </trkpt>
      <trkpt lat="22.790633" lon="109.978236">
        <ele>125.588057</ele>
        <time>2026-08-16T01:57:09.000Z</time>
      </trkpt>
      <trkpt lat="22.790624" lon="109.978297">
        <ele>125.555185</ele>
        <time>2026-08-16T01:57:10.000Z</time>
      </trkpt>
      <trkpt lat="22.790614" lon="109.978359">
        <ele>125.521693</ele>
        <time>2026-08-16T01:57:11.000Z</time>
      </trkpt>
      <trkpt lat="22.790604" lon="109.978421">
        <ele>125.488201</ele>
        <time>2026-08-16T01:57:12.000Z</time>
      </trkpt>
      <trkpt lat="22.790591" lon="109.978484">
        <ele>125.453849</ele>
        <time>2026-08-16T01:57:13.000Z</time>
      </trkpt>
      <trkpt lat="22.790579" lon="109.978545">
        <ele>125.420659</ele>
        <time>2026-08-16T01:57:14.000Z</time>
      </trkpt>
      <trkpt lat="22.790567" lon="109.978605">
        <ele>125.387990</ele>
        <time>2026-08-16T01:57:15.000Z</time>
      </trkpt>
      <trkpt lat="22.790559" lon="109.978667">
        <ele>125.354678</ele>
        <time>2026-08-16T01:57:16.000Z</time>
      </trkpt>
      <trkpt lat="22.790549" lon="109.978727">
        <ele>125.322234</ele>
        <time>2026-08-16T01:57:17.000Z</time>
      </trkpt>
      <trkpt lat="22.790537" lon="109.978788">
        <ele>125.306666</ele>
        <time>2026-08-16T01:57:18.000Z</time>
      </trkpt>
      <trkpt lat="22.790528" lon="109.978847">
        <ele>125.306574</ele>
        <time>2026-08-16T01:57:19.000Z</time>
      </trkpt>
      <trkpt lat="22.790518" lon="109.978906">
        <ele>125.306481</ele>
        <time>2026-08-16T01:57:20.000Z</time>
      </trkpt>
      <trkpt lat="22.790509" lon="109.978965">
        <ele>125.306389</ele>
        <time>2026-08-16T01:57:21.000Z</time>
      </trkpt>
      <trkpt lat="22.790500" lon="109.979024">
        <ele>125.306297</ele>
        <time>2026-08-16T01:57:22.000Z</time>
      </trkpt>
      <trkpt lat="22.790491" lon="109.979081">
        <ele>125.306208</ele>
        <time>2026-08-16T01:57:23.000Z</time>
      </trkpt>
      <trkpt lat="22.790482" lon="109.979141">
        <ele>125.306114</ele>
        <time>2026-08-16T01:57:24.000Z</time>
      </trkpt>
      <trkpt lat="22.790474" lon="109.979201">
        <ele>125.306021</ele>
        <time>2026-08-16T01:57:25.000Z</time>
      </trkpt>
      <trkpt lat="22.790465" lon="109.979261">
        <ele>125.305928</ele>
        <time>2026-08-16T01:57:26.000Z</time>
      </trkpt>
      <trkpt lat="22.790455" lon="109.979320">
        <ele>125.305835</ele>
        <time>2026-08-16T01:57:27.000Z</time>
      </trkpt>
      <trkpt lat="22.790446" lon="109.979377">
        <ele>125.305746</ele>
        <time>2026-08-16T01:57:28.000Z</time>
      </trkpt>
      <trkpt lat="22.790436" lon="109.979433">
        <ele>125.305658</ele>
        <time>2026-08-16T01:57:29.000Z</time>
      </trkpt>
      <trkpt lat="22.790428" lon="109.979489">
        <ele>125.305571</ele>
        <time>2026-08-16T01:57:30.000Z</time>
      </trkpt>
      <trkpt lat="22.790418" lon="109.979547">
        <ele>125.305480</ele>
        <time>2026-08-16T01:57:31.000Z</time>
      </trkpt>
      <trkpt lat="22.790409" lon="109.979603">
        <ele>125.305393</ele>
        <time>2026-08-16T01:57:32.000Z</time>
      </trkpt>
      <trkpt lat="22.790399" lon="109.979660">
        <ele>125.305303</ele>
        <time>2026-08-16T01:57:33.000Z</time>
      </trkpt>
      <trkpt lat="22.790389" lon="109.979717">
        <ele>125.305214</ele>
        <time>2026-08-16T01:57:34.000Z</time>
      </trkpt>
      <trkpt lat="22.790379" lon="109.979777">
        <ele>125.305120</ele>
        <time>2026-08-16T01:57:35.000Z</time>
      </trkpt>
      <trkpt lat="22.790370" lon="109.979836">
        <ele>125.305028</ele>
        <time>2026-08-16T01:57:36.000Z</time>
      </trkpt>
      <trkpt lat="22.790360" lon="109.979894">
        <ele>125.304937</ele>
        <time>2026-08-16T01:57:37.000Z</time>
      </trkpt>
      <trkpt lat="22.790351" lon="109.979954">
        <ele>125.304843</ele>
        <time>2026-08-16T01:57:38.000Z</time>
      </trkpt>
      <trkpt lat="22.790341" lon="109.980014">
        <ele>125.304749</ele>
        <time>2026-08-16T01:57:39.000Z</time>
      </trkpt>
      <trkpt lat="22.790330" lon="109.980073">
        <ele>125.304657</ele>
        <time>2026-08-16T01:57:40.000Z</time>
      </trkpt>
      <trkpt lat="22.790320" lon="109.980133">
        <ele>125.304563</ele>
        <time>2026-08-16T01:57:41.000Z</time>
      </trkpt>
      <trkpt lat="22.790308" lon="109.980195">
        <ele>125.304465</ele>
        <time>2026-08-16T01:57:42.000Z</time>
      </trkpt>
      <trkpt lat="22.790298" lon="109.980256">
        <ele>125.304370</ele>
        <time>2026-08-16T01:57:43.000Z</time>
      </trkpt>
      <trkpt lat="22.790289" lon="109.980315">
        <ele>125.304278</ele>
        <time>2026-08-16T01:57:44.000Z</time>
      </trkpt>
      <trkpt lat="22.790280" lon="109.980375">
        <ele>125.304184</ele>
        <time>2026-08-16T01:57:45.000Z</time>
      </trkpt>
      <trkpt lat="22.790271" lon="109.980435">
        <ele>125.304091</ele>
        <time>2026-08-16T01:57:46.000Z</time>
      </trkpt>
      <trkpt lat="22.790261" lon="109.980495">
        <ele>125.303997</ele>
        <time>2026-08-16T01:57:47.000Z</time>
      </trkpt>
      <trkpt lat="22.790252" lon="109.980555">
        <ele>125.303903</ele>
        <time>2026-08-16T01:57:48.000Z</time>
      </trkpt>
      <trkpt lat="22.790244" lon="109.980614">
        <ele>125.303811</ele>
        <time>2026-08-16T01:57:49.000Z</time>
      </trkpt>
      <trkpt lat="22.790239" lon="109.980674">
        <ele>125.303718</ele>
        <time>2026-08-16T01:57:50.000Z</time>
      </trkpt>
      <trkpt lat="22.790234" lon="109.980732">
        <ele>125.294427</ele>
        <time>2026-08-16T01:57:51.000Z</time>
      </trkpt>
      <trkpt lat="22.790229" lon="109.980786">
        <ele>125.285162</ele>
        <time>2026-08-16T01:57:52.000Z</time>
      </trkpt>
      <trkpt lat="22.790224" lon="109.980842">
        <ele>125.275558</ele>
        <time>2026-08-16T01:57:53.000Z</time>
      </trkpt>
      <trkpt lat="22.790219" lon="109.980900">
        <ele>125.265614</ele>
        <time>2026-08-16T01:57:54.000Z</time>
      </trkpt>
      <trkpt lat="22.790217" lon="109.980957">
        <ele>125.255877</ele>
        <time>2026-08-16T01:57:55.000Z</time>
      </trkpt>
      <trkpt lat="22.790218" lon="109.981012">
        <ele>125.246487</ele>
        <time>2026-08-16T01:57:56.000Z</time>
      </trkpt>
      <trkpt lat="22.790217" lon="109.981068">
        <ele>125.236925</ele>
        <time>2026-08-16T01:57:57.000Z</time>
      </trkpt>
      <trkpt lat="22.790216" lon="109.981125">
        <ele>125.227194</ele>
        <time>2026-08-16T01:57:58.000Z</time>
      </trkpt>
      <trkpt lat="22.790214" lon="109.981184">
        <ele>125.217115</ele>
        <time>2026-08-16T01:57:59.000Z</time>
      </trkpt>
      <trkpt lat="22.790216" lon="109.981242">
        <ele>125.207207</ele>
        <time>2026-08-16T01:58:00.000Z</time>
      </trkpt>
      <trkpt lat="22.790213" lon="109.981301">
        <ele>125.197121</ele>
        <time>2026-08-16T01:58:01.000Z</time>
      </trkpt>
      <trkpt lat="22.790210" lon="109.981360">
        <ele>125.187034</ele>
        <time>2026-08-16T01:58:02.000Z</time>
      </trkpt>
      <trkpt lat="22.790209" lon="109.981419">
        <ele>125.176961</ele>
        <time>2026-08-16T01:58:03.000Z</time>
      </trkpt>
      <trkpt lat="22.790209" lon="109.981477">
        <ele>125.167060</ele>
        <time>2026-08-16T01:58:04.000Z</time>
      </trkpt>
      <trkpt lat="22.790211" lon="109.981536">
        <ele>125.156982</ele>
        <time>2026-08-16T01:58:05.000Z</time>
      </trkpt>
      <trkpt lat="22.790211" lon="109.981596">
        <ele>125.146739</ele>
        <time>2026-08-16T01:58:06.000Z</time>
      </trkpt>
      <trkpt lat="22.790210" lon="109.981655">
        <ele>125.136666</ele>
        <time>2026-08-16T01:58:07.000Z</time>
      </trkpt>
      <trkpt lat="22.790210" lon="109.981715">
        <ele>125.126424</ele>
        <time>2026-08-16T01:58:08.000Z</time>
      </trkpt>
      <trkpt lat="22.790211" lon="109.981775">
        <ele>125.116180</ele>
        <time>2026-08-16T01:58:09.000Z</time>
      </trkpt>
      <trkpt lat="22.790211" lon="109.981835">
        <ele>125.105938</ele>
        <time>2026-08-16T01:58:10.000Z</time>
      </trkpt>
      <trkpt lat="22.790210" lon="109.981895">
        <ele>125.095694</ele>
        <time>2026-08-16T01:58:11.000Z</time>
      </trkpt>
      <trkpt lat="22.790208" lon="109.981953">
        <ele>125.085786</ele>
        <time>2026-08-16T01:58:12.000Z</time>
      </trkpt>
      <trkpt lat="22.790206" lon="109.982010">
        <ele>125.076049</ele>
        <time>2026-08-16T01:58:13.000Z</time>
      </trkpt>
      <trkpt lat="22.790206" lon="109.982067">
        <ele>125.066319</ele>
        <time>2026-08-16T01:58:14.000Z</time>
      </trkpt>
      <trkpt lat="22.790205" lon="109.982124">
        <ele>125.056587</ele>
        <time>2026-08-16T01:58:15.000Z</time>
      </trkpt>
      <trkpt lat="22.790205" lon="109.982179">
        <ele>125.047198</ele>
        <time>2026-08-16T01:58:16.000Z</time>
      </trkpt>
      <trkpt lat="22.790205" lon="109.982235">
        <ele>125.037639</ele>
        <time>2026-08-16T01:58:17.000Z</time>
      </trkpt>
      <trkpt lat="22.790206" lon="109.982290">
        <ele>125.028248</ele>
        <time>2026-08-16T01:58:18.000Z</time>
      </trkpt>
      <trkpt lat="22.790206" lon="109.982343">
        <ele>125.019201</ele>
        <time>2026-08-16T01:58:19.000Z</time>
      </trkpt>
      <trkpt lat="22.790206" lon="109.982398">
        <ele>125.009812</ele>
        <time>2026-08-16T01:58:20.000Z</time>
      </trkpt>
      <trkpt lat="22.790204" lon="109.982454">
        <ele>125.000246</ele>
        <time>2026-08-16T01:58:21.000Z</time>
      </trkpt>
      <trkpt lat="22.790203" lon="109.982509">
        <ele>124.990855</ele>
        <time>2026-08-16T01:58:22.000Z</time>
      </trkpt>
      <trkpt lat="22.790202" lon="109.982566">
        <ele>124.981123</ele>
        <time>2026-08-16T01:58:23.000Z</time>
      </trkpt>
      <trkpt lat="22.790199" lon="109.982624">
        <ele>124.971207</ele>
        <time>2026-08-16T01:58:24.000Z</time>
      </trkpt>
      <trkpt lat="22.790198" lon="109.982681">
        <ele>124.896353</ele>
        <time>2026-08-16T01:58:25.000Z</time>
      </trkpt>
      <trkpt lat="22.790196" lon="109.982738">
        <ele>124.817707</ele>
        <time>2026-08-16T01:58:26.000Z</time>
      </trkpt>
      <trkpt lat="22.790192" lon="109.982796">
        <ele>124.737516</ele>
        <time>2026-08-16T01:58:27.000Z</time>
      </trkpt>
      <trkpt lat="22.790189" lon="109.982855">
        <ele>124.656046</ele>
        <time>2026-08-16T01:58:28.000Z</time>
      </trkpt>
      <trkpt lat="22.790187" lon="109.982914">
        <ele>124.574644</ele>
        <time>2026-08-16T01:58:29.000Z</time>
      </trkpt>
      <trkpt lat="22.790183" lon="109.982974">
        <ele>124.491703</ele>
        <time>2026-08-16T01:58:30.000Z</time>
      </trkpt>
      <trkpt lat="22.790177" lon="109.983035">
        <ele>124.407122</ele>
        <time>2026-08-16T01:58:31.000Z</time>
      </trkpt>
      <trkpt lat="22.790169" lon="109.983099">
        <ele>124.318074</ele>
        <time>2026-08-16T01:58:32.000Z</time>
      </trkpt>
      <trkpt lat="22.790156" lon="109.983166">
        <ele>124.223674</ele>
        <time>2026-08-16T01:58:33.000Z</time>
      </trkpt>
      <trkpt lat="22.790141" lon="109.983234">
        <ele>124.127273</ele>
        <time>2026-08-16T01:58:34.000Z</time>
      </trkpt>
      <trkpt lat="22.790127" lon="109.983302">
        <ele>124.031208</ele>
        <time>2026-08-16T01:58:35.000Z</time>
      </trkpt>
      <trkpt lat="22.790110" lon="109.983370">
        <ele>123.934067</ele>
        <time>2026-08-16T01:58:36.000Z</time>
      </trkpt>
      <trkpt lat="22.790090" lon="109.983440">
        <ele>123.833026</ele>
        <time>2026-08-16T01:58:37.000Z</time>
      </trkpt>
      <trkpt lat="22.790072" lon="109.983511">
        <ele>123.731501</ele>
        <time>2026-08-16T01:58:38.000Z</time>
      </trkpt>
      <trkpt lat="22.790053" lon="109.983584">
        <ele>123.626918</ele>
        <time>2026-08-16T01:58:39.000Z</time>
      </trkpt>
      <trkpt lat="22.790035" lon="109.983657">
        <ele>123.522731</ele>
        <time>2026-08-16T01:58:40.000Z</time>
      </trkpt>
      <trkpt lat="22.790015" lon="109.983731">
        <ele>123.416409</ele>
        <time>2026-08-16T01:58:41.000Z</time>
      </trkpt>
      <trkpt lat="22.789997" lon="109.983801">
        <ele>123.316213</ele>
        <time>2026-08-16T01:58:42.000Z</time>
      </trkpt>
      <trkpt lat="22.789978" lon="109.983869">
        <ele>123.218246</ele>
        <time>2026-08-16T01:58:43.000Z</time>
      </trkpt>
      <trkpt lat="22.789956" lon="109.983938">
        <ele>123.117583</ele>
        <time>2026-08-16T01:58:44.000Z</time>
      </trkpt>
      <trkpt lat="22.789938" lon="109.984009">
        <ele>123.016058</ele>
        <time>2026-08-16T01:58:45.000Z</time>
      </trkpt>
      <trkpt lat="22.789921" lon="109.984077">
        <ele>122.918917</ele>
        <time>2026-08-16T01:58:46.000Z</time>
      </trkpt>
      <trkpt lat="22.789900" lon="109.984143">
        <ele>122.822652</ele>
        <time>2026-08-16T01:58:47.000Z</time>
      </trkpt>
      <trkpt lat="22.789881" lon="109.984209">
        <ele>122.727321</ele>
        <time>2026-08-16T01:58:48.000Z</time>
      </trkpt>
      <trkpt lat="22.789862" lon="109.984274">
        <ele>122.633305</ele>
        <time>2026-08-16T01:58:49.000Z</time>
      </trkpt>
      <trkpt lat="22.789843" lon="109.984338">
        <ele>122.540602</ele>
        <time>2026-08-16T01:58:50.000Z</time>
      </trkpt>
      <trkpt lat="22.789822" lon="109.984401">
        <ele>122.448237</ele>
        <time>2026-08-16T01:58:51.000Z</time>
      </trkpt>
      <trkpt lat="22.789803" lon="109.984466">
        <ele>122.354222</ele>
        <time>2026-08-16T01:58:52.000Z</time>
      </trkpt>
      <trkpt lat="22.789785" lon="109.984528">
        <ele>122.288914</ele>
        <time>2026-08-16T01:58:53.000Z</time>
      </trkpt>
      <trkpt lat="22.789767" lon="109.984591">
        <ele>122.334524</ele>
        <time>2026-08-16T01:58:54.000Z</time>
      </trkpt>
      <trkpt lat="22.789750" lon="109.984655">
        <ele>122.380582</ele>
        <time>2026-08-16T01:58:55.000Z</time>
      </trkpt>
      <trkpt lat="22.789731" lon="109.984717">
        <ele>122.425763</ele>
        <time>2026-08-16T01:58:56.000Z</time>
      </trkpt>
      <trkpt lat="22.789712" lon="109.984778">
        <ele>122.470288</ele>
        <time>2026-08-16T01:58:57.000Z</time>
      </trkpt>
      <trkpt lat="22.789694" lon="109.984839">
        <ele>122.514579</ele>
        <time>2026-08-16T01:58:58.000Z</time>
      </trkpt>
      <trkpt lat="22.789678" lon="109.984900">
        <ele>122.558436</ele>
        <time>2026-08-16T01:58:59.000Z</time>
      </trkpt>
      <trkpt lat="22.789662" lon="109.984959">
        <ele>122.600965</ele>
        <time>2026-08-16T01:59:00.000Z</time>
      </trkpt>
      <trkpt lat="22.789646" lon="109.985018">
        <ele>122.643493</ele>
        <time>2026-08-16T01:59:01.000Z</time>
      </trkpt>
      <trkpt lat="22.789632" lon="109.985074">
        <ele>122.683617</ele>
        <time>2026-08-16T01:59:02.000Z</time>
      </trkpt>
      <trkpt lat="22.789616" lon="109.985129">
        <ele>122.723499</ele>
        <time>2026-08-16T01:59:03.000Z</time>
      </trkpt>
      <trkpt lat="22.789602" lon="109.985184">
        <ele>122.762956</ele>
        <time>2026-08-16T01:59:04.000Z</time>
      </trkpt>
      <trkpt lat="22.789587" lon="109.985235">
        <ele>122.799975</ele>
        <time>2026-08-16T01:59:05.000Z</time>
      </trkpt>
      <trkpt lat="22.789572" lon="109.985285">
        <ele>122.836336</ele>
        <time>2026-08-16T01:59:06.000Z</time>
      </trkpt>
      <trkpt lat="22.789558" lon="109.985337">
        <ele>122.873797</ele>
        <time>2026-08-16T01:59:07.000Z</time>
      </trkpt>
      <trkpt lat="22.789548" lon="109.985389">
        <ele>122.910530</ele>
        <time>2026-08-16T01:59:08.000Z</time>
      </trkpt>
      <trkpt lat="22.789537" lon="109.985440">
        <ele>122.946750</ele>
        <time>2026-08-16T01:59:09.000Z</time>
      </trkpt>
      <trkpt lat="22.789525" lon="109.985491">
        <ele>122.983148</ele>
        <time>2026-08-16T01:59:10.000Z</time>
      </trkpt>
      <trkpt lat="22.789513" lon="109.985542">
        <ele>123.019546</ele>
        <time>2026-08-16T01:59:11.000Z</time>
      </trkpt>
      <trkpt lat="22.789499" lon="109.985593">
        <ele>123.056344</ele>
        <time>2026-08-16T01:59:12.000Z</time>
      </trkpt>
      <trkpt lat="22.789487" lon="109.985643">
        <ele>123.092073</ele>
        <time>2026-08-16T01:59:13.000Z</time>
      </trkpt>
      <trkpt lat="22.789474" lon="109.985696">
        <ele>123.129999</ele>
        <time>2026-08-16T01:59:14.000Z</time>
      </trkpt>
      <trkpt lat="22.789460" lon="109.985749">
        <ele>123.168124</ele>
        <time>2026-08-16T01:59:15.000Z</time>
      </trkpt>
      <trkpt lat="22.789447" lon="109.985800">
        <ele>123.204715</ele>
        <time>2026-08-16T01:59:16.000Z</time>
      </trkpt>
      <trkpt lat="22.789432" lon="109.985851">
        <ele>123.241734</ele>
        <time>2026-08-16T01:59:17.000Z</time>
      </trkpt>
      <trkpt lat="22.789417" lon="109.985904">
        <ele>123.280073</ele>
        <time>2026-08-16T01:59:18.000Z</time>
      </trkpt>
      <trkpt lat="22.789404" lon="109.985957">
        <ele>123.317999</ele>
        <time>2026-08-16T01:59:19.000Z</time>
      </trkpt>
      <trkpt lat="22.789388" lon="109.986012">
        <ele>123.357881</ele>
        <time>2026-08-16T01:59:20.000Z</time>
      </trkpt>
      <trkpt lat="22.789372" lon="109.986066">
        <ele>123.397105</ele>
        <time>2026-08-16T01:59:21.000Z</time>
      </trkpt>
      <trkpt lat="22.789355" lon="109.986121">
        <ele>123.437219</ele>
        <time>2026-08-16T01:59:22.000Z</time>
      </trkpt>
      <trkpt lat="22.789341" lon="109.986176">
        <ele>123.476676</ele>
        <time>2026-08-16T01:59:23.000Z</time>
      </trkpt>
      <trkpt lat="22.789328" lon="109.986229">
        <ele>123.514602</ele>
        <time>2026-08-16T01:59:24.000Z</time>
      </trkpt>
      <trkpt lat="22.789315" lon="109.986281">
        <ele>123.551860</ele>
        <time>2026-08-16T01:59:25.000Z</time>
      </trkpt>
      <trkpt lat="22.789302" lon="109.986330">
        <ele>123.587120</ele>
        <time>2026-08-16T01:59:26.000Z</time>
      </trkpt>
      <trkpt lat="22.789291" lon="109.986380">
        <ele>123.622667</ele>
        <time>2026-08-16T01:59:27.000Z</time>
      </trkpt>
      <trkpt lat="22.789279" lon="109.986431">
        <ele>123.653892</ele>
        <time>2026-08-16T01:59:28.000Z</time>
      </trkpt>
      <trkpt lat="22.789267" lon="109.986481">
        <ele>123.683281</ele>
        <time>2026-08-16T01:59:29.000Z</time>
      </trkpt>
      <trkpt lat="22.789255" lon="109.986529">
        <ele>123.711569</ele>
        <time>2026-08-16T01:59:30.000Z</time>
      </trkpt>
      <trkpt lat="22.789242" lon="109.986575">
        <ele>123.738936</ele>
        <time>2026-08-16T01:59:31.000Z</time>
      </trkpt>
      <trkpt lat="22.789234" lon="109.986620">
        <ele>123.765004</ele>
        <time>2026-08-16T01:59:32.000Z</time>
      </trkpt>
      <trkpt lat="22.789229" lon="109.986662">
        <ele>123.789092</ele>
        <time>2026-08-16T01:59:33.000Z</time>
      </trkpt>
      <trkpt lat="22.789222" lon="109.986701">
        <ele>123.811692</ele>
        <time>2026-08-16T01:59:34.000Z</time>
      </trkpt>
      <trkpt lat="22.789214" lon="109.986737">
        <ele>123.832755</ele>
        <time>2026-08-16T01:59:35.000Z</time>
      </trkpt>
      <trkpt lat="22.789206" lon="109.986773">
        <ele>123.853818</ele>
        <time>2026-08-16T01:59:36.000Z</time>
      </trkpt>
      <trkpt lat="22.789199" lon="109.986810">
        <ele>123.875303</ele>
        <time>2026-08-16T01:59:37.000Z</time>
      </trkpt>
      <trkpt lat="22.789192" lon="109.986849">
        <ele>123.897903</ele>
        <time>2026-08-16T01:59:38.000Z</time>
      </trkpt>
      <trkpt lat="22.789183" lon="109.986889">
        <ele>123.921323</ele>
        <time>2026-08-16T01:59:39.000Z</time>
      </trkpt>
      <trkpt lat="22.789173" lon="109.986929">
        <ele>123.944896</ele>
        <time>2026-08-16T01:59:40.000Z</time>
      </trkpt>
      <trkpt lat="22.789163" lon="109.986969">
        <ele>123.968470</ele>
        <time>2026-08-16T01:59:41.000Z</time>
      </trkpt>
      <trkpt lat="22.789155" lon="109.987010">
        <ele>123.992308</ele>
        <time>2026-08-16T01:59:42.000Z</time>
      </trkpt>
      <trkpt lat="22.789148" lon="109.987050">
        <ele>124.015466</ele>
        <time>2026-08-16T01:59:43.000Z</time>
      </trkpt>
      <trkpt lat="22.789140" lon="109.987091">
        <ele>124.039304</ele>
        <time>2026-08-16T01:59:44.000Z</time>
      </trkpt>
      <trkpt lat="22.789128" lon="109.987132">
        <ele>124.063772</ele>
        <time>2026-08-16T01:59:45.000Z</time>
      </trkpt>
      <trkpt lat="22.789114" lon="109.987173">
        <ele>124.088641</ele>
        <time>2026-08-16T01:59:46.000Z</time>
      </trkpt>
      <trkpt lat="22.789102" lon="109.987215">
        <ele>124.113652</ele>
        <time>2026-08-16T01:59:47.000Z</time>
      </trkpt>
      <trkpt lat="22.789090" lon="109.987257">
        <ele>124.138663</ele>
        <time>2026-08-16T01:59:48.000Z</time>
      </trkpt>
      <trkpt lat="22.789076" lon="109.987300">
        <ele>124.164602</ele>
        <time>2026-08-16T01:59:49.000Z</time>
      </trkpt>
      <trkpt lat="22.789060" lon="109.987343">
        <ele>124.190977</ele>
        <time>2026-08-16T01:59:50.000Z</time>
      </trkpt>
      <trkpt lat="22.789048" lon="109.987384">
        <ele>124.215445</ele>
        <time>2026-08-16T01:59:51.000Z</time>
      </trkpt>
      <trkpt lat="22.789036" lon="109.987427">
        <ele>124.241000</ele>
        <time>2026-08-16T01:59:52.000Z</time>
      </trkpt>
      <trkpt lat="22.789023" lon="109.987470">
        <ele>124.266740</ele>
        <time>2026-08-16T01:59:53.000Z</time>
      </trkpt>
      <trkpt lat="22.789009" lon="109.987515">
        <ele>124.293754</ele>
        <time>2026-08-16T01:59:54.000Z</time>
      </trkpt>
      <trkpt lat="22.788994" lon="109.987562">
        <ele>124.322045</ele>
        <time>2026-08-16T01:59:55.000Z</time>
      </trkpt>
      <trkpt lat="22.788977" lon="109.987610">
        <ele>124.351292</ele>
        <time>2026-08-16T01:59:56.000Z</time>
      </trkpt>
      <trkpt lat="22.788960" lon="109.987657">
        <ele>124.380010</ele>
        <time>2026-08-16T01:59:57.000Z</time>
      </trkpt>
      <trkpt lat="22.788945" lon="109.987703">
        <ele>124.407764</ele>
        <time>2026-08-16T01:59:58.000Z</time>
      </trkpt>
      <trkpt lat="22.788930" lon="109.987750">
        <ele>124.436054</ele>
        <time>2026-08-16T01:59:59.000Z</time>
      </trkpt>
      <trkpt lat="22.788915" lon="109.987798">
        <ele>124.464883</ele>
        <time>2026-08-16T02:00:00.000Z</time>
      </trkpt>
      <trkpt lat="22.788896" lon="109.987847">
        <ele>124.495119</ele>
        <time>2026-08-16T02:00:01.000Z</time>
      </trkpt>
      <trkpt lat="22.788879" lon="109.987896">
        <ele>124.524899</ele>
        <time>2026-08-16T02:00:02.000Z</time>
      </trkpt>
      <trkpt lat="22.788864" lon="109.987946">
        <ele>124.554807</ele>
        <time>2026-08-16T02:00:03.000Z</time>
      </trkpt>
      <trkpt lat="22.788848" lon="109.987997">
        <ele>124.585449</ele>
        <time>2026-08-16T02:00:04.000Z</time>
      </trkpt>
      <trkpt lat="22.788832" lon="109.988047">
        <ele>124.615554</ele>
        <time>2026-08-16T02:00:05.000Z</time>
      </trkpt>
      <trkpt lat="22.788813" lon="109.988098">
        <ele>124.646842</ele>
        <time>2026-08-16T02:00:06.000Z</time>
      </trkpt>
      <trkpt lat="22.788794" lon="109.988150">
        <ele>124.678658</ele>
        <time>2026-08-16T02:00:07.000Z</time>
      </trkpt>
      <trkpt lat="22.788775" lon="109.988202">
        <ele>124.710474</ele>
        <time>2026-08-16T02:00:08.000Z</time>
      </trkpt>
      <trkpt lat="22.788756" lon="109.988254">
        <ele>124.736192</ele>
        <time>2026-08-16T02:00:09.000Z</time>
      </trkpt>
      <trkpt lat="22.788739" lon="109.988304">
        <ele>124.697206</ele>
        <time>2026-08-16T02:00:10.000Z</time>
      </trkpt>
      <trkpt lat="22.788721" lon="109.988355">
        <ele>124.657257</ele>
        <time>2026-08-16T02:00:11.000Z</time>
      </trkpt>
      <trkpt lat="22.788706" lon="109.988407">
        <ele>124.617398</ele>
        <time>2026-08-16T02:00:12.000Z</time>
      </trkpt>
      <trkpt lat="22.788688" lon="109.988459">
        <ele>124.576765</ele>
        <time>2026-08-16T02:00:13.000Z</time>
      </trkpt>
      <trkpt lat="22.788667" lon="109.988511">
        <ele>124.535235</ele>
        <time>2026-08-16T02:00:14.000Z</time>
      </trkpt>
      <trkpt lat="22.788646" lon="109.988563">
        <ele>124.493705</ele>
        <time>2026-08-16T02:00:15.000Z</time>
      </trkpt>
      <trkpt lat="22.788628" lon="109.988616">
        <ele>124.452386</ele>
        <time>2026-08-16T02:00:16.000Z</time>
      </trkpt>
      <trkpt lat="22.788608" lon="109.988669">
        <ele>124.410492</ele>
        <time>2026-08-16T02:00:17.000Z</time>
      </trkpt>
      <trkpt lat="22.788588" lon="109.988723">
        <ele>124.367920</ele>
        <time>2026-08-16T02:00:18.000Z</time>
      </trkpt>
      <trkpt lat="22.788567" lon="109.988778">
        <ele>124.324371</ele>
        <time>2026-08-16T02:00:19.000Z</time>
      </trkpt>
      <trkpt lat="22.788548" lon="109.988835">
        <ele>124.280031</ele>
        <time>2026-08-16T02:00:20.000Z</time>
      </trkpt>
      <trkpt lat="22.788528" lon="109.988891">
        <ele>124.236098</ele>
        <time>2026-08-16T02:00:21.000Z</time>
      </trkpt>
      <trkpt lat="22.788510" lon="109.988946">
        <ele>124.193403</ele>
        <time>2026-08-16T02:00:22.000Z</time>
      </trkpt>
      <trkpt lat="22.788493" lon="109.989000">
        <ele>124.151660</ele>
        <time>2026-08-16T02:00:23.000Z</time>
      </trkpt>
      <trkpt lat="22.788477" lon="109.989054">
        <ele>124.110166</ele>
        <time>2026-08-16T02:00:24.000Z</time>
      </trkpt>
      <trkpt lat="22.788459" lon="109.989107">
        <ele>124.068847</ele>
        <time>2026-08-16T02:00:25.000Z</time>
      </trkpt>
      <trkpt lat="22.788440" lon="109.989162">
        <ele>124.025880</ele>
        <time>2026-08-16T02:00:26.000Z</time>
      </trkpt>
      <trkpt lat="22.788419" lon="109.989218">
        <ele>123.981654</ele>
        <time>2026-08-16T02:00:27.000Z</time>
      </trkpt>
      <trkpt lat="22.788399" lon="109.989274">
        <ele>123.937721</ele>
        <time>2026-08-16T02:00:28.000Z</time>
      </trkpt>
      <trkpt lat="22.788382" lon="109.989332">
        <ele>123.893199</ele>
        <time>2026-08-16T02:00:29.000Z</time>
      </trkpt>
      <trkpt lat="22.788364" lon="109.989387">
        <ele>123.850504</ele>
        <time>2026-08-16T02:00:30.000Z</time>
      </trkpt>
      <trkpt lat="22.788346" lon="109.989441">
        <ele>123.808498</ele>
        <time>2026-08-16T02:00:31.000Z</time>
      </trkpt>
      <trkpt lat="22.788330" lon="109.989497">
        <ele>123.765609</ele>
        <time>2026-08-16T02:00:32.000Z</time>
      </trkpt>
      <trkpt lat="22.788309" lon="109.989552">
        <ele>123.722060</ele>
        <time>2026-08-16T02:00:33.000Z</time>
      </trkpt>
      <trkpt lat="22.788290" lon="109.989607">
        <ele>123.679093</ele>
        <time>2026-08-16T02:00:34.000Z</time>
      </trkpt>
      <trkpt lat="22.788275" lon="109.989663">
        <ele>123.636432</ele>
        <time>2026-08-16T02:00:35.000Z</time>
      </trkpt>
      <trkpt lat="22.788262" lon="109.989718">
        <ele>123.594896</ele>
        <time>2026-08-16T02:00:36.000Z</time>
      </trkpt>
      <trkpt lat="22.788249" lon="109.989770">
        <ele>123.555481</ele>
        <time>2026-08-16T02:00:37.000Z</time>
      </trkpt>
      <trkpt lat="22.788232" lon="109.989823">
        <ele>123.514430</ele>
        <time>2026-08-16T02:00:38.000Z</time>
      </trkpt>
      <trkpt lat="22.788215" lon="109.989878">
        <ele>123.471994</ele>
        <time>2026-08-16T02:00:39.000Z</time>
      </trkpt>
      <trkpt lat="22.788198" lon="109.989933">
        <ele>123.429557</ele>
        <time>2026-08-16T02:00:40.000Z</time>
      </trkpt>
      <trkpt lat="22.788182" lon="109.989987">
        <ele>123.388064</ele>
        <time>2026-08-16T02:00:41.000Z</time>
      </trkpt>
      <trkpt lat="22.788162" lon="109.990040">
        <ele>123.346170</ele>
        <time>2026-08-16T02:00:42.000Z</time>
      </trkpt>
      <trkpt lat="22.788143" lon="109.990093">
        <ele>123.297308</ele>
        <time>2026-08-16T02:00:43.000Z</time>
      </trkpt>
      <trkpt lat="22.788126" lon="109.990147">
        <ele>123.216980</ele>
        <time>2026-08-16T02:00:44.000Z</time>
      </trkpt>
      <trkpt lat="22.788109" lon="109.990203">
        <ele>123.133982</ele>
        <time>2026-08-16T02:00:45.000Z</time>
      </trkpt>
      <trkpt lat="22.788093" lon="109.990260">
        <ele>123.050103</ele>
        <time>2026-08-16T02:00:46.000Z</time>
      </trkpt>
      <trkpt lat="22.788072" lon="109.990317">
        <ele>122.963691</ele>
        <time>2026-08-16T02:00:47.000Z</time>
      </trkpt>
      <trkpt lat="22.788049" lon="109.990373">
        <ele>122.877388</ele>
        <time>2026-08-16T02:00:48.000Z</time>
      </trkpt>
      <trkpt lat="22.788024" lon="109.990428">
        <ele>122.791062</ele>
        <time>2026-08-16T02:00:49.000Z</time>
      </trkpt>
      <trkpt lat="22.788004" lon="109.990485">
        <ele>122.705206</ele>
        <time>2026-08-16T02:00:50.000Z</time>
      </trkpt>
      <trkpt lat="22.787982" lon="109.990543">
        <ele>122.616915</ele>
        <time>2026-08-16T02:00:51.000Z</time>
      </trkpt>
      <trkpt lat="22.787959" lon="109.990601">
        <ele>122.528033</ele>
        <time>2026-08-16T02:00:52.000Z</time>
      </trkpt>
      <trkpt lat="22.787936" lon="109.990660">
        <ele>122.437855</ele>
        <time>2026-08-16T02:00:53.000Z</time>
      </trkpt>
      <trkpt lat="22.787912" lon="109.990719">
        <ele>122.347072</ele>
        <time>2026-08-16T02:00:54.000Z</time>
      </trkpt>
      <trkpt lat="22.787887" lon="109.990779">
        <ele>122.254381</ele>
        <time>2026-08-16T02:00:55.000Z</time>
      </trkpt>
      <trkpt lat="22.787864" lon="109.990838">
        <ele>122.164204</ele>
        <time>2026-08-16T02:00:56.000Z</time>
      </trkpt>
      <trkpt lat="22.787843" lon="109.990898">
        <ele>122.073857</ele>
        <time>2026-08-16T02:00:57.000Z</time>
      </trkpt>
      <trkpt lat="22.787822" lon="109.990959">
        <ele>121.982192</ele>
        <time>2026-08-16T02:00:58.000Z</time>
      </trkpt>
      <trkpt lat="22.787801" lon="109.991019">
        <ele>121.891845</ele>
        <time>2026-08-16T02:00:59.000Z</time>
      </trkpt>
      <trkpt lat="22.787781" lon="109.991079">
        <ele>121.802028</ele>
        <time>2026-08-16T02:01:00.000Z</time>
      </trkpt>
      <trkpt lat="22.787761" lon="109.991139">
        <ele>121.712211</ele>
        <time>2026-08-16T02:01:01.000Z</time>
      </trkpt>
      <trkpt lat="22.787739" lon="109.991201">
        <ele>121.618689</ele>
        <time>2026-08-16T02:01:02.000Z</time>
      </trkpt>
      <trkpt lat="22.787717" lon="109.991259">
        <ele>121.530398</ele>
        <time>2026-08-16T02:01:03.000Z</time>
      </trkpt>
      <trkpt lat="22.787695" lon="109.991317">
        <ele>121.442108</ele>
        <time>2026-08-16T02:01:04.000Z</time>
      </trkpt>
      <trkpt lat="22.787672" lon="109.991372">
        <ele>121.357089</ele>
        <time>2026-08-16T02:01:05.000Z</time>
      </trkpt>
      <trkpt lat="22.787651" lon="109.991429">
        <ele>121.270677</ele>
        <time>2026-08-16T02:01:06.000Z</time>
      </trkpt>
      <trkpt lat="22.787631" lon="109.991488">
        <ele>121.182182</ele>
        <time>2026-08-16T02:01:07.000Z</time>
      </trkpt>
      <trkpt lat="22.787611" lon="109.991548">
        <ele>121.092366</ele>
        <time>2026-08-16T02:01:08.000Z</time>
      </trkpt>
      <trkpt lat="22.787592" lon="109.991605">
        <ele>121.007040</ele>
        <time>2026-08-16T02:01:09.000Z</time>
      </trkpt>
      <trkpt lat="22.787572" lon="109.991664">
        <ele>120.918545</ele>
        <time>2026-08-16T02:01:10.000Z</time>
      </trkpt>
      <trkpt lat="22.787550" lon="109.991723">
        <ele>120.828952</ele>
        <time>2026-08-16T02:01:11.000Z</time>
      </trkpt>
      <trkpt lat="22.787529" lon="109.991781">
        <ele>120.741231</ele>
        <time>2026-08-16T02:01:12.000Z</time>
      </trkpt>
      <trkpt lat="22.787508" lon="109.991841">
        <ele>120.650883</ele>
        <time>2026-08-16T02:01:13.000Z</time>
      </trkpt>
      <trkpt lat="22.787486" lon="109.991901">
        <ele>120.558418</ele>
        <time>2026-08-16T02:01:14.000Z</time>
      </trkpt>
      <trkpt lat="22.787464" lon="109.991962">
        <ele>120.442231</ele>
        <time>2026-08-16T02:01:15.000Z</time>
      </trkpt>
      <trkpt lat="22.787446" lon="109.992024">
        <ele>120.326931</ele>
        <time>2026-08-16T02:01:16.000Z</time>
      </trkpt>
      <trkpt lat="22.787428" lon="109.992085">
        <ele>120.213322</ele>
        <time>2026-08-16T02:01:17.000Z</time>
      </trkpt>
      <trkpt lat="22.787407" lon="109.992143">
        <ele>120.102792</ele>
        <time>2026-08-16T02:01:18.000Z</time>
      </trkpt>
      <trkpt lat="22.787383" lon="109.992200">
        <ele>119.991639</ele>
        <time>2026-08-16T02:01:19.000Z</time>
      </trkpt>
      <trkpt lat="22.787360" lon="109.992257">
        <ele>119.881272</ele>
        <time>2026-08-16T02:01:20.000Z</time>
      </trkpt>
      <trkpt lat="22.787340" lon="109.992315">
        <ele>119.771431</ele>
        <time>2026-08-16T02:01:21.000Z</time>
      </trkpt>
      <trkpt lat="22.787320" lon="109.992375">
        <ele>119.658260</ele>
        <time>2026-08-16T02:01:22.000Z</time>
      </trkpt>
      <trkpt lat="22.787300" lon="109.992434">
        <ele>119.546755</ele>
        <time>2026-08-16T02:01:23.000Z</time>
      </trkpt>
      <trkpt lat="22.787279" lon="109.992495">
        <ele>119.431255</ele>
        <time>2026-08-16T02:01:24.000Z</time>
      </trkpt>
      <trkpt lat="22.787255" lon="109.992558">
        <ele>119.310341</ele>
        <time>2026-08-16T02:01:25.000Z</time>
      </trkpt>
      <trkpt lat="22.787229" lon="109.992622">
        <ele>119.186284</ele>
        <time>2026-08-16T02:01:26.000Z</time>
      </trkpt>
      <trkpt lat="22.787206" lon="109.992691">
        <ele>119.056137</ele>
        <time>2026-08-16T02:01:27.000Z</time>
      </trkpt>
      <trkpt lat="22.787182" lon="109.992762">
        <ele>118.921999</ele>
        <time>2026-08-16T02:01:28.000Z</time>
      </trkpt>
      <trkpt lat="22.787158" lon="109.992833">
        <ele>118.787860</ele>
        <time>2026-08-16T02:01:29.000Z</time>
      </trkpt>
      <trkpt lat="22.787135" lon="109.992903">
        <ele>118.656043</ele>
        <time>2026-08-16T02:01:30.000Z</time>
      </trkpt>
      <trkpt lat="22.787107" lon="109.992974">
        <ele>118.519064</ele>
        <time>2026-08-16T02:01:31.000Z</time>
      </trkpt>
      <trkpt lat="22.787081" lon="109.993044">
        <ele>118.385200</ele>
        <time>2026-08-16T02:01:32.000Z</time>
      </trkpt>
      <trkpt lat="22.787060" lon="109.993115">
        <ele>118.252937</ele>
        <time>2026-08-16T02:01:33.000Z</time>
      </trkpt>
      <trkpt lat="22.787040" lon="109.993185">
        <ele>118.122944</ele>
        <time>2026-08-16T02:01:34.000Z</time>
      </trkpt>
      <trkpt lat="22.787022" lon="109.993254">
        <ele>117.995746</ele>
        <time>2026-08-16T02:01:35.000Z</time>
      </trkpt>
      <trkpt lat="22.787007" lon="109.993322">
        <ele>117.871722</ele>
        <time>2026-08-16T02:01:36.000Z</time>
      </trkpt>
      <trkpt lat="22.786993" lon="109.993389">
        <ele>117.749862</ele>
        <time>2026-08-16T02:01:37.000Z</time>
      </trkpt>
      <trkpt lat="22.786978" lon="109.993455">
        <ele>117.629286</ele>
        <time>2026-08-16T02:01:38.000Z</time>
      </trkpt>
      <trkpt lat="22.786964" lon="109.993519">
        <ele>117.512610</ele>
        <time>2026-08-16T02:01:39.000Z</time>
      </trkpt>
      <trkpt lat="22.786944" lon="109.993580">
        <ele>117.397769</ele>
        <time>2026-08-16T02:01:40.000Z</time>
      </trkpt>
      <trkpt lat="22.786922" lon="109.993641">
        <ele>117.281581</ele>
        <time>2026-08-16T02:01:41.000Z</time>
      </trkpt>
      <trkpt lat="22.786898" lon="109.993703">
        <ele>117.162304</ele>
        <time>2026-08-16T02:01:42.000Z</time>
      </trkpt>
      <trkpt lat="22.786879" lon="109.993764">
        <ele>117.163929</ele>
        <time>2026-08-16T02:01:43.000Z</time>
      </trkpt>
      <trkpt lat="22.786866" lon="109.993824">
        <ele>117.275400</ele>
        <time>2026-08-16T02:01:44.000Z</time>
      </trkpt>
      <trkpt lat="22.786856" lon="109.993881">
        <ele>117.380338</ele>
        <time>2026-08-16T02:01:45.000Z</time>
      </trkpt>
      <trkpt lat="22.786844" lon="109.993940">
        <ele>117.489610</ele>
        <time>2026-08-16T02:01:46.000Z</time>
      </trkpt>
      <trkpt lat="22.786833" lon="109.993997">
        <ele>117.594933</ele>
        <time>2026-08-16T02:01:47.000Z</time>
      </trkpt>
      <trkpt lat="22.786822" lon="109.994053">
        <ele>117.698486</ele>
        <time>2026-08-16T02:01:48.000Z</time>
      </trkpt>
      <trkpt lat="22.786810" lon="109.994104">
        <ele>117.793680</ele>
        <time>2026-08-16T02:01:49.000Z</time>
      </trkpt>
      <trkpt lat="22.786801" lon="109.994153">
        <ele>117.884041</ele>
        <time>2026-08-16T02:01:50.000Z</time>
      </trkpt>
      <trkpt lat="22.786791" lon="109.994202">
        <ele>117.974806</ele>
        <time>2026-08-16T02:01:51.000Z</time>
      </trkpt>
      <trkpt lat="22.786775" lon="109.994251">
        <ele>118.068820</ele>
        <time>2026-08-16T02:01:52.000Z</time>
      </trkpt>
      <trkpt lat="22.786762" lon="109.994299">
        <ele>118.159300</ele>
        <time>2026-08-16T02:01:53.000Z</time>
      </trkpt>
      <trkpt lat="22.786748" lon="109.994347">
        <ele>118.250352</ele>
        <time>2026-08-16T02:01:54.000Z</time>
      </trkpt>
      <trkpt lat="22.786733" lon="109.994394">
        <ele>118.340304</ele>
        <time>2026-08-16T02:01:55.000Z</time>
      </trkpt>
      <trkpt lat="22.786717" lon="109.994441">
        <ele>118.430917</ele>
        <time>2026-08-16T02:01:56.000Z</time>
      </trkpt>
      <trkpt lat="22.786701" lon="109.994485">
        <ele>118.516460</ele>
        <time>2026-08-16T02:01:57.000Z</time>
      </trkpt>
      <trkpt lat="22.786684" lon="109.994531">
        <ele>118.606090</ele>
        <time>2026-08-16T02:01:58.000Z</time>
      </trkpt>
      <trkpt lat="22.786669" lon="109.994574">
        <ele>118.689239</ele>
        <time>2026-08-16T02:01:59.000Z</time>
      </trkpt>
      <trkpt lat="22.786656" lon="109.994619">
        <ele>118.774527</ele>
        <time>2026-08-16T02:02:00.000Z</time>
      </trkpt>
      <trkpt lat="22.786645" lon="109.994664">
        <ele>118.858725</ele>
        <time>2026-08-16T02:02:01.000Z</time>
      </trkpt>
      <trkpt lat="22.786634" lon="109.994711">
        <ele>118.946424</ele>
        <time>2026-08-16T02:02:02.000Z</time>
      </trkpt>
      <trkpt lat="22.786624" lon="109.994756">
        <ele>119.030140</ele>
        <time>2026-08-16T02:02:03.000Z</time>
      </trkpt>
      <trkpt lat="22.786613" lon="109.994803">
        <ele>119.117840</ele>
        <time>2026-08-16T02:02:04.000Z</time>
      </trkpt>
      <trkpt lat="22.786603" lon="109.994850">
        <ele>119.205077</ele>
        <time>2026-08-16T02:02:05.000Z</time>
      </trkpt>
      <trkpt lat="22.786593" lon="109.994895">
        <ele>119.288793</ele>
        <time>2026-08-16T02:02:06.000Z</time>
      </trkpt>
      <trkpt lat="22.786581" lon="109.994941">
        <ele>119.375254</ele>
        <time>2026-08-16T02:02:07.000Z</time>
      </trkpt>
      <trkpt lat="22.786574" lon="109.994985">
        <ele>119.456008</ele>
        <time>2026-08-16T02:02:08.000Z</time>
      </trkpt>
      <trkpt lat="22.786568" lon="109.995025">
        <ele>119.529302</ele>
        <time>2026-08-16T02:02:09.000Z</time>
      </trkpt>
      <trkpt lat="22.786560" lon="109.995066">
        <ele>119.605096</ele>
        <time>2026-08-16T02:02:10.000Z</time>
      </trkpt>
      <trkpt lat="22.786552" lon="109.995107">
        <ele>119.680890</ele>
        <time>2026-08-16T02:02:11.000Z</time>
      </trkpt>
      <trkpt lat="22.786542" lon="109.995149">
        <ele>119.759342</ele>
        <time>2026-08-16T02:02:12.000Z</time>
      </trkpt>
      <trkpt lat="22.786534" lon="109.995190">
        <ele>119.835137</ele>
        <time>2026-08-16T02:02:13.000Z</time>
      </trkpt>
      <trkpt lat="22.786524" lon="109.995231">
        <ele>119.911839</ele>
        <time>2026-08-16T02:02:14.000Z</time>
      </trkpt>
      <trkpt lat="22.786515" lon="109.995271">
        <ele>119.986305</ele>
        <time>2026-08-16T02:02:15.000Z</time>
      </trkpt>
      <trkpt lat="22.786508" lon="109.995311">
        <ele>120.059940</ele>
        <time>2026-08-16T02:02:16.000Z</time>
      </trkpt>
      <trkpt lat="22.786502" lon="109.995348">
        <ele>120.127885</ele>
        <time>2026-08-16T02:02:17.000Z</time>
      </trkpt>
      <trkpt lat="22.786495" lon="109.995385">
        <ele>120.196196</ele>
        <time>2026-08-16T02:02:18.000Z</time>
      </trkpt>
      <trkpt lat="22.786490" lon="109.995422">
        <ele>120.263829</ele>
        <time>2026-08-16T02:02:19.000Z</time>
      </trkpt>
      <trkpt lat="22.786485" lon="109.995460">
        <ele>120.333251</ele>
        <time>2026-08-16T02:02:20.000Z</time>
      </trkpt>
      <trkpt lat="22.786482" lon="109.995496">
        <ele>120.398625</ele>
        <time>2026-08-16T02:02:21.000Z</time>
      </trkpt>
      <trkpt lat="22.786478" lon="109.995530">
        <ele>120.460615</ele>
        <time>2026-08-16T02:02:22.000Z</time>
      </trkpt>
      <trkpt lat="22.786472" lon="109.995563">
        <ele>120.521448</ele>
        <time>2026-08-16T02:02:23.000Z</time>
      </trkpt>
      <trkpt lat="22.786464" lon="109.995596">
        <ele>120.583160</ele>
        <time>2026-08-16T02:02:24.000Z</time>
      </trkpt>
      <trkpt lat="22.786459" lon="109.995631">
        <ele>120.644928</ele>
        <time>2026-08-16T02:02:25.000Z</time>
      </trkpt>
      <trkpt lat="22.786457" lon="109.995666">
        <ele>120.697528</ele>
        <time>2026-08-16T02:02:26.000Z</time>
      </trkpt>
      <trkpt lat="22.786455" lon="109.995701">
        <ele>120.750129</ele>
        <time>2026-08-16T02:02:27.000Z</time>
      </trkpt>
      <trkpt lat="22.786450" lon="109.995736">
        <ele>120.803256</ele>
        <time>2026-08-16T02:02:28.000Z</time>
      </trkpt>
      <trkpt lat="22.786446" lon="109.995771">
        <ele>120.856158</ele>
        <time>2026-08-16T02:02:29.000Z</time>
      </trkpt>
      <trkpt lat="22.786443" lon="109.995806">
        <ele>120.908884</ele>
        <time>2026-08-16T02:02:30.000Z</time>
      </trkpt>
      <trkpt lat="22.786438" lon="109.995841">
        <ele>120.962011</ele>
        <time>2026-08-16T02:02:31.000Z</time>
      </trkpt>
      <trkpt lat="22.786431" lon="109.995876">
        <ele>121.015732</ele>
        <time>2026-08-16T02:02:32.000Z</time>
      </trkpt>
      <trkpt lat="22.786426" lon="109.995912">
        <ele>121.070341</ele>
        <time>2026-08-16T02:02:33.000Z</time>
      </trkpt>
      <trkpt lat="22.786422" lon="109.995947">
        <ele>121.123243</ele>
        <time>2026-08-16T02:02:34.000Z</time>
      </trkpt>
      <trkpt lat="22.786417" lon="109.995982">
        <ele>121.176370</ele>
        <time>2026-08-16T02:02:35.000Z</time>
      </trkpt>
      <trkpt lat="22.786412" lon="109.996017">
        <ele>121.229497</ele>
        <time>2026-08-16T02:02:36.000Z</time>
      </trkpt>
      <trkpt lat="22.786407" lon="109.996054">
        <ele>121.285590</ele>
        <time>2026-08-16T02:02:37.000Z</time>
      </trkpt>
      <trkpt lat="22.786403" lon="109.996090">
        <ele>121.339981</ele>
        <time>2026-08-16T02:02:38.000Z</time>
      </trkpt>
      <trkpt lat="22.786398" lon="109.996125">
        <ele>121.393107</ele>
        <time>2026-08-16T02:02:39.000Z</time>
      </trkpt>
      <trkpt lat="22.786395" lon="109.996162">
        <ele>121.448821</ele>
        <time>2026-08-16T02:02:40.000Z</time>
      </trkpt>
      <trkpt lat="22.786391" lon="109.996197">
        <ele>121.501723</ele>
        <time>2026-08-16T02:02:41.000Z</time>
      </trkpt>
      <trkpt lat="22.786385" lon="109.996234">
        <ele>121.558075</ele>
        <time>2026-08-16T02:02:42.000Z</time>
      </trkpt>
      <trkpt lat="22.786380" lon="109.996271">
        <ele>121.614169</ele>
        <time>2026-08-16T02:02:43.000Z</time>
      </trkpt>
      <trkpt lat="22.786373" lon="109.996309">
        <ele>121.672295</ele>
        <time>2026-08-16T02:02:44.000Z</time>
      </trkpt>
      <trkpt lat="22.786365" lon="109.996345">
        <ele>121.727842</ele>
        <time>2026-08-16T02:02:45.000Z</time>
      </trkpt>
      <trkpt lat="22.786359" lon="109.996381">
        <ele>121.782717</ele>
        <time>2026-08-16T02:02:46.000Z</time>
      </trkpt>
      <trkpt lat="22.786353" lon="109.996415">
        <ele>121.834643</ele>
        <time>2026-08-16T02:02:47.000Z</time>
      </trkpt>
      <trkpt lat="22.786346" lon="109.996449">
        <ele>121.886900</ele>
        <time>2026-08-16T02:02:48.000Z</time>
      </trkpt>
      <trkpt lat="22.786340" lon="109.996482">
        <ele>121.937353</ele>
        <time>2026-08-16T02:02:49.000Z</time>
      </trkpt>
      <trkpt lat="22.786332" lon="109.996514">
        <ele>121.987087</ele>
        <time>2026-08-16T02:02:50.000Z</time>
      </trkpt>
      <trkpt lat="22.786325" lon="109.996546">
        <ele>122.036419</ele>
        <time>2026-08-16T02:02:51.000Z</time>
      </trkpt>
      <trkpt lat="22.786321" lon="109.996575">
        <ele>122.080404</ele>
        <time>2026-08-16T02:02:52.000Z</time>
      </trkpt>
      <trkpt lat="22.786317" lon="109.996606">
        <ele>122.127357</ele>
        <time>2026-08-16T02:02:53.000Z</time>
      </trkpt>
      <trkpt lat="22.786311" lon="109.996637">
        <ele>122.174871</ele>
        <time>2026-08-16T02:02:54.000Z</time>
      </trkpt>
      <trkpt lat="22.786300" lon="109.996665">
        <ele>122.220525</ele>
        <time>2026-08-16T02:02:55.000Z</time>
      </trkpt>
      <trkpt lat="22.786293" lon="109.996695">
        <ele>122.266944</ele>
        <time>2026-08-16T02:02:56.000Z</time>
      </trkpt>
      <trkpt lat="22.786286" lon="109.996724">
        <ele>122.311910</ele>
        <time>2026-08-16T02:02:57.000Z</time>
      </trkpt>
      <trkpt lat="22.786276" lon="109.996750">
        <ele>122.354168</ele>
        <time>2026-08-16T02:02:58.000Z</time>
      </trkpt>
      <trkpt lat="22.786267" lon="109.996777">
        <ele>122.397234</ele>
        <time>2026-08-16T02:02:59.000Z</time>
      </trkpt>
      <trkpt lat="22.786258" lon="109.996802">
        <ele>122.437491</ele>
        <time>2026-08-16T02:03:00.000Z</time>
      </trkpt>
      <trkpt lat="22.786252" lon="109.996827">
        <ele>122.476241</ele>
        <time>2026-08-16T02:03:01.000Z</time>
      </trkpt>
      <trkpt lat="22.786246" lon="109.996855">
        <ele>122.519361</ele>
        <time>2026-08-16T02:03:02.000Z</time>
      </trkpt>
      <trkpt lat="22.786244" lon="109.996876">
        <ele>122.551028</ele>
        <time>2026-08-16T02:03:03.000Z</time>
      </trkpt>
      <trkpt lat="22.786247" lon="109.996909">
        <ele>122.600769</ele>
        <time>2026-08-16T02:03:04.000Z</time>
      </trkpt>
      <trkpt lat="22.786252" lon="109.996941">
        <ele>122.649453</ele>
        <time>2026-08-16T02:03:05.000Z</time>
      </trkpt>
      <trkpt lat="22.786251" lon="109.996970">
        <ele>122.692984</ele>
        <time>2026-08-16T02:03:06.000Z</time>
      </trkpt>
      <trkpt lat="22.786252" lon="109.997008">
        <ele>122.750007</ele>
        <time>2026-08-16T02:03:07.000Z</time>
      </trkpt>
      <trkpt lat="22.786247" lon="109.997048">
        <ele>122.810556</ele>
        <time>2026-08-16T02:03:08.000Z</time>
      </trkpt>
      <trkpt lat="22.786235" lon="109.997093">
        <ele>122.880823</ele>
        <time>2026-08-16T02:03:09.000Z</time>
      </trkpt>
      <trkpt lat="22.786231" lon="109.997134">
        <ele>122.942667</ele>
        <time>2026-08-16T02:03:10.000Z</time>
      </trkpt>
      <trkpt lat="22.786225" lon="109.997179">
        <ele>123.010869</ele>
        <time>2026-08-16T02:03:11.000Z</time>
      </trkpt>
      <trkpt lat="22.786215" lon="109.997229">
        <ele>123.087614</ele>
        <time>2026-08-16T02:03:12.000Z</time>
      </trkpt>
      <trkpt lat="22.786205" lon="109.997277">
        <ele>123.161430</ele>
        <time>2026-08-16T02:03:13.000Z</time>
      </trkpt>
      <trkpt lat="22.786197" lon="109.997326">
        <ele>123.236073</ele>
        <time>2026-08-16T02:03:14.000Z</time>
      </trkpt>
      <trkpt lat="22.786186" lon="109.997373">
        <ele>123.308810</ele>
        <time>2026-08-16T02:03:15.000Z</time>
      </trkpt>
      <trkpt lat="22.786173" lon="109.997421">
        <ele>123.383852</ele>
        <time>2026-08-16T02:03:16.000Z</time>
      </trkpt>
      <trkpt lat="22.786162" lon="109.997470">
        <ele>123.459500</ele>
        <time>2026-08-16T02:03:17.000Z</time>
      </trkpt>
      <trkpt lat="22.786151" lon="109.997522">
        <ele>123.539527</ele>
        <time>2026-08-16T02:03:18.000Z</time>
      </trkpt>
      <trkpt lat="22.786142" lon="109.997577">
        <ele>123.520779</ele>
        <time>2026-08-16T02:03:19.000Z</time>
      </trkpt>
      <trkpt lat="22.786130" lon="109.997632">
        <ele>123.467907</ele>
        <time>2026-08-16T02:03:20.000Z</time>
      </trkpt>
      <trkpt lat="22.786117" lon="109.997689">
        <ele>123.412979</ele>
        <time>2026-08-16T02:03:21.000Z</time>
      </trkpt>
      <trkpt lat="22.786109" lon="109.997747">
        <ele>123.358118</ele>
        <time>2026-08-16T02:03:22.000Z</time>
      </trkpt>
      <trkpt lat="22.786102" lon="109.997801">
        <ele>123.307107</ele>
        <time>2026-08-16T02:03:23.000Z</time>
      </trkpt>
      <trkpt lat="22.786089" lon="109.997859">
        <ele>123.251270</ele>
        <time>2026-08-16T02:03:24.000Z</time>
      </trkpt>
      <trkpt lat="22.786079" lon="109.997917">
        <ele>123.196073</ele>
        <time>2026-08-16T02:03:25.000Z</time>
      </trkpt>
      <trkpt lat="22.786071" lon="109.997974">
        <ele>123.142137</ele>
        <time>2026-08-16T02:03:26.000Z</time>
      </trkpt>
      <trkpt lat="22.786060" lon="109.998034">
        <ele>123.084911</ele>
        <time>2026-08-16T02:03:27.000Z</time>
      </trkpt>
      <trkpt lat="22.786046" lon="109.998096">
        <ele>123.025198</ele>
        <time>2026-08-16T02:03:28.000Z</time>
      </trkpt>
      <trkpt lat="22.786031" lon="109.998159">
        <ele>122.964330</ele>
        <time>2026-08-16T02:03:29.000Z</time>
      </trkpt>
      <trkpt lat="22.786016" lon="109.998226">
        <ele>122.899833</ele>
        <time>2026-08-16T02:03:30.000Z</time>
      </trkpt>
      <trkpt lat="22.786002" lon="109.998293">
        <ele>122.835568</ele>
        <time>2026-08-16T02:03:31.000Z</time>
      </trkpt>
      <trkpt lat="22.785991" lon="109.998361">
        <ele>122.770985</ele>
        <time>2026-08-16T02:03:32.000Z</time>
      </trkpt>
      <trkpt lat="22.785981" lon="109.998426">
        <ele>122.709339</ele>
        <time>2026-08-16T02:03:33.000Z</time>
      </trkpt>
      <trkpt lat="22.785970" lon="109.998489">
        <ele>122.649357</ele>
        <time>2026-08-16T02:03:34.000Z</time>
      </trkpt>
      <trkpt lat="22.785960" lon="109.998553">
        <ele>122.588634</ele>
        <time>2026-08-16T02:03:35.000Z</time>
      </trkpt>
      <trkpt lat="22.785950" lon="109.998615">
        <ele>122.529755</ele>
        <time>2026-08-16T02:03:36.000Z</time>
      </trkpt>
      <trkpt lat="22.785939" lon="109.998680">
        <ele>122.467934</ele>
        <time>2026-08-16T02:03:37.000Z</time>
      </trkpt>
      <trkpt lat="22.785929" lon="109.998745">
        <ele>122.406288</ele>
        <time>2026-08-16T02:03:38.000Z</time>
      </trkpt>
      <trkpt lat="22.785918" lon="109.998811">
        <ele>122.343547</ele>
        <time>2026-08-16T02:03:39.000Z</time>
      </trkpt>
      <trkpt lat="22.785908" lon="109.998873">
        <ele>122.284668</ele>
        <time>2026-08-16T02:03:40.000Z</time>
      </trkpt>
      <trkpt lat="22.785900" lon="109.998936">
        <ele>122.225178</ele>
        <time>2026-08-16T02:03:41.000Z</time>
      </trkpt>
      <trkpt lat="22.785893" lon="109.998999">
        <ele>122.165817</ele>
        <time>2026-08-16T02:03:42.000Z</time>
      </trkpt>
      <trkpt lat="22.785885" lon="109.999061">
        <ele>122.107253</ele>
        <time>2026-08-16T02:03:43.000Z</time>
      </trkpt>
      <trkpt lat="22.785875" lon="109.999122">
        <ele>122.049295</ele>
        <time>2026-08-16T02:03:44.000Z</time>
      </trkpt>
      <trkpt lat="22.785863" lon="109.999184">
        <ele>121.990032</ele>
        <time>2026-08-16T02:03:45.000Z</time>
      </trkpt>
      <trkpt lat="22.785848" lon="109.999244">
        <ele>121.931878</ele>
        <time>2026-08-16T02:03:46.000Z</time>
      </trkpt>
      <trkpt lat="22.785831" lon="109.999305">
        <ele>121.872264</ele>
        <time>2026-08-16T02:03:47.000Z</time>
      </trkpt>
      <trkpt lat="22.785816" lon="109.999366">
        <ele>121.813207</ele>
        <time>2026-08-16T02:03:48.000Z</time>
      </trkpt>
      <trkpt lat="22.785803" lon="109.999428">
        <ele>121.753727</ele>
        <time>2026-08-16T02:03:49.000Z</time>
      </trkpt>
      <trkpt lat="22.785791" lon="109.999490">
        <ele>121.772714</ele>
        <time>2026-08-16T02:03:50.000Z</time>
      </trkpt>
      <trkpt lat="22.785779" lon="109.999553">
        <ele>121.828192</ele>
        <time>2026-08-16T02:03:51.000Z</time>
      </trkpt>
      <trkpt lat="22.785769" lon="109.999615">
        <ele>121.882473</ele>
        <time>2026-08-16T02:03:52.000Z</time>
      </trkpt>
      <trkpt lat="22.785758" lon="109.999678">
        <ele>121.937770</ele>
        <time>2026-08-16T02:03:53.000Z</time>
      </trkpt>
      <trkpt lat="22.785748" lon="109.999739">
        <ele>121.991202</ele>
        <time>2026-08-16T02:03:54.000Z</time>
      </trkpt>
      <trkpt lat="22.785738" lon="109.999799">
        <ele>122.043784</ele>
        <time>2026-08-16T02:03:55.000Z</time>
      </trkpt>
      <trkpt lat="22.785728" lon="109.999858">
        <ele>122.095519</ele>
        <time>2026-08-16T02:03:56.000Z</time>
      </trkpt>
      <trkpt lat="22.785716" lon="109.999916">
        <ele>122.146782</ele>
        <time>2026-08-16T02:03:57.000Z</time>
      </trkpt>
      <trkpt lat="22.785705" lon="109.999972">
        <ele>122.196160</ele>
        <time>2026-08-16T02:03:58.000Z</time>
      </trkpt>
      <trkpt lat="22.785694" lon="110.000025">
        <ele>122.243011</ele>
        <time>2026-08-16T02:03:59.000Z</time>
      </trkpt>
      <trkpt lat="22.785682" lon="110.000077">
        <ele>122.289239</ele>
        <time>2026-08-16T02:04:00.000Z</time>
      </trkpt>
      <trkpt lat="22.785671" lon="110.000128">
        <ele>122.334409</ele>
        <time>2026-08-16T02:04:01.000Z</time>
      </trkpt>
      <trkpt lat="22.785662" lon="110.000178">
        <ele>122.378344</ele>
        <time>2026-08-16T02:04:02.000Z</time>
      </trkpt>
      <trkpt lat="22.785654" lon="110.000225">
        <ele>122.419561</ele>
        <time>2026-08-16T02:04:03.000Z</time>
      </trkpt>
      <trkpt lat="22.785647" lon="110.000273">
        <ele>122.461471</ele>
        <time>2026-08-16T02:04:04.000Z</time>
      </trkpt>
      <trkpt lat="22.785641" lon="110.000320">
        <ele>122.502391</ele>
        <time>2026-08-16T02:04:05.000Z</time>
      </trkpt>
      <trkpt lat="22.785636" lon="110.000362">
        <ele>122.538912</ele>
        <time>2026-08-16T02:04:06.000Z</time>
      </trkpt>
      <trkpt lat="22.785634" lon="110.000403">
        <ele>122.574320</ele>
        <time>2026-08-16T02:04:07.000Z</time>
      </trkpt>
      <trkpt lat="22.785640" lon="110.000443">
        <ele>122.609270</ele>
        <time>2026-08-16T02:04:08.000Z</time>
      </trkpt>
      <trkpt lat="22.785652" lon="110.000481">
        <ele>122.643910</ele>
        <time>2026-08-16T02:04:09.000Z</time>
      </trkpt>
      <trkpt lat="22.785668" lon="110.000516">
        <ele>122.677601</ele>
        <time>2026-08-16T02:04:10.000Z</time>
      </trkpt>
      <trkpt lat="22.785687" lon="110.000550">
        <ele>122.711888</ele>
        <time>2026-08-16T02:04:11.000Z</time>
      </trkpt>
      <trkpt lat="22.785710" lon="110.000581">
        <ele>122.746204</ele>
        <time>2026-08-16T02:04:12.000Z</time>
      </trkpt>
      <trkpt lat="22.785738" lon="110.000604">
        <ele>122.779059</ele>
        <time>2026-08-16T02:04:13.000Z</time>
      </trkpt>
      <trkpt lat="22.785771" lon="110.000629">
        <ele>122.816711</ele>
        <time>2026-08-16T02:04:14.000Z</time>
      </trkpt>
      <trkpt lat="22.785805" lon="110.000653">
        <ele>122.854656</ele>
        <time>2026-08-16T02:04:15.000Z</time>
      </trkpt>
      <trkpt lat="22.785841" lon="110.000673">
        <ele>122.892491</ele>
        <time>2026-08-16T02:04:16.000Z</time>
      </trkpt>
      <trkpt lat="22.785875" lon="110.000698">
        <ele>122.930914</ele>
        <time>2026-08-16T02:04:17.000Z</time>
      </trkpt>
      <trkpt lat="22.785911" lon="110.000726">
        <ele>122.972351</ele>
        <time>2026-08-16T02:04:18.000Z</time>
      </trkpt>
      <trkpt lat="22.785945" lon="110.000759">
        <ele>123.015029</ele>
        <time>2026-08-16T02:04:19.000Z</time>
      </trkpt>
      <trkpt lat="22.785979" lon="110.000789">
        <ele>123.056026</ele>
        <time>2026-08-16T02:04:20.000Z</time>
      </trkpt>
      <trkpt lat="22.786013" lon="110.000809">
        <ele>123.092206</ele>
        <time>2026-08-16T02:04:21.000Z</time>
      </trkpt>
      <trkpt lat="22.786042" lon="110.000829">
        <ele>123.124352</ele>
        <time>2026-08-16T02:04:22.000Z</time>
      </trkpt>
      <trkpt lat="22.786062" lon="110.000861">
        <ele>123.157692</ele>
        <time>2026-08-16T02:04:23.000Z</time>
      </trkpt>
      <trkpt lat="22.786104" lon="110.000858">
        <ele>123.197064</ele>
        <time>2026-08-16T02:04:24.000Z</time>
      </trkpt>
      <trkpt lat="22.786138" lon="110.000870">
        <ele>123.230509</ele>
        <time>2026-08-16T02:04:25.000Z</time>
      </trkpt>
      <trkpt lat="22.786170" lon="110.000893">
        <ele>123.266417</ele>
        <time>2026-08-16T02:04:26.000Z</time>
      </trkpt>
      <trkpt lat="22.786203" lon="110.000910">
        <ele>123.300590</ele>
        <time>2026-08-16T02:04:27.000Z</time>
      </trkpt>
      <trkpt lat="22.786225" lon="110.000926">
        <ele>123.325366</ele>
        <time>2026-08-16T02:04:28.000Z</time>
      </trkpt>
      <trkpt lat="22.786249" lon="110.000929">
        <ele>123.347965</ele>
        <time>2026-08-16T02:04:29.000Z</time>
      </trkpt>
      <trkpt lat="22.786264" lon="110.000934">
        <ele>123.362643</ele>
        <time>2026-08-16T02:04:30.000Z</time>
      </trkpt>
      <trkpt lat="22.786280" lon="110.000948">
        <ele>123.381872</ele>
        <time>2026-08-16T02:04:31.000Z</time>
      </trkpt>
      <trkpt lat="22.786291" lon="110.000964">
        <ele>123.399085</ele>
        <time>2026-08-16T02:04:32.000Z</time>
      </trkpt>
      <trkpt lat="22.786303" lon="110.000977">
        <ele>123.414949</ele>
        <time>2026-08-16T02:04:33.000Z</time>
      </trkpt>
      <trkpt lat="22.786317" lon="110.000992">
        <ele>123.441206</ele>
        <time>2026-08-16T02:04:34.000Z</time>
      </trkpt>
      <trkpt lat="22.786336" lon="110.001009">
        <ele>123.475742</ele>
        <time>2026-08-16T02:04:35.000Z</time>
      </trkpt>
      <trkpt lat="22.786357" lon="110.001027">
        <ele>123.513272</ele>
        <time>2026-08-16T02:04:36.000Z</time>
      </trkpt>
      <trkpt lat="22.786382" lon="110.001046">
        <ele>123.556076</ele>
        <time>2026-08-16T02:04:37.000Z</time>
      </trkpt>
      <trkpt lat="22.786406" lon="110.001068">
        <ele>123.600136</ele>
        <time>2026-08-16T02:04:38.000Z</time>
      </trkpt>
      <trkpt lat="22.786430" lon="110.001092">
        <ele>123.645909</ele>
        <time>2026-08-16T02:04:39.000Z</time>
      </trkpt>
      <trkpt lat="22.786452" lon="110.001120">
        <ele>123.693467</ele>
        <time>2026-08-16T02:04:40.000Z</time>
      </trkpt>
      <trkpt lat="22.786475" lon="110.001150">
        <ele>123.743907</ele>
        <time>2026-08-16T02:04:41.000Z</time>
      </trkpt>
      <trkpt lat="22.786499" lon="110.001180">
        <ele>123.795254</ele>
        <time>2026-08-16T02:04:42.000Z</time>
      </trkpt>
      <trkpt lat="22.786522" lon="110.001211">
        <ele>123.846695</ele>
        <time>2026-08-16T02:04:43.000Z</time>
      </trkpt>
      <trkpt lat="22.786543" lon="110.001246">
        <ele>123.900679</ele>
        <time>2026-08-16T02:04:44.000Z</time>
      </trkpt>
      <trkpt lat="22.786562" lon="110.001282">
        <ele>123.954304</ele>
        <time>2026-08-16T02:04:45.000Z</time>
      </trkpt>
      <trkpt lat="22.786581" lon="110.001318">
        <ele>124.007929</ele>
        <time>2026-08-16T02:04:46.000Z</time>
      </trkpt>
      <trkpt lat="22.786597" lon="110.001355">
        <ele>124.060760</ele>
        <time>2026-08-16T02:04:47.000Z</time>
      </trkpt>
      <trkpt lat="22.786614" lon="110.001391">
        <ele>124.113049</ele>
        <time>2026-08-16T02:04:48.000Z</time>
      </trkpt>
      <trkpt lat="22.786632" lon="110.001427">
        <ele>124.165991</ele>
        <time>2026-08-16T02:04:49.000Z</time>
      </trkpt>
      <trkpt lat="22.786648" lon="110.001464">
        <ele>124.218823</ele>
        <time>2026-08-16T02:04:50.000Z</time>
      </trkpt>
      <trkpt lat="22.786662" lon="110.001503">
        <ele>124.272927</ele>
        <time>2026-08-16T02:04:51.000Z</time>
      </trkpt>
      <trkpt lat="22.786672" lon="110.001543">
        <ele>124.326504</ele>
        <time>2026-08-16T02:04:52.000Z</time>
      </trkpt>
      <trkpt lat="22.786684" lon="110.001582">
        <ele>124.379655</ele>
        <time>2026-08-16T02:04:53.000Z</time>
      </trkpt>
      <trkpt lat="22.786696" lon="110.001622">
        <ele>124.434034</ele>
        <time>2026-08-16T02:04:54.000Z</time>
      </trkpt>
      <trkpt lat="22.786706" lon="110.001662">
        <ele>124.487611</ele>
        <time>2026-08-16T02:04:55.000Z</time>
      </trkpt>
      <trkpt lat="22.786715" lon="110.001704">
        <ele>124.543353</ele>
        <time>2026-08-16T02:04:56.000Z</time>
      </trkpt>
      <trkpt lat="22.786721" lon="110.001747">
        <ele>124.599575</ele>
        <time>2026-08-16T02:04:57.000Z</time>
      </trkpt>
      <trkpt lat="22.786726" lon="110.001788">
        <ele>124.653039</ele>
        <time>2026-08-16T02:04:58.000Z</time>
      </trkpt>
      <trkpt lat="22.786732" lon="110.001829">
        <ele>124.706705</ele>
        <time>2026-08-16T02:04:59.000Z</time>
      </trkpt>
      <trkpt lat="22.786739" lon="110.001873">
        <ele>124.764426</ele>
        <time>2026-08-16T02:05:00.000Z</time>
      </trkpt>
      <trkpt lat="22.786745" lon="110.001916">
        <ele>124.820648</ele>
        <time>2026-08-16T02:05:01.000Z</time>
      </trkpt>
      <trkpt lat="22.786751" lon="110.001958">
        <ele>124.875591</ele>
        <time>2026-08-16T02:05:02.000Z</time>
      </trkpt>
      <trkpt lat="22.786757" lon="110.002000">
        <ele>124.930534</ele>
        <time>2026-08-16T02:05:03.000Z</time>
      </trkpt>
      <trkpt lat="22.786764" lon="110.002042">
        <ele>124.985710</ele>
        <time>2026-08-16T02:05:04.000Z</time>
      </trkpt>
      <trkpt lat="22.786771" lon="110.002084">
        <ele>125.040885</ele>
        <time>2026-08-16T02:05:05.000Z</time>
      </trkpt>
      <trkpt lat="22.786779" lon="110.002125">
        <ele>125.095062</ele>
        <time>2026-08-16T02:05:06.000Z</time>
      </trkpt>
      <trkpt lat="22.786787" lon="110.002166">
        <ele>125.149238</ele>
        <time>2026-08-16T02:05:07.000Z</time>
      </trkpt>
      <trkpt lat="22.786795" lon="110.002209">
        <ele>125.205947</ele>
        <time>2026-08-16T02:05:08.000Z</time>
      </trkpt>
      <trkpt lat="22.786803" lon="110.002251">
        <ele>125.261389</ele>
        <time>2026-08-16T02:05:09.000Z</time>
      </trkpt>
      <trkpt lat="22.786814" lon="110.002291">
        <ele>125.315350</ele>
        <time>2026-08-16T02:05:10.000Z</time>
      </trkpt>
      <trkpt lat="22.786823" lon="110.002333">
        <ele>125.371093</ele>
        <time>2026-08-16T02:05:11.000Z</time>
      </trkpt>
      <trkpt lat="22.786832" lon="110.002375">
        <ele>125.426835</ele>
        <time>2026-08-16T02:05:12.000Z</time>
      </trkpt>
      <trkpt lat="22.786841" lon="110.002416">
        <ele>125.481319</ele>
        <time>2026-08-16T02:05:13.000Z</time>
      </trkpt>
      <trkpt lat="22.786850" lon="110.002455">
        <ele>125.533292</ele>
        <time>2026-08-16T02:05:14.000Z</time>
      </trkpt>
      <trkpt lat="22.786860" lon="110.002494">
        <ele>125.585622</ele>
        <time>2026-08-16T02:05:15.000Z</time>
      </trkpt>
      <trkpt lat="22.786871" lon="110.002534">
        <ele>125.639584</ele>
        <time>2026-08-16T02:05:16.000Z</time>
      </trkpt>
      <trkpt lat="22.786882" lon="110.002574">
        <ele>125.693545</ele>
        <time>2026-08-16T02:05:17.000Z</time>
      </trkpt>
      <trkpt lat="22.786892" lon="110.002615">
        <ele>125.748371</ele>
        <time>2026-08-16T02:05:18.000Z</time>
      </trkpt>
      <trkpt lat="22.786903" lon="110.002653">
        <ele>125.799859</ele>
        <time>2026-08-16T02:05:19.000Z</time>
      </trkpt>
      <trkpt lat="22.786916" lon="110.002693">
        <ele>125.854688</ele>
        <time>2026-08-16T02:05:20.000Z</time>
      </trkpt>
      <trkpt lat="22.786931" lon="110.002734">
        <ele>125.911711</ele>
        <time>2026-08-16T02:05:21.000Z</time>
      </trkpt>
      <trkpt lat="22.786947" lon="110.002774">
        <ele>125.986338</ele>
        <time>2026-08-16T02:05:22.000Z</time>
      </trkpt>
      <trkpt lat="22.786964" lon="110.002812">
        <ele>126.076017</ele>
        <time>2026-08-16T02:05:23.000Z</time>
      </trkpt>
      <trkpt lat="22.786982" lon="110.002850">
        <ele>126.166725</ele>
        <time>2026-08-16T02:05:24.000Z</time>
      </trkpt>
      <trkpt lat="22.786999" lon="110.002889">
        <ele>126.258319</ele>
        <time>2026-08-16T02:05:25.000Z</time>
      </trkpt>
      <trkpt lat="22.787017" lon="110.002926">
        <ele>126.347145</ele>
        <time>2026-08-16T02:05:26.000Z</time>
      </trkpt>
      <trkpt lat="22.787037" lon="110.002962">
        <ele>126.436385</ele>
        <time>2026-08-16T02:05:27.000Z</time>
      </trkpt>
      <trkpt lat="22.787056" lon="110.003000">
        <ele>126.528169</ele>
        <time>2026-08-16T02:05:28.000Z</time>
      </trkpt>
      <trkpt lat="22.787074" lon="110.003039">
        <ele>126.620771</ele>
        <time>2026-08-16T02:05:29.000Z</time>
      </trkpt>
      <trkpt lat="22.787095" lon="110.003077">
        <ele>126.714837</ele>
        <time>2026-08-16T02:05:30.000Z</time>
      </trkpt>
      <trkpt lat="22.787116" lon="110.003113">
        <ele>126.805288</ele>
        <time>2026-08-16T02:05:31.000Z</time>
      </trkpt>
      <trkpt lat="22.787137" lon="110.003149">
        <ele>126.895739</ele>
        <time>2026-08-16T02:05:32.000Z</time>
      </trkpt>
      <trkpt lat="22.787159" lon="110.003186">
        <ele>126.989218</ele>
        <time>2026-08-16T02:05:33.000Z</time>
      </trkpt>
      <trkpt lat="22.787182" lon="110.003220">
        <ele>127.078756</ele>
        <time>2026-08-16T02:05:34.000Z</time>
      </trkpt>
      <trkpt lat="22.787207" lon="110.003254">
        <ele>127.171092</ele>
        <time>2026-08-16T02:05:35.000Z</time>
      </trkpt>
      <trkpt lat="22.787232" lon="110.003287">
        <ele>127.261779</ele>
        <time>2026-08-16T02:05:36.000Z</time>
      </trkpt>
      <trkpt lat="22.787259" lon="110.003318">
        <ele>127.352325</ele>
        <time>2026-08-16T02:05:37.000Z</time>
      </trkpt>
      <trkpt lat="22.787286" lon="110.003350">
        <ele>127.444426</ele>
        <time>2026-08-16T02:05:38.000Z</time>
      </trkpt>
      <trkpt lat="22.787312" lon="110.003382">
        <ele>127.534988</ele>
        <time>2026-08-16T02:05:39.000Z</time>
      </trkpt>
      <trkpt lat="22.787338" lon="110.003415">
        <ele>127.627153</ele>
        <time>2026-08-16T02:05:40.000Z</time>
      </trkpt>
      <trkpt lat="22.787361" lon="110.003450">
        <ele>127.718411</ele>
        <time>2026-08-16T02:05:41.000Z</time>
      </trkpt>
      <trkpt lat="22.787385" lon="110.003484">
        <ele>127.809329</ele>
        <time>2026-08-16T02:05:42.000Z</time>
      </trkpt>
      <trkpt lat="22.787409" lon="110.003520">
        <ele>127.903655</ele>
        <time>2026-08-16T02:05:43.000Z</time>
      </trkpt>
      <trkpt lat="22.787433" lon="110.003555">
        <ele>127.996268</ele>
        <time>2026-08-16T02:05:44.000Z</time>
      </trkpt>
      <trkpt lat="22.787459" lon="110.003590">
        <ele>128.091702</ele>
        <time>2026-08-16T02:05:45.000Z</time>
      </trkpt>
      <trkpt lat="22.787485" lon="110.003624">
        <ele>128.185492</ele>
        <time>2026-08-16T02:05:46.000Z</time>
      </trkpt>
      <trkpt lat="22.787510" lon="110.003658">
        <ele>128.277828</ele>
        <time>2026-08-16T02:05:47.000Z</time>
      </trkpt>
      <trkpt lat="22.787536" lon="110.003692">
        <ele>128.371618</ele>
        <time>2026-08-16T02:05:48.000Z</time>
      </trkpt>
      <trkpt lat="22.787560" lon="110.003729">
        <ele>128.467672</ele>
        <time>2026-08-16T02:05:49.000Z</time>
      </trkpt>
      <trkpt lat="22.787583" lon="110.003765">
        <ele>128.560667</ele>
        <time>2026-08-16T02:05:50.000Z</time>
      </trkpt>
      <trkpt lat="22.787605" lon="110.003802">
        <ele>128.654146</ele>
        <time>2026-08-16T02:05:51.000Z</time>
      </trkpt>
      <trkpt lat="22.787627" lon="110.003840">
        <ele>128.749417</ele>
        <time>2026-08-16T02:05:52.000Z</time>
      </trkpt>
      <trkpt lat="22.787648" lon="110.003877">
        <ele>128.841669</ele>
        <time>2026-08-16T02:05:53.000Z</time>
      </trkpt>
      <trkpt lat="22.787665" lon="110.003913">
        <ele>128.927547</ele>
        <time>2026-08-16T02:05:54.000Z</time>
      </trkpt>
      <trkpt lat="22.787681" lon="110.003948">
        <ele>129.010493</ele>
        <time>2026-08-16T02:05:55.000Z</time>
      </trkpt>
      <trkpt lat="22.787697" lon="110.003983">
        <ele>129.093439</ele>
        <time>2026-08-16T02:05:56.000Z</time>
      </trkpt>
      <trkpt lat="22.787711" lon="110.004018">
        <ele>129.174444</ele>
        <time>2026-08-16T02:05:57.000Z</time>
      </trkpt>
      <trkpt lat="22.787725" lon="110.004051">
        <ele>129.251572</ele>
        <time>2026-08-16T02:05:58.000Z</time>
      </trkpt>
      <trkpt lat="22.787738" lon="110.004084">
        <ele>129.327766</ele>
        <time>2026-08-16T02:05:59.000Z</time>
      </trkpt>
      <trkpt lat="22.787749" lon="110.004117">
        <ele>129.402271</ele>
        <time>2026-08-16T02:06:00.000Z</time>
      </trkpt>
      <trkpt lat="22.787758" lon="110.004152">
        <ele>129.479420</ele>
        <time>2026-08-16T02:06:01.000Z</time>
      </trkpt>
      <trkpt lat="22.787765" lon="110.004185">
        <ele>129.551316</ele>
        <time>2026-08-16T02:06:02.000Z</time>
      </trkpt>
      <trkpt lat="22.787771" lon="110.004220">
        <ele>129.626902</ele>
        <time>2026-08-16T02:06:03.000Z</time>
      </trkpt>
      <trkpt lat="22.787775" lon="110.004256">
        <ele>129.703890</ele>
        <time>2026-08-16T02:06:04.000Z</time>
      </trkpt>
      <trkpt lat="22.787777" lon="110.004289">
        <ele>129.774107</ele>
        <time>2026-08-16T02:06:05.000Z</time>
      </trkpt>
      <trkpt lat="22.787779" lon="110.004323">
        <ele>129.846443</ele>
        <time>2026-08-16T02:06:06.000Z</time>
      </trkpt>
      <trkpt lat="22.787782" lon="110.004356">
        <ele>129.916849</ele>
        <time>2026-08-16T02:06:07.000Z</time>
      </trkpt>
      <trkpt lat="22.787785" lon="110.004388">
        <ele>129.985142</ele>
        <time>2026-08-16T02:06:08.000Z</time>
      </trkpt>
      <trkpt lat="22.787786" lon="110.004421">
        <ele>130.055245</ele>
        <time>2026-08-16T02:06:09.000Z</time>
      </trkpt>
      <trkpt lat="22.787788" lon="110.004453">
        <ele>130.118226</ele>
        <time>2026-08-16T02:06:10.000Z</time>
      </trkpt>
      <trkpt lat="22.787788" lon="110.004485">
        <ele>130.177788</ele>
        <time>2026-08-16T02:06:11.000Z</time>
      </trkpt>
      <trkpt lat="22.787785" lon="110.004519">
        <ele>130.241361</ele>
        <time>2026-08-16T02:06:12.000Z</time>
      </trkpt>
      <trkpt lat="22.787782" lon="110.004554">
        <ele>130.306786</ele>
        <time>2026-08-16T02:06:13.000Z</time>
      </trkpt>
      <trkpt lat="22.787778" lon="110.004589">
        <ele>130.372430</ele>
        <time>2026-08-16T02:06:14.000Z</time>
      </trkpt>
      <trkpt lat="22.787772" lon="110.004622">
        <ele>130.435036</ele>
        <time>2026-08-16T02:06:15.000Z</time>
      </trkpt>
      <trkpt lat="22.787766" lon="110.004656">
        <ele>130.499468</ele>
        <time>2026-08-16T02:06:16.000Z</time>
      </trkpt>
      <trkpt lat="22.787759" lon="110.004689">
        <ele>130.562496</ele>
        <time>2026-08-16T02:06:17.000Z</time>
      </trkpt>
      <trkpt lat="22.787751" lon="110.004722">
        <ele>130.626006</ele>
        <time>2026-08-16T02:06:18.000Z</time>
      </trkpt>
      <trkpt lat="22.787742" lon="110.004755">
        <ele>130.690060</ele>
        <time>2026-08-16T02:06:19.000Z</time>
      </trkpt>
      <trkpt lat="22.787733" lon="110.004789">
        <ele>130.755900</ele>
        <time>2026-08-16T02:06:20.000Z</time>
      </trkpt>
      <trkpt lat="22.787724" lon="110.004824">
        <ele>130.823532</ele>
        <time>2026-08-16T02:06:21.000Z</time>
      </trkpt>
      <trkpt lat="22.787715" lon="110.004862">
        <ele>130.896557</ele>
        <time>2026-08-16T02:06:22.000Z</time>
      </trkpt>
      <trkpt lat="22.787703" lon="110.004896">
        <ele>130.964320</ele>
        <time>2026-08-16T02:06:23.000Z</time>
      </trkpt>
      <trkpt lat="22.787692" lon="110.004929">
        <ele>131.029633</ele>
        <time>2026-08-16T02:06:24.000Z</time>
      </trkpt>
      <trkpt lat="22.787683" lon="110.004964">
        <ele>131.097265</ele>
        <time>2026-08-16T02:06:25.000Z</time>
      </trkpt>
      <trkpt lat="22.787672" lon="110.005003">
        <ele>131.173176</ele>
        <time>2026-08-16T02:06:26.000Z</time>
      </trkpt>
      <trkpt lat="22.787663" lon="110.005041">
        <ele>131.246202</ele>
        <time>2026-08-16T02:06:27.000Z</time>
      </trkpt>
      <trkpt lat="22.787654" lon="110.005076">
        <ele>131.313833</ele>
        <time>2026-08-16T02:06:28.000Z</time>
      </trkpt>
      <trkpt lat="22.787644" lon="110.005108">
        <ele>131.376723</ele>
        <time>2026-08-16T02:06:29.000Z</time>
      </trkpt>
      <trkpt lat="22.787637" lon="110.005146">
        <ele>131.448850</ele>
        <time>2026-08-16T02:06:30.000Z</time>
      </trkpt>
      <trkpt lat="22.787628" lon="110.005180">
        <ele>131.514691</ele>
        <time>2026-08-16T02:06:31.000Z</time>
      </trkpt>
      <trkpt lat="22.787618" lon="110.005214">
        <ele>131.581117</ele>
        <time>2026-08-16T02:06:32.000Z</time>
      </trkpt>
      <trkpt lat="22.787611" lon="110.005248">
        <ele>131.645959</ele>
        <time>2026-08-16T02:06:33.000Z</time>
      </trkpt>
      <trkpt lat="22.787603" lon="110.005283">
        <ele>131.713077</ele>
        <time>2026-08-16T02:06:34.000Z</time>
      </trkpt>
      <trkpt lat="22.787594" lon="110.005317">
        <ele>131.778917</ele>
        <time>2026-08-16T02:06:35.000Z</time>
      </trkpt>
      <trkpt lat="22.787585" lon="110.005352">
        <ele>131.846549</ele>
        <time>2026-08-16T02:06:36.000Z</time>
      </trkpt>
      <trkpt lat="22.787575" lon="110.005385">
        <ele>131.911204</ele>
        <time>2026-08-16T02:06:37.000Z</time>
      </trkpt>
      <trkpt lat="22.787565" lon="110.005418">
        <ele>131.975860</ele>
        <time>2026-08-16T02:06:38.000Z</time>
      </trkpt>
      <trkpt lat="22.787556" lon="110.005450">
        <ele>132.038131</ele>
        <time>2026-08-16T02:06:39.000Z</time>
      </trkpt>
      <trkpt lat="22.787545" lon="110.005480">
        <ele>132.098223</ele>
        <time>2026-08-16T02:06:40.000Z</time>
      </trkpt>
      <trkpt lat="22.787535" lon="110.005511">
        <ele>132.159353</ele>
        <time>2026-08-16T02:06:41.000Z</time>
      </trkpt>
      <trkpt lat="22.787530" lon="110.005544">
        <ele>132.221600</ele>
        <time>2026-08-16T02:06:42.000Z</time>
      </trkpt>
      <trkpt lat="22.787527" lon="110.005572">
        <ele>132.274067</ele>
        <time>2026-08-16T02:06:43.000Z</time>
      </trkpt>
      <trkpt lat="22.787525" lon="110.005599">
        <ele>132.324484</ele>
        <time>2026-08-16T02:06:44.000Z</time>
      </trkpt>
      <trkpt lat="22.787514" lon="110.005626">
        <ele>132.379426</ele>
        <time>2026-08-16T02:06:45.000Z</time>
      </trkpt>
      <trkpt lat="22.787501" lon="110.005658">
        <ele>132.444514</ele>
        <time>2026-08-16T02:06:46.000Z</time>
      </trkpt>
      <trkpt lat="22.787493" lon="110.005689">
        <ele>132.504432</ele>
        <time>2026-08-16T02:06:47.000Z</time>
      </trkpt>
      <trkpt lat="22.787497" lon="110.005718">
        <ele>132.559010</ele>
        <time>2026-08-16T02:06:48.000Z</time>
      </trkpt>
      <trkpt lat="22.787493" lon="110.005751">
        <ele>132.620961</ele>
        <time>2026-08-16T02:06:49.000Z</time>
      </trkpt>
      <trkpt lat="22.787490" lon="110.005792">
        <ele>132.697514</ele>
        <time>2026-08-16T02:06:50.000Z</time>
      </trkpt>
      <trkpt lat="22.787495" lon="110.005833">
        <ele>132.774492</ele>
        <time>2026-08-16T02:06:51.000Z</time>
      </trkpt>
      <trkpt lat="22.787495" lon="110.005833">
        <ele>132.774492</ele>
        <time>2026-08-16T02:06:53.000Z</time>
      </trkpt>
      <trkpt lat="22.787425" lon="110.006001">
        <ele>133.117640</ele>
        <time>2026-08-16T02:06:56.000Z</time>
      </trkpt>
      <trkpt lat="22.787344" lon="110.006042">
        <ele>133.298098</ele>
        <time>2026-08-16T02:06:57.000Z</time>
      </trkpt>
      <trkpt lat="22.787289" lon="110.006069">
        <ele>133.419979</ele>
        <time>2026-08-16T02:06:58.000Z</time>
      </trkpt>
      <trkpt lat="22.787298" lon="110.006154">
        <ele>133.579229</ele>
        <time>2026-08-16T02:06:59.000Z</time>
      </trkpt>
      <trkpt lat="22.787303" lon="110.006225">
        <ele>133.711766</ele>
        <time>2026-08-16T02:07:00.000Z</time>
      </trkpt>
      <trkpt lat="22.787306" lon="110.006291">
        <ele>133.586833</ele>
        <time>2026-08-16T02:07:01.000Z</time>
      </trkpt>
      <trkpt lat="22.787301" lon="110.006356">
        <ele>133.460865</ele>
        <time>2026-08-16T02:07:02.000Z</time>
      </trkpt>
      <trkpt lat="22.787293" lon="110.006403">
        <ele>133.368561</ele>
        <time>2026-08-16T02:07:03.000Z</time>
      </trkpt>
      <trkpt lat="22.787279" lon="110.006447">
        <ele>133.278667</ele>
        <time>2026-08-16T02:07:04.000Z</time>
      </trkpt>
      <trkpt lat="22.787261" lon="110.006492">
        <ele>133.183933</ele>
        <time>2026-08-16T02:07:05.000Z</time>
      </trkpt>
      <trkpt lat="22.787244" lon="110.006540">
        <ele>133.084628</ele>
        <time>2026-08-16T02:07:06.000Z</time>
      </trkpt>
      <trkpt lat="22.787227" lon="110.006587">
        <ele>132.987123</ele>
        <time>2026-08-16T02:07:07.000Z</time>
      </trkpt>
      <trkpt lat="22.787207" lon="110.006631">
        <ele>132.892381</ele>
        <time>2026-08-16T02:07:08.000Z</time>
      </trkpt>
      <trkpt lat="22.787195" lon="110.006675">
        <ele>132.803765</ele>
        <time>2026-08-16T02:07:09.000Z</time>
      </trkpt>
      <trkpt lat="22.787179" lon="110.006724">
        <ele>132.703373</ele>
        <time>2026-08-16T02:07:10.000Z</time>
      </trkpt>
      <trkpt lat="22.787161" lon="110.006773">
        <ele>132.601506</ele>
        <time>2026-08-16T02:07:11.000Z</time>
      </trkpt>
      <trkpt lat="22.787142" lon="110.006821">
        <ele>132.500622</ele>
        <time>2026-08-16T02:07:12.000Z</time>
      </trkpt>
      <trkpt lat="22.787125" lon="110.006870">
        <ele>132.399511</ele>
        <time>2026-08-16T02:07:13.000Z</time>
      </trkpt>
      <trkpt lat="22.787104" lon="110.006920">
        <ele>132.293400</ele>
        <time>2026-08-16T02:07:14.000Z</time>
      </trkpt>
      <trkpt lat="22.787080" lon="110.006969">
        <ele>132.186243</ele>
        <time>2026-08-16T02:07:15.000Z</time>
      </trkpt>
      <trkpt lat="22.787059" lon="110.007013">
        <ele>132.090556</ele>
        <time>2026-08-16T02:07:16.000Z</time>
      </trkpt>
      <trkpt lat="22.787033" lon="110.007059">
        <ele>131.986351</ele>
        <time>2026-08-16T02:07:17.000Z</time>
      </trkpt>
      <trkpt lat="22.787003" lon="110.007102">
        <ele>131.882209</ele>
        <time>2026-08-16T02:07:18.000Z</time>
      </trkpt>
      <trkpt lat="22.786975" lon="110.007144">
        <ele>131.782111</ele>
        <time>2026-08-16T02:07:19.000Z</time>
      </trkpt>
      <trkpt lat="22.786949" lon="110.007182">
        <ele>131.690721</ele>
        <time>2026-08-16T02:07:20.000Z</time>
      </trkpt>
      <trkpt lat="22.786923" lon="110.007220">
        <ele>131.599331</ele>
        <time>2026-08-16T02:07:21.000Z</time>
      </trkpt>
      <trkpt lat="22.786894" lon="110.007257">
        <ele>131.505542</ele>
        <time>2026-08-16T02:07:22.000Z</time>
      </trkpt>
      <trkpt lat="22.786865" lon="110.007293">
        <ele>131.413215</ele>
        <time>2026-08-16T02:07:23.000Z</time>
      </trkpt>
      <trkpt lat="22.786833" lon="110.007328">
        <ele>131.318019</ele>
        <time>2026-08-16T02:07:24.000Z</time>
      </trkpt>
      <trkpt lat="22.786797" lon="110.007360">
        <ele>131.220519</ele>
        <time>2026-08-16T02:07:25.000Z</time>
      </trkpt>
      <trkpt lat="22.786758" lon="110.007390">
        <ele>131.120364</ele>
        <time>2026-08-16T02:07:26.000Z</time>
      </trkpt>
      <trkpt lat="22.786715" lon="110.007422">
        <ele>131.011127</ele>
        <time>2026-08-16T02:07:27.000Z</time>
      </trkpt>
      <trkpt lat="22.786669" lon="110.007452">
        <ele>130.898691</ele>
        <time>2026-08-16T02:07:28.000Z</time>
      </trkpt>
      <trkpt lat="22.786622" lon="110.007482">
        <ele>130.784454</ele>
        <time>2026-08-16T02:07:29.000Z</time>
      </trkpt>
      <trkpt lat="22.786572" lon="110.007512">
        <ele>130.664759</ele>
        <time>2026-08-16T02:07:30.000Z</time>
      </trkpt>
      <trkpt lat="22.786518" lon="110.007541">
        <ele>130.538536</ele>
        <time>2026-08-16T02:07:31.000Z</time>
      </trkpt>
      <trkpt lat="22.786459" lon="110.007569">
        <ele>130.403632</ele>
        <time>2026-08-16T02:07:32.000Z</time>
      </trkpt>
      <trkpt lat="22.786401" lon="110.007595">
        <ele>130.272169</ele>
        <time>2026-08-16T02:07:33.000Z</time>
      </trkpt>
      <trkpt lat="22.786341" lon="110.007618">
        <ele>130.138865</ele>
        <time>2026-08-16T02:07:34.000Z</time>
      </trkpt>
      <trkpt lat="22.786279" lon="110.007644">
        <ele>129.999620</ele>
        <time>2026-08-16T02:07:35.000Z</time>
      </trkpt>
      <trkpt lat="22.786216" lon="110.007672">
        <ele>129.818620</ele>
        <time>2026-08-16T02:07:36.000Z</time>
      </trkpt>
      <trkpt lat="22.786151" lon="110.007700">
        <ele>129.608473</ele>
        <time>2026-08-16T02:07:37.000Z</time>
      </trkpt>
      <trkpt lat="22.786084" lon="110.007728">
        <ele>129.392729</ele>
        <time>2026-08-16T02:07:38.000Z</time>
      </trkpt>
      <trkpt lat="22.786015" lon="110.007755">
        <ele>129.172323</ele>
        <time>2026-08-16T02:07:39.000Z</time>
      </trkpt>
      <trkpt lat="22.785946" lon="110.007782">
        <ele>128.951916</ele>
        <time>2026-08-16T02:07:40.000Z</time>
      </trkpt>
      <trkpt lat="22.785879" lon="110.007811">
        <ele>128.735161</ele>
        <time>2026-08-16T02:07:41.000Z</time>
      </trkpt>
      <trkpt lat="22.785818" lon="110.007839">
        <ele>128.536134</ele>
        <time>2026-08-16T02:07:42.000Z</time>
      </trkpt>
      <trkpt lat="22.785762" lon="110.007861">
        <ele>128.357172</ele>
        <time>2026-08-16T02:07:43.000Z</time>
      </trkpt>
      <trkpt lat="22.785705" lon="110.007882">
        <ele>128.176291</ele>
        <time>2026-08-16T02:07:44.000Z</time>
      </trkpt>
      <trkpt lat="22.785645" lon="110.007905">
        <ele>127.985079</ele>
        <time>2026-08-16T02:07:45.000Z</time>
      </trkpt>
      <trkpt lat="22.785586" lon="110.007930">
        <ele>127.794751</ele>
        <time>2026-08-16T02:07:46.000Z</time>
      </trkpt>
      <trkpt lat="22.785525" lon="110.007956">
        <ele>127.597818</ele>
        <time>2026-08-16T02:07:47.000Z</time>
      </trkpt>
      <trkpt lat="22.785462" lon="110.007984">
        <ele>127.393244</ele>
        <time>2026-08-16T02:07:48.000Z</time>
      </trkpt>
      <trkpt lat="22.785398" lon="110.008014">
        <ele>127.183750</ele>
        <time>2026-08-16T02:07:49.000Z</time>
      </trkpt>
      <trkpt lat="22.785334" lon="110.008047">
        <ele>126.970823</ele>
        <time>2026-08-16T02:07:50.000Z</time>
      </trkpt>
      <trkpt lat="22.785273" lon="110.008083">
        <ele>126.762159</ele>
        <time>2026-08-16T02:07:51.000Z</time>
      </trkpt>
      <trkpt lat="22.785217" lon="110.008126">
        <ele>126.555996</ele>
        <time>2026-08-16T02:07:52.000Z</time>
      </trkpt>
      <trkpt lat="22.785159" lon="110.008170">
        <ele>126.343324</ele>
        <time>2026-08-16T02:07:53.000Z</time>
      </trkpt>
      <trkpt lat="22.785103" lon="110.008216">
        <ele>126.132251</ele>
        <time>2026-08-16T02:07:54.000Z</time>
      </trkpt>
      <trkpt lat="22.785047" lon="110.008264">
        <ele>125.917786</ele>
        <time>2026-08-16T02:07:55.000Z</time>
      </trkpt>
      <trkpt lat="22.784993" lon="110.008317">
        <ele>125.698961</ele>
        <time>2026-08-16T02:07:56.000Z</time>
      </trkpt>
      <trkpt lat="22.784942" lon="110.008377">
        <ele>125.472885</ele>
        <time>2026-08-16T02:07:57.000Z</time>
      </trkpt>
      <trkpt lat="22.784894" lon="110.008436">
        <ele>125.254903</ele>
        <time>2026-08-16T02:07:58.000Z</time>
      </trkpt>
      <trkpt lat="22.784850" lon="110.008497">
        <ele>125.040344</ele>
        <time>2026-08-16T02:07:59.000Z</time>
      </trkpt>
      <trkpt lat="22.784809" lon="110.008558">
        <ele>124.831219</ele>
        <time>2026-08-16T02:08:00.000Z</time>
      </trkpt>
      <trkpt lat="22.784773" lon="110.008621">
        <ele>124.625889</ele>
        <time>2026-08-16T02:08:01.000Z</time>
      </trkpt>
      <trkpt lat="22.784740" lon="110.008685">
        <ele>124.581848</ele>
        <time>2026-08-16T02:08:02.000Z</time>
      </trkpt>
      <trkpt lat="22.784710" lon="110.008748">
        <ele>124.649930</ele>
        <time>2026-08-16T02:08:03.000Z</time>
      </trkpt>
      <trkpt lat="22.784682" lon="110.008811">
        <ele>124.717081</ele>
        <time>2026-08-16T02:08:04.000Z</time>
      </trkpt>
      <trkpt lat="22.784653" lon="110.008872">
        <ele>124.782978</ele>
        <time>2026-08-16T02:08:05.000Z</time>
      </trkpt>
      <trkpt lat="22.784625" lon="110.008932">
        <ele>124.847547</ele>
        <time>2026-08-16T02:08:06.000Z</time>
      </trkpt>
      <trkpt lat="22.784597" lon="110.008993">
        <ele>124.912974</ele>
        <time>2026-08-16T02:08:07.000Z</time>
      </trkpt>
      <trkpt lat="22.784570" lon="110.009051">
        <ele>124.975359</ele>
        <time>2026-08-16T02:08:08.000Z</time>
      </trkpt>
      <trkpt lat="22.784543" lon="110.009108">
        <ele>125.036888</ele>
        <time>2026-08-16T02:08:09.000Z</time>
      </trkpt>
      <trkpt lat="22.784517" lon="110.009165">
        <ele>125.097949</ele>
        <time>2026-08-16T02:08:10.000Z</time>
      </trkpt>
      <trkpt lat="22.784492" lon="110.009219">
        <ele>125.155967</ele>
        <time>2026-08-16T02:08:11.000Z</time>
      </trkpt>
      <trkpt lat="22.784469" lon="110.009271">
        <ele>125.211343</ele>
        <time>2026-08-16T02:08:12.000Z</time>
      </trkpt>
      <trkpt lat="22.784446" lon="110.009320">
        <ele>125.264137</ele>
        <time>2026-08-16T02:08:13.000Z</time>
      </trkpt>
      <trkpt lat="22.784421" lon="110.009366">
        <ele>125.315407</ele>
        <time>2026-08-16T02:08:14.000Z</time>
      </trkpt>
      <trkpt lat="22.784397" lon="110.009413">
        <ele>125.366993</ele>
        <time>2026-08-16T02:08:15.000Z</time>
      </trkpt>
      <trkpt lat="22.784373" lon="110.009460">
        <ele>125.418580</ele>
        <time>2026-08-16T02:08:16.000Z</time>
      </trkpt>
      <trkpt lat="22.784349" lon="110.009506">
        <ele>125.469329</ele>
        <time>2026-08-16T02:08:17.000Z</time>
      </trkpt>
      <trkpt lat="22.784326" lon="110.009551">
        <ele>125.518731</ele>
        <time>2026-08-16T02:08:18.000Z</time>
      </trkpt>
      <trkpt lat="22.784303" lon="110.009595">
        <ele>125.567295</ele>
        <time>2026-08-16T02:08:19.000Z</time>
      </trkpt>
      <trkpt lat="22.784280" lon="110.009641">
        <ele>125.617539</ele>
        <time>2026-08-16T02:08:20.000Z</time>
      </trkpt>
      <trkpt lat="22.784258" lon="110.009687">
        <ele>125.667295</ele>
        <time>2026-08-16T02:08:21.000Z</time>
      </trkpt>
      <trkpt lat="22.784237" lon="110.009730">
        <ele>125.714017</ele>
        <time>2026-08-16T02:08:22.000Z</time>
      </trkpt>
      <trkpt lat="22.784216" lon="110.009772">
        <ele>125.759892</ele>
        <time>2026-08-16T02:08:23.000Z</time>
      </trkpt>
      <trkpt lat="22.784195" lon="110.009813">
        <ele>125.804925</ele>
        <time>2026-08-16T02:08:24.000Z</time>
      </trkpt>
      <trkpt lat="22.784178" lon="110.009855">
        <ele>125.848967</ele>
        <time>2026-08-16T02:08:25.000Z</time>
      </trkpt>
      <trkpt lat="22.784161" lon="110.009896">
        <ele>125.892131</ele>
        <time>2026-08-16T02:08:26.000Z</time>
      </trkpt>
      <trkpt lat="22.784143" lon="110.009937">
        <ele>125.935733</ele>
        <time>2026-08-16T02:08:27.000Z</time>
      </trkpt>
      <trkpt lat="22.784126" lon="110.009979">
        <ele>125.979774</ele>
        <time>2026-08-16T02:08:28.000Z</time>
      </trkpt>
      <trkpt lat="22.784109" lon="110.010020">
        <ele>126.022939</ele>
        <time>2026-08-16T02:08:29.000Z</time>
      </trkpt>
      <trkpt lat="22.784093" lon="110.010061">
        <ele>126.065686</ele>
        <time>2026-08-16T02:08:30.000Z</time>
      </trkpt>
      <trkpt lat="22.784077" lon="110.010102">
        <ele>126.108434</ele>
        <time>2026-08-16T02:08:31.000Z</time>
      </trkpt>
      <trkpt lat="22.784062" lon="110.010143">
        <ele>126.150787</ele>
        <time>2026-08-16T02:08:32.000Z</time>
      </trkpt>
      <trkpt lat="22.784047" lon="110.010185">
        <ele>126.194033</ele>
        <time>2026-08-16T02:08:33.000Z</time>
      </trkpt>
      <trkpt lat="22.784032" lon="110.010226">
        <ele>126.236386</ele>
        <time>2026-08-16T02:08:34.000Z</time>
      </trkpt>
      <trkpt lat="22.784017" lon="110.010268">
        <ele>126.279632</ele>
        <time>2026-08-16T02:08:35.000Z</time>
      </trkpt>
      <trkpt lat="22.784002" lon="110.010311">
        <ele>126.323775</ele>
        <time>2026-08-16T02:08:36.000Z</time>
      </trkpt>
      <trkpt lat="22.783986" lon="110.010354">
        <ele>126.368298</ele>
        <time>2026-08-16T02:08:37.000Z</time>
      </trkpt>
      <trkpt lat="22.783970" lon="110.010400">
        <ele>126.413798</ele>
        <time>2026-08-16T02:08:38.000Z</time>
      </trkpt>
      <trkpt lat="22.783954" lon="110.010446">
        <ele>126.406072</ele>
        <time>2026-08-16T02:08:39.000Z</time>
      </trkpt>
      <trkpt lat="22.783938" lon="110.010493">
        <ele>126.398199</ele>
        <time>2026-08-16T02:08:40.000Z</time>
      </trkpt>
      <trkpt lat="22.783921" lon="110.010542">
        <ele>126.389973</ele>
        <time>2026-08-16T02:08:41.000Z</time>
      </trkpt>
      <trkpt lat="22.783905" lon="110.010591">
        <ele>126.381804</ele>
        <time>2026-08-16T02:08:42.000Z</time>
      </trkpt>
      <trkpt lat="22.783888" lon="110.010639">
        <ele>126.373724</ele>
        <time>2026-08-16T02:08:43.000Z</time>
      </trkpt>
      <trkpt lat="22.783872" lon="110.010688">
        <ele>126.365555</ele>
        <time>2026-08-16T02:08:44.000Z</time>
      </trkpt>
      <trkpt lat="22.783855" lon="110.010736">
        <ele>126.357475</ele>
        <time>2026-08-16T02:08:45.000Z</time>
      </trkpt>
      <trkpt lat="22.783840" lon="110.010784">
        <ele>126.349511</ele>
        <time>2026-08-16T02:08:46.000Z</time>
      </trkpt>
      <trkpt lat="22.783824" lon="110.010833">
        <ele>126.341343</ele>
        <time>2026-08-16T02:08:47.000Z</time>
      </trkpt>
      <trkpt lat="22.783808" lon="110.010882">
        <ele>126.333174</ele>
        <time>2026-08-16T02:08:48.000Z</time>
      </trkpt>
      <trkpt lat="22.783793" lon="110.010931">
        <ele>126.325061</ele>
        <time>2026-08-16T02:08:49.000Z</time>
      </trkpt>
      <trkpt lat="22.783777" lon="110.010981">
        <ele>126.316744</ele>
        <time>2026-08-16T02:08:50.000Z</time>
      </trkpt>
      <trkpt lat="22.783762" lon="110.011031">
        <ele>126.308482</ele>
        <time>2026-08-16T02:08:51.000Z</time>
      </trkpt>
      <trkpt lat="22.783746" lon="110.011081">
        <ele>126.300165</ele>
        <time>2026-08-16T02:08:52.000Z</time>
      </trkpt>
      <trkpt lat="22.783729" lon="110.011132">
        <ele>126.291643</ele>
        <time>2026-08-16T02:08:53.000Z</time>
      </trkpt>
      <trkpt lat="22.783711" lon="110.011183">
        <ele>126.283062</ele>
        <time>2026-08-16T02:08:54.000Z</time>
      </trkpt>
      <trkpt lat="22.783695" lon="110.011235">
        <ele>126.274448</ele>
        <time>2026-08-16T02:08:55.000Z</time>
      </trkpt>
      <trkpt lat="22.783679" lon="110.011287">
        <ele>126.265833</ele>
        <time>2026-08-16T02:08:56.000Z</time>
      </trkpt>
      <trkpt lat="22.783663" lon="110.011340">
        <ele>126.257070</ele>
        <time>2026-08-16T02:08:57.000Z</time>
      </trkpt>
      <trkpt lat="22.783646" lon="110.011391">
        <ele>126.248548</ele>
        <time>2026-08-16T02:08:58.000Z</time>
      </trkpt>
      <trkpt lat="22.783630" lon="110.011441">
        <ele>126.240231</ele>
        <time>2026-08-16T02:08:59.000Z</time>
      </trkpt>
      <trkpt lat="22.783615" lon="110.011491">
        <ele>126.231969</ele>
        <time>2026-08-16T02:09:00.000Z</time>
      </trkpt>
      <trkpt lat="22.783599" lon="110.011541">
        <ele>126.223652</ele>
        <time>2026-08-16T02:09:01.000Z</time>
      </trkpt>
      <trkpt lat="22.783584" lon="110.011590">
        <ele>126.215539</ele>
        <time>2026-08-16T02:09:02.000Z</time>
      </trkpt>
      <trkpt lat="22.783569" lon="110.011639">
        <ele>126.207426</ele>
        <time>2026-08-16T02:09:03.000Z</time>
      </trkpt>
      <trkpt lat="22.783555" lon="110.011688">
        <ele>126.199364</ele>
        <time>2026-08-16T02:09:04.000Z</time>
      </trkpt>
      <trkpt lat="22.783538" lon="110.011739">
        <ele>126.190843</ele>
        <time>2026-08-16T02:09:05.000Z</time>
      </trkpt>
      <trkpt lat="22.783521" lon="110.011790">
        <ele>126.182321</ele>
        <time>2026-08-16T02:09:06.000Z</time>
      </trkpt>
      <trkpt lat="22.783506" lon="110.011843">
        <ele>126.173609</ele>
        <time>2026-08-16T02:09:07.000Z</time>
      </trkpt>
      <trkpt lat="22.783490" lon="110.011894">
        <ele>126.165143</ele>
        <time>2026-08-16T02:09:08.000Z</time>
      </trkpt>
      <trkpt lat="22.783473" lon="110.011946">
        <ele>126.156474</ele>
        <time>2026-08-16T02:09:09.000Z</time>
      </trkpt>
      <trkpt lat="22.783456" lon="110.011998">
        <ele>126.147804</ele>
        <time>2026-08-16T02:09:10.000Z</time>
      </trkpt>
      <trkpt lat="22.783439" lon="110.012050">
        <ele>126.139134</ele>
        <time>2026-08-16T02:09:11.000Z</time>
      </trkpt>
      <trkpt lat="22.783423" lon="110.012102">
        <ele>126.130520</ele>
        <time>2026-08-16T02:09:12.000Z</time>
      </trkpt>
      <trkpt lat="22.783406" lon="110.012155">
        <ele>126.121702</ele>
        <time>2026-08-16T02:09:13.000Z</time>
      </trkpt>
      <trkpt lat="22.783387" lon="110.012209">
        <ele>126.112619</ele>
        <time>2026-08-16T02:09:14.000Z</time>
      </trkpt>
      <trkpt lat="22.783372" lon="110.012263">
        <ele>126.096297</ele>
        <time>2026-08-16T02:09:15.000Z</time>
      </trkpt>
      <trkpt lat="22.783356" lon="110.012318">
        <ele>126.069074</ele>
        <time>2026-08-16T02:09:16.000Z</time>
      </trkpt>
      <trkpt lat="22.783338" lon="110.012372">
        <ele>126.041970</ele>
        <time>2026-08-16T02:09:17.000Z</time>
      </trkpt>
      <trkpt lat="22.783321" lon="110.012425">
        <ele>126.015482</ele>
        <time>2026-08-16T02:09:18.000Z</time>
      </trkpt>
      <trkpt lat="22.783302" lon="110.012479">
        <ele>125.988199</ele>
        <time>2026-08-16T02:09:19.000Z</time>
      </trkpt>
      <trkpt lat="22.783282" lon="110.012534">
        <ele>125.960292</ele>
        <time>2026-08-16T02:09:20.000Z</time>
      </trkpt>
      <trkpt lat="22.783264" lon="110.012588">
        <ele>125.933188</ele>
        <time>2026-08-16T02:09:21.000Z</time>
      </trkpt>
      <trkpt lat="22.783248" lon="110.012643">
        <ele>125.905965</ele>
        <time>2026-08-16T02:09:22.000Z</time>
      </trkpt>
      <trkpt lat="22.783230" lon="110.012696">
        <ele>125.879304</ele>
        <time>2026-08-16T02:09:23.000Z</time>
      </trkpt>
      <trkpt lat="22.783214" lon="110.012749">
        <ele>125.852980</ele>
        <time>2026-08-16T02:09:24.000Z</time>
      </trkpt>
      <trkpt lat="22.783196" lon="110.012804">
        <ele>125.825432</ele>
        <time>2026-08-16T02:09:25.000Z</time>
      </trkpt>
      <trkpt lat="22.783179" lon="110.012858">
        <ele>125.798497</ele>
        <time>2026-08-16T02:09:26.000Z</time>
      </trkpt>
      <trkpt lat="22.783162" lon="110.012912">
        <ele>125.771563</ele>
        <time>2026-08-16T02:09:27.000Z</time>
      </trkpt>
      <trkpt lat="22.783145" lon="110.012967">
        <ele>125.744182</ele>
        <time>2026-08-16T02:09:28.000Z</time>
      </trkpt>
      <trkpt lat="22.783128" lon="110.013023">
        <ele>125.716352</ele>
        <time>2026-08-16T02:09:29.000Z</time>
      </trkpt>
      <trkpt lat="22.783112" lon="110.013078">
        <ele>125.689129</ele>
        <time>2026-08-16T02:09:30.000Z</time>
      </trkpt>
      <trkpt lat="22.783095" lon="110.013132">
        <ele>125.662195</ele>
        <time>2026-08-16T02:09:31.000Z</time>
      </trkpt>
      <trkpt lat="22.783078" lon="110.013186">
        <ele>125.635261</ele>
        <time>2026-08-16T02:09:32.000Z</time>
      </trkpt>
      <trkpt lat="22.783062" lon="110.013240">
        <ele>125.608488</ele>
        <time>2026-08-16T02:09:33.000Z</time>
      </trkpt>
      <trkpt lat="22.783043" lon="110.013296">
        <ele>125.580321</ele>
        <time>2026-08-16T02:09:34.000Z</time>
      </trkpt>
      <trkpt lat="22.783025" lon="110.013353">
        <ele>125.551881</ele>
        <time>2026-08-16T02:09:35.000Z</time>
      </trkpt>
      <trkpt lat="22.783007" lon="110.013410">
        <ele>125.523442</ele>
        <time>2026-08-16T02:09:36.000Z</time>
      </trkpt>
      <trkpt lat="22.782990" lon="110.013465">
        <ele>125.496060</ele>
        <time>2026-08-16T02:09:37.000Z</time>
      </trkpt>
      <trkpt lat="22.782974" lon="110.013520">
        <ele>125.468837</ele>
        <time>2026-08-16T02:09:38.000Z</time>
      </trkpt>
      <trkpt lat="22.782957" lon="110.013576">
        <ele>125.441008</ele>
        <time>2026-08-16T02:09:39.000Z</time>
      </trkpt>
      <trkpt lat="22.782940" lon="110.013632">
        <ele>125.413178</ele>
        <time>2026-08-16T02:09:40.000Z</time>
      </trkpt>
      <trkpt lat="22.782921" lon="110.013687">
        <ele>125.385455</ele>
        <time>2026-08-16T02:09:41.000Z</time>
      </trkpt>
      <trkpt lat="22.782903" lon="110.013743">
        <ele>125.357461</ele>
        <time>2026-08-16T02:09:42.000Z</time>
      </trkpt>
      <trkpt lat="22.782887" lon="110.013798">
        <ele>125.330238</ele>
        <time>2026-08-16T02:09:43.000Z</time>
      </trkpt>
      <trkpt lat="22.782870" lon="110.013853">
        <ele>125.302856</ele>
        <time>2026-08-16T02:09:44.000Z</time>
      </trkpt>
      <trkpt lat="22.782853" lon="110.013908">
        <ele>125.275475</ele>
        <time>2026-08-16T02:09:45.000Z</time>
      </trkpt>
      <trkpt lat="22.782837" lon="110.013963">
        <ele>125.248252</ele>
        <time>2026-08-16T02:09:46.000Z</time>
      </trkpt>
      <trkpt lat="22.782818" lon="110.014018">
        <ele>125.220528</ele>
        <time>2026-08-16T02:09:47.000Z</time>
      </trkpt>
      <trkpt lat="22.782800" lon="110.014075">
        <ele>125.192088</ele>
        <time>2026-08-16T02:09:48.000Z</time>
      </trkpt>
      <trkpt lat="22.782784" lon="110.014132">
        <ele>125.160486</ele>
        <time>2026-08-16T02:09:49.000Z</time>
      </trkpt>
      <trkpt lat="22.782768" lon="110.014189">
        <ele>125.128046</ele>
        <time>2026-08-16T02:09:50.000Z</time>
      </trkpt>
      <trkpt lat="22.782750" lon="110.014246">
        <ele>125.095243</ele>
        <time>2026-08-16T02:09:51.000Z</time>
      </trkpt>
      <trkpt lat="22.782732" lon="110.014303">
        <ele>125.062439</ele>
        <time>2026-08-16T02:09:52.000Z</time>
      </trkpt>
      <trkpt lat="22.782716" lon="110.014362">
        <ele>125.028956</ele>
        <time>2026-08-16T02:09:53.000Z</time>
      </trkpt>
      <trkpt lat="22.782701" lon="110.014420">
        <ele>124.996160</ele>
        <time>2026-08-16T02:09:54.000Z</time>
      </trkpt>
      <trkpt lat="22.782684" lon="110.014477">
        <ele>124.963543</ele>
        <time>2026-08-16T02:09:55.000Z</time>
      </trkpt>
      <trkpt lat="22.782666" lon="110.014534">
        <ele>124.930740</ele>
        <time>2026-08-16T02:09:56.000Z</time>
      </trkpt>
      <trkpt lat="22.782649" lon="110.014591">
        <ele>124.898123</ele>
        <time>2026-08-16T02:09:57.000Z</time>
      </trkpt>
      <trkpt lat="22.782630" lon="110.014650">
        <ele>124.864097</ele>
        <time>2026-08-16T02:09:58.000Z</time>
      </trkpt>
      <trkpt lat="22.782612" lon="110.014710">
        <ele>124.829745</ele>
        <time>2026-08-16T02:09:59.000Z</time>
      </trkpt>
      <trkpt lat="22.782594" lon="110.014769">
        <ele>124.795909</ele>
        <time>2026-08-16T02:10:00.000Z</time>
      </trkpt>
      <trkpt lat="22.782576" lon="110.014828">
        <ele>124.762074</ele>
        <time>2026-08-16T02:10:01.000Z</time>
      </trkpt>
      <trkpt lat="22.782558" lon="110.014886">
        <ele>124.728755</ele>
        <time>2026-08-16T02:10:02.000Z</time>
      </trkpt>
      <trkpt lat="22.782539" lon="110.014944">
        <ele>124.695243</ele>
        <time>2026-08-16T02:10:03.000Z</time>
      </trkpt>
      <trkpt lat="22.782520" lon="110.015003">
        <ele>124.661218</ele>
        <time>2026-08-16T02:10:04.000Z</time>
      </trkpt>
      <trkpt lat="22.782503" lon="110.015062">
        <ele>124.627563</ele>
        <time>2026-08-16T02:10:05.000Z</time>
      </trkpt>
      <trkpt lat="22.782486" lon="110.015122">
        <ele>124.593389</ele>
        <time>2026-08-16T02:10:06.000Z</time>
      </trkpt>
      <trkpt lat="22.782468" lon="110.015182">
        <ele>124.559036</ele>
        <time>2026-08-16T02:10:07.000Z</time>
      </trkpt>
      <trkpt lat="22.782450" lon="110.015242">
        <ele>124.524684</ele>
        <time>2026-08-16T02:10:08.000Z</time>
      </trkpt>
      <trkpt lat="22.782432" lon="110.015300">
        <ele>124.491365</ele>
        <time>2026-08-16T02:10:09.000Z</time>
      </trkpt>
      <trkpt lat="22.782415" lon="110.015358">
        <ele>124.458229</ele>
        <time>2026-08-16T02:10:10.000Z</time>
      </trkpt>
      <trkpt lat="22.782400" lon="110.015417">
        <ele>124.424908</ele>
        <time>2026-08-16T02:10:11.000Z</time>
      </trkpt>
      <trkpt lat="22.782384" lon="110.015478">
        <ele>124.390379</ele>
        <time>2026-08-16T02:10:12.000Z</time>
      </trkpt>
      <trkpt lat="22.782367" lon="110.015538">
        <ele>124.356205</ele>
        <time>2026-08-16T02:10:13.000Z</time>
      </trkpt>
      <trkpt lat="22.782350" lon="110.015599">
        <ele>124.321509</ele>
        <time>2026-08-16T02:10:14.000Z</time>
      </trkpt>
      <trkpt lat="22.782333" lon="110.015659">
        <ele>124.287335</ele>
        <time>2026-08-16T02:10:15.000Z</time>
      </trkpt>
      <trkpt lat="22.782315" lon="110.015717">
        <ele>124.254016</ele>
        <time>2026-08-16T02:10:16.000Z</time>
      </trkpt>
      <trkpt lat="22.782297" lon="110.015773">
        <ele>124.221727</ele>
        <time>2026-08-16T02:10:17.000Z</time>
      </trkpt>
      <trkpt lat="22.782283" lon="110.015830">
        <ele>124.189611</ele>
        <time>2026-08-16T02:10:18.000Z</time>
      </trkpt>
      <trkpt lat="22.782267" lon="110.015889">
        <ele>124.156128</ele>
        <time>2026-08-16T02:10:19.000Z</time>
      </trkpt>
      <trkpt lat="22.782253" lon="110.015945">
        <ele>124.124538</ele>
        <time>2026-08-16T02:10:20.000Z</time>
      </trkpt>
      <trkpt lat="22.782241" lon="110.016000">
        <ele>124.061859</ele>
        <time>2026-08-16T02:10:21.000Z</time>
      </trkpt>
      <trkpt lat="22.782233" lon="110.016057">
        <ele>123.997876</ele>
        <time>2026-08-16T02:10:22.000Z</time>
      </trkpt>
      <trkpt lat="22.782222" lon="110.016116">
        <ele>123.931077</ele>
        <time>2026-08-16T02:10:23.000Z</time>
      </trkpt>
      <trkpt lat="22.782217" lon="110.016174">
        <ele>123.866433</ele>
        <time>2026-08-16T02:10:24.000Z</time>
      </trkpt>
      <trkpt lat="22.782208" lon="110.016234">
        <ele>123.798974</ele>
        <time>2026-08-16T02:10:25.000Z</time>
      </trkpt>
      <trkpt lat="22.782203" lon="110.016293">
        <ele>123.733224</ele>
        <time>2026-08-16T02:10:26.000Z</time>
      </trkpt>
      <trkpt lat="22.782197" lon="110.016353">
        <ele>123.666251</ele>
        <time>2026-08-16T02:10:27.000Z</time>
      </trkpt>
      <trkpt lat="22.782199" lon="110.016410">
        <ele>123.602951</ele>
        <time>2026-08-16T02:10:28.000Z</time>
      </trkpt>
      <trkpt lat="22.782201" lon="110.016469">
        <ele>123.537433</ele>
        <time>2026-08-16T02:10:29.000Z</time>
      </trkpt>
      <trkpt lat="22.782204" lon="110.016526">
        <ele>123.474076</ele>
        <time>2026-08-16T02:10:30.000Z</time>
      </trkpt>
      <trkpt lat="22.782206" lon="110.016584">
        <ele>123.409667</ele>
        <time>2026-08-16T02:10:31.000Z</time>
      </trkpt>
      <trkpt lat="22.782210" lon="110.016644">
        <ele>123.342910</ele>
        <time>2026-08-16T02:10:32.000Z</time>
      </trkpt>
      <trkpt lat="22.782215" lon="110.016704">
        <ele>123.276055</ele>
        <time>2026-08-16T02:10:33.000Z</time>
      </trkpt>
      <trkpt lat="22.782220" lon="110.016762">
        <ele>123.211411</ele>
        <time>2026-08-16T02:10:34.000Z</time>
      </trkpt>
      <trkpt lat="22.782225" lon="110.016823">
        <ele>123.143451</ele>
        <time>2026-08-16T02:10:35.000Z</time>
      </trkpt>
      <trkpt lat="22.782230" lon="110.016884">
        <ele>123.075491</ele>
        <time>2026-08-16T02:10:36.000Z</time>
      </trkpt>
      <trkpt lat="22.782236" lon="110.016947">
        <ele>123.005207</ele>
        <time>2026-08-16T02:10:37.000Z</time>
      </trkpt>
      <trkpt lat="22.782243" lon="110.017010">
        <ele>122.934788</ele>
        <time>2026-08-16T02:10:38.000Z</time>
      </trkpt>
      <trkpt lat="22.782250" lon="110.017072">
        <ele>122.865472</ele>
        <time>2026-08-16T02:10:39.000Z</time>
      </trkpt>
      <trkpt lat="22.782257" lon="110.017133">
        <ele>122.797257</ele>
        <time>2026-08-16T02:10:40.000Z</time>
      </trkpt>
      <trkpt lat="22.782266" lon="110.017194">
        <ele>122.728702</ele>
        <time>2026-08-16T02:10:41.000Z</time>
      </trkpt>
      <trkpt lat="22.782273" lon="110.017256">
        <ele>122.659386</ele>
        <time>2026-08-16T02:10:42.000Z</time>
      </trkpt>
      <trkpt lat="22.782281" lon="110.017319">
        <ele>122.588813</ele>
        <time>2026-08-16T02:10:43.000Z</time>
      </trkpt>
      <trkpt lat="22.782290" lon="110.017384">
        <ele>122.515873</ele>
        <time>2026-08-16T02:10:44.000Z</time>
      </trkpt>
      <trkpt lat="22.782301" lon="110.017450">
        <ele>122.441444</ele>
        <time>2026-08-16T02:10:45.000Z</time>
      </trkpt>
      <trkpt lat="22.782311" lon="110.017515">
        <ele>122.368315</ele>
        <time>2026-08-16T02:10:46.000Z</time>
      </trkpt>
      <trkpt lat="22.782320" lon="110.017582">
        <ele>122.293179</ele>
        <time>2026-08-16T02:10:47.000Z</time>
      </trkpt>
      <trkpt lat="22.782330" lon="110.017649">
        <ele>122.217860</ele>
        <time>2026-08-16T02:10:48.000Z</time>
      </trkpt>
      <trkpt lat="22.782340" lon="110.017718">
        <ele>122.140349</ele>
        <time>2026-08-16T02:10:49.000Z</time>
      </trkpt>
      <trkpt lat="22.782352" lon="110.017788">
        <ele>122.061337</ele>
        <time>2026-08-16T02:10:50.000Z</time>
      </trkpt>
      <trkpt lat="22.782363" lon="110.017858">
        <ele>121.982536</ele>
        <time>2026-08-16T02:10:51.000Z</time>
      </trkpt>
      <trkpt lat="22.782373" lon="110.017928">
        <ele>121.903572</ele>
        <time>2026-08-16T02:10:52.000Z</time>
      </trkpt>
      <trkpt lat="22.782383" lon="110.017995">
        <ele>121.827769</ele>
        <time>2026-08-16T02:10:53.000Z</time>
      </trkpt>
      <trkpt lat="22.782387" lon="110.018064">
        <ele>121.750555</ele>
        <time>2026-08-16T02:10:54.000Z</time>
      </trkpt>
      <trkpt lat="22.782389" lon="110.018133">
        <ele>121.673455</ele>
        <time>2026-08-16T02:10:55.000Z</time>
      </trkpt>
      <trkpt lat="22.782387" lon="110.018203">
        <ele>121.595238</ele>
        <time>2026-08-16T02:10:56.000Z</time>
      </trkpt>
      <trkpt lat="22.782384" lon="110.018273">
        <ele>121.516975</ele>
        <time>2026-08-16T02:10:57.000Z</time>
      </trkpt>
      <trkpt lat="22.782380" lon="110.018346">
        <ele>121.435301</ele>
        <time>2026-08-16T02:10:58.000Z</time>
      </trkpt>
      <trkpt lat="22.782375" lon="110.018419">
        <ele>121.353547</ele>
        <time>2026-08-16T02:10:59.000Z</time>
      </trkpt>
      <trkpt lat="22.782369" lon="110.018489">
        <ele>121.275031</ele>
        <time>2026-08-16T02:11:00.000Z</time>
      </trkpt>
      <trkpt lat="22.782358" lon="110.018558">
        <ele>121.196825</ele>
        <time>2026-08-16T02:11:01.000Z</time>
      </trkpt>
      <trkpt lat="22.782348" lon="110.018628">
        <ele>121.117714</ele>
        <time>2026-08-16T02:11:02.000Z</time>
      </trkpt>
      <trkpt lat="22.782336" lon="110.018695">
        <ele>121.041486</ele>
        <time>2026-08-16T02:11:03.000Z</time>
      </trkpt>
      <trkpt lat="22.782327" lon="110.018763">
        <ele>120.964762</ele>
        <time>2026-08-16T02:11:04.000Z</time>
      </trkpt>
      <trkpt lat="22.782315" lon="110.018833">
        <ele>120.885244</ele>
        <time>2026-08-16T02:11:05.000Z</time>
      </trkpt>
      <trkpt lat="22.782305" lon="110.018906">
        <ele>120.802819</ele>
        <time>2026-08-16T02:11:06.000Z</time>
      </trkpt>
      <trkpt lat="22.782294" lon="110.018978">
        <ele>120.721310</ele>
        <time>2026-08-16T02:11:07.000Z</time>
      </trkpt>
      <trkpt lat="22.782284" lon="110.019049">
        <ele>120.641094</ele>
        <time>2026-08-16T02:11:08.000Z</time>
      </trkpt>
      <trkpt lat="22.782274" lon="110.019118">
        <ele>120.563086</ele>
        <time>2026-08-16T02:11:09.000Z</time>
      </trkpt>
      <trkpt lat="22.782261" lon="110.019188">
        <ele>120.483336</ele>
        <time>2026-08-16T02:11:10.000Z</time>
      </trkpt>
      <trkpt lat="22.782251" lon="110.019258">
        <ele>120.404224</ele>
        <time>2026-08-16T02:11:11.000Z</time>
      </trkpt>
      <trkpt lat="22.782243" lon="110.019327">
        <ele>120.326555</ele>
        <time>2026-08-16T02:11:12.000Z</time>
      </trkpt>
      <trkpt lat="22.782236" lon="110.019393">
        <ele>120.252357</ele>
        <time>2026-08-16T02:11:13.000Z</time>
      </trkpt>
      <trkpt lat="22.782226" lon="110.019464">
        <ele>120.172142</ele>
        <time>2026-08-16T02:11:14.000Z</time>
      </trkpt>
      <trkpt lat="22.782216" lon="110.019536">
        <ele>120.090822</ele>
        <time>2026-08-16T02:11:15.000Z</time>
      </trkpt>
      <trkpt lat="22.782206" lon="110.019605">
        <ele>120.012813</ele>
        <time>2026-08-16T02:11:16.000Z</time>
      </trkpt>
      <trkpt lat="22.782198" lon="110.019677">
        <ele>119.931818</ele>
        <time>2026-08-16T02:11:17.000Z</time>
      </trkpt>
      <trkpt lat="22.782190" lon="110.019747">
        <ele>119.853041</ele>
        <time>2026-08-16T02:11:18.000Z</time>
      </trkpt>
      <trkpt lat="22.782184" lon="110.019816">
        <ele>119.785421</ele>
        <time>2026-08-16T02:11:19.000Z</time>
      </trkpt>
      <trkpt lat="22.782178" lon="110.019885">
        <ele>119.854002</ele>
        <time>2026-08-16T02:11:20.000Z</time>
      </trkpt>
      <trkpt lat="22.782177" lon="110.019953">
        <ele>119.921299</ele>
        <time>2026-08-16T02:11:21.000Z</time>
      </trkpt>
      <trkpt lat="22.782178" lon="110.020025">
        <ele>119.992554</ele>
        <time>2026-08-16T02:11:22.000Z</time>
      </trkpt>
      <trkpt lat="22.782180" lon="110.020096">
        <ele>120.062844</ele>
        <time>2026-08-16T02:11:23.000Z</time>
      </trkpt>
      <trkpt lat="22.782181" lon="110.020165">
        <ele>120.131131</ele>
        <time>2026-08-16T02:11:24.000Z</time>
      </trkpt>
      <trkpt lat="22.782183" lon="110.020233">
        <ele>120.198454</ele>
        <time>2026-08-16T02:11:25.000Z</time>
      </trkpt>
      <trkpt lat="22.782186" lon="110.020301">
        <ele>120.265819</ele>
        <time>2026-08-16T02:11:26.000Z</time>
      </trkpt>
      <trkpt lat="22.782191" lon="110.020366">
        <ele>120.330363</ele>
        <time>2026-08-16T02:11:27.000Z</time>
      </trkpt>
      <trkpt lat="22.782197" lon="110.020431">
        <ele>120.395005</ele>
        <time>2026-08-16T02:11:28.000Z</time>
      </trkpt>
      <trkpt lat="22.782202" lon="110.020494">
        <ele>120.457576</ele>
        <time>2026-08-16T02:11:29.000Z</time>
      </trkpt>
      <trkpt lat="22.782206" lon="110.020556">
        <ele>120.519077</ele>
        <time>2026-08-16T02:11:30.000Z</time>
      </trkpt>
      <trkpt lat="22.782207" lon="110.020617">
        <ele>120.579449</ele>
        <time>2026-08-16T02:11:31.000Z</time>
      </trkpt>
      <trkpt lat="22.782210" lon="110.020678">
        <ele>120.639897</ele>
        <time>2026-08-16T02:11:32.000Z</time>
      </trkpt>
      <trkpt lat="22.782215" lon="110.020735">
        <ele>120.696555</ele>
        <time>2026-08-16T02:11:33.000Z</time>
      </trkpt>
      <trkpt lat="22.782221" lon="110.020790">
        <ele>120.751359</ele>
        <time>2026-08-16T02:11:34.000Z</time>
      </trkpt>
      <trkpt lat="22.782222" lon="110.020847">
        <ele>120.807773</ele>
        <time>2026-08-16T02:11:35.000Z</time>
      </trkpt>
      <trkpt lat="22.782228" lon="110.020901">
        <ele>120.861595</ele>
        <time>2026-08-16T02:11:36.000Z</time>
      </trkpt>
      <trkpt lat="22.782234" lon="110.020954">
        <ele>120.914434</ele>
        <time>2026-08-16T02:11:37.000Z</time>
      </trkpt>
      <trkpt lat="22.782240" lon="110.021007">
        <ele>120.967274</ele>
        <time>2026-08-16T02:11:38.000Z</time>
      </trkpt>
      <trkpt lat="22.782243" lon="110.021061">
        <ele>121.020806</ele>
        <time>2026-08-16T02:11:39.000Z</time>
      </trkpt>
      <trkpt lat="22.782246" lon="110.021112">
        <ele>121.071375</ele>
        <time>2026-08-16T02:11:40.000Z</time>
      </trkpt>
      <trkpt lat="22.782248" lon="110.021163">
        <ele>121.121887</ele>
        <time>2026-08-16T02:11:41.000Z</time>
      </trkpt>
      <trkpt lat="22.782251" lon="110.021217">
        <ele>121.175419</ele>
        <time>2026-08-16T02:11:42.000Z</time>
      </trkpt>
      <trkpt lat="22.782255" lon="110.021271">
        <ele>121.229026</ele>
        <time>2026-08-16T02:11:43.000Z</time>
      </trkpt>
      <trkpt lat="22.782259" lon="110.021322">
        <ele>121.279675</ele>
        <time>2026-08-16T02:11:44.000Z</time>
      </trkpt>
      <trkpt lat="22.782262" lon="110.021373">
        <ele>121.330244</ele>
        <time>2026-08-16T02:11:45.000Z</time>
      </trkpt>
      <trkpt lat="22.782267" lon="110.021423">
        <ele>121.380011</ele>
        <time>2026-08-16T02:11:46.000Z</time>
      </trkpt>
      <trkpt lat="22.782273" lon="110.021471">
        <ele>121.427943</ele>
        <time>2026-08-16T02:11:47.000Z</time>
      </trkpt>
      <trkpt lat="22.782276" lon="110.021519">
        <ele>121.475550</ele>
        <time>2026-08-16T02:11:48.000Z</time>
      </trkpt>
      <trkpt lat="22.782278" lon="110.021569">
        <ele>121.525074</ele>
        <time>2026-08-16T02:11:49.000Z</time>
      </trkpt>
      <trkpt lat="22.782282" lon="110.021617">
        <ele>121.572765</ele>
        <time>2026-08-16T02:11:50.000Z</time>
      </trkpt>
      <trkpt lat="22.782286" lon="110.021665">
        <ele>121.620456</ele>
        <time>2026-08-16T02:11:51.000Z</time>
      </trkpt>
      <trkpt lat="22.782290" lon="110.021708">
        <ele>121.663223</ele>
        <time>2026-08-16T02:11:52.000Z</time>
      </trkpt>
      <trkpt lat="22.782294" lon="110.021751">
        <ele>121.705989</ele>
        <time>2026-08-16T02:11:53.000Z</time>
      </trkpt>
      <trkpt lat="22.782297" lon="110.021795">
        <ele>121.737009</ele>
        <time>2026-08-16T02:11:54.000Z</time>
      </trkpt>
      <trkpt lat="22.782300" lon="110.021838">
        <ele>121.765632</ele>
        <time>2026-08-16T02:11:55.000Z</time>
      </trkpt>
      <trkpt lat="22.782303" lon="110.021881">
        <ele>121.794255</ele>
        <time>2026-08-16T02:11:56.000Z</time>
      </trkpt>
      <trkpt lat="22.782306" lon="110.021924">
        <ele>121.822879</ele>
        <time>2026-08-16T02:11:57.000Z</time>
      </trkpt>
      <trkpt lat="22.782310" lon="110.021967">
        <ele>121.851565</ele>
        <time>2026-08-16T02:11:58.000Z</time>
      </trkpt>
      <trkpt lat="22.782315" lon="110.022009">
        <ele>121.879675</ele>
        <time>2026-08-16T02:11:59.000Z</time>
      </trkpt>
      <trkpt lat="22.782320" lon="110.022051">
        <ele>121.907784</ele>
        <time>2026-08-16T02:12:00.000Z</time>
      </trkpt>
      <trkpt lat="22.782323" lon="110.022092">
        <ele>121.935084</ele>
        <time>2026-08-16T02:12:01.000Z</time>
      </trkpt>
      <trkpt lat="22.782329" lon="110.022133">
        <ele>121.962639</ele>
        <time>2026-08-16T02:12:02.000Z</time>
      </trkpt>
      <trkpt lat="22.782335" lon="110.022173">
        <ele>121.989539</ele>
        <time>2026-08-16T02:12:03.000Z</time>
      </trkpt>
      <trkpt lat="22.782340" lon="110.022214">
        <ele>122.016990</ele>
        <time>2026-08-16T02:12:04.000Z</time>
      </trkpt>
      <trkpt lat="22.782345" lon="110.022255">
        <ele>122.044441</ele>
        <time>2026-08-16T02:12:05.000Z</time>
      </trkpt>
      <trkpt lat="22.782351" lon="110.022296">
        <ele>122.071996</ele>
        <time>2026-08-16T02:12:06.000Z</time>
      </trkpt>
      <trkpt lat="22.782357" lon="110.022336">
        <ele>122.098896</ele>
        <time>2026-08-16T02:12:07.000Z</time>
      </trkpt>
      <trkpt lat="22.782363" lon="110.022375">
        <ele>122.125140</ele>
        <time>2026-08-16T02:12:08.000Z</time>
      </trkpt>
      <trkpt lat="22.782368" lon="110.022416">
        <ele>122.152591</ele>
        <time>2026-08-16T02:12:09.000Z</time>
      </trkpt>
      <trkpt lat="22.782374" lon="110.022458">
        <ele>122.180802</ele>
        <time>2026-08-16T02:12:10.000Z</time>
      </trkpt>
      <trkpt lat="22.782381" lon="110.022498">
        <ele>122.207827</ele>
        <time>2026-08-16T02:12:11.000Z</time>
      </trkpt>
      <trkpt lat="22.782391" lon="110.022537">
        <ele>122.234696</ele>
        <time>2026-08-16T02:12:12.000Z</time>
      </trkpt>
      <trkpt lat="22.782405" lon="110.022576">
        <ele>122.262475</ele>
        <time>2026-08-16T02:12:13.000Z</time>
      </trkpt>
      <trkpt lat="22.782419" lon="110.022614">
        <ele>122.289638</ele>
        <time>2026-08-16T02:12:14.000Z</time>
      </trkpt>
      <trkpt lat="22.782434" lon="110.022651">
        <ele>122.316466</ele>
        <time>2026-08-16T02:12:15.000Z</time>
      </trkpt>
      <trkpt lat="22.782453" lon="110.022688">
        <ele>122.344578</ele>
        <time>2026-08-16T02:12:16.000Z</time>
      </trkpt>
      <trkpt lat="22.782475" lon="110.022725">
        <ele>122.373801</ele>
        <time>2026-08-16T02:12:17.000Z</time>
      </trkpt>
      <trkpt lat="22.782498" lon="110.022762">
        <ele>122.403421</ele>
        <time>2026-08-16T02:12:18.000Z</time>
      </trkpt>
      <trkpt lat="22.782523" lon="110.022800">
        <ele>122.434407</ele>
        <time>2026-08-16T02:12:19.000Z</time>
      </trkpt>
      <trkpt lat="22.782548" lon="110.022838">
        <ele>122.465393</ele>
        <time>2026-08-16T02:12:20.000Z</time>
      </trkpt>
      <trkpt lat="22.782572" lon="110.022878">
        <ele>122.497070</ele>
        <time>2026-08-16T02:12:21.000Z</time>
      </trkpt>
      <trkpt lat="22.782597" lon="110.022918">
        <ele>122.529146</ele>
        <time>2026-08-16T02:12:22.000Z</time>
      </trkpt>
      <trkpt lat="22.782622" lon="110.022961">
        <ele>122.562889</ele>
        <time>2026-08-16T02:12:23.000Z</time>
      </trkpt>
      <trkpt lat="22.782647" lon="110.023006">
        <ele>122.597761</ele>
        <time>2026-08-16T02:12:24.000Z</time>
      </trkpt>
      <trkpt lat="22.782672" lon="110.023053">
        <ele>122.633778</ele>
        <time>2026-08-16T02:12:25.000Z</time>
      </trkpt>
      <trkpt lat="22.782698" lon="110.023100">
        <ele>122.670159</ele>
        <time>2026-08-16T02:12:26.000Z</time>
      </trkpt>
      <trkpt lat="22.782725" lon="110.023145">
        <ele>122.705796</ele>
        <time>2026-08-16T02:12:27.000Z</time>
      </trkpt>
      <trkpt lat="22.782751" lon="110.023189">
        <ele>122.740485</ele>
        <time>2026-08-16T02:12:28.000Z</time>
      </trkpt>
      <trkpt lat="22.782776" lon="110.023233">
        <ele>122.774791</ele>
        <time>2026-08-16T02:12:29.000Z</time>
      </trkpt>
      <trkpt lat="22.782800" lon="110.023277">
        <ele>122.808725</ele>
        <time>2026-08-16T02:12:30.000Z</time>
      </trkpt>
      <trkpt lat="22.782824" lon="110.023319">
        <ele>122.841523</ele>
        <time>2026-08-16T02:12:31.000Z</time>
      </trkpt>
      <trkpt lat="22.782847" lon="110.023363">
        <ele>122.875096</ele>
        <time>2026-08-16T02:12:32.000Z</time>
      </trkpt>
      <trkpt lat="22.782870" lon="110.023406">
        <ele>122.908093</ele>
        <time>2026-08-16T02:12:33.000Z</time>
      </trkpt>
      <trkpt lat="22.782894" lon="110.023446">
        <ele>122.939770</ele>
        <time>2026-08-16T02:12:34.000Z</time>
      </trkpt>
      <trkpt lat="22.782914" lon="110.023488">
        <ele>122.971147</ele>
        <time>2026-08-16T02:12:35.000Z</time>
      </trkpt>
      <trkpt lat="22.782937" lon="110.023532">
        <ele>123.004720</ele>
        <time>2026-08-16T02:12:36.000Z</time>
      </trkpt>
      <trkpt lat="22.782960" lon="110.023575">
        <ele>122.988014</ele>
        <time>2026-08-16T02:12:37.000Z</time>
      </trkpt>
      <trkpt lat="22.782981" lon="110.023620">
        <ele>122.968777</ele>
        <time>2026-08-16T02:12:38.000Z</time>
      </trkpt>
      <trkpt lat="22.783001" lon="110.023666">
        <ele>122.949379</ele>
        <time>2026-08-16T02:12:39.000Z</time>
      </trkpt>
      <trkpt lat="22.783022" lon="110.023714">
        <ele>122.929114</ele>
        <time>2026-08-16T02:12:40.000Z</time>
      </trkpt>
      <trkpt lat="22.783042" lon="110.023764">
        <ele>122.908326</ele>
        <time>2026-08-16T02:12:41.000Z</time>
      </trkpt>
      <trkpt lat="22.783064" lon="110.023812">
        <ele>122.887880</ele>
        <time>2026-08-16T02:12:42.000Z</time>
      </trkpt>
      <trkpt lat="22.783086" lon="110.023861">
        <ele>122.867092</ele>
        <time>2026-08-16T02:12:43.000Z</time>
      </trkpt>
      <trkpt lat="22.783107" lon="110.023909">
        <ele>122.846828</ele>
        <time>2026-08-16T02:12:44.000Z</time>
      </trkpt>
      <trkpt lat="22.783126" lon="110.023959">
        <ele>122.826200</ele>
        <time>2026-08-16T02:12:45.000Z</time>
      </trkpt>
      <trkpt lat="22.783138" lon="110.024013">
        <ele>122.805014</ele>
        <time>2026-08-16T02:12:46.000Z</time>
      </trkpt>
      <trkpt lat="22.783149" lon="110.024068">
        <ele>122.783548</ele>
        <time>2026-08-16T02:12:47.000Z</time>
      </trkpt>
      <trkpt lat="22.783159" lon="110.024123">
        <ele>122.762166</ele>
        <time>2026-08-16T02:12:48.000Z</time>
      </trkpt>
      <trkpt lat="22.783172" lon="110.024177">
        <ele>122.740879</ele>
        <time>2026-08-16T02:12:49.000Z</time>
      </trkpt>
      <trkpt lat="22.783184" lon="110.024236">
        <ele>122.717834</ele>
        <time>2026-08-16T02:12:50.000Z</time>
      </trkpt>
      <trkpt lat="22.783194" lon="110.024296">
        <ele>122.694578</ele>
        <time>2026-08-16T02:12:51.000Z</time>
      </trkpt>
      <trkpt lat="22.783204" lon="110.024356">
        <ele>122.671322</ele>
        <time>2026-08-16T02:12:52.000Z</time>
      </trkpt>
      <trkpt lat="22.783214" lon="110.024418">
        <ele>122.647315</ele>
        <time>2026-08-16T02:12:53.000Z</time>
      </trkpt>
      <trkpt lat="22.783221" lon="110.024481">
        <ele>122.623112</ele>
        <time>2026-08-16T02:12:54.000Z</time>
      </trkpt>
      <trkpt lat="22.783225" lon="110.024544">
        <ele>122.599026</ele>
        <time>2026-08-16T02:12:55.000Z</time>
      </trkpt>
      <trkpt lat="22.783229" lon="110.024608">
        <ele>122.574559</ele>
        <time>2026-08-16T02:12:56.000Z</time>
      </trkpt>
      <trkpt lat="22.783234" lon="110.024673">
        <ele>122.549680</ele>
        <time>2026-08-16T02:12:57.000Z</time>
      </trkpt>
      <trkpt lat="22.783245" lon="110.024737">
        <ele>122.524849</ele>
        <time>2026-08-16T02:12:58.000Z</time>
      </trkpt>
      <trkpt lat="22.783261" lon="110.024801">
        <ele>122.499557</ele>
        <time>2026-08-16T02:12:59.000Z</time>
      </trkpt>
      <trkpt lat="22.783277" lon="110.024864">
        <ele>122.474633</ele>
        <time>2026-08-16T02:13:00.000Z</time>
      </trkpt>
      <trkpt lat="22.783294" lon="110.024921">
        <ele>122.451782</ele>
        <time>2026-08-16T02:13:01.000Z</time>
      </trkpt>
      <trkpt lat="22.783319" lon="110.024977">
        <ele>122.428051</ele>
        <time>2026-08-16T02:13:02.000Z</time>
      </trkpt>
      <trkpt lat="22.783349" lon="110.025030">
        <ele>122.404330</ele>
        <time>2026-08-16T02:13:03.000Z</time>
      </trkpt>
      <trkpt lat="22.783380" lon="110.025084">
        <ele>122.380067</ele>
        <time>2026-08-16T02:13:04.000Z</time>
      </trkpt>
      <trkpt lat="22.783410" lon="110.025138">
        <ele>122.356020</ele>
        <time>2026-08-16T02:13:05.000Z</time>
      </trkpt>
      <trkpt lat="22.783443" lon="110.025186">
        <ele>122.333183</ele>
        <time>2026-08-16T02:13:06.000Z</time>
      </trkpt>
      <trkpt lat="22.783477" lon="110.025232">
        <ele>122.310695</ele>
        <time>2026-08-16T02:13:07.000Z</time>
      </trkpt>
      <trkpt lat="22.783510" lon="110.025278">
        <ele>122.288464</ele>
        <time>2026-08-16T02:13:08.000Z</time>
      </trkpt>
      <trkpt lat="22.783540" lon="110.025324">
        <ele>122.266973</ele>
        <time>2026-08-16T02:13:09.000Z</time>
      </trkpt>
      <trkpt lat="22.783571" lon="110.025366">
        <ele>122.419539</ele>
        <time>2026-08-16T02:13:10.000Z</time>
      </trkpt>
      <trkpt lat="22.783601" lon="110.025408">
        <ele>122.624002</ele>
        <time>2026-08-16T02:13:11.000Z</time>
      </trkpt>
      <trkpt lat="22.783630" lon="110.025450">
        <ele>122.825936</ele>
        <time>2026-08-16T02:13:12.000Z</time>
      </trkpt>
      <trkpt lat="22.783658" lon="110.025491">
        <ele>123.022291</ele>
        <time>2026-08-16T02:13:13.000Z</time>
      </trkpt>
      <trkpt lat="22.783684" lon="110.025531">
        <ele>123.210636</ele>
        <time>2026-08-16T02:13:14.000Z</time>
      </trkpt>
      <trkpt lat="22.783710" lon="110.025568">
        <ele>123.389668</ele>
        <time>2026-08-16T02:13:15.000Z</time>
      </trkpt>
      <trkpt lat="22.783736" lon="110.025602">
        <ele>123.559663</ele>
        <time>2026-08-16T02:13:16.000Z</time>
      </trkpt>
      <trkpt lat="22.783759" lon="110.025635">
        <ele>123.718863</ele>
        <time>2026-08-16T02:13:17.000Z</time>
      </trkpt>
      <trkpt lat="22.783782" lon="110.025668">
        <ele>123.878063</ele>
        <time>2026-08-16T02:13:18.000Z</time>
      </trkpt>
      <trkpt lat="22.783805" lon="110.025701">
        <ele>124.037263</ele>
        <time>2026-08-16T02:13:19.000Z</time>
      </trkpt>
      <trkpt lat="22.783824" lon="110.025731">
        <ele>124.177330</ele>
        <time>2026-08-16T02:13:20.000Z</time>
      </trkpt>
      <trkpt lat="22.783843" lon="110.025760">
        <ele>124.314241</ele>
        <time>2026-08-16T02:13:21.000Z</time>
      </trkpt>
      <trkpt lat="22.783862" lon="110.025787">
        <ele>124.444955</ele>
        <time>2026-08-16T02:13:22.000Z</time>
      </trkpt>
      <trkpt lat="22.783883" lon="110.025814">
        <ele>124.580896</ele>
        <time>2026-08-16T02:13:23.000Z</time>
      </trkpt>
      <trkpt lat="22.783901" lon="110.025841">
        <ele>124.709120</ele>
        <time>2026-08-16T02:13:24.000Z</time>
      </trkpt>
      <trkpt lat="22.783918" lon="110.025867">
        <ele>124.831785</ele>
        <time>2026-08-16T02:13:25.000Z</time>
      </trkpt>
      <trkpt lat="22.783935" lon="110.025894">
        <ele>124.957609</ele>
        <time>2026-08-16T02:13:26.000Z</time>
      </trkpt>
      <trkpt lat="22.783951" lon="110.025921">
        <ele>125.081127</ele>
        <time>2026-08-16T02:13:27.000Z</time>
      </trkpt>
      <trkpt lat="22.783967" lon="110.025951">
        <ele>125.214503</ele>
        <time>2026-08-16T02:13:28.000Z</time>
      </trkpt>
      <trkpt lat="22.783981" lon="110.025978">
        <ele>125.333714</ele>
        <time>2026-08-16T02:13:29.000Z</time>
      </trkpt>
      <trkpt lat="22.783998" lon="110.026002">
        <ele>125.450186</ele>
        <time>2026-08-16T02:13:30.000Z</time>
      </trkpt>
      <trkpt lat="22.784015" lon="110.026026">
        <ele>125.566658</ele>
        <time>2026-08-16T02:13:31.000Z</time>
      </trkpt>
      <trkpt lat="22.784030" lon="110.026049">
        <ele>125.675076</ele>
        <time>2026-08-16T02:13:32.000Z</time>
      </trkpt>
      <trkpt lat="22.784045" lon="110.026074">
        <ele>125.789864</ele>
        <time>2026-08-16T02:13:33.000Z</time>
      </trkpt>
      <trkpt lat="22.784061" lon="110.026098">
        <ele>125.903841</ele>
        <time>2026-08-16T02:13:34.000Z</time>
      </trkpt>
      <trkpt lat="22.784075" lon="110.026120">
        <ele>126.006714</ele>
        <time>2026-08-16T02:13:35.000Z</time>
      </trkpt>
      <trkpt lat="22.784089" lon="110.026141">
        <ele>126.106444</ele>
        <time>2026-08-16T02:13:36.000Z</time>
      </trkpt>
      <trkpt lat="22.784104" lon="110.026163">
        <ele>126.211744</ele>
        <time>2026-08-16T02:13:37.000Z</time>
      </trkpt>
      <trkpt lat="22.784116" lon="110.026186">
        <ele>126.313446</ele>
        <time>2026-08-16T02:13:38.000Z</time>
      </trkpt>
      <trkpt lat="22.784127" lon="110.026212">
        <ele>126.423535</ele>
        <time>2026-08-16T02:13:39.000Z</time>
      </trkpt>
      <trkpt lat="22.784138" lon="110.026235">
        <ele>126.523248</ele>
        <time>2026-08-16T02:13:40.000Z</time>
      </trkpt>
      <trkpt lat="22.784151" lon="110.026257">
        <ele>126.623808</ele>
        <time>2026-08-16T02:13:41.000Z</time>
      </trkpt>
      <trkpt lat="22.784165" lon="110.026278">
        <ele>126.723538</ele>
        <time>2026-08-16T02:13:42.000Z</time>
      </trkpt>
      <trkpt lat="22.784179" lon="110.026301">
        <ele>126.829601</ele>
        <time>2026-08-16T02:13:43.000Z</time>
      </trkpt>
      <trkpt lat="22.784191" lon="110.026323">
        <ele>126.927972</ele>
        <time>2026-08-16T02:13:44.000Z</time>
      </trkpt>
      <trkpt lat="22.784201" lon="110.026345">
        <ele>127.022366</ele>
        <time>2026-08-16T02:13:45.000Z</time>
      </trkpt>
      <trkpt lat="22.784213" lon="110.026367">
        <ele>127.120737</ele>
        <time>2026-08-16T02:13:46.000Z</time>
      </trkpt>
      <trkpt lat="22.784226" lon="110.026389">
        <ele>127.221298</ele>
        <time>2026-08-16T02:13:47.000Z</time>
      </trkpt>
      <trkpt lat="22.784239" lon="110.026410">
        <ele>127.318640</ele>
        <time>2026-08-16T02:13:48.000Z</time>
      </trkpt>
      <trkpt lat="22.784254" lon="110.026432">
        <ele>127.423940</ele>
        <time>2026-08-16T02:13:49.000Z</time>
      </trkpt>
      <trkpt lat="22.784269" lon="110.026453">
        <ele>127.526172</ele>
        <time>2026-08-16T02:13:50.000Z</time>
      </trkpt>
      <trkpt lat="22.784284" lon="110.026476">
        <ele>127.634590</ele>
        <time>2026-08-16T02:13:51.000Z</time>
      </trkpt>
      <trkpt lat="22.784299" lon="110.026499">
        <ele>127.743008</ele>
        <time>2026-08-16T02:13:52.000Z</time>
      </trkpt>
      <trkpt lat="22.784313" lon="110.026523">
        <ele>127.852303</ele>
        <time>2026-08-16T02:13:53.000Z</time>
      </trkpt>
      <trkpt lat="22.784330" lon="110.026544">
        <ele>127.959850</ele>
        <time>2026-08-16T02:13:54.000Z</time>
      </trkpt>
      <trkpt lat="22.784346" lon="110.026564">
        <ele>128.061753</ele>
        <time>2026-08-16T02:13:55.000Z</time>
      </trkpt>
      <trkpt lat="22.784363" lon="110.026586">
        <ele>128.172221</ele>
        <time>2026-08-16T02:13:56.000Z</time>
      </trkpt>
      <trkpt lat="22.784377" lon="110.026610">
        <ele>128.281515</ele>
        <time>2026-08-16T02:13:57.000Z</time>
      </trkpt>
      <trkpt lat="22.784391" lon="110.026632">
        <ele>128.384388</ele>
        <time>2026-08-16T02:13:58.000Z</time>
      </trkpt>
      <trkpt lat="22.784407" lon="110.026653">
        <ele>128.489228</ele>
        <time>2026-08-16T02:13:59.000Z</time>
      </trkpt>
      <trkpt lat="22.784425" lon="110.026674">
        <ele>128.599573</ele>
        <time>2026-08-16T02:14:00.000Z</time>
      </trkpt>
      <trkpt lat="22.784442" lon="110.026697">
        <ele>128.713017</ele>
        <time>2026-08-16T02:14:01.000Z</time>
      </trkpt>
      <trkpt lat="22.784460" lon="110.026719">
        <ele>128.826212</ele>
        <time>2026-08-16T02:14:02.000Z</time>
      </trkpt>
      <trkpt lat="22.784478" lon="110.026742">
        <ele>128.942312</ele>
        <time>2026-08-16T02:14:03.000Z</time>
      </trkpt>
      <trkpt lat="22.784494" lon="110.026766">
        <ele>129.056289</ele>
        <time>2026-08-16T02:14:04.000Z</time>
      </trkpt>
      <trkpt lat="22.784508" lon="110.026789">
        <ele>129.162352</ele>
        <time>2026-08-16T02:14:05.000Z</time>
      </trkpt>
      <trkpt lat="22.784524" lon="110.026812">
        <ele>129.273233</ele>
        <time>2026-08-16T02:14:06.000Z</time>
      </trkpt>
      <trkpt lat="22.784539" lon="110.026835">
        <ele>129.381651</ele>
        <time>2026-08-16T02:14:07.000Z</time>
      </trkpt>
      <trkpt lat="22.784556" lon="110.026855">
        <ele>129.486337</ele>
        <time>2026-08-16T02:14:08.000Z</time>
      </trkpt>
      <trkpt lat="22.784572" lon="110.026876">
        <ele>129.591176</ele>
        <time>2026-08-16T02:14:09.000Z</time>
      </trkpt>
      <trkpt lat="22.784591" lon="110.026897">
        <ele>129.704405</ele>
        <time>2026-08-16T02:14:10.000Z</time>
      </trkpt>
      <trkpt lat="22.784609" lon="110.026915">
        <ele>129.807330</ele>
        <time>2026-08-16T02:14:11.000Z</time>
      </trkpt>
      <trkpt lat="22.784627" lon="110.026934">
        <ele>129.914250</ele>
        <time>2026-08-16T02:14:12.000Z</time>
      </trkpt>
      <trkpt lat="22.784644" lon="110.026955">
        <ele>130.023931</ele>
        <time>2026-08-16T02:14:13.000Z</time>
      </trkpt>
      <trkpt lat="22.784661" lon="110.026975">
        <ele>130.130694</ele>
        <time>2026-08-16T02:14:14.000Z</time>
      </trkpt>
      <trkpt lat="22.784678" lon="110.026998">
        <ele>130.246389</ele>
        <time>2026-08-16T02:14:15.000Z</time>
      </trkpt>
      <trkpt lat="22.784695" lon="110.027020">
        <ele>130.359049</ele>
        <time>2026-08-16T02:14:16.000Z</time>
      </trkpt>
      <trkpt lat="22.784712" lon="110.027041">
        <ele>130.468730</ele>
        <time>2026-08-16T02:14:17.000Z</time>
      </trkpt>
      <trkpt lat="22.784727" lon="110.027063">
        <ele>130.576119</ele>
        <time>2026-08-16T02:14:18.000Z</time>
      </trkpt>
      <trkpt lat="22.784742" lon="110.027083">
        <ele>130.677305</ele>
        <time>2026-08-16T02:14:19.000Z</time>
      </trkpt>
      <trkpt lat="22.784759" lon="110.027104">
        <ele>130.786986</ele>
        <time>2026-08-16T02:14:20.000Z</time>
      </trkpt>
      <trkpt lat="22.784776" lon="110.027123">
        <ele>130.890898</ele>
        <time>2026-08-16T02:14:21.000Z</time>
      </trkpt>
      <trkpt lat="22.784794" lon="110.027143">
        <ele>131.000591</ele>
        <time>2026-08-16T02:14:22.000Z</time>
      </trkpt>
      <trkpt lat="22.784813" lon="110.027163">
        <ele>131.113299</ele>
        <time>2026-08-16T02:14:23.000Z</time>
      </trkpt>
      <trkpt lat="22.784832" lon="110.027183">
        <ele>131.226007</ele>
        <time>2026-08-16T02:14:24.000Z</time>
      </trkpt>
      <trkpt lat="22.784850" lon="110.027203">
        <ele>131.335700</ele>
        <time>2026-08-16T02:14:25.000Z</time>
      </trkpt>
      <trkpt lat="22.784868" lon="110.027224">
        <ele>131.448235</ele>
        <time>2026-08-16T02:14:26.000Z</time>
      </trkpt>
      <trkpt lat="22.784884" lon="110.027244">
        <ele>131.552160</ele>
        <time>2026-08-16T02:14:27.000Z</time>
      </trkpt>
      <trkpt lat="22.784902" lon="110.027265">
        <ele>131.664695</ele>
        <time>2026-08-16T02:14:28.000Z</time>
      </trkpt>
      <trkpt lat="22.784920" lon="110.027286">
        <ele>131.777230</ele>
        <time>2026-08-16T02:14:29.000Z</time>
      </trkpt>
      <trkpt lat="22.784938" lon="110.027305">
        <ele>131.884149</ele>
        <time>2026-08-16T02:14:30.000Z</time>
      </trkpt>
      <trkpt lat="22.784958" lon="110.027323">
        <ele>131.994780</ele>
        <time>2026-08-16T02:14:31.000Z</time>
      </trkpt>
      <trkpt lat="22.784976" lon="110.027340">
        <ele>132.096381</ele>
        <time>2026-08-16T02:14:32.000Z</time>
      </trkpt>
      <trkpt lat="22.784995" lon="110.027359">
        <ele>132.206392</ele>
        <time>2026-08-16T02:14:33.000Z</time>
      </trkpt>
      <trkpt lat="22.785014" lon="110.027381">
        <ele>132.324700</ele>
        <time>2026-08-16T02:14:34.000Z</time>
      </trkpt>
      <trkpt lat="22.785032" lon="110.027403">
        <ele>132.440141</ele>
        <time>2026-08-16T02:14:35.000Z</time>
      </trkpt>
      <trkpt lat="22.785048" lon="110.027425">
        <ele>132.550114</ele>
        <time>2026-08-16T02:14:36.000Z</time>
      </trkpt>
      <trkpt lat="22.785067" lon="110.027446">
        <ele>132.665590</ele>
        <time>2026-08-16T02:14:37.000Z</time>
      </trkpt>
      <trkpt lat="22.785086" lon="110.027467">
        <ele>132.781065</ele>
        <time>2026-08-16T02:14:38.000Z</time>
      </trkpt>
      <trkpt lat="22.785104" lon="110.027486">
        <ele>132.887985</ele>
        <time>2026-08-16T02:14:39.000Z</time>
      </trkpt>
      <trkpt lat="22.785123" lon="110.027504">
        <ele>132.995374</ele>
        <time>2026-08-16T02:14:40.000Z</time>
      </trkpt>
      <trkpt lat="22.785142" lon="110.027522">
        <ele>133.102763</ele>
        <time>2026-08-16T02:14:41.000Z</time>
      </trkpt>
      <trkpt lat="22.785161" lon="110.027539">
        <ele>133.207612</ele>
        <time>2026-08-16T02:14:42.000Z</time>
      </trkpt>
      <trkpt lat="22.785179" lon="110.027555">
        <ele>133.306680</ele>
        <time>2026-08-16T02:14:43.000Z</time>
      </trkpt>
      <trkpt lat="22.785202" lon="110.027571">
        <ele>133.422996</ele>
        <time>2026-08-16T02:14:44.000Z</time>
      </trkpt>
      <trkpt lat="22.785222" lon="110.027589">
        <ele>133.533626</ele>
        <time>2026-08-16T02:14:45.000Z</time>
      </trkpt>
      <trkpt lat="22.785240" lon="110.027610">
        <ele>133.646161</ele>
        <time>2026-08-16T02:14:46.000Z</time>
      </trkpt>
      <trkpt lat="22.785260" lon="110.027629">
        <ele>133.759338</ele>
        <time>2026-08-16T02:14:47.000Z</time>
      </trkpt>
      <trkpt lat="22.785281" lon="110.027647">
        <ele>133.873277</ele>
        <time>2026-08-16T02:14:48.000Z</time>
      </trkpt>
      <trkpt lat="22.785301" lon="110.027664">
        <ele>133.981443</ele>
        <time>2026-08-16T02:14:49.000Z</time>
      </trkpt>
      <trkpt lat="22.785323" lon="110.027679">
        <ele>134.092061</ele>
        <time>2026-08-16T02:14:50.000Z</time>
      </trkpt>
      <trkpt lat="22.785344" lon="110.027696">
        <ele>134.203609</ele>
        <time>2026-08-16T02:14:51.000Z</time>
      </trkpt>
      <trkpt lat="22.785365" lon="110.027714">
        <ele>134.317548</ele>
        <time>2026-08-16T02:14:52.000Z</time>
      </trkpt>
      <trkpt lat="22.785387" lon="110.027732">
        <ele>134.434857</ele>
        <time>2026-08-16T02:14:53.000Z</time>
      </trkpt>
      <trkpt lat="22.785410" lon="110.027749">
        <ele>134.553337</ele>
        <time>2026-08-16T02:14:54.000Z</time>
      </trkpt>
      <trkpt lat="22.785431" lon="110.027766">
        <ele>134.664885</ele>
        <time>2026-08-16T02:14:55.000Z</time>
      </trkpt>
      <trkpt lat="22.785452" lon="110.027786">
        <ele>134.783850</ele>
        <time>2026-08-16T02:14:56.000Z</time>
      </trkpt>
      <trkpt lat="22.785471" lon="110.027805">
        <ele>134.893861</ele>
        <time>2026-08-16T02:14:57.000Z</time>
      </trkpt>
      <trkpt lat="22.785491" lon="110.027825">
        <ele>135.009661</ele>
        <time>2026-08-16T02:14:58.000Z</time>
      </trkpt>
      <trkpt lat="22.785511" lon="110.027843">
        <ele>135.120292</ele>
        <time>2026-08-16T02:14:59.000Z</time>
      </trkpt>
      <trkpt lat="22.785529" lon="110.027862">
        <ele>135.227211</ele>
        <time>2026-08-16T02:15:00.000Z</time>
      </trkpt>
      <trkpt lat="22.785549" lon="110.027879">
        <ele>135.335378</ele>
        <time>2026-08-16T02:15:01.000Z</time>
      </trkpt>
      <trkpt lat="22.785569" lon="110.027895">
        <ele>135.441168</ele>
        <time>2026-08-16T02:15:02.000Z</time>
      </trkpt>
      <trkpt lat="22.785589" lon="110.027910">
        <ele>135.544678</ele>
        <time>2026-08-16T02:15:03.000Z</time>
      </trkpt>
      <trkpt lat="22.785610" lon="110.027927">
        <ele>135.656225</ele>
        <time>2026-08-16T02:15:04.000Z</time>
      </trkpt>
      <trkpt lat="22.785630" lon="110.027945">
        <ele>135.766856</ele>
        <time>2026-08-16T02:15:05.000Z</time>
      </trkpt>
      <trkpt lat="22.785648" lon="110.027962">
        <ele>135.868457</ele>
        <time>2026-08-16T02:15:06.000Z</time>
      </trkpt>
      <trkpt lat="22.785666" lon="110.027978">
        <ele>135.967525</ele>
        <time>2026-08-16T02:15:07.000Z</time>
      </trkpt>
      <trkpt lat="22.785687" lon="110.027994">
        <ele>136.076771</ele>
        <time>2026-08-16T02:15:08.000Z</time>
      </trkpt>
      <trkpt lat="22.785708" lon="110.028010">
        <ele>136.186016</ele>
        <time>2026-08-16T02:15:09.000Z</time>
      </trkpt>
      <trkpt lat="22.785728" lon="110.028027">
        <ele>136.294183</ele>
        <time>2026-08-16T02:15:10.000Z</time>
      </trkpt>
      <trkpt lat="22.785748" lon="110.028045">
        <ele>136.404813</ele>
        <time>2026-08-16T02:15:11.000Z</time>
      </trkpt>
      <trkpt lat="22.785769" lon="110.028064">
        <ele>136.521226</ele>
        <time>2026-08-16T02:15:12.000Z</time>
      </trkpt>
      <trkpt lat="22.785790" lon="110.028082">
        <ele>136.635165</ele>
        <time>2026-08-16T02:15:13.000Z</time>
      </trkpt>
      <trkpt lat="22.785810" lon="110.028101">
        <ele>136.748341</ele>
        <time>2026-08-16T02:15:14.000Z</time>
      </trkpt>
      <trkpt lat="22.785831" lon="110.028119">
        <ele>136.862280</ele>
        <time>2026-08-16T02:15:15.000Z</time>
      </trkpt>
      <trkpt lat="22.785852" lon="110.028135">
        <ele>136.971526</ele>
        <time>2026-08-16T02:15:16.000Z</time>
      </trkpt>
      <trkpt lat="22.785873" lon="110.028153">
        <ele>137.085465</ele>
        <time>2026-08-16T02:15:17.000Z</time>
      </trkpt>
      <trkpt lat="22.785894" lon="110.028171">
        <ele>137.199403</ele>
        <time>2026-08-16T02:15:18.000Z</time>
      </trkpt>
      <trkpt lat="22.785915" lon="110.028187">
        <ele>137.308649</ele>
        <time>2026-08-16T02:15:19.000Z</time>
      </trkpt>
      <trkpt lat="22.785938" lon="110.028201">
        <ele>137.420921</ele>
        <time>2026-08-16T02:15:20.000Z</time>
      </trkpt>
      <trkpt lat="22.785958" lon="110.028218">
        <ele>137.520488</ele>
        <time>2026-08-16T02:15:21.000Z</time>
      </trkpt>
      <trkpt lat="22.785979" lon="110.028234">
        <ele>137.620591</ele>
        <time>2026-08-16T02:15:22.000Z</time>
      </trkpt>
      <trkpt lat="22.786002" lon="110.028250">
        <ele>137.727172</ele>
        <time>2026-08-16T02:15:23.000Z</time>
      </trkpt>
      <trkpt lat="22.786024" lon="110.028265">
        <ele>137.828532</ele>
        <time>2026-08-16T02:15:24.000Z</time>
      </trkpt>
      <trkpt lat="22.786045" lon="110.028283">
        <ele>137.932935</ele>
        <time>2026-08-16T02:15:25.000Z</time>
      </trkpt>
      <trkpt lat="22.786066" lon="110.028301">
        <ele>138.037337</ele>
        <time>2026-08-16T02:15:26.000Z</time>
      </trkpt>
      <trkpt lat="22.786088" lon="110.028318">
        <ele>138.142701</ele>
        <time>2026-08-16T02:15:27.000Z</time>
      </trkpt>
      <trkpt lat="22.786111" lon="110.028335">
        <ele>138.251266</ele>
        <time>2026-08-16T02:15:28.000Z</time>
      </trkpt>
      <trkpt lat="22.786131" lon="110.028353">
        <ele>138.352637</ele>
        <time>2026-08-16T02:15:29.000Z</time>
      </trkpt>
      <trkpt lat="22.786152" lon="110.028371">
        <ele>138.457040</ele>
        <time>2026-08-16T02:15:30.000Z</time>
      </trkpt>
      <trkpt lat="22.786172" lon="110.028390">
        <ele>138.560744</ele>
        <time>2026-08-16T02:15:31.000Z</time>
      </trkpt>
      <trkpt lat="22.786192" lon="110.028410">
        <ele>138.666853</ele>
        <time>2026-08-16T02:15:32.000Z</time>
      </trkpt>
      <trkpt lat="22.786214" lon="110.028430">
        <ele>138.778822</ele>
        <time>2026-08-16T02:15:33.000Z</time>
      </trkpt>
      <trkpt lat="22.786237" lon="110.028446">
        <ele>138.885402</ele>
        <time>2026-08-16T02:15:34.000Z</time>
      </trkpt>
      <trkpt lat="22.786259" lon="110.028464">
        <ele>138.992893</ele>
        <time>2026-08-16T02:15:35.000Z</time>
      </trkpt>
      <trkpt lat="22.786279" lon="110.028483">
        <ele>139.096597</ele>
        <time>2026-08-16T02:15:36.000Z</time>
      </trkpt>
      <trkpt lat="22.786299" lon="110.028502">
        <ele>139.200302</ele>
        <time>2026-08-16T02:15:37.000Z</time>
      </trkpt>
      <trkpt lat="22.786319" lon="110.028521">
        <ele>139.304006</ele>
        <time>2026-08-16T02:15:38.000Z</time>
      </trkpt>
      <trkpt lat="22.786339" lon="110.028539">
        <ele>139.405378</ele>
        <time>2026-08-16T02:15:39.000Z</time>
      </trkpt>
      <trkpt lat="22.786359" lon="110.028557">
        <ele>139.506749</ele>
        <time>2026-08-16T02:15:40.000Z</time>
      </trkpt>
      <trkpt lat="22.786379" lon="110.028577">
        <ele>139.612857</ele>
        <time>2026-08-16T02:15:41.000Z</time>
      </trkpt>
      <trkpt lat="22.786399" lon="110.028597">
        <ele>139.718966</ele>
        <time>2026-08-16T02:15:42.000Z</time>
      </trkpt>
      <trkpt lat="22.786418" lon="110.028617">
        <ele>139.822240</ele>
        <time>2026-08-16T02:15:43.000Z</time>
      </trkpt>
      <trkpt lat="22.786434" lon="110.028636">
        <ele>139.914780</ele>
        <time>2026-08-16T02:15:44.000Z</time>
      </trkpt>
      <trkpt lat="22.786448" lon="110.028656">
        <ele>140.005086</ele>
        <time>2026-08-16T02:15:45.000Z</time>
      </trkpt>
      <trkpt lat="22.786462" lon="110.028676">
        <ele>140.095392</ele>
        <time>2026-08-16T02:15:46.000Z</time>
      </trkpt>
      <trkpt lat="22.786478" lon="110.028697">
        <ele>140.193363</ele>
        <time>2026-08-16T02:15:47.000Z</time>
      </trkpt>
      <trkpt lat="22.786490" lon="110.028722">
        <ele>140.294723</ele>
        <time>2026-08-16T02:15:48.000Z</time>
      </trkpt>
      <trkpt lat="22.786500" lon="110.028746">
        <ele>140.389437</ele>
        <time>2026-08-16T02:15:49.000Z</time>
      </trkpt>
      <trkpt lat="22.786513" lon="110.028769">
        <ele>140.486456</ele>
        <time>2026-08-16T02:15:50.000Z</time>
      </trkpt>
      <trkpt lat="22.786527" lon="110.028791">
        <ele>140.582588</ele>
        <time>2026-08-16T02:15:51.000Z</time>
      </trkpt>
      <trkpt lat="22.786542" lon="110.028814">
        <ele>140.683903</ele>
        <time>2026-08-16T02:15:52.000Z</time>
      </trkpt>
      <trkpt lat="22.786557" lon="110.028837">
        <ele>140.785218</ele>
        <time>2026-08-16T02:15:53.000Z</time>
      </trkpt>
      <trkpt lat="22.786571" lon="110.028861">
        <ele>140.887352</ele>
        <time>2026-08-16T02:15:54.000Z</time>
      </trkpt>
      <trkpt lat="22.786586" lon="110.028884">
        <ele>140.988666</ele>
        <time>2026-08-16T02:15:55.000Z</time>
      </trkpt>
      <trkpt lat="22.786601" lon="110.028909">
        <ele>141.095934</ele>
        <time>2026-08-16T02:15:56.000Z</time>
      </trkpt>
      <trkpt lat="22.786615" lon="110.028932">
        <ele>141.195047</ele>
        <time>2026-08-16T02:15:57.000Z</time>
      </trkpt>
      <trkpt lat="22.786630" lon="110.028955">
        <ele>141.296362</ele>
        <time>2026-08-16T02:15:58.000Z</time>
      </trkpt>
      <trkpt lat="22.786645" lon="110.028979">
        <ele>141.400633</ele>
        <time>2026-08-16T02:15:59.000Z</time>
      </trkpt>
      <trkpt lat="22.786658" lon="110.029005">
        <ele>141.506999</ele>
        <time>2026-08-16T02:16:00.000Z</time>
      </trkpt>
      <trkpt lat="22.786671" lon="110.029029">
        <ele>141.607102</ele>
        <time>2026-08-16T02:16:01.000Z</time>
      </trkpt>
      <trkpt lat="22.786687" lon="110.029054">
        <ele>141.716545</ele>
        <time>2026-08-16T02:16:02.000Z</time>
      </trkpt>
      <trkpt lat="22.786702" lon="110.029078">
        <ele>141.820816</ele>
        <time>2026-08-16T02:16:03.000Z</time>
      </trkpt>
      <trkpt lat="22.786718" lon="110.029102">
        <ele>141.927325</ele>
        <time>2026-08-16T02:16:04.000Z</time>
      </trkpt>
      <trkpt lat="22.786734" lon="110.029127">
        <ele>142.036769</ele>
        <time>2026-08-16T02:16:05.000Z</time>
      </trkpt>
      <trkpt lat="22.786749" lon="110.029152">
        <ele>142.144036</ele>
        <time>2026-08-16T02:16:06.000Z</time>
      </trkpt>
      <trkpt lat="22.786765" lon="110.029177">
        <ele>142.253479</ele>
        <time>2026-08-16T02:16:07.000Z</time>
      </trkpt>
      <trkpt lat="22.786780" lon="110.029201">
        <ele>142.357751</ele>
        <time>2026-08-16T02:16:08.000Z</time>
      </trkpt>
      <trkpt lat="22.786793" lon="110.029225">
        <ele>142.457853</ele>
        <time>2026-08-16T02:16:09.000Z</time>
      </trkpt>
      <trkpt lat="22.786805" lon="110.029249">
        <ele>142.556037</ele>
        <time>2026-08-16T02:16:10.000Z</time>
      </trkpt>
      <trkpt lat="22.786818" lon="110.029274">
        <ele>142.659256</ele>
        <time>2026-08-16T02:16:11.000Z</time>
      </trkpt>
      <trkpt lat="22.786834" lon="110.029298">
        <ele>142.765765</ele>
        <time>2026-08-16T02:16:12.000Z</time>
      </trkpt>
      <trkpt lat="22.786850" lon="110.029322">
        <ele>142.872274</ele>
        <time>2026-08-16T02:16:13.000Z</time>
      </trkpt>
      <trkpt lat="22.786866" lon="110.029345">
        <ele>142.975890</ele>
        <time>2026-08-16T02:16:14.000Z</time>
      </trkpt>
      <trkpt lat="22.786881" lon="110.029370">
        <ele>143.083157</ele>
        <time>2026-08-16T02:16:15.000Z</time>
      </trkpt>
      <trkpt lat="22.786897" lon="110.029395">
        <ele>143.192600</ele>
        <time>2026-08-16T02:16:16.000Z</time>
      </trkpt>
      <trkpt lat="22.786912" lon="110.029419">
        <ele>143.296871</ele>
        <time>2026-08-16T02:16:17.000Z</time>
      </trkpt>
      <trkpt lat="22.786927" lon="110.029445">
        <ele>143.407170</ele>
        <time>2026-08-16T02:16:18.000Z</time>
      </trkpt>
      <trkpt lat="22.786944" lon="110.029470">
        <ele>143.518884</ele>
        <time>2026-08-16T02:16:19.000Z</time>
      </trkpt>
      <trkpt lat="22.786960" lon="110.029494">
        <ele>143.625392</ele>
        <time>2026-08-16T02:16:20.000Z</time>
      </trkpt>
      <trkpt lat="22.786976" lon="110.029520">
        <ele>143.737809</ele>
        <time>2026-08-16T02:16:21.000Z</time>
      </trkpt>
      <trkpt lat="22.786991" lon="110.029544">
        <ele>143.842080</ele>
        <time>2026-08-16T02:16:22.000Z</time>
      </trkpt>
      <trkpt lat="22.787005" lon="110.029570">
        <ele>143.950360</ele>
        <time>2026-08-16T02:16:23.000Z</time>
      </trkpt>
      <trkpt lat="22.787016" lon="110.029597">
        <ele>144.056514</ele>
        <time>2026-08-16T02:16:24.000Z</time>
      </trkpt>
      <trkpt lat="22.787026" lon="110.029623">
        <ele>144.157825</ele>
        <time>2026-08-16T02:16:25.000Z</time>
      </trkpt>
      <trkpt lat="22.787041" lon="110.029647">
        <ele>144.262096</ele>
        <time>2026-08-16T02:16:26.000Z</time>
      </trkpt>
      <trkpt lat="22.787056" lon="110.029672">
        <ele>144.369363</ele>
        <time>2026-08-16T02:16:27.000Z</time>
      </trkpt>
      <trkpt lat="22.787070" lon="110.029698">
        <ele>144.441946</ele>
        <time>2026-08-16T02:16:28.000Z</time>
      </trkpt>
      <trkpt lat="22.787086" lon="110.029724">
        <ele>144.441245</ele>
        <time>2026-08-16T02:16:29.000Z</time>
      </trkpt>
      <trkpt lat="22.787104" lon="110.029749">
        <ele>144.440533</ele>
        <time>2026-08-16T02:16:30.000Z</time>
      </trkpt>
      <trkpt lat="22.787120" lon="110.029774">
        <ele>144.439850</ele>
        <time>2026-08-16T02:16:31.000Z</time>
      </trkpt>
      <trkpt lat="22.787138" lon="110.029796">
        <ele>144.439190</ele>
        <time>2026-08-16T02:16:32.000Z</time>
      </trkpt>
      <trkpt lat="22.787153" lon="110.029822">
        <ele>144.438502</ele>
        <time>2026-08-16T02:16:33.000Z</time>
      </trkpt>
      <trkpt lat="22.787167" lon="110.029849">
        <ele>144.437806</ele>
        <time>2026-08-16T02:16:34.000Z</time>
      </trkpt>
      <trkpt lat="22.787184" lon="110.029876">
        <ele>144.437073</ele>
        <time>2026-08-16T02:16:35.000Z</time>
      </trkpt>
      <trkpt lat="22.787199" lon="110.029902">
        <ele>144.436384</ele>
        <time>2026-08-16T02:16:36.000Z</time>
      </trkpt>
      <trkpt lat="22.787215" lon="110.029929">
        <ele>144.435664</ele>
        <time>2026-08-16T02:16:37.000Z</time>
      </trkpt>
      <trkpt lat="22.787232" lon="110.029953">
        <ele>144.434985</ele>
        <time>2026-08-16T02:16:38.000Z</time>
      </trkpt>
      <trkpt lat="22.787250" lon="110.029978">
        <ele>144.434273</ele>
        <time>2026-08-16T02:16:39.000Z</time>
      </trkpt>
      <trkpt lat="22.787267" lon="110.030003">
        <ele>144.433576</ele>
        <time>2026-08-16T02:16:40.000Z</time>
      </trkpt>
      <trkpt lat="22.787285" lon="110.030026">
        <ele>144.432899</ele>
        <time>2026-08-16T02:16:41.000Z</time>
      </trkpt>
      <trkpt lat="22.787303" lon="110.030050">
        <ele>144.432205</ele>
        <time>2026-08-16T02:16:42.000Z</time>
      </trkpt>
      <trkpt lat="22.787322" lon="110.030075">
        <ele>144.431478</ele>
        <time>2026-08-16T02:16:43.000Z</time>
      </trkpt>
      <trkpt lat="22.787340" lon="110.030101">
        <ele>144.430748</ele>
        <time>2026-08-16T02:16:44.000Z</time>
      </trkpt>
      <trkpt lat="22.787356" lon="110.030129">
        <ele>144.430009</ele>
        <time>2026-08-16T02:16:45.000Z</time>
      </trkpt>
      <trkpt lat="22.787374" lon="110.030156">
        <ele>144.429261</ele>
        <time>2026-08-16T02:16:46.000Z</time>
      </trkpt>
      <trkpt lat="22.787395" lon="110.030181">
        <ele>144.428502</ele>
        <time>2026-08-16T02:16:47.000Z</time>
      </trkpt>
      <trkpt lat="22.787416" lon="110.030207">
        <ele>144.427726</ele>
        <time>2026-08-16T02:16:48.000Z</time>
      </trkpt>
      <trkpt lat="22.787438" lon="110.030233">
        <ele>144.426934</ele>
        <time>2026-08-16T02:16:49.000Z</time>
      </trkpt>
      <trkpt lat="22.787459" lon="110.030258">
        <ele>144.426175</ele>
        <time>2026-08-16T02:16:50.000Z</time>
      </trkpt>
      <trkpt lat="22.787482" lon="110.030283">
        <ele>144.425383</ele>
        <time>2026-08-16T02:16:51.000Z</time>
      </trkpt>
      <trkpt lat="22.787505" lon="110.030310">
        <ele>144.424558</ele>
        <time>2026-08-16T02:16:52.000Z</time>
      </trkpt>
      <trkpt lat="22.787530" lon="110.030337">
        <ele>144.423699</ele>
        <time>2026-08-16T02:16:53.000Z</time>
      </trkpt>
      <trkpt lat="22.787557" lon="110.030366">
        <ele>144.422774</ele>
        <time>2026-08-16T02:16:54.000Z</time>
      </trkpt>
      <trkpt lat="22.787584" lon="110.030397">
        <ele>144.421817</ele>
        <time>2026-08-16T02:16:55.000Z</time>
      </trkpt>
      <trkpt lat="22.787612" lon="110.030431">
        <ele>144.420794</ele>
        <time>2026-08-16T02:16:56.000Z</time>
      </trkpt>
      <trkpt lat="22.787641" lon="110.030464">
        <ele>144.419771</ele>
        <time>2026-08-16T02:16:57.000Z</time>
      </trkpt>
      <trkpt lat="22.787672" lon="110.030499">
        <ele>144.418682</ele>
        <time>2026-08-16T02:16:58.000Z</time>
      </trkpt>
      <trkpt lat="22.787703" lon="110.030535">
        <ele>144.417576</ele>
        <time>2026-08-16T02:16:59.000Z</time>
      </trkpt>
      <trkpt lat="22.787733" lon="110.030572">
        <ele>144.416470</ele>
        <time>2026-08-16T02:17:00.000Z</time>
      </trkpt>
      <trkpt lat="22.787761" lon="110.030610">
        <ele>144.415379</ele>
        <time>2026-08-16T02:17:01.000Z</time>
      </trkpt>
      <trkpt lat="22.787789" lon="110.030646">
        <ele>144.414322</ele>
        <time>2026-08-16T02:17:02.000Z</time>
      </trkpt>
      <trkpt lat="22.787819" lon="110.030687">
        <ele>144.413147</ele>
        <time>2026-08-16T02:17:03.000Z</time>
      </trkpt>
      <trkpt lat="22.787847" lon="110.030724">
        <ele>144.412073</ele>
        <time>2026-08-16T02:17:04.000Z</time>
      </trkpt>
      <trkpt lat="22.787875" lon="110.030764">
        <ele>144.410946</ele>
        <time>2026-08-16T02:17:05.000Z</time>
      </trkpt>
      <trkpt lat="22.787903" lon="110.030800">
        <ele>144.409889</ele>
        <time>2026-08-16T02:17:06.000Z</time>
      </trkpt>
      <trkpt lat="22.787931" lon="110.030835">
        <ele>144.408849</ele>
        <time>2026-08-16T02:17:07.000Z</time>
      </trkpt>
      <trkpt lat="22.787960" lon="110.030870">
        <ele>144.407793</ele>
        <time>2026-08-16T02:17:08.000Z</time>
      </trkpt>
      <trkpt lat="22.787990" lon="110.030906">
        <ele>144.406704</ele>
        <time>2026-08-16T02:17:09.000Z</time>
      </trkpt>
      <trkpt lat="22.788023" lon="110.030943">
        <ele>144.405548</ele>
        <time>2026-08-16T02:17:10.000Z</time>
      </trkpt>
      <trkpt lat="22.788051" lon="110.030980">
        <ele>144.404474</ele>
        <time>2026-08-16T02:17:11.000Z</time>
      </trkpt>
      <trkpt lat="22.788080" lon="110.031020">
        <ele>144.403332</ele>
        <time>2026-08-16T02:17:12.000Z</time>
      </trkpt>
      <trkpt lat="22.788108" lon="110.031060">
        <ele>144.402205</ele>
        <time>2026-08-16T02:17:13.000Z</time>
      </trkpt>
      <trkpt lat="22.788133" lon="110.031104">
        <ele>144.401045</ele>
        <time>2026-08-16T02:17:14.000Z</time>
      </trkpt>
      <trkpt lat="22.788157" lon="110.031148">
        <ele>144.399898</ele>
        <time>2026-08-16T02:17:15.000Z</time>
      </trkpt>
      <trkpt lat="22.788181" lon="110.031192">
        <ele>144.398751</ele>
        <time>2026-08-16T02:17:16.000Z</time>
      </trkpt>
      <trkpt lat="22.788206" lon="110.031232">
        <ele>144.338355</ele>
        <time>2026-08-16T02:17:17.000Z</time>
      </trkpt>
      <trkpt lat="22.788231" lon="110.031274">
        <ele>144.244827</ele>
        <time>2026-08-16T02:17:18.000Z</time>
      </trkpt>
      <trkpt lat="22.788252" lon="110.031317">
        <ele>144.153792</ele>
        <time>2026-08-16T02:17:19.000Z</time>
      </trkpt>
      <trkpt lat="22.788273" lon="110.031361">
        <ele>144.061100</ele>
        <time>2026-08-16T02:17:20.000Z</time>
      </trkpt>
      <trkpt lat="22.788293" lon="110.031405">
        <ele>143.969323</ele>
        <time>2026-08-16T02:17:21.000Z</time>
      </trkpt>
      <trkpt lat="22.788315" lon="110.031449">
        <ele>143.875680</ele>
        <time>2026-08-16T02:17:22.000Z</time>
      </trkpt>
      <trkpt lat="22.788336" lon="110.031491">
        <ele>143.786294</ele>
        <time>2026-08-16T02:17:23.000Z</time>
      </trkpt>
      <trkpt lat="22.788355" lon="110.031534">
        <ele>143.697087</ele>
        <time>2026-08-16T02:17:24.000Z</time>
      </trkpt>
      <trkpt lat="22.788374" lon="110.031579">
        <ele>143.604491</ele>
        <time>2026-08-16T02:17:25.000Z</time>
      </trkpt>
      <trkpt lat="22.788391" lon="110.031630">
        <ele>143.503035</ele>
        <time>2026-08-16T02:17:26.000Z</time>
      </trkpt>
      <trkpt lat="22.788407" lon="110.031678">
        <ele>143.407546</ele>
        <time>2026-08-16T02:17:27.000Z</time>
      </trkpt>
      <trkpt lat="22.788426" lon="110.031727">
        <ele>143.308098</ele>
        <time>2026-08-16T02:17:28.000Z</time>
      </trkpt>
      <trkpt lat="22.788448" lon="110.031776">
        <ele>143.206136</ele>
        <time>2026-08-16T02:17:29.000Z</time>
      </trkpt>
      <trkpt lat="22.788469" lon="110.031825">
        <ele>143.105045</ele>
        <time>2026-08-16T02:17:30.000Z</time>
      </trkpt>
      <trkpt lat="22.788489" lon="110.031875">
        <ele>143.003080</ele>
        <time>2026-08-16T02:17:31.000Z</time>
      </trkpt>
      <trkpt lat="22.788508" lon="110.031925">
        <ele>142.901904</ele>
        <time>2026-08-16T02:17:32.000Z</time>
      </trkpt>
      <trkpt lat="22.788530" lon="110.031974">
        <ele>142.799942</ele>
        <time>2026-08-16T02:17:33.000Z</time>
      </trkpt>
      <trkpt lat="22.788551" lon="110.032023">
        <ele>142.698851</ele>
        <time>2026-08-16T02:17:34.000Z</time>
      </trkpt>
      <trkpt lat="22.788571" lon="110.032072">
        <ele>142.598599</ele>
        <time>2026-08-16T02:17:35.000Z</time>
      </trkpt>
      <trkpt lat="22.788596" lon="110.032116">
        <ele>142.501906</ele>
        <time>2026-08-16T02:17:36.000Z</time>
      </trkpt>
      <trkpt lat="22.788623" lon="110.032160">
        <ele>142.403024</ele>
        <time>2026-08-16T02:17:37.000Z</time>
      </trkpt>
      <trkpt lat="22.788646" lon="110.032208">
        <ele>142.301821</ele>
        <time>2026-08-16T02:17:38.000Z</time>
      </trkpt>
      <trkpt lat="22.788665" lon="110.032257">
        <ele>142.202373</ele>
        <time>2026-08-16T02:17:39.000Z</time>
      </trkpt>
      <trkpt lat="22.788684" lon="110.032309">
        <ele>142.097729</ele>
        <time>2026-08-16T02:17:40.000Z</time>
      </trkpt>
      <trkpt lat="22.788704" lon="110.032358">
        <ele>141.997477</ele>
        <time>2026-08-16T02:17:41.000Z</time>
      </trkpt>
      <trkpt lat="22.788724" lon="110.032408">
        <ele>141.895511</ele>
        <time>2026-08-16T02:17:42.000Z</time>
      </trkpt>
      <trkpt lat="22.788746" lon="110.032459">
        <ele>141.790172</ele>
        <time>2026-08-16T02:17:43.000Z</time>
      </trkpt>
      <trkpt lat="22.788768" lon="110.032509">
        <ele>141.686524</ele>
        <time>2026-08-16T02:17:44.000Z</time>
      </trkpt>
      <trkpt lat="22.788793" lon="110.032558">
        <ele>141.581754</ele>
        <time>2026-08-16T02:17:45.000Z</time>
      </trkpt>
      <trkpt lat="22.788822" lon="110.032607">
        <ele>141.472821</ele>
        <time>2026-08-16T02:17:46.000Z</time>
      </trkpt>
      <trkpt lat="22.788853" lon="110.032656">
        <ele>141.361643</ele>
        <time>2026-08-16T02:17:47.000Z</time>
      </trkpt>
      <trkpt lat="22.788886" lon="110.032704">
        <ele>141.249625</ele>
        <time>2026-08-16T02:17:48.000Z</time>
      </trkpt>
      <trkpt lat="22.788923" lon="110.032752">
        <ele>141.132574</ele>
        <time>2026-08-16T02:17:49.000Z</time>
      </trkpt>
      <trkpt lat="22.788965" lon="110.032793">
        <ele>141.017913</ele>
        <time>2026-08-16T02:17:50.000Z</time>
      </trkpt>
      <trkpt lat="22.789014" lon="110.032829">
        <ele>140.897819</ele>
        <time>2026-08-16T02:17:51.000Z</time>
      </trkpt>
      <trkpt lat="22.789068" lon="110.032864">
        <ele>140.770169</ele>
        <time>2026-08-16T02:17:52.000Z</time>
      </trkpt>
      <trkpt lat="22.789126" lon="110.032894">
        <ele>140.463514</ele>
        <time>2026-08-16T02:17:53.000Z</time>
      </trkpt>
      <trkpt lat="22.789188" lon="110.032919">
        <ele>140.111785</ele>
        <time>2026-08-16T02:17:54.000Z</time>
      </trkpt>
      <trkpt lat="22.789253" lon="110.032939">
        <ele>139.752511</ele>
        <time>2026-08-16T02:17:55.000Z</time>
      </trkpt>
      <trkpt lat="22.789317" lon="110.032959">
        <ele>139.398349</ele>
        <time>2026-08-16T02:17:56.000Z</time>
      </trkpt>
      <trkpt lat="22.789383" lon="110.032982">
        <ele>139.029727</ele>
        <time>2026-08-16T02:17:57.000Z</time>
      </trkpt>
      <trkpt lat="22.789450" lon="110.033006">
        <ele>138.654530</ele>
        <time>2026-08-16T02:17:58.000Z</time>
      </trkpt>
      <trkpt lat="22.789518" lon="110.033031">
        <ele>138.272734</ele>
        <time>2026-08-16T02:17:59.000Z</time>
      </trkpt>
      <trkpt lat="22.789588" lon="110.033056">
        <ele>137.880852</ele>
        <time>2026-08-16T02:18:00.000Z</time>
      </trkpt>
      <trkpt lat="22.789660" lon="110.033080">
        <ele>137.480322</ele>
        <time>2026-08-16T02:18:01.000Z</time>
      </trkpt>
      <trkpt lat="22.789733" lon="110.033101">
        <ele>137.078725</ele>
        <time>2026-08-16T02:18:02.000Z</time>
      </trkpt>
      <trkpt lat="22.789803" lon="110.033123">
        <ele>136.691191</ele>
        <time>2026-08-16T02:18:03.000Z</time>
      </trkpt>
      <trkpt lat="22.789871" lon="110.033146">
        <ele>136.312429</ele>
        <time>2026-08-16T02:18:04.000Z</time>
      </trkpt>
      <trkpt lat="22.789939" lon="110.033168">
        <ele>135.935098</ele>
        <time>2026-08-16T02:18:05.000Z</time>
      </trkpt>
      <trkpt lat="22.790006" lon="110.033190">
        <ele>135.562859</ele>
        <time>2026-08-16T02:18:06.000Z</time>
      </trkpt>
      <trkpt lat="22.790072" lon="110.033210">
        <ele>135.198467</ele>
        <time>2026-08-16T02:18:07.000Z</time>
      </trkpt>
      <trkpt lat="22.790138" lon="110.033230">
        <ele>134.834074</ele>
        <time>2026-08-16T02:18:08.000Z</time>
      </trkpt>
      <trkpt lat="22.790203" lon="110.033251">
        <ele>134.473431</ele>
        <time>2026-08-16T02:18:09.000Z</time>
      </trkpt>
      <trkpt lat="22.790271" lon="110.033275">
        <ele>134.093181</ele>
        <time>2026-08-16T02:18:10.000Z</time>
      </trkpt>
      <trkpt lat="22.790340" lon="110.033299">
        <ele>133.707871</ele>
        <time>2026-08-16T02:18:11.000Z</time>
      </trkpt>
      <trkpt lat="22.790411" lon="110.033324">
        <ele>133.310935</ele>
        <time>2026-08-16T02:18:12.000Z</time>
      </trkpt>
      <trkpt lat="22.790483" lon="110.033353">
        <ele>132.902532</ele>
        <time>2026-08-16T02:18:13.000Z</time>
      </trkpt>
      <trkpt lat="22.790553" lon="110.033384">
        <ele>132.500479</ele>
        <time>2026-08-16T02:18:14.000Z</time>
      </trkpt>
      <trkpt lat="22.790624" lon="110.033415">
        <ele>132.093498</ele>
        <time>2026-08-16T02:18:15.000Z</time>
      </trkpt>
      <trkpt lat="22.790696" lon="110.033450">
        <ele>131.673949</ele>
        <time>2026-08-16T02:18:16.000Z</time>
      </trkpt>
      <trkpt lat="22.790769" lon="110.033489">
        <ele>131.241242</ele>
        <time>2026-08-16T02:18:17.000Z</time>
      </trkpt>
      <trkpt lat="22.790840" lon="110.033533">
        <ele>130.947274</ele>
        <time>2026-08-16T02:18:18.000Z</time>
      </trkpt>
      <trkpt lat="22.790911" lon="110.033579">
        <ele>130.671434</ele>
        <time>2026-08-16T02:18:19.000Z</time>
      </trkpt>
      <trkpt lat="22.790981" lon="110.033625">
        <ele>130.398452</ele>
        <time>2026-08-16T02:18:20.000Z</time>
      </trkpt>
      <trkpt lat="22.791050" lon="110.033667">
        <ele>130.134550</ele>
        <time>2026-08-16T02:18:21.000Z</time>
      </trkpt>
      <trkpt lat="22.791110" lon="110.033708">
        <ele>129.898026</ele>
        <time>2026-08-16T02:18:22.000Z</time>
      </trkpt>
      <trkpt lat="22.791166" lon="110.033745">
        <ele>129.679321</ele>
        <time>2026-08-16T02:18:23.000Z</time>
      </trkpt>
      <trkpt lat="22.791215" lon="110.033778">
        <ele>129.486948</ele>
        <time>2026-08-16T02:18:24.000Z</time>
      </trkpt>
      <trkpt lat="22.791261" lon="110.033809">
        <ele>129.306320</ele>
        <time>2026-08-16T02:18:25.000Z</time>
      </trkpt>
      <trkpt lat="22.791299" lon="110.033837">
        <ele>129.153097</ele>
        <time>2026-08-16T02:18:26.000Z</time>
      </trkpt>
      <trkpt lat="22.791333" lon="110.033868">
        <ele>129.004953</ele>
        <time>2026-08-16T02:18:27.000Z</time>
      </trkpt>
      <trkpt lat="22.791367" lon="110.033905">
        <ele>128.844315</ele>
        <time>2026-08-16T02:18:28.000Z</time>
      </trkpt>
      <trkpt lat="22.791398" lon="110.033947">
        <ele>128.678875</ele>
        <time>2026-08-16T02:18:29.000Z</time>
      </trkpt>
      <trkpt lat="22.791429" lon="110.033995">
        <ele>128.498664</ele>
        <time>2026-08-16T02:18:30.000Z</time>
      </trkpt>
      <trkpt lat="22.791456" lon="110.034042">
        <ele>128.328380</ele>
        <time>2026-08-16T02:18:31.000Z</time>
      </trkpt>
      <trkpt lat="22.791482" lon="110.034092">
        <ele>128.151861</ele>
        <time>2026-08-16T02:18:32.000Z</time>
      </trkpt>
      <trkpt lat="22.791503" lon="110.034141">
        <ele>127.985704</ele>
        <time>2026-08-16T02:18:33.000Z</time>
      </trkpt>
      <trkpt lat="22.791523" lon="110.034187">
        <ele>127.829315</ele>
        <time>2026-08-16T02:18:34.000Z</time>
      </trkpt>
      <trkpt lat="22.791532" lon="110.034236">
        <ele>127.675681</ele>
        <time>2026-08-16T02:18:35.000Z</time>
      </trkpt>
      <trkpt lat="22.791536" lon="110.034281">
        <ele>127.536667</ele>
        <time>2026-08-16T02:18:36.000Z</time>
      </trkpt>
      <trkpt lat="22.791532" lon="110.034325">
        <ele>127.400712</ele>
        <time>2026-08-16T02:18:37.000Z</time>
      </trkpt>
      <trkpt lat="22.791517" lon="110.034363">
        <ele>127.273604</ele>
        <time>2026-08-16T02:18:38.000Z</time>
      </trkpt>
      <trkpt lat="22.791491" lon="110.034395">
        <ele>127.142445</ele>
        <time>2026-08-16T02:18:39.000Z</time>
      </trkpt>
      <trkpt lat="22.791460" lon="110.034427">
        <ele>126.999711</ele>
        <time>2026-08-16T02:18:40.000Z</time>
      </trkpt>
      <trkpt lat="22.791426" lon="110.034456">
        <ele>126.855446</ele>
        <time>2026-08-16T02:18:41.000Z</time>
      </trkpt>
      <trkpt lat="22.791393" lon="110.034489">
        <ele>126.705741</ele>
        <time>2026-08-16T02:18:42.000Z</time>
      </trkpt>
      <trkpt lat="22.791358" lon="110.034518">
        <ele>126.558840</ele>
        <time>2026-08-16T02:18:43.000Z</time>
      </trkpt>
      <trkpt lat="22.791328" lon="110.034550">
        <ele>126.418503</ele>
        <time>2026-08-16T02:18:44.000Z</time>
      </trkpt>
      <trkpt lat="22.791295" lon="110.034583">
        <ele>126.268797</ele>
        <time>2026-08-16T02:18:45.000Z</time>
      </trkpt>
      <trkpt lat="22.791263" lon="110.034615">
        <ele>126.123628</ele>
        <time>2026-08-16T02:18:46.000Z</time>
      </trkpt>
      <trkpt lat="22.791229" lon="110.034646">
        <ele>125.975483</ele>
        <time>2026-08-16T02:18:47.000Z</time>
      </trkpt>
      <trkpt lat="22.791193" lon="110.034678">
        <ele>125.820242</ele>
        <time>2026-08-16T02:18:48.000Z</time>
      </trkpt>
      <trkpt lat="22.791160" lon="110.034711">
        <ele>125.670536</ele>
        <time>2026-08-16T02:18:49.000Z</time>
      </trkpt>
      <trkpt lat="22.791126" lon="110.034747">
        <ele>125.512061</ele>
        <time>2026-08-16T02:18:50.000Z</time>
      </trkpt>
      <trkpt lat="22.791090" lon="110.034781">
        <ele>125.352850</ele>
        <time>2026-08-16T02:18:51.000Z</time>
      </trkpt>
      <trkpt lat="22.791053" lon="110.034815">
        <ele>125.191109</ele>
        <time>2026-08-16T02:18:52.000Z</time>
      </trkpt>
      <trkpt lat="22.791015" lon="110.034849">
        <ele>125.145568</ele>
        <time>2026-08-16T02:18:53.000Z</time>
      </trkpt>
      <trkpt lat="22.790979" lon="110.034884">
        <ele>125.105278</ele>
        <time>2026-08-16T02:18:54.000Z</time>
      </trkpt>
      <trkpt lat="22.790946" lon="110.034919">
        <ele>125.066813</ele>
        <time>2026-08-16T02:18:55.000Z</time>
      </trkpt>
      <trkpt lat="22.790913" lon="110.034955">
        <ele>125.027807</ele>
        <time>2026-08-16T02:18:56.000Z</time>
      </trkpt>
      <trkpt lat="22.790879" lon="110.034990">
        <ele>124.988742</ele>
        <time>2026-08-16T02:18:57.000Z</time>
      </trkpt>
      <trkpt lat="22.790843" lon="110.035023">
        <ele>124.949460</ele>
        <time>2026-08-16T02:18:58.000Z</time>
      </trkpt>
      <trkpt lat="22.790808" lon="110.035057">
        <ele>124.910303</ele>
        <time>2026-08-16T02:18:59.000Z</time>
      </trkpt>
      <trkpt lat="22.790772" lon="110.035089">
        <ele>124.871513</ele>
        <time>2026-08-16T02:19:00.000Z</time>
      </trkpt>
      <trkpt lat="22.790735" lon="110.035118">
        <ele>124.833470</ele>
        <time>2026-08-16T02:19:01.000Z</time>
      </trkpt>
      <trkpt lat="22.790698" lon="110.035148">
        <ele>124.794971</ele>
        <time>2026-08-16T02:19:02.000Z</time>
      </trkpt>
      <trkpt lat="22.790665" lon="110.035179">
        <ele>124.758588</ele>
        <time>2026-08-16T02:19:03.000Z</time>
      </trkpt>
      <trkpt lat="22.790632" lon="110.035210">
        <ele>124.722206</ele>
        <time>2026-08-16T02:19:04.000Z</time>
      </trkpt>
      <trkpt lat="22.790599" lon="110.035240">
        <ele>124.686321</ele>
        <time>2026-08-16T02:19:05.000Z</time>
      </trkpt>
      <trkpt lat="22.790564" lon="110.035271">
        <ele>124.648663</ele>
        <time>2026-08-16T02:19:06.000Z</time>
      </trkpt>
      <trkpt lat="22.790532" lon="110.035301">
        <ele>124.613413</ele>
        <time>2026-08-16T02:19:07.000Z</time>
      </trkpt>
      <trkpt lat="22.790507" lon="110.035323">
        <ele>124.586584</ele>
        <time>2026-08-16T02:19:08.000Z</time>
      </trkpt>
      <trkpt lat="22.790486" lon="110.035337">
        <ele>124.566041</ele>
        <time>2026-08-16T02:19:09.000Z</time>
      </trkpt>
      <trkpt lat="22.790467" lon="110.035338">
        <ele>124.550187</ele>
        <time>2026-08-16T02:19:10.000Z</time>
      </trkpt>
      <trkpt lat="22.790450" lon="110.035325">
        <ele>124.532853</ele>
        <time>2026-08-16T02:19:11.000Z</time>
      </trkpt>
      <trkpt lat="22.790442" lon="110.035310">
        <ele>124.519538</ele>
        <time>2026-08-16T02:19:12.000Z</time>
      </trkpt>
      <trkpt lat="22.790435" lon="110.035300">
        <ele>124.509891</ele>
        <time>2026-08-16T02:19:13.000Z</time>
      </trkpt>
      <trkpt lat="22.790434" lon="110.035296">
        <ele>124.506706</ele>
        <time>2026-08-16T02:19:14.000Z</time>
      </trkpt>
      <trkpt lat="22.790353" lon="110.035342">
        <ele>124.430508</ele>
        <time>2026-08-16T02:29:33.000Z</time>
      </trkpt>
      <trkpt lat="22.790363" lon="110.035356">
        <ele>124.416901</ele>
        <time>2026-08-16T02:29:34.000Z</time>
      </trkpt>
      <trkpt lat="22.790364" lon="110.035373">
        <ele>124.403812</ele>
        <time>2026-08-16T02:29:35.000Z</time>
      </trkpt>
      <trkpt lat="22.790359" lon="110.035391">
        <ele>124.389368</ele>
        <time>2026-08-16T02:29:36.000Z</time>
      </trkpt>
      <trkpt lat="22.790347" lon="110.035410">
        <ele>124.371673</ele>
        <time>2026-08-16T02:29:37.000Z</time>
      </trkpt>
      <trkpt lat="22.790337" lon="110.035428">
        <ele>124.355526</ele>
        <time>2026-08-16T02:29:38.000Z</time>
      </trkpt>
      <trkpt lat="22.790321" lon="110.035445">
        <ele>124.336860</ele>
        <time>2026-08-16T02:29:39.000Z</time>
      </trkpt>
      <trkpt lat="22.790302" lon="110.035465">
        <ele>124.314794</ele>
        <time>2026-08-16T02:29:40.000Z</time>
      </trkpt>
      <trkpt lat="22.790282" lon="110.035486">
        <ele>124.291596</ele>
        <time>2026-08-16T02:29:41.000Z</time>
      </trkpt>
      <trkpt lat="22.790259" lon="110.035508">
        <ele>124.266039</ele>
        <time>2026-08-16T02:29:42.000Z</time>
      </trkpt>
      <trkpt lat="22.790235" lon="110.035532">
        <ele>124.238834</ele>
        <time>2026-08-16T02:29:43.000Z</time>
      </trkpt>
      <trkpt lat="22.790210" lon="110.035556">
        <ele>124.211011</ele>
        <time>2026-08-16T02:29:44.000Z</time>
      </trkpt>
      <trkpt lat="22.790185" lon="110.035580">
        <ele>124.183188</ele>
        <time>2026-08-16T02:29:45.000Z</time>
      </trkpt>
      <trkpt lat="22.790157" lon="110.035606">
        <ele>124.152469</ele>
        <time>2026-08-16T02:29:46.000Z</time>
      </trkpt>
      <trkpt lat="22.790125" lon="110.035627">
        <ele>124.121299</ele>
        <time>2026-08-16T02:29:47.000Z</time>
      </trkpt>
      <trkpt lat="22.790098" lon="110.035652">
        <ele>124.091714</ele>
        <time>2026-08-16T02:29:48.000Z</time>
      </trkpt>
      <trkpt lat="22.790071" lon="110.035678">
        <ele>124.061624</ele>
        <time>2026-08-16T02:29:49.000Z</time>
      </trkpt>
      <trkpt lat="22.790043" lon="110.035706">
        <ele>124.029885</ele>
        <time>2026-08-16T02:29:50.000Z</time>
      </trkpt>
      <trkpt lat="22.790015" lon="110.035735">
        <ele>123.997620</ele>
        <time>2026-08-16T02:29:51.000Z</time>
      </trkpt>
      <trkpt lat="22.789988" lon="110.035763">
        <ele>123.966488</ele>
        <time>2026-08-16T02:29:52.000Z</time>
      </trkpt>
      <trkpt lat="22.789960" lon="110.035790">
        <ele>123.935265</ele>
        <time>2026-08-16T02:29:53.000Z</time>
      </trkpt>
      <trkpt lat="22.789930" lon="110.035818">
        <ele>123.902281</ele>
        <time>2026-08-16T02:29:54.000Z</time>
      </trkpt>
      <trkpt lat="22.789901" lon="110.035847">
        <ele>123.869409</ele>
        <time>2026-08-16T02:29:55.000Z</time>
      </trkpt>
      <trkpt lat="22.789872" lon="110.035878">
        <ele>123.835476</ele>
        <time>2026-08-16T02:29:56.000Z</time>
      </trkpt>
      <trkpt lat="22.789839" lon="110.035908">
        <ele>123.799591</ele>
        <time>2026-08-16T02:29:57.000Z</time>
      </trkpt>
      <trkpt lat="22.789806" lon="110.035937">
        <ele>123.764195</ele>
        <time>2026-08-16T02:29:58.000Z</time>
      </trkpt>
      <trkpt lat="22.789775" lon="110.035968">
        <ele>123.729056</ele>
        <time>2026-08-16T02:29:59.000Z</time>
      </trkpt>
      <trkpt lat="22.789745" lon="110.036001">
        <ele>123.693447</ele>
        <time>2026-08-16T02:30:00.000Z</time>
      </trkpt>
      <trkpt lat="22.789715" lon="110.036034">
        <ele>123.664763</ele>
        <time>2026-08-16T02:30:01.000Z</time>
      </trkpt>
      <trkpt lat="22.789688" lon="110.036067">
        <ele>123.639159</ele>
        <time>2026-08-16T02:30:02.000Z</time>
      </trkpt>
      <trkpt lat="22.789657" lon="110.036098">
        <ele>123.612620</ele>
        <time>2026-08-16T02:30:03.000Z</time>
      </trkpt>
      <trkpt lat="22.789624" lon="110.036127">
        <ele>123.585888</ele>
        <time>2026-08-16T02:30:04.000Z</time>
      </trkpt>
      <trkpt lat="22.789590" lon="110.036156">
        <ele>123.558663</ele>
        <time>2026-08-16T02:30:05.000Z</time>
      </trkpt>
      <trkpt lat="22.789556" lon="110.036186">
        <ele>123.531076</ele>
        <time>2026-08-16T02:30:06.000Z</time>
      </trkpt>
      <trkpt lat="22.789522" lon="110.036218">
        <ele>123.502742</ele>
        <time>2026-08-16T02:30:07.000Z</time>
      </trkpt>
      <trkpt lat="22.789489" lon="110.036251">
        <ele>123.474491</ele>
        <time>2026-08-16T02:30:08.000Z</time>
      </trkpt>
      <trkpt lat="22.789453" lon="110.036282">
        <ele>123.445559</ele>
        <time>2026-08-16T02:30:09.000Z</time>
      </trkpt>
      <trkpt lat="22.789417" lon="110.036313">
        <ele>123.416627</ele>
        <time>2026-08-16T02:30:10.000Z</time>
      </trkpt>
      <trkpt lat="22.789382" lon="110.036345">
        <ele>123.387815</ele>
        <time>2026-08-16T02:30:11.000Z</time>
      </trkpt>
      <trkpt lat="22.789348" lon="110.036378">
        <ele>123.359098</ele>
        <time>2026-08-16T02:30:12.000Z</time>
      </trkpt>
      <trkpt lat="22.789312" lon="110.036410">
        <ele>123.329802</ele>
        <time>2026-08-16T02:30:13.000Z</time>
      </trkpt>
      <trkpt lat="22.789274" lon="110.036441">
        <ele>123.299874</ele>
        <time>2026-08-16T02:30:14.000Z</time>
      </trkpt>
      <trkpt lat="22.789238" lon="110.036473">
        <ele>123.270577</ele>
        <time>2026-08-16T02:30:15.000Z</time>
      </trkpt>
      <trkpt lat="22.789201" lon="110.036505">
        <ele>123.240792</ele>
        <time>2026-08-16T02:30:16.000Z</time>
      </trkpt>
      <trkpt lat="22.789166" lon="110.036537">
        <ele>123.211980</ele>
        <time>2026-08-16T02:30:17.000Z</time>
      </trkpt>
      <trkpt lat="22.789132" lon="110.036567">
        <ele>123.184393</ele>
        <time>2026-08-16T02:30:18.000Z</time>
      </trkpt>
      <trkpt lat="22.789095" lon="110.036596">
        <ele>123.155660</ele>
        <time>2026-08-16T02:30:19.000Z</time>
      </trkpt>
      <trkpt lat="22.789055" lon="110.036626">
        <ele>123.125050</ele>
        <time>2026-08-16T02:30:20.000Z</time>
      </trkpt>
      <trkpt lat="22.789016" lon="110.036660">
        <ele>123.093557</ele>
        <time>2026-08-16T02:30:21.000Z</time>
      </trkpt>
      <trkpt lat="22.788978" lon="110.036693">
        <ele>123.062917</ele>
        <time>2026-08-16T02:30:22.000Z</time>
      </trkpt>
      <trkpt lat="22.788938" lon="110.036727">
        <ele>123.030930</ele>
        <time>2026-08-16T02:30:23.000Z</time>
      </trkpt>
      <trkpt lat="22.788899" lon="110.036762">
        <ele>122.999070</ele>
        <time>2026-08-16T02:30:24.000Z</time>
      </trkpt>
      <trkpt lat="22.788859" lon="110.036796">
        <ele>122.967083</ele>
        <time>2026-08-16T02:30:25.000Z</time>
      </trkpt>
      <trkpt lat="22.788818" lon="110.036827">
        <ele>122.935625</ele>
        <time>2026-08-16T02:30:26.000Z</time>
      </trkpt>
      <trkpt lat="22.788778" lon="110.036860">
        <ele>122.903993</ele>
        <time>2026-08-16T02:30:27.000Z</time>
      </trkpt>
      <trkpt lat="22.788737" lon="110.036894">
        <ele>122.871508</ele>
        <time>2026-08-16T02:30:28.000Z</time>
      </trkpt>
      <trkpt lat="22.788698" lon="110.036930">
        <ele>122.839275</ele>
        <time>2026-08-16T02:30:29.000Z</time>
      </trkpt>
      <trkpt lat="22.788659" lon="110.036969">
        <ele>122.805887</ele>
        <time>2026-08-16T02:30:30.000Z</time>
      </trkpt>
      <trkpt lat="22.788618" lon="110.037003">
        <ele>122.773402</ele>
        <time>2026-08-16T02:30:31.000Z</time>
      </trkpt>
      <trkpt lat="22.788576" lon="110.037038">
        <ele>122.740065</ele>
        <time>2026-08-16T02:30:32.000Z</time>
      </trkpt>
      <trkpt lat="22.788533" lon="110.037074">
        <ele>122.705875</ele>
        <time>2026-08-16T02:30:33.000Z</time>
      </trkpt>
      <trkpt lat="22.788492" lon="110.037110">
        <ele>122.672673</ele>
        <time>2026-08-16T02:30:34.000Z</time>
      </trkpt>
      <trkpt lat="22.788452" lon="110.037147">
        <ele>122.639584</ele>
        <time>2026-08-16T02:30:35.000Z</time>
      </trkpt>
      <trkpt lat="22.788412" lon="110.037187">
        <ele>122.605339</ele>
        <time>2026-08-16T02:30:36.000Z</time>
      </trkpt>
      <trkpt lat="22.788372" lon="110.037224">
        <ele>122.572250</ele>
        <time>2026-08-16T02:30:37.000Z</time>
      </trkpt>
      <trkpt lat="22.788334" lon="110.037261">
        <ele>122.604125</ele>
        <time>2026-08-16T02:30:38.000Z</time>
      </trkpt>
      <trkpt lat="22.788296" lon="110.037298">
        <ele>122.719924</ele>
        <time>2026-08-16T02:30:39.000Z</time>
      </trkpt>
      <trkpt lat="22.788257" lon="110.037336">
        <ele>122.838808</ele>
        <time>2026-08-16T02:30:40.000Z</time>
      </trkpt>
      <trkpt lat="22.788219" lon="110.037373">
        <ele>122.954608</ele>
        <time>2026-08-16T02:30:41.000Z</time>
      </trkpt>
      <trkpt lat="22.788181" lon="110.037410">
        <ele>123.070407</ele>
        <time>2026-08-16T02:30:42.000Z</time>
      </trkpt>
      <trkpt lat="22.788141" lon="110.037448">
        <ele>123.190987</ele>
        <time>2026-08-16T02:30:43.000Z</time>
      </trkpt>
      <trkpt lat="22.788102" lon="110.037487">
        <ele>123.311278</ele>
        <time>2026-08-16T02:30:44.000Z</time>
      </trkpt>
      <trkpt lat="22.788064" lon="110.037525">
        <ele>123.428484</ele>
        <time>2026-08-16T02:30:45.000Z</time>
      </trkpt>
      <trkpt lat="22.788026" lon="110.037561">
        <ele>123.542898</ele>
        <time>2026-08-16T02:30:46.000Z</time>
      </trkpt>
      <trkpt lat="22.787989" lon="110.037595">
        <ele>123.652865</ele>
        <time>2026-08-16T02:30:47.000Z</time>
      </trkpt>
      <trkpt lat="22.787955" lon="110.037632">
        <ele>123.762083</ele>
        <time>2026-08-16T02:30:48.000Z</time>
      </trkpt>
      <trkpt lat="22.787923" lon="110.037668">
        <ele>123.866633</ele>
        <time>2026-08-16T02:30:49.000Z</time>
      </trkpt>
      <trkpt lat="22.787890" lon="110.037702">
        <ele>123.969846</ele>
        <time>2026-08-16T02:30:50.000Z</time>
      </trkpt>
      <trkpt lat="22.787856" lon="110.037736">
        <ele>124.074715</ele>
        <time>2026-08-16T02:30:51.000Z</time>
      </trkpt>
      <trkpt lat="22.787825" lon="110.037772">
        <ele>124.177704</ele>
        <time>2026-08-16T02:30:52.000Z</time>
      </trkpt>
      <trkpt lat="22.787798" lon="110.037805">
        <ele>124.269947</ele>
        <time>2026-08-16T02:30:53.000Z</time>
      </trkpt>
      <trkpt lat="22.787773" lon="110.037835">
        <ele>124.354493</ele>
        <time>2026-08-16T02:30:54.000Z</time>
      </trkpt>
      <trkpt lat="22.787747" lon="110.037865">
        <ele>124.440575</ele>
        <time>2026-08-16T02:30:55.000Z</time>
      </trkpt>
      <trkpt lat="22.787722" lon="110.037897">
        <ele>124.528267</ele>
        <time>2026-08-16T02:30:56.000Z</time>
      </trkpt>
      <trkpt lat="22.787696" lon="110.037928">
        <ele>124.615885</ele>
        <time>2026-08-16T02:30:57.000Z</time>
      </trkpt>
      <trkpt lat="22.787672" lon="110.037959">
        <ele>124.700517</ele>
        <time>2026-08-16T02:30:58.000Z</time>
      </trkpt>
      <trkpt lat="22.787650" lon="110.037988">
        <ele>124.779034</ele>
        <time>2026-08-16T02:30:59.000Z</time>
      </trkpt>
      <trkpt lat="22.787628" lon="110.038018">
        <ele>124.859176</ele>
        <time>2026-08-16T02:31:00.000Z</time>
      </trkpt>
      <trkpt lat="22.787606" lon="110.038048">
        <ele>124.939319</ele>
        <time>2026-08-16T02:31:01.000Z</time>
      </trkpt>
      <trkpt lat="22.787586" lon="110.038078">
        <ele>125.016720</ele>
        <time>2026-08-16T02:31:02.000Z</time>
      </trkpt>
      <trkpt lat="22.787568" lon="110.038107">
        <ele>125.089810</ele>
        <time>2026-08-16T02:31:03.000Z</time>
      </trkpt>
      <trkpt lat="22.787547" lon="110.038133">
        <ele>125.162077</ele>
        <time>2026-08-16T02:31:04.000Z</time>
      </trkpt>
      <trkpt lat="22.787526" lon="110.038158">
        <ele>125.232786</ele>
        <time>2026-08-16T02:31:05.000Z</time>
      </trkpt>
      <trkpt lat="22.787504" lon="110.038180">
        <ele>125.300642</ele>
        <time>2026-08-16T02:31:06.000Z</time>
      </trkpt>
      <trkpt lat="22.787484" lon="110.038202">
        <ele>125.365238</ele>
        <time>2026-08-16T02:31:07.000Z</time>
      </trkpt>
      <trkpt lat="22.787465" lon="110.038222">
        <ele>125.425278</ele>
        <time>2026-08-16T02:31:08.000Z</time>
      </trkpt>
      <trkpt lat="22.787449" lon="110.038241">
        <ele>125.479077</ele>
        <time>2026-08-16T02:31:09.000Z</time>
      </trkpt>
      <trkpt lat="22.787434" lon="110.038260">
        <ele>125.531374</ele>
        <time>2026-08-16T02:31:10.000Z</time>
      </trkpt>
      <trkpt lat="22.787418" lon="110.038280">
        <ele>125.586736</ele>
        <time>2026-08-16T02:31:11.000Z</time>
      </trkpt>
      <trkpt lat="22.787402" lon="110.038302">
        <ele>125.645319</ele>
        <time>2026-08-16T02:31:12.000Z</time>
      </trkpt>
      <trkpt lat="22.787385" lon="110.038323">
        <ele>125.703747</ele>
        <time>2026-08-16T02:31:13.000Z</time>
      </trkpt>
      <trkpt lat="22.787368" lon="110.038345">
        <ele>125.763761</ele>
        <time>2026-08-16T02:31:14.000Z</time>
      </trkpt>
      <trkpt lat="22.787349" lon="110.038366">
        <ele>125.825276</ele>
        <time>2026-08-16T02:31:15.000Z</time>
      </trkpt>
      <trkpt lat="22.787332" lon="110.038387">
        <ele>125.883703</ele>
        <time>2026-08-16T02:31:16.000Z</time>
      </trkpt>
      <trkpt lat="22.787315" lon="110.038408">
        <ele>125.942131</ele>
        <time>2026-08-16T02:31:17.000Z</time>
      </trkpt>
      <trkpt lat="22.787298" lon="110.038429">
        <ele>126.000559</ele>
        <time>2026-08-16T02:31:18.000Z</time>
      </trkpt>
      <trkpt lat="22.787281" lon="110.038450">
        <ele>126.058986</ele>
        <time>2026-08-16T02:31:19.000Z</time>
      </trkpt>
      <trkpt lat="22.787262" lon="110.038471">
        <ele>126.120501</ele>
        <time>2026-08-16T02:31:20.000Z</time>
      </trkpt>
      <trkpt lat="22.787244" lon="110.038491">
        <ele>126.178935</ele>
        <time>2026-08-16T02:31:21.000Z</time>
      </trkpt>
      <trkpt lat="22.787226" lon="110.038512">
        <ele>126.238883</ele>
        <time>2026-08-16T02:31:22.000Z</time>
      </trkpt>
      <trkpt lat="22.787207" lon="110.038533">
        <ele>126.300398</ele>
        <time>2026-08-16T02:31:23.000Z</time>
      </trkpt>
      <trkpt lat="22.787189" lon="110.038553">
        <ele>126.358832</ele>
        <time>2026-08-16T02:31:24.000Z</time>
      </trkpt>
      <trkpt lat="22.787170" lon="110.038573">
        <ele>126.418872</ele>
        <time>2026-08-16T02:31:25.000Z</time>
      </trkpt>
      <trkpt lat="22.787151" lon="110.038592">
        <ele>126.477475</ele>
        <time>2026-08-16T02:31:26.000Z</time>
      </trkpt>
      <trkpt lat="22.787133" lon="110.038610">
        <ele>126.532994</ele>
        <time>2026-08-16T02:31:27.000Z</time>
      </trkpt>
      <trkpt lat="22.787115" lon="110.038630">
        <ele>126.591429</ele>
        <time>2026-08-16T02:31:28.000Z</time>
      </trkpt>
      <trkpt lat="22.787098" lon="110.038651">
        <ele>126.664351</ele>
        <time>2026-08-16T02:31:29.000Z</time>
      </trkpt>
      <trkpt lat="22.787080" lon="110.038672">
        <ele>126.775212</ele>
        <time>2026-08-16T02:31:30.000Z</time>
      </trkpt>
      <trkpt lat="22.787062" lon="110.038693">
        <ele>126.886073</ele>
        <time>2026-08-16T02:31:31.000Z</time>
      </trkpt>
      <trkpt lat="22.787045" lon="110.038712">
        <ele>126.988439</ele>
        <time>2026-08-16T02:31:32.000Z</time>
      </trkpt>
      <trkpt lat="22.787027" lon="110.038731">
        <ele>127.093769</ele>
        <time>2026-08-16T02:31:33.000Z</time>
      </trkpt>
      <trkpt lat="22.787010" lon="110.038751">
        <ele>127.198944</ele>
        <time>2026-08-16T02:31:34.000Z</time>
      </trkpt>
      <trkpt lat="22.786991" lon="110.038771">
        <ele>127.309975</ele>
        <time>2026-08-16T02:31:35.000Z</time>
      </trkpt>
      <trkpt lat="22.786972" lon="110.038789">
        <ele>127.415767</ele>
        <time>2026-08-16T02:31:36.000Z</time>
      </trkpt>
      <trkpt lat="22.786953" lon="110.038807">
        <ele>127.521559</ele>
        <time>2026-08-16T02:31:37.000Z</time>
      </trkpt>
      <trkpt lat="22.786933" lon="110.038825">
        <ele>127.630544</ele>
        <time>2026-08-16T02:31:38.000Z</time>
      </trkpt>
      <trkpt lat="22.786914" lon="110.038845">
        <ele>127.741576</ele>
        <time>2026-08-16T02:31:39.000Z</time>
      </trkpt>
      <trkpt lat="22.786893" lon="110.038865">
        <ele>127.858772</ele>
        <time>2026-08-16T02:31:40.000Z</time>
      </trkpt>
      <trkpt lat="22.786874" lon="110.038885">
        <ele>127.969803</ele>
        <time>2026-08-16T02:31:41.000Z</time>
      </trkpt>
      <trkpt lat="22.786855" lon="110.038907">
        <ele>128.086352</ele>
        <time>2026-08-16T02:31:42.000Z</time>
      </trkpt>
      <trkpt lat="22.786836" lon="110.038926">
        <ele>128.194727</ele>
        <time>2026-08-16T02:31:43.000Z</time>
      </trkpt>
      <trkpt lat="22.786816" lon="110.038943">
        <ele>128.301285</ele>
        <time>2026-08-16T02:31:44.000Z</time>
      </trkpt>
      <trkpt lat="22.786795" lon="110.038961">
        <ele>128.413529</ele>
        <time>2026-08-16T02:31:45.000Z</time>
      </trkpt>
      <trkpt lat="22.786774" lon="110.038979">
        <ele>128.525774</ele>
        <time>2026-08-16T02:31:46.000Z</time>
      </trkpt>
      <trkpt lat="22.786756" lon="110.039000">
        <ele>128.636635</ele>
        <time>2026-08-16T02:31:47.000Z</time>
      </trkpt>
      <trkpt lat="22.786736" lon="110.039020">
        <ele>128.750714</ele>
        <time>2026-08-16T02:31:48.000Z</time>
      </trkpt>
      <trkpt lat="22.786717" lon="110.039039">
        <ele>128.859088</ele>
        <time>2026-08-16T02:31:49.000Z</time>
      </trkpt>
      <trkpt lat="22.786693" lon="110.039056">
        <ele>128.979296</ele>
        <time>2026-08-16T02:31:50.000Z</time>
      </trkpt>
      <trkpt lat="22.786672" lon="110.039074">
        <ele>129.091540</ele>
        <time>2026-08-16T02:31:51.000Z</time>
      </trkpt>
      <trkpt lat="22.786649" lon="110.039093">
        <ele>129.212782</ele>
        <time>2026-08-16T02:31:52.000Z</time>
      </trkpt>
      <trkpt lat="22.786625" lon="110.039109">
        <ele>129.330920</ele>
        <time>2026-08-16T02:31:53.000Z</time>
      </trkpt>
      <trkpt lat="22.786605" lon="110.039124">
        <ele>129.432890</ele>
        <time>2026-08-16T02:31:54.000Z</time>
      </trkpt>
      <trkpt lat="22.786587" lon="110.039143">
        <ele>129.538220</ele>
        <time>2026-08-16T02:31:55.000Z</time>
      </trkpt>
      <trkpt lat="22.786570" lon="110.039163">
        <ele>129.643395</ele>
        <time>2026-08-16T02:31:56.000Z</time>
      </trkpt>
      <trkpt lat="22.786551" lon="110.039184">
        <ele>129.757153</ele>
        <time>2026-08-16T02:31:57.000Z</time>
      </trkpt>
      <trkpt lat="22.786531" lon="110.039205">
        <ele>129.873887</ele>
        <time>2026-08-16T02:31:58.000Z</time>
      </trkpt>
      <trkpt lat="22.786511" lon="110.039224">
        <ele>129.985381</ele>
        <time>2026-08-16T02:31:59.000Z</time>
      </trkpt>
      <trkpt lat="22.786492" lon="110.039243">
        <ele>130.093755</ele>
        <time>2026-08-16T02:32:00.000Z</time>
      </trkpt>
      <trkpt lat="22.786472" lon="110.039262">
        <ele>130.205249</ele>
        <time>2026-08-16T02:32:01.000Z</time>
      </trkpt>
      <trkpt lat="22.786454" lon="110.039280">
        <ele>130.307920</ele>
        <time>2026-08-16T02:32:02.000Z</time>
      </trkpt>
      <trkpt lat="22.786438" lon="110.039300">
        <ele>130.410299</ele>
        <time>2026-08-16T02:32:03.000Z</time>
      </trkpt>
      <trkpt lat="22.786421" lon="110.039322">
        <ele>130.521283</ele>
        <time>2026-08-16T02:32:04.000Z</time>
      </trkpt>
      <trkpt lat="22.786406" lon="110.039344">
        <ele>130.627075</ele>
        <time>2026-08-16T02:32:05.000Z</time>
      </trkpt>
      <trkpt lat="22.786390" lon="110.039365">
        <ele>130.732405</ele>
        <time>2026-08-16T02:32:06.000Z</time>
      </trkpt>
      <trkpt lat="22.786375" lon="110.039388">
        <ele>130.841330</ele>
        <time>2026-08-16T02:32:07.000Z</time>
      </trkpt>
      <trkpt lat="22.786362" lon="110.039415">
        <ele>130.959099</ele>
        <time>2026-08-16T02:32:08.000Z</time>
      </trkpt>
      <trkpt lat="22.786349" lon="110.039442">
        <ele>131.076868</ele>
        <time>2026-08-16T02:32:09.000Z</time>
      </trkpt>
      <trkpt lat="22.786336" lon="110.039468">
        <ele>131.191224</ele>
        <time>2026-08-16T02:32:10.000Z</time>
      </trkpt>
      <trkpt lat="22.786323" lon="110.039496">
        <ele>131.312433</ele>
        <time>2026-08-16T02:32:11.000Z</time>
      </trkpt>
      <trkpt lat="22.786306" lon="110.039523">
        <ele>131.438844</ele>
        <time>2026-08-16T02:32:12.000Z</time>
      </trkpt>
      <trkpt lat="22.786292" lon="110.039548">
        <ele>131.551936</ele>
        <time>2026-08-16T02:32:13.000Z</time>
      </trkpt>
      <trkpt lat="22.786278" lon="110.039574">
        <ele>131.668349</ele>
        <time>2026-08-16T02:32:14.000Z</time>
      </trkpt>
      <trkpt lat="22.786264" lon="110.039598">
        <ele>131.778155</ele>
        <time>2026-08-16T02:32:15.000Z</time>
      </trkpt>
      <trkpt lat="22.786251" lon="110.039621">
        <ele>131.882461</ele>
        <time>2026-08-16T02:32:16.000Z</time>
      </trkpt>
      <trkpt lat="22.786242" lon="110.039646">
        <ele>131.986227</ele>
        <time>2026-08-16T02:32:17.000Z</time>
      </trkpt>
      <trkpt lat="22.786232" lon="110.039669">
        <ele>132.084544</ele>
        <time>2026-08-16T02:32:18.000Z</time>
      </trkpt>
      <trkpt lat="22.786222" lon="110.039695">
        <ele>132.193466</ele>
        <time>2026-08-16T02:32:19.000Z</time>
      </trkpt>
      <trkpt lat="22.786212" lon="110.039723">
        <ele>132.309561</ele>
        <time>2026-08-16T02:32:20.000Z</time>
      </trkpt>
      <trkpt lat="22.786203" lon="110.039752">
        <ele>132.427867</ele>
        <time>2026-08-16T02:32:21.000Z</time>
      </trkpt>
      <trkpt lat="22.786196" lon="110.039788">
        <ele>132.570116</ele>
        <time>2026-08-16T02:32:22.000Z</time>
      </trkpt>
      <trkpt lat="22.786189" lon="110.039820">
        <ele>132.697274</ele>
        <time>2026-08-16T02:32:23.000Z</time>
      </trkpt>
      <trkpt lat="22.786182" lon="110.039850">
        <ele>132.816920</ele>
        <time>2026-08-16T02:32:24.000Z</time>
      </trkpt>
      <trkpt lat="22.786174" lon="110.039880">
        <ele>132.937665</ele>
        <time>2026-08-16T02:32:25.000Z</time>
      </trkpt>
      <trkpt lat="22.786165" lon="110.039908">
        <ele>133.052312</ele>
        <time>2026-08-16T02:32:26.000Z</time>
      </trkpt>
      <trkpt lat="22.786157" lon="110.039933">
        <ele>133.154627</ele>
        <time>2026-08-16T02:32:27.000Z</time>
      </trkpt>
      <trkpt lat="22.786152" lon="110.039954">
        <ele>133.238484</ele>
        <time>2026-08-16T02:32:28.000Z</time>
      </trkpt>
      <trkpt lat="22.786148" lon="110.039977">
        <ele>133.328978</ele>
        <time>2026-08-16T02:32:29.000Z</time>
      </trkpt>
      <trkpt lat="22.786144" lon="110.040006">
        <ele>133.442349</ele>
        <time>2026-08-16T02:32:30.000Z</time>
      </trkpt>
      <trkpt lat="22.786140" lon="110.040033">
        <ele>133.548079</ele>
        <time>2026-08-16T02:32:31.000Z</time>
      </trkpt>
      <trkpt lat="22.786135" lon="110.040059">
        <ele>133.650767</ele>
        <time>2026-08-16T02:32:32.000Z</time>
      </trkpt>
      <trkpt lat="22.786130" lon="110.040085">
        <ele>133.753455</ele>
        <time>2026-08-16T02:32:33.000Z</time>
      </trkpt>
      <trkpt lat="22.786124" lon="110.040111">
        <ele>133.857081</ele>
        <time>2026-08-16T02:32:34.000Z</time>
      </trkpt>
      <trkpt lat="22.786116" lon="110.040134">
        <ele>133.952124</ele>
        <time>2026-08-16T02:32:35.000Z</time>
      </trkpt>
      <trkpt lat="22.786107" lon="110.040156">
        <ele>134.045181</ele>
        <time>2026-08-16T02:32:36.000Z</time>
      </trkpt>
      <trkpt lat="22.786096" lon="110.040182">
        <ele>134.155785</ele>
        <time>2026-08-16T02:32:37.000Z</time>
      </trkpt>
      <trkpt lat="22.786087" lon="110.040209">
        <ele>134.230323</ele>
        <time>2026-08-16T02:32:38.000Z</time>
      </trkpt>
      <trkpt lat="22.786078" lon="110.040235">
        <ele>134.294761</ele>
        <time>2026-08-16T02:32:39.000Z</time>
      </trkpt>
      <trkpt lat="22.786069" lon="110.040264">
        <ele>134.365759</ele>
        <time>2026-08-16T02:32:40.000Z</time>
      </trkpt>
      <trkpt lat="22.786059" lon="110.040293">
        <ele>134.437599</ele>
        <time>2026-08-16T02:32:41.000Z</time>
      </trkpt>
      <trkpt lat="22.786050" lon="110.040318">
        <ele>134.499870</ele>
        <time>2026-08-16T02:32:42.000Z</time>
      </trkpt>
      <trkpt lat="22.786044" lon="110.040347">
        <ele>134.568831</ele>
        <time>2026-08-16T02:32:43.000Z</time>
      </trkpt>
      <trkpt lat="22.786039" lon="110.040379">
        <ele>134.644138</ele>
        <time>2026-08-16T02:32:44.000Z</time>
      </trkpt>
      <trkpt lat="22.786031" lon="110.040409">
        <ele>134.716599</ele>
        <time>2026-08-16T02:32:45.000Z</time>
      </trkpt>
      <trkpt lat="22.786022" lon="110.040437">
        <ele>134.785402</ele>
        <time>2026-08-16T02:32:46.000Z</time>
      </trkpt>
      <trkpt lat="22.786016" lon="110.040466">
        <ele>134.854363</ele>
        <time>2026-08-16T02:32:47.000Z</time>
      </trkpt>
      <trkpt lat="22.786007" lon="110.040492">
        <ele>134.918801</ele>
        <time>2026-08-16T02:32:48.000Z</time>
      </trkpt>
      <trkpt lat="22.785999" lon="110.040518">
        <ele>134.982399</ele>
        <time>2026-08-16T02:32:49.000Z</time>
      </trkpt>
      <trkpt lat="22.785992" lon="110.040545">
        <ele>135.047476</ele>
        <time>2026-08-16T02:32:50.000Z</time>
      </trkpt>
      <trkpt lat="22.785987" lon="110.040570">
        <ele>135.106832</ele>
        <time>2026-08-16T02:32:51.000Z</time>
      </trkpt>
      <trkpt lat="22.785981" lon="110.040597">
        <ele>135.171273</ele>
        <time>2026-08-16T02:32:52.000Z</time>
      </trkpt>
      <trkpt lat="22.785974" lon="110.040623">
        <ele>135.234119</ele>
        <time>2026-08-16T02:32:53.000Z</time>
      </trkpt>
      <trkpt lat="22.785968" lon="110.040648">
        <ele>135.294059</ele>
        <time>2026-08-16T02:32:54.000Z</time>
      </trkpt>
      <trkpt lat="22.785962" lon="110.040673">
        <ele>135.353998</ele>
        <time>2026-08-16T02:32:55.000Z</time>
      </trkpt>
      <trkpt lat="22.785954" lon="110.040701">
        <ele>135.422014</ele>
        <time>2026-08-16T02:32:56.000Z</time>
      </trkpt>
      <trkpt lat="22.785945" lon="110.040727">
        <ele>135.486453</ele>
        <time>2026-08-16T02:32:57.000Z</time>
      </trkpt>
      <trkpt lat="22.785944" lon="110.040745">
        <ele>135.528293</ele>
        <time>2026-08-16T02:32:58.000Z</time>
      </trkpt>
      <trkpt lat="22.785948" lon="110.040762">
        <ele>135.569002</ele>
        <time>2026-08-16T02:32:59.000Z</time>
      </trkpt>
      <trkpt lat="22.785946" lon="110.040788">
        <ele>135.629538</ele>
        <time>2026-08-16T02:33:00.000Z</time>
      </trkpt>
      <trkpt lat="22.785944" lon="110.040814">
        <ele>135.690075</ele>
        <time>2026-08-16T02:33:01.000Z</time>
      </trkpt>
      <trkpt lat="22.785943" lon="110.040843">
        <ele>135.757409</ele>
        <time>2026-08-16T02:33:02.000Z</time>
      </trkpt>
      <trkpt lat="22.785942" lon="110.040874">
        <ele>135.829381</ele>
        <time>2026-08-16T02:33:03.000Z</time>
      </trkpt>
      <trkpt lat="22.785937" lon="110.040904">
        <ele>135.900117</ele>
        <time>2026-08-16T02:33:04.000Z</time>
      </trkpt>
      <trkpt lat="22.785931" lon="110.040935">
        <ele>135.973613</ele>
        <time>2026-08-16T02:33:05.000Z</time>
      </trkpt>
      <trkpt lat="22.785923" lon="110.040965">
        <ele>136.046074</ele>
        <time>2026-08-16T02:33:06.000Z</time>
      </trkpt>
      <trkpt lat="22.785909" lon="110.040996">
        <ele>136.126168</ele>
        <time>2026-08-16T02:33:07.000Z</time>
      </trkpt>
      <trkpt lat="22.785899" lon="110.041027">
        <ele>136.202372</ele>
        <time>2026-08-16T02:33:08.000Z</time>
      </trkpt>
      <trkpt lat="22.785888" lon="110.041058">
        <ele>136.279443</ele>
        <time>2026-08-16T02:33:09.000Z</time>
      </trkpt>
      <trkpt lat="22.785871" lon="110.041082">
        <ele>136.349667</ele>
        <time>2026-08-16T02:33:10.000Z</time>
      </trkpt>
      <trkpt lat="22.785858" lon="110.041109">
        <ele>136.420343</ele>
        <time>2026-08-16T02:33:11.000Z</time>
      </trkpt>
      <trkpt lat="22.785848" lon="110.041139">
        <ele>136.494360</ele>
        <time>2026-08-16T02:33:12.000Z</time>
      </trkpt>
      <trkpt lat="22.785839" lon="110.041169">
        <ele>136.567561</ele>
        <time>2026-08-16T02:33:13.000Z</time>
      </trkpt>
      <trkpt lat="22.785828" lon="110.041199">
        <ele>136.642471</ele>
        <time>2026-08-16T02:33:14.000Z</time>
      </trkpt>
      <trkpt lat="22.785817" lon="110.041229">
        <ele>136.717382</ele>
        <time>2026-08-16T02:33:15.000Z</time>
      </trkpt>
      <trkpt lat="22.785807" lon="110.041259">
        <ele>136.791400</ele>
        <time>2026-08-16T02:33:16.000Z</time>
      </trkpt>
      <trkpt lat="22.785794" lon="110.041290">
        <ele>136.870419</ele>
        <time>2026-08-16T02:33:17.000Z</time>
      </trkpt>
      <trkpt lat="22.785781" lon="110.041318">
        <ele>136.943159</ele>
        <time>2026-08-16T02:33:18.000Z</time>
      </trkpt>
      <trkpt lat="22.785767" lon="110.041348">
        <ele>137.021176</ele>
        <time>2026-08-16T02:33:19.000Z</time>
      </trkpt>
      <trkpt lat="22.785755" lon="110.041382">
        <ele>137.105648</ele>
        <time>2026-08-16T02:33:20.000Z</time>
      </trkpt>
      <trkpt lat="22.785744" lon="110.041415">
        <ele>137.187068</ele>
        <time>2026-08-16T02:33:21.000Z</time>
      </trkpt>
      <trkpt lat="22.785732" lon="110.041447">
        <ele>137.267223</ele>
        <time>2026-08-16T02:33:22.000Z</time>
      </trkpt>
      <trkpt lat="22.785718" lon="110.041478">
        <ele>137.347317</ele>
        <time>2026-08-16T02:33:23.000Z</time>
      </trkpt>
      <trkpt lat="22.785706" lon="110.041510">
        <ele>137.427472</ele>
        <time>2026-08-16T02:33:24.000Z</time>
      </trkpt>
      <trkpt lat="22.785692" lon="110.041540">
        <ele>137.505489</ele>
        <time>2026-08-16T02:33:25.000Z</time>
      </trkpt>
      <trkpt lat="22.785677" lon="110.041572">
        <ele>137.588783</ele>
        <time>2026-08-16T02:33:26.000Z</time>
      </trkpt>
      <trkpt lat="22.785661" lon="110.041604">
        <ele>137.673248</ele>
        <time>2026-08-16T02:33:27.000Z</time>
      </trkpt>
      <trkpt lat="22.785646" lon="110.041636">
        <ele>137.756542</ele>
        <time>2026-08-16T02:33:28.000Z</time>
      </trkpt>
      <trkpt lat="22.785630" lon="110.041667">
        <ele>137.838974</ele>
        <time>2026-08-16T02:33:29.000Z</time>
      </trkpt>
      <trkpt lat="22.785613" lon="110.041696">
        <ele>137.918712</ele>
        <time>2026-08-16T02:33:30.000Z</time>
      </trkpt>
      <trkpt lat="22.785598" lon="110.041727">
        <ele>137.999944</ele>
        <time>2026-08-16T02:33:31.000Z</time>
      </trkpt>
      <trkpt lat="22.785582" lon="110.041759">
        <ele>138.084409</ele>
        <time>2026-08-16T02:33:32.000Z</time>
      </trkpt>
      <trkpt lat="22.785566" lon="110.041791">
        <ele>138.168873</ele>
        <time>2026-08-16T02:33:33.000Z</time>
      </trkpt>
      <trkpt lat="22.785551" lon="110.041827">
        <ele>138.260537</ele>
        <time>2026-08-16T02:33:34.000Z</time>
      </trkpt>
      <trkpt lat="22.785535" lon="110.041861">
        <ele>138.349108</ele>
        <time>2026-08-16T02:33:35.000Z</time>
      </trkpt>
      <trkpt lat="22.785518" lon="110.041897">
        <ele>138.442957</ele>
        <time>2026-08-16T02:33:36.000Z</time>
      </trkpt>
      <trkpt lat="22.785500" lon="110.041934">
        <ele>138.540026</ele>
        <time>2026-08-16T02:33:37.000Z</time>
      </trkpt>
      <trkpt lat="22.785483" lon="110.041974">
        <ele>138.642223</ele>
        <time>2026-08-16T02:33:38.000Z</time>
      </trkpt>
      <trkpt lat="22.785467" lon="110.042017">
        <ele>138.668356</ele>
        <time>2026-08-16T02:33:39.000Z</time>
      </trkpt>
      <trkpt lat="22.785452" lon="110.042061">
        <ele>138.591064</ele>
        <time>2026-08-16T02:33:40.000Z</time>
      </trkpt>
      <trkpt lat="22.785437" lon="110.042107">
        <ele>138.510672</ele>
        <time>2026-08-16T02:33:41.000Z</time>
      </trkpt>
      <trkpt lat="22.785421" lon="110.042153">
        <ele>138.429668</ele>
        <time>2026-08-16T02:33:42.000Z</time>
      </trkpt>
      <trkpt lat="22.785405" lon="110.042204">
        <ele>138.340907</ele>
        <time>2026-08-16T02:33:43.000Z</time>
      </trkpt>
      <trkpt lat="22.785389" lon="110.042255">
        <ele>138.252147</ele>
        <time>2026-08-16T02:33:44.000Z</time>
      </trkpt>
      <trkpt lat="22.785371" lon="110.042309">
        <ele>138.157539</ele>
        <time>2026-08-16T02:33:45.000Z</time>
      </trkpt>
      <trkpt lat="22.785353" lon="110.042364">
        <ele>138.061380</ele>
        <time>2026-08-16T02:33:46.000Z</time>
      </trkpt>
      <trkpt lat="22.785336" lon="110.042420">
        <ele>137.964241</ele>
        <time>2026-08-16T02:33:47.000Z</time>
      </trkpt>
      <trkpt lat="22.785321" lon="110.042478">
        <ele>137.864990</ele>
        <time>2026-08-16T02:33:48.000Z</time>
      </trkpt>
      <trkpt lat="22.785305" lon="110.042538">
        <ele>137.762081</ele>
        <time>2026-08-16T02:33:49.000Z</time>
      </trkpt>
      <trkpt lat="22.785291" lon="110.042599">
        <ele>137.658509</ele>
        <time>2026-08-16T02:33:50.000Z</time>
      </trkpt>
      <trkpt lat="22.785277" lon="110.042661">
        <ele>137.553337</ele>
        <time>2026-08-16T02:33:51.000Z</time>
      </trkpt>
      <trkpt lat="22.785261" lon="110.042725">
        <ele>137.444081</ele>
        <time>2026-08-16T02:33:52.000Z</time>
      </trkpt>
      <trkpt lat="22.785246" lon="110.042788">
        <ele>137.336876</ele>
        <time>2026-08-16T02:33:53.000Z</time>
      </trkpt>
      <trkpt lat="22.785230" lon="110.042850">
        <ele>137.230797</ele>
        <time>2026-08-16T02:33:54.000Z</time>
      </trkpt>
      <trkpt lat="22.785210" lon="110.042916">
        <ele>137.116331</ele>
        <time>2026-08-16T02:33:55.000Z</time>
      </trkpt>
      <trkpt lat="22.785188" lon="110.042982">
        <ele>137.000699</ele>
        <time>2026-08-16T02:33:56.000Z</time>
      </trkpt>
      <trkpt lat="22.785163" lon="110.043050">
        <ele>136.880081</ele>
        <time>2026-08-16T02:33:57.000Z</time>
      </trkpt>
      <trkpt lat="22.785137" lon="110.043118">
        <ele>136.758790</ele>
        <time>2026-08-16T02:33:58.000Z</time>
      </trkpt>
      <trkpt lat="22.785108" lon="110.043183">
        <ele>136.639814</ele>
        <time>2026-08-16T02:33:59.000Z</time>
      </trkpt>
      <trkpt lat="22.785076" lon="110.043250">
        <ele>136.515490</ele>
        <time>2026-08-16T02:34:00.000Z</time>
      </trkpt>
      <trkpt lat="22.785041" lon="110.043311">
        <ele>136.397112</ele>
        <time>2026-08-16T02:34:01.000Z</time>
      </trkpt>
      <trkpt lat="22.785003" lon="110.043368">
        <ele>136.281217</ele>
        <time>2026-08-16T02:34:02.000Z</time>
      </trkpt>
      <trkpt lat="22.784964" lon="110.043425">
        <ele>136.164266</ele>
        <time>2026-08-16T02:34:03.000Z</time>
      </trkpt>
      <trkpt lat="22.784923" lon="110.043481">
        <ele>136.046446</ele>
        <time>2026-08-16T02:34:04.000Z</time>
      </trkpt>
      <trkpt lat="22.784881" lon="110.043536">
        <ele>135.928779</ele>
        <time>2026-08-16T02:34:05.000Z</time>
      </trkpt>
      <trkpt lat="22.784839" lon="110.043588">
        <ele>135.814875</ele>
        <time>2026-08-16T02:34:06.000Z</time>
      </trkpt>
      <trkpt lat="22.784798" lon="110.043641">
        <ele>135.700884</ele>
        <time>2026-08-16T02:34:07.000Z</time>
      </trkpt>
      <trkpt lat="22.784760" lon="110.043694">
        <ele>135.590262</ele>
        <time>2026-08-16T02:34:08.000Z</time>
      </trkpt>
      <trkpt lat="22.784724" lon="110.043747">
        <ele>135.483925</ele>
        <time>2026-08-16T02:34:09.000Z</time>
      </trkpt>
      <trkpt lat="22.784691" lon="110.043803">
        <ele>135.412833</ele>
        <time>2026-08-16T02:34:10.000Z</time>
      </trkpt>
      <trkpt lat="22.784661" lon="110.043860">
        <ele>135.342625</ele>
        <time>2026-08-16T02:34:11.000Z</time>
      </trkpt>
      <trkpt lat="22.784635" lon="110.043918">
        <ele>135.273639</ele>
        <time>2026-08-16T02:34:12.000Z</time>
      </trkpt>
      <trkpt lat="22.784614" lon="110.043978">
        <ele>135.204989</ele>
        <time>2026-08-16T02:34:13.000Z</time>
      </trkpt>
      <trkpt lat="22.784596" lon="110.044040">
        <ele>135.135459</ele>
        <time>2026-08-16T02:34:14.000Z</time>
      </trkpt>
      <trkpt lat="22.784582" lon="110.044101">
        <ele>135.068217</ele>
        <time>2026-08-16T02:34:15.000Z</time>
      </trkpt>
      <trkpt lat="22.784573" lon="110.044165">
        <ele>134.998966</ele>
        <time>2026-08-16T02:34:16.000Z</time>
      </trkpt>
      <trkpt lat="22.784569" lon="110.044228">
        <ele>134.931416</ele>
        <time>2026-08-16T02:34:17.000Z</time>
      </trkpt>
      <trkpt lat="22.784569" lon="110.044290">
        <ele>134.865096</ele>
        <time>2026-08-16T02:34:18.000Z</time>
      </trkpt>
      <trkpt lat="22.784572" lon="110.044353">
        <ele>134.797616</ele>
        <time>2026-08-16T02:34:19.000Z</time>
      </trkpt>
      <trkpt lat="22.784577" lon="110.044417">
        <ele>134.728911</ele>
        <time>2026-08-16T02:34:20.000Z</time>
      </trkpt>
      <trkpt lat="22.784584" lon="110.044480">
        <ele>134.661034</ele>
        <time>2026-08-16T02:34:21.000Z</time>
      </trkpt>
      <trkpt lat="22.784596" lon="110.044543">
        <ele>134.592221</ele>
        <time>2026-08-16T02:34:22.000Z</time>
      </trkpt>
      <trkpt lat="22.784611" lon="110.044607">
        <ele>134.521584</ele>
        <time>2026-08-16T02:34:23.000Z</time>
      </trkpt>
      <trkpt lat="22.784629" lon="110.044671">
        <ele>134.450010</ele>
        <time>2026-08-16T02:34:24.000Z</time>
      </trkpt>
      <trkpt lat="22.784648" lon="110.044735">
        <ele>134.378089</ele>
        <time>2026-08-16T02:34:25.000Z</time>
      </trkpt>
      <trkpt lat="22.784668" lon="110.044798">
        <ele>134.306816</ele>
        <time>2026-08-16T02:34:26.000Z</time>
      </trkpt>
      <trkpt lat="22.784690" lon="110.044861">
        <ele>134.234754</ele>
        <time>2026-08-16T02:34:27.000Z</time>
      </trkpt>
      <trkpt lat="22.784714" lon="110.044923">
        <ele>134.162825</ele>
        <time>2026-08-16T02:34:28.000Z</time>
      </trkpt>
      <trkpt lat="22.784738" lon="110.044985">
        <ele>134.090897</ele>
        <time>2026-08-16T02:34:29.000Z</time>
      </trkpt>
      <trkpt lat="22.784765" lon="110.045043">
        <ele>134.021396</ele>
        <time>2026-08-16T02:34:30.000Z</time>
      </trkpt>
      <trkpt lat="22.784795" lon="110.045102">
        <ele>133.949323</ele>
        <time>2026-08-16T02:34:31.000Z</time>
      </trkpt>
      <trkpt lat="22.784827" lon="110.045161">
        <ele>133.876101</ele>
        <time>2026-08-16T02:34:32.000Z</time>
      </trkpt>
      <trkpt lat="22.784859" lon="110.045219">
        <ele>133.803799</ele>
        <time>2026-08-16T02:34:33.000Z</time>
      </trkpt>
      <trkpt lat="22.784890" lon="110.045277">
        <ele>133.732087</ele>
        <time>2026-08-16T02:34:34.000Z</time>
      </trkpt>
      <trkpt lat="22.784921" lon="110.045335">
        <ele>133.660374</ele>
        <time>2026-08-16T02:34:35.000Z</time>
      </trkpt>
      <trkpt lat="22.784954" lon="110.045392">
        <ele>133.588378</ele>
        <time>2026-08-16T02:34:36.000Z</time>
      </trkpt>
      <trkpt lat="22.784989" lon="110.045450">
        <ele>133.514229</ele>
        <time>2026-08-16T02:34:37.000Z</time>
      </trkpt>
      <trkpt lat="22.785021" lon="110.045509">
        <ele>133.441007</ele>
        <time>2026-08-16T02:34:38.000Z</time>
      </trkpt>
      <trkpt lat="22.785053" lon="110.045567">
        <ele>133.390433</ele>
        <time>2026-08-16T02:34:39.000Z</time>
      </trkpt>
      <trkpt lat="22.785086" lon="110.045625">
        <ele>133.366503</ele>
        <time>2026-08-16T02:34:40.000Z</time>
      </trkpt>
      <trkpt lat="22.785120" lon="110.045682">
        <ele>133.342667</ele>
        <time>2026-08-16T02:34:41.000Z</time>
      </trkpt>
      <trkpt lat="22.785152" lon="110.045738">
        <ele>133.319535</ele>
        <time>2026-08-16T02:34:42.000Z</time>
      </trkpt>
      <trkpt lat="22.785183" lon="110.045793">
        <ele>133.296901</ele>
        <time>2026-08-16T02:34:43.000Z</time>
      </trkpt>
      <trkpt lat="22.785215" lon="110.045849">
        <ele>133.273769</ele>
        <time>2026-08-16T02:34:44.000Z</time>
      </trkpt>
      <trkpt lat="22.785242" lon="110.045909">
        <ele>133.250327</ele>
        <time>2026-08-16T02:34:45.000Z</time>
      </trkpt>
      <trkpt lat="22.785265" lon="110.045967">
        <ele>133.228159</ele>
        <time>2026-08-16T02:34:46.000Z</time>
      </trkpt>
      <trkpt lat="22.785283" lon="110.046025">
        <ele>133.206672</ele>
        <time>2026-08-16T02:34:47.000Z</time>
      </trkpt>
      <trkpt lat="22.785300" lon="110.046085">
        <ele>133.184634</ele>
        <time>2026-08-16T02:34:48.000Z</time>
      </trkpt>
      <trkpt lat="22.785315" lon="110.046147">
        <ele>133.162128</ele>
        <time>2026-08-16T02:34:49.000Z</time>
      </trkpt>
      <trkpt lat="22.785326" lon="110.046207">
        <ele>133.140649</ele>
        <time>2026-08-16T02:34:50.000Z</time>
      </trkpt>
      <trkpt lat="22.785333" lon="110.046267">
        <ele>133.119415</ele>
        <time>2026-08-16T02:34:51.000Z</time>
      </trkpt>
      <trkpt lat="22.785339" lon="110.046325">
        <ele>133.098923</ele>
        <time>2026-08-16T02:34:52.000Z</time>
      </trkpt>
      <trkpt lat="22.785341" lon="110.046381">
        <ele>133.079246</ele>
        <time>2026-08-16T02:34:53.000Z</time>
      </trkpt>
      <trkpt lat="22.785334" lon="110.046437">
        <ele>133.059405</ele>
        <time>2026-08-16T02:34:54.000Z</time>
      </trkpt>
      <trkpt lat="22.785323" lon="110.046497">
        <ele>133.037926</ele>
        <time>2026-08-16T02:34:55.000Z</time>
      </trkpt>
      <trkpt lat="22.785308" lon="110.046557">
        <ele>133.016099</ele>
        <time>2026-08-16T02:34:56.000Z</time>
      </trkpt>
      <trkpt lat="22.785284" lon="110.046615">
        <ele>132.993778</ele>
        <time>2026-08-16T02:34:57.000Z</time>
      </trkpt>
      <trkpt lat="22.785259" lon="110.046671">
        <ele>132.971932</ele>
        <time>2026-08-16T02:34:58.000Z</time>
      </trkpt>
      <trkpt lat="22.785230" lon="110.046722">
        <ele>132.950894</ele>
        <time>2026-08-16T02:34:59.000Z</time>
      </trkpt>
      <trkpt lat="22.785201" lon="110.046771">
        <ele>132.930450</ele>
        <time>2026-08-16T02:35:00.000Z</time>
      </trkpt>
      <trkpt lat="22.785170" lon="110.046821">
        <ele>132.909294</ele>
        <time>2026-08-16T02:35:01.000Z</time>
      </trkpt>
      <trkpt lat="22.785142" lon="110.046872">
        <ele>132.888453</ele>
        <time>2026-08-16T02:35:02.000Z</time>
      </trkpt>
      <trkpt lat="22.785109" lon="110.046919">
        <ele>132.867711</ele>
        <time>2026-08-16T02:35:03.000Z</time>
      </trkpt>
      <trkpt lat="22.785072" lon="110.046963">
        <ele>132.846801</ele>
        <time>2026-08-16T02:35:04.000Z</time>
      </trkpt>
      <trkpt lat="22.785035" lon="110.047006">
        <ele>132.826150</ele>
        <time>2026-08-16T02:35:05.000Z</time>
      </trkpt>
      <trkpt lat="22.784995" lon="110.047045">
        <ele>132.805667</ele>
        <time>2026-08-16T02:35:06.000Z</time>
      </trkpt>
      <trkpt lat="22.784956" lon="110.047086">
        <ele>132.784984</ele>
        <time>2026-08-16T02:35:07.000Z</time>
      </trkpt>
      <trkpt lat="22.784917" lon="110.047128">
        <ele>132.764054</ele>
        <time>2026-08-16T02:35:08.000Z</time>
      </trkpt>
      <trkpt lat="22.784879" lon="110.047172">
        <ele>132.742886</ele>
        <time>2026-08-16T02:35:09.000Z</time>
      </trkpt>
      <trkpt lat="22.784839" lon="110.047215">
        <ele>132.721439</ele>
        <time>2026-08-16T02:35:10.000Z</time>
      </trkpt>
      <trkpt lat="22.784799" lon="110.047258">
        <ele>132.728874</ele>
        <time>2026-08-16T02:35:11.000Z</time>
      </trkpt>
      <trkpt lat="22.784758" lon="110.047301">
        <ele>132.746139</ele>
        <time>2026-08-16T02:35:12.000Z</time>
      </trkpt>
      <trkpt lat="22.784718" lon="110.047344">
        <ele>132.763188</ele>
        <time>2026-08-16T02:35:13.000Z</time>
      </trkpt>
      <trkpt lat="22.784678" lon="110.047387">
        <ele>132.780238</ele>
        <time>2026-08-16T02:35:14.000Z</time>
      </trkpt>
      <trkpt lat="22.784637" lon="110.047430">
        <ele>132.797503</ele>
        <time>2026-08-16T02:35:15.000Z</time>
      </trkpt>
      <trkpt lat="22.784599" lon="110.047473">
        <ele>132.814128</ele>
        <time>2026-08-16T02:35:16.000Z</time>
      </trkpt>
      <trkpt lat="22.784559" lon="110.047516">
        <ele>132.831177</ele>
        <time>2026-08-16T02:35:17.000Z</time>
      </trkpt>
      <trkpt lat="22.784520" lon="110.047560">
        <ele>132.848212</ele>
        <time>2026-08-16T02:35:18.000Z</time>
      </trkpt>
      <trkpt lat="22.784479" lon="110.047600">
        <ele>132.864906</ele>
        <time>2026-08-16T02:35:19.000Z</time>
      </trkpt>
      <trkpt lat="22.784438" lon="110.047643">
        <ele>132.882172</ele>
        <time>2026-08-16T02:35:20.000Z</time>
      </trkpt>
      <trkpt lat="22.784401" lon="110.047686">
        <ele>132.898588</ele>
        <time>2026-08-16T02:35:21.000Z</time>
      </trkpt>
      <trkpt lat="22.784364" lon="110.047731">
        <ele>132.915417</ele>
        <time>2026-08-16T02:35:22.000Z</time>
      </trkpt>
      <trkpt lat="22.784328" lon="110.047776">
        <ele>132.932046</ele>
        <time>2026-08-16T02:35:23.000Z</time>
      </trkpt>
      <trkpt lat="22.784294" lon="110.047822">
        <ele>132.948502</ele>
        <time>2026-08-16T02:35:24.000Z</time>
      </trkpt>
      <trkpt lat="22.784261" lon="110.047867">
        <ele>132.964550</ele>
        <time>2026-08-16T02:35:25.000Z</time>
      </trkpt>
      <trkpt lat="22.784228" lon="110.047914">
        <ele>132.981039</ele>
        <time>2026-08-16T02:35:26.000Z</time>
      </trkpt>
      <trkpt lat="22.784193" lon="110.047959">
        <ele>132.997471</ele>
        <time>2026-08-16T02:35:27.000Z</time>
      </trkpt>
      <trkpt lat="22.784157" lon="110.048004">
        <ele>133.014100</ele>
        <time>2026-08-16T02:35:28.000Z</time>
      </trkpt>
      <trkpt lat="22.784121" lon="110.048045">
        <ele>133.029903</ele>
        <time>2026-08-16T02:35:29.000Z</time>
      </trkpt>
      <trkpt lat="22.784085" lon="110.048085">
        <ele>133.045505</ele>
        <time>2026-08-16T02:35:30.000Z</time>
      </trkpt>
      <trkpt lat="22.784052" lon="110.048127">
        <ele>133.060907</ele>
        <time>2026-08-16T02:35:31.000Z</time>
      </trkpt>
      <trkpt lat="22.784018" lon="110.048170">
        <ele>133.076718</ele>
        <time>2026-08-16T02:35:32.000Z</time>
      </trkpt>
      <trkpt lat="22.783985" lon="110.048213">
        <ele>133.092333</ele>
        <time>2026-08-16T02:35:33.000Z</time>
      </trkpt>
      <trkpt lat="22.783951" lon="110.048255">
        <ele>133.107933</ele>
        <time>2026-08-16T02:35:34.000Z</time>
      </trkpt>
      <trkpt lat="22.783920" lon="110.048298">
        <ele>133.123168</ele>
        <time>2026-08-16T02:35:35.000Z</time>
      </trkpt>
      <trkpt lat="22.783887" lon="110.048340">
        <ele>133.138570</ele>
        <time>2026-08-16T02:35:36.000Z</time>
      </trkpt>
      <trkpt lat="22.783854" lon="110.048382">
        <ele>133.153972</ele>
        <time>2026-08-16T02:35:37.000Z</time>
      </trkpt>
      <trkpt lat="22.783822" lon="110.048421">
        <ele>133.168544</ele>
        <time>2026-08-16T02:35:38.000Z</time>
      </trkpt>
      <trkpt lat="22.783791" lon="110.048461">
        <ele>133.183129</ele>
        <time>2026-08-16T02:35:39.000Z</time>
      </trkpt>
      <trkpt lat="22.783761" lon="110.048503">
        <ele>133.197958</ele>
        <time>2026-08-16T02:35:40.000Z</time>
      </trkpt>
      <trkpt lat="22.783731" lon="110.048545">
        <ele>133.212787</ele>
        <time>2026-08-16T02:35:41.000Z</time>
      </trkpt>
      <trkpt lat="22.783701" lon="110.048584">
        <ele>133.226963</ele>
        <time>2026-08-16T02:35:42.000Z</time>
      </trkpt>
      <trkpt lat="22.783671" lon="110.048622">
        <ele>133.240927</ele>
        <time>2026-08-16T02:35:43.000Z</time>
      </trkpt>
      <trkpt lat="22.783640" lon="110.048662">
        <ele>133.255511</ele>
        <time>2026-08-16T02:35:44.000Z</time>
      </trkpt>
      <trkpt lat="22.783610" lon="110.048701">
        <ele>133.275290</ele>
        <time>2026-08-16T02:35:45.000Z</time>
      </trkpt>
      <trkpt lat="22.783581" lon="110.048740">
        <ele>133.297883</ele>
        <time>2026-08-16T02:35:46.000Z</time>
      </trkpt>
      <trkpt lat="22.783551" lon="110.048778">
        <ele>133.320442</ele>
        <time>2026-08-16T02:35:47.000Z</time>
      </trkpt>
      <trkpt lat="22.783522" lon="110.048819">
        <ele>133.343744</ele>
        <time>2026-08-16T02:35:48.000Z</time>
      </trkpt>
      <trkpt lat="22.783493" lon="110.048859">
        <ele>133.366690</ele>
        <time>2026-08-16T02:35:49.000Z</time>
      </trkpt>
      <trkpt lat="22.783464" lon="110.048899">
        <ele>133.389636</ele>
        <time>2026-08-16T02:35:50.000Z</time>
      </trkpt>
      <trkpt lat="22.783436" lon="110.048941">
        <ele>133.413008</ele>
        <time>2026-08-16T02:35:51.000Z</time>
      </trkpt>
      <trkpt lat="22.783410" lon="110.048982">
        <ele>133.435447</ele>
        <time>2026-08-16T02:35:52.000Z</time>
      </trkpt>
      <trkpt lat="22.783385" lon="110.049025">
        <ele>133.458370</ele>
        <time>2026-08-16T02:35:53.000Z</time>
      </trkpt>
      <trkpt lat="22.783359" lon="110.049068">
        <ele>133.481558</ele>
        <time>2026-08-16T02:35:54.000Z</time>
      </trkpt>
      <trkpt lat="22.783333" lon="110.049110">
        <ele>133.504370</ele>
        <time>2026-08-16T02:35:55.000Z</time>
      </trkpt>
      <trkpt lat="22.783309" lon="110.049153">
        <ele>133.527036</ele>
        <time>2026-08-16T02:35:56.000Z</time>
      </trkpt>
      <trkpt lat="22.783285" lon="110.049197">
        <ele>133.550089</ele>
        <time>2026-08-16T02:35:57.000Z</time>
      </trkpt>
      <trkpt lat="22.783260" lon="110.049242">
        <ele>133.573780</ele>
        <time>2026-08-16T02:35:58.000Z</time>
      </trkpt>
      <trkpt lat="22.783235" lon="110.049288">
        <ele>133.597859</ele>
        <time>2026-08-16T02:35:59.000Z</time>
      </trkpt>
      <trkpt lat="22.783210" lon="110.049334">
        <ele>133.621937</ele>
        <time>2026-08-16T02:36:00.000Z</time>
      </trkpt>
      <trkpt lat="22.783185" lon="110.049379">
        <ele>133.645628</ele>
        <time>2026-08-16T02:36:01.000Z</time>
      </trkpt>
      <trkpt lat="22.783160" lon="110.049424">
        <ele>133.669319</ele>
        <time>2026-08-16T02:36:02.000Z</time>
      </trkpt>
      <trkpt lat="22.783138" lon="110.049470">
        <ele>133.692686</ele>
        <time>2026-08-16T02:36:03.000Z</time>
      </trkpt>
      <trkpt lat="22.783117" lon="110.049517">
        <ele>133.716238</ele>
        <time>2026-08-16T02:36:04.000Z</time>
      </trkpt>
      <trkpt lat="22.783094" lon="110.049564">
        <ele>133.740232</ele>
        <time>2026-08-16T02:36:05.000Z</time>
      </trkpt>
      <trkpt lat="22.783070" lon="110.049610">
        <ele>133.764066</ele>
        <time>2026-08-16T02:36:06.000Z</time>
      </trkpt>
      <trkpt lat="22.783045" lon="110.049657">
        <ele>133.788533</ele>
        <time>2026-08-16T02:36:07.000Z</time>
      </trkpt>
      <trkpt lat="22.783021" lon="110.049706">
        <ele>133.813553</ele>
        <time>2026-08-16T02:36:08.000Z</time>
      </trkpt>
      <trkpt lat="22.782997" lon="110.049755">
        <ele>133.838573</ele>
        <time>2026-08-16T02:36:09.000Z</time>
      </trkpt>
      <trkpt lat="22.782971" lon="110.049802">
        <ele>133.863289</ele>
        <time>2026-08-16T02:36:10.000Z</time>
      </trkpt>
      <trkpt lat="22.782944" lon="110.049848">
        <ele>133.887879</ele>
        <time>2026-08-16T02:36:11.000Z</time>
      </trkpt>
      <trkpt lat="22.782919" lon="110.049895">
        <ele>133.912347</ele>
        <time>2026-08-16T02:36:12.000Z</time>
      </trkpt>
      <trkpt lat="22.782896" lon="110.049944">
        <ele>133.937141</ele>
        <time>2026-08-16T02:36:13.000Z</time>
      </trkpt>
      <trkpt lat="22.782873" lon="110.049993">
        <ele>133.961936</ele>
        <time>2026-08-16T02:36:14.000Z</time>
      </trkpt>
      <trkpt lat="22.782848" lon="110.050041">
        <ele>133.986795</ele>
        <time>2026-08-16T02:36:15.000Z</time>
      </trkpt>
      <trkpt lat="22.782822" lon="110.050089">
        <ele>134.011899</ele>
        <time>2026-08-16T02:36:16.000Z</time>
      </trkpt>
      <trkpt lat="22.782796" lon="110.050137">
        <ele>134.037003</ele>
        <time>2026-08-16T02:36:17.000Z</time>
      </trkpt>
      <trkpt lat="22.782771" lon="110.050184">
        <ele>134.061471</ele>
        <time>2026-08-16T02:36:18.000Z</time>
      </trkpt>
      <trkpt lat="22.782749" lon="110.050232">
        <ele>134.085642</ele>
        <time>2026-08-16T02:36:19.000Z</time>
      </trkpt>
      <trkpt lat="22.782727" lon="110.050281">
        <ele>134.110219</ele>
        <time>2026-08-16T02:36:20.000Z</time>
      </trkpt>
      <trkpt lat="22.782703" lon="110.050328">
        <ele>134.134446</ele>
        <time>2026-08-16T02:36:21.000Z</time>
      </trkpt>
      <trkpt lat="22.782678" lon="110.050375">
        <ele>134.154561</ele>
        <time>2026-08-16T02:36:22.000Z</time>
      </trkpt>
      <trkpt lat="22.782652" lon="110.050422">
        <ele>134.173501</ele>
        <time>2026-08-16T02:36:23.000Z</time>
      </trkpt>
      <trkpt lat="22.782627" lon="110.050470">
        <ele>134.192552</ele>
        <time>2026-08-16T02:36:24.000Z</time>
      </trkpt>
      <trkpt lat="22.782603" lon="110.050517">
        <ele>134.211118</ele>
        <time>2026-08-16T02:36:25.000Z</time>
      </trkpt>
      <trkpt lat="22.782578" lon="110.050565">
        <ele>134.230168</ele>
        <time>2026-08-16T02:36:26.000Z</time>
      </trkpt>
      <trkpt lat="22.782553" lon="110.050613">
        <ele>134.249218</ele>
        <time>2026-08-16T02:36:27.000Z</time>
      </trkpt>
      <trkpt lat="22.782528" lon="110.050659">
        <ele>134.267670</ele>
        <time>2026-08-16T02:36:28.000Z</time>
      </trkpt>
      <trkpt lat="22.782504" lon="110.050706">
        <ele>134.286236</ele>
        <time>2026-08-16T02:36:29.000Z</time>
      </trkpt>
      <trkpt lat="22.782480" lon="110.050753">
        <ele>134.304802</ele>
        <time>2026-08-16T02:36:30.000Z</time>
      </trkpt>
      <trkpt lat="22.782455" lon="110.050800">
        <ele>134.323552</ele>
        <time>2026-08-16T02:36:31.000Z</time>
      </trkpt>
      <trkpt lat="22.782432" lon="110.050849">
        <ele>134.342553</ele>
        <time>2026-08-16T02:36:32.000Z</time>
      </trkpt>
      <trkpt lat="22.782410" lon="110.050898">
        <ele>134.361386</ele>
        <time>2026-08-16T02:36:33.000Z</time>
      </trkpt>
      <trkpt lat="22.782389" lon="110.050946">
        <ele>134.379746</ele>
        <time>2026-08-16T02:36:34.000Z</time>
      </trkpt>
      <trkpt lat="22.782367" lon="110.050992">
        <ele>134.397653</ele>
        <time>2026-08-16T02:36:35.000Z</time>
      </trkpt>
      <trkpt lat="22.782345" lon="110.051038">
        <ele>134.415560</ele>
        <time>2026-08-16T02:36:36.000Z</time>
      </trkpt>
      <trkpt lat="22.782324" lon="110.051085">
        <ele>134.433608</ele>
        <time>2026-08-16T02:36:37.000Z</time>
      </trkpt>
      <trkpt lat="22.782303" lon="110.051131">
        <ele>134.451346</ele>
        <time>2026-08-16T02:36:38.000Z</time>
      </trkpt>
      <trkpt lat="22.782282" lon="110.051178">
        <ele>134.469394</ele>
        <time>2026-08-16T02:36:39.000Z</time>
      </trkpt>
      <trkpt lat="22.782263" lon="110.051227">
        <ele>134.487763</ele>
        <time>2026-08-16T02:36:40.000Z</time>
      </trkpt>
      <trkpt lat="22.782245" lon="110.051277">
        <ele>134.506311</ele>
        <time>2026-08-16T02:36:41.000Z</time>
      </trkpt>
      <trkpt lat="22.782225" lon="110.051327">
        <ele>134.525145</ele>
        <time>2026-08-16T02:36:42.000Z</time>
      </trkpt>
      <trkpt lat="22.782208" lon="110.051379">
        <ele>134.544210</ele>
        <time>2026-08-16T02:36:43.000Z</time>
      </trkpt>
      <trkpt lat="22.782190" lon="110.051430">
        <ele>134.563081</ele>
        <time>2026-08-16T02:36:44.000Z</time>
      </trkpt>
      <trkpt lat="22.782171" lon="110.051481">
        <ele>134.582089</ele>
        <time>2026-08-16T02:36:45.000Z</time>
      </trkpt>
      <trkpt lat="22.782150" lon="110.051531">
        <ele>134.601075</ele>
        <time>2026-08-16T02:36:46.000Z</time>
      </trkpt>
      <trkpt lat="22.782132" lon="110.051580">
        <ele>134.619302</ele>
        <time>2026-08-16T02:36:47.000Z</time>
      </trkpt>
      <trkpt lat="22.782112" lon="110.051629">
        <ele>134.637820</ele>
        <time>2026-08-16T02:36:48.000Z</time>
      </trkpt>
      <trkpt lat="22.782092" lon="110.051678">
        <ele>134.656337</ele>
        <time>2026-08-16T02:36:49.000Z</time>
      </trkpt>
      <trkpt lat="22.782074" lon="110.051727">
        <ele>134.674564</ele>
        <time>2026-08-16T02:36:50.000Z</time>
      </trkpt>
      <trkpt lat="22.782054" lon="110.051776">
        <ele>134.693082</ele>
        <time>2026-08-16T02:36:51.000Z</time>
      </trkpt>
      <trkpt lat="22.782035" lon="110.051823">
        <ele>134.710815</ele>
        <time>2026-08-16T02:36:52.000Z</time>
      </trkpt>
      <trkpt lat="22.782018" lon="110.051870">
        <ele>134.728262</ele>
        <time>2026-08-16T02:36:53.000Z</time>
      </trkpt>
      <trkpt lat="22.782000" lon="110.051921">
        <ele>134.747133</ele>
        <time>2026-08-16T02:36:54.000Z</time>
      </trkpt>
      <trkpt lat="22.781984" lon="110.051972">
        <ele>134.765748</ele>
        <time>2026-08-16T02:36:55.000Z</time>
      </trkpt>
      <trkpt lat="22.781971" lon="110.052024">
        <ele>134.784367</ele>
        <time>2026-08-16T02:36:56.000Z</time>
      </trkpt>
      <trkpt lat="22.781953" lon="110.052074">
        <ele>134.802915</ele>
        <time>2026-08-16T02:36:57.000Z</time>
      </trkpt>
      <trkpt lat="22.781934" lon="110.052121">
        <ele>134.817838</ele>
        <time>2026-08-16T02:36:58.000Z</time>
      </trkpt>
      <trkpt lat="22.781915" lon="110.052169">
        <ele>134.827747</ele>
        <time>2026-08-16T02:36:59.000Z</time>
      </trkpt>
      <trkpt lat="22.781895" lon="110.052215">
        <ele>134.837395</ele>
        <time>2026-08-16T02:37:00.000Z</time>
      </trkpt>
      <trkpt lat="22.781876" lon="110.052261">
        <ele>134.846956</ele>
        <time>2026-08-16T02:37:01.000Z</time>
      </trkpt>
      <trkpt lat="22.781855" lon="110.052308">
        <ele>134.856864</ele>
        <time>2026-08-16T02:37:02.000Z</time>
      </trkpt>
      <trkpt lat="22.781836" lon="110.052357">
        <ele>134.866948</ele>
        <time>2026-08-16T02:37:03.000Z</time>
      </trkpt>
      <trkpt lat="22.781819" lon="110.052409">
        <ele>134.877413</ele>
        <time>2026-08-16T02:37:04.000Z</time>
      </trkpt>
      <trkpt lat="22.781798" lon="110.052455">
        <ele>134.887150</ele>
        <time>2026-08-16T02:37:05.000Z</time>
      </trkpt>
      <trkpt lat="22.781776" lon="110.052502">
        <ele>134.897149</ele>
        <time>2026-08-16T02:37:06.000Z</time>
      </trkpt>
      <trkpt lat="22.781756" lon="110.052549">
        <ele>134.906969</ele>
        <time>2026-08-16T02:37:07.000Z</time>
      </trkpt>
      <trkpt lat="22.781738" lon="110.052596">
        <ele>134.916623</ele>
        <time>2026-08-16T02:37:08.000Z</time>
      </trkpt>
      <trkpt lat="22.781719" lon="110.052642">
        <ele>134.926185</ele>
        <time>2026-08-16T02:37:09.000Z</time>
      </trkpt>
      <trkpt lat="22.781701" lon="110.052690">
        <ele>134.936014</ele>
        <time>2026-08-16T02:37:10.000Z</time>
      </trkpt>
      <trkpt lat="22.781684" lon="110.052744">
        <ele>134.946839</ele>
        <time>2026-08-16T02:37:11.000Z</time>
      </trkpt>
      <trkpt lat="22.781668" lon="110.052795">
        <ele>134.957058</ele>
        <time>2026-08-16T02:37:12.000Z</time>
      </trkpt>
      <trkpt lat="22.781654" lon="110.052850">
        <ele>134.967881</ele>
        <time>2026-08-16T02:37:13.000Z</time>
      </trkpt>
      <trkpt lat="22.781639" lon="110.052901">
        <ele>134.978036</ele>
        <time>2026-08-16T02:37:14.000Z</time>
      </trkpt>
      <trkpt lat="22.781626" lon="110.052954">
        <ele>134.988440</ele>
        <time>2026-08-16T02:37:15.000Z</time>
      </trkpt>
      <trkpt lat="22.781612" lon="110.053009">
        <ele>134.999263</ele>
        <time>2026-08-16T02:37:16.000Z</time>
      </trkpt>
      <trkpt lat="22.781599" lon="110.053063">
        <ele>135.009850</ele>
        <time>2026-08-16T02:37:17.000Z</time>
      </trkpt>
      <trkpt lat="22.781582" lon="110.053114">
        <ele>135.020137</ele>
        <time>2026-08-16T02:37:18.000Z</time>
      </trkpt>
      <trkpt lat="22.781566" lon="110.053167">
        <ele>135.030717</ele>
        <time>2026-08-16T02:37:19.000Z</time>
      </trkpt>
      <trkpt lat="22.781549" lon="110.053218">
        <ele>135.041004</ele>
        <time>2026-08-16T02:37:20.000Z</time>
      </trkpt>
      <trkpt lat="22.781532" lon="110.053268">
        <ele>135.051113</ele>
        <time>2026-08-16T02:37:21.000Z</time>
      </trkpt>
      <trkpt lat="22.781512" lon="110.053317">
        <ele>135.061278</ele>
        <time>2026-08-16T02:37:22.000Z</time>
      </trkpt>
      <trkpt lat="22.781493" lon="110.053364">
        <ele>135.071013</ele>
        <time>2026-08-16T02:37:23.000Z</time>
      </trkpt>
      <trkpt lat="22.781475" lon="110.053412">
        <ele>135.080843</ele>
        <time>2026-08-16T02:37:24.000Z</time>
      </trkpt>
      <trkpt lat="22.781456" lon="110.053458">
        <ele>135.090405</ele>
        <time>2026-08-16T02:37:25.000Z</time>
      </trkpt>
      <trkpt lat="22.781441" lon="110.053506">
        <ele>135.100019</ele>
        <time>2026-08-16T02:37:26.000Z</time>
      </trkpt>
      <trkpt lat="22.781429" lon="110.053560">
        <ele>135.110556</ele>
        <time>2026-08-16T02:37:27.000Z</time>
      </trkpt>
      <trkpt lat="22.781413" lon="110.053608">
        <ele>135.120238</ele>
        <time>2026-08-16T02:37:28.000Z</time>
      </trkpt>
      <trkpt lat="22.781394" lon="110.053652">
        <ele>135.129455</ele>
        <time>2026-08-16T02:37:29.000Z</time>
      </trkpt>
      <trkpt lat="22.781378" lon="110.053699">
        <ele>135.138959</ele>
        <time>2026-08-16T02:37:30.000Z</time>
      </trkpt>
      <trkpt lat="22.781355" lon="110.053739">
        <ele>135.147901</ele>
        <time>2026-08-16T02:37:31.000Z</time>
      </trkpt>
      <trkpt lat="22.781334" lon="110.053784">
        <ele>135.157469</ele>
        <time>2026-08-16T02:37:32.000Z</time>
      </trkpt>
      <trkpt lat="22.781318" lon="110.053835">
        <ele>135.167688</ele>
        <time>2026-08-16T02:37:33.000Z</time>
      </trkpt>
      <trkpt lat="22.781302" lon="110.053886">
        <ele>135.177907</ele>
        <time>2026-08-16T02:37:34.000Z</time>
      </trkpt>
      <trkpt lat="22.781286" lon="110.053938">
        <ele>135.189295</ele>
        <time>2026-08-16T02:37:35.000Z</time>
      </trkpt>
      <trkpt lat="22.781266" lon="110.053990">
        <ele>135.202748</ele>
        <time>2026-08-16T02:37:36.000Z</time>
      </trkpt>
      <trkpt lat="22.781245" lon="110.054040">
        <ele>135.215867</ele>
        <time>2026-08-16T02:37:37.000Z</time>
      </trkpt>
      <trkpt lat="22.781227" lon="110.054092">
        <ele>135.229128</ele>
        <time>2026-08-16T02:37:38.000Z</time>
      </trkpt>
      <trkpt lat="22.781213" lon="110.054145">
        <ele>135.242292</ele>
        <time>2026-08-16T02:37:39.000Z</time>
      </trkpt>
      <trkpt lat="22.781199" lon="110.054201">
        <ele>135.256146</ele>
        <time>2026-08-16T02:37:40.000Z</time>
      </trkpt>
      <trkpt lat="22.781184" lon="110.054259">
        <ele>135.270529</ele>
        <time>2026-08-16T02:37:41.000Z</time>
      </trkpt>
      <trkpt lat="22.781170" lon="110.054317">
        <ele>135.284844</ele>
        <time>2026-08-16T02:37:42.000Z</time>
      </trkpt>
      <trkpt lat="22.781154" lon="110.054373">
        <ele>135.298842</ele>
        <time>2026-08-16T02:37:43.000Z</time>
      </trkpt>
      <trkpt lat="22.781137" lon="110.054428">
        <ele>135.312692</ele>
        <time>2026-08-16T02:37:44.000Z</time>
      </trkpt>
      <trkpt lat="22.781119" lon="110.054482">
        <ele>135.326402</ele>
        <time>2026-08-16T02:37:45.000Z</time>
      </trkpt>
      <trkpt lat="22.781101" lon="110.054537">
        <ele>135.340337</ele>
        <time>2026-08-16T02:37:46.000Z</time>
      </trkpt>
      <trkpt lat="22.781085" lon="110.054591">
        <ele>135.353880</ele>
        <time>2026-08-16T02:37:47.000Z</time>
      </trkpt>
      <trkpt lat="22.781070" lon="110.054646">
        <ele>135.367574</ele>
        <time>2026-08-16T02:37:48.000Z</time>
      </trkpt>
      <trkpt lat="22.781056" lon="110.054700">
        <ele>135.380968</ele>
        <time>2026-08-16T02:37:49.000Z</time>
      </trkpt>
      <trkpt lat="22.781041" lon="110.054752">
        <ele>135.393977</ele>
        <time>2026-08-16T02:37:50.000Z</time>
      </trkpt>
      <trkpt lat="22.781025" lon="110.054805">
        <ele>135.407292</ele>
        <time>2026-08-16T02:37:51.000Z</time>
      </trkpt>
      <trkpt lat="22.781009" lon="110.054857">
        <ele>135.420381</ele>
        <time>2026-08-16T02:37:52.000Z</time>
      </trkpt>
      <trkpt lat="22.780996" lon="110.054910">
        <ele>135.433476</ele>
        <time>2026-08-16T02:37:53.000Z</time>
      </trkpt>
      <trkpt lat="22.780983" lon="110.054963">
        <ele>135.446571</ele>
        <time>2026-08-16T02:37:54.000Z</time>
      </trkpt>
      <trkpt lat="22.780969" lon="110.055012">
        <ele>135.458819</ele>
        <time>2026-08-16T02:37:55.000Z</time>
      </trkpt>
      <trkpt lat="22.780957" lon="110.055061">
        <ele>135.470924</ele>
        <time>2026-08-16T02:37:56.000Z</time>
      </trkpt>
      <trkpt lat="22.780946" lon="110.055111">
        <ele>135.483198</ele>
        <time>2026-08-16T02:37:57.000Z</time>
      </trkpt>
      <trkpt lat="22.780935" lon="110.055161">
        <ele>135.495471</ele>
        <time>2026-08-16T02:37:58.000Z</time>
      </trkpt>
      <trkpt lat="22.780923" lon="110.055205">
        <ele>135.506427</ele>
        <time>2026-08-16T02:37:59.000Z</time>
      </trkpt>
      <trkpt lat="22.780909" lon="110.055248">
        <ele>135.517315</ele>
        <time>2026-08-16T02:38:00.000Z</time>
      </trkpt>
      <trkpt lat="22.780892" lon="110.055289">
        <ele>135.528049</ele>
        <time>2026-08-16T02:38:01.000Z</time>
      </trkpt>
      <trkpt lat="22.780879" lon="110.055332">
        <ele>135.538853</ele>
        <time>2026-08-16T02:38:02.000Z</time>
      </trkpt>
      <trkpt lat="22.780866" lon="110.055377">
        <ele>135.550113</ele>
        <time>2026-08-16T02:38:03.000Z</time>
      </trkpt>
      <trkpt lat="22.780852" lon="110.055420">
        <ele>135.561001</ele>
        <time>2026-08-16T02:38:04.000Z</time>
      </trkpt>
      <trkpt lat="22.780839" lon="110.055467">
        <ele>135.572717</ele>
        <time>2026-08-16T02:38:05.000Z</time>
      </trkpt>
      <trkpt lat="22.780821" lon="110.055510">
        <ele>135.583993</ele>
        <time>2026-08-16T02:38:06.000Z</time>
      </trkpt>
      <trkpt lat="22.780803" lon="110.055556">
        <ele>135.595924</ele>
        <time>2026-08-16T02:38:07.000Z</time>
      </trkpt>
      <trkpt lat="22.780787" lon="110.055604">
        <ele>135.608111</ele>
        <time>2026-08-16T02:38:08.000Z</time>
      </trkpt>
      <trkpt lat="22.780765" lon="110.055643">
        <ele>135.619027</ele>
        <time>2026-08-16T02:38:09.000Z</time>
      </trkpt>
      <trkpt lat="22.780744" lon="110.055685">
        <ele>135.630435</ele>
        <time>2026-08-16T02:38:10.000Z</time>
      </trkpt>
      <trkpt lat="22.780724" lon="110.055729">
        <ele>135.642148</ele>
        <time>2026-08-16T02:38:11.000Z</time>
      </trkpt>
      <trkpt lat="22.780703" lon="110.055773">
        <ele>135.635759</ele>
        <time>2026-08-16T02:38:12.000Z</time>
      </trkpt>
      <trkpt lat="22.780683" lon="110.055825">
        <ele>135.583122</ele>
        <time>2026-08-16T02:38:13.000Z</time>
      </trkpt>
      <trkpt lat="22.780662" lon="110.055871">
        <ele>135.535169</ele>
        <time>2026-08-16T02:38:14.000Z</time>
      </trkpt>
      <trkpt lat="22.780641" lon="110.055918">
        <ele>135.486377</ele>
        <time>2026-08-16T02:38:15.000Z</time>
      </trkpt>
      <trkpt lat="22.780619" lon="110.055964">
        <ele>135.437966</ele>
        <time>2026-08-16T02:38:16.000Z</time>
      </trkpt>
      <trkpt lat="22.780598" lon="110.056012">
        <ele>135.388331</ele>
        <time>2026-08-16T02:38:17.000Z</time>
      </trkpt>
      <trkpt lat="22.780577" lon="110.056060">
        <ele>135.338696</ele>
        <time>2026-08-16T02:38:18.000Z</time>
      </trkpt>
      <trkpt lat="22.780558" lon="110.056107">
        <ele>135.290753</ele>
        <time>2026-08-16T02:38:19.000Z</time>
      </trkpt>
      <trkpt lat="22.780538" lon="110.056154">
        <ele>135.242394</ele>
        <time>2026-08-16T02:38:20.000Z</time>
      </trkpt>
      <trkpt lat="22.780518" lon="110.056202">
        <ele>135.193186</ele>
        <time>2026-08-16T02:38:21.000Z</time>
      </trkpt>
      <trkpt lat="22.780496" lon="110.056250">
        <ele>135.143108</ele>
        <time>2026-08-16T02:38:22.000Z</time>
      </trkpt>
      <trkpt lat="22.780474" lon="110.056296">
        <ele>135.094697</ele>
        <time>2026-08-16T02:38:23.000Z</time>
      </trkpt>
      <trkpt lat="22.780452" lon="110.056342">
        <ele>135.046286</ele>
        <time>2026-08-16T02:38:24.000Z</time>
      </trkpt>
      <trkpt lat="22.780429" lon="110.056389">
        <ele>134.996576</ele>
        <time>2026-08-16T02:38:25.000Z</time>
      </trkpt>
      <trkpt lat="22.780406" lon="110.056437">
        <ele>134.946040</ele>
        <time>2026-08-16T02:38:26.000Z</time>
      </trkpt>
      <trkpt lat="22.780380" lon="110.056486">
        <ele>134.893224</ele>
        <time>2026-08-16T02:38:27.000Z</time>
      </trkpt>
      <trkpt lat="22.780354" lon="110.056539">
        <ele>134.837138</ele>
        <time>2026-08-16T02:38:28.000Z</time>
      </trkpt>
      <trkpt lat="22.780327" lon="110.056593">
        <ele>134.779750</ele>
        <time>2026-08-16T02:38:29.000Z</time>
      </trkpt>
      <trkpt lat="22.780301" lon="110.056648">
        <ele>134.722008</ele>
        <time>2026-08-16T02:38:30.000Z</time>
      </trkpt>
      <trkpt lat="22.780276" lon="110.056705">
        <ele>134.663040</ele>
        <time>2026-08-16T02:38:31.000Z</time>
      </trkpt>
      <trkpt lat="22.780252" lon="110.056764">
        <ele>134.602795</ele>
        <time>2026-08-16T02:38:32.000Z</time>
      </trkpt>
      <trkpt lat="22.780227" lon="110.056820">
        <ele>134.544669</ele>
        <time>2026-08-16T02:38:33.000Z</time>
      </trkpt>
      <trkpt lat="22.780201" lon="110.056877">
        <ele>134.485258</ele>
        <time>2026-08-16T02:38:34.000Z</time>
      </trkpt>
      <trkpt lat="22.780176" lon="110.056934">
        <ele>134.426290</ele>
        <time>2026-08-16T02:38:35.000Z</time>
      </trkpt>
      <trkpt lat="22.780151" lon="110.056992">
        <ele>134.366477</ele>
        <time>2026-08-16T02:38:36.000Z</time>
      </trkpt>
      <trkpt lat="22.780126" lon="110.057048">
        <ele>134.308351</ele>
        <time>2026-08-16T02:38:37.000Z</time>
      </trkpt>
      <trkpt lat="22.780100" lon="110.057103">
        <ele>134.250609</ele>
        <time>2026-08-16T02:38:38.000Z</time>
      </trkpt>
      <trkpt lat="22.780075" lon="110.057159">
        <ele>134.192483</ele>
        <time>2026-08-16T02:38:39.000Z</time>
      </trkpt>
      <trkpt lat="22.780049" lon="110.057215">
        <ele>134.133908</ele>
        <time>2026-08-16T02:38:40.000Z</time>
      </trkpt>
      <trkpt lat="22.780023" lon="110.057269">
        <ele>134.076995</ele>
        <time>2026-08-16T02:38:41.000Z</time>
      </trkpt>
      <trkpt lat="22.779996" lon="110.057322">
        <ele>134.020427</ele>
        <time>2026-08-16T02:38:42.000Z</time>
      </trkpt>
      <trkpt lat="22.779970" lon="110.057376">
        <ele>133.963514</ele>
        <time>2026-08-16T02:38:43.000Z</time>
      </trkpt>
      <trkpt lat="22.779944" lon="110.057429">
        <ele>133.907429</ele>
        <time>2026-08-16T02:38:44.000Z</time>
      </trkpt>
      <trkpt lat="22.779917" lon="110.057479">
        <ele>133.853296</ele>
        <time>2026-08-16T02:38:45.000Z</time>
      </trkpt>
      <trkpt lat="22.779893" lon="110.057531">
        <ele>133.803382</ele>
        <time>2026-08-16T02:38:46.000Z</time>
      </trkpt>
      <trkpt lat="22.779868" lon="110.057583">
        <ele>133.756982</ele>
        <time>2026-08-16T02:38:47.000Z</time>
      </trkpt>
      <trkpt lat="22.779845" lon="110.057635">
        <ele>133.711351</ele>
        <time>2026-08-16T02:38:48.000Z</time>
      </trkpt>
      <trkpt lat="22.779822" lon="110.057688">
        <ele>133.665005</ele>
        <time>2026-08-16T02:38:49.000Z</time>
      </trkpt>
      <trkpt lat="22.779798" lon="110.057742">
        <ele>133.617575</ele>
        <time>2026-08-16T02:38:50.000Z</time>
      </trkpt>
      <trkpt lat="22.779772" lon="110.057796">
        <ele>133.569376</ele>
        <time>2026-08-16T02:38:51.000Z</time>
      </trkpt>
      <trkpt lat="22.779747" lon="110.057849">
        <ele>133.522273</ele>
        <time>2026-08-16T02:38:52.000Z</time>
      </trkpt>
      <trkpt lat="22.779722" lon="110.057901">
        <ele>133.475873</ele>
        <time>2026-08-16T02:38:53.000Z</time>
      </trkpt>
      <trkpt lat="22.779697" lon="110.057953">
        <ele>133.429474</ele>
        <time>2026-08-16T02:38:54.000Z</time>
      </trkpt>
      <trkpt lat="22.779672" lon="110.058007">
        <ele>133.381665</ele>
        <time>2026-08-16T02:38:55.000Z</time>
      </trkpt>
      <trkpt lat="22.779645" lon="110.058059">
        <ele>133.334448</ele>
        <time>2026-08-16T02:38:56.000Z</time>
      </trkpt>
      <trkpt lat="22.779619" lon="110.058113">
        <ele>133.286248</ele>
        <time>2026-08-16T02:38:57.000Z</time>
      </trkpt>
      <trkpt lat="22.779594" lon="110.058167">
        <ele>133.238439</ele>
        <time>2026-08-16T02:38:58.000Z</time>
      </trkpt>
      <trkpt lat="22.779568" lon="110.058220">
        <ele>133.190940</ele>
        <time>2026-08-16T02:38:59.000Z</time>
      </trkpt>
      <trkpt lat="22.779546" lon="110.058275">
        <ele>133.143505</ele>
        <time>2026-08-16T02:39:00.000Z</time>
      </trkpt>
      <trkpt lat="22.779523" lon="110.058330">
        <ele>133.095722</ele>
        <time>2026-08-16T02:39:01.000Z</time>
      </trkpt>
      <trkpt lat="22.779499" lon="110.058382">
        <ele>133.049713</ele>
        <time>2026-08-16T02:39:02.000Z</time>
      </trkpt>
      <trkpt lat="22.779476" lon="110.058435">
        <ele>133.003367</ele>
        <time>2026-08-16T02:39:03.000Z</time>
      </trkpt>
      <trkpt lat="22.779453" lon="110.058485">
        <ele>132.959157</ele>
        <time>2026-08-16T02:39:04.000Z</time>
      </trkpt>
      <trkpt lat="22.779431" lon="110.058536">
        <ele>132.914607</ele>
        <time>2026-08-16T02:39:05.000Z</time>
      </trkpt>
      <trkpt lat="22.779406" lon="110.058588">
        <ele>132.868208</ele>
        <time>2026-08-16T02:39:06.000Z</time>
      </trkpt>
      <trkpt lat="22.779382" lon="110.058643">
        <ele>132.820064</ele>
        <time>2026-08-16T02:39:07.000Z</time>
      </trkpt>
      <trkpt lat="22.779359" lon="110.058697">
        <ele>132.773001</ele>
        <time>2026-08-16T02:39:08.000Z</time>
      </trkpt>
      <trkpt lat="22.779336" lon="110.058751">
        <ele>132.725937</ele>
        <time>2026-08-16T02:39:09.000Z</time>
      </trkpt>
      <trkpt lat="22.779311" lon="110.058806">
        <ele>132.677421</ele>
        <time>2026-08-16T02:39:10.000Z</time>
      </trkpt>
      <trkpt lat="22.779288" lon="110.058860">
        <ele>132.630357</ele>
        <time>2026-08-16T02:39:11.000Z</time>
      </trkpt>
      <trkpt lat="22.779263" lon="110.058917">
        <ele>132.580416</ele>
        <time>2026-08-16T02:39:12.000Z</time>
      </trkpt>
      <trkpt lat="22.779239" lon="110.058970">
        <ele>132.533698</ele>
        <time>2026-08-16T02:39:13.000Z</time>
      </trkpt>
      <trkpt lat="22.779214" lon="110.059022">
        <ele>132.487298</ele>
        <time>2026-08-16T02:39:14.000Z</time>
      </trkpt>
      <trkpt lat="22.779189" lon="110.059075">
        <ele>132.440195</ele>
        <time>2026-08-16T02:39:15.000Z</time>
      </trkpt>
      <trkpt lat="22.779166" lon="110.059126">
        <ele>132.395276</ele>
        <time>2026-08-16T02:39:16.000Z</time>
      </trkpt>
      <trkpt lat="22.779146" lon="110.059178">
        <ele>132.350697</ele>
        <time>2026-08-16T02:39:17.000Z</time>
      </trkpt>
      <trkpt lat="22.779124" lon="110.059228">
        <ele>132.306863</ele>
        <time>2026-08-16T02:39:18.000Z</time>
      </trkpt>
      <trkpt lat="22.779102" lon="110.059279">
        <ele>132.250014</ele>
        <time>2026-08-16T02:39:19.000Z</time>
      </trkpt>
      <trkpt lat="22.779079" lon="110.059332">
        <ele>132.177760</ele>
        <time>2026-08-16T02:39:20.000Z</time>
      </trkpt>
      <trkpt lat="22.779054" lon="110.059384">
        <ele>132.105423</ele>
        <time>2026-08-16T02:39:21.000Z</time>
      </trkpt>
      <trkpt lat="22.779028" lon="110.059436">
        <ele>132.032458</ele>
        <time>2026-08-16T02:39:22.000Z</time>
      </trkpt>
      <trkpt lat="22.779003" lon="110.059491">
        <ele>131.956820</ele>
        <time>2026-08-16T02:39:23.000Z</time>
      </trkpt>
      <trkpt lat="22.778979" lon="110.059546">
        <ele>131.881765</ele>
        <time>2026-08-16T02:39:24.000Z</time>
      </trkpt>
      <trkpt lat="22.778953" lon="110.059599">
        <ele>131.807713</ele>
        <time>2026-08-16T02:39:25.000Z</time>
      </trkpt>
      <trkpt lat="22.778928" lon="110.059653">
        <ele>131.733180</ele>
        <time>2026-08-16T02:39:26.000Z</time>
      </trkpt>
      <trkpt lat="22.778903" lon="110.059707">
        <ele>131.658647</ele>
        <time>2026-08-16T02:39:27.000Z</time>
      </trkpt>
      <trkpt lat="22.778878" lon="110.059763">
        <ele>131.581901</ele>
        <time>2026-08-16T02:39:28.000Z</time>
      </trkpt>
      <trkpt lat="22.778854" lon="110.059818">
        <ele>131.506845</ele>
        <time>2026-08-16T02:39:29.000Z</time>
      </trkpt>
      <trkpt lat="22.778828" lon="110.059873">
        <ele>131.430607</ele>
        <time>2026-08-16T02:39:30.000Z</time>
      </trkpt>
      <trkpt lat="22.778802" lon="110.059931">
        <ele>131.351057</ele>
        <time>2026-08-16T02:39:31.000Z</time>
      </trkpt>
      <trkpt lat="22.778776" lon="110.059988">
        <ele>131.272616</ele>
        <time>2026-08-16T02:39:32.000Z</time>
      </trkpt>
      <trkpt lat="22.778751" lon="110.060045">
        <ele>131.194758</ele>
        <time>2026-08-16T02:39:33.000Z</time>
      </trkpt>
      <trkpt lat="22.778725" lon="110.060101">
        <ele>131.117419</ele>
        <time>2026-08-16T02:39:34.000Z</time>
      </trkpt>
      <trkpt lat="22.778700" lon="110.060157">
        <ele>131.040673</ele>
        <time>2026-08-16T02:39:35.000Z</time>
      </trkpt>
      <trkpt lat="22.778677" lon="110.060214">
        <ele>130.963927</ele>
        <time>2026-08-16T02:39:36.000Z</time>
      </trkpt>
      <trkpt lat="22.778652" lon="110.060269">
        <ele>130.888289</ele>
        <time>2026-08-16T02:39:37.000Z</time>
      </trkpt>
      <trkpt lat="22.778626" lon="110.060325">
        <ele>130.810951</ele>
        <time>2026-08-16T02:39:38.000Z</time>
      </trkpt>
      <trkpt lat="22.778599" lon="110.060380">
        <ele>130.734093</ele>
        <time>2026-08-16T02:39:39.000Z</time>
      </trkpt>
      <trkpt lat="22.778573" lon="110.060436">
        <ele>130.656754</ele>
        <time>2026-08-16T02:39:40.000Z</time>
      </trkpt>
      <trkpt lat="22.778546" lon="110.060492">
        <ele>130.578805</ele>
        <time>2026-08-16T02:39:41.000Z</time>
      </trkpt>
      <trkpt lat="22.778521" lon="110.060550">
        <ele>130.499831</ele>
        <time>2026-08-16T02:39:42.000Z</time>
      </trkpt>
      <trkpt lat="22.778495" lon="110.060607">
        <ele>130.421389</ele>
        <time>2026-08-16T02:39:43.000Z</time>
      </trkpt>
      <trkpt lat="22.778467" lon="110.060663">
        <ele>130.342811</ele>
        <time>2026-08-16T02:39:44.000Z</time>
      </trkpt>
      <trkpt lat="22.778440" lon="110.060722">
        <ele>130.261565</ele>
        <time>2026-08-16T02:39:45.000Z</time>
      </trkpt>
      <trkpt lat="22.778411" lon="110.060780">
        <ele>130.180180</ele>
        <time>2026-08-16T02:39:46.000Z</time>
      </trkpt>
      <trkpt lat="22.778382" lon="110.060839">
        <ele>130.097709</ele>
        <time>2026-08-16T02:39:47.000Z</time>
      </trkpt>
      <trkpt lat="22.778354" lon="110.060899">
        <ele>130.014761</ele>
        <time>2026-08-16T02:39:48.000Z</time>
      </trkpt>
      <trkpt lat="22.778324" lon="110.060958">
        <ele>129.931652</ele>
        <time>2026-08-16T02:39:49.000Z</time>
      </trkpt>
      <trkpt lat="22.778294" lon="110.061018">
        <ele>129.849325</ele>
        <time>2026-08-16T02:39:50.000Z</time>
      </trkpt>
      <trkpt lat="22.778265" lon="110.061080">
        <ele>129.768794</ele>
        <time>2026-08-16T02:39:51.000Z</time>
      </trkpt>
      <trkpt lat="22.778236" lon="110.061141">
        <ele>129.689294</ele>
        <time>2026-08-16T02:39:52.000Z</time>
      </trkpt>
      <trkpt lat="22.778206" lon="110.061204">
        <ele>129.607160</ele>
        <time>2026-08-16T02:39:53.000Z</time>
      </trkpt>
      <trkpt lat="22.778177" lon="110.061267">
        <ele>129.525594</ele>
        <time>2026-08-16T02:39:54.000Z</time>
      </trkpt>
      <trkpt lat="22.778150" lon="110.061329">
        <ele>129.446169</ele>
        <time>2026-08-16T02:39:55.000Z</time>
      </trkpt>
      <trkpt lat="22.778123" lon="110.061391">
        <ele>129.366743</ele>
        <time>2026-08-16T02:39:56.000Z</time>
      </trkpt>
      <trkpt lat="22.778095" lon="110.061453">
        <ele>129.286773</ele>
        <time>2026-08-16T02:39:57.000Z</time>
      </trkpt>
      <trkpt lat="22.778067" lon="110.061514">
        <ele>129.207841</ele>
        <time>2026-08-16T02:39:58.000Z</time>
      </trkpt>
      <trkpt lat="22.778041" lon="110.061575">
        <ele>129.129997</ele>
        <time>2026-08-16T02:39:59.000Z</time>
      </trkpt>
      <trkpt lat="22.778015" lon="110.061634">
        <ele>129.054249</ele>
        <time>2026-08-16T02:40:00.000Z</time>
      </trkpt>
      <trkpt lat="22.777989" lon="110.061696">
        <ele>128.975351</ele>
        <time>2026-08-16T02:40:01.000Z</time>
      </trkpt>
      <trkpt lat="22.777964" lon="110.061760">
        <ele>128.894838</ele>
        <time>2026-08-16T02:40:02.000Z</time>
      </trkpt>
      <trkpt lat="22.777940" lon="110.061821">
        <ele>128.818014</ele>
        <time>2026-08-16T02:40:03.000Z</time>
      </trkpt>
      <trkpt lat="22.777911" lon="110.061882">
        <ele>128.738514</ele>
        <time>2026-08-16T02:40:04.000Z</time>
      </trkpt>
      <trkpt lat="22.777877" lon="110.061946">
        <ele>128.652954</ele>
        <time>2026-08-16T02:40:05.000Z</time>
      </trkpt>
      <trkpt lat="22.777837" lon="110.062003">
        <ele>128.569979</ele>
        <time>2026-08-16T02:40:06.000Z</time>
      </trkpt>
      <trkpt lat="22.777800" lon="110.062045">
        <ele>128.502691</ele>
        <time>2026-08-16T02:40:07.000Z</time>
      </trkpt>
      <trkpt lat="22.777762" lon="110.062082">
        <ele>128.438534</ele>
        <time>2026-08-16T02:40:08.000Z</time>
      </trkpt>
      <trkpt lat="22.777724" lon="110.062119">
        <ele>128.374377</ele>
        <time>2026-08-16T02:40:09.000Z</time>
      </trkpt>
      <trkpt lat="22.777697" lon="110.062158">
        <ele>128.317884</ele>
        <time>2026-08-16T02:40:10.000Z</time>
      </trkpt>
      <trkpt lat="22.777696" lon="110.062212">
        <ele>128.255320</ele>
        <time>2026-08-16T02:40:11.000Z</time>
      </trkpt>
      <trkpt lat="22.777722" lon="110.062396">
        <ele>128.039694</ele>
        <time>2026-08-16T02:40:13.000Z</time>
      </trkpt>
      <trkpt lat="22.777702" lon="110.062458">
        <ele>127.963607</ele>
        <time>2026-08-16T02:40:14.000Z</time>
      </trkpt>
      <trkpt lat="22.777677" lon="110.062513">
        <ele>127.892576</ele>
        <time>2026-08-16T02:40:15.000Z</time>
      </trkpt>
      <trkpt lat="22.777649" lon="110.062565">
        <ele>127.822822</ele>
        <time>2026-08-16T02:40:16.000Z</time>
      </trkpt>
      <trkpt lat="22.777631" lon="110.062631">
        <ele>127.743096</ele>
        <time>2026-08-16T02:40:17.000Z</time>
      </trkpt>
      <trkpt lat="22.777610" lon="110.062695">
        <ele>127.664407</ele>
        <time>2026-08-16T02:40:18.000Z</time>
      </trkpt>
      <trkpt lat="22.777592" lon="110.062762">
        <ele>127.603030</ele>
        <time>2026-08-16T02:40:19.000Z</time>
      </trkpt>
      <trkpt lat="22.777592" lon="110.062856">
        <ele>127.555048</ele>
        <time>2026-08-16T02:40:20.000Z</time>
      </trkpt>
      <trkpt lat="22.777577" lon="110.062926">
        <ele>127.518363</ele>
        <time>2026-08-16T02:40:21.000Z</time>
      </trkpt>
      <trkpt lat="22.777557" lon="110.062990">
        <ele>127.483869</ele>
        <time>2026-08-16T02:40:22.000Z</time>
      </trkpt>
      <trkpt lat="22.777535" lon="110.063054">
        <ele>127.449003</ele>
        <time>2026-08-16T02:40:23.000Z</time>
      </trkpt>
      <trkpt lat="22.777520" lon="110.063121">
        <ele>127.413808</ele>
        <time>2026-08-16T02:40:24.000Z</time>
      </trkpt>
      <trkpt lat="22.777500" lon="110.063182">
        <ele>127.380761</ele>
        <time>2026-08-16T02:40:25.000Z</time>
      </trkpt>
      <trkpt lat="22.777480" lon="110.063246">
        <ele>127.346266</ele>
        <time>2026-08-16T02:40:26.000Z</time>
      </trkpt>
      <trkpt lat="22.777456" lon="110.063310">
        <ele>127.310998</ele>
        <time>2026-08-16T02:40:27.000Z</time>
      </trkpt>
      <trkpt lat="22.777432" lon="110.063374">
        <ele>127.275730</ele>
        <time>2026-08-16T02:40:28.000Z</time>
      </trkpt>
      <trkpt lat="22.777408" lon="110.063438">
        <ele>127.240462</ele>
        <time>2026-08-16T02:40:29.000Z</time>
      </trkpt>
      <trkpt lat="22.777384" lon="110.063503">
        <ele>127.204721</ele>
        <time>2026-08-16T02:40:30.000Z</time>
      </trkpt>
      <trkpt lat="22.777361" lon="110.063586">
        <ele>127.160481</ele>
        <time>2026-08-16T02:40:31.000Z</time>
      </trkpt>
      <trkpt lat="22.777336" lon="110.063647">
        <ele>127.126405</ele>
        <time>2026-08-16T02:40:32.000Z</time>
      </trkpt>
      <trkpt lat="22.777311" lon="110.063706">
        <ele>127.093260</ele>
        <time>2026-08-16T02:40:33.000Z</time>
      </trkpt>
      <trkpt lat="22.777286" lon="110.063766">
        <ele>127.059651</ele>
        <time>2026-08-16T02:40:34.000Z</time>
      </trkpt>
      <trkpt lat="22.777259" lon="110.063823">
        <ele>127.026939</ele>
        <time>2026-08-16T02:40:35.000Z</time>
      </trkpt>
      <trkpt lat="22.777233" lon="110.063881">
        <ele>126.994019</ele>
        <time>2026-08-16T02:40:36.000Z</time>
      </trkpt>
      <trkpt lat="22.777208" lon="110.063941">
        <ele>126.960410</ele>
        <time>2026-08-16T02:40:37.000Z</time>
      </trkpt>
      <trkpt lat="22.777182" lon="110.064001">
        <ele>126.926568</ele>
        <time>2026-08-16T02:40:38.000Z</time>
      </trkpt>
      <trkpt lat="22.777157" lon="110.064061">
        <ele>126.892958</ele>
        <time>2026-08-16T02:40:39.000Z</time>
      </trkpt>
      <trkpt lat="22.777132" lon="110.064119">
        <ele>126.860276</ele>
        <time>2026-08-16T02:40:40.000Z</time>
      </trkpt>
      <trkpt lat="22.777107" lon="110.064176">
        <ele>126.828056</ele>
        <time>2026-08-16T02:40:41.000Z</time>
      </trkpt>
      <trkpt lat="22.777082" lon="110.064232">
        <ele>126.796296</ele>
        <time>2026-08-16T02:40:42.000Z</time>
      </trkpt>
      <trkpt lat="22.777061" lon="110.064288">
        <ele>126.765437</ele>
        <time>2026-08-16T02:40:43.000Z</time>
      </trkpt>
      <trkpt lat="22.777036" lon="110.064346">
        <ele>126.732754</ele>
        <time>2026-08-16T02:40:44.000Z</time>
      </trkpt>
      <trkpt lat="22.777013" lon="110.064408">
        <ele>126.698640</ele>
        <time>2026-08-16T02:40:45.000Z</time>
      </trkpt>
      <trkpt lat="22.776989" lon="110.064468">
        <ele>126.665255</ele>
        <time>2026-08-16T02:40:46.000Z</time>
      </trkpt>
      <trkpt lat="22.776964" lon="110.064528">
        <ele>126.631645</ele>
        <time>2026-08-16T02:40:47.000Z</time>
      </trkpt>
      <trkpt lat="22.776938" lon="110.064587">
        <ele>126.601384</ele>
        <time>2026-08-16T02:40:48.000Z</time>
      </trkpt>
      <trkpt lat="22.776913" lon="110.064648">
        <ele>126.571681</ele>
        <time>2026-08-16T02:40:49.000Z</time>
      </trkpt>
      <trkpt lat="22.776889" lon="110.064707">
        <ele>126.542986</ele>
        <time>2026-08-16T02:40:50.000Z</time>
      </trkpt>
      <trkpt lat="22.776865" lon="110.064768">
        <ele>126.513475</ele>
        <time>2026-08-16T02:40:51.000Z</time>
      </trkpt>
      <trkpt lat="22.776841" lon="110.064829">
        <ele>126.483964</ele>
        <time>2026-08-16T02:40:52.000Z</time>
      </trkpt>
      <trkpt lat="22.776816" lon="110.064889">
        <ele>126.454667</ele>
        <time>2026-08-16T02:40:53.000Z</time>
      </trkpt>
      <trkpt lat="22.776792" lon="110.064950">
        <ele>126.425156</ele>
        <time>2026-08-16T02:40:54.000Z</time>
      </trkpt>
      <trkpt lat="22.776768" lon="110.065011">
        <ele>126.395645</ele>
        <time>2026-08-16T02:40:55.000Z</time>
      </trkpt>
      <trkpt lat="22.776743" lon="110.065070">
        <ele>126.366752</ele>
        <time>2026-08-16T02:40:56.000Z</time>
      </trkpt>
      <trkpt lat="22.776718" lon="110.065129">
        <ele>126.337859</ele>
        <time>2026-08-16T02:40:57.000Z</time>
      </trkpt>
      <trkpt lat="22.776692" lon="110.065187">
        <ele>126.309162</ele>
        <time>2026-08-16T02:40:58.000Z</time>
      </trkpt>
      <trkpt lat="22.776666" lon="110.065246">
        <ele>126.280065</ele>
        <time>2026-08-16T02:40:59.000Z</time>
      </trkpt>
      <trkpt lat="22.776640" lon="110.065304">
        <ele>126.251368</ele>
        <time>2026-08-16T02:41:00.000Z</time>
      </trkpt>
      <trkpt lat="22.776614" lon="110.065363">
        <ele>126.222270</ele>
        <time>2026-08-16T02:41:01.000Z</time>
      </trkpt>
      <trkpt lat="22.776590" lon="110.065421">
        <ele>126.193982</ele>
        <time>2026-08-16T02:41:02.000Z</time>
      </trkpt>
      <trkpt lat="22.776567" lon="110.065481">
        <ele>126.165068</ele>
        <time>2026-08-16T02:41:03.000Z</time>
      </trkpt>
      <trkpt lat="22.776545" lon="110.065542">
        <ele>126.135923</ele>
        <time>2026-08-16T02:41:04.000Z</time>
      </trkpt>
      <trkpt lat="22.776521" lon="110.065603">
        <ele>126.106412</ele>
        <time>2026-08-16T02:41:05.000Z</time>
      </trkpt>
      <trkpt lat="22.776496" lon="110.065663">
        <ele>126.077114</ele>
        <time>2026-08-16T02:41:06.000Z</time>
      </trkpt>
      <trkpt lat="22.776470" lon="110.065721">
        <ele>126.048417</ele>
        <time>2026-08-16T02:41:07.000Z</time>
      </trkpt>
      <trkpt lat="22.776446" lon="110.065779">
        <ele>126.020129</ele>
        <time>2026-08-16T02:41:08.000Z</time>
      </trkpt>
      <trkpt lat="22.776421" lon="110.065840">
        <ele>125.990425</ele>
        <time>2026-08-16T02:41:09.000Z</time>
      </trkpt>
      <trkpt lat="22.776396" lon="110.065898">
        <ele>125.961936</ele>
        <time>2026-08-16T02:41:10.000Z</time>
      </trkpt>
      <trkpt lat="22.776370" lon="110.065957">
        <ele>125.932838</ele>
        <time>2026-08-16T02:41:11.000Z</time>
      </trkpt>
      <trkpt lat="22.776346" lon="110.066017">
        <ele>125.903736</ele>
        <time>2026-08-16T02:41:12.000Z</time>
      </trkpt>
      <trkpt lat="22.776322" lon="110.066078">
        <ele>125.874225</ele>
        <time>2026-08-16T02:41:13.000Z</time>
      </trkpt>
      <trkpt lat="22.776298" lon="110.066136">
        <ele>125.845937</ele>
        <time>2026-08-16T02:41:14.000Z</time>
      </trkpt>
      <trkpt lat="22.776273" lon="110.066193">
        <ele>125.817850</ele>
        <time>2026-08-16T02:41:15.000Z</time>
      </trkpt>
      <trkpt lat="22.776249" lon="110.066252">
        <ele>125.789155</ele>
        <time>2026-08-16T02:41:16.000Z</time>
      </trkpt>
      <trkpt lat="22.776225" lon="110.066310">
        <ele>125.760867</ele>
        <time>2026-08-16T02:41:17.000Z</time>
      </trkpt>
      <trkpt lat="22.776199" lon="110.066367">
        <ele>125.732911</ele>
        <time>2026-08-16T02:41:18.000Z</time>
      </trkpt>
      <trkpt lat="22.776174" lon="110.066425">
        <ele>125.704863</ele>
        <time>2026-08-16T02:41:19.000Z</time>
      </trkpt>
      <trkpt lat="22.776151" lon="110.066484">
        <ele>125.676801</ele>
        <time>2026-08-16T02:41:20.000Z</time>
      </trkpt>
      <trkpt lat="22.776128" lon="110.066543">
        <ele>125.648740</ele>
        <time>2026-08-16T02:41:21.000Z</time>
      </trkpt>
      <trkpt lat="22.776104" lon="110.066604">
        <ele>125.619686</ele>
        <time>2026-08-16T02:41:22.000Z</time>
      </trkpt>
      <trkpt lat="22.776080" lon="110.066663">
        <ele>125.591436</ele>
        <time>2026-08-16T02:41:23.000Z</time>
      </trkpt>
      <trkpt lat="22.776058" lon="110.066722">
        <ele>125.563556</ele>
        <time>2026-08-16T02:41:24.000Z</time>
      </trkpt>
      <trkpt lat="22.776033" lon="110.066779">
        <ele>125.535905</ele>
        <time>2026-08-16T02:41:25.000Z</time>
      </trkpt>
      <trkpt lat="22.776008" lon="110.066837">
        <ele>125.507857</ele>
        <time>2026-08-16T02:41:26.000Z</time>
      </trkpt>
      <trkpt lat="22.775984" lon="110.066896">
        <ele>125.479607</ele>
        <time>2026-08-16T02:41:27.000Z</time>
      </trkpt>
      <trkpt lat="22.775960" lon="110.066956">
        <ele>125.450956</ele>
        <time>2026-08-16T02:41:28.000Z</time>
      </trkpt>
      <trkpt lat="22.775937" lon="110.067018">
        <ele>125.421679</ele>
        <time>2026-08-16T02:41:29.000Z</time>
      </trkpt>
      <trkpt lat="22.775913" lon="110.067079">
        <ele>125.392625</ele>
        <time>2026-08-16T02:41:30.000Z</time>
      </trkpt>
      <trkpt lat="22.775887" lon="110.067137">
        <ele>125.364373</ele>
        <time>2026-08-16T02:41:31.000Z</time>
      </trkpt>
      <trkpt lat="22.775862" lon="110.067193">
        <ele>125.337117</ele>
        <time>2026-08-16T02:41:32.000Z</time>
      </trkpt>
      <trkpt lat="22.775837" lon="110.067249">
        <ele>125.309860</ele>
        <time>2026-08-16T02:41:33.000Z</time>
      </trkpt>
      <trkpt lat="22.775815" lon="110.067304">
        <ele>125.283596</ele>
        <time>2026-08-16T02:41:34.000Z</time>
      </trkpt>
      <trkpt lat="22.775794" lon="110.067365">
        <ele>125.255072</ele>
        <time>2026-08-16T02:41:35.000Z</time>
      </trkpt>
      <trkpt lat="22.775771" lon="110.067424">
        <ele>125.227010</ele>
        <time>2026-08-16T02:41:36.000Z</time>
      </trkpt>
      <trkpt lat="22.775746" lon="110.067481">
        <ele>125.199359</ele>
        <time>2026-08-16T02:41:37.000Z</time>
      </trkpt>
      <trkpt lat="22.775724" lon="110.067537">
        <ele>125.172692</ele>
        <time>2026-08-16T02:41:38.000Z</time>
      </trkpt>
      <trkpt lat="22.775701" lon="110.067595">
        <ele>125.145034</ele>
        <time>2026-08-16T02:41:39.000Z</time>
      </trkpt>
      <trkpt lat="22.775677" lon="110.067654">
        <ele>125.116784</ele>
        <time>2026-08-16T02:41:40.000Z</time>
      </trkpt>
      <trkpt lat="22.775653" lon="110.067710">
        <ele>125.089731</ele>
        <time>2026-08-16T02:41:41.000Z</time>
      </trkpt>
      <trkpt lat="22.775631" lon="110.067769">
        <ele>125.061851</ele>
        <time>2026-08-16T02:41:42.000Z</time>
      </trkpt>
      <trkpt lat="22.775609" lon="110.067831">
        <ele>125.032748</ele>
        <time>2026-08-16T02:41:43.000Z</time>
      </trkpt>
      <trkpt lat="22.775584" lon="110.067888">
        <ele>125.005097</ele>
        <time>2026-08-16T02:41:44.000Z</time>
      </trkpt>
      <trkpt lat="22.775562" lon="110.067948">
        <ele>124.976810</ele>
        <time>2026-08-16T02:41:45.000Z</time>
      </trkpt>
      <trkpt lat="22.775543" lon="110.068013">
        <ele>124.946938</ele>
        <time>2026-08-16T02:41:46.000Z</time>
      </trkpt>
      <trkpt lat="22.775525" lon="110.068079">
        <ele>124.916787</ele>
        <time>2026-08-16T02:41:47.000Z</time>
      </trkpt>
      <trkpt lat="22.775504" lon="110.068140">
        <ele>124.888862</ele>
        <time>2026-08-16T02:41:48.000Z</time>
      </trkpt>
      <trkpt lat="22.775484" lon="110.068199">
        <ele>124.862734</ele>
        <time>2026-08-16T02:41:49.000Z</time>
      </trkpt>
      <trkpt lat="22.775463" lon="110.068260">
        <ele>124.835670</ele>
        <time>2026-08-16T02:41:50.000Z</time>
      </trkpt>
      <trkpt lat="22.775439" lon="110.068319">
        <ele>124.808866</ele>
        <time>2026-08-16T02:41:51.000Z</time>
      </trkpt>
      <trkpt lat="22.775422" lon="110.068384">
        <ele>124.780783</ele>
        <time>2026-08-16T02:41:52.000Z</time>
      </trkpt>
      <trkpt lat="22.775406" lon="110.068451">
        <ele>124.752015</ele>
        <time>2026-08-16T02:41:53.000Z</time>
      </trkpt>
      <trkpt lat="22.775394" lon="110.068523">
        <ele>124.721604</ele>
        <time>2026-08-16T02:41:54.000Z</time>
      </trkpt>
      <trkpt lat="22.775377" lon="110.068591">
        <ele>124.692319</ele>
        <time>2026-08-16T02:41:55.000Z</time>
      </trkpt>
      <trkpt lat="22.775361" lon="110.068665">
        <ele>124.660726</ele>
        <time>2026-08-16T02:41:56.000Z</time>
      </trkpt>
      <trkpt lat="22.775343" lon="110.068735">
        <ele>124.630521</ele>
        <time>2026-08-16T02:41:57.000Z</time>
      </trkpt>
      <trkpt lat="22.775326" lon="110.068806">
        <ele>124.600031</ele>
        <time>2026-08-16T02:41:58.000Z</time>
      </trkpt>
      <trkpt lat="22.775309" lon="110.068873">
        <ele>124.571147</ele>
        <time>2026-08-16T02:41:59.000Z</time>
      </trkpt>
      <trkpt lat="22.775291" lon="110.068938">
        <ele>124.542938</ele>
        <time>2026-08-16T02:42:00.000Z</time>
      </trkpt>
      <trkpt lat="22.775273" lon="110.069006">
        <ele>124.513532</ele>
        <time>2026-08-16T02:42:01.000Z</time>
      </trkpt>
      <trkpt lat="22.775255" lon="110.069075">
        <ele>124.483726</ele>
        <time>2026-08-16T02:42:02.000Z</time>
      </trkpt>
      <trkpt lat="22.775238" lon="110.069142">
        <ele>124.454842</ele>
        <time>2026-08-16T02:42:03.000Z</time>
      </trkpt>
      <trkpt lat="22.775222" lon="110.069207">
        <ele>124.426879</ele>
        <time>2026-08-16T02:42:04.000Z</time>
      </trkpt>
      <trkpt lat="22.775207" lon="110.069273">
        <ele>124.398625</ele>
        <time>2026-08-16T02:42:05.000Z</time>
      </trkpt>
      <trkpt lat="22.775193" lon="110.069338">
        <ele>124.370880</ele>
        <time>2026-08-16T02:42:06.000Z</time>
      </trkpt>
      <trkpt lat="22.775179" lon="110.069402">
        <ele>124.343540</ele>
        <time>2026-08-16T02:42:07.000Z</time>
      </trkpt>
      <trkpt lat="22.775165" lon="110.069464">
        <ele>124.317008</ele>
        <time>2026-08-16T02:42:08.000Z</time>
      </trkpt>
      <trkpt lat="22.775152" lon="110.069526">
        <ele>124.290580</ele>
        <time>2026-08-16T02:42:09.000Z</time>
      </trkpt>
      <trkpt lat="22.775139" lon="110.069587">
        <ele>124.264557</ele>
        <time>2026-08-16T02:42:10.000Z</time>
      </trkpt>
      <trkpt lat="22.775125" lon="110.069644">
        <ele>124.240039</ele>
        <time>2026-08-16T02:42:11.000Z</time>
      </trkpt>
      <trkpt lat="22.775108" lon="110.069700">
        <ele>124.215533</ele>
        <time>2026-08-16T02:42:12.000Z</time>
      </trkpt>
      <trkpt lat="22.775093" lon="110.069753">
        <ele>124.192489</ele>
        <time>2026-08-16T02:42:13.000Z</time>
      </trkpt>
      <trkpt lat="22.775081" lon="110.069808">
        <ele>124.168997</ele>
        <time>2026-08-16T02:42:14.000Z</time>
      </trkpt>
      <trkpt lat="22.775068" lon="110.069863">
        <ele>124.145397</ele>
        <time>2026-08-16T02:42:15.000Z</time>
      </trkpt>
      <trkpt lat="22.775053" lon="110.069920">
        <ele>124.120759</ele>
        <time>2026-08-16T02:42:16.000Z</time>
      </trkpt>
      <trkpt lat="22.775041" lon="110.069975">
        <ele>124.097267</ele>
        <time>2026-08-16T02:42:17.000Z</time>
      </trkpt>
      <trkpt lat="22.775031" lon="110.070037">
        <ele>124.075554</ele>
        <time>2026-08-16T02:42:18.000Z</time>
      </trkpt>
      <trkpt lat="22.775016" lon="110.070088">
        <ele>124.058789</ele>
        <time>2026-08-16T02:42:19.000Z</time>
      </trkpt>
      <trkpt lat="22.775000" lon="110.070139">
        <ele>124.041917</ele>
        <time>2026-08-16T02:42:20.000Z</time>
      </trkpt>
      <trkpt lat="22.774988" lon="110.070191">
        <ele>124.025129</ele>
        <time>2026-08-16T02:42:21.000Z</time>
      </trkpt>
      <trkpt lat="22.774966" lon="110.070232">
        <ele>124.010273</ele>
        <time>2026-08-16T02:42:22.000Z</time>
      </trkpt>
      <trkpt lat="22.774943" lon="110.070277">
        <ele>123.994159</ele>
        <time>2026-08-16T02:42:23.000Z</time>
      </trkpt>
      <trkpt lat="22.774926" lon="110.070325">
        <ele>123.978056</ele>
        <time>2026-08-16T02:42:24.000Z</time>
      </trkpt>
      <trkpt lat="22.774912" lon="110.070381">
        <ele>123.959884</ele>
        <time>2026-08-16T02:42:25.000Z</time>
      </trkpt>
      <trkpt lat="22.774898" lon="110.070441">
        <ele>123.940501</ele>
        <time>2026-08-16T02:42:26.000Z</time>
      </trkpt>
      <trkpt lat="22.774886" lon="110.070504">
        <ele>123.920354</ele>
        <time>2026-08-16T02:42:27.000Z</time>
      </trkpt>
      <trkpt lat="22.774873" lon="110.070565">
        <ele>123.900746</ele>
        <time>2026-08-16T02:42:28.000Z</time>
      </trkpt>
      <trkpt lat="22.774860" lon="110.070621">
        <ele>123.882661</ele>
        <time>2026-08-16T02:42:29.000Z</time>
      </trkpt>
      <trkpt lat="22.774848" lon="110.070679">
        <ele>123.864044</ele>
        <time>2026-08-16T02:42:30.000Z</time>
      </trkpt>
      <trkpt lat="22.774839" lon="110.070741">
        <ele>123.844388</ele>
        <time>2026-08-16T02:42:31.000Z</time>
      </trkpt>
      <trkpt lat="22.774829" lon="110.070799">
        <ele>123.825909</ele>
        <time>2026-08-16T02:42:32.000Z</time>
      </trkpt>
      <trkpt lat="22.774815" lon="110.070852">
        <ele>123.808642</ele>
        <time>2026-08-16T02:42:33.000Z</time>
      </trkpt>
      <trkpt lat="22.774802" lon="110.070908">
        <ele>123.790557</ele>
        <time>2026-08-16T02:42:34.000Z</time>
      </trkpt>
      <trkpt lat="22.774788" lon="110.070964">
        <ele>123.772385</ele>
        <time>2026-08-16T02:42:35.000Z</time>
      </trkpt>
      <trkpt lat="22.774774" lon="110.071022">
        <ele>123.753609</ele>
        <time>2026-08-16T02:42:36.000Z</time>
      </trkpt>
      <trkpt lat="22.774754" lon="110.071077">
        <ele>123.735092</ele>
        <time>2026-08-16T02:42:37.000Z</time>
      </trkpt>
      <trkpt lat="22.774740" lon="110.071133">
        <ele>123.716921</ele>
        <time>2026-08-16T02:42:38.000Z</time>
      </trkpt>
      <trkpt lat="22.774723" lon="110.071184">
        <ele>123.699937</ele>
        <time>2026-08-16T02:42:39.000Z</time>
      </trkpt>
      <trkpt lat="22.774708" lon="110.071240">
        <ele>123.681674</ele>
        <time>2026-08-16T02:42:40.000Z</time>
      </trkpt>
      <trkpt lat="22.774691" lon="110.071297">
        <ele>123.662912</ele>
        <time>2026-08-16T02:42:41.000Z</time>
      </trkpt>
      <trkpt lat="22.774677" lon="110.071353">
        <ele>123.644740</ele>
        <time>2026-08-16T02:42:42.000Z</time>
      </trkpt>
      <trkpt lat="22.774660" lon="110.071407">
        <ele>123.626870</ele>
        <time>2026-08-16T02:42:43.000Z</time>
      </trkpt>
      <trkpt lat="22.774648" lon="110.071464">
        <ele>123.608559</ele>
        <time>2026-08-16T02:42:44.000Z</time>
      </trkpt>
      <trkpt lat="22.774638" lon="110.071518">
        <ele>123.591309</ele>
        <time>2026-08-16T02:42:45.000Z</time>
      </trkpt>
      <trkpt lat="22.774629" lon="110.071576">
        <ele>123.572889</ele>
        <time>2026-08-16T02:42:46.000Z</time>
      </trkpt>
      <trkpt lat="22.774620" lon="110.071636">
        <ele>123.553851</ele>
        <time>2026-08-16T02:42:47.000Z</time>
      </trkpt>
      <trkpt lat="22.774610" lon="110.071696">
        <ele>123.534756</ele>
        <time>2026-08-16T02:42:48.000Z</time>
      </trkpt>
      <trkpt lat="22.774596" lon="110.071752">
        <ele>123.516585</ele>
        <time>2026-08-16T02:42:49.000Z</time>
      </trkpt>
      <trkpt lat="22.774585" lon="110.071805">
        <ele>123.499571</ele>
        <time>2026-08-16T02:42:50.000Z</time>
      </trkpt>
      <trkpt lat="22.774574" lon="110.071860">
        <ele>123.481945</ele>
        <time>2026-08-16T02:42:51.000Z</time>
      </trkpt>
      <trkpt lat="22.774559" lon="110.071913">
        <ele>123.477141</ele>
        <time>2026-08-16T02:42:52.000Z</time>
      </trkpt>
      <trkpt lat="22.774547" lon="110.071964">
        <ele>123.475843</ele>
        <time>2026-08-16T02:42:53.000Z</time>
      </trkpt>
      <trkpt lat="22.774534" lon="110.072015">
        <ele>123.474537</ele>
        <time>2026-08-16T02:42:54.000Z</time>
      </trkpt>
      <trkpt lat="22.774520" lon="110.072066">
        <ele>123.473224</ele>
        <time>2026-08-16T02:42:55.000Z</time>
      </trkpt>
      <trkpt lat="22.774507" lon="110.072116">
        <ele>123.471943</ele>
        <time>2026-08-16T02:42:56.000Z</time>
      </trkpt>
      <trkpt lat="22.774496" lon="110.072169">
        <ele>123.470603</ele>
        <time>2026-08-16T02:42:57.000Z</time>
      </trkpt>
      <trkpt lat="22.774484" lon="110.072221">
        <ele>123.469280</ele>
        <time>2026-08-16T02:42:58.000Z</time>
      </trkpt>
      <trkpt lat="22.774468" lon="110.072269">
        <ele>123.468021</ele>
        <time>2026-08-16T02:42:59.000Z</time>
      </trkpt>
      <trkpt lat="22.774453" lon="110.072317">
        <ele>123.466771</ele>
        <time>2026-08-16T02:43:00.000Z</time>
      </trkpt>
      <trkpt lat="22.774440" lon="110.072371">
        <ele>123.465394</ele>
        <time>2026-08-16T02:43:01.000Z</time>
      </trkpt>
      <trkpt lat="22.774428" lon="110.072426">
        <ele>123.463999</ele>
        <time>2026-08-16T02:43:02.000Z</time>
      </trkpt>
      <trkpt lat="22.774412" lon="110.072480">
        <ele>123.462600</ele>
        <time>2026-08-16T02:43:03.000Z</time>
      </trkpt>
      <trkpt lat="22.774398" lon="110.072535">
        <ele>123.461192</ele>
        <time>2026-08-16T02:43:04.000Z</time>
      </trkpt>
      <trkpt lat="22.774386" lon="110.072589">
        <ele>123.459822</ele>
        <time>2026-08-16T02:43:05.000Z</time>
      </trkpt>
      <trkpt lat="22.774373" lon="110.072641">
        <ele>123.458493</ele>
        <time>2026-08-16T02:43:06.000Z</time>
      </trkpt>
      <trkpt lat="22.774362" lon="110.072695">
        <ele>123.457128</ele>
        <time>2026-08-16T02:43:07.000Z</time>
      </trkpt>
      <trkpt lat="22.774349" lon="110.072750">
        <ele>123.455728</ele>
        <time>2026-08-16T02:43:08.000Z</time>
      </trkpt>
      <trkpt lat="22.774336" lon="110.072806">
        <ele>123.454303</ele>
        <time>2026-08-16T02:43:09.000Z</time>
      </trkpt>
      <trkpt lat="22.774318" lon="110.072859">
        <ele>123.452910</ele>
        <time>2026-08-16T02:43:10.000Z</time>
      </trkpt>
      <trkpt lat="22.774303" lon="110.072916">
        <ele>123.451447</ele>
        <time>2026-08-16T02:43:11.000Z</time>
      </trkpt>
      <trkpt lat="22.774288" lon="110.072970">
        <ele>123.450056</ele>
        <time>2026-08-16T02:43:12.000Z</time>
      </trkpt>
      <trkpt lat="22.774273" lon="110.073022">
        <ele>123.448712</ele>
        <time>2026-08-16T02:43:13.000Z</time>
      </trkpt>
      <trkpt lat="22.774255" lon="110.073070">
        <ele>123.447433</ele>
        <time>2026-08-16T02:43:14.000Z</time>
      </trkpt>
      <trkpt lat="22.774243" lon="110.073122">
        <ele>123.446111</ele>
        <time>2026-08-16T02:43:15.000Z</time>
      </trkpt>
      <trkpt lat="22.774228" lon="110.073172">
        <ele>123.444814</ele>
        <time>2026-08-16T02:43:16.000Z</time>
      </trkpt>
      <trkpt lat="22.774220" lon="110.073225">
        <ele>123.443489</ele>
        <time>2026-08-16T02:43:17.000Z</time>
      </trkpt>
      <trkpt lat="22.774206" lon="110.073274">
        <ele>123.442223</ele>
        <time>2026-08-16T02:43:18.000Z</time>
      </trkpt>
      <trkpt lat="22.774195" lon="110.073324">
        <ele>123.440955</ele>
        <time>2026-08-16T02:43:19.000Z</time>
      </trkpt>
      <trkpt lat="22.774182" lon="110.073376">
        <ele>123.439626</ele>
        <time>2026-08-16T02:43:20.000Z</time>
      </trkpt>
      <trkpt lat="22.774170" lon="110.073426">
        <ele>123.438351</ele>
        <time>2026-08-16T02:43:21.000Z</time>
      </trkpt>
      <trkpt lat="22.774157" lon="110.073475">
        <ele>123.437093</ele>
        <time>2026-08-16T02:43:22.000Z</time>
      </trkpt>
      <trkpt lat="22.774145" lon="110.073525">
        <ele>123.435819</ele>
        <time>2026-08-16T02:43:23.000Z</time>
      </trkpt>
      <trkpt lat="22.774135" lon="110.073575">
        <ele>123.434556</ele>
        <time>2026-08-16T02:43:24.000Z</time>
      </trkpt>
      <trkpt lat="22.774125" lon="110.073623">
        <ele>123.433342</ele>
        <time>2026-08-16T02:43:25.000Z</time>
      </trkpt>
      <trkpt lat="22.774112" lon="110.073672">
        <ele>123.432084</ele>
        <time>2026-08-16T02:43:26.000Z</time>
      </trkpt>
      <trkpt lat="22.774100" lon="110.073721">
        <ele>123.430834</ele>
        <time>2026-08-16T02:43:27.000Z</time>
      </trkpt>
      <trkpt lat="22.774090" lon="110.073771">
        <ele>123.435409</ele>
        <time>2026-08-16T02:43:28.000Z</time>
      </trkpt>
      <trkpt lat="22.774081" lon="110.073822">
        <ele>123.448567</ele>
        <time>2026-08-16T02:43:29.000Z</time>
      </trkpt>
      <trkpt lat="22.774070" lon="110.073875">
        <ele>123.462333</ele>
        <time>2026-08-16T02:43:30.000Z</time>
      </trkpt>
      <trkpt lat="22.774056" lon="110.073926">
        <ele>123.475817</ele>
        <time>2026-08-16T02:43:31.000Z</time>
      </trkpt>
      <trkpt lat="22.774044" lon="110.073978">
        <ele>123.489400</ele>
        <time>2026-08-16T02:43:32.000Z</time>
      </trkpt>
      <trkpt lat="22.774031" lon="110.074032">
        <ele>123.503543</ele>
        <time>2026-08-16T02:43:33.000Z</time>
      </trkpt>
      <trkpt lat="22.774016" lon="110.074085">
        <ele>123.517591</ele>
        <time>2026-08-16T02:43:34.000Z</time>
      </trkpt>
      <trkpt lat="22.774001" lon="110.074132">
        <ele>123.530194</ele>
        <time>2026-08-16T02:43:35.000Z</time>
      </trkpt>
      <trkpt lat="22.773989" lon="110.074178">
        <ele>123.542308</ele>
        <time>2026-08-16T02:43:36.000Z</time>
      </trkpt>
      <trkpt lat="22.773976" lon="110.074222">
        <ele>123.554017</ele>
        <time>2026-08-16T02:43:37.000Z</time>
      </trkpt>
      <trkpt lat="22.773964" lon="110.074264">
        <ele>123.565159</ele>
        <time>2026-08-16T02:43:38.000Z</time>
      </trkpt>
      <trkpt lat="22.773952" lon="110.074313">
        <ele>123.578006</ele>
        <time>2026-08-16T02:43:39.000Z</time>
      </trkpt>
      <trkpt lat="22.773938" lon="110.074359">
        <ele>123.590281</ele>
        <time>2026-08-16T02:43:40.000Z</time>
      </trkpt>
      <trkpt lat="22.773921" lon="110.074407">
        <ele>123.603311</ele>
        <time>2026-08-16T02:43:41.000Z</time>
      </trkpt>
      <trkpt lat="22.773904" lon="110.074453">
        <ele>123.615868</ele>
        <time>2026-08-16T02:43:42.000Z</time>
      </trkpt>
      <trkpt lat="22.773887" lon="110.074499">
        <ele>123.628426</ele>
        <time>2026-08-16T02:43:43.000Z</time>
      </trkpt>
      <trkpt lat="22.773867" lon="110.074550">
        <ele>123.642470</ele>
        <time>2026-08-16T02:43:44.000Z</time>
      </trkpt>
      <trkpt lat="22.773846" lon="110.074596">
        <ele>123.655477</ele>
        <time>2026-08-16T02:43:45.000Z</time>
      </trkpt>
      <trkpt lat="22.773826" lon="110.074644">
        <ele>123.668825</ele>
        <time>2026-08-16T02:43:46.000Z</time>
      </trkpt>
      <trkpt lat="22.773804" lon="110.074692">
        <ele>123.682408</ele>
        <time>2026-08-16T02:43:47.000Z</time>
      </trkpt>
      <trkpt lat="22.773780" lon="110.074740">
        <ele>123.696244</ele>
        <time>2026-08-16T02:43:48.000Z</time>
      </trkpt>
      <trkpt lat="22.773757" lon="110.074789">
        <ele>123.710177</ele>
        <time>2026-08-16T02:43:49.000Z</time>
      </trkpt>
      <trkpt lat="22.773731" lon="110.074837">
        <ele>123.724284</ele>
        <time>2026-08-16T02:43:50.000Z</time>
      </trkpt>
      <trkpt lat="22.773706" lon="110.074885">
        <ele>123.738254</ele>
        <time>2026-08-16T02:43:51.000Z</time>
      </trkpt>
      <trkpt lat="22.773683" lon="110.074934">
        <ele>123.752187</ele>
        <time>2026-08-16T02:43:52.000Z</time>
      </trkpt>
      <trkpt lat="22.773656" lon="110.074985">
        <ele>123.767089</ele>
        <time>2026-08-16T02:43:53.000Z</time>
      </trkpt>
      <trkpt lat="22.773629" lon="110.075035">
        <ele>123.781772</ele>
        <time>2026-08-16T02:43:54.000Z</time>
      </trkpt>
      <trkpt lat="22.773602" lon="110.075082">
        <ele>123.795805</ele>
        <time>2026-08-16T02:43:55.000Z</time>
      </trkpt>
      <trkpt lat="22.773574" lon="110.075128">
        <ele>123.809772</ele>
        <time>2026-08-16T02:43:56.000Z</time>
      </trkpt>
      <trkpt lat="22.773546" lon="110.075176">
        <ele>123.824165</ele>
        <time>2026-08-16T02:43:57.000Z</time>
      </trkpt>
      <trkpt lat="22.773516" lon="110.075221">
        <ele>123.838236</ele>
        <time>2026-08-16T02:43:58.000Z</time>
      </trkpt>
      <trkpt lat="22.773485" lon="110.075262">
        <ele>123.851672</ele>
        <time>2026-08-16T02:43:59.000Z</time>
      </trkpt>
      <trkpt lat="22.773460" lon="110.075313">
        <ele>123.866309</ele>
        <time>2026-08-16T02:44:00.000Z</time>
      </trkpt>
      <trkpt lat="22.773437" lon="110.075365">
        <ele>123.880923</ele>
        <time>2026-08-16T02:44:01.000Z</time>
      </trkpt>
      <trkpt lat="22.773413" lon="110.075416">
        <ele>123.895433</ele>
        <time>2026-08-16T02:44:02.000Z</time>
      </trkpt>
      <trkpt lat="22.773389" lon="110.075466">
        <ele>123.909717</ele>
        <time>2026-08-16T02:44:03.000Z</time>
      </trkpt>
      <trkpt lat="22.773366" lon="110.075515">
        <ele>123.923650</ele>
        <time>2026-08-16T02:44:04.000Z</time>
      </trkpt>
      <trkpt lat="22.773343" lon="110.075567">
        <ele>123.875551</ele>
        <time>2026-08-16T02:44:05.000Z</time>
      </trkpt>
      <trkpt lat="22.773316" lon="110.075613">
        <ele>123.826845</ele>
        <time>2026-08-16T02:44:06.000Z</time>
      </trkpt>
      <trkpt lat="22.773288" lon="110.075655">
        <ele>123.780553</ele>
        <time>2026-08-16T02:44:07.000Z</time>
      </trkpt>
      <trkpt lat="22.773262" lon="110.075696">
        <ele>123.736107</ele>
        <time>2026-08-16T02:44:08.000Z</time>
      </trkpt>
      <trkpt lat="22.773239" lon="110.075741">
        <ele>123.690151</ele>
        <time>2026-08-16T02:44:09.000Z</time>
      </trkpt>
      <trkpt lat="22.773218" lon="110.075786">
        <ele>123.645103</ele>
        <time>2026-08-16T02:44:10.000Z</time>
      </trkpt>
      <trkpt lat="22.773197" lon="110.075830">
        <ele>123.600850</ele>
        <time>2026-08-16T02:44:11.000Z</time>
      </trkpt>
      <trkpt lat="22.773178" lon="110.075876">
        <ele>123.555829</ele>
        <time>2026-08-16T02:44:12.000Z</time>
      </trkpt>
      <trkpt lat="22.773160" lon="110.075921">
        <ele>123.512016</ele>
        <time>2026-08-16T02:44:13.000Z</time>
      </trkpt>
      <trkpt lat="22.773141" lon="110.075964">
        <ele>123.469427</ele>
        <time>2026-08-16T02:44:14.000Z</time>
      </trkpt>
      <trkpt lat="22.773124" lon="110.076008">
        <ele>123.426816</ele>
        <time>2026-08-16T02:44:15.000Z</time>
      </trkpt>
      <trkpt lat="22.773107" lon="110.076053">
        <ele>123.383379</ele>
        <time>2026-08-16T02:44:16.000Z</time>
      </trkpt>
      <trkpt lat="22.773092" lon="110.076101">
        <ele>123.338111</ele>
        <time>2026-08-16T02:44:17.000Z</time>
      </trkpt>
      <trkpt lat="22.773072" lon="110.076146">
        <ele>123.293491</ele>
        <time>2026-08-16T02:44:18.000Z</time>
      </trkpt>
      <trkpt lat="22.773057" lon="110.076191">
        <ele>123.250752</ele>
        <time>2026-08-16T02:44:19.000Z</time>
      </trkpt>
      <trkpt lat="22.773047" lon="110.076242">
        <ele>123.204181</ele>
        <time>2026-08-16T02:44:20.000Z</time>
      </trkpt>
      <trkpt lat="22.773031" lon="110.076287">
        <ele>123.161102</ele>
        <time>2026-08-16T02:44:21.000Z</time>
      </trkpt>
      <trkpt lat="22.773014" lon="110.076332">
        <ele>123.117666</ele>
        <time>2026-08-16T02:44:22.000Z</time>
      </trkpt>
      <trkpt lat="22.772996" lon="110.076373">
        <ele>123.077106</ele>
        <time>2026-08-16T02:44:23.000Z</time>
      </trkpt>
      <trkpt lat="22.772984" lon="110.076416">
        <ele>123.036978</ele>
        <time>2026-08-16T02:44:24.000Z</time>
      </trkpt>
      <trkpt lat="22.772971" lon="110.076465">
        <ele>122.991436</ele>
        <time>2026-08-16T02:44:25.000Z</time>
      </trkpt>
      <trkpt lat="22.772957" lon="110.076515">
        <ele>122.944763</ele>
        <time>2026-08-16T02:44:26.000Z</time>
      </trkpt>
      <trkpt lat="22.772943" lon="110.076567">
        <ele>122.896377</ele>
        <time>2026-08-16T02:44:27.000Z</time>
      </trkpt>
      <trkpt lat="22.772928" lon="110.076617">
        <ele>122.849413</ele>
        <time>2026-08-16T02:44:28.000Z</time>
      </trkpt>
      <trkpt lat="22.772912" lon="110.076673">
        <ele>122.797048</ele>
        <time>2026-08-16T02:44:29.000Z</time>
      </trkpt>
      <trkpt lat="22.772898" lon="110.076728">
        <ele>122.746085</ele>
        <time>2026-08-16T02:44:30.000Z</time>
      </trkpt>
      <trkpt lat="22.772885" lon="110.076782">
        <ele>122.696236</ele>
        <time>2026-08-16T02:44:31.000Z</time>
      </trkpt>
      <trkpt lat="22.772868" lon="110.076841">
        <ele>122.641024</ele>
        <time>2026-08-16T02:44:32.000Z</time>
      </trkpt>
      <trkpt lat="22.772850" lon="110.076899">
        <ele>122.586363</ele>
        <time>2026-08-16T02:44:33.000Z</time>
      </trkpt>
      <trkpt lat="22.772831" lon="110.076959">
        <ele>122.529699</ele>
        <time>2026-08-16T02:44:34.000Z</time>
      </trkpt>
      <trkpt lat="22.772816" lon="110.077020">
        <ele>122.473310</ele>
        <time>2026-08-16T02:44:35.000Z</time>
      </trkpt>
      <trkpt lat="22.772801" lon="110.077081">
        <ele>122.416921</ele>
        <time>2026-08-16T02:44:36.000Z</time>
      </trkpt>
      <trkpt lat="22.772780" lon="110.077136">
        <ele>122.363750</ele>
        <time>2026-08-16T02:44:37.000Z</time>
      </trkpt>
      <trkpt lat="22.772760" lon="110.077195">
        <ele>122.307604</ele>
        <time>2026-08-16T02:44:38.000Z</time>
      </trkpt>
      <trkpt lat="22.772734" lon="110.077264">
        <ele>122.241026</ele>
        <time>2026-08-16T02:44:39.000Z</time>
      </trkpt>
      <trkpt lat="22.772701" lon="110.077331">
        <ele>122.172057</ele>
        <time>2026-08-16T02:44:40.000Z</time>
      </trkpt>
      <trkpt lat="22.772663" lon="110.077394">
        <ele>122.096316</ele>
        <time>2026-08-16T02:44:41.000Z</time>
      </trkpt>
      <trkpt lat="22.772619" lon="110.077450">
        <ele>122.022293</ele>
        <time>2026-08-16T02:44:42.000Z</time>
      </trkpt>
      <trkpt lat="22.772572" lon="110.077502">
        <ele>121.949032</ele>
        <time>2026-08-16T02:44:43.000Z</time>
      </trkpt>
      <trkpt lat="22.772522" lon="110.077555">
        <ele>121.872743</ele>
        <time>2026-08-16T02:44:44.000Z</time>
      </trkpt>
      <trkpt lat="22.772475" lon="110.077609">
        <ele>121.798032</ele>
        <time>2026-08-16T02:44:45.000Z</time>
      </trkpt>
      <trkpt lat="22.772428" lon="110.077659">
        <ele>121.726194</ele>
        <time>2026-08-16T02:44:46.000Z</time>
      </trkpt>
      <trkpt lat="22.772378" lon="110.077708">
        <ele>121.652662</ele>
        <time>2026-08-16T02:44:47.000Z</time>
      </trkpt>
      <trkpt lat="22.772333" lon="110.077759">
        <ele>121.581642</ele>
        <time>2026-08-16T02:44:48.000Z</time>
      </trkpt>
      <trkpt lat="22.772286" lon="110.077808">
        <ele>121.510505</ele>
        <time>2026-08-16T02:44:49.000Z</time>
      </trkpt>
      <trkpt lat="22.772242" lon="110.077855">
        <ele>121.443118</ele>
        <time>2026-08-16T02:44:50.000Z</time>
      </trkpt>
      <trkpt lat="22.772194" lon="110.077898">
        <ele>121.375185</ele>
        <time>2026-08-16T02:44:51.000Z</time>
      </trkpt>
      <trkpt lat="22.772146" lon="110.077943">
        <ele>121.305954</ele>
        <time>2026-08-16T02:44:52.000Z</time>
      </trkpt>
      <trkpt lat="22.772103" lon="110.077990">
        <ele>121.239339</ele>
        <time>2026-08-16T02:44:53.000Z</time>
      </trkpt>
      <trkpt lat="22.772062" lon="110.078038">
        <ele>121.173509</ele>
        <time>2026-08-16T02:44:54.000Z</time>
      </trkpt>
      <trkpt lat="22.772019" lon="110.078084">
        <ele>121.107605</ele>
        <time>2026-08-16T02:44:55.000Z</time>
      </trkpt>
      <trkpt lat="22.771976" lon="110.078129">
        <ele>121.042403</ele>
        <time>2026-08-16T02:44:56.000Z</time>
      </trkpt>
      <trkpt lat="22.771937" lon="110.078170">
        <ele>120.983137</ele>
        <time>2026-08-16T02:44:57.000Z</time>
      </trkpt>
      <trkpt lat="22.771901" lon="110.078217">
        <ele>120.921662</ele>
        <time>2026-08-16T02:44:58.000Z</time>
      </trkpt>
      <trkpt lat="22.771864" lon="110.078261">
        <ele>120.861749</ele>
        <time>2026-08-16T02:44:59.000Z</time>
      </trkpt>
      <trkpt lat="22.771822" lon="110.078300">
        <ele>120.801417</ele>
        <time>2026-08-16T02:45:00.000Z</time>
      </trkpt>
      <trkpt lat="22.771779" lon="110.078339">
        <ele>120.740253</ele>
        <time>2026-08-16T02:45:01.000Z</time>
      </trkpt>
      <trkpt lat="22.771738" lon="110.078380">
        <ele>120.679400</ele>
        <time>2026-08-16T02:45:02.000Z</time>
      </trkpt>
      <trkpt lat="22.771693" lon="110.078420">
        <ele>120.615913</ele>
        <time>2026-08-16T02:45:03.000Z</time>
      </trkpt>
      <trkpt lat="22.771650" lon="110.078466">
        <ele>120.550009</ele>
        <time>2026-08-16T02:45:04.000Z</time>
      </trkpt>
      <trkpt lat="22.771603" lon="110.078506">
        <ele>120.484819</ele>
        <time>2026-08-16T02:45:05.000Z</time>
      </trkpt>
      <trkpt lat="22.771555" lon="110.078546">
        <ele>120.418768</ele>
        <time>2026-08-16T02:45:06.000Z</time>
      </trkpt>
      <trkpt lat="22.771509" lon="110.078588">
        <ele>120.353156</ele>
        <time>2026-08-16T02:45:07.000Z</time>
      </trkpt>
      <trkpt lat="22.771464" lon="110.078633">
        <ele>120.286366</ele>
        <time>2026-08-16T02:45:08.000Z</time>
      </trkpt>
      <trkpt lat="22.771417" lon="110.078673">
        <ele>120.221177</ele>
        <time>2026-08-16T02:45:09.000Z</time>
      </trkpt>
      <trkpt lat="22.771373" lon="110.078715">
        <ele>120.230475</ele>
        <time>2026-08-16T02:45:10.000Z</time>
      </trkpt>
      <trkpt lat="22.771329" lon="110.078756">
        <ele>120.241690</ele>
        <time>2026-08-16T02:45:11.000Z</time>
      </trkpt>
      <trkpt lat="22.771284" lon="110.078793">
        <ele>120.252608</ele>
        <time>2026-08-16T02:45:12.000Z</time>
      </trkpt>
      <trkpt lat="22.771239" lon="110.078828">
        <ele>120.263313</ele>
        <time>2026-08-16T02:45:13.000Z</time>
      </trkpt>
      <trkpt lat="22.771194" lon="110.078863">
        <ele>120.274019</ele>
        <time>2026-08-16T02:45:14.000Z</time>
      </trkpt>
      <trkpt lat="22.771154" lon="110.078902">
        <ele>120.284418</ele>
        <time>2026-08-16T02:45:15.000Z</time>
      </trkpt>
      <trkpt lat="22.771114" lon="110.078937">
        <ele>120.294355</ele>
        <time>2026-08-16T02:45:16.000Z</time>
      </trkpt>
      <trkpt lat="22.771073" lon="110.078970">
        <ele>120.304226</ele>
        <time>2026-08-16T02:45:17.000Z</time>
      </trkpt>
      <trkpt lat="22.771031" lon="110.078995">
        <ele>120.313488</ele>
        <time>2026-08-16T02:45:18.000Z</time>
      </trkpt>
      <trkpt lat="22.770993" lon="110.079030">
        <ele>120.323127</ele>
        <time>2026-08-16T02:45:19.000Z</time>
      </trkpt>
      <trkpt lat="22.770954" lon="110.079062">
        <ele>120.332582</ele>
        <time>2026-08-16T02:45:20.000Z</time>
      </trkpt>
      <trkpt lat="22.770917" lon="110.079097">
        <ele>120.342074</ele>
        <time>2026-08-16T02:45:21.000Z</time>
      </trkpt>
      <trkpt lat="22.770882" lon="110.079132">
        <ele>120.351278</ele>
        <time>2026-08-16T02:45:22.000Z</time>
      </trkpt>
      <trkpt lat="22.770849" lon="110.079167">
        <ele>120.360201</ele>
        <time>2026-08-16T02:45:23.000Z</time>
      </trkpt>
      <trkpt lat="22.770815" lon="110.079202">
        <ele>120.369264</ele>
        <time>2026-08-16T02:45:24.000Z</time>
      </trkpt>
      <trkpt lat="22.770777" lon="110.079231">
        <ele>120.378248</ele>
        <time>2026-08-16T02:45:25.000Z</time>
      </trkpt>
      <trkpt lat="22.770741" lon="110.079265">
        <ele>120.387477</ele>
        <time>2026-08-16T02:45:26.000Z</time>
      </trkpt>
      <trkpt lat="22.770711" lon="110.079293">
        <ele>120.395129</ele>
        <time>2026-08-16T02:45:27.000Z</time>
      </trkpt>
      <trkpt lat="22.770680" lon="110.079325">
        <ele>120.403403</ele>
        <time>2026-08-16T02:45:28.000Z</time>
      </trkpt>
      <trkpt lat="22.770641" lon="110.079359">
        <ele>120.413077</ele>
        <time>2026-08-16T02:45:29.000Z</time>
      </trkpt>
      <trkpt lat="22.770603" lon="110.079395">
        <ele>120.422832</ele>
        <time>2026-08-16T02:45:30.000Z</time>
      </trkpt>
      <trkpt lat="22.770565" lon="110.079430">
        <ele>120.432470</ele>
        <time>2026-08-16T02:45:31.000Z</time>
      </trkpt>
      <trkpt lat="22.770524" lon="110.079462">
        <ele>120.442236</ele>
        <time>2026-08-16T02:45:32.000Z</time>
      </trkpt>
      <trkpt lat="22.770485" lon="110.079498">
        <ele>120.452138</ele>
        <time>2026-08-16T02:45:33.000Z</time>
      </trkpt>
      <trkpt lat="22.770445" lon="110.079536">
        <ele>120.462418</ele>
        <time>2026-08-16T02:45:34.000Z</time>
      </trkpt>
      <trkpt lat="22.770406" lon="110.079572">
        <ele>120.472319</ele>
        <time>2026-08-16T02:45:35.000Z</time>
      </trkpt>
      <trkpt lat="22.770376" lon="110.079611">
        <ele>120.481373</ele>
        <time>2026-08-16T02:45:36.000Z</time>
      </trkpt>
      <trkpt lat="22.770334" lon="110.079630">
        <ele>120.490172</ele>
        <time>2026-08-16T02:45:37.000Z</time>
      </trkpt>
      <trkpt lat="22.770289" lon="110.079648">
        <ele>120.499444</ele>
        <time>2026-08-16T02:45:38.000Z</time>
      </trkpt>
      <trkpt lat="22.770251" lon="110.079674">
        <ele>120.508131</ele>
        <time>2026-08-16T02:45:39.000Z</time>
      </trkpt>
      <trkpt lat="22.770215" lon="110.079707">
        <ele>120.517244</ele>
        <time>2026-08-16T02:45:40.000Z</time>
      </trkpt>
      <trkpt lat="22.770179" lon="110.079741">
        <ele>120.526473</ele>
        <time>2026-08-16T02:45:41.000Z</time>
      </trkpt>
      <trkpt lat="22.770141" lon="110.079775">
        <ele>120.535997</ele>
        <time>2026-08-16T02:45:42.000Z</time>
      </trkpt>
      <trkpt lat="22.770101" lon="110.079804">
        <ele>120.545299</ele>
        <time>2026-08-16T02:45:43.000Z</time>
      </trkpt>
      <trkpt lat="22.770060" lon="110.079836">
        <ele>120.555065</ele>
        <time>2026-08-16T02:45:44.000Z</time>
      </trkpt>
      <trkpt lat="22.770018" lon="110.079868">
        <ele>120.564989</ele>
        <time>2026-08-16T02:45:45.000Z</time>
      </trkpt>
      <trkpt lat="22.769980" lon="110.079901">
        <ele>120.569810</ele>
        <time>2026-08-16T02:45:46.000Z</time>
      </trkpt>
      <trkpt lat="22.769941" lon="110.079933">
        <ele>120.573249</ele>
        <time>2026-08-16T02:45:47.000Z</time>
      </trkpt>
      <trkpt lat="22.769904" lon="110.079965">
        <ele>120.576577</ele>
        <time>2026-08-16T02:45:48.000Z</time>
      </trkpt>
      <trkpt lat="22.769864" lon="110.079996">
        <ele>120.580034</ele>
        <time>2026-08-16T02:45:49.000Z</time>
      </trkpt>
      <trkpt lat="22.769826" lon="110.080026">
        <ele>120.583339</ele>
        <time>2026-08-16T02:45:50.000Z</time>
      </trkpt>
      <trkpt lat="22.769787" lon="110.080058">
        <ele>120.586778</ele>
        <time>2026-08-16T02:45:51.000Z</time>
      </trkpt>
      <trkpt lat="22.769748" lon="110.080087">
        <ele>120.590104</ele>
        <time>2026-08-16T02:45:52.000Z</time>
      </trkpt>
      <trkpt lat="22.769708" lon="110.080114">
        <ele>120.593417</ele>
        <time>2026-08-16T02:45:53.000Z</time>
      </trkpt>
      <trkpt lat="22.769668" lon="110.080144">
        <ele>120.596837</ele>
        <time>2026-08-16T02:45:54.000Z</time>
      </trkpt>
      <trkpt lat="22.769629" lon="110.080174">
        <ele>120.600199</ele>
        <time>2026-08-16T02:45:55.000Z</time>
      </trkpt>
      <trkpt lat="22.769587" lon="110.080203">
        <ele>120.603701</ele>
        <time>2026-08-16T02:45:56.000Z</time>
      </trkpt>
      <trkpt lat="22.769546" lon="110.080232">
        <ele>120.607143</ele>
        <time>2026-08-16T02:45:57.000Z</time>
      </trkpt>
      <trkpt lat="22.769507" lon="110.080263">
        <ele>120.610543</ele>
        <time>2026-08-16T02:45:58.000Z</time>
      </trkpt>
      <trkpt lat="22.769469" lon="110.080300">
        <ele>120.614134</ele>
        <time>2026-08-16T02:45:59.000Z</time>
      </trkpt>
      <trkpt lat="22.769431" lon="110.080334">
        <ele>120.617599</ele>
        <time>2026-08-16T02:46:00.000Z</time>
      </trkpt>
      <trkpt lat="22.769388" lon="110.080365">
        <ele>120.621230</ele>
        <time>2026-08-16T02:46:01.000Z</time>
      </trkpt>
      <trkpt lat="22.769345" lon="110.080396">
        <ele>120.624861</ele>
        <time>2026-08-16T02:46:02.000Z</time>
      </trkpt>
      <trkpt lat="22.769301" lon="110.080425">
        <ele>120.628482</ele>
        <time>2026-08-16T02:46:03.000Z</time>
      </trkpt>
      <trkpt lat="22.769260" lon="110.080454">
        <ele>120.631924</ele>
        <time>2026-08-16T02:46:04.000Z</time>
      </trkpt>
      <trkpt lat="22.769218" lon="110.080485">
        <ele>120.635496</ele>
        <time>2026-08-16T02:46:05.000Z</time>
      </trkpt>
      <trkpt lat="22.769176" lon="110.080516">
        <ele>120.639069</ele>
        <time>2026-08-16T02:46:06.000Z</time>
      </trkpt>
      <trkpt lat="22.769135" lon="110.080547">
        <ele>120.642584</ele>
        <time>2026-08-16T02:46:07.000Z</time>
      </trkpt>
      <trkpt lat="22.769094" lon="110.080579">
        <ele>120.646136</ele>
        <time>2026-08-16T02:46:08.000Z</time>
      </trkpt>
      <trkpt lat="22.769054" lon="110.080607">
        <ele>120.649484</ele>
        <time>2026-08-16T02:46:09.000Z</time>
      </trkpt>
      <trkpt lat="22.769013" lon="110.080634">
        <ele>120.652857</ele>
        <time>2026-08-16T02:46:10.000Z</time>
      </trkpt>
      <trkpt lat="22.768972" lon="110.080661">
        <ele>120.656230</ele>
        <time>2026-08-16T02:46:11.000Z</time>
      </trkpt>
      <trkpt lat="22.768930" lon="110.080689">
        <ele>120.659697</ele>
        <time>2026-08-16T02:46:12.000Z</time>
      </trkpt>
      <trkpt lat="22.768888" lon="110.080721">
        <ele>120.663307</ele>
        <time>2026-08-16T02:46:13.000Z</time>
      </trkpt>
      <trkpt lat="22.768844" lon="110.080752">
        <ele>120.666997</ele>
        <time>2026-08-16T02:46:14.000Z</time>
      </trkpt>
      <trkpt lat="22.768806" lon="110.080779">
        <ele>120.670191</ele>
        <time>2026-08-16T02:46:15.000Z</time>
      </trkpt>
      <trkpt lat="22.768766" lon="110.080800">
        <ele>120.673317</ele>
        <time>2026-08-16T02:46:16.000Z</time>
      </trkpt>
      <trkpt lat="22.768724" lon="110.080824">
        <ele>120.676655</ele>
        <time>2026-08-16T02:46:17.000Z</time>
      </trkpt>
      <trkpt lat="22.768689" lon="110.080881">
        <ele>120.681096</ele>
        <time>2026-08-16T02:46:18.000Z</time>
      </trkpt>
      <trkpt lat="22.768645" lon="110.080909">
        <ele>120.684683</ele>
        <time>2026-08-16T02:46:19.000Z</time>
      </trkpt>
      <trkpt lat="22.768602" lon="110.080934">
        <ele>120.688114</ele>
        <time>2026-08-16T02:46:20.000Z</time>
      </trkpt>
      <trkpt lat="22.768559" lon="110.080958">
        <ele>120.691515</ele>
        <time>2026-08-16T02:46:21.000Z</time>
      </trkpt>
      <trkpt lat="22.768516" lon="110.080980">
        <ele>120.689738</ele>
        <time>2026-08-16T02:46:22.000Z</time>
      </trkpt>
      <trkpt lat="22.768471" lon="110.080996">
        <ele>120.678715</ele>
        <time>2026-08-16T02:46:23.000Z</time>
      </trkpt>
      <trkpt lat="22.768427" lon="110.081015">
        <ele>120.667692</ele>
        <time>2026-08-16T02:46:24.000Z</time>
      </trkpt>
      <trkpt lat="22.768381" lon="110.081046">
        <ele>120.655087</ele>
        <time>2026-08-16T02:46:25.000Z</time>
      </trkpt>
      <trkpt lat="22.768332" lon="110.081074">
        <ele>120.642196</ele>
        <time>2026-08-16T02:46:26.000Z</time>
      </trkpt>
      <trkpt lat="22.768283" lon="110.081094">
        <ele>120.630010</ele>
        <time>2026-08-16T02:46:27.000Z</time>
      </trkpt>
      <trkpt lat="22.768240" lon="110.081126">
        <ele>120.617871</ele>
        <time>2026-08-16T02:46:28.000Z</time>
      </trkpt>
      <trkpt lat="22.768203" lon="110.081170">
        <ele>120.605091</ele>
        <time>2026-08-16T02:46:29.000Z</time>
      </trkpt>
      <trkpt lat="22.768170" lon="110.081218">
        <ele>120.592241</ele>
        <time>2026-08-16T02:46:30.000Z</time>
      </trkpt>
      <trkpt lat="22.768127" lon="110.081244">
        <ele>120.580782</ele>
        <time>2026-08-16T02:46:31.000Z</time>
      </trkpt>
      <trkpt lat="22.768084" lon="110.081274">
        <ele>120.568882</ele>
        <time>2026-08-16T02:46:32.000Z</time>
      </trkpt>
      <trkpt lat="22.768042" lon="110.081304">
        <ele>120.557176</ele>
        <time>2026-08-16T02:46:33.000Z</time>
      </trkpt>
      <trkpt lat="22.768001" lon="110.081330">
        <ele>120.546122</ele>
        <time>2026-08-16T02:46:34.000Z</time>
      </trkpt>
      <trkpt lat="22.767960" lon="110.081356">
        <ele>120.535067</ele>
        <time>2026-08-16T02:46:35.000Z</time>
      </trkpt>
      <trkpt lat="22.767918" lon="110.081386">
        <ele>120.523362</ele>
        <time>2026-08-16T02:46:36.000Z</time>
      </trkpt>
      <trkpt lat="22.767876" lon="110.081419">
        <ele>120.511290</ele>
        <time>2026-08-16T02:46:37.000Z</time>
      </trkpt>
      <trkpt lat="22.767842" lon="110.081462">
        <ele>120.499133</ele>
        <time>2026-08-16T02:46:38.000Z</time>
      </trkpt>
      <trkpt lat="22.767803" lon="110.081489">
        <ele>120.488364</ele>
        <time>2026-08-16T02:46:39.000Z</time>
      </trkpt>
      <trkpt lat="22.767765" lon="110.081522">
        <ele>120.477033</ele>
        <time>2026-08-16T02:46:40.000Z</time>
      </trkpt>
      <trkpt lat="22.767732" lon="110.081562">
        <ele>120.465514</ele>
        <time>2026-08-16T02:46:41.000Z</time>
      </trkpt>
      <trkpt lat="22.767698" lon="110.081600">
        <ele>120.454150</ele>
        <time>2026-08-16T02:46:42.000Z</time>
      </trkpt>
      <trkpt lat="22.767664" lon="110.081641">
        <ele>120.442315</ele>
        <time>2026-08-16T02:46:43.000Z</time>
      </trkpt>
      <trkpt lat="22.767630" lon="110.081682">
        <ele>120.430481</ele>
        <time>2026-08-16T02:46:44.000Z</time>
      </trkpt>
      <trkpt lat="22.767592" lon="110.081718">
        <ele>120.418737</ele>
        <time>2026-08-16T02:46:45.000Z</time>
      </trkpt>
      <trkpt lat="22.767554" lon="110.081755">
        <ele>120.406850</ele>
        <time>2026-08-16T02:46:46.000Z</time>
      </trkpt>
      <trkpt lat="22.767515" lon="110.081791">
        <ele>120.394930</ele>
        <time>2026-08-16T02:46:47.000Z</time>
      </trkpt>
      <trkpt lat="22.767475" lon="110.081827">
        <ele>120.382832</ele>
        <time>2026-08-16T02:46:48.000Z</time>
      </trkpt>
      <trkpt lat="22.767435" lon="110.081860">
        <ele>120.371134</ele>
        <time>2026-08-16T02:46:49.000Z</time>
      </trkpt>
      <trkpt lat="22.767391" lon="110.081892">
        <ele>120.358803</ele>
        <time>2026-08-16T02:46:50.000Z</time>
      </trkpt>
      <trkpt lat="22.767347" lon="110.081922">
        <ele>120.346706</ele>
        <time>2026-08-16T02:46:51.000Z</time>
      </trkpt>
      <trkpt lat="22.767301" lon="110.081950">
        <ele>120.334428</ele>
        <time>2026-08-16T02:46:52.000Z</time>
      </trkpt>
      <trkpt lat="22.767254" lon="110.081978">
        <ele>120.321947</ele>
        <time>2026-08-16T02:46:53.000Z</time>
      </trkpt>
      <trkpt lat="22.767206" lon="110.082006">
        <ele>120.309261</ele>
        <time>2026-08-16T02:46:54.000Z</time>
      </trkpt>
      <trkpt lat="22.767156" lon="110.082037">
        <ele>120.295856</ele>
        <time>2026-08-16T02:46:55.000Z</time>
      </trkpt>
      <trkpt lat="22.767107" lon="110.082070">
        <ele>120.282431</ele>
        <time>2026-08-16T02:46:56.000Z</time>
      </trkpt>
      <trkpt lat="22.767059" lon="110.082105">
        <ele>120.259296</ele>
        <time>2026-08-16T02:46:57.000Z</time>
      </trkpt>
      <trkpt lat="22.767009" lon="110.082142">
        <ele>120.222724</ele>
        <time>2026-08-16T02:46:58.000Z</time>
      </trkpt>
      <trkpt lat="22.766963" lon="110.082176">
        <ele>120.189091</ele>
        <time>2026-08-16T02:46:59.000Z</time>
      </trkpt>
      <trkpt lat="22.766916" lon="110.082209">
        <ele>120.155263</ele>
        <time>2026-08-16T02:47:00.000Z</time>
      </trkpt>
      <trkpt lat="22.766869" lon="110.082241">
        <ele>120.121734</ele>
        <time>2026-08-16T02:47:01.000Z</time>
      </trkpt>
      <trkpt lat="22.766822" lon="110.082277">
        <ele>120.086969</ele>
        <time>2026-08-16T02:47:02.000Z</time>
      </trkpt>
      <trkpt lat="22.766775" lon="110.082317">
        <ele>120.050872</ele>
        <time>2026-08-16T02:47:03.000Z</time>
      </trkpt>
      <trkpt lat="22.766727" lon="110.082358">
        <ele>120.013956</ele>
        <time>2026-08-16T02:47:04.000Z</time>
      </trkpt>
      <trkpt lat="22.766677" lon="110.082397">
        <ele>119.976745</ele>
        <time>2026-08-16T02:47:05.000Z</time>
      </trkpt>
      <trkpt lat="22.766625" lon="110.082437">
        <ele>119.938227</ele>
        <time>2026-08-16T02:47:06.000Z</time>
      </trkpt>
      <trkpt lat="22.766573" lon="110.082478">
        <ele>119.899384</ele>
        <time>2026-08-16T02:47:07.000Z</time>
      </trkpt>
      <trkpt lat="22.766521" lon="110.082520">
        <ele>119.860211</ele>
        <time>2026-08-16T02:47:08.000Z</time>
      </trkpt>
      <trkpt lat="22.766470" lon="110.082562">
        <ele>119.821520</ele>
        <time>2026-08-16T02:47:09.000Z</time>
      </trkpt>
      <trkpt lat="22.766420" lon="110.082602">
        <ele>119.783981</ele>
        <time>2026-08-16T02:47:10.000Z</time>
      </trkpt>
      <trkpt lat="22.766373" lon="110.082641">
        <ele>119.748226</ele>
        <time>2026-08-16T02:47:11.000Z</time>
      </trkpt>
      <trkpt lat="22.766326" lon="110.082681">
        <ele>119.712129</ele>
        <time>2026-08-16T02:47:12.000Z</time>
      </trkpt>
      <trkpt lat="22.766278" lon="110.082722">
        <ele>119.675213</ele>
        <time>2026-08-16T02:47:13.000Z</time>
      </trkpt>
      <trkpt lat="22.766234" lon="110.082765">
        <ele>119.639428</ele>
        <time>2026-08-16T02:47:14.000Z</time>
      </trkpt>
      <trkpt lat="22.766187" lon="110.082806">
        <ele>119.602985</ele>
        <time>2026-08-16T02:47:15.000Z</time>
      </trkpt>
      <trkpt lat="22.766138" lon="110.082849">
        <ele>119.564902</ele>
        <time>2026-08-16T02:47:16.000Z</time>
      </trkpt>
      <trkpt lat="22.766090" lon="110.082891">
        <ele>119.527638</ele>
        <time>2026-08-16T02:47:17.000Z</time>
      </trkpt>
      <trkpt lat="22.766043" lon="110.082933">
        <ele>119.490843</ele>
        <time>2026-08-16T02:47:18.000Z</time>
      </trkpt>
      <trkpt lat="22.765992" lon="110.082973">
        <ele>119.452816</ele>
        <time>2026-08-16T02:47:19.000Z</time>
      </trkpt>
      <trkpt lat="22.765942" lon="110.083016">
        <ele>119.414262</ele>
        <time>2026-08-16T02:47:20.000Z</time>
      </trkpt>
      <trkpt lat="22.765892" lon="110.083060">
        <ele>119.375358</ele>
        <time>2026-08-16T02:47:21.000Z</time>
      </trkpt>
      <trkpt lat="22.765842" lon="110.083104">
        <ele>119.336455</ele>
        <time>2026-08-16T02:47:22.000Z</time>
      </trkpt>
      <trkpt lat="22.765791" lon="110.083149">
        <ele>119.296731</ele>
        <time>2026-08-16T02:47:23.000Z</time>
      </trkpt>
      <trkpt lat="22.765739" lon="110.083194">
        <ele>119.256537</ele>
        <time>2026-08-16T02:47:24.000Z</time>
      </trkpt>
      <trkpt lat="22.765688" lon="110.083238">
        <ele>119.217163</ele>
        <time>2026-08-16T02:47:25.000Z</time>
      </trkpt>
      <trkpt lat="22.765638" lon="110.083284">
        <ele>119.175139</ele>
        <time>2026-08-16T02:47:26.000Z</time>
      </trkpt>
      <trkpt lat="22.765586" lon="110.083328">
        <ele>119.126379</ele>
        <time>2026-08-16T02:47:27.000Z</time>
      </trkpt>
      <trkpt lat="22.765532" lon="110.083369">
        <ele>119.077646</ele>
        <time>2026-08-16T02:47:28.000Z</time>
      </trkpt>
      <trkpt lat="22.765476" lon="110.083409">
        <ele>119.028072</ele>
        <time>2026-08-16T02:47:29.000Z</time>
      </trkpt>
      <trkpt lat="22.765423" lon="110.083449">
        <ele>118.980336</ele>
        <time>2026-08-16T02:47:30.000Z</time>
      </trkpt>
      <trkpt lat="22.765370" lon="110.083488">
        <ele>118.932985</ele>
        <time>2026-08-16T02:47:31.000Z</time>
      </trkpt>
      <trkpt lat="22.765315" lon="110.083532">
        <ele>118.882458</ele>
        <time>2026-08-16T02:47:32.000Z</time>
      </trkpt>
      <trkpt lat="22.765264" lon="110.083578">
        <ele>118.833418</ele>
        <time>2026-08-16T02:47:33.000Z</time>
      </trkpt>
      <trkpt lat="22.765220" lon="110.083635">
        <ele>118.782743</ele>
        <time>2026-08-16T02:47:34.000Z</time>
      </trkpt>
      <trkpt lat="22.765171" lon="110.083680">
        <ele>118.735274</ele>
        <time>2026-08-16T02:47:35.000Z</time>
      </trkpt>
      <trkpt lat="22.765123" lon="110.083724">
        <ele>118.688810</ele>
        <time>2026-08-16T02:47:36.000Z</time>
      </trkpt>
      <trkpt lat="22.765073" lon="110.083767">
        <ele>118.641634</ele>
        <time>2026-08-16T02:47:37.000Z</time>
      </trkpt>
      <trkpt lat="22.765022" lon="110.083812">
        <ele>118.593027</ele>
        <time>2026-08-16T02:47:38.000Z</time>
      </trkpt>
      <trkpt lat="22.764970" lon="110.083856">
        <ele>118.544267</ele>
        <time>2026-08-16T02:47:39.000Z</time>
      </trkpt>
      <trkpt lat="22.764922" lon="110.083902">
        <ele>118.496911</ele>
        <time>2026-08-16T02:47:40.000Z</time>
      </trkpt>
      <trkpt lat="22.764876" lon="110.083952">
        <ele>118.448762</ele>
        <time>2026-08-16T02:47:41.000Z</time>
      </trkpt>
      <trkpt lat="22.764831" lon="110.084001">
        <ele>118.401619</ele>
        <time>2026-08-16T02:47:42.000Z</time>
      </trkpt>
      <trkpt lat="22.764784" lon="110.084046">
        <ele>118.355268</ele>
        <time>2026-08-16T02:47:43.000Z</time>
      </trkpt>
      <trkpt lat="22.764738" lon="110.084089">
        <ele>118.310371</ele>
        <time>2026-08-16T02:47:44.000Z</time>
      </trkpt>
      <trkpt lat="22.764693" lon="110.084132">
        <ele>118.266031</ele>
        <time>2026-08-16T02:47:45.000Z</time>
      </trkpt>
      <trkpt lat="22.764648" lon="110.084175">
        <ele>118.221692</ele>
        <time>2026-08-16T02:47:46.000Z</time>
      </trkpt>
      <trkpt lat="22.764603" lon="110.084218">
        <ele>118.177352</ele>
        <time>2026-08-16T02:47:47.000Z</time>
      </trkpt>
      <trkpt lat="22.764558" lon="110.084257">
        <ele>118.134766</ele>
        <time>2026-08-16T02:47:48.000Z</time>
      </trkpt>
      <trkpt lat="22.764513" lon="110.084298">
        <ele>118.091315</ele>
        <time>2026-08-16T02:47:49.000Z</time>
      </trkpt>
      <trkpt lat="22.764466" lon="110.084336">
        <ele>118.047975</ele>
        <time>2026-08-16T02:47:50.000Z</time>
      </trkpt>
      <trkpt lat="22.764419" lon="110.084375">
        <ele>118.004224</ele>
        <time>2026-08-16T02:47:51.000Z</time>
      </trkpt>
      <trkpt lat="22.764372" lon="110.084413">
        <ele>117.960884</ele>
        <time>2026-08-16T02:47:52.000Z</time>
      </trkpt>
      <trkpt lat="22.764325" lon="110.084451">
        <ele>117.917543</ele>
        <time>2026-08-16T02:47:53.000Z</time>
      </trkpt>
      <trkpt lat="22.764280" lon="110.084489">
        <ele>117.875379</ele>
        <time>2026-08-16T02:47:54.000Z</time>
      </trkpt>
      <trkpt lat="22.764235" lon="110.084526">
        <ele>117.856200</ele>
        <time>2026-08-16T02:47:55.000Z</time>
      </trkpt>
      <trkpt lat="22.764191" lon="110.084564">
        <ele>117.852198</ele>
        <time>2026-08-16T02:47:56.000Z</time>
      </trkpt>
      <trkpt lat="22.764145" lon="110.084603">
        <ele>117.848043</ele>
        <time>2026-08-16T02:47:57.000Z</time>
      </trkpt>
      <trkpt lat="22.764099" lon="110.084642">
        <ele>117.843888</ele>
        <time>2026-08-16T02:47:58.000Z</time>
      </trkpt>
      <trkpt lat="22.764052" lon="110.084676">
        <ele>117.839868</ele>
        <time>2026-08-16T02:47:59.000Z</time>
      </trkpt>
      <trkpt lat="22.764005" lon="110.084711">
        <ele>117.835810</ele>
        <time>2026-08-16T02:48:00.000Z</time>
      </trkpt>
      <trkpt lat="22.763962" lon="110.084751">
        <ele>117.831779</ele>
        <time>2026-08-16T02:48:01.000Z</time>
      </trkpt>
      <trkpt lat="22.763916" lon="110.084790">
        <ele>117.827624</ele>
        <time>2026-08-16T02:48:02.000Z</time>
      </trkpt>
      <trkpt lat="22.763871" lon="110.084828">
        <ele>117.823566</ele>
        <time>2026-08-16T02:48:03.000Z</time>
      </trkpt>
      <trkpt lat="22.763826" lon="110.084867">
        <ele>117.819467</ele>
        <time>2026-08-16T02:48:04.000Z</time>
      </trkpt>
      <trkpt lat="22.763779" lon="110.084906">
        <ele>117.815255</ele>
        <time>2026-08-16T02:48:05.000Z</time>
      </trkpt>
      <trkpt lat="22.763734" lon="110.084942">
        <ele>117.811276</ele>
        <time>2026-08-16T02:48:06.000Z</time>
      </trkpt>
      <trkpt lat="22.763689" lon="110.084978">
        <ele>117.807297</ele>
        <time>2026-08-16T02:48:07.000Z</time>
      </trkpt>
      <trkpt lat="22.763643" lon="110.085017">
        <ele>117.803142</ele>
        <time>2026-08-16T02:48:08.000Z</time>
      </trkpt>
      <trkpt lat="22.763597" lon="110.085055">
        <ele>117.799027</ele>
        <time>2026-08-16T02:48:09.000Z</time>
      </trkpt>
      <trkpt lat="22.763551" lon="110.085092">
        <ele>117.794952</ele>
        <time>2026-08-16T02:48:10.000Z</time>
      </trkpt>
      <trkpt lat="22.763506" lon="110.085131">
        <ele>117.790853</ele>
        <time>2026-08-16T02:48:11.000Z</time>
      </trkpt>
      <trkpt lat="22.763458" lon="110.085172">
        <ele>117.786505</ele>
        <time>2026-08-16T02:48:12.000Z</time>
      </trkpt>
      <trkpt lat="22.763412" lon="110.085215">
        <ele>117.782183</ele>
        <time>2026-08-16T02:48:13.000Z</time>
      </trkpt>
      <trkpt lat="22.763365" lon="110.085255">
        <ele>117.777932</ele>
        <time>2026-08-16T02:48:14.000Z</time>
      </trkpt>
      <trkpt lat="22.763317" lon="110.085293">
        <ele>117.773703</ele>
        <time>2026-08-16T02:48:15.000Z</time>
      </trkpt>
      <trkpt lat="22.763271" lon="110.085334">
        <ele>117.769466</ele>
        <time>2026-08-16T02:48:16.000Z</time>
      </trkpt>
      <trkpt lat="22.763224" lon="110.085373">
        <ele>117.765255</ele>
        <time>2026-08-16T02:48:17.000Z</time>
      </trkpt>
      <trkpt lat="22.763178" lon="110.085412">
        <ele>117.761100</ele>
        <time>2026-08-16T02:48:18.000Z</time>
      </trkpt>
      <trkpt lat="22.763130" lon="110.085452">
        <ele>117.756792</ele>
        <time>2026-08-16T02:48:19.000Z</time>
      </trkpt>
      <trkpt lat="22.763082" lon="110.085492">
        <ele>117.752485</ele>
        <time>2026-08-16T02:48:20.000Z</time>
      </trkpt>
      <trkpt lat="22.763035" lon="110.085532">
        <ele>117.748233</ele>
        <time>2026-08-16T02:48:21.000Z</time>
      </trkpt>
      <trkpt lat="22.762989" lon="110.085572">
        <ele>117.744037</ele>
        <time>2026-08-16T02:48:22.000Z</time>
      </trkpt>
      <trkpt lat="22.762943" lon="110.085611">
        <ele>117.739883</ele>
        <time>2026-08-16T02:48:23.000Z</time>
      </trkpt>
      <trkpt lat="22.762898" lon="110.085653">
        <ele>117.735658</ele>
        <time>2026-08-16T02:48:24.000Z</time>
      </trkpt>
      <trkpt lat="22.762852" lon="110.085694">
        <ele>117.731421</ele>
        <time>2026-08-16T02:48:25.000Z</time>
      </trkpt>
      <trkpt lat="22.762810" lon="110.085735">
        <ele>117.729843</ele>
        <time>2026-08-16T02:48:26.000Z</time>
      </trkpt>
      <trkpt lat="22.762765" lon="110.085774">
        <ele>117.728860</ele>
        <time>2026-08-16T02:48:27.000Z</time>
      </trkpt>
      <trkpt lat="22.762720" lon="110.085811">
        <ele>117.727896</ele>
        <time>2026-08-16T02:48:28.000Z</time>
      </trkpt>
      <trkpt lat="22.762674" lon="110.085847">
        <ele>117.726928</ele>
        <time>2026-08-16T02:48:29.000Z</time>
      </trkpt>
      <trkpt lat="22.762628" lon="110.085883">
        <ele>117.725960</ele>
        <time>2026-08-16T02:48:30.000Z</time>
      </trkpt>
      <trkpt lat="22.762582" lon="110.085921">
        <ele>117.724973</ele>
        <time>2026-08-16T02:48:31.000Z</time>
      </trkpt>
      <trkpt lat="22.762537" lon="110.085960">
        <ele>117.723990</ele>
        <time>2026-08-16T02:48:32.000Z</time>
      </trkpt>
      <trkpt lat="22.762491" lon="110.086000">
        <ele>117.722984</ele>
        <time>2026-08-16T02:48:33.000Z</time>
      </trkpt>
      <trkpt lat="22.762447" lon="110.086040">
        <ele>117.722004</ele>
        <time>2026-08-16T02:48:34.000Z</time>
      </trkpt>
      <trkpt lat="22.762404" lon="110.086079">
        <ele>117.721047</ele>
        <time>2026-08-16T02:48:35.000Z</time>
      </trkpt>
      <trkpt lat="22.762361" lon="110.086121">
        <ele>117.720059</ele>
        <time>2026-08-16T02:48:36.000Z</time>
      </trkpt>
      <trkpt lat="22.762316" lon="110.086161">
        <ele>117.719066</ele>
        <time>2026-08-16T02:48:37.000Z</time>
      </trkpt>
      <trkpt lat="22.762271" lon="110.086198">
        <ele>117.718103</ele>
        <time>2026-08-16T02:48:38.000Z</time>
      </trkpt>
      <trkpt lat="22.762224" lon="110.086236">
        <ele>117.717102</ele>
        <time>2026-08-16T02:48:39.000Z</time>
      </trkpt>
      <trkpt lat="22.762178" lon="110.086273">
        <ele>117.716125</ele>
        <time>2026-08-16T02:48:40.000Z</time>
      </trkpt>
      <trkpt lat="22.762132" lon="110.086311">
        <ele>117.715138</ele>
        <time>2026-08-16T02:48:41.000Z</time>
      </trkpt>
      <trkpt lat="22.762086" lon="110.086350">
        <ele>117.714141</ele>
        <time>2026-08-16T02:48:42.000Z</time>
      </trkpt>
      <trkpt lat="22.762040" lon="110.086389">
        <ele>117.713145</ele>
        <time>2026-08-16T02:48:43.000Z</time>
      </trkpt>
      <trkpt lat="22.761994" lon="110.086428">
        <ele>117.712148</ele>
        <time>2026-08-16T02:48:44.000Z</time>
      </trkpt>
      <trkpt lat="22.761950" lon="110.086469">
        <ele>117.711158</ele>
        <time>2026-08-16T02:48:45.000Z</time>
      </trkpt>
      <trkpt lat="22.761907" lon="110.086509">
        <ele>117.710192</ele>
        <time>2026-08-16T02:48:46.000Z</time>
      </trkpt>
      <trkpt lat="22.761863" lon="110.086550">
        <ele>117.709202</ele>
        <time>2026-08-16T02:48:47.000Z</time>
      </trkpt>
      <trkpt lat="22.761821" lon="110.086595">
        <ele>117.708194</ele>
        <time>2026-08-16T02:48:48.000Z</time>
      </trkpt>
      <trkpt lat="22.761779" lon="110.086638">
        <ele>117.707208</ele>
        <time>2026-08-16T02:48:49.000Z</time>
      </trkpt>
      <trkpt lat="22.761733" lon="110.086675">
        <ele>117.706231</ele>
        <time>2026-08-16T02:48:50.000Z</time>
      </trkpt>
      <trkpt lat="22.761686" lon="110.086711">
        <ele>117.705249</ele>
        <time>2026-08-16T02:48:51.000Z</time>
      </trkpt>
      <trkpt lat="22.761641" lon="110.086749">
        <ele>117.704275</ele>
        <time>2026-08-16T02:48:52.000Z</time>
      </trkpt>
      <trkpt lat="22.761596" lon="110.086788">
        <ele>117.703292</ele>
        <time>2026-08-16T02:48:53.000Z</time>
      </trkpt>
      <trkpt lat="22.761550" lon="110.086825">
        <ele>117.702315</ele>
        <time>2026-08-16T02:48:54.000Z</time>
      </trkpt>
      <trkpt lat="22.761505" lon="110.086865">
        <ele>117.701322</ele>
        <time>2026-08-16T02:48:55.000Z</time>
      </trkpt>
      <trkpt lat="22.761460" lon="110.086903">
        <ele>117.700349</ele>
        <time>2026-08-16T02:48:56.000Z</time>
      </trkpt>
      <trkpt lat="22.761416" lon="110.086941">
        <ele>117.678388</ele>
        <time>2026-08-16T02:48:57.000Z</time>
      </trkpt>
      <trkpt lat="22.761372" lon="110.086980">
        <ele>117.638927</ele>
        <time>2026-08-16T02:48:58.000Z</time>
      </trkpt>
      <trkpt lat="22.761327" lon="110.087020">
        <ele>117.598523</ele>
        <time>2026-08-16T02:48:59.000Z</time>
      </trkpt>
      <trkpt lat="22.761283" lon="110.087058">
        <ele>117.559465</ele>
        <time>2026-08-16T02:49:00.000Z</time>
      </trkpt>
      <trkpt lat="22.761239" lon="110.087097">
        <ele>117.520004</ele>
        <time>2026-08-16T02:49:01.000Z</time>
      </trkpt>
      <trkpt lat="22.761195" lon="110.087135">
        <ele>117.480945</ele>
        <time>2026-08-16T02:49:02.000Z</time>
      </trkpt>
      <trkpt lat="22.761151" lon="110.087172">
        <ele>117.442282</ele>
        <time>2026-08-16T02:49:03.000Z</time>
      </trkpt>
      <trkpt lat="22.761108" lon="110.087211">
        <ele>117.403356</ele>
        <time>2026-08-16T02:49:04.000Z</time>
      </trkpt>
      <trkpt lat="22.761063" lon="110.087250">
        <ele>117.363355</ele>
        <time>2026-08-16T02:49:05.000Z</time>
      </trkpt>
      <trkpt lat="22.761018" lon="110.087289">
        <ele>117.323354</ele>
        <time>2026-08-16T02:49:06.000Z</time>
      </trkpt>
      <trkpt lat="22.760974" lon="110.087328">
        <ele>117.283893</ele>
        <time>2026-08-16T02:49:07.000Z</time>
      </trkpt>
      <trkpt lat="22.760929" lon="110.087367">
        <ele>117.243892</ele>
        <time>2026-08-16T02:49:08.000Z</time>
      </trkpt>
      <trkpt lat="22.760885" lon="110.087407">
        <ele>117.204023</ele>
        <time>2026-08-16T02:49:09.000Z</time>
      </trkpt>
      <trkpt lat="22.760841" lon="110.087446">
        <ele>117.164562</ele>
        <time>2026-08-16T02:49:10.000Z</time>
      </trkpt>
      <trkpt lat="22.760795" lon="110.087484">
        <ele>117.124408</ele>
        <time>2026-08-16T02:49:11.000Z</time>
      </trkpt>
      <trkpt lat="22.760751" lon="110.087524">
        <ele>117.084539</ele>
        <time>2026-08-16T02:49:12.000Z</time>
      </trkpt>
      <trkpt lat="22.760708" lon="110.087568">
        <ele>117.043485</ele>
        <time>2026-08-16T02:49:13.000Z</time>
      </trkpt>
      <trkpt lat="22.760664" lon="110.087610">
        <ele>117.002782</ele>
        <time>2026-08-16T02:49:14.000Z</time>
      </trkpt>
      <trkpt lat="22.760617" lon="110.087651">
        <ele>116.960896</ele>
        <time>2026-08-16T02:49:15.000Z</time>
      </trkpt>
      <trkpt lat="22.760566" lon="110.087682">
        <ele>116.920298</ele>
        <time>2026-08-16T02:49:16.000Z</time>
      </trkpt>
      <trkpt lat="22.760516" lon="110.087717">
        <ele>116.878973</ele>
        <time>2026-08-16T02:49:17.000Z</time>
      </trkpt>
      <trkpt lat="22.760469" lon="110.087754">
        <ele>116.838643</ele>
        <time>2026-08-16T02:49:18.000Z</time>
      </trkpt>
      <trkpt lat="22.760422" lon="110.087790">
        <ele>116.798686</ele>
        <time>2026-08-16T02:49:19.000Z</time>
      </trkpt>
      <trkpt lat="22.760374" lon="110.087829">
        <ele>116.757038</ele>
        <time>2026-08-16T02:49:20.000Z</time>
      </trkpt>
      <trkpt lat="22.760327" lon="110.087867">
        <ele>116.716328</ele>
        <time>2026-08-16T02:49:21.000Z</time>
      </trkpt>
      <trkpt lat="22.760280" lon="110.087907">
        <ele>116.674841</ele>
        <time>2026-08-16T02:49:22.000Z</time>
      </trkpt>
      <trkpt lat="22.760234" lon="110.087947">
        <ele>116.633898</ele>
        <time>2026-08-16T02:49:23.000Z</time>
      </trkpt>
      <trkpt lat="22.760189" lon="110.087986">
        <ele>116.593897</ele>
        <time>2026-08-16T02:49:24.000Z</time>
      </trkpt>
      <trkpt lat="22.760144" lon="110.088026">
        <ele>116.553493</ele>
        <time>2026-08-16T02:49:25.000Z</time>
      </trkpt>
      <trkpt lat="22.760099" lon="110.088067">
        <ele>116.512680</ele>
        <time>2026-08-16T02:49:26.000Z</time>
      </trkpt>
      <trkpt lat="22.760055" lon="110.088109">
        <ele>116.471976</ele>
        <time>2026-08-16T02:49:27.000Z</time>
      </trkpt>
      <trkpt lat="22.760011" lon="110.088153">
        <ele>116.425539</ele>
        <time>2026-08-16T02:49:28.000Z</time>
      </trkpt>
      <trkpt lat="22.759962" lon="110.088197">
        <ele>116.370867</ele>
        <time>2026-08-16T02:49:29.000Z</time>
      </trkpt>
      <trkpt lat="22.759915" lon="110.088241">
        <ele>116.317508</ele>
        <time>2026-08-16T02:49:30.000Z</time>
      </trkpt>
      <trkpt lat="22.759866" lon="110.088283">
        <ele>116.263833</ele>
        <time>2026-08-16T02:49:31.000Z</time>
      </trkpt>
      <trkpt lat="22.759818" lon="110.088325">
        <ele>116.210829</ele>
        <time>2026-08-16T02:49:32.000Z</time>
      </trkpt>
      <trkpt lat="22.759770" lon="110.088367">
        <ele>116.157826</ele>
        <time>2026-08-16T02:49:33.000Z</time>
      </trkpt>
      <trkpt lat="22.759722" lon="110.088409">
        <ele>116.104823</ele>
        <time>2026-08-16T02:49:34.000Z</time>
      </trkpt>
      <trkpt lat="22.759674" lon="110.088451">
        <ele>116.051819</ele>
        <time>2026-08-16T02:49:35.000Z</time>
      </trkpt>
      <trkpt lat="22.759625" lon="110.088496">
        <ele>115.996638</ele>
        <time>2026-08-16T02:49:36.000Z</time>
      </trkpt>
      <trkpt lat="22.759576" lon="110.088541">
        <ele>115.941458</ele>
        <time>2026-08-16T02:49:37.000Z</time>
      </trkpt>
      <trkpt lat="22.759527" lon="110.088584">
        <ele>115.887288</ele>
        <time>2026-08-16T02:49:38.000Z</time>
      </trkpt>
      <trkpt lat="22.759479" lon="110.088627">
        <ele>115.833783</ele>
        <time>2026-08-16T02:49:39.000Z</time>
      </trkpt>
      <trkpt lat="22.759428" lon="110.088670">
        <ele>115.778266</ele>
        <time>2026-08-16T02:49:40.000Z</time>
      </trkpt>
      <trkpt lat="22.759378" lon="110.088714">
        <ele>115.722930</ele>
        <time>2026-08-16T02:49:41.000Z</time>
      </trkpt>
      <trkpt lat="22.759327" lon="110.088757">
        <ele>115.667413</ele>
        <time>2026-08-16T02:49:42.000Z</time>
      </trkpt>
      <trkpt lat="22.759275" lon="110.088802">
        <ele>115.610241</ele>
        <time>2026-08-16T02:49:43.000Z</time>
      </trkpt>
      <trkpt lat="22.759224" lon="110.088847">
        <ele>115.553737</ele>
        <time>2026-08-16T02:49:44.000Z</time>
      </trkpt>
      <trkpt lat="22.759172" lon="110.088892">
        <ele>115.496565</ele>
        <time>2026-08-16T02:49:45.000Z</time>
      </trkpt>
      <trkpt lat="22.759119" lon="110.088935">
        <ele>115.439681</ele>
        <time>2026-08-16T02:49:46.000Z</time>
      </trkpt>
      <trkpt lat="22.759068" lon="110.088978">
        <ele>115.384165</ele>
        <time>2026-08-16T02:49:47.000Z</time>
      </trkpt>
      <trkpt lat="22.759015" lon="110.089022">
        <ele>115.326803</ele>
        <time>2026-08-16T02:49:48.000Z</time>
      </trkpt>
      <trkpt lat="22.758961" lon="110.089066">
        <ele>115.268757</ele>
        <time>2026-08-16T02:49:49.000Z</time>
      </trkpt>
      <trkpt lat="22.758907" lon="110.089113">
        <ele>115.209252</ele>
        <time>2026-08-16T02:49:50.000Z</time>
      </trkpt>
      <trkpt lat="22.758850" lon="110.089159">
        <ele>115.148192</ele>
        <time>2026-08-16T02:49:51.000Z</time>
      </trkpt>
      <trkpt lat="22.758794" lon="110.089207">
        <ele>115.086849</ele>
        <time>2026-08-16T02:49:52.000Z</time>
      </trkpt>
      <trkpt lat="22.758739" lon="110.089256">
        <ele>115.025678</ele>
        <time>2026-08-16T02:49:53.000Z</time>
      </trkpt>
      <trkpt lat="22.758681" lon="110.089304">
        <ele>114.962977</ele>
        <time>2026-08-16T02:49:54.000Z</time>
      </trkpt>
      <trkpt lat="22.758624" lon="110.089352">
        <ele>114.902222</ele>
        <time>2026-08-16T02:49:55.000Z</time>
      </trkpt>
      <trkpt lat="22.758569" lon="110.089402">
        <ele>114.858825</ele>
        <time>2026-08-16T02:49:56.000Z</time>
      </trkpt>
      <trkpt lat="22.758512" lon="110.089453">
        <ele>114.814142</ele>
        <time>2026-08-16T02:49:57.000Z</time>
      </trkpt>
      <trkpt lat="22.758457" lon="110.089501">
        <ele>114.771453</ele>
        <time>2026-08-16T02:49:58.000Z</time>
      </trkpt>
      <trkpt lat="22.758405" lon="110.089548">
        <ele>114.730521</ele>
        <time>2026-08-16T02:49:59.000Z</time>
      </trkpt>
      <trkpt lat="22.758352" lon="110.089604">
        <ele>114.685777</ele>
        <time>2026-08-16T02:50:00.000Z</time>
      </trkpt>
      <trkpt lat="22.758296" lon="110.089658">
        <ele>114.640464</ele>
        <time>2026-08-16T02:50:01.000Z</time>
      </trkpt>
      <trkpt lat="22.758238" lon="110.089710">
        <ele>114.594960</ele>
        <time>2026-08-16T02:50:02.000Z</time>
      </trkpt>
      <trkpt lat="22.758180" lon="110.089761">
        <ele>114.549809</ele>
        <time>2026-08-16T02:50:03.000Z</time>
      </trkpt>
      <trkpt lat="22.758122" lon="110.089814">
        <ele>114.503947</ele>
        <time>2026-08-16T02:50:04.000Z</time>
      </trkpt>
      <trkpt lat="22.758064" lon="110.089866">
        <ele>114.458442</ele>
        <time>2026-08-16T02:50:05.000Z</time>
      </trkpt>
      <trkpt lat="22.758004" lon="110.089917">
        <ele>114.412345</ele>
        <time>2026-08-16T02:50:06.000Z</time>
      </trkpt>
      <trkpt lat="22.757944" lon="110.089966">
        <ele>114.366928</ele>
        <time>2026-08-16T02:50:07.000Z</time>
      </trkpt>
      <trkpt lat="22.757882" lon="110.090014">
        <ele>114.320865</ele>
        <time>2026-08-16T02:50:08.000Z</time>
      </trkpt>
      <trkpt lat="22.757822" lon="110.090062">
        <ele>114.275781</ele>
        <time>2026-08-16T02:50:09.000Z</time>
      </trkpt>
      <trkpt lat="22.757763" lon="110.090111">
        <ele>114.230845</ele>
        <time>2026-08-16T02:50:10.000Z</time>
      </trkpt>
      <trkpt lat="22.757705" lon="110.090162">
        <ele>114.185694</ele>
        <time>2026-08-16T02:50:11.000Z</time>
      </trkpt>
      <trkpt lat="22.757646" lon="110.090214">
        <ele>114.139721</ele>
        <time>2026-08-16T02:50:12.000Z</time>
      </trkpt>
      <trkpt lat="22.757584" lon="110.090262">
        <ele>114.093658</ele>
        <time>2026-08-16T02:50:13.000Z</time>
      </trkpt>
      <trkpt lat="22.757524" lon="110.090310">
        <ele>114.048574</ele>
        <time>2026-08-16T02:50:14.000Z</time>
      </trkpt>
      <trkpt lat="22.757464" lon="110.090362">
        <ele>114.002131</ele>
        <time>2026-08-16T02:50:15.000Z</time>
      </trkpt>
      <trkpt lat="22.757405" lon="110.090414">
        <ele>113.956159</ele>
        <time>2026-08-16T02:50:16.000Z</time>
      </trkpt>
      <trkpt lat="22.757349" lon="110.090465">
        <ele>113.911940</ele>
        <time>2026-08-16T02:50:17.000Z</time>
      </trkpt>
      <trkpt lat="22.757290" lon="110.090516">
        <ele>113.866318</ele>
        <time>2026-08-16T02:50:18.000Z</time>
      </trkpt>
      <trkpt lat="22.757234" lon="110.090570">
        <ele>113.821005</ele>
        <time>2026-08-16T02:50:19.000Z</time>
      </trkpt>
      <trkpt lat="22.757178" lon="110.090623">
        <ele>113.786284</ele>
        <time>2026-08-16T02:50:20.000Z</time>
      </trkpt>
      <trkpt lat="22.757123" lon="110.090677">
        <ele>113.752452</ele>
        <time>2026-08-16T02:50:21.000Z</time>
      </trkpt>
      <trkpt lat="22.757067" lon="110.090732">
        <ele>113.718000</ele>
        <time>2026-08-16T02:50:22.000Z</time>
      </trkpt>
      <trkpt lat="22.757010" lon="110.090789">
        <ele>113.682644</ele>
        <time>2026-08-16T02:50:23.000Z</time>
      </trkpt>
      <trkpt lat="22.756954" lon="110.090843">
        <ele>113.648472</ele>
        <time>2026-08-16T02:50:24.000Z</time>
      </trkpt>
      <trkpt lat="22.756902" lon="110.090900">
        <ele>113.614757</ele>
        <time>2026-08-16T02:50:25.000Z</time>
      </trkpt>
      <trkpt lat="22.756850" lon="110.090959">
        <ele>113.580438</ele>
        <time>2026-08-16T02:50:26.000Z</time>
      </trkpt>
      <trkpt lat="22.756798" lon="110.091018">
        <ele>113.546120</ele>
        <time>2026-08-16T02:50:27.000Z</time>
      </trkpt>
      <trkpt lat="22.756746" lon="110.091078">
        <ele>113.511496</ele>
        <time>2026-08-16T02:50:28.000Z</time>
      </trkpt>
      <trkpt lat="22.756697" lon="110.091137">
        <ele>113.478108</ele>
        <time>2026-08-16T02:50:29.000Z</time>
      </trkpt>
      <trkpt lat="22.756646" lon="110.091195">
        <ele>113.444408</ele>
        <time>2026-08-16T02:50:30.000Z</time>
      </trkpt>
      <trkpt lat="22.756595" lon="110.091254">
        <ele>113.410403</ele>
        <time>2026-08-16T02:50:31.000Z</time>
      </trkpt>
      <trkpt lat="22.756545" lon="110.091317">
        <ele>113.375451</ele>
        <time>2026-08-16T02:50:32.000Z</time>
      </trkpt>
      <trkpt lat="22.756497" lon="110.091380">
        <ele>113.341087</ele>
        <time>2026-08-16T02:50:33.000Z</time>
      </trkpt>
      <trkpt lat="22.756447" lon="110.091445">
        <ele>113.305493</ele>
        <time>2026-08-16T02:50:34.000Z</time>
      </trkpt>
      <trkpt lat="22.756397" lon="110.091511">
        <ele>113.269576</ele>
        <time>2026-08-16T02:50:35.000Z</time>
      </trkpt>
      <trkpt lat="22.756347" lon="110.091577">
        <ele>113.233658</ele>
        <time>2026-08-16T02:50:36.000Z</time>
      </trkpt>
      <trkpt lat="22.756299" lon="110.091642">
        <ele>113.198642</ele>
        <time>2026-08-16T02:50:37.000Z</time>
      </trkpt>
      <trkpt lat="22.756251" lon="110.091709">
        <ele>113.162965</ele>
        <time>2026-08-16T02:50:38.000Z</time>
      </trkpt>
      <trkpt lat="22.756202" lon="110.091776">
        <ele>113.127007</ele>
        <time>2026-08-16T02:50:39.000Z</time>
      </trkpt>
      <trkpt lat="22.756152" lon="110.091844">
        <ele>113.090435</ele>
        <time>2026-08-16T02:50:40.000Z</time>
      </trkpt>
      <trkpt lat="22.756103" lon="110.091914">
        <ele>113.053480</ele>
        <time>2026-08-16T02:50:41.000Z</time>
      </trkpt>
      <trkpt lat="22.756055" lon="110.091983">
        <ele>113.017135</ele>
        <time>2026-08-16T02:50:42.000Z</time>
      </trkpt>
      <trkpt lat="22.756007" lon="110.092052">
        <ele>112.978467</ele>
        <time>2026-08-16T02:50:43.000Z</time>
      </trkpt>
      <trkpt lat="22.755959" lon="110.092122">
        <ele>112.936674</ele>
        <time>2026-08-16T02:50:44.000Z</time>
      </trkpt>
      <trkpt lat="22.755911" lon="110.092193">
        <ele>112.894494</ele>
        <time>2026-08-16T02:50:45.000Z</time>
      </trkpt>
      <trkpt lat="22.755861" lon="110.092264">
        <ele>112.851693</ele>
        <time>2026-08-16T02:50:46.000Z</time>
      </trkpt>
      <trkpt lat="22.755810" lon="110.092334">
        <ele>112.808951</ele>
        <time>2026-08-16T02:50:47.000Z</time>
      </trkpt>
      <trkpt lat="22.755762" lon="110.092403">
        <ele>112.767540</ele>
        <time>2026-08-16T02:50:48.000Z</time>
      </trkpt>
      <trkpt lat="22.755714" lon="110.092471">
        <ele>112.726512</ele>
        <time>2026-08-16T02:50:49.000Z</time>
      </trkpt>
      <trkpt lat="22.755666" lon="110.092540">
        <ele>112.685101</ele>
        <time>2026-08-16T02:50:50.000Z</time>
      </trkpt>
      <trkpt lat="22.755618" lon="110.092609">
        <ele>112.643691</ele>
        <time>2026-08-16T02:50:51.000Z</time>
      </trkpt>
      <trkpt lat="22.755571" lon="110.092678">
        <ele>112.602591</ele>
        <time>2026-08-16T02:50:52.000Z</time>
      </trkpt>
      <trkpt lat="22.755524" lon="110.092745">
        <ele>112.562259</ele>
        <time>2026-08-16T02:50:53.000Z</time>
      </trkpt>
      <trkpt lat="22.755477" lon="110.092815">
        <ele>112.520773</ele>
        <time>2026-08-16T02:50:54.000Z</time>
      </trkpt>
      <trkpt lat="22.755430" lon="110.092884">
        <ele>112.479673</ele>
        <time>2026-08-16T02:50:55.000Z</time>
      </trkpt>
      <trkpt lat="22.755380" lon="110.092948">
        <ele>112.439485</ele>
        <time>2026-08-16T02:50:56.000Z</time>
      </trkpt>
      <trkpt lat="22.755327" lon="110.093008">
        <ele>112.399678</ele>
        <time>2026-08-16T02:50:57.000Z</time>
      </trkpt>
      <trkpt lat="22.755276" lon="110.093068">
        <ele>112.360582</ele>
        <time>2026-08-16T02:50:58.000Z</time>
      </trkpt>
      <trkpt lat="22.755228" lon="110.093133">
        <ele>112.320685</ele>
        <time>2026-08-16T02:50:59.000Z</time>
      </trkpt>
      <trkpt lat="22.755182" lon="110.093199">
        <ele>112.281048</ele>
        <time>2026-08-16T02:51:00.000Z</time>
      </trkpt>
      <trkpt lat="22.755135" lon="110.093268">
        <ele>112.239948</ele>
        <time>2026-08-16T02:51:01.000Z</time>
      </trkpt>
      <trkpt lat="22.755089" lon="110.093341">
        <ele>112.197587</ele>
        <time>2026-08-16T02:51:02.000Z</time>
      </trkpt>
      <trkpt lat="22.755040" lon="110.093410">
        <ele>112.155862</ele>
        <time>2026-08-16T02:51:03.000Z</time>
      </trkpt>
      <trkpt lat="22.754990" lon="110.093476">
        <ele>112.114938</ele>
        <time>2026-08-16T02:51:04.000Z</time>
      </trkpt>
      <trkpt lat="22.754938" lon="110.093541">
        <ele>112.073710</ele>
        <time>2026-08-16T02:51:05.000Z</time>
      </trkpt>
      <trkpt lat="22.754891" lon="110.093608">
        <ele>112.042066</ele>
        <time>2026-08-16T02:51:06.000Z</time>
      </trkpt>
      <trkpt lat="22.754843" lon="110.093675">
        <ele>112.013351</ele>
        <time>2026-08-16T02:51:07.000Z</time>
      </trkpt>
      <trkpt lat="22.754792" lon="110.093738">
        <ele>111.984979</ele>
        <time>2026-08-16T02:51:08.000Z</time>
      </trkpt>
      <trkpt lat="22.754739" lon="110.093799">
        <ele>111.956614</ele>
        <time>2026-08-16T02:51:09.000Z</time>
      </trkpt>
      <trkpt lat="22.754691" lon="110.093864">
        <ele>111.928430</ele>
        <time>2026-08-16T02:51:10.000Z</time>
      </trkpt>
      <trkpt lat="22.754646" lon="110.093935">
        <ele>111.899272</ele>
        <time>2026-08-16T02:51:11.000Z</time>
      </trkpt>
      <trkpt lat="22.754599" lon="110.094003">
        <ele>111.870511</ele>
        <time>2026-08-16T02:51:12.000Z</time>
      </trkpt>
      <trkpt lat="22.754550" lon="110.094068">
        <ele>111.842097</ele>
        <time>2026-08-16T02:51:13.000Z</time>
      </trkpt>
      <trkpt lat="22.754500" lon="110.094132">
        <ele>111.813708</ele>
        <time>2026-08-16T02:51:14.000Z</time>
      </trkpt>
      <trkpt lat="22.754454" lon="110.094200">
        <ele>111.785165</ele>
        <time>2026-08-16T02:51:15.000Z</time>
      </trkpt>
      <trkpt lat="22.754407" lon="110.094267">
        <ele>111.756674</ele>
        <time>2026-08-16T02:51:16.000Z</time>
      </trkpt>
      <trkpt lat="22.754361" lon="110.094335">
        <ele>111.728131</ele>
        <time>2026-08-16T02:51:17.000Z</time>
      </trkpt>
      <trkpt lat="22.754315" lon="110.094399">
        <ele>111.700668</ele>
        <time>2026-08-16T02:51:18.000Z</time>
      </trkpt>
      <trkpt lat="22.754272" lon="110.094468">
        <ele>111.672483</ele>
        <time>2026-08-16T02:51:19.000Z</time>
      </trkpt>
      <trkpt lat="22.754230" lon="110.094538">
        <ele>111.644218</ele>
        <time>2026-08-16T02:51:20.000Z</time>
      </trkpt>
      <trkpt lat="22.754186" lon="110.094603">
        <ele>111.616928</ele>
        <time>2026-08-16T02:51:21.000Z</time>
      </trkpt>
      <trkpt lat="22.754142" lon="110.094669">
        <ele>111.589364</ele>
        <time>2026-08-16T02:51:22.000Z</time>
      </trkpt>
      <trkpt lat="22.754097" lon="110.094733">
        <ele>111.562126</ele>
        <time>2026-08-16T02:51:23.000Z</time>
      </trkpt>
      <trkpt lat="22.754054" lon="110.094798">
        <ele>111.535051</ele>
        <time>2026-08-16T02:51:24.000Z</time>
      </trkpt>
      <trkpt lat="22.754010" lon="110.094863">
        <ele>111.507761</ele>
        <time>2026-08-16T02:51:25.000Z</time>
      </trkpt>
      <trkpt lat="22.753970" lon="110.094937">
        <ele>111.478731</ele>
        <time>2026-08-16T02:51:26.000Z</time>
      </trkpt>
      <trkpt lat="22.753927" lon="110.095002">
        <ele>111.451656</ele>
        <time>2026-08-16T02:51:27.000Z</time>
      </trkpt>
      <trkpt lat="22.753885" lon="110.095065">
        <ele>111.425345</ele>
        <time>2026-08-16T02:51:28.000Z</time>
      </trkpt>
      <trkpt lat="22.753844" lon="110.095127">
        <ele>111.402687</ele>
        <time>2026-08-16T02:51:29.000Z</time>
      </trkpt>
      <trkpt lat="22.753803" lon="110.095186">
        <ele>111.401477</ele>
        <time>2026-08-16T02:51:30.000Z</time>
      </trkpt>
      <trkpt lat="22.753766" lon="110.095246">
        <ele>111.400296</ele>
        <time>2026-08-16T02:51:31.000Z</time>
      </trkpt>
      <trkpt lat="22.753727" lon="110.095305">
        <ele>111.399107</ele>
        <time>2026-08-16T02:51:32.000Z</time>
      </trkpt>
      <trkpt lat="22.753688" lon="110.095364">
        <ele>111.397919</ele>
        <time>2026-08-16T02:51:33.000Z</time>
      </trkpt>
      <trkpt lat="22.753649" lon="110.095425">
        <ele>111.396703</ele>
        <time>2026-08-16T02:51:34.000Z</time>
      </trkpt>
      <trkpt lat="22.753610" lon="110.095485">
        <ele>111.395502</ele>
        <time>2026-08-16T02:51:35.000Z</time>
      </trkpt>
      <trkpt lat="22.753571" lon="110.095545">
        <ele>111.394300</ele>
        <time>2026-08-16T02:51:36.000Z</time>
      </trkpt>
      <trkpt lat="22.753532" lon="110.095604">
        <ele>111.393111</ele>
        <time>2026-08-16T02:51:37.000Z</time>
      </trkpt>
      <trkpt lat="22.753492" lon="110.095662">
        <ele>111.391926</ele>
        <time>2026-08-16T02:51:38.000Z</time>
      </trkpt>
      <trkpt lat="22.753451" lon="110.095720">
        <ele>111.390729</ele>
        <time>2026-08-16T02:51:39.000Z</time>
      </trkpt>
      <trkpt lat="22.753411" lon="110.095777">
        <ele>111.389557</ele>
        <time>2026-08-16T02:51:40.000Z</time>
      </trkpt>
      <trkpt lat="22.753370" lon="110.095835">
        <ele>111.388360</ele>
        <time>2026-08-16T02:51:41.000Z</time>
      </trkpt>
      <trkpt lat="22.753331" lon="110.095893">
        <ele>111.387185</ele>
        <time>2026-08-16T02:51:42.000Z</time>
      </trkpt>
      <trkpt lat="22.753291" lon="110.095952">
        <ele>111.385986</ele>
        <time>2026-08-16T02:51:43.000Z</time>
      </trkpt>
      <trkpt lat="22.753250" lon="110.096010">
        <ele>111.384790</ele>
        <time>2026-08-16T02:51:44.000Z</time>
      </trkpt>
      <trkpt lat="22.753210" lon="110.096068">
        <ele>111.383604</ele>
        <time>2026-08-16T02:51:45.000Z</time>
      </trkpt>
      <trkpt lat="22.753173" lon="110.096126">
        <ele>111.382449</ele>
        <time>2026-08-16T02:51:46.000Z</time>
      </trkpt>
      <trkpt lat="22.753135" lon="110.096182">
        <ele>111.381311</ele>
        <time>2026-08-16T02:51:47.000Z</time>
      </trkpt>
      <trkpt lat="22.753096" lon="110.096239">
        <ele>111.380149</ele>
        <time>2026-08-16T02:51:48.000Z</time>
      </trkpt>
      <trkpt lat="22.753059" lon="110.096294">
        <ele>111.379035</ele>
        <time>2026-08-16T02:51:49.000Z</time>
      </trkpt>
      <trkpt lat="22.753021" lon="110.096349">
        <ele>111.377909</ele>
        <time>2026-08-16T02:51:50.000Z</time>
      </trkpt>
      <trkpt lat="22.752983" lon="110.096403">
        <ele>111.376797</ele>
        <time>2026-08-16T02:51:51.000Z</time>
      </trkpt>
      <trkpt lat="22.752947" lon="110.096457">
        <ele>111.375706</ele>
        <time>2026-08-16T02:51:52.000Z</time>
      </trkpt>
      <trkpt lat="22.752909" lon="110.096512">
        <ele>111.374581</ele>
        <time>2026-08-16T02:51:53.000Z</time>
      </trkpt>
      <trkpt lat="22.752872" lon="110.096564">
        <ele>111.373506</ele>
        <time>2026-08-16T02:51:54.000Z</time>
      </trkpt>
      <trkpt lat="22.752834" lon="110.096617">
        <ele>111.372407</ele>
        <time>2026-08-16T02:51:55.000Z</time>
      </trkpt>
      <trkpt lat="22.752797" lon="110.096669">
        <ele>111.371332</ele>
        <time>2026-08-16T02:51:56.000Z</time>
      </trkpt>
      <trkpt lat="22.752761" lon="110.096723">
        <ele>111.374205</ele>
        <time>2026-08-16T02:51:57.000Z</time>
      </trkpt>
      <trkpt lat="22.752724" lon="110.096776">
        <ele>111.379508</ele>
        <time>2026-08-16T02:51:58.000Z</time>
      </trkpt>
      <trkpt lat="22.752686" lon="110.096828">
        <ele>111.384801</ele>
        <time>2026-08-16T02:51:59.000Z</time>
      </trkpt>
      <trkpt lat="22.752649" lon="110.096879">
        <ele>111.389977</ele>
        <time>2026-08-16T02:52:00.000Z</time>
      </trkpt>
      <trkpt lat="22.752612" lon="110.096930">
        <ele>111.395154</ele>
        <time>2026-08-16T02:52:01.000Z</time>
      </trkpt>
      <trkpt lat="22.752575" lon="110.096980">
        <ele>111.400268</ele>
        <time>2026-08-16T02:52:02.000Z</time>
      </trkpt>
      <trkpt lat="22.752537" lon="110.097024">
        <ele>111.405077</ele>
        <time>2026-08-16T02:52:03.000Z</time>
      </trkpt>
      <trkpt lat="22.752499" lon="110.097070">
        <ele>111.410004</ele>
        <time>2026-08-16T02:52:04.000Z</time>
      </trkpt>
      <trkpt lat="22.752461" lon="110.097116">
        <ele>111.414931</ele>
        <time>2026-08-16T02:52:05.000Z</time>
      </trkpt>
      <trkpt lat="22.752424" lon="110.097163">
        <ele>111.419861</ele>
        <time>2026-08-16T02:52:06.000Z</time>
      </trkpt>
      <trkpt lat="22.752386" lon="110.097207">
        <ele>111.424670</ele>
        <time>2026-08-16T02:52:07.000Z</time>
      </trkpt>
      <trkpt lat="22.752348" lon="110.097251">
        <ele>111.429479</ele>
        <time>2026-08-16T02:52:08.000Z</time>
      </trkpt>
      <trkpt lat="22.752308" lon="110.097294">
        <ele>111.434351</ele>
        <time>2026-08-16T02:52:09.000Z</time>
      </trkpt>
      <trkpt lat="22.752267" lon="110.097336">
        <ele>111.439230</ele>
        <time>2026-08-16T02:52:10.000Z</time>
      </trkpt>
      <trkpt lat="22.752226" lon="110.097379">
        <ele>111.444164</ele>
        <time>2026-08-16T02:52:11.000Z</time>
      </trkpt>
      <trkpt lat="22.752185" lon="110.097420">
        <ele>111.448989</ele>
        <time>2026-08-16T02:52:12.000Z</time>
      </trkpt>
      <trkpt lat="22.752142" lon="110.097461">
        <ele>111.453942</ele>
        <time>2026-08-16T02:52:13.000Z</time>
      </trkpt>
      <trkpt lat="22.752097" lon="110.097501">
        <ele>111.458976</ele>
        <time>2026-08-16T02:52:14.000Z</time>
      </trkpt>
      <trkpt lat="22.752050" lon="110.097541">
        <ele>111.464144</ele>
        <time>2026-08-16T02:52:15.000Z</time>
      </trkpt>
      <trkpt lat="22.752003" lon="110.097580">
        <ele>111.469264</ele>
        <time>2026-08-16T02:52:16.000Z</time>
      </trkpt>
      <trkpt lat="22.751958" lon="110.097618">
        <ele>111.474198</ele>
        <time>2026-08-16T02:52:17.000Z</time>
      </trkpt>
      <trkpt lat="22.751914" lon="110.097657">
        <ele>111.479114</ele>
        <time>2026-08-16T02:52:18.000Z</time>
      </trkpt>
      <trkpt lat="22.751871" lon="110.097695">
        <ele>111.483913</ele>
        <time>2026-08-16T02:52:19.000Z</time>
      </trkpt>
      <trkpt lat="22.751827" lon="110.097733">
        <ele>111.488779</ele>
        <time>2026-08-16T02:52:20.000Z</time>
      </trkpt>
      <trkpt lat="22.751784" lon="110.097771">
        <ele>111.493577</ele>
        <time>2026-08-16T02:52:21.000Z</time>
      </trkpt>
      <trkpt lat="22.751740" lon="110.097808">
        <ele>111.498394</ele>
        <time>2026-08-16T02:52:22.000Z</time>
      </trkpt>
      <trkpt lat="22.751694" lon="110.097847">
        <ele>111.503445</ele>
        <time>2026-08-16T02:52:23.000Z</time>
      </trkpt>
      <trkpt lat="22.751648" lon="110.097884">
        <ele>111.508400</ele>
        <time>2026-08-16T02:52:24.000Z</time>
      </trkpt>
      <trkpt lat="22.751603" lon="110.097922">
        <ele>111.513334</ele>
        <time>2026-08-16T02:52:25.000Z</time>
      </trkpt>
      <trkpt lat="22.751557" lon="110.097958">
        <ele>111.518241</ele>
        <time>2026-08-16T02:52:26.000Z</time>
      </trkpt>
      <trkpt lat="22.751512" lon="110.097993">
        <ele>111.523032</ele>
        <time>2026-08-16T02:52:27.000Z</time>
      </trkpt>
      <trkpt lat="22.751466" lon="110.098028">
        <ele>111.521066</ele>
        <time>2026-08-16T02:52:28.000Z</time>
      </trkpt>
      <trkpt lat="22.751418" lon="110.098063">
        <ele>111.501356</ele>
        <time>2026-08-16T02:52:29.000Z</time>
      </trkpt>
      <trkpt lat="22.751370" lon="110.098098">
        <ele>111.481646</ele>
        <time>2026-08-16T02:52:30.000Z</time>
      </trkpt>
      <trkpt lat="22.751322" lon="110.098133">
        <ele>111.461936</ele>
        <time>2026-08-16T02:52:31.000Z</time>
      </trkpt>
      <trkpt lat="22.751275" lon="110.098170">
        <ele>111.442146</ele>
        <time>2026-08-16T02:52:32.000Z</time>
      </trkpt>
      <trkpt lat="22.751228" lon="110.098207">
        <ele>111.422355</ele>
        <time>2026-08-16T02:52:33.000Z</time>
      </trkpt>
      <trkpt lat="22.751178" lon="110.098244">
        <ele>111.401729</ele>
        <time>2026-08-16T02:52:34.000Z</time>
      </trkpt>
      <trkpt lat="22.751129" lon="110.098282">
        <ele>111.381202</ele>
        <time>2026-08-16T02:52:35.000Z</time>
      </trkpt>
      <trkpt lat="22.751081" lon="110.098319">
        <ele>111.361134</ele>
        <time>2026-08-16T02:52:36.000Z</time>
      </trkpt>
      <trkpt lat="22.751033" lon="110.098354">
        <ele>111.341424</ele>
        <time>2026-08-16T02:52:37.000Z</time>
      </trkpt>
      <trkpt lat="22.750984" lon="110.098393">
        <ele>111.320713</ele>
        <time>2026-08-16T02:52:38.000Z</time>
      </trkpt>
      <trkpt lat="22.750935" lon="110.098432">
        <ele>111.300001</ele>
        <time>2026-08-16T02:52:39.000Z</time>
      </trkpt>
      <trkpt lat="22.750885" lon="110.098469">
        <ele>111.279375</ele>
        <time>2026-08-16T02:52:40.000Z</time>
      </trkpt>
      <trkpt lat="22.750836" lon="110.098505">
        <ele>111.259207</ele>
        <time>2026-08-16T02:52:41.000Z</time>
      </trkpt>
      <trkpt lat="22.750786" lon="110.098543">
        <ele>111.238402</ele>
        <time>2026-08-16T02:52:42.000Z</time>
      </trkpt>
      <trkpt lat="22.750737" lon="110.098579">
        <ele>111.218233</ele>
        <time>2026-08-16T02:52:43.000Z</time>
      </trkpt>
      <trkpt lat="22.750687" lon="110.098615">
        <ele>111.197782</ele>
        <time>2026-08-16T02:52:44.000Z</time>
      </trkpt>
      <trkpt lat="22.750639" lon="110.098652">
        <ele>111.177715</ele>
        <time>2026-08-16T02:52:45.000Z</time>
      </trkpt>
      <trkpt lat="22.750591" lon="110.098690">
        <ele>111.157464</ele>
        <time>2026-08-16T02:52:46.000Z</time>
      </trkpt>
      <trkpt lat="22.750543" lon="110.098728">
        <ele>111.137213</ele>
        <time>2026-08-16T02:52:47.000Z</time>
      </trkpt>
      <trkpt lat="22.750494" lon="110.098765">
        <ele>111.116867</ele>
        <time>2026-08-16T02:52:48.000Z</time>
      </trkpt>
      <trkpt lat="22.750446" lon="110.098803">
        <ele>111.096616</ele>
        <time>2026-08-16T02:52:49.000Z</time>
      </trkpt>
      <trkpt lat="22.750397" lon="110.098841">
        <ele>111.076089</ele>
        <time>2026-08-16T02:52:50.000Z</time>
      </trkpt>
      <trkpt lat="22.750349" lon="110.098878">
        <ele>111.056022</ele>
        <time>2026-08-16T02:52:51.000Z</time>
      </trkpt>
      <trkpt lat="22.750301" lon="110.098917">
        <ele>111.035584</ele>
        <time>2026-08-16T02:52:52.000Z</time>
      </trkpt>
      <trkpt lat="22.750254" lon="110.098957">
        <ele>111.015225</ele>
        <time>2026-08-16T02:52:53.000Z</time>
      </trkpt>
      <trkpt lat="22.750205" lon="110.098995">
        <ele>110.994698</ele>
        <time>2026-08-16T02:52:54.000Z</time>
      </trkpt>
      <trkpt lat="22.750157" lon="110.099028">
        <ele>110.975332</ele>
        <time>2026-08-16T02:52:55.000Z</time>
      </trkpt>
      <trkpt lat="22.750110" lon="110.099064">
        <ele>110.955724</ele>
        <time>2026-08-16T02:52:56.000Z</time>
      </trkpt>
      <trkpt lat="22.750063" lon="110.099100">
        <ele>110.936116</ele>
        <time>2026-08-16T02:52:57.000Z</time>
      </trkpt>
      <trkpt lat="22.750016" lon="110.099137">
        <ele>110.916326</ele>
        <time>2026-08-16T02:52:58.000Z</time>
      </trkpt>
      <trkpt lat="22.749969" lon="110.099170">
        <ele>110.904456</ele>
        <time>2026-08-16T02:52:59.000Z</time>
      </trkpt>
      <trkpt lat="22.749921" lon="110.099206">
        <ele>110.893322</ele>
        <time>2026-08-16T02:53:00.000Z</time>
      </trkpt>
      <trkpt lat="22.749872" lon="110.099241">
        <ele>110.882128</ele>
        <time>2026-08-16T02:53:01.000Z</time>
      </trkpt>
      <trkpt lat="22.749822" lon="110.099276">
        <ele>110.870775</ele>
        <time>2026-08-16T02:53:02.000Z</time>
      </trkpt>
      <trkpt lat="22.749776" lon="110.099312">
        <ele>110.859952</ele>
        <time>2026-08-16T02:53:03.000Z</time>
      </trkpt>
      <trkpt lat="22.749730" lon="110.099346">
        <ele>110.849332</ele>
        <time>2026-08-16T02:53:04.000Z</time>
      </trkpt>
      <trkpt lat="22.749683" lon="110.099384">
        <ele>110.838147</ele>
        <time>2026-08-16T02:53:05.000Z</time>
      </trkpt>
      <trkpt lat="22.749637" lon="110.099418">
        <ele>110.827527</ele>
        <time>2026-08-16T02:53:06.000Z</time>
      </trkpt>
      <trkpt lat="22.749592" lon="110.099456">
        <ele>110.816646</ele>
        <time>2026-08-16T02:53:07.000Z</time>
      </trkpt>
      <trkpt lat="22.749545" lon="110.099492">
        <ele>110.805668</ele>
        <time>2026-08-16T02:53:08.000Z</time>
      </trkpt>
      <trkpt lat="22.749498" lon="110.099527">
        <ele>110.794791</ele>
        <time>2026-08-16T02:53:09.000Z</time>
      </trkpt>
      <trkpt lat="22.749449" lon="110.099561">
        <ele>110.783693</ele>
        <time>2026-08-16T02:53:10.000Z</time>
      </trkpt>
      <trkpt lat="22.749401" lon="110.099598">
        <ele>110.772458</ele>
        <time>2026-08-16T02:53:11.000Z</time>
      </trkpt>
      <trkpt lat="22.749353" lon="110.099634">
        <ele>110.761324</ele>
        <time>2026-08-16T02:53:12.000Z</time>
      </trkpt>
      <trkpt lat="22.749306" lon="110.099670">
        <ele>110.750347</ele>
        <time>2026-08-16T02:53:13.000Z</time>
      </trkpt>
      <trkpt lat="22.749259" lon="110.099705">
        <ele>110.739469</ele>
        <time>2026-08-16T02:53:14.000Z</time>
      </trkpt>
      <trkpt lat="22.749210" lon="110.099738">
        <ele>110.728465</ele>
        <time>2026-08-16T02:53:15.000Z</time>
      </trkpt>
      <trkpt lat="22.749161" lon="110.099773">
        <ele>110.717271</ele>
        <time>2026-08-16T02:53:16.000Z</time>
      </trkpt>
      <trkpt lat="22.749115" lon="110.099810">
        <ele>110.706345</ele>
        <time>2026-08-16T02:53:17.000Z</time>
      </trkpt>
      <trkpt lat="22.749066" lon="110.099848">
        <ele>110.694853</ele>
        <time>2026-08-16T02:53:18.000Z</time>
      </trkpt>
      <trkpt lat="22.749018" lon="110.099886">
        <ele>110.683515</ele>
        <time>2026-08-16T02:53:19.000Z</time>
      </trkpt>
      <trkpt lat="22.748971" lon="110.099924">
        <ele>110.672330</ele>
        <time>2026-08-16T02:53:20.000Z</time>
      </trkpt>
      <trkpt lat="22.748923" lon="110.099961">
        <ele>110.661095</ele>
        <time>2026-08-16T02:53:21.000Z</time>
      </trkpt>
      <trkpt lat="22.748874" lon="110.099996">
        <ele>110.649901</ele>
        <time>2026-08-16T02:53:22.000Z</time>
      </trkpt>
      <trkpt lat="22.748824" lon="110.100031">
        <ele>110.638548</ele>
        <time>2026-08-16T02:53:23.000Z</time>
      </trkpt>
      <trkpt lat="22.748774" lon="110.100067">
        <ele>110.627098</ele>
        <time>2026-08-16T02:53:24.000Z</time>
      </trkpt>
      <trkpt lat="22.748726" lon="110.100103">
        <ele>110.615964</ele>
        <time>2026-08-16T02:53:25.000Z</time>
      </trkpt>
      <trkpt lat="22.748679" lon="110.100141">
        <ele>110.604779</ele>
        <time>2026-08-16T02:53:26.000Z</time>
      </trkpt>
      <trkpt lat="22.748631" lon="110.100179">
        <ele>110.593441</ele>
        <time>2026-08-16T02:53:27.000Z</time>
      </trkpt>
      <trkpt lat="22.748583" lon="110.100216">
        <ele>110.582206</ele>
        <time>2026-08-16T02:53:28.000Z</time>
      </trkpt>
      <trkpt lat="22.748536" lon="110.100254">
        <ele>110.571022</ele>
        <time>2026-08-16T02:53:29.000Z</time>
      </trkpt>
      <trkpt lat="22.748488" lon="110.100292">
        <ele>110.545983</ele>
        <time>2026-08-16T02:53:30.000Z</time>
      </trkpt>
      <trkpt lat="22.748441" lon="110.100331">
        <ele>110.520382</ele>
        <time>2026-08-16T02:53:31.000Z</time>
      </trkpt>
      <trkpt lat="22.748395" lon="110.100370">
        <ele>110.495122</ele>
        <time>2026-08-16T02:53:32.000Z</time>
      </trkpt>
      <trkpt lat="22.748348" lon="110.100409">
        <ele>110.469520</ele>
        <time>2026-08-16T02:53:33.000Z</time>
      </trkpt>
      <trkpt lat="22.748302" lon="110.100449">
        <ele>110.444013</ele>
        <time>2026-08-16T02:53:34.000Z</time>
      </trkpt>
      <trkpt lat="22.748257" lon="110.100490">
        <ele>110.418586</ele>
        <time>2026-08-16T02:53:35.000Z</time>
      </trkpt>
      <trkpt lat="22.748211" lon="110.100531">
        <ele>110.392828</ele>
        <time>2026-08-16T02:53:36.000Z</time>
      </trkpt>
      <trkpt lat="22.748166" lon="110.100573">
        <ele>110.367143</ele>
        <time>2026-08-16T02:53:37.000Z</time>
      </trkpt>
      <trkpt lat="22.748122" lon="110.100617">
        <ele>110.341251</ele>
        <time>2026-08-16T02:53:38.000Z</time>
      </trkpt>
      <trkpt lat="22.748078" lon="110.100662">
        <ele>110.315086</ele>
        <time>2026-08-16T02:53:39.000Z</time>
      </trkpt>
      <trkpt lat="22.748034" lon="110.100707">
        <ele>110.288921</ele>
        <time>2026-08-16T02:53:40.000Z</time>
      </trkpt>
      <trkpt lat="22.747992" lon="110.100751">
        <ele>110.263658</ele>
        <time>2026-08-16T02:53:41.000Z</time>
      </trkpt>
      <trkpt lat="22.747949" lon="110.100797">
        <ele>110.237528</ele>
        <time>2026-08-16T02:53:42.000Z</time>
      </trkpt>
      <trkpt lat="22.747908" lon="110.100844">
        <ele>110.211718</ele>
        <time>2026-08-16T02:53:43.000Z</time>
      </trkpt>
      <trkpt lat="22.747867" lon="110.100891">
        <ele>110.185908</ele>
        <time>2026-08-16T02:53:44.000Z</time>
      </trkpt>
      <trkpt lat="22.747825" lon="110.100938">
        <ele>110.159799</ele>
        <time>2026-08-16T02:53:45.000Z</time>
      </trkpt>
      <trkpt lat="22.747785" lon="110.100985">
        <ele>110.134285</ele>
        <time>2026-08-16T02:53:46.000Z</time>
      </trkpt>
      <trkpt lat="22.747744" lon="110.101034">
        <ele>110.107890</ele>
        <time>2026-08-16T02:53:47.000Z</time>
      </trkpt>
      <trkpt lat="22.747704" lon="110.101085">
        <ele>110.081180</ele>
        <time>2026-08-16T02:53:48.000Z</time>
      </trkpt>
      <trkpt lat="22.747666" lon="110.101137">
        <ele>110.054712</ele>
        <time>2026-08-16T02:53:49.000Z</time>
      </trkpt>
      <trkpt lat="22.747630" lon="110.101189">
        <ele>110.028772</ele>
        <time>2026-08-16T02:53:50.000Z</time>
      </trkpt>
      <trkpt lat="22.747592" lon="110.101241">
        <ele>110.002303</ele>
        <time>2026-08-16T02:53:51.000Z</time>
      </trkpt>
      <trkpt lat="22.747554" lon="110.101292">
        <ele>109.976146</ele>
        <time>2026-08-16T02:53:52.000Z</time>
      </trkpt>
      <trkpt lat="22.747517" lon="110.101343">
        <ele>109.950259</ele>
        <time>2026-08-16T02:53:53.000Z</time>
      </trkpt>
      <trkpt lat="22.747481" lon="110.101396">
        <ele>109.923999</ele>
        <time>2026-08-16T02:53:54.000Z</time>
      </trkpt>
      <trkpt lat="22.747445" lon="110.101449">
        <ele>109.897739</ele>
        <time>2026-08-16T02:53:55.000Z</time>
      </trkpt>
      <trkpt lat="22.747410" lon="110.101501">
        <ele>109.872056</ele>
        <time>2026-08-16T02:53:56.000Z</time>
      </trkpt>
      <trkpt lat="22.747378" lon="110.101556">
        <ele>109.846112</ele>
        <time>2026-08-16T02:53:57.000Z</time>
      </trkpt>
      <trkpt lat="22.747348" lon="110.101611">
        <ele>109.820620</ele>
        <time>2026-08-16T02:53:58.000Z</time>
      </trkpt>
      <trkpt lat="22.747318" lon="110.101664">
        <ele>109.795811</ele>
        <time>2026-08-16T02:53:59.000Z</time>
      </trkpt>
      <trkpt lat="22.747287" lon="110.101717">
        <ele>109.754178</ele>
        <time>2026-08-16T02:54:00.000Z</time>
      </trkpt>
      <trkpt lat="22.747256" lon="110.101771">
        <ele>109.709345</ele>
        <time>2026-08-16T02:54:01.000Z</time>
      </trkpt>
      <trkpt lat="22.747225" lon="110.101826">
        <ele>109.663911</ele>
        <time>2026-08-16T02:54:02.000Z</time>
      </trkpt>
      <trkpt lat="22.747195" lon="110.101879">
        <ele>109.620079</ele>
        <time>2026-08-16T02:54:03.000Z</time>
      </trkpt>
      <trkpt lat="22.747166" lon="110.101933">
        <ele>109.576034</ele>
        <time>2026-08-16T02:54:04.000Z</time>
      </trkpt>
      <trkpt lat="22.747137" lon="110.101988">
        <ele>109.531379</ele>
        <time>2026-08-16T02:54:05.000Z</time>
      </trkpt>
      <trkpt lat="22.747108" lon="110.102044">
        <ele>109.486111</ele>
        <time>2026-08-16T02:54:06.000Z</time>
      </trkpt>
      <trkpt lat="22.747079" lon="110.102100">
        <ele>109.440842</ele>
        <time>2026-08-16T02:54:07.000Z</time>
      </trkpt>
      <trkpt lat="22.747052" lon="110.102156">
        <ele>109.396302</ele>
        <time>2026-08-16T02:54:08.000Z</time>
      </trkpt>
      <trkpt lat="22.747022" lon="110.102212">
        <ele>109.350654</ele>
        <time>2026-08-16T02:54:09.000Z</time>
      </trkpt>
      <trkpt lat="22.746992" lon="110.102268">
        <ele>109.305007</ele>
        <time>2026-08-16T02:54:10.000Z</time>
      </trkpt>
      <trkpt lat="22.746961" lon="110.102323">
        <ele>109.259573</ele>
        <time>2026-08-16T02:54:11.000Z</time>
      </trkpt>
      <trkpt lat="22.746932" lon="110.102378">
        <ele>109.214918</ele>
        <time>2026-08-16T02:54:12.000Z</time>
      </trkpt>
      <trkpt lat="22.746903" lon="110.102433">
        <ele>109.170262</ele>
        <time>2026-08-16T02:54:13.000Z</time>
      </trkpt>
      <trkpt lat="22.746874" lon="110.102490">
        <ele>109.124378</ele>
        <time>2026-08-16T02:54:14.000Z</time>
      </trkpt>
      <trkpt lat="22.746846" lon="110.102546">
        <ele>109.079479</ele>
        <time>2026-08-16T02:54:15.000Z</time>
      </trkpt>
      <trkpt lat="22.746817" lon="110.102602">
        <ele>109.034210</ele>
        <time>2026-08-16T02:54:16.000Z</time>
      </trkpt>
      <trkpt lat="22.746788" lon="110.102657">
        <ele>108.989555</ele>
        <time>2026-08-16T02:54:17.000Z</time>
      </trkpt>
      <trkpt lat="22.746757" lon="110.102710">
        <ele>108.945318</ele>
        <time>2026-08-16T02:54:18.000Z</time>
      </trkpt>
      <trkpt lat="22.746727" lon="110.102765">
        <ele>108.900278</ele>
        <time>2026-08-16T02:54:19.000Z</time>
      </trkpt>
      <trkpt lat="22.746698" lon="110.102819">
        <ele>108.856233</ele>
        <time>2026-08-16T02:54:20.000Z</time>
      </trkpt>
      <trkpt lat="22.746668" lon="110.102874">
        <ele>108.811194</ele>
        <time>2026-08-16T02:54:21.000Z</time>
      </trkpt>
      <trkpt lat="22.746638" lon="110.102929">
        <ele>108.766154</ele>
        <time>2026-08-16T02:54:22.000Z</time>
      </trkpt>
      <trkpt lat="22.746607" lon="110.102984">
        <ele>108.720721</ele>
        <time>2026-08-16T02:54:23.000Z</time>
      </trkpt>
      <trkpt lat="22.746576" lon="110.103037">
        <ele>108.676484</ele>
        <time>2026-08-16T02:54:24.000Z</time>
      </trkpt>
      <trkpt lat="22.746544" lon="110.103090">
        <ele>108.631833</ele>
        <time>2026-08-16T02:54:25.000Z</time>
      </trkpt>
      <trkpt lat="22.746513" lon="110.103144">
        <ele>108.586999</ele>
        <time>2026-08-16T02:54:26.000Z</time>
      </trkpt>
      <trkpt lat="22.746481" lon="110.103198">
        <ele>108.541757</ele>
        <time>2026-08-16T02:54:27.000Z</time>
      </trkpt>
      <trkpt lat="22.746448" lon="110.103251">
        <ele>108.496683</ele>
        <time>2026-08-16T02:54:28.000Z</time>
      </trkpt>
      <trkpt lat="22.746415" lon="110.103305">
        <ele>108.451023</ele>
        <time>2026-08-16T02:54:29.000Z</time>
      </trkpt>
      <trkpt lat="22.746381" lon="110.103357">
        <ele>108.394267</ele>
        <time>2026-08-16T02:54:30.000Z</time>
      </trkpt>
      <trkpt lat="22.746347" lon="110.103410">
        <ele>108.302504</ele>
        <time>2026-08-16T02:54:31.000Z</time>
      </trkpt>
      <trkpt lat="22.746314" lon="110.103463">
        <ele>108.211613</ele>
        <time>2026-08-16T02:54:32.000Z</time>
      </trkpt>
      <trkpt lat="22.746282" lon="110.103517">
        <ele>108.120383</ele>
        <time>2026-08-16T02:54:33.000Z</time>
      </trkpt>
      <trkpt lat="22.746248" lon="110.103569">
        <ele>108.029783</ele>
        <time>2026-08-16T02:54:34.000Z</time>
      </trkpt>
      <trkpt lat="22.746214" lon="110.103622">
        <ele>107.938021</ele>
        <time>2026-08-16T02:54:35.000Z</time>
      </trkpt>
      <trkpt lat="22.746180" lon="110.103673">
        <ele>107.848577</ele>
        <time>2026-08-16T02:54:36.000Z</time>
      </trkpt>
      <trkpt lat="22.746145" lon="110.103725">
        <ele>107.757077</ele>
        <time>2026-08-16T02:54:37.000Z</time>
      </trkpt>
      <trkpt lat="22.746111" lon="110.103777">
        <ele>107.666478</ele>
        <time>2026-08-16T02:54:38.000Z</time>
      </trkpt>
      <trkpt lat="22.746074" lon="110.103829">
        <ele>107.573128</ele>
        <time>2026-08-16T02:54:39.000Z</time>
      </trkpt>
      <trkpt lat="22.746039" lon="110.103881">
        <ele>107.481629</ele>
        <time>2026-08-16T02:54:40.000Z</time>
      </trkpt>
      <trkpt lat="22.746003" lon="110.103933">
        <ele>107.389212</ele>
        <time>2026-08-16T02:54:41.000Z</time>
      </trkpt>
      <trkpt lat="22.745968" lon="110.103984">
        <ele>107.298857</ele>
        <time>2026-08-16T02:54:42.000Z</time>
      </trkpt>
      <trkpt lat="22.745932" lon="110.104033">
        <ele>107.209813</ele>
        <time>2026-08-16T02:54:43.000Z</time>
      </trkpt>
      <trkpt lat="22.745895" lon="110.104085">
        <ele>107.116463</ele>
        <time>2026-08-16T02:54:44.000Z</time>
      </trkpt>
      <trkpt lat="22.745860" lon="110.104138">
        <ele>107.023812</ele>
        <time>2026-08-16T02:54:45.000Z</time>
      </trkpt>
      <trkpt lat="22.745822" lon="110.104190">
        <ele>106.929513</ele>
        <time>2026-08-16T02:54:46.000Z</time>
      </trkpt>
      <trkpt lat="22.745784" lon="110.104244">
        <ele>106.832969</ele>
        <time>2026-08-16T02:54:47.000Z</time>
      </trkpt>
      <trkpt lat="22.745744" lon="110.104299">
        <ele>106.733413</ele>
        <time>2026-08-16T02:54:48.000Z</time>
      </trkpt>
      <trkpt lat="22.745705" lon="110.104353">
        <ele>106.635927</ele>
        <time>2026-08-16T02:54:49.000Z</time>
      </trkpt>
      <trkpt lat="22.745667" lon="110.104407">
        <ele>106.539384</ele>
        <time>2026-08-16T02:54:50.000Z</time>
      </trkpt>
      <trkpt lat="22.745630" lon="110.104462">
        <ele>106.442623</ele>
        <time>2026-08-16T02:54:51.000Z</time>
      </trkpt>
      <trkpt lat="22.745592" lon="110.104518">
        <ele>106.343804</ele>
        <time>2026-08-16T02:54:52.000Z</time>
      </trkpt>
      <trkpt lat="22.745551" lon="110.104574">
        <ele>106.242177</ele>
        <time>2026-08-16T02:54:53.000Z</time>
      </trkpt>
      <trkpt lat="22.745509" lon="110.104631">
        <ele>106.138478</ele>
        <time>2026-08-16T02:54:54.000Z</time>
      </trkpt>
      <trkpt lat="22.745468" lon="110.104686">
        <ele>106.037961</ele>
        <time>2026-08-16T02:54:55.000Z</time>
      </trkpt>
      <trkpt lat="22.745428" lon="110.104743">
        <ele>105.936157</ele>
        <time>2026-08-16T02:54:56.000Z</time>
      </trkpt>
      <trkpt lat="22.745387" lon="110.104800">
        <ele>105.833413</ele>
        <time>2026-08-16T02:54:57.000Z</time>
      </trkpt>
      <trkpt lat="22.745347" lon="110.104856">
        <ele>105.732737</ele>
        <time>2026-08-16T02:54:58.000Z</time>
      </trkpt>
      <trkpt lat="22.745307" lon="110.104913">
        <ele>105.626326</ele>
        <time>2026-08-16T02:54:59.000Z</time>
      </trkpt>
      <trkpt lat="22.745268" lon="110.104969">
        <ele>105.495445</ele>
        <time>2026-08-16T02:55:00.000Z</time>
      </trkpt>
      <trkpt lat="22.745226" lon="110.105025">
        <ele>105.360820</ele>
        <time>2026-08-16T02:55:01.000Z</time>
      </trkpt>
      <trkpt lat="22.745185" lon="110.105083">
        <ele>105.224521</ele>
        <time>2026-08-16T02:55:02.000Z</time>
      </trkpt>
      <trkpt lat="22.745144" lon="110.105141">
        <ele>105.088222</ele>
        <time>2026-08-16T02:55:03.000Z</time>
      </trkpt>
      <trkpt lat="22.745102" lon="110.105200">
        <ele>104.949212</ele>
        <time>2026-08-16T02:55:04.000Z</time>
      </trkpt>
      <trkpt lat="22.745060" lon="110.105259">
        <ele>104.810201</ele>
        <time>2026-08-16T02:55:05.000Z</time>
      </trkpt>
      <trkpt lat="22.745019" lon="110.105319">
        <ele>104.670923</ele>
        <time>2026-08-16T02:55:06.000Z</time>
      </trkpt>
      <trkpt lat="22.744979" lon="110.105378">
        <ele>104.534346</ele>
        <time>2026-08-16T02:55:07.000Z</time>
      </trkpt>
      <trkpt lat="22.744937" lon="110.105435">
        <ele>104.398270</ele>
        <time>2026-08-16T02:55:08.000Z</time>
      </trkpt>
      <trkpt lat="22.744894" lon="110.105492">
        <ele>104.260921</ele>
        <time>2026-08-16T02:55:09.000Z</time>
      </trkpt>
      <trkpt lat="22.744850" lon="110.105552">
        <ele>104.117948</ele>
        <time>2026-08-16T02:55:10.000Z</time>
      </trkpt>
      <trkpt lat="22.744808" lon="110.105611">
        <ele>103.978937</ele>
        <time>2026-08-16T02:55:11.000Z</time>
      </trkpt>
      <trkpt lat="22.744767" lon="110.105667">
        <ele>103.845579</ele>
        <time>2026-08-16T02:55:12.000Z</time>
      </trkpt>
      <trkpt lat="22.744725" lon="110.105721">
        <ele>103.713827</ele>
        <time>2026-08-16T02:55:13.000Z</time>
      </trkpt>
      <trkpt lat="22.744684" lon="110.105777">
        <ele>103.580469</ele>
        <time>2026-08-16T02:55:14.000Z</time>
      </trkpt>
      <trkpt lat="22.744643" lon="110.105834">
        <ele>103.445645</ele>
        <time>2026-08-16T02:55:15.000Z</time>
      </trkpt>
      <trkpt lat="22.744603" lon="110.105891">
        <ele>103.312055</ele>
        <time>2026-08-16T02:55:16.000Z</time>
      </trkpt>
      <trkpt lat="22.744564" lon="110.105948">
        <ele>103.179681</ele>
        <time>2026-08-16T02:55:17.000Z</time>
      </trkpt>
      <trkpt lat="22.744523" lon="110.106007">
        <ele>103.041896</ele>
        <time>2026-08-16T02:55:18.000Z</time>
      </trkpt>
      <trkpt lat="22.744481" lon="110.106065">
        <ele>102.904357</ele>
        <time>2026-08-16T02:55:19.000Z</time>
      </trkpt>
      <trkpt lat="22.744438" lon="110.106120">
        <ele>102.769875</ele>
        <time>2026-08-16T02:55:20.000Z</time>
      </trkpt>
      <trkpt lat="22.744397" lon="110.106177">
        <ele>102.635051</ele>
        <time>2026-08-16T02:55:21.000Z</time>
      </trkpt>
      <trkpt lat="22.744357" lon="110.106235">
        <ele>102.499972</ele>
        <time>2026-08-16T02:55:22.000Z</time>
      </trkpt>
      <trkpt lat="22.744314" lon="110.106292">
        <ele>102.362623</ele>
        <time>2026-08-16T02:55:23.000Z</time>
      </trkpt>
      <trkpt lat="22.744271" lon="110.106350">
        <ele>102.223826</ele>
        <time>2026-08-16T02:55:24.000Z</time>
      </trkpt>
      <trkpt lat="22.744229" lon="110.106410">
        <ele>102.083334</ele>
        <time>2026-08-16T02:55:25.000Z</time>
      </trkpt>
      <trkpt lat="22.744187" lon="110.106468">
        <ele>101.984489</ele>
        <time>2026-08-16T02:55:26.000Z</time>
      </trkpt>
      <trkpt lat="22.744145" lon="110.106525">
        <ele>101.932856</ele>
        <time>2026-08-16T02:55:27.000Z</time>
      </trkpt>
      <trkpt lat="22.744103" lon="110.106584">
        <ele>101.880110</ele>
        <time>2026-08-16T02:55:28.000Z</time>
      </trkpt>
      <trkpt lat="22.744060" lon="110.106643">
        <ele>101.826891</ele>
        <time>2026-08-16T02:55:29.000Z</time>
      </trkpt>
      <trkpt lat="22.744016" lon="110.106701">
        <ele>101.773741</ele>
        <time>2026-08-16T02:55:30.000Z</time>
      </trkpt>
      <trkpt lat="22.743971" lon="110.106760">
        <ele>101.719557</ele>
        <time>2026-08-16T02:55:31.000Z</time>
      </trkpt>
      <trkpt lat="22.743926" lon="110.106820">
        <ele>101.664826</ele>
        <time>2026-08-16T02:55:32.000Z</time>
      </trkpt>
      <trkpt lat="22.743881" lon="110.106878">
        <ele>101.611186</ele>
        <time>2026-08-16T02:55:33.000Z</time>
      </trkpt>
      <trkpt lat="22.743836" lon="110.106934">
        <ele>101.558621</ele>
        <time>2026-08-16T02:55:34.000Z</time>
      </trkpt>
      <trkpt lat="22.743792" lon="110.106989">
        <ele>101.507093</ele>
        <time>2026-08-16T02:55:35.000Z</time>
      </trkpt>
      <trkpt lat="22.743746" lon="110.107045">
        <ele>101.454020</ele>
        <time>2026-08-16T02:55:36.000Z</time>
      </trkpt>
      <trkpt lat="22.743702" lon="110.107102">
        <ele>101.401415</ele>
        <time>2026-08-16T02:55:37.000Z</time>
      </trkpt>
      <trkpt lat="22.743662" lon="110.107165">
        <ele>101.347286</ele>
        <time>2026-08-16T02:55:38.000Z</time>
      </trkpt>
      <trkpt lat="22.743621" lon="110.107227">
        <ele>101.293294</ele>
        <time>2026-08-16T02:55:39.000Z</time>
      </trkpt>
      <trkpt lat="22.743579" lon="110.107285">
        <ele>101.241105</ele>
        <time>2026-08-16T02:55:40.000Z</time>
      </trkpt>
      <trkpt lat="22.743538" lon="110.107342">
        <ele>101.189947</ele>
        <time>2026-08-16T02:55:41.000Z</time>
      </trkpt>
      <trkpt lat="22.743497" lon="110.107397">
        <ele>101.139898</ele>
        <time>2026-08-16T02:55:42.000Z</time>
      </trkpt>
      <trkpt lat="22.743455" lon="110.107453">
        <ele>101.088816</ele>
        <time>2026-08-16T02:55:43.000Z</time>
      </trkpt>
      <trkpt lat="22.743411" lon="110.107508">
        <ele>101.037288</ele>
        <time>2026-08-16T02:55:44.000Z</time>
      </trkpt>
      <trkpt lat="22.743361" lon="110.107555">
        <ele>100.986509</ele>
        <time>2026-08-16T02:55:45.000Z</time>
      </trkpt>
      <trkpt lat="22.743312" lon="110.107601">
        <ele>100.936773</ele>
        <time>2026-08-16T02:55:46.000Z</time>
      </trkpt>
      <trkpt lat="22.743269" lon="110.107654">
        <ele>100.886816</ele>
        <time>2026-08-16T02:55:47.000Z</time>
      </trkpt>
      <trkpt lat="22.743228" lon="110.107710">
        <ele>100.836214</ele>
        <time>2026-08-16T02:55:48.000Z</time>
      </trkpt>
      <trkpt lat="22.743186" lon="110.107763">
        <ele>100.786761</ele>
        <time>2026-08-16T02:55:49.000Z</time>
      </trkpt>
      <trkpt lat="22.743145" lon="110.107820">
        <ele>100.735602</ele>
        <time>2026-08-16T02:55:50.000Z</time>
      </trkpt>
      <trkpt lat="22.743105" lon="110.107877">
        <ele>100.684913</ele>
        <time>2026-08-16T02:55:51.000Z</time>
      </trkpt>
      <trkpt lat="22.743064" lon="110.107934">
        <ele>100.633755</ele>
        <time>2026-08-16T02:55:52.000Z</time>
      </trkpt>
      <trkpt lat="22.743026" lon="110.107992">
        <ele>100.640893</ele>
        <time>2026-08-16T02:55:53.000Z</time>
      </trkpt>
      <trkpt lat="22.742985" lon="110.108050">
        <ele>100.655968</ele>
        <time>2026-08-16T02:55:54.000Z</time>
      </trkpt>
      <trkpt lat="22.742945" lon="110.108103">
        <ele>100.670096</ele>
        <time>2026-08-16T02:55:55.000Z</time>
      </trkpt>
      <trkpt lat="22.742904" lon="110.108161">
        <ele>100.685171</ele>
        <time>2026-08-16T02:55:56.000Z</time>
      </trkpt>
      <trkpt lat="22.742864" lon="110.108217">
        <ele>100.699783</ele>
        <time>2026-08-16T02:55:57.000Z</time>
      </trkpt>
      <trkpt lat="22.742824" lon="110.108273">
        <ele>100.714395</ele>
        <time>2026-08-16T02:55:58.000Z</time>
      </trkpt>
      <trkpt lat="22.742782" lon="110.108324">
        <ele>100.728500</ele>
        <time>2026-08-16T02:55:59.000Z</time>
      </trkpt>
      <trkpt lat="22.742743" lon="110.108377">
        <ele>100.742488</ele>
        <time>2026-08-16T02:56:00.000Z</time>
      </trkpt>
      <trkpt lat="22.742704" lon="110.108430">
        <ele>100.756475</ele>
        <time>2026-08-16T02:56:01.000Z</time>
      </trkpt>
      <trkpt lat="22.742666" lon="110.108481">
        <ele>100.770000</ele>
        <time>2026-08-16T02:56:02.000Z</time>
      </trkpt>
      <trkpt lat="22.742627" lon="110.108530">
        <ele>100.783353</ele>
        <time>2026-08-16T02:56:03.000Z</time>
      </trkpt>
      <trkpt lat="22.742586" lon="110.108580">
        <ele>100.797155</ele>
        <time>2026-08-16T02:56:04.000Z</time>
      </trkpt>
      <trkpt lat="22.742547" lon="110.108628">
        <ele>100.810351</ele>
        <time>2026-08-16T02:56:05.000Z</time>
      </trkpt>
      <trkpt lat="22.742505" lon="110.108666">
        <ele>100.822587</ele>
        <time>2026-08-16T02:56:06.000Z</time>
      </trkpt>
      <trkpt lat="22.742465" lon="110.108708">
        <ele>100.835042</ele>
        <time>2026-08-16T02:56:07.000Z</time>
      </trkpt>
      <trkpt lat="22.742430" lon="110.108753">
        <ele>100.847186</ele>
        <time>2026-08-16T02:56:08.000Z</time>
      </trkpt>
      <trkpt lat="22.742393" lon="110.108795">
        <ele>100.859168</ele>
        <time>2026-08-16T02:56:09.000Z</time>
      </trkpt>
      <trkpt lat="22.742356" lon="110.108837">
        <ele>100.871150</ele>
        <time>2026-08-16T02:56:10.000Z</time>
      </trkpt>
      <trkpt lat="22.742321" lon="110.108879">
        <ele>100.882827</ele>
        <time>2026-08-16T02:56:11.000Z</time>
      </trkpt>
      <trkpt lat="22.742287" lon="110.108924">
        <ele>100.894828</ele>
        <time>2026-08-16T02:56:12.000Z</time>
      </trkpt>
      <trkpt lat="22.742256" lon="110.108972">
        <ele>100.906916</ele>
        <time>2026-08-16T02:56:13.000Z</time>
      </trkpt>
      <trkpt lat="22.742221" lon="110.109016">
        <ele>100.918903</ele>
        <time>2026-08-16T02:56:14.000Z</time>
      </trkpt>
      <trkpt lat="22.742186" lon="110.109059">
        <ele>100.930734</ele>
        <time>2026-08-16T02:56:15.000Z</time>
      </trkpt>
      <trkpt lat="22.742150" lon="110.109101">
        <ele>100.942563</ele>
        <time>2026-08-16T02:56:16.000Z</time>
      </trkpt>
      <trkpt lat="22.742115" lon="110.109146">
        <ele>100.954707</ele>
        <time>2026-08-16T02:56:17.000Z</time>
      </trkpt>
      <trkpt lat="22.742079" lon="110.109189">
        <ele>100.966687</ele>
        <time>2026-08-16T02:56:18.000Z</time>
      </trkpt>
      <trkpt lat="22.742044" lon="110.109233">
        <ele>100.978674</ele>
        <time>2026-08-16T02:56:19.000Z</time>
      </trkpt>
      <trkpt lat="22.742009" lon="110.109274">
        <ele>100.990199</ele>
        <time>2026-08-16T02:56:20.000Z</time>
      </trkpt>
      <trkpt lat="22.741973" lon="110.109320">
        <ele>101.002645</ele>
        <time>2026-08-16T02:56:21.000Z</time>
      </trkpt>
      <trkpt lat="22.741936" lon="110.109365">
        <ele>101.015082</ele>
        <time>2026-08-16T02:56:22.000Z</time>
      </trkpt>
      <trkpt lat="22.741899" lon="110.109411">
        <ele>101.027673</ele>
        <time>2026-08-16T02:56:23.000Z</time>
      </trkpt>
      <trkpt lat="22.741860" lon="110.109455">
        <ele>101.003309</ele>
        <time>2026-08-16T02:56:24.000Z</time>
      </trkpt>
      <trkpt lat="22.741822" lon="110.109501">
        <ele>100.969055</ele>
        <time>2026-08-16T02:56:25.000Z</time>
      </trkpt>
      <trkpt lat="22.741785" lon="110.109549">
        <ele>100.934356</ele>
        <time>2026-08-16T02:56:26.000Z</time>
      </trkpt>
      <trkpt lat="22.741747" lon="110.109595">
        <ele>100.900103</ele>
        <time>2026-08-16T02:56:27.000Z</time>
      </trkpt>
      <trkpt lat="22.741711" lon="110.109643">
        <ele>100.865786</ele>
        <time>2026-08-16T02:56:28.000Z</time>
      </trkpt>
      <trkpt lat="22.741673" lon="110.109690">
        <ele>100.831117</ele>
        <time>2026-08-16T02:56:29.000Z</time>
      </trkpt>
      <trkpt lat="22.741632" lon="110.109733">
        <ele>100.796812</ele>
        <time>2026-08-16T02:56:30.000Z</time>
      </trkpt>
      <trkpt lat="22.741591" lon="110.109778">
        <ele>100.761725</ele>
        <time>2026-08-16T02:56:31.000Z</time>
      </trkpt>
      <trkpt lat="22.741551" lon="110.109825">
        <ele>100.726252</ele>
        <time>2026-08-16T02:56:32.000Z</time>
      </trkpt>
      <trkpt lat="22.741511" lon="110.109872">
        <ele>100.690779</ele>
        <time>2026-08-16T02:56:33.000Z</time>
      </trkpt>
      <trkpt lat="22.741471" lon="110.109919">
        <ele>100.655306</ele>
        <time>2026-08-16T02:56:34.000Z</time>
      </trkpt>
      <trkpt lat="22.741433" lon="110.109964">
        <ele>100.621463</ele>
        <time>2026-08-16T02:56:35.000Z</time>
      </trkpt>
      <trkpt lat="22.741394" lon="110.110011">
        <ele>100.586395</ele>
        <time>2026-08-16T02:56:36.000Z</time>
      </trkpt>
      <trkpt lat="22.741356" lon="110.110058">
        <ele>100.551726</ele>
        <time>2026-08-16T02:56:37.000Z</time>
      </trkpt>
      <trkpt lat="22.741318" lon="110.110105">
        <ele>100.517058</ele>
        <time>2026-08-16T02:56:38.000Z</time>
      </trkpt>
      <trkpt lat="22.741281" lon="110.110151">
        <ele>100.483202</ele>
        <time>2026-08-16T02:56:39.000Z</time>
      </trkpt>
      <trkpt lat="22.741244" lon="110.110198">
        <ele>100.448927</ele>
        <time>2026-08-16T02:56:40.000Z</time>
      </trkpt>
      <trkpt lat="22.741206" lon="110.110244">
        <ele>100.414673</ele>
        <time>2026-08-16T02:56:41.000Z</time>
      </trkpt>
      <trkpt lat="22.741167" lon="110.110290">
        <ele>100.380016</ele>
        <time>2026-08-16T02:56:42.000Z</time>
      </trkpt>
      <trkpt lat="22.741129" lon="110.110335">
        <ele>100.346173</ele>
        <time>2026-08-16T02:56:43.000Z</time>
      </trkpt>
      <trkpt lat="22.741091" lon="110.110381">
        <ele>100.311919</ele>
        <time>2026-08-16T02:56:44.000Z</time>
      </trkpt>
      <trkpt lat="22.741051" lon="110.110425">
        <ele>100.277650</ele>
        <time>2026-08-16T02:56:45.000Z</time>
      </trkpt>
      <trkpt lat="22.741012" lon="110.110471">
        <ele>100.242993</ele>
        <time>2026-08-16T02:56:46.000Z</time>
      </trkpt>
      <trkpt lat="22.740975" lon="110.110517">
        <ele>100.209137</ele>
        <time>2026-08-16T02:56:47.000Z</time>
      </trkpt>
      <trkpt lat="22.740938" lon="110.110564">
        <ele>100.174862</ele>
        <time>2026-08-16T02:56:48.000Z</time>
      </trkpt>
      <trkpt lat="22.740902" lon="110.110610">
        <ele>100.141399</ele>
        <time>2026-08-16T02:56:49.000Z</time>
      </trkpt>
      <trkpt lat="22.740865" lon="110.110653">
        <ele>100.108779</ele>
        <time>2026-08-16T02:56:50.000Z</time>
      </trkpt>
      <trkpt lat="22.740828" lon="110.110699">
        <ele>100.074924</ele>
        <time>2026-08-16T02:56:51.000Z</time>
      </trkpt>
      <trkpt lat="22.740792" lon="110.110745">
        <ele>100.041461</ele>
        <time>2026-08-16T02:56:52.000Z</time>
      </trkpt>
      <trkpt lat="22.740755" lon="110.110789">
        <ele>100.008433</ele>
        <time>2026-08-16T02:56:53.000Z</time>
      </trkpt>
      <trkpt lat="22.740718" lon="110.110833">
        <ele>99.975406</ele>
        <time>2026-08-16T02:56:54.000Z</time>
      </trkpt>
      <trkpt lat="22.740681" lon="110.110878">
        <ele>99.941785</ele>
        <time>2026-08-16T02:56:55.000Z</time>
      </trkpt>
      <trkpt lat="22.740644" lon="110.110923">
        <ele>99.907416</ele>
        <time>2026-08-16T02:56:56.000Z</time>
      </trkpt>
      <trkpt lat="22.740606" lon="110.110967">
        <ele>99.873052</ele>
        <time>2026-08-16T02:56:57.000Z</time>
      </trkpt>
      <trkpt lat="22.740569" lon="110.111011">
        <ele>99.839106</ele>
        <time>2026-08-16T02:56:58.000Z</time>
      </trkpt>
      <trkpt lat="22.740532" lon="110.111055">
        <ele>99.805161</ele>
        <time>2026-08-16T02:56:59.000Z</time>
      </trkpt>
      <trkpt lat="22.740495" lon="110.111100">
        <ele>99.770793</ele>
        <time>2026-08-16T02:57:00.000Z</time>
      </trkpt>
      <trkpt lat="22.740458" lon="110.111144">
        <ele>99.736847</ele>
        <time>2026-08-16T02:57:01.000Z</time>
      </trkpt>
      <trkpt lat="22.740420" lon="110.111185">
        <ele>99.703710</ele>
        <time>2026-08-16T02:57:02.000Z</time>
      </trkpt>
      <trkpt lat="22.740382" lon="110.111228">
        <ele>99.669760</ele>
        <time>2026-08-16T02:57:03.000Z</time>
      </trkpt>
      <trkpt lat="22.740343" lon="110.111273">
        <ele>99.634556</ele>
        <time>2026-08-16T02:57:04.000Z</time>
      </trkpt>
      <trkpt lat="22.740304" lon="110.111315">
        <ele>99.600579</ele>
        <time>2026-08-16T02:57:05.000Z</time>
      </trkpt>
      <trkpt lat="22.740267" lon="110.111362">
        <ele>99.565351</ele>
        <time>2026-08-16T02:57:06.000Z</time>
      </trkpt>
      <trkpt lat="22.740229" lon="110.111406">
        <ele>99.530986</ele>
        <time>2026-08-16T02:57:07.000Z</time>
      </trkpt>
      <trkpt lat="22.740193" lon="110.111452">
        <ele>99.496593</ele>
        <time>2026-08-16T02:57:08.000Z</time>
      </trkpt>
      <trkpt lat="22.740155" lon="110.111496">
        <ele>99.462228</ele>
        <time>2026-08-16T02:57:09.000Z</time>
      </trkpt>
      <trkpt lat="22.740116" lon="110.111542">
        <ele>99.426607</ele>
        <time>2026-08-16T02:57:10.000Z</time>
      </trkpt>
      <trkpt lat="22.740078" lon="110.111588">
        <ele>99.391402</ele>
        <time>2026-08-16T02:57:11.000Z</time>
      </trkpt>
      <trkpt lat="22.740038" lon="110.111634">
        <ele>99.355359</ele>
        <time>2026-08-16T02:57:12.000Z</time>
      </trkpt>
      <trkpt lat="22.739999" lon="110.111680">
        <ele>99.319738</ele>
        <time>2026-08-16T02:57:13.000Z</time>
      </trkpt>
      <trkpt lat="22.739961" lon="110.111728">
        <ele>99.283675</ele>
        <time>2026-08-16T02:57:14.000Z</time>
      </trkpt>
      <trkpt lat="22.739922" lon="110.111776">
        <ele>99.247207</ele>
        <time>2026-08-16T02:57:15.000Z</time>
      </trkpt>
      <trkpt lat="22.739881" lon="110.111821">
        <ele>99.211145</ele>
        <time>2026-08-16T02:57:16.000Z</time>
      </trkpt>
      <trkpt lat="22.739838" lon="110.111863">
        <ele>99.175371</ele>
        <time>2026-08-16T02:57:17.000Z</time>
      </trkpt>
      <trkpt lat="22.739799" lon="110.111907">
        <ele>99.140581</ele>
        <time>2026-08-16T02:57:18.000Z</time>
      </trkpt>
      <trkpt lat="22.739761" lon="110.111956">
        <ele>99.104084</ele>
        <time>2026-08-16T02:57:19.000Z</time>
      </trkpt>
      <trkpt lat="22.739723" lon="110.112005">
        <ele>99.067586</ele>
        <time>2026-08-16T02:57:20.000Z</time>
      </trkpt>
      <trkpt lat="22.739686" lon="110.112056">
        <ele>99.030594</ele>
        <time>2026-08-16T02:57:21.000Z</time>
      </trkpt>
      <trkpt lat="22.739650" lon="110.112110">
        <ele>98.992609</ele>
        <time>2026-08-16T02:57:22.000Z</time>
      </trkpt>
      <trkpt lat="22.739616" lon="110.112165">
        <ele>98.954862</ele>
        <time>2026-08-16T02:57:23.000Z</time>
      </trkpt>
      <trkpt lat="22.739581" lon="110.112221">
        <ele>98.916297</ele>
        <time>2026-08-16T02:57:24.000Z</time>
      </trkpt>
      <trkpt lat="22.739544" lon="110.112274">
        <ele>98.878402</ele>
        <time>2026-08-16T02:57:25.000Z</time>
      </trkpt>
      <trkpt lat="22.739510" lon="110.112331">
        <ele>98.839703</ele>
        <time>2026-08-16T02:57:26.000Z</time>
      </trkpt>
      <trkpt lat="22.739476" lon="110.112390">
        <ele>98.785007</ele>
        <time>2026-08-16T02:57:27.000Z</time>
      </trkpt>
      <trkpt lat="22.739441" lon="110.112448">
        <ele>98.729284</ele>
        <time>2026-08-16T02:57:28.000Z</time>
      </trkpt>
      <trkpt lat="22.739404" lon="110.112506">
        <ele>98.672588</ele>
        <time>2026-08-16T02:57:29.000Z</time>
      </trkpt>
      <trkpt lat="22.739366" lon="110.112561">
        <ele>98.617339</ele>
        <time>2026-08-16T02:57:30.000Z</time>
      </trkpt>
      <trkpt lat="22.739326" lon="110.112616">
        <ele>98.561029</ele>
        <time>2026-08-16T02:57:31.000Z</time>
      </trkpt>
      <trkpt lat="22.739290" lon="110.112674">
        <ele>98.504824</ele>
        <time>2026-08-16T02:57:32.000Z</time>
      </trkpt>
      <trkpt lat="22.739256" lon="110.112734">
        <ele>98.448210</ele>
        <time>2026-08-16T02:57:33.000Z</time>
      </trkpt>
      <trkpt lat="22.739222" lon="110.112795">
        <ele>98.390909</ele>
        <time>2026-08-16T02:57:34.000Z</time>
      </trkpt>
      <trkpt lat="22.739189" lon="110.112855">
        <ele>98.334746</ele>
        <time>2026-08-16T02:57:35.000Z</time>
      </trkpt>
      <trkpt lat="22.739156" lon="110.112916">
        <ele>98.277892</ele>
        <time>2026-08-16T02:57:36.000Z</time>
      </trkpt>
      <trkpt lat="22.739119" lon="110.112979">
        <ele>98.217846</ele>
        <time>2026-08-16T02:57:37.000Z</time>
      </trkpt>
      <trkpt lat="22.739083" lon="110.113044">
        <ele>98.156891</ele>
        <time>2026-08-16T02:57:38.000Z</time>
      </trkpt>
      <trkpt lat="22.739048" lon="110.113109">
        <ele>98.096380</ele>
        <time>2026-08-16T02:57:39.000Z</time>
      </trkpt>
      <trkpt lat="22.739013" lon="110.113172">
        <ele>98.037253</ele>
        <time>2026-08-16T02:57:40.000Z</time>
      </trkpt>
      <trkpt lat="22.738977" lon="110.113237">
        <ele>97.976298</ele>
        <time>2026-08-16T02:57:41.000Z</time>
      </trkpt>
      <trkpt lat="22.738939" lon="110.113302">
        <ele>97.914427</ele>
        <time>2026-08-16T02:57:42.000Z</time>
      </trkpt>
      <trkpt lat="22.738902" lon="110.113366">
        <ele>97.853702</ele>
        <time>2026-08-16T02:57:43.000Z</time>
      </trkpt>
      <trkpt lat="22.738866" lon="110.113429">
        <ele>97.794120</ele>
        <time>2026-08-16T02:57:44.000Z</time>
      </trkpt>
      <trkpt lat="22.738831" lon="110.113494">
        <ele>97.733609</ele>
        <time>2026-08-16T02:57:45.000Z</time>
      </trkpt>
      <trkpt lat="22.738794" lon="110.113558">
        <ele>97.672883</ele>
        <time>2026-08-16T02:57:46.000Z</time>
      </trkpt>
      <trkpt lat="22.738755" lon="110.113620">
        <ele>97.612549</ele>
        <time>2026-08-16T02:57:47.000Z</time>
      </trkpt>
      <trkpt lat="22.738718" lon="110.113684">
        <ele>97.551823</ele>
        <time>2026-08-16T02:57:48.000Z</time>
      </trkpt>
      <trkpt lat="22.738680" lon="110.113749">
        <ele>97.489953</ele>
        <time>2026-08-16T02:57:49.000Z</time>
      </trkpt>
      <trkpt lat="22.738642" lon="110.113812">
        <ele>97.429434</ele>
        <time>2026-08-16T02:57:50.000Z</time>
      </trkpt>
      <trkpt lat="22.738605" lon="110.113877">
        <ele>97.368026</ele>
        <time>2026-08-16T02:57:51.000Z</time>
      </trkpt>
      <trkpt lat="22.738568" lon="110.113941">
        <ele>97.307300</ele>
        <time>2026-08-16T02:57:52.000Z</time>
      </trkpt>
      <trkpt lat="22.738531" lon="110.114002">
        <ele>97.264934</ele>
        <time>2026-08-16T02:57:53.000Z</time>
      </trkpt>
      <trkpt lat="22.738495" lon="110.114064">
        <ele>97.253603</ele>
        <time>2026-08-16T02:57:54.000Z</time>
      </trkpt>
      <trkpt lat="22.738457" lon="110.114125">
        <ele>97.242219</ele>
        <time>2026-08-16T02:57:55.000Z</time>
      </trkpt>
      <trkpt lat="22.738419" lon="110.114184">
        <ele>97.231090</ele>
        <time>2026-08-16T02:57:56.000Z</time>
      </trkpt>
      <trkpt lat="22.738381" lon="110.114244">
        <ele>97.219833</ele>
        <time>2026-08-16T02:57:57.000Z</time>
      </trkpt>
      <trkpt lat="22.738342" lon="110.114303">
        <ele>97.208607</ele>
        <time>2026-08-16T02:57:58.000Z</time>
      </trkpt>
      <trkpt lat="22.738303" lon="110.114361">
        <ele>97.197507</ele>
        <time>2026-08-16T02:57:59.000Z</time>
      </trkpt>
      <trkpt lat="22.738264" lon="110.114418">
        <ele>97.186530</ele>
        <time>2026-08-16T02:58:00.000Z</time>
      </trkpt>
      <trkpt lat="22.738225" lon="110.114474">
        <ele>97.175678</ele>
        <time>2026-08-16T02:58:01.000Z</time>
      </trkpt>
      <trkpt lat="22.738186" lon="110.114529">
        <ele>97.164949</ele>
        <time>2026-08-16T02:58:02.000Z</time>
      </trkpt>
      <trkpt lat="22.738149" lon="110.114584">
        <ele>97.154421</ele>
        <time>2026-08-16T02:58:03.000Z</time>
      </trkpt>
      <trkpt lat="22.738110" lon="110.114637">
        <ele>97.143935</ele>
        <time>2026-08-16T02:58:04.000Z</time>
      </trkpt>
      <trkpt lat="22.738070" lon="110.114689">
        <ele>97.133463</ele>
        <time>2026-08-16T02:58:05.000Z</time>
      </trkpt>
      <trkpt lat="22.738031" lon="110.114740">
        <ele>97.123217</ele>
        <time>2026-08-16T02:58:06.000Z</time>
      </trkpt>
      <trkpt lat="22.737993" lon="110.114790">
        <ele>97.113197</ele>
        <time>2026-08-16T02:58:07.000Z</time>
      </trkpt>
      <trkpt lat="22.737956" lon="110.114842">
        <ele>97.103040</ele>
        <time>2026-08-16T02:58:08.000Z</time>
      </trkpt>
      <trkpt lat="22.737917" lon="110.114891">
        <ele>97.093030</ele>
        <time>2026-08-16T02:58:09.000Z</time>
      </trkpt>
      <trkpt lat="22.737881" lon="110.114941">
        <ele>97.083220</ele>
        <time>2026-08-16T02:58:10.000Z</time>
      </trkpt>
      <trkpt lat="22.737845" lon="110.114991">
        <ele>97.073410</ele>
        <time>2026-08-16T02:58:11.000Z</time>
      </trkpt>
      <trkpt lat="22.737808" lon="110.115039">
        <ele>97.063736</ele>
        <time>2026-08-16T02:58:12.000Z</time>
      </trkpt>
      <trkpt lat="22.737772" lon="110.115087">
        <ele>97.054168</ele>
        <time>2026-08-16T02:58:13.000Z</time>
      </trkpt>
      <trkpt lat="22.737735" lon="110.115135">
        <ele>97.044493</ele>
        <time>2026-08-16T02:58:14.000Z</time>
      </trkpt>
      <trkpt lat="22.737698" lon="110.115182">
        <ele>97.034936</ele>
        <time>2026-08-16T02:58:15.000Z</time>
      </trkpt>
      <trkpt lat="22.737661" lon="110.115229">
        <ele>97.025380</ele>
        <time>2026-08-16T02:58:16.000Z</time>
      </trkpt>
      <trkpt lat="22.737627" lon="110.115279">
        <ele>97.015772</ele>
        <time>2026-08-16T02:58:17.000Z</time>
      </trkpt>
      <trkpt lat="22.737594" lon="110.115328">
        <ele>97.006389</ele>
        <time>2026-08-16T02:58:18.000Z</time>
      </trkpt>
      <trkpt lat="22.737558" lon="110.115376">
        <ele>96.996821</ele>
        <time>2026-08-16T02:58:19.000Z</time>
      </trkpt>
      <trkpt lat="22.737523" lon="110.115424">
        <ele>96.987358</ele>
        <time>2026-08-16T02:58:20.000Z</time>
      </trkpt>
      <trkpt lat="22.737488" lon="110.115472">
        <ele>96.977895</ele>
        <time>2026-08-16T02:58:21.000Z</time>
      </trkpt>
      <trkpt lat="22.737452" lon="110.115520">
        <ele>96.968327</ele>
        <time>2026-08-16T02:58:22.000Z</time>
      </trkpt>
      <trkpt lat="22.737419" lon="110.115567">
        <ele>96.949519</ele>
        <time>2026-08-16T02:58:23.000Z</time>
      </trkpt>
      <trkpt lat="22.737387" lon="110.115616">
        <ele>96.929044</ele>
        <time>2026-08-16T02:58:24.000Z</time>
      </trkpt>
      <trkpt lat="22.737354" lon="110.115664">
        <ele>96.908627</ele>
        <time>2026-08-16T02:58:25.000Z</time>
      </trkpt>
      <trkpt lat="22.737319" lon="110.115710">
        <ele>96.888291</ele>
        <time>2026-08-16T02:58:26.000Z</time>
      </trkpt>
      <trkpt lat="22.737284" lon="110.115757">
        <ele>96.867690</ele>
        <time>2026-08-16T02:58:27.000Z</time>
      </trkpt>
      <trkpt lat="22.737249" lon="110.115805">
        <ele>96.846823</ele>
        <time>2026-08-16T02:58:28.000Z</time>
      </trkpt>
      <trkpt lat="22.737215" lon="110.115853">
        <ele>96.826183</ele>
        <time>2026-08-16T02:58:29.000Z</time>
      </trkpt>
      <trkpt lat="22.737180" lon="110.115902">
        <ele>96.805047</ele>
        <time>2026-08-16T02:58:30.000Z</time>
      </trkpt>
      <trkpt lat="22.737146" lon="110.115953">
        <ele>96.783587</ele>
        <time>2026-08-16T02:58:31.000Z</time>
      </trkpt>
      <trkpt lat="22.737110" lon="110.116002">
        <ele>96.762222</ele>
        <time>2026-08-16T02:58:32.000Z</time>
      </trkpt>
      <trkpt lat="22.737075" lon="110.116051">
        <ele>96.741087</ele>
        <time>2026-08-16T02:58:33.000Z</time>
      </trkpt>
      <trkpt lat="22.737040" lon="110.116099">
        <ele>96.720219</ele>
        <time>2026-08-16T02:58:34.000Z</time>
      </trkpt>
      <trkpt lat="22.737004" lon="110.116148">
        <ele>96.698855</ele>
        <time>2026-08-16T02:58:35.000Z</time>
      </trkpt>
      <trkpt lat="22.736969" lon="110.116198">
        <ele>96.677449</ele>
        <time>2026-08-16T02:58:36.000Z</time>
      </trkpt>
      <trkpt lat="22.736934" lon="110.116247">
        <ele>96.656313</ele>
        <time>2026-08-16T02:58:37.000Z</time>
      </trkpt>
      <trkpt lat="22.736897" lon="110.116296">
        <ele>96.634716</ele>
        <time>2026-08-16T02:58:38.000Z</time>
      </trkpt>
      <trkpt lat="22.736862" lon="110.116345">
        <ele>96.613581</ele>
        <time>2026-08-16T02:58:39.000Z</time>
      </trkpt>
      <trkpt lat="22.736829" lon="110.116396">
        <ele>96.592335</ele>
        <time>2026-08-16T02:58:40.000Z</time>
      </trkpt>
      <trkpt lat="22.736794" lon="110.116448">
        <ele>96.570381</ele>
        <time>2026-08-16T02:58:41.000Z</time>
      </trkpt>
      <trkpt lat="22.736760" lon="110.116499">
        <ele>96.548921</ele>
        <time>2026-08-16T02:58:42.000Z</time>
      </trkpt>
      <trkpt lat="22.736724" lon="110.116550">
        <ele>96.527019</ele>
        <time>2026-08-16T02:58:43.000Z</time>
      </trkpt>
      <trkpt lat="22.736688" lon="110.116600">
        <ele>96.505387</ele>
        <time>2026-08-16T02:58:44.000Z</time>
      </trkpt>
      <trkpt lat="22.736651" lon="110.116652">
        <ele>96.482989</ele>
        <time>2026-08-16T02:58:45.000Z</time>
      </trkpt>
      <trkpt lat="22.736616" lon="110.116704">
        <ele>96.461036</ele>
        <time>2026-08-16T02:58:46.000Z</time>
      </trkpt>
      <trkpt lat="22.736582" lon="110.116752">
        <ele>96.440396</ele>
        <time>2026-08-16T02:58:47.000Z</time>
      </trkpt>
      <trkpt lat="22.736546" lon="110.116800">
        <ele>96.419297</ele>
        <time>2026-08-16T02:58:48.000Z</time>
      </trkpt>
      <trkpt lat="22.736511" lon="110.116849">
        <ele>96.398161</ele>
        <time>2026-08-16T02:58:49.000Z</time>
      </trkpt>
      <trkpt lat="22.736475" lon="110.116897">
        <ele>96.377063</ele>
        <time>2026-08-16T02:58:50.000Z</time>
      </trkpt>
      <trkpt lat="22.736441" lon="110.116945">
        <ele>96.356423</ele>
        <time>2026-08-16T02:58:51.000Z</time>
      </trkpt>
      <trkpt lat="22.736407" lon="110.116994">
        <ele>96.335511</ele>
        <time>2026-08-16T02:58:52.000Z</time>
      </trkpt>
      <trkpt lat="22.736372" lon="110.117043">
        <ele>96.314375</ele>
        <time>2026-08-16T02:58:53.000Z</time>
      </trkpt>
      <trkpt lat="22.736337" lon="110.117093">
        <ele>96.300610</ele>
        <time>2026-08-16T02:58:54.000Z</time>
      </trkpt>
      <trkpt lat="22.736303" lon="110.117145">
        <ele>96.296968</ele>
        <time>2026-08-16T02:58:55.000Z</time>
      </trkpt>
      <trkpt lat="22.736267" lon="110.117196">
        <ele>96.293299</ele>
        <time>2026-08-16T02:58:56.000Z</time>
      </trkpt>
      <trkpt lat="22.736232" lon="110.117247">
        <ele>96.289667</ele>
        <time>2026-08-16T02:58:57.000Z</time>
      </trkpt>
      <trkpt lat="22.736196" lon="110.117299">
        <ele>96.285952</ele>
        <time>2026-08-16T02:58:58.000Z</time>
      </trkpt>
      <trkpt lat="22.736159" lon="110.117352">
        <ele>96.282154</ele>
        <time>2026-08-16T02:58:59.000Z</time>
      </trkpt>
      <trkpt lat="22.736123" lon="110.117403">
        <ele>96.278484</ele>
        <time>2026-08-16T02:59:00.000Z</time>
      </trkpt>
      <trkpt lat="22.736088" lon="110.117455">
        <ele>96.274806</ele>
        <time>2026-08-16T02:59:01.000Z</time>
      </trkpt>
      <trkpt lat="22.736053" lon="110.117508">
        <ele>96.271082</ele>
        <time>2026-08-16T02:59:02.000Z</time>
      </trkpt>
      <trkpt lat="22.736017" lon="110.117560">
        <ele>96.267367</ele>
        <time>2026-08-16T02:59:03.000Z</time>
      </trkpt>
      <trkpt lat="22.735981" lon="110.117611">
        <ele>96.263698</ele>
        <time>2026-08-16T02:59:04.000Z</time>
      </trkpt>
      <trkpt lat="22.735945" lon="110.117664">
        <ele>96.259937</ele>
        <time>2026-08-16T02:59:05.000Z</time>
      </trkpt>
      <trkpt lat="22.735910" lon="110.117715">
        <ele>96.256305</ele>
        <time>2026-08-16T02:59:06.000Z</time>
      </trkpt>
      <trkpt lat="22.735875" lon="110.117765">
        <ele>96.252719</ele>
        <time>2026-08-16T02:59:07.000Z</time>
      </trkpt>
      <trkpt lat="22.735841" lon="110.117816">
        <ele>96.249123</ele>
        <time>2026-08-16T02:59:08.000Z</time>
      </trkpt>
      <trkpt lat="22.735807" lon="110.117868">
        <ele>96.245481</ele>
        <time>2026-08-16T02:59:09.000Z</time>
      </trkpt>
      <trkpt lat="22.735772" lon="110.117918">
        <ele>96.241895</ele>
        <time>2026-08-16T02:59:10.000Z</time>
      </trkpt>
      <trkpt lat="22.735736" lon="110.117969">
        <ele>96.238226</ele>
        <time>2026-08-16T02:59:11.000Z</time>
      </trkpt>
      <trkpt lat="22.735702" lon="110.118019">
        <ele>96.234676</ele>
        <time>2026-08-16T02:59:12.000Z</time>
      </trkpt>
      <trkpt lat="22.735668" lon="110.118068">
        <ele>96.231173</ele>
        <time>2026-08-16T02:59:13.000Z</time>
      </trkpt>
      <trkpt lat="22.735636" lon="110.118117">
        <ele>96.227743</ele>
        <time>2026-08-16T02:59:14.000Z</time>
      </trkpt>
      <trkpt lat="22.735605" lon="110.118166">
        <ele>96.224348</ele>
        <time>2026-08-16T02:59:15.000Z</time>
      </trkpt>
      <trkpt lat="22.735573" lon="110.118215">
        <ele>96.220917</ele>
        <time>2026-08-16T02:59:16.000Z</time>
      </trkpt>
      <trkpt lat="22.735540" lon="110.118262">
        <ele>96.217542</ele>
        <time>2026-08-16T02:59:17.000Z</time>
      </trkpt>
      <trkpt lat="22.735507" lon="110.118309">
        <ele>96.214167</ele>
        <time>2026-08-16T02:59:18.000Z</time>
      </trkpt>
      <trkpt lat="22.735473" lon="110.118356">
        <ele>96.210755</ele>
        <time>2026-08-16T02:59:19.000Z</time>
      </trkpt>
      <trkpt lat="22.735441" lon="110.118405">
        <ele>96.207324</ele>
        <time>2026-08-16T02:59:20.000Z</time>
      </trkpt>
      <trkpt lat="22.735408" lon="110.118454">
        <ele>96.203858</ele>
        <time>2026-08-16T02:59:21.000Z</time>
      </trkpt>
      <trkpt lat="22.735374" lon="110.118503">
        <ele>96.200354</ele>
        <time>2026-08-16T02:59:22.000Z</time>
      </trkpt>
      <trkpt lat="22.735340" lon="110.118551">
        <ele>96.196896</ele>
        <time>2026-08-16T02:59:23.000Z</time>
      </trkpt>
      <trkpt lat="22.735306" lon="110.118600">
        <ele>96.193393</ele>
        <time>2026-08-16T02:59:24.000Z</time>
      </trkpt>
      <trkpt lat="22.735272" lon="110.118647">
        <ele>96.184082</ele>
        <time>2026-08-16T02:59:25.000Z</time>
      </trkpt>
      <trkpt lat="22.735237" lon="110.118696">
        <ele>96.152487</ele>
        <time>2026-08-16T02:59:26.000Z</time>
      </trkpt>
      <trkpt lat="22.735203" lon="110.118745">
        <ele>96.121228</ele>
        <time>2026-08-16T02:59:27.000Z</time>
      </trkpt>
      <trkpt lat="22.735168" lon="110.118795">
        <ele>96.089229</ele>
        <time>2026-08-16T02:59:28.000Z</time>
      </trkpt>
      <trkpt lat="22.735134" lon="110.118845">
        <ele>96.057561</ele>
        <time>2026-08-16T02:59:29.000Z</time>
      </trkpt>
      <trkpt lat="22.735100" lon="110.118895">
        <ele>96.025892</ele>
        <time>2026-08-16T02:59:30.000Z</time>
      </trkpt>
      <trkpt lat="22.735065" lon="110.118945">
        <ele>95.993893</ele>
        <time>2026-08-16T02:59:31.000Z</time>
      </trkpt>
      <trkpt lat="22.735030" lon="110.118995">
        <ele>95.961894</ele>
        <time>2026-08-16T02:59:32.000Z</time>
      </trkpt>
      <trkpt lat="22.734994" lon="110.119046">
        <ele>95.929154</ele>
        <time>2026-08-16T02:59:33.000Z</time>
      </trkpt>
      <trkpt lat="22.734958" lon="110.119097">
        <ele>95.896414</ele>
        <time>2026-08-16T02:59:34.000Z</time>
      </trkpt>
      <trkpt lat="22.734922" lon="110.119148">
        <ele>95.863674</ele>
        <time>2026-08-16T02:59:35.000Z</time>
      </trkpt>
      <trkpt lat="22.734886" lon="110.119199">
        <ele>95.830935</ele>
        <time>2026-08-16T02:59:36.000Z</time>
      </trkpt>
      <trkpt lat="22.734850" lon="110.119250">
        <ele>95.798195</ele>
        <time>2026-08-16T02:59:37.000Z</time>
      </trkpt>
      <trkpt lat="22.734816" lon="110.119301">
        <ele>95.766115</ele>
        <time>2026-08-16T02:59:38.000Z</time>
      </trkpt>
      <trkpt lat="22.734781" lon="110.119352">
        <ele>95.733708</ele>
        <time>2026-08-16T02:59:39.000Z</time>
      </trkpt>
      <trkpt lat="22.734745" lon="110.119404">
        <ele>95.700562</ele>
        <time>2026-08-16T02:59:40.000Z</time>
      </trkpt>
      <trkpt lat="22.734710" lon="110.119456">
        <ele>95.667745</ele>
        <time>2026-08-16T02:59:41.000Z</time>
      </trkpt>
      <trkpt lat="22.734676" lon="110.119508">
        <ele>95.635250</ele>
        <time>2026-08-16T02:59:42.000Z</time>
      </trkpt>
      <trkpt lat="22.734641" lon="110.119560">
        <ele>95.602433</ele>
        <time>2026-08-16T02:59:43.000Z</time>
      </trkpt>
      <trkpt lat="22.734604" lon="110.119612">
        <ele>95.568952</ele>
        <time>2026-08-16T02:59:44.000Z</time>
      </trkpt>
      <trkpt lat="22.734568" lon="110.119664">
        <ele>95.535806</ele>
        <time>2026-08-16T02:59:45.000Z</time>
      </trkpt>
      <trkpt lat="22.734533" lon="110.119715">
        <ele>95.503399</ele>
        <time>2026-08-16T02:59:46.000Z</time>
      </trkpt>
      <trkpt lat="22.734496" lon="110.119766">
        <ele>95.470320</ele>
        <time>2026-08-16T02:59:47.000Z</time>
      </trkpt>
      <trkpt lat="22.734461" lon="110.119817">
        <ele>95.437913</ele>
        <time>2026-08-16T02:59:48.000Z</time>
      </trkpt>
      <trkpt lat="22.734426" lon="110.119868">
        <ele>95.405506</ele>
        <time>2026-08-16T02:59:49.000Z</time>
      </trkpt>
      <trkpt lat="22.734389" lon="110.119919">
        <ele>95.372428</ele>
        <time>2026-08-16T02:59:50.000Z</time>
      </trkpt>
      <trkpt lat="22.734353" lon="110.119972">
        <ele>95.338872</ele>
        <time>2026-08-16T02:59:51.000Z</time>
      </trkpt>
      <trkpt lat="22.734315" lon="110.120026">
        <ele>95.304246</ele>
        <time>2026-08-16T02:59:52.000Z</time>
      </trkpt>
      <trkpt lat="22.734278" lon="110.120080">
        <ele>95.269952</ele>
        <time>2026-08-16T02:59:53.000Z</time>
      </trkpt>
      <trkpt lat="22.734240" lon="110.120133">
        <ele>95.235730</ele>
        <time>2026-08-16T02:59:54.000Z</time>
      </trkpt>
      <trkpt lat="22.734204" lon="110.120185">
        <ele>95.202584</ele>
        <time>2026-08-16T02:59:55.000Z</time>
      </trkpt>
      <trkpt lat="22.734166" lon="110.120235">
        <ele>95.186421</ele>
        <time>2026-08-16T02:59:56.000Z</time>
      </trkpt>
      <trkpt lat="22.734128" lon="110.120286">
        <ele>95.173874</ele>
        <time>2026-08-16T02:59:57.000Z</time>
      </trkpt>
      <trkpt lat="22.734091" lon="110.120337">
        <ele>95.161456</ele>
        <time>2026-08-16T02:59:58.000Z</time>
      </trkpt>
      <trkpt lat="22.734056" lon="110.120390">
        <ele>95.148981</ele>
        <time>2026-08-16T02:59:59.000Z</time>
      </trkpt>
      <trkpt lat="22.734020" lon="110.120444">
        <ele>95.136229</ele>
        <time>2026-08-16T03:00:00.000Z</time>
      </trkpt>
      <trkpt lat="22.733984" lon="110.120495">
        <ele>95.123939</ele>
        <time>2026-08-16T03:00:01.000Z</time>
      </trkpt>
      <trkpt lat="22.733948" lon="110.120547">
        <ele>95.111495</ele>
        <time>2026-08-16T03:00:02.000Z</time>
      </trkpt>
      <trkpt lat="22.733914" lon="110.120600">
        <ele>95.099140</ele>
        <time>2026-08-16T03:00:03.000Z</time>
      </trkpt>
      <trkpt lat="22.733879" lon="110.120652">
        <ele>95.086820</ele>
        <time>2026-08-16T03:00:04.000Z</time>
      </trkpt>
      <trkpt lat="22.733844" lon="110.120704">
        <ele>95.074500</ele>
        <time>2026-08-16T03:00:05.000Z</time>
      </trkpt>
      <trkpt lat="22.733807" lon="110.120757">
        <ele>95.061779</ele>
        <time>2026-08-16T03:00:06.000Z</time>
      </trkpt>
      <trkpt lat="22.733770" lon="110.120810">
        <ele>95.049058</ele>
        <time>2026-08-16T03:00:07.000Z</time>
      </trkpt>
      <trkpt lat="22.733733" lon="110.120865">
        <ele>95.036030</ele>
        <time>2026-08-16T03:00:08.000Z</time>
      </trkpt>
      <trkpt lat="22.733698" lon="110.120918">
        <ele>95.023555</ele>
        <time>2026-08-16T03:00:09.000Z</time>
      </trkpt>
      <trkpt lat="22.733665" lon="110.120972">
        <ele>95.011158</ele>
        <time>2026-08-16T03:00:10.000Z</time>
      </trkpt>
      <trkpt lat="22.733630" lon="110.121025">
        <ele>94.998683</ele>
        <time>2026-08-16T03:00:11.000Z</time>
      </trkpt>
      <trkpt lat="22.733595" lon="110.121077">
        <ele>94.986363</ele>
        <time>2026-08-16T03:00:12.000Z</time>
      </trkpt>
      <trkpt lat="22.733559" lon="110.121129">
        <ele>94.973920</ele>
        <time>2026-08-16T03:00:13.000Z</time>
      </trkpt>
      <trkpt lat="22.733524" lon="110.121180">
        <ele>94.961754</ele>
        <time>2026-08-16T03:00:14.000Z</time>
      </trkpt>
      <trkpt lat="22.733488" lon="110.121232">
        <ele>94.949311</ele>
        <time>2026-08-16T03:00:15.000Z</time>
      </trkpt>
      <trkpt lat="22.733453" lon="110.121284">
        <ele>94.936991</ele>
        <time>2026-08-16T03:00:16.000Z</time>
      </trkpt>
      <trkpt lat="22.733418" lon="110.121335">
        <ele>94.924825</ele>
        <time>2026-08-16T03:00:17.000Z</time>
      </trkpt>
      <trkpt lat="22.733383" lon="110.121387">
        <ele>94.912505</ele>
        <time>2026-08-16T03:00:18.000Z</time>
      </trkpt>
      <trkpt lat="22.733346" lon="110.121438">
        <ele>94.900087</ele>
        <time>2026-08-16T03:00:19.000Z</time>
      </trkpt>
      <trkpt lat="22.733310" lon="110.121488">
        <ele>94.887948</ele>
        <time>2026-08-16T03:00:20.000Z</time>
      </trkpt>
      <trkpt lat="22.733274" lon="110.121539">
        <ele>94.875657</ele>
        <time>2026-08-16T03:00:21.000Z</time>
      </trkpt>
      <trkpt lat="22.733239" lon="110.121590">
        <ele>94.863491</ele>
        <time>2026-08-16T03:00:22.000Z</time>
      </trkpt>
      <trkpt lat="22.733203" lon="110.121642">
        <ele>94.851048</ele>
        <time>2026-08-16T03:00:23.000Z</time>
      </trkpt>
      <trkpt lat="22.733166" lon="110.121693">
        <ele>94.838630</ele>
        <time>2026-08-16T03:00:24.000Z</time>
      </trkpt>
      <trkpt lat="22.733129" lon="110.121743">
        <ele>94.826361</ele>
        <time>2026-08-16T03:00:25.000Z</time>
      </trkpt>
      <trkpt lat="22.733091" lon="110.121795">
        <ele>94.810793</ele>
        <time>2026-08-16T03:00:26.000Z</time>
      </trkpt>
      <trkpt lat="22.733054" lon="110.121847">
        <ele>94.794494</ele>
        <time>2026-08-16T03:00:27.000Z</time>
      </trkpt>
      <trkpt lat="22.733016" lon="110.121901">
        <ele>94.777638</ele>
        <time>2026-08-16T03:00:28.000Z</time>
      </trkpt>
      <trkpt lat="22.732978" lon="110.121954">
        <ele>94.760979</ele>
        <time>2026-08-16T03:00:29.000Z</time>
      </trkpt>
      <trkpt lat="22.732941" lon="110.122006">
        <ele>94.744680</ele>
        <time>2026-08-16T03:00:30.000Z</time>
      </trkpt>
      <trkpt lat="22.732904" lon="110.122059">
        <ele>94.728184</ele>
        <time>2026-08-16T03:00:31.000Z</time>
      </trkpt>
      <trkpt lat="22.732867" lon="110.122112">
        <ele>94.711689</ele>
        <time>2026-08-16T03:00:32.000Z</time>
      </trkpt>
      <trkpt lat="22.732830" lon="110.122167">
        <ele>94.694794</ele>
        <time>2026-08-16T03:00:33.000Z</time>
      </trkpt>
      <trkpt lat="22.732793" lon="110.122221">
        <ele>94.678100</ele>
        <time>2026-08-16T03:00:34.000Z</time>
      </trkpt>
      <trkpt lat="22.732755" lon="110.122273">
        <ele>94.661636</ele>
        <time>2026-08-16T03:00:35.000Z</time>
      </trkpt>
      <trkpt lat="22.732718" lon="110.122325">
        <ele>94.645337</ele>
        <time>2026-08-16T03:00:36.000Z</time>
      </trkpt>
      <trkpt lat="22.732680" lon="110.122377">
        <ele>94.628873</ele>
        <time>2026-08-16T03:00:37.000Z</time>
      </trkpt>
      <trkpt lat="22.732640" lon="110.122429">
        <ele>94.612069</ele>
        <time>2026-08-16T03:00:38.000Z</time>
      </trkpt>
      <trkpt lat="22.732598" lon="110.122480">
        <ele>94.595101</ele>
        <time>2026-08-16T03:00:39.000Z</time>
      </trkpt>
      <trkpt lat="22.732555" lon="110.122531">
        <ele>94.577953</ele>
        <time>2026-08-16T03:00:40.000Z</time>
      </trkpt>
      <trkpt lat="22.732514" lon="110.122581">
        <ele>94.561350</ele>
        <time>2026-08-16T03:00:41.000Z</time>
      </trkpt>
      <trkpt lat="22.732472" lon="110.122630">
        <ele>94.544749</ele>
        <time>2026-08-16T03:00:42.000Z</time>
      </trkpt>
      <trkpt lat="22.732429" lon="110.122680">
        <ele>94.527784</ele>
        <time>2026-08-16T03:00:43.000Z</time>
      </trkpt>
      <trkpt lat="22.732385" lon="110.122728">
        <ele>94.510989</ele>
        <time>2026-08-16T03:00:44.000Z</time>
      </trkpt>
      <trkpt lat="22.732340" lon="110.122776">
        <ele>94.494004</ele>
        <time>2026-08-16T03:00:45.000Z</time>
      </trkpt>
      <trkpt lat="22.732296" lon="110.122824">
        <ele>94.477209</ele>
        <time>2026-08-16T03:00:46.000Z</time>
      </trkpt>
      <trkpt lat="22.732252" lon="110.122872">
        <ele>94.460414</ele>
        <time>2026-08-16T03:00:47.000Z</time>
      </trkpt>
      <trkpt lat="22.732206" lon="110.122918">
        <ele>94.443576</ele>
        <time>2026-08-16T03:00:48.000Z</time>
      </trkpt>
      <trkpt lat="22.732160" lon="110.122964">
        <ele>94.426738</ele>
        <time>2026-08-16T03:00:49.000Z</time>
      </trkpt>
      <trkpt lat="22.732115" lon="110.123010">
        <ele>94.410097</ele>
        <time>2026-08-16T03:00:50.000Z</time>
      </trkpt>
      <trkpt lat="22.732069" lon="110.123054">
        <ele>94.393592</ele>
        <time>2026-08-16T03:00:51.000Z</time>
      </trkpt>
      <trkpt lat="22.732022" lon="110.123098">
        <ele>94.376884</ele>
        <time>2026-08-16T03:00:52.000Z</time>
      </trkpt>
      <trkpt lat="22.731976" lon="110.123141">
        <ele>94.360542</ele>
        <time>2026-08-16T03:00:53.000Z</time>
      </trkpt>
      <trkpt lat="22.731930" lon="110.123184">
        <ele>94.344199</ele>
        <time>2026-08-16T03:00:54.000Z</time>
      </trkpt>
      <trkpt lat="22.731884" lon="110.123226">
        <ele>94.322930</ele>
        <time>2026-08-16T03:00:55.000Z</time>
      </trkpt>
      <trkpt lat="22.731838" lon="110.123268">
        <ele>94.299505</ele>
        <time>2026-08-16T03:00:56.000Z</time>
      </trkpt>
      <trkpt lat="22.731791" lon="110.123309">
        <ele>94.276007</ele>
        <time>2026-08-16T03:00:57.000Z</time>
      </trkpt>
      <trkpt lat="22.731745" lon="110.123350">
        <ele>94.252811</ele>
        <time>2026-08-16T03:00:58.000Z</time>
      </trkpt>
      <trkpt lat="22.731698" lon="110.123390">
        <ele>94.229537</ele>
        <time>2026-08-16T03:00:59.000Z</time>
      </trkpt>
      <trkpt lat="22.731652" lon="110.123431">
        <ele>94.206341</ele>
        <time>2026-08-16T03:01:00.000Z</time>
      </trkpt>
      <trkpt lat="22.731607" lon="110.123472">
        <ele>94.183444</ele>
        <time>2026-08-16T03:01:01.000Z</time>
      </trkpt>
      <trkpt lat="22.731560" lon="110.123513">
        <ele>94.159946</ele>
        <time>2026-08-16T03:01:02.000Z</time>
      </trkpt>
      <trkpt lat="22.731514" lon="110.123553">
        <ele>94.136977</ele>
        <time>2026-08-16T03:01:03.000Z</time>
      </trkpt>
      <trkpt lat="22.731469" lon="110.123594">
        <ele>94.114081</ele>
        <time>2026-08-16T03:01:04.000Z</time>
      </trkpt>
      <trkpt lat="22.731426" lon="110.123634">
        <ele>94.092011</ele>
        <time>2026-08-16T03:01:05.000Z</time>
      </trkpt>
      <trkpt lat="22.731382" lon="110.123674">
        <ele>94.069644</ele>
        <time>2026-08-16T03:01:06.000Z</time>
      </trkpt>
      <trkpt lat="22.731338" lon="110.123714">
        <ele>94.047277</ele>
        <time>2026-08-16T03:01:07.000Z</time>
      </trkpt>
      <trkpt lat="22.731293" lon="110.123754">
        <ele>94.024610</ele>
        <time>2026-08-16T03:01:08.000Z</time>
      </trkpt>
      <trkpt lat="22.731249" lon="110.123794">
        <ele>94.002244</ele>
        <time>2026-08-16T03:01:09.000Z</time>
      </trkpt>
      <trkpt lat="22.731204" lon="110.123834">
        <ele>93.979577</ele>
        <time>2026-08-16T03:01:10.000Z</time>
      </trkpt>
      <trkpt lat="22.731160" lon="110.123873">
        <ele>93.957439</ele>
        <time>2026-08-16T03:01:11.000Z</time>
      </trkpt>
      <trkpt lat="22.731115" lon="110.123912">
        <ele>93.934998</ele>
        <time>2026-08-16T03:01:12.000Z</time>
      </trkpt>
      <trkpt lat="22.731070" lon="110.123951">
        <ele>93.912557</ele>
        <time>2026-08-16T03:01:13.000Z</time>
      </trkpt>
      <trkpt lat="22.731026" lon="110.123991">
        <ele>93.890191</ele>
        <time>2026-08-16T03:01:14.000Z</time>
      </trkpt>
      <trkpt lat="22.730981" lon="110.124030">
        <ele>93.867750</ele>
        <time>2026-08-16T03:01:15.000Z</time>
      </trkpt>
      <trkpt lat="22.730938" lon="110.124068">
        <ele>93.846141</ele>
        <time>2026-08-16T03:01:16.000Z</time>
      </trkpt>
      <trkpt lat="22.730894" lon="110.124106">
        <ele>93.824229</ele>
        <time>2026-08-16T03:01:17.000Z</time>
      </trkpt>
      <trkpt lat="22.730852" lon="110.124145">
        <ele>93.802688</ele>
        <time>2026-08-16T03:01:18.000Z</time>
      </trkpt>
      <trkpt lat="22.730811" lon="110.124184">
        <ele>93.781442</ele>
        <time>2026-08-16T03:01:19.000Z</time>
      </trkpt>
      <trkpt lat="22.730768" lon="110.124224">
        <ele>93.759373</ele>
        <time>2026-08-16T03:01:20.000Z</time>
      </trkpt>
      <trkpt lat="22.730725" lon="110.124264">
        <ele>93.737303</ele>
        <time>2026-08-16T03:01:21.000Z</time>
      </trkpt>
      <trkpt lat="22.730682" lon="110.124302">
        <ele>93.715694</ele>
        <time>2026-08-16T03:01:22.000Z</time>
      </trkpt>
      <trkpt lat="22.730637" lon="110.124341">
        <ele>93.693253</ele>
        <time>2026-08-16T03:01:23.000Z</time>
      </trkpt>
      <trkpt lat="22.730593" lon="110.124381">
        <ele>93.670886</ele>
        <time>2026-08-16T03:01:24.000Z</time>
      </trkpt>
      <trkpt lat="22.730549" lon="110.124421">
        <ele>93.648519</ele>
        <time>2026-08-16T03:01:25.000Z</time>
      </trkpt>
      <trkpt lat="22.730505" lon="110.124463">
        <ele>93.647890</ele>
        <time>2026-08-16T03:01:26.000Z</time>
      </trkpt>
      <trkpt lat="22.730462" lon="110.124504">
        <ele>93.663470</ele>
        <time>2026-08-16T03:01:27.000Z</time>
      </trkpt>
      <trkpt lat="22.730418" lon="110.124545">
        <ele>93.679255</ele>
        <time>2026-08-16T03:01:28.000Z</time>
      </trkpt>
      <trkpt lat="22.730375" lon="110.124585">
        <ele>93.694671</ele>
        <time>2026-08-16T03:01:29.000Z</time>
      </trkpt>
      <trkpt lat="22.730333" lon="110.124625">
        <ele>93.709881</ele>
        <time>2026-08-16T03:01:30.000Z</time>
      </trkpt>
      <trkpt lat="22.730290" lon="110.124665">
        <ele>93.725297</ele>
        <time>2026-08-16T03:01:31.000Z</time>
      </trkpt>
      <trkpt lat="22.730244" lon="110.124703">
        <ele>93.741032</ele>
        <time>2026-08-16T03:01:32.000Z</time>
      </trkpt>
      <trkpt lat="22.730199" lon="110.124739">
        <ele>93.756248</ele>
        <time>2026-08-16T03:01:33.000Z</time>
      </trkpt>
      <trkpt lat="22.730156" lon="110.124776">
        <ele>93.771184</ele>
        <time>2026-08-16T03:01:34.000Z</time>
      </trkpt>
      <trkpt lat="22.730114" lon="110.124814">
        <ele>93.786068</ele>
        <time>2026-08-16T03:01:35.000Z</time>
      </trkpt>
      <trkpt lat="22.730072" lon="110.124851">
        <ele>93.800792</ele>
        <time>2026-08-16T03:01:36.000Z</time>
      </trkpt>
      <trkpt lat="22.730030" lon="110.124887">
        <ele>93.815360</ele>
        <time>2026-08-16T03:01:37.000Z</time>
      </trkpt>
      <trkpt lat="22.729988" lon="110.124923">
        <ele>93.829927</ele>
        <time>2026-08-16T03:01:38.000Z</time>
      </trkpt>
      <trkpt lat="22.729947" lon="110.124959">
        <ele>93.844282</ele>
        <time>2026-08-16T03:01:39.000Z</time>
      </trkpt>
      <trkpt lat="22.729906" lon="110.124994">
        <ele>93.858480</ele>
        <time>2026-08-16T03:01:40.000Z</time>
      </trkpt>
      <trkpt lat="22.729867" lon="110.125031">
        <ele>93.872580</ele>
        <time>2026-08-16T03:01:41.000Z</time>
      </trkpt>
      <trkpt lat="22.729828" lon="110.125068">
        <ele>93.886681</ele>
        <time>2026-08-16T03:01:42.000Z</time>
      </trkpt>
      <trkpt lat="22.729791" lon="110.125104">
        <ele>93.900207</ele>
        <time>2026-08-16T03:01:43.000Z</time>
      </trkpt>
      <trkpt lat="22.729752" lon="110.125140">
        <ele>93.914143</ele>
        <time>2026-08-16T03:01:44.000Z</time>
      </trkpt>
      <trkpt lat="22.729715" lon="110.125178">
        <ele>93.928010</ele>
        <time>2026-08-16T03:01:45.000Z</time>
      </trkpt>
      <trkpt lat="22.729677" lon="110.125216">
        <ele>93.942075</ele>
        <time>2026-08-16T03:01:46.000Z</time>
      </trkpt>
      <trkpt lat="22.729638" lon="110.125253">
        <ele>93.956176</ele>
        <time>2026-08-16T03:01:47.000Z</time>
      </trkpt>
      <trkpt lat="22.729599" lon="110.125290">
        <ele>93.970276</ele>
        <time>2026-08-16T03:01:48.000Z</time>
      </trkpt>
      <trkpt lat="22.729560" lon="110.125326">
        <ele>93.984212</ele>
        <time>2026-08-16T03:01:49.000Z</time>
      </trkpt>
      <trkpt lat="22.729521" lon="110.125362">
        <ele>93.998148</ele>
        <time>2026-08-16T03:01:50.000Z</time>
      </trkpt>
      <trkpt lat="22.729483" lon="110.125398">
        <ele>94.011878</ele>
        <time>2026-08-16T03:01:51.000Z</time>
      </trkpt>
      <trkpt lat="22.729444" lon="110.125434">
        <ele>94.025815</ele>
        <time>2026-08-16T03:01:52.000Z</time>
      </trkpt>
      <trkpt lat="22.729407" lon="110.125469">
        <ele>94.039175</ele>
        <time>2026-08-16T03:01:53.000Z</time>
      </trkpt>
      <trkpt lat="22.729369" lon="110.125506">
        <ele>94.053071</ele>
        <time>2026-08-16T03:01:54.000Z</time>
      </trkpt>
      <trkpt lat="22.729332" lon="110.125542">
        <ele>94.066598</ele>
        <time>2026-08-16T03:01:55.000Z</time>
      </trkpt>
      <trkpt lat="22.729295" lon="110.125577">
        <ele>94.079958</ele>
        <time>2026-08-16T03:01:56.000Z</time>
      </trkpt>
      <trkpt lat="22.729259" lon="110.125612">
        <ele>94.093114</ele>
        <time>2026-08-16T03:01:57.000Z</time>
      </trkpt>
      <trkpt lat="22.729222" lon="110.125648">
        <ele>94.106641</ele>
        <time>2026-08-16T03:01:58.000Z</time>
      </trkpt>
      <trkpt lat="22.729183" lon="110.125680">
        <ele>94.119948</ele>
        <time>2026-08-16T03:01:59.000Z</time>
      </trkpt>
      <trkpt lat="22.729141" lon="110.125711">
        <ele>94.115689</ele>
        <time>2026-08-16T03:02:00.000Z</time>
      </trkpt>
      <trkpt lat="22.729099" lon="110.125743">
        <ele>94.084821</ele>
        <time>2026-08-16T03:02:01.000Z</time>
      </trkpt>
      <trkpt lat="22.729057" lon="110.125777">
        <ele>94.053302</ele>
        <time>2026-08-16T03:02:02.000Z</time>
      </trkpt>
      <trkpt lat="22.729015" lon="110.125813">
        <ele>94.021107</ele>
        <time>2026-08-16T03:02:03.000Z</time>
      </trkpt>
      <trkpt lat="22.728973" lon="110.125851">
        <ele>93.988213</ele>
        <time>2026-08-16T03:02:04.000Z</time>
      </trkpt>
      <trkpt lat="22.728932" lon="110.125886">
        <ele>93.956834</ele>
        <time>2026-08-16T03:02:05.000Z</time>
      </trkpt>
      <trkpt lat="22.728890" lon="110.125920">
        <ele>93.925315</ele>
        <time>2026-08-16T03:02:06.000Z</time>
      </trkpt>
      <trkpt lat="22.728849" lon="110.125955">
        <ele>93.893936</ele>
        <time>2026-08-16T03:02:07.000Z</time>
      </trkpt>
      <trkpt lat="22.728809" lon="110.125989">
        <ele>93.863372</ele>
        <time>2026-08-16T03:02:08.000Z</time>
      </trkpt>
      <trkpt lat="22.728768" lon="110.126024">
        <ele>93.831993</ele>
        <time>2026-08-16T03:02:09.000Z</time>
      </trkpt>
      <trkpt lat="22.728726" lon="110.126061">
        <ele>93.799451</ele>
        <time>2026-08-16T03:02:10.000Z</time>
      </trkpt>
      <trkpt lat="22.728684" lon="110.126098">
        <ele>93.766910</ele>
        <time>2026-08-16T03:02:11.000Z</time>
      </trkpt>
      <trkpt lat="22.728642" lon="110.126134">
        <ele>93.734715</ele>
        <time>2026-08-16T03:02:12.000Z</time>
      </trkpt>
      <trkpt lat="22.728599" lon="110.126168">
        <ele>93.702712</ele>
        <time>2026-08-16T03:02:13.000Z</time>
      </trkpt>
      <trkpt lat="22.728555" lon="110.126203">
        <ele>93.669896</ele>
        <time>2026-08-16T03:02:14.000Z</time>
      </trkpt>
      <trkpt lat="22.728511" lon="110.126238">
        <ele>93.637081</ele>
        <time>2026-08-16T03:02:15.000Z</time>
      </trkpt>
      <trkpt lat="22.728468" lon="110.126272">
        <ele>93.605078</ele>
        <time>2026-08-16T03:02:16.000Z</time>
      </trkpt>
      <trkpt lat="22.728423" lon="110.126306">
        <ele>93.572096</ele>
        <time>2026-08-16T03:02:17.000Z</time>
      </trkpt>
      <trkpt lat="22.728375" lon="110.126343">
        <ele>93.536681</ele>
        <time>2026-08-16T03:02:18.000Z</time>
      </trkpt>
      <trkpt lat="22.728329" lon="110.126380">
        <ele>93.502239</ele>
        <time>2026-08-16T03:02:19.000Z</time>
      </trkpt>
      <trkpt lat="22.728284" lon="110.126416">
        <ele>93.468610</ele>
        <time>2026-08-16T03:02:20.000Z</time>
      </trkpt>
      <trkpt lat="22.728236" lon="110.126451">
        <ele>93.433826</ele>
        <time>2026-08-16T03:02:21.000Z</time>
      </trkpt>
      <trkpt lat="22.728189" lon="110.126488">
        <ele>93.398900</ele>
        <time>2026-08-16T03:02:22.000Z</time>
      </trkpt>
      <trkpt lat="22.728141" lon="110.126524">
        <ele>93.363803</ele>
        <time>2026-08-16T03:02:23.000Z</time>
      </trkpt>
      <trkpt lat="22.728093" lon="110.126559">
        <ele>93.329019</ele>
        <time>2026-08-16T03:02:24.000Z</time>
      </trkpt>
      <trkpt lat="22.728047" lon="110.126596">
        <ele>93.294577</ele>
        <time>2026-08-16T03:02:25.000Z</time>
      </trkpt>
      <trkpt lat="22.728001" lon="110.126634">
        <ele>93.259802</ele>
        <time>2026-08-16T03:02:26.000Z</time>
      </trkpt>
      <trkpt lat="22.727953" lon="110.126669">
        <ele>93.225018</ele>
        <time>2026-08-16T03:02:27.000Z</time>
      </trkpt>
      <trkpt lat="22.727905" lon="110.126704">
        <ele>93.190234</ele>
        <time>2026-08-16T03:02:28.000Z</time>
      </trkpt>
      <trkpt lat="22.727856" lon="110.126737">
        <ele>93.155547</ele>
        <time>2026-08-16T03:02:29.000Z</time>
      </trkpt>
      <trkpt lat="22.727807" lon="110.126771">
        <ele>93.120565</ele>
        <time>2026-08-16T03:02:30.000Z</time>
      </trkpt>
      <trkpt lat="22.727757" lon="110.126807">
        <ele>93.084473</ele>
        <time>2026-08-16T03:02:31.000Z</time>
      </trkpt>
      <trkpt lat="22.727709" lon="110.126842">
        <ele>93.049688</ele>
        <time>2026-08-16T03:02:32.000Z</time>
      </trkpt>
      <trkpt lat="22.727661" lon="110.126877">
        <ele>93.011038</ele>
        <time>2026-08-16T03:02:33.000Z</time>
      </trkpt>
      <trkpt lat="22.727611" lon="110.126912">
        <ele>92.970880</ele>
        <time>2026-08-16T03:02:34.000Z</time>
      </trkpt>
      <trkpt lat="22.727561" lon="110.126948">
        <ele>92.930381</ele>
        <time>2026-08-16T03:02:35.000Z</time>
      </trkpt>
      <trkpt lat="22.727512" lon="110.126983">
        <ele>92.890788</ele>
        <time>2026-08-16T03:02:36.000Z</time>
      </trkpt>
      <trkpt lat="22.727463" lon="110.127018">
        <ele>92.851195</ele>
        <time>2026-08-16T03:02:37.000Z</time>
      </trkpt>
      <trkpt lat="22.727415" lon="110.127053">
        <ele>92.812164</ele>
        <time>2026-08-16T03:02:38.000Z</time>
      </trkpt>
      <trkpt lat="22.727366" lon="110.127088">
        <ele>92.772572</ele>
        <time>2026-08-16T03:02:39.000Z</time>
      </trkpt>
      <trkpt lat="22.727319" lon="110.127123">
        <ele>92.734098</ele>
        <time>2026-08-16T03:02:40.000Z</time>
      </trkpt>
      <trkpt lat="22.727270" lon="110.127157">
        <ele>92.694845</ele>
        <time>2026-08-16T03:02:41.000Z</time>
      </trkpt>
      <trkpt lat="22.727220" lon="110.127191">
        <ele>92.655021</ele>
        <time>2026-08-16T03:02:42.000Z</time>
      </trkpt>
      <trkpt lat="22.727170" lon="110.127227">
        <ele>92.614522</ele>
        <time>2026-08-16T03:02:43.000Z</time>
      </trkpt>
      <trkpt lat="22.727122" lon="110.127264">
        <ele>92.574783</ele>
        <time>2026-08-16T03:02:44.000Z</time>
      </trkpt>
      <trkpt lat="22.727073" lon="110.127299">
        <ele>92.535190</ele>
        <time>2026-08-16T03:02:45.000Z</time>
      </trkpt>
      <trkpt lat="22.727023" lon="110.127333">
        <ele>92.495366</ele>
        <time>2026-08-16T03:02:46.000Z</time>
      </trkpt>
      <trkpt lat="22.726971" lon="110.127359">
        <ele>92.456728</ele>
        <time>2026-08-16T03:02:47.000Z</time>
      </trkpt>
      <trkpt lat="22.726921" lon="110.127387">
        <ele>92.418756</ele>
        <time>2026-08-16T03:02:48.000Z</time>
      </trkpt>
      <trkpt lat="22.726871" lon="110.127418">
        <ele>92.379892</ele>
        <time>2026-08-16T03:02:49.000Z</time>
      </trkpt>
      <trkpt lat="22.726822" lon="110.127451">
        <ele>92.340970</ele>
        <time>2026-08-16T03:02:50.000Z</time>
      </trkpt>
      <trkpt lat="22.726774" lon="110.127484">
        <ele>92.302620</ele>
        <time>2026-08-16T03:02:51.000Z</time>
      </trkpt>
      <trkpt lat="22.726729" lon="110.127519">
        <ele>92.265251</ele>
        <time>2026-08-16T03:02:52.000Z</time>
      </trkpt>
      <trkpt lat="22.726681" lon="110.127553">
        <ele>92.226564</ele>
        <time>2026-08-16T03:02:53.000Z</time>
      </trkpt>
      <trkpt lat="22.726631" lon="110.127585">
        <ele>92.187388</ele>
        <time>2026-08-16T03:02:54.000Z</time>
      </trkpt>
      <trkpt lat="22.726583" lon="110.127617">
        <ele>92.149367</ele>
        <time>2026-08-16T03:02:55.000Z</time>
      </trkpt>
      <trkpt lat="22.726536" lon="110.127650">
        <ele>92.111584</ele>
        <time>2026-08-16T03:02:56.000Z</time>
      </trkpt>
      <trkpt lat="22.726489" lon="110.127681">
        <ele>92.074464</ele>
        <time>2026-08-16T03:02:57.000Z</time>
      </trkpt>
      <trkpt lat="22.726444" lon="110.127712">
        <ele>92.038490</ele>
        <time>2026-08-16T03:02:58.000Z</time>
      </trkpt>
      <trkpt lat="22.726398" lon="110.127744">
        <ele>92.001612</ele>
        <time>2026-08-16T03:02:59.000Z</time>
      </trkpt>
      <trkpt lat="22.726352" lon="110.127780">
        <ele>91.963332</ele>
        <time>2026-08-16T03:03:00.000Z</time>
      </trkpt>
      <trkpt lat="22.726306" lon="110.127813">
        <ele>91.926114</ele>
        <time>2026-08-16T03:03:01.000Z</time>
      </trkpt>
      <trkpt lat="22.726257" lon="110.127846">
        <ele>91.887192</ele>
        <time>2026-08-16T03:03:02.000Z</time>
      </trkpt>
      <trkpt lat="22.726210" lon="110.127879">
        <ele>91.849410</ele>
        <time>2026-08-16T03:03:03.000Z</time>
      </trkpt>
      <trkpt lat="22.726161" lon="110.127912">
        <ele>91.840239</ele>
        <time>2026-08-16T03:03:04.000Z</time>
      </trkpt>
      <trkpt lat="22.726111" lon="110.127942">
        <ele>91.852744</ele>
        <time>2026-08-16T03:03:05.000Z</time>
      </trkpt>
      <trkpt lat="22.726065" lon="110.127976">
        <ele>91.864926</ele>
        <time>2026-08-16T03:03:06.000Z</time>
      </trkpt>
      <trkpt lat="22.726016" lon="110.128009">
        <ele>91.877549</ele>
        <time>2026-08-16T03:03:07.000Z</time>
      </trkpt>
      <trkpt lat="22.725967" lon="110.128041">
        <ele>91.890066</ele>
        <time>2026-08-16T03:03:08.000Z</time>
      </trkpt>
      <trkpt lat="22.725918" lon="110.128072">
        <ele>91.902480</ele>
        <time>2026-08-16T03:03:09.000Z</time>
      </trkpt>
      <trkpt lat="22.725870" lon="110.128103">
        <ele>91.914705</ele>
        <time>2026-08-16T03:03:10.000Z</time>
      </trkpt>
      <trkpt lat="22.725823" lon="110.128132">
        <ele>91.926539</ele>
        <time>2026-08-16T03:03:11.000Z</time>
      </trkpt>
      <trkpt lat="22.725778" lon="110.128163">
        <ele>91.938205</ele>
        <time>2026-08-16T03:03:12.000Z</time>
      </trkpt>
      <trkpt lat="22.725727" lon="110.128192">
        <ele>91.950807</ele>
        <time>2026-08-16T03:03:13.000Z</time>
      </trkpt>
      <trkpt lat="22.725672" lon="110.128223">
        <ele>91.964371</ele>
        <time>2026-08-16T03:03:14.000Z</time>
      </trkpt>
      <trkpt lat="22.725621" lon="110.128253">
        <ele>91.977068</ele>
        <time>2026-08-16T03:03:15.000Z</time>
      </trkpt>
      <trkpt lat="22.725569" lon="110.128283">
        <ele>91.989957</ele>
        <time>2026-08-16T03:03:16.000Z</time>
      </trkpt>
      <trkpt lat="22.725518" lon="110.128314">
        <ele>92.002751</ele>
        <time>2026-08-16T03:03:17.000Z</time>
      </trkpt>
      <trkpt lat="22.725467" lon="110.128347">
        <ele>92.015747</ele>
        <time>2026-08-16T03:03:18.000Z</time>
      </trkpt>
      <trkpt lat="22.725416" lon="110.128379">
        <ele>92.028641</ele>
        <time>2026-08-16T03:03:19.000Z</time>
      </trkpt>
      <trkpt lat="22.725368" lon="110.128407">
        <ele>92.040568</ele>
        <time>2026-08-16T03:03:20.000Z</time>
      </trkpt>
      <trkpt lat="22.725315" lon="110.128443">
        <ele>92.054254</ele>
        <time>2026-08-16T03:03:21.000Z</time>
      </trkpt>
      <trkpt lat="22.725265" lon="110.128477">
        <ele>92.067169</ele>
        <time>2026-08-16T03:03:22.000Z</time>
      </trkpt>
      <trkpt lat="22.725215" lon="110.128502">
        <ele>92.079217</ele>
        <time>2026-08-16T03:03:23.000Z</time>
      </trkpt>
      <trkpt lat="22.725164" lon="110.128532">
        <ele>92.091913</ele>
        <time>2026-08-16T03:03:24.000Z</time>
      </trkpt>
      <trkpt lat="22.725113" lon="110.128562">
        <ele>92.104610</ele>
        <time>2026-08-16T03:03:25.000Z</time>
      </trkpt>
      <trkpt lat="22.725060" lon="110.128589">
        <ele>92.117424</ele>
        <time>2026-08-16T03:03:26.000Z</time>
      </trkpt>
      <trkpt lat="22.725009" lon="110.128616">
        <ele>92.129843</ele>
        <time>2026-08-16T03:03:27.000Z</time>
      </trkpt>
      <trkpt lat="22.724959" lon="110.128647">
        <ele>92.142447</ele>
        <time>2026-08-16T03:03:28.000Z</time>
      </trkpt>
      <trkpt lat="22.724913" lon="110.128677">
        <ele>92.154193</ele>
        <time>2026-08-16T03:03:29.000Z</time>
      </trkpt>
      <trkpt lat="22.724863" lon="110.128704">
        <ele>92.166416</ele>
        <time>2026-08-16T03:03:30.000Z</time>
      </trkpt>
      <trkpt lat="22.724808" lon="110.128725">
        <ele>92.179176</ele>
        <time>2026-08-16T03:03:31.000Z</time>
      </trkpt>
      <trkpt lat="22.724752" lon="110.128746">
        <ele>92.192142</ele>
        <time>2026-08-16T03:03:32.000Z</time>
      </trkpt>
      <trkpt lat="22.724702" lon="110.128775">
        <ele>92.204550</ele>
        <time>2026-08-16T03:03:33.000Z</time>
      </trkpt>
      <trkpt lat="22.724651" lon="110.128804">
        <ele>92.217152</ele>
        <time>2026-08-16T03:03:34.000Z</time>
      </trkpt>
      <trkpt lat="22.724601" lon="110.128834">
        <ele>92.222541</ele>
        <time>2026-08-16T03:03:35.000Z</time>
      </trkpt>
      <trkpt lat="22.724549" lon="110.128857">
        <ele>92.206861</ele>
        <time>2026-08-16T03:03:36.000Z</time>
      </trkpt>
      <trkpt lat="22.724496" lon="110.128888">
        <ele>92.190047</ele>
        <time>2026-08-16T03:03:37.000Z</time>
      </trkpt>
      <trkpt lat="22.724444" lon="110.128919">
        <ele>92.173478</ele>
        <time>2026-08-16T03:03:38.000Z</time>
      </trkpt>
      <trkpt lat="22.724393" lon="110.128945">
        <ele>92.157742</ele>
        <time>2026-08-16T03:03:39.000Z</time>
      </trkpt>
      <trkpt lat="22.724340" lon="110.128977">
        <ele>92.140804</ele>
        <time>2026-08-16T03:03:40.000Z</time>
      </trkpt>
      <trkpt lat="22.724285" lon="110.129006">
        <ele>92.123728</ele>
        <time>2026-08-16T03:03:41.000Z</time>
      </trkpt>
      <trkpt lat="22.724232" lon="110.129033">
        <ele>92.107378</ele>
        <time>2026-08-16T03:03:42.000Z</time>
      </trkpt>
      <trkpt lat="22.724181" lon="110.129062">
        <ele>92.091298</ele>
        <time>2026-08-16T03:03:43.000Z</time>
      </trkpt>
      <trkpt lat="22.724127" lon="110.129090">
        <ele>92.074585</ele>
        <time>2026-08-16T03:03:44.000Z</time>
      </trkpt>
      <trkpt lat="22.724072" lon="110.129118">
        <ele>92.057620</ele>
        <time>2026-08-16T03:03:45.000Z</time>
      </trkpt>
      <trkpt lat="22.724019" lon="110.129150">
        <ele>92.040682</ele>
        <time>2026-08-16T03:03:46.000Z</time>
      </trkpt>
      <trkpt lat="22.723966" lon="110.129181">
        <ele>92.023868</ele>
        <time>2026-08-16T03:03:47.000Z</time>
      </trkpt>
      <trkpt lat="22.723913" lon="110.129211">
        <ele>92.007174</ele>
        <time>2026-08-16T03:03:48.000Z</time>
      </trkpt>
      <trkpt lat="22.723859" lon="110.129240">
        <ele>91.990349</ele>
        <time>2026-08-16T03:03:49.000Z</time>
      </trkpt>
      <trkpt lat="22.723803" lon="110.129268">
        <ele>91.973131</ele>
        <time>2026-08-16T03:03:50.000Z</time>
      </trkpt>
      <trkpt lat="22.723749" lon="110.129298">
        <ele>91.956189</ele>
        <time>2026-08-16T03:03:51.000Z</time>
      </trkpt>
      <trkpt lat="22.723695" lon="110.129332">
        <ele>91.938754</ele>
        <time>2026-08-16T03:03:52.000Z</time>
      </trkpt>
      <trkpt lat="22.723638" lon="110.129363">
        <ele>91.920949</ele>
        <time>2026-08-16T03:03:53.000Z</time>
      </trkpt>
      <trkpt lat="22.723583" lon="110.129393">
        <ele>91.903758</ele>
        <time>2026-08-16T03:03:54.000Z</time>
      </trkpt>
      <trkpt lat="22.723528" lon="110.129424">
        <ele>91.886450</ele>
        <time>2026-08-16T03:03:55.000Z</time>
      </trkpt>
      <trkpt lat="22.723474" lon="110.129455">
        <ele>91.869390</ele>
        <time>2026-08-16T03:03:56.000Z</time>
      </trkpt>
      <trkpt lat="22.723420" lon="110.129485">
        <ele>91.852448</ele>
        <time>2026-08-16T03:03:57.000Z</time>
      </trkpt>
      <trkpt lat="22.723366" lon="110.129513">
        <ele>91.835735</ele>
        <time>2026-08-16T03:03:58.000Z</time>
      </trkpt>
      <trkpt lat="22.723312" lon="110.129539">
        <ele>91.819238</ele>
        <time>2026-08-16T03:03:59.000Z</time>
      </trkpt>
      <trkpt lat="22.723258" lon="110.129566">
        <ele>91.802635</ele>
        <time>2026-08-16T03:04:00.000Z</time>
      </trkpt>
      <trkpt lat="22.723204" lon="110.129594">
        <ele>91.785922</ele>
        <time>2026-08-16T03:04:01.000Z</time>
      </trkpt>
      <trkpt lat="22.723149" lon="110.129620">
        <ele>91.769169</ele>
        <time>2026-08-16T03:04:02.000Z</time>
      </trkpt>
      <trkpt lat="22.723097" lon="110.129647">
        <ele>91.753071</ele>
        <time>2026-08-16T03:04:03.000Z</time>
      </trkpt>
      <trkpt lat="22.723045" lon="110.129674">
        <ele>91.736973</ele>
        <time>2026-08-16T03:04:04.000Z</time>
      </trkpt>
      <trkpt lat="22.722991" lon="110.129701">
        <ele>91.718459</ele>
        <time>2026-08-16T03:04:05.000Z</time>
      </trkpt>
      <trkpt lat="22.722937" lon="110.129728">
        <ele>91.693853</ele>
        <time>2026-08-16T03:04:06.000Z</time>
      </trkpt>
      <trkpt lat="22.722882" lon="110.129757">
        <ele>91.668547</ele>
        <time>2026-08-16T03:04:07.000Z</time>
      </trkpt>
      <trkpt lat="22.722828" lon="110.129788">
        <ele>91.643265</ele>
        <time>2026-08-16T03:04:08.000Z</time>
      </trkpt>
      <trkpt lat="22.722773" lon="110.129818">
        <ele>91.617789</ele>
        <time>2026-08-16T03:04:09.000Z</time>
      </trkpt>
      <trkpt lat="22.722719" lon="110.129850">
        <ele>91.592326</ele>
        <time>2026-08-16T03:04:10.000Z</time>
      </trkpt>
      <trkpt lat="22.722665" lon="110.129881">
        <ele>91.567043</ele>
        <time>2026-08-16T03:04:11.000Z</time>
      </trkpt>
      <trkpt lat="22.722610" lon="110.129911">
        <ele>91.541568</ele>
        <time>2026-08-16T03:04:12.000Z</time>
      </trkpt>
      <trkpt lat="22.722557" lon="110.129943">
        <ele>91.516466</ele>
        <time>2026-08-16T03:04:13.000Z</time>
      </trkpt>
      <trkpt lat="22.722503" lon="110.129974">
        <ele>91.491184</ele>
        <time>2026-08-16T03:04:14.000Z</time>
      </trkpt>
      <trkpt lat="22.722446" lon="110.130003">
        <ele>91.465131</ele>
        <time>2026-08-16T03:04:15.000Z</time>
      </trkpt>
      <trkpt lat="22.722391" lon="110.130034">
        <ele>91.439482</ele>
        <time>2026-08-16T03:04:16.000Z</time>
      </trkpt>
      <trkpt lat="22.722335" lon="110.130064">
        <ele>91.413636</ele>
        <time>2026-08-16T03:04:17.000Z</time>
      </trkpt>
      <trkpt lat="22.722279" lon="110.130093">
        <ele>91.387957</ele>
        <time>2026-08-16T03:04:18.000Z</time>
      </trkpt>
      <trkpt lat="22.722223" lon="110.130126">
        <ele>91.361585</ele>
        <time>2026-08-16T03:04:19.000Z</time>
      </trkpt>
      <trkpt lat="22.722165" lon="110.130158">
        <ele>91.334657</ele>
        <time>2026-08-16T03:04:20.000Z</time>
      </trkpt>
      <trkpt lat="22.722107" lon="110.130190">
        <ele>91.307730</ele>
        <time>2026-08-16T03:04:21.000Z</time>
      </trkpt>
      <trkpt lat="22.722051" lon="110.130220">
        <ele>91.281884</ele>
        <time>2026-08-16T03:04:22.000Z</time>
      </trkpt>
      <trkpt lat="22.721991" lon="110.130247">
        <ele>91.255004</ele>
        <time>2026-08-16T03:04:23.000Z</time>
      </trkpt>
      <trkpt lat="22.721931" lon="110.130275">
        <ele>91.227976</ele>
        <time>2026-08-16T03:04:24.000Z</time>
      </trkpt>
      <trkpt lat="22.721872" lon="110.130308">
        <ele>91.200506</ele>
        <time>2026-08-16T03:04:25.000Z</time>
      </trkpt>
      <trkpt lat="22.721814" lon="110.130341">
        <ele>91.173403</ele>
        <time>2026-08-16T03:04:26.000Z</time>
      </trkpt>
      <trkpt lat="22.721757" lon="110.130375">
        <ele>91.146484</ele>
        <time>2026-08-16T03:04:27.000Z</time>
      </trkpt>
      <trkpt lat="22.721701" lon="110.130407">
        <ele>91.120291</ele>
        <time>2026-08-16T03:04:28.000Z</time>
      </trkpt>
      <trkpt lat="22.721646" lon="110.130440">
        <ele>91.094281</ele>
        <time>2026-08-16T03:04:29.000Z</time>
      </trkpt>
      <trkpt lat="22.721588" lon="110.130472">
        <ele>91.067354</ele>
        <time>2026-08-16T03:04:30.000Z</time>
      </trkpt>
      <trkpt lat="22.721530" lon="110.130506">
        <ele>91.040071</ele>
        <time>2026-08-16T03:04:31.000Z</time>
      </trkpt>
      <trkpt lat="22.721472" lon="110.130535">
        <ele>91.013643</ele>
        <time>2026-08-16T03:04:32.000Z</time>
      </trkpt>
      <trkpt lat="22.721414" lon="110.130557">
        <ele>90.988218</ele>
        <time>2026-08-16T03:04:33.000Z</time>
      </trkpt>
      <trkpt lat="22.721355" lon="110.130584">
        <ele>90.979740</ele>
        <time>2026-08-16T03:04:34.000Z</time>
      </trkpt>
      <trkpt lat="22.721302" lon="110.130617">
        <ele>90.979230</ele>
        <time>2026-08-16T03:04:35.000Z</time>
      </trkpt>
      <trkpt lat="22.721241" lon="110.130651">
        <ele>90.978657</ele>
        <time>2026-08-16T03:04:36.000Z</time>
      </trkpt>
      <trkpt lat="22.721181" lon="110.130686">
        <ele>90.978089</ele>
        <time>2026-08-16T03:04:37.000Z</time>
      </trkpt>
      <trkpt lat="22.721124" lon="110.130722">
        <ele>90.977538</ele>
        <time>2026-08-16T03:04:38.000Z</time>
      </trkpt>
      <trkpt lat="22.721069" lon="110.130757">
        <ele>90.977006</ele>
        <time>2026-08-16T03:04:39.000Z</time>
      </trkpt>
      <trkpt lat="22.721013" lon="110.130794">
        <ele>90.976459</ele>
        <time>2026-08-16T03:04:40.000Z</time>
      </trkpt>
      <trkpt lat="22.720957" lon="110.130829">
        <ele>90.975920</ele>
        <time>2026-08-16T03:04:41.000Z</time>
      </trkpt>
      <trkpt lat="22.720902" lon="110.130864">
        <ele>90.975387</ele>
        <time>2026-08-16T03:04:42.000Z</time>
      </trkpt>
      <trkpt lat="22.720846" lon="110.130899">
        <ele>90.974848</ele>
        <time>2026-08-16T03:04:43.000Z</time>
      </trkpt>
      <trkpt lat="22.720791" lon="110.130932">
        <ele>90.974323</ele>
        <time>2026-08-16T03:04:44.000Z</time>
      </trkpt>
      <trkpt lat="22.720739" lon="110.130964">
        <ele>90.973824</ele>
        <time>2026-08-16T03:04:45.000Z</time>
      </trkpt>
      <trkpt lat="22.720687" lon="110.130991">
        <ele>90.973343</ele>
        <time>2026-08-16T03:04:46.000Z</time>
      </trkpt>
      <trkpt lat="22.720634" lon="110.131020">
        <ele>90.972848</ele>
        <time>2026-08-16T03:04:47.000Z</time>
      </trkpt>
      <trkpt lat="22.720582" lon="110.131050">
        <ele>90.972356</ele>
        <time>2026-08-16T03:04:48.000Z</time>
      </trkpt>
      <trkpt lat="22.720531" lon="110.131078">
        <ele>90.971879</ele>
        <time>2026-08-16T03:04:49.000Z</time>
      </trkpt>
      <trkpt lat="22.720480" lon="110.131106">
        <ele>90.971402</ele>
        <time>2026-08-16T03:04:50.000Z</time>
      </trkpt>
      <trkpt lat="22.720428" lon="110.131134">
        <ele>90.970918</ele>
        <time>2026-08-16T03:04:51.000Z</time>
      </trkpt>
      <trkpt lat="22.720378" lon="110.131163">
        <ele>90.970445</ele>
        <time>2026-08-16T03:04:52.000Z</time>
      </trkpt>
      <trkpt lat="22.720330" lon="110.131190">
        <ele>90.969993</ele>
        <time>2026-08-16T03:04:53.000Z</time>
      </trkpt>
      <trkpt lat="22.720280" lon="110.131218">
        <ele>90.969524</ele>
        <time>2026-08-16T03:04:54.000Z</time>
      </trkpt>
      <trkpt lat="22.720230" lon="110.131248">
        <ele>90.969047</ele>
        <time>2026-08-16T03:04:55.000Z</time>
      </trkpt>
      <trkpt lat="22.720182" lon="110.131276">
        <ele>90.968592</ele>
        <time>2026-08-16T03:04:56.000Z</time>
      </trkpt>
      <trkpt lat="22.720133" lon="110.131305">
        <ele>90.968126</ele>
        <time>2026-08-16T03:04:57.000Z</time>
      </trkpt>
      <trkpt lat="22.720087" lon="110.131331">
        <ele>90.967693</ele>
        <time>2026-08-16T03:04:58.000Z</time>
      </trkpt>
      <trkpt lat="22.720037" lon="110.131352">
        <ele>90.967246</ele>
        <time>2026-08-16T03:04:59.000Z</time>
      </trkpt>
      <trkpt lat="22.719989" lon="110.131378">
        <ele>90.966798</ele>
        <time>2026-08-16T03:05:00.000Z</time>
      </trkpt>
      <trkpt lat="22.719947" lon="110.131406">
        <ele>90.966387</ele>
        <time>2026-08-16T03:05:01.000Z</time>
      </trkpt>
      <trkpt lat="22.719904" lon="110.131434">
        <ele>90.965968</ele>
        <time>2026-08-16T03:05:02.000Z</time>
      </trkpt>
      <trkpt lat="22.719861" lon="110.131463">
        <ele>90.965545</ele>
        <time>2026-08-16T03:05:03.000Z</time>
      </trkpt>
      <trkpt lat="22.719821" lon="110.131493">
        <ele>90.965140</ele>
        <time>2026-08-16T03:05:04.000Z</time>
      </trkpt>
      <trkpt lat="22.719776" lon="110.131522">
        <ele>90.947770</ele>
        <time>2026-08-16T03:05:05.000Z</time>
      </trkpt>
      <trkpt lat="22.719728" lon="110.131548">
        <ele>90.928311</ele>
        <time>2026-08-16T03:05:06.000Z</time>
      </trkpt>
      <trkpt lat="22.719678" lon="110.131574">
        <ele>90.908200</ele>
        <time>2026-08-16T03:05:07.000Z</time>
      </trkpt>
      <trkpt lat="22.719631" lon="110.131602">
        <ele>90.888752</ele>
        <time>2026-08-16T03:05:08.000Z</time>
      </trkpt>
      <trkpt lat="22.719582" lon="110.131630">
        <ele>90.868664</ele>
        <time>2026-08-16T03:05:09.000Z</time>
      </trkpt>
      <trkpt lat="22.719537" lon="110.131655">
        <ele>90.850327</ele>
        <time>2026-08-16T03:05:10.000Z</time>
      </trkpt>
      <trkpt lat="22.719491" lon="110.131682">
        <ele>90.831356</ele>
        <time>2026-08-16T03:05:11.000Z</time>
      </trkpt>
      <trkpt lat="22.719443" lon="110.131710">
        <ele>90.811589</ele>
        <time>2026-08-16T03:05:12.000Z</time>
      </trkpt>
      <trkpt lat="22.719395" lon="110.131737">
        <ele>90.791978</ele>
        <time>2026-08-16T03:05:13.000Z</time>
      </trkpt>
      <trkpt lat="22.719343" lon="110.131763">
        <ele>90.771211</ele>
        <time>2026-08-16T03:05:14.000Z</time>
      </trkpt>
      <trkpt lat="22.719291" lon="110.131792">
        <ele>90.750004</ele>
        <time>2026-08-16T03:05:15.000Z</time>
      </trkpt>
      <trkpt lat="22.719240" lon="110.131818">
        <ele>90.729566</ele>
        <time>2026-08-16T03:05:16.000Z</time>
      </trkpt>
      <trkpt lat="22.719188" lon="110.131844">
        <ele>90.708799</ele>
        <time>2026-08-16T03:05:17.000Z</time>
      </trkpt>
      <trkpt lat="22.719139" lon="110.131871">
        <ele>90.688865</ele>
        <time>2026-08-16T03:05:18.000Z</time>
      </trkpt>
      <trkpt lat="22.719090" lon="110.131899">
        <ele>90.668778</ele>
        <time>2026-08-16T03:05:19.000Z</time>
      </trkpt>
      <trkpt lat="22.719040" lon="110.131927">
        <ele>90.648369</ele>
        <time>2026-08-16T03:05:20.000Z</time>
      </trkpt>
      <trkpt lat="22.718990" lon="110.131956">
        <ele>90.627804</ele>
        <time>2026-08-16T03:05:21.000Z</time>
      </trkpt>
      <trkpt lat="22.718940" lon="110.131982">
        <ele>90.607693</ele>
        <time>2026-08-16T03:05:22.000Z</time>
      </trkpt>
      <trkpt lat="22.718887" lon="110.132007">
        <ele>90.586732</ele>
        <time>2026-08-16T03:05:23.000Z</time>
      </trkpt>
      <trkpt lat="22.718838" lon="110.132035">
        <ele>90.566645</ele>
        <time>2026-08-16T03:05:24.000Z</time>
      </trkpt>
      <trkpt lat="22.718787" lon="110.132063">
        <ele>90.545913</ele>
        <time>2026-08-16T03:05:25.000Z</time>
      </trkpt>
      <trkpt lat="22.718737" lon="110.132092">
        <ele>90.525348</ele>
        <time>2026-08-16T03:05:26.000Z</time>
      </trkpt>
      <trkpt lat="22.718685" lon="110.132122">
        <ele>90.503986</ele>
        <time>2026-08-16T03:05:27.000Z</time>
      </trkpt>
      <trkpt lat="22.718634" lon="110.132153">
        <ele>90.482782</ele>
        <time>2026-08-16T03:05:28.000Z</time>
      </trkpt>
      <trkpt lat="22.718581" lon="110.132181">
        <ele>90.461400</ele>
        <time>2026-08-16T03:05:29.000Z</time>
      </trkpt>
      <trkpt lat="22.718529" lon="110.132211">
        <ele>90.440038</ele>
        <time>2026-08-16T03:05:30.000Z</time>
      </trkpt>
      <trkpt lat="22.718478" lon="110.132245">
        <ele>90.418326</ele>
        <time>2026-08-16T03:05:31.000Z</time>
      </trkpt>
      <trkpt lat="22.718426" lon="110.132276">
        <ele>90.396805</ele>
        <time>2026-08-16T03:05:32.000Z</time>
      </trkpt>
      <trkpt lat="22.718375" lon="110.132303">
        <ele>90.376222</ele>
        <time>2026-08-16T03:05:33.000Z</time>
      </trkpt>
      <trkpt lat="22.718319" lon="110.132328">
        <ele>90.354259</ele>
        <time>2026-08-16T03:05:34.000Z</time>
      </trkpt>
      <trkpt lat="22.718267" lon="110.132355">
        <ele>90.333349</ele>
        <time>2026-08-16T03:05:35.000Z</time>
      </trkpt>
      <trkpt lat="22.718218" lon="110.132384">
        <ele>90.313104</ele>
        <time>2026-08-16T03:05:36.000Z</time>
      </trkpt>
      <trkpt lat="22.718171" lon="110.132414">
        <ele>90.276916</ele>
        <time>2026-08-16T03:05:37.000Z</time>
      </trkpt>
      <trkpt lat="22.718128" lon="110.132442">
        <ele>90.243413</ele>
        <time>2026-08-16T03:05:38.000Z</time>
      </trkpt>
      <trkpt lat="22.718080" lon="110.132478">
        <ele>90.204428</ele>
        <time>2026-08-16T03:05:39.000Z</time>
      </trkpt>
      <trkpt lat="22.718040" lon="110.132509">
        <ele>90.171586</ele>
        <time>2026-08-16T03:05:40.000Z</time>
      </trkpt>
      <trkpt lat="22.718009" lon="110.132534">
        <ele>90.145780</ele>
        <time>2026-08-16T03:05:41.000Z</time>
      </trkpt>
      <trkpt lat="22.717975" lon="110.132551">
        <ele>90.120772</ele>
        <time>2026-08-16T03:05:42.000Z</time>
      </trkpt>
      <trkpt lat="22.717948" lon="110.132568">
        <ele>90.099917</ele>
        <time>2026-08-16T03:05:43.000Z</time>
      </trkpt>
      <trkpt lat="22.717899" lon="110.132583">
        <ele>90.065909</ele>
        <time>2026-08-16T03:05:44.000Z</time>
      </trkpt>
      <trkpt lat="22.717836" lon="110.132598">
        <ele>90.022826</ele>
        <time>2026-08-16T03:05:45.000Z</time>
      </trkpt>
      <trkpt lat="22.717783" lon="110.132619">
        <ele>89.985136</ele>
        <time>2026-08-16T03:05:46.000Z</time>
      </trkpt>
      <trkpt lat="22.717730" lon="110.132651">
        <ele>89.944616</ele>
        <time>2026-08-16T03:05:47.000Z</time>
      </trkpt>
      <trkpt lat="22.717673" lon="110.132681">
        <ele>89.902295</ele>
        <time>2026-08-16T03:05:48.000Z</time>
      </trkpt>
      <trkpt lat="22.717619" lon="110.132715">
        <ele>89.860585</ele>
        <time>2026-08-16T03:05:49.000Z</time>
      </trkpt>
      <trkpt lat="22.717567" lon="110.132749">
        <ele>89.820025</ele>
        <time>2026-08-16T03:05:50.000Z</time>
      </trkpt>
      <trkpt lat="22.717514" lon="110.132784">
        <ele>89.778574</ele>
        <time>2026-08-16T03:05:51.000Z</time>
      </trkpt>
      <trkpt lat="22.717465" lon="110.132820">
        <ele>89.739038</ele>
        <time>2026-08-16T03:05:52.000Z</time>
      </trkpt>
      <trkpt lat="22.717415" lon="110.132855">
        <ele>89.699285</ele>
        <time>2026-08-16T03:05:53.000Z</time>
      </trkpt>
      <trkpt lat="22.717364" lon="110.132893">
        <ele>89.657951</ele>
        <time>2026-08-16T03:05:54.000Z</time>
      </trkpt>
      <trkpt lat="22.717319" lon="110.132926">
        <ele>89.621664</ele>
        <time>2026-08-16T03:05:55.000Z</time>
      </trkpt>
      <trkpt lat="22.717276" lon="110.132953">
        <ele>89.588473</ele>
        <time>2026-08-16T03:05:56.000Z</time>
      </trkpt>
      <trkpt lat="22.717228" lon="110.132982">
        <ele>89.551770</ele>
        <time>2026-08-16T03:05:57.000Z</time>
      </trkpt>
      <trkpt lat="22.717180" lon="110.133015">
        <ele>89.513806</ele>
        <time>2026-08-16T03:05:58.000Z</time>
      </trkpt>
      <trkpt lat="22.717129" lon="110.133047">
        <ele>89.474448</ele>
        <time>2026-08-16T03:05:59.000Z</time>
      </trkpt>
      <trkpt lat="22.717076" lon="110.133077">
        <ele>89.434513</ele>
        <time>2026-08-16T03:06:00.000Z</time>
      </trkpt>
      <trkpt lat="22.717022" lon="110.133105">
        <ele>89.394532</ele>
        <time>2026-08-16T03:06:01.000Z</time>
      </trkpt>
      <trkpt lat="22.716972" lon="110.133132">
        <ele>89.357222</ele>
        <time>2026-08-16T03:06:02.000Z</time>
      </trkpt>
      <trkpt lat="22.716921" lon="110.133158">
        <ele>89.319579</ele>
        <time>2026-08-16T03:06:03.000Z</time>
      </trkpt>
      <trkpt lat="22.716870" lon="110.133184">
        <ele>89.281936</ele>
        <time>2026-08-16T03:06:04.000Z</time>
      </trkpt>
      <trkpt lat="22.716818" lon="110.133214">
        <ele>89.242592</ele>
        <time>2026-08-16T03:06:05.000Z</time>
      </trkpt>
      <trkpt lat="22.716766" lon="110.133243">
        <ele>89.203534</ele>
        <time>2026-08-16T03:06:06.000Z</time>
      </trkpt>
      <trkpt lat="22.716715" lon="110.133271">
        <ele>89.165351</ele>
        <time>2026-08-16T03:06:07.000Z</time>
      </trkpt>
      <trkpt lat="22.716663" lon="110.133302">
        <ele>89.125713</ele>
        <time>2026-08-16T03:06:08.000Z</time>
      </trkpt>
      <trkpt lat="22.716612" lon="110.133332">
        <ele>89.102641</ele>
        <time>2026-08-16T03:06:09.000Z</time>
      </trkpt>
      <trkpt lat="22.716561" lon="110.133361">
        <ele>89.088802</ele>
        <time>2026-08-16T03:06:10.000Z</time>
      </trkpt>
      <trkpt lat="22.716510" lon="110.133391">
        <ele>89.074858</ele>
        <time>2026-08-16T03:06:11.000Z</time>
      </trkpt>
      <trkpt lat="22.716459" lon="110.133422">
        <ele>89.060807</ele>
        <time>2026-08-16T03:06:12.000Z</time>
      </trkpt>
      <trkpt lat="22.716407" lon="110.133452">
        <ele>89.046652</ele>
        <time>2026-08-16T03:06:13.000Z</time>
      </trkpt>
      <trkpt lat="22.716356" lon="110.133482">
        <ele>89.032708</ele>
        <time>2026-08-16T03:06:14.000Z</time>
      </trkpt>
      <trkpt lat="22.716301" lon="110.133512">
        <ele>89.017913</ele>
        <time>2026-08-16T03:06:15.000Z</time>
      </trkpt>
      <trkpt lat="22.716249" lon="110.133545">
        <ele>89.003433</ele>
        <time>2026-08-16T03:06:16.000Z</time>
      </trkpt>
      <trkpt lat="22.716198" lon="110.133577">
        <ele>88.989273</ele>
        <time>2026-08-16T03:06:17.000Z</time>
      </trkpt>
      <trkpt lat="22.716147" lon="110.133609">
        <ele>88.975112</ele>
        <time>2026-08-16T03:06:18.000Z</time>
      </trkpt>
      <trkpt lat="22.716096" lon="110.133640">
        <ele>88.961061</ele>
        <time>2026-08-16T03:06:19.000Z</time>
      </trkpt>
      <trkpt lat="22.716045" lon="110.133670">
        <ele>88.947118</ele>
        <time>2026-08-16T03:06:20.000Z</time>
      </trkpt>
      <trkpt lat="22.715994" lon="110.133700">
        <ele>88.933174</ele>
        <time>2026-08-16T03:06:21.000Z</time>
      </trkpt>
      <trkpt lat="22.715944" lon="110.133730">
        <ele>88.919441</ele>
        <time>2026-08-16T03:06:22.000Z</time>
      </trkpt>
      <trkpt lat="22.715892" lon="110.133760">
        <ele>88.905286</ele>
        <time>2026-08-16T03:06:23.000Z</time>
      </trkpt>
      <trkpt lat="22.715841" lon="110.133792">
        <ele>88.891125</ele>
        <time>2026-08-16T03:06:24.000Z</time>
      </trkpt>
      <trkpt lat="22.715790" lon="110.133825">
        <ele>88.876852</ele>
        <time>2026-08-16T03:06:25.000Z</time>
      </trkpt>
      <trkpt lat="22.715741" lon="110.133858">
        <ele>88.862990</ele>
        <time>2026-08-16T03:06:26.000Z</time>
      </trkpt>
      <trkpt lat="22.715690" lon="110.133887">
        <ele>88.849151</ele>
        <time>2026-08-16T03:06:27.000Z</time>
      </trkpt>
      <trkpt lat="22.715636" lon="110.133911">
        <ele>88.835126</ele>
        <time>2026-08-16T03:06:28.000Z</time>
      </trkpt>
      <trkpt lat="22.715589" lon="110.133938">
        <ele>88.822343</ele>
        <time>2026-08-16T03:06:29.000Z</time>
      </trkpt>
      <trkpt lat="22.715542" lon="110.133965">
        <ele>88.809561</ele>
        <time>2026-08-16T03:06:30.000Z</time>
      </trkpt>
      <trkpt lat="22.715493" lon="110.133994">
        <ele>88.796146</ele>
        <time>2026-08-16T03:06:31.000Z</time>
      </trkpt>
      <trkpt lat="22.715443" lon="110.134024">
        <ele>88.782413</ele>
        <time>2026-08-16T03:06:32.000Z</time>
      </trkpt>
      <trkpt lat="22.715388" lon="110.134053">
        <ele>88.767715</ele>
        <time>2026-08-16T03:06:33.000Z</time>
      </trkpt>
      <trkpt lat="22.715336" lon="110.134081">
        <ele>88.753763</ele>
        <time>2026-08-16T03:06:34.000Z</time>
      </trkpt>
      <trkpt lat="22.715286" lon="110.134107">
        <ele>88.740436</ele>
        <time>2026-08-16T03:06:35.000Z</time>
      </trkpt>
      <trkpt lat="22.715237" lon="110.134133">
        <ele>88.727327</ele>
        <time>2026-08-16T03:06:36.000Z</time>
      </trkpt>
      <trkpt lat="22.715189" lon="110.134158">
        <ele>88.714530</ele>
        <time>2026-08-16T03:06:37.000Z</time>
      </trkpt>
      <trkpt lat="22.715140" lon="110.134185">
        <ele>88.701321</ele>
        <time>2026-08-16T03:06:38.000Z</time>
      </trkpt>
      <trkpt lat="22.715089" lon="110.134215">
        <ele>88.687377</ele>
        <time>2026-08-16T03:06:39.000Z</time>
      </trkpt>
      <trkpt lat="22.715038" lon="110.134245">
        <ele>88.672462</ele>
        <time>2026-08-16T03:06:40.000Z</time>
      </trkpt>
      <trkpt lat="22.714986" lon="110.134273">
        <ele>88.656169</ele>
        <time>2026-08-16T03:06:41.000Z</time>
      </trkpt>
      <trkpt lat="22.714932" lon="110.134302">
        <ele>88.639258</ele>
        <time>2026-08-16T03:06:42.000Z</time>
      </trkpt>
      <trkpt lat="22.714879" lon="110.134331">
        <ele>88.622599</ele>
        <time>2026-08-16T03:06:43.000Z</time>
      </trkpt>
      <trkpt lat="22.714829" lon="110.134359">
        <ele>88.606807</ele>
        <time>2026-08-16T03:06:44.000Z</time>
      </trkpt>
      <trkpt lat="22.714780" lon="110.134389">
        <ele>88.591015</ele>
        <time>2026-08-16T03:06:45.000Z</time>
      </trkpt>
      <trkpt lat="22.714731" lon="110.134423">
        <ele>88.574690</ele>
        <time>2026-08-16T03:06:46.000Z</time>
      </trkpt>
      <trkpt lat="22.714678" lon="110.134455">
        <ele>88.557666</ele>
        <time>2026-08-16T03:06:47.000Z</time>
      </trkpt>
      <trkpt lat="22.714626" lon="110.134484">
        <ele>88.541256</ele>
        <time>2026-08-16T03:06:48.000Z</time>
      </trkpt>
      <trkpt lat="22.714574" lon="110.134517">
        <ele>88.524348</ele>
        <time>2026-08-16T03:06:49.000Z</time>
      </trkpt>
      <trkpt lat="22.714519" lon="110.134551">
        <ele>88.506581</ele>
        <time>2026-08-16T03:06:50.000Z</time>
      </trkpt>
      <trkpt lat="22.714468" lon="110.134581">
        <ele>88.490299</ele>
        <time>2026-08-16T03:06:51.000Z</time>
      </trkpt>
      <trkpt lat="22.714416" lon="110.134610">
        <ele>88.473889</ele>
        <time>2026-08-16T03:06:52.000Z</time>
      </trkpt>
      <trkpt lat="22.714367" lon="110.134635">
        <ele>88.458693</ele>
        <time>2026-08-16T03:06:53.000Z</time>
      </trkpt>
      <trkpt lat="22.714320" lon="110.134664">
        <ele>88.443517</ele>
        <time>2026-08-16T03:06:54.000Z</time>
      </trkpt>
      <trkpt lat="22.714269" lon="110.134690">
        <ele>88.427702</ele>
        <time>2026-08-16T03:06:55.000Z</time>
      </trkpt>
      <trkpt lat="22.714217" lon="110.134716">
        <ele>88.411633</ele>
        <time>2026-08-16T03:06:56.000Z</time>
      </trkpt>
      <trkpt lat="22.714167" lon="110.134744">
        <ele>88.395841</ele>
        <time>2026-08-16T03:06:57.000Z</time>
      </trkpt>
      <trkpt lat="22.714119" lon="110.134772">
        <ele>88.380545</ele>
        <time>2026-08-16T03:06:58.000Z</time>
      </trkpt>
      <trkpt lat="22.714074" lon="110.134800">
        <ele>88.365985</ele>
        <time>2026-08-16T03:06:59.000Z</time>
      </trkpt>
      <trkpt lat="22.714026" lon="110.134831">
        <ele>88.350307</ele>
        <time>2026-08-16T03:07:00.000Z</time>
      </trkpt>
      <trkpt lat="22.713977" lon="110.134862">
        <ele>88.334386</ele>
        <time>2026-08-16T03:07:01.000Z</time>
      </trkpt>
      <trkpt lat="22.713923" lon="110.134891">
        <ele>88.317476</ele>
        <time>2026-08-16T03:07:02.000Z</time>
      </trkpt>
      <trkpt lat="22.713871" lon="110.134920">
        <ele>88.301066</ele>
        <time>2026-08-16T03:07:03.000Z</time>
      </trkpt>
      <trkpt lat="22.713817" lon="110.134955">
        <ele>88.283411</ele>
        <time>2026-08-16T03:07:04.000Z</time>
      </trkpt>
      <trkpt lat="22.713763" lon="110.134983">
        <ele>88.266614</ele>
        <time>2026-08-16T03:07:05.000Z</time>
      </trkpt>
      <trkpt lat="22.713710" lon="110.135011">
        <ele>88.250069</ele>
        <time>2026-08-16T03:07:06.000Z</time>
      </trkpt>
      <trkpt lat="22.713659" lon="110.135036">
        <ele>88.234363</ele>
        <time>2026-08-16T03:07:07.000Z</time>
      </trkpt>
      <trkpt lat="22.713609" lon="110.135066">
        <ele>88.218326</ele>
        <time>2026-08-16T03:07:08.000Z</time>
      </trkpt>
      <trkpt lat="22.713559" lon="110.135089">
        <ele>88.203085</ele>
        <time>2026-08-16T03:07:09.000Z</time>
      </trkpt>
      <trkpt lat="22.713516" lon="110.135112">
        <ele>88.189630</ele>
        <time>2026-08-16T03:07:10.000Z</time>
      </trkpt>
      <trkpt lat="22.713480" lon="110.135136">
        <ele>88.177770</ele>
        <time>2026-08-16T03:07:11.000Z</time>
      </trkpt>
      <trkpt lat="22.713450" lon="110.135165">
        <ele>88.170207</ele>
        <time>2026-08-16T03:07:12.000Z</time>
      </trkpt>
      <trkpt lat="22.713425" lon="110.135194">
        <ele>88.164699</ele>
        <time>2026-08-16T03:07:13.000Z</time>
      </trkpt>
      <trkpt lat="22.713402" lon="110.135233">
        <ele>88.158277</ele>
        <time>2026-08-16T03:07:14.000Z</time>
      </trkpt>
      <trkpt lat="22.713389" lon="110.135277">
        <ele>88.151866</ele>
        <time>2026-08-16T03:07:15.000Z</time>
      </trkpt>
      <trkpt lat="22.713385" lon="110.135322">
        <ele>88.145593</ele>
        <time>2026-08-16T03:07:16.000Z</time>
      </trkpt>
      <trkpt lat="22.713388" lon="110.135367">
        <ele>88.139333</ele>
        <time>2026-08-16T03:07:17.000Z</time>
      </trkpt>
      <trkpt lat="22.713399" lon="110.135406">
        <ele>88.133675</ele>
        <time>2026-08-16T03:07:18.000Z</time>
      </trkpt>
      <trkpt lat="22.713414" lon="110.135436">
        <ele>88.128940</ele>
        <time>2026-08-16T03:07:19.000Z</time>
      </trkpt>
      <trkpt lat="22.713436" lon="110.135471">
        <ele>88.123063</ele>
        <time>2026-08-16T03:07:20.000Z</time>
      </trkpt>
      <trkpt lat="22.713469" lon="110.135511">
        <ele>88.115617</ele>
        <time>2026-08-16T03:07:21.000Z</time>
      </trkpt>
      <trkpt lat="22.713504" lon="110.135546">
        <ele>88.108455</ele>
        <time>2026-08-16T03:07:22.000Z</time>
      </trkpt>
      <trkpt lat="22.713530" lon="110.135574">
        <ele>88.102942</ele>
        <time>2026-08-16T03:07:23.000Z</time>
      </trkpt>
      <trkpt lat="22.713568" lon="110.135606">
        <ele>88.095705</ele>
        <time>2026-08-16T03:07:24.000Z</time>
      </trkpt>
      <trkpt lat="22.713611" lon="110.135638">
        <ele>88.087860</ele>
        <time>2026-08-16T03:07:25.000Z</time>
      </trkpt>
      <trkpt lat="22.713657" lon="110.135675">
        <ele>88.079244</ele>
        <time>2026-08-16T03:07:26.000Z</time>
      </trkpt>
      <trkpt lat="22.713703" lon="110.135710">
        <ele>88.070790</ele>
        <time>2026-08-16T03:07:27.000Z</time>
      </trkpt>
      <trkpt lat="22.713747" lon="110.135742">
        <ele>88.062821</ele>
        <time>2026-08-16T03:07:28.000Z</time>
      </trkpt>
      <trkpt lat="22.713788" lon="110.135772">
        <ele>88.055380</ele>
        <time>2026-08-16T03:07:29.000Z</time>
      </trkpt>
      <trkpt lat="22.713826" lon="110.135801">
        <ele>88.048390</ele>
        <time>2026-08-16T03:07:30.000Z</time>
      </trkpt>
      <trkpt lat="22.713863" lon="110.135831">
        <ele>88.041440</ele>
        <time>2026-08-16T03:07:31.000Z</time>
      </trkpt>
      <trkpt lat="22.713905" lon="110.135864">
        <ele>88.033638</ele>
        <time>2026-08-16T03:07:32.000Z</time>
      </trkpt>
      <trkpt lat="22.713953" lon="110.135896">
        <ele>88.025162</ele>
        <time>2026-08-16T03:07:33.000Z</time>
      </trkpt>
      <trkpt lat="22.714000" lon="110.135934">
        <ele>88.016343</ele>
        <time>2026-08-16T03:07:34.000Z</time>
      </trkpt>
      <trkpt lat="22.714047" lon="110.135975">
        <ele>88.007269</ele>
        <time>2026-08-16T03:07:35.000Z</time>
      </trkpt>
      <trkpt lat="22.714092" lon="110.136014">
        <ele>87.998603</ele>
        <time>2026-08-16T03:07:36.000Z</time>
      </trkpt>
      <trkpt lat="22.714135" lon="110.136051">
        <ele>87.990345</ele>
        <time>2026-08-16T03:07:37.000Z</time>
      </trkpt>
      <trkpt lat="22.714177" lon="110.136086">
        <ele>87.982377</ele>
        <time>2026-08-16T03:07:38.000Z</time>
      </trkpt>
      <trkpt lat="22.714221" lon="110.136119">
        <ele>87.974329</ele>
        <time>2026-08-16T03:07:39.000Z</time>
      </trkpt>
      <trkpt lat="22.714265" lon="110.136152">
        <ele>87.966281</ele>
        <time>2026-08-16T03:07:40.000Z</time>
      </trkpt>
      <trkpt lat="22.714309" lon="110.136188">
        <ele>87.957989</ele>
        <time>2026-08-16T03:07:41.000Z</time>
      </trkpt>
      <trkpt lat="22.714352" lon="110.136223">
        <ele>87.949901</ele>
        <time>2026-08-16T03:07:42.000Z</time>
      </trkpt>
      <trkpt lat="22.714397" lon="110.136258">
        <ele>87.941571</ele>
        <time>2026-08-16T03:07:43.000Z</time>
      </trkpt>
      <trkpt lat="22.714441" lon="110.136292">
        <ele>87.933443</ele>
        <time>2026-08-16T03:07:44.000Z</time>
      </trkpt>
      <trkpt lat="22.714485" lon="110.136327">
        <ele>87.925234</ele>
        <time>2026-08-16T03:07:45.000Z</time>
      </trkpt>
      <trkpt lat="22.714525" lon="110.136363">
        <ele>87.917414</ele>
        <time>2026-08-16T03:07:46.000Z</time>
      </trkpt>
      <trkpt lat="22.714570" lon="110.136398">
        <ele>87.909084</ele>
        <time>2026-08-16T03:07:47.000Z</time>
      </trkpt>
      <trkpt lat="22.714612" lon="110.136439">
        <ele>87.907942</ele>
        <time>2026-08-16T03:07:48.000Z</time>
      </trkpt>
      <trkpt lat="22.714657" lon="110.136475">
        <ele>87.917891</ele>
        <time>2026-08-16T03:07:49.000Z</time>
      </trkpt>
      <trkpt lat="22.714701" lon="110.136510">
        <ele>87.927600</ele>
        <time>2026-08-16T03:07:50.000Z</time>
      </trkpt>
      <trkpt lat="22.714746" lon="110.136545">
        <ele>87.937453</ele>
        <time>2026-08-16T03:07:51.000Z</time>
      </trkpt>
      <trkpt lat="22.714788" lon="110.136581">
        <ele>87.946978</ele>
        <time>2026-08-16T03:07:52.000Z</time>
      </trkpt>
      <trkpt lat="22.714829" lon="110.136614">
        <ele>87.956063</ele>
        <time>2026-08-16T03:07:53.000Z</time>
      </trkpt>
      <trkpt lat="22.714874" lon="110.136649">
        <ele>87.965916</ele>
        <time>2026-08-16T03:07:54.000Z</time>
      </trkpt>
      <trkpt lat="22.714921" lon="110.136684">
        <ele>87.976060</ele>
        <time>2026-08-16T03:07:55.000Z</time>
      </trkpt>
      <trkpt lat="22.714967" lon="110.136719">
        <ele>87.986058</ele>
        <time>2026-08-16T03:07:56.000Z</time>
      </trkpt>
      <trkpt lat="22.715016" lon="110.136757">
        <ele>87.996776</ele>
        <time>2026-08-16T03:07:57.000Z</time>
      </trkpt>
      <trkpt lat="22.715061" lon="110.136792">
        <ele>88.006629</ele>
        <time>2026-08-16T03:07:58.000Z</time>
      </trkpt>
      <trkpt lat="22.715105" lon="110.136825">
        <ele>88.016148</ele>
        <time>2026-08-16T03:07:59.000Z</time>
      </trkpt>
      <trkpt lat="22.715148" lon="110.136858">
        <ele>88.025521</ele>
        <time>2026-08-16T03:08:00.000Z</time>
      </trkpt>
      <trkpt lat="22.715192" lon="110.136893">
        <ele>88.035230</ele>
        <time>2026-08-16T03:08:01.000Z</time>
      </trkpt>
      <trkpt lat="22.715231" lon="110.136930">
        <ele>88.044450</ele>
        <time>2026-08-16T03:08:02.000Z</time>
      </trkpt>
      <trkpt lat="22.715274" lon="110.136965">
        <ele>88.054016</ele>
        <time>2026-08-16T03:08:03.000Z</time>
      </trkpt>
      <trkpt lat="22.715321" lon="110.136999">
        <ele>88.064068</ele>
        <time>2026-08-16T03:08:04.000Z</time>
      </trkpt>
      <trkpt lat="22.715362" lon="110.137036">
        <ele>88.073558</ele>
        <time>2026-08-16T03:08:05.000Z</time>
      </trkpt>
      <trkpt lat="22.715404" lon="110.137071">
        <ele>88.082983</ele>
        <time>2026-08-16T03:08:06.000Z</time>
      </trkpt>
      <trkpt lat="22.715445" lon="110.137107">
        <ele>88.092369</ele>
        <time>2026-08-16T03:08:07.000Z</time>
      </trkpt>
      <trkpt lat="22.715492" lon="110.137141">
        <ele>88.102422</ele>
        <time>2026-08-16T03:08:08.000Z</time>
      </trkpt>
      <trkpt lat="22.715532" lon="110.137174">
        <ele>88.111364</ele>
        <time>2026-08-16T03:08:09.000Z</time>
      </trkpt>
      <trkpt lat="22.715573" lon="110.137207">
        <ele>88.120449</ele>
        <time>2026-08-16T03:08:10.000Z</time>
      </trkpt>
      <trkpt lat="22.715616" lon="110.137238">
        <ele>88.129636</ele>
        <time>2026-08-16T03:08:11.000Z</time>
      </trkpt>
      <trkpt lat="22.715658" lon="110.137269">
        <ele>88.138675</ele>
        <time>2026-08-16T03:08:12.000Z</time>
      </trkpt>
      <trkpt lat="22.715701" lon="110.137304">
        <ele>88.148241</ele>
        <time>2026-08-16T03:08:13.000Z</time>
      </trkpt>
      <trkpt lat="22.715741" lon="110.137336">
        <ele>88.157085</ele>
        <time>2026-08-16T03:08:14.000Z</time>
      </trkpt>
      <trkpt lat="22.715779" lon="110.137361">
        <ele>88.164993</ele>
        <time>2026-08-16T03:08:15.000Z</time>
      </trkpt>
      <trkpt lat="22.715819" lon="110.137393">
        <ele>88.173837</ele>
        <time>2026-08-16T03:08:16.000Z</time>
      </trkpt>
      <trkpt lat="22.715861" lon="110.137421">
        <ele>88.182609</ele>
        <time>2026-08-16T03:08:17.000Z</time>
      </trkpt>
      <trkpt lat="22.715904" lon="110.137453">
        <ele>88.191888</ele>
        <time>2026-08-16T03:08:18.000Z</time>
      </trkpt>
      <trkpt lat="22.715947" lon="110.137485">
        <ele>88.201166</ele>
        <time>2026-08-16T03:08:19.000Z</time>
      </trkpt>
      <trkpt lat="22.715992" lon="110.137518">
        <ele>88.210832</ele>
        <time>2026-08-16T03:08:20.000Z</time>
      </trkpt>
      <trkpt lat="22.716037" lon="110.137552">
        <ele>88.220590</ele>
        <time>2026-08-16T03:08:21.000Z</time>
      </trkpt>
      <trkpt lat="22.716083" lon="110.137585">
        <ele>88.238166</ele>
        <time>2026-08-16T03:08:22.000Z</time>
      </trkpt>
      <trkpt lat="22.716130" lon="110.137620">
        <ele>88.260495</ele>
        <time>2026-08-16T03:08:23.000Z</time>
      </trkpt>
      <trkpt lat="22.716176" lon="110.137652">
        <ele>88.281899</ele>
        <time>2026-08-16T03:08:24.000Z</time>
      </trkpt>
      <trkpt lat="22.716222" lon="110.137683">
        <ele>88.303109</ele>
        <time>2026-08-16T03:08:25.000Z</time>
      </trkpt>
      <trkpt lat="22.716268" lon="110.137718">
        <ele>88.325117</ele>
        <time>2026-08-16T03:08:26.000Z</time>
      </trkpt>
      <trkpt lat="22.716313" lon="110.137752">
        <ele>88.346596</ele>
        <time>2026-08-16T03:08:27.000Z</time>
      </trkpt>
      <trkpt lat="22.716360" lon="110.137786">
        <ele>88.368723</ele>
        <time>2026-08-16T03:08:28.000Z</time>
      </trkpt>
      <trkpt lat="22.716405" lon="110.137822">
        <ele>88.390624</ele>
        <time>2026-08-16T03:08:29.000Z</time>
      </trkpt>
      <trkpt lat="22.716453" lon="110.137859">
        <ele>88.413688</ele>
        <time>2026-08-16T03:08:30.000Z</time>
      </trkpt>
      <trkpt lat="22.716500" lon="110.137894">
        <ele>88.436017</ele>
        <time>2026-08-16T03:08:31.000Z</time>
      </trkpt>
      <trkpt lat="22.716546" lon="110.137928">
        <ele>88.457819</ele>
        <time>2026-08-16T03:08:32.000Z</time>
      </trkpt>
      <trkpt lat="22.716589" lon="110.137961">
        <ele>88.478450</ele>
        <time>2026-08-16T03:08:33.000Z</time>
      </trkpt>
      <trkpt lat="22.716631" lon="110.137993">
        <ele>88.498553</ele>
        <time>2026-08-16T03:08:34.000Z</time>
      </trkpt>
      <trkpt lat="22.716678" lon="110.138028">
        <ele>88.520882</ele>
        <time>2026-08-16T03:08:35.000Z</time>
      </trkpt>
      <trkpt lat="22.716722" lon="110.138062">
        <ele>88.542041</ele>
        <time>2026-08-16T03:08:36.000Z</time>
      </trkpt>
      <trkpt lat="22.716768" lon="110.138096">
        <ele>88.563843</ele>
        <time>2026-08-16T03:08:37.000Z</time>
      </trkpt>
      <trkpt lat="22.716813" lon="110.138130">
        <ele>88.585323</ele>
        <time>2026-08-16T03:08:38.000Z</time>
      </trkpt>
      <trkpt lat="22.716859" lon="110.138164">
        <ele>88.607125</ele>
        <time>2026-08-16T03:08:39.000Z</time>
      </trkpt>
      <trkpt lat="22.716905" lon="110.138199">
        <ele>88.629132</ele>
        <time>2026-08-16T03:08:40.000Z</time>
      </trkpt>
      <trkpt lat="22.716949" lon="110.138234">
        <ele>88.650504</ele>
        <time>2026-08-16T03:08:41.000Z</time>
      </trkpt>
      <trkpt lat="22.716994" lon="110.138269">
        <ele>88.672192</ele>
        <time>2026-08-16T03:08:42.000Z</time>
      </trkpt>
      <trkpt lat="22.717041" lon="110.138304">
        <ele>88.694521</ele>
        <time>2026-08-16T03:08:43.000Z</time>
      </trkpt>
      <trkpt lat="22.717090" lon="110.138341">
        <ele>88.717905</ele>
        <time>2026-08-16T03:08:44.000Z</time>
      </trkpt>
      <trkpt lat="22.717139" lon="110.138376">
        <ele>88.740884</ele>
        <time>2026-08-16T03:08:45.000Z</time>
      </trkpt>
      <trkpt lat="22.717188" lon="110.138411">
        <ele>88.763863</ele>
        <time>2026-08-16T03:08:46.000Z</time>
      </trkpt>
      <trkpt lat="22.717235" lon="110.138447">
        <ele>88.786399</ele>
        <time>2026-08-16T03:08:47.000Z</time>
      </trkpt>
      <trkpt lat="22.717282" lon="110.138484">
        <ele>88.809145</ele>
        <time>2026-08-16T03:08:48.000Z</time>
      </trkpt>
      <trkpt lat="22.717327" lon="110.138519">
        <ele>88.830833</ele>
        <time>2026-08-16T03:08:49.000Z</time>
      </trkpt>
      <trkpt lat="22.717371" lon="110.138551">
        <ele>88.851581</ele>
        <time>2026-08-16T03:08:50.000Z</time>
      </trkpt>
      <trkpt lat="22.717417" lon="110.138585">
        <ele>88.873383</ele>
        <time>2026-08-16T03:08:51.000Z</time>
      </trkpt>
      <trkpt lat="22.717461" lon="110.138619">
        <ele>88.894542</ele>
        <time>2026-08-16T03:08:52.000Z</time>
      </trkpt>
      <trkpt lat="22.717505" lon="110.138652">
        <ele>88.915494</ele>
        <time>2026-08-16T03:08:53.000Z</time>
      </trkpt>
      <trkpt lat="22.717549" lon="110.138685">
        <ele>88.938331</ele>
        <time>2026-08-16T03:08:54.000Z</time>
      </trkpt>
      <trkpt lat="22.717592" lon="110.138716">
        <ele>88.963227</ele>
        <time>2026-08-16T03:08:55.000Z</time>
      </trkpt>
      <trkpt lat="22.717631" lon="110.138748">
        <ele>88.986807</ele>
        <time>2026-08-16T03:08:56.000Z</time>
      </trkpt>
      <trkpt lat="22.717671" lon="110.138781">
        <ele>89.011040</ele>
        <time>2026-08-16T03:08:57.000Z</time>
      </trkpt>
      <trkpt lat="22.717716" lon="110.138816">
        <ele>89.037740</ele>
        <time>2026-08-16T03:08:58.000Z</time>
      </trkpt>
      <trkpt lat="22.717760" lon="110.138849">
        <ele>89.063534</ele>
        <time>2026-08-16T03:08:59.000Z</time>
      </trkpt>
      <trkpt lat="22.717801" lon="110.138882">
        <ele>89.088152</ele>
        <time>2026-08-16T03:09:00.000Z</time>
      </trkpt>
      <trkpt lat="22.717841" lon="110.138914">
        <ele>89.112118</ele>
        <time>2026-08-16T03:09:01.000Z</time>
      </trkpt>
      <trkpt lat="22.717880" lon="110.138947">
        <ele>89.135969</ele>
        <time>2026-08-16T03:09:02.000Z</time>
      </trkpt>
      <trkpt lat="22.717921" lon="110.138978">
        <ele>89.160067</ele>
        <time>2026-08-16T03:09:03.000Z</time>
      </trkpt>
      <trkpt lat="22.717961" lon="110.139010">
        <ele>89.184033</ele>
        <time>2026-08-16T03:09:04.000Z</time>
      </trkpt>
      <trkpt lat="22.718000" lon="110.139043">
        <ele>89.207884</ele>
        <time>2026-08-16T03:09:05.000Z</time>
      </trkpt>
      <trkpt lat="22.718039" lon="110.139076">
        <ele>89.231735</ele>
        <time>2026-08-16T03:09:06.000Z</time>
      </trkpt>
      <trkpt lat="22.718078" lon="110.139108">
        <ele>89.255315</ele>
        <time>2026-08-16T03:09:07.000Z</time>
      </trkpt>
      <trkpt lat="22.718121" lon="110.139140">
        <ele>89.280460</ele>
        <time>2026-08-16T03:09:08.000Z</time>
      </trkpt>
      <trkpt lat="22.718159" lon="110.139170">
        <ele>89.303122</ele>
        <time>2026-08-16T03:09:09.000Z</time>
      </trkpt>
      <trkpt lat="22.718195" lon="110.139198">
        <ele>89.324482</ele>
        <time>2026-08-16T03:09:10.000Z</time>
      </trkpt>
      <trkpt lat="22.718228" lon="110.139227">
        <ele>89.344962</ele>
        <time>2026-08-16T03:09:11.000Z</time>
      </trkpt>
      <trkpt lat="22.718259" lon="110.139255">
        <ele>89.364415</ele>
        <time>2026-08-16T03:09:12.000Z</time>
      </trkpt>
      <trkpt lat="22.718295" lon="110.139286">
        <ele>89.386579</ele>
        <time>2026-08-16T03:09:13.000Z</time>
      </trkpt>
      <trkpt lat="22.718333" lon="110.139316">
        <ele>89.409242</ele>
        <time>2026-08-16T03:09:14.000Z</time>
      </trkpt>
      <trkpt lat="22.718370" lon="110.139344">
        <ele>89.430995</ele>
        <time>2026-08-16T03:09:15.000Z</time>
      </trkpt>
      <trkpt lat="22.718411" lon="110.139373">
        <ele>89.454596</ele>
        <time>2026-08-16T03:09:16.000Z</time>
      </trkpt>
      <trkpt lat="22.718450" lon="110.139401">
        <ele>89.477147</ele>
        <time>2026-08-16T03:09:17.000Z</time>
      </trkpt>
      <trkpt lat="22.718483" lon="110.139425">
        <ele>89.496305</ele>
        <time>2026-08-16T03:09:18.000Z</time>
      </trkpt>
      <trkpt lat="22.718517" lon="110.139451">
        <ele>89.516364</ele>
        <time>2026-08-16T03:09:19.000Z</time>
      </trkpt>
      <trkpt lat="22.718555" lon="110.139476">
        <ele>89.537793</ele>
        <time>2026-08-16T03:09:20.000Z</time>
      </trkpt>
      <trkpt lat="22.718594" lon="110.139502">
        <ele>89.559865</ele>
        <time>2026-08-16T03:09:21.000Z</time>
      </trkpt>
      <trkpt lat="22.718627" lon="110.139526">
        <ele>89.579023</ele>
        <time>2026-08-16T03:09:22.000Z</time>
      </trkpt>
      <trkpt lat="22.718655" lon="110.139549">
        <ele>89.595959</ele>
        <time>2026-08-16T03:09:23.000Z</time>
      </trkpt>
      <trkpt lat="22.718685" lon="110.139571">
        <ele>89.613420</ele>
        <time>2026-08-16T03:09:24.000Z</time>
      </trkpt>
      <trkpt lat="22.718721" lon="110.139601">
        <ele>89.635311</ele>
        <time>2026-08-16T03:09:25.000Z</time>
      </trkpt>
      <trkpt lat="22.718760" lon="110.139633">
        <ele>89.658890</ele>
        <time>2026-08-16T03:09:26.000Z</time>
      </trkpt>
      <trkpt lat="22.718798" lon="110.139662">
        <ele>89.681294</ele>
        <time>2026-08-16T03:09:27.000Z</time>
      </trkpt>
      <trkpt lat="22.718832" lon="110.139692">
        <ele>89.702428</ele>
        <time>2026-08-16T03:09:28.000Z</time>
      </trkpt>
      <trkpt lat="22.718867" lon="110.139722">
        <ele>89.723939</ele>
        <time>2026-08-16T03:09:29.000Z</time>
      </trkpt>
      <trkpt lat="22.718899" lon="110.139748">
        <ele>89.743218</ele>
        <time>2026-08-16T03:09:30.000Z</time>
      </trkpt>
      <trkpt lat="22.718931" lon="110.139773">
        <ele>89.762233</ele>
        <time>2026-08-16T03:09:31.000Z</time>
      </trkpt>
      <trkpt lat="22.718965" lon="110.139797">
        <ele>89.781793</ele>
        <time>2026-08-16T03:09:32.000Z</time>
      </trkpt>
      <trkpt lat="22.718999" lon="110.139823">
        <ele>89.790156</ele>
        <time>2026-08-16T03:09:33.000Z</time>
      </trkpt>
      <trkpt lat="22.719035" lon="110.139849">
        <ele>89.773123</ele>
        <time>2026-08-16T03:09:34.000Z</time>
      </trkpt>
      <trkpt lat="22.719072" lon="110.139875">
        <ele>89.755760</ele>
        <time>2026-08-16T03:09:35.000Z</time>
      </trkpt>
      <trkpt lat="22.719111" lon="110.139901">
        <ele>89.737731</ele>
        <time>2026-08-16T03:09:36.000Z</time>
      </trkpt>
      <trkpt lat="22.719150" lon="110.139929">
        <ele>89.719311</ele>
        <time>2026-08-16T03:09:37.000Z</time>
      </trkpt>
      <trkpt lat="22.719190" lon="110.139958">
        <ele>89.700362</ele>
        <time>2026-08-16T03:09:38.000Z</time>
      </trkpt>
      <trkpt lat="22.719232" lon="110.139988">
        <ele>89.680557</ele>
        <time>2026-08-16T03:09:39.000Z</time>
      </trkpt>
      <trkpt lat="22.719277" lon="110.140018">
        <ele>89.659754</ele>
        <time>2026-08-16T03:09:40.000Z</time>
      </trkpt>
      <trkpt lat="22.719320" lon="110.140049">
        <ele>89.639419</ele>
        <time>2026-08-16T03:09:41.000Z</time>
      </trkpt>
      <trkpt lat="22.719364" lon="110.140083">
        <ele>89.618142</ele>
        <time>2026-08-16T03:09:42.000Z</time>
      </trkpt>
      <trkpt lat="22.719406" lon="110.140119">
        <ele>89.597059</ele>
        <time>2026-08-16T03:09:43.000Z</time>
      </trkpt>
      <trkpt lat="22.719447" lon="110.140153">
        <ele>89.576732</ele>
        <time>2026-08-16T03:09:44.000Z</time>
      </trkpt>
      <trkpt lat="22.719488" lon="110.140185">
        <ele>89.556838</ele>
        <time>2026-08-16T03:09:45.000Z</time>
      </trkpt>
      <trkpt lat="22.719527" lon="110.140214">
        <ele>89.538216</ele>
        <time>2026-08-16T03:09:46.000Z</time>
      </trkpt>
      <trkpt lat="22.719569" lon="110.140243">
        <ele>89.518607</ele>
        <time>2026-08-16T03:09:47.000Z</time>
      </trkpt>
      <trkpt lat="22.719610" lon="110.140273">
        <ele>89.499129</ele>
        <time>2026-08-16T03:09:48.000Z</time>
      </trkpt>
      <trkpt lat="22.719649" lon="110.140304">
        <ele>89.480086</ele>
        <time>2026-08-16T03:09:49.000Z</time>
      </trkpt>
      <trkpt lat="22.719689" lon="110.140335">
        <ele>89.460724</ele>
        <time>2026-08-16T03:09:50.000Z</time>
      </trkpt>
      <trkpt lat="22.719731" lon="110.140368">
        <ele>89.440298</ele>
        <time>2026-08-16T03:09:51.000Z</time>
      </trkpt>
      <trkpt lat="22.719774" lon="110.140399">
        <ele>89.419964</ele>
        <time>2026-08-16T03:09:52.000Z</time>
      </trkpt>
      <trkpt lat="22.719816" lon="110.140433">
        <ele>89.399323</ele>
        <time>2026-08-16T03:09:53.000Z</time>
      </trkpt>
      <trkpt lat="22.719854" lon="110.140467">
        <ele>89.379921</ele>
        <time>2026-08-16T03:09:54.000Z</time>
      </trkpt>
      <trkpt lat="22.719896" lon="110.140500">
        <ele>89.359496</ele>
        <time>2026-08-16T03:09:55.000Z</time>
      </trkpt>
      <trkpt lat="22.719938" lon="110.140533">
        <ele>89.339070</ele>
        <time>2026-08-16T03:09:56.000Z</time>
      </trkpt>
      <trkpt lat="22.719982" lon="110.140563">
        <ele>89.318602</ele>
        <time>2026-08-16T03:09:57.000Z</time>
      </trkpt>
      <trkpt lat="22.720025" lon="110.140593">
        <ele>89.298466</ele>
        <time>2026-08-16T03:09:58.000Z</time>
      </trkpt>
      <trkpt lat="22.720065" lon="110.140625">
        <ele>89.278891</ele>
        <time>2026-08-16T03:09:59.000Z</time>
      </trkpt>
      <trkpt lat="22.720108" lon="110.140658">
        <ele>89.258145</ele>
        <time>2026-08-16T03:10:00.000Z</time>
      </trkpt>
      <trkpt lat="22.720151" lon="110.140693">
        <ele>89.236971</ele>
        <time>2026-08-16T03:10:01.000Z</time>
      </trkpt>
      <trkpt lat="22.720193" lon="110.140727">
        <ele>89.216330</ele>
        <time>2026-08-16T03:10:02.000Z</time>
      </trkpt>
      <trkpt lat="22.720237" lon="110.140758">
        <ele>89.195667</ele>
        <time>2026-08-16T03:10:03.000Z</time>
      </trkpt>
      <trkpt lat="22.720282" lon="110.140790">
        <ele>89.174475</ele>
        <time>2026-08-16T03:10:04.000Z</time>
      </trkpt>
      <trkpt lat="22.720327" lon="110.140821">
        <ele>89.153480</ele>
        <time>2026-08-16T03:10:05.000Z</time>
      </trkpt>
      <trkpt lat="22.720375" lon="110.140851">
        <ele>89.131662</ele>
        <time>2026-08-16T03:10:06.000Z</time>
      </trkpt>
      <trkpt lat="22.720423" lon="110.140883">
        <ele>89.109473</ele>
        <time>2026-08-16T03:10:07.000Z</time>
      </trkpt>
      <trkpt lat="22.720468" lon="110.140914">
        <ele>89.088478</ele>
        <time>2026-08-16T03:10:08.000Z</time>
      </trkpt>
      <trkpt lat="22.720514" lon="110.140945">
        <ele>89.124659</ele>
        <time>2026-08-16T03:10:09.000Z</time>
      </trkpt>
      <trkpt lat="22.720557" lon="110.140978">
        <ele>89.163583</ele>
        <time>2026-08-16T03:10:10.000Z</time>
      </trkpt>
      <trkpt lat="22.720600" lon="110.141012">
        <ele>89.202905</ele>
        <time>2026-08-16T03:10:11.000Z</time>
      </trkpt>
      <trkpt lat="22.720643" lon="110.141047">
        <ele>89.242632</ele>
        <time>2026-08-16T03:10:12.000Z</time>
      </trkpt>
      <trkpt lat="22.720681" lon="110.141085">
        <ele>89.280828</ele>
        <time>2026-08-16T03:10:13.000Z</time>
      </trkpt>
      <trkpt lat="22.720719" lon="110.141120">
        <ele>89.317668</ele>
        <time>2026-08-16T03:10:14.000Z</time>
      </trkpt>
      <trkpt lat="22.720762" lon="110.141155">
        <ele>89.357395</ele>
        <time>2026-08-16T03:10:15.000Z</time>
      </trkpt>
      <trkpt lat="22.720805" lon="110.141186">
        <ele>89.395548</ele>
        <time>2026-08-16T03:10:16.000Z</time>
      </trkpt>
      <trkpt lat="22.720849" lon="110.141218">
        <ele>89.434694</ele>
        <time>2026-08-16T03:10:17.000Z</time>
      </trkpt>
      <trkpt lat="22.720892" lon="110.141246">
        <ele>89.471754</ele>
        <time>2026-08-16T03:10:18.000Z</time>
      </trkpt>
      <trkpt lat="22.720935" lon="110.141276">
        <ele>89.509534</ele>
        <time>2026-08-16T03:10:19.000Z</time>
      </trkpt>
      <trkpt lat="22.720978" lon="110.141305">
        <ele>89.546949</ele>
        <time>2026-08-16T03:10:20.000Z</time>
      </trkpt>
      <trkpt lat="22.721023" lon="110.141332">
        <ele>89.584949</ele>
        <time>2026-08-16T03:10:21.000Z</time>
      </trkpt>
      <trkpt lat="22.721066" lon="110.141356">
        <ele>89.620682</ele>
        <time>2026-08-16T03:10:22.000Z</time>
      </trkpt>
      <trkpt lat="22.721111" lon="110.141382">
        <ele>89.658356</ele>
        <time>2026-08-16T03:10:23.000Z</time>
      </trkpt>
      <trkpt lat="22.721156" lon="110.141407">
        <ele>89.695715</ele>
        <time>2026-08-16T03:10:24.000Z</time>
      </trkpt>
      <trkpt lat="22.721200" lon="110.141431">
        <ele>89.732106</ele>
        <time>2026-08-16T03:10:25.000Z</time>
      </trkpt>
      <trkpt lat="22.721245" lon="110.141452">
        <ele>89.768303</ele>
        <time>2026-08-16T03:10:26.000Z</time>
      </trkpt>
      <trkpt lat="22.721289" lon="110.141475">
        <ele>89.804393</ele>
        <time>2026-08-16T03:10:27.000Z</time>
      </trkpt>
      <trkpt lat="22.721330" lon="110.141498">
        <ele>89.838500</ele>
        <time>2026-08-16T03:10:28.000Z</time>
      </trkpt>
      <trkpt lat="22.721372" lon="110.141520">
        <ele>89.872964</ele>
        <time>2026-08-16T03:10:29.000Z</time>
      </trkpt>
      <trkpt lat="22.721417" lon="110.141541">
        <ele>89.909160</ele>
        <time>2026-08-16T03:10:30.000Z</time>
      </trkpt>
      <trkpt lat="22.721461" lon="110.141561">
        <ele>89.944411</ele>
        <time>2026-08-16T03:10:31.000Z</time>
      </trkpt>
      <trkpt lat="22.721503" lon="110.141581">
        <ele>89.978303</ele>
        <time>2026-08-16T03:10:32.000Z</time>
      </trkpt>
      <trkpt lat="22.721542" lon="110.141603">
        <ele>90.010785</ele>
        <time>2026-08-16T03:10:33.000Z</time>
      </trkpt>
      <trkpt lat="22.721585" lon="110.141624">
        <ele>90.045629</ele>
        <time>2026-08-16T03:10:34.000Z</time>
      </trkpt>
      <trkpt lat="22.721626" lon="110.141645">
        <ele>90.079132</ele>
        <time>2026-08-16T03:10:35.000Z</time>
      </trkpt>
      <trkpt lat="22.721666" lon="110.141667">
        <ele>90.112271</ele>
        <time>2026-08-16T03:10:36.000Z</time>
      </trkpt>
      <trkpt lat="22.721708" lon="110.141687">
        <ele>90.146163</ele>
        <time>2026-08-16T03:10:37.000Z</time>
      </trkpt>
      <trkpt lat="22.721751" lon="110.141707">
        <ele>90.180734</ele>
        <time>2026-08-16T03:10:38.000Z</time>
      </trkpt>
      <trkpt lat="22.721794" lon="110.141724">
        <ele>90.214550</ele>
        <time>2026-08-16T03:10:39.000Z</time>
      </trkpt>
      <trkpt lat="22.721840" lon="110.141745">
        <ele>90.251427</ele>
        <time>2026-08-16T03:10:40.000Z</time>
      </trkpt>
      <trkpt lat="22.721879" lon="110.141766">
        <ele>90.283599</ele>
        <time>2026-08-16T03:10:41.000Z</time>
      </trkpt>
      <trkpt lat="22.721923" lon="110.141791">
        <ele>90.320302</ele>
        <time>2026-08-16T03:10:42.000Z</time>
      </trkpt>
      <trkpt lat="22.721965" lon="110.141813">
        <ele>90.354765</ele>
        <time>2026-08-16T03:10:43.000Z</time>
      </trkpt>
      <trkpt lat="22.722007" lon="110.141839">
        <ele>90.390499</ele>
        <time>2026-08-16T03:10:44.000Z</time>
      </trkpt>
      <trkpt lat="22.722045" lon="110.141866">
        <ele>90.435566</ele>
        <time>2026-08-16T03:10:45.000Z</time>
      </trkpt>
      <trkpt lat="22.722082" lon="110.141897">
        <ele>90.519621</ele>
        <time>2026-08-16T03:10:46.000Z</time>
      </trkpt>
      <trkpt lat="22.722113" lon="110.141925">
        <ele>90.592150</ele>
        <time>2026-08-16T03:10:47.000Z</time>
      </trkpt>
      <trkpt lat="22.722145" lon="110.141957">
        <ele>90.670404</ele>
        <time>2026-08-16T03:10:48.000Z</time>
      </trkpt>
      <trkpt lat="22.722176" lon="110.141989">
        <ele>90.747347</ele>
        <time>2026-08-16T03:10:49.000Z</time>
      </trkpt>
      <trkpt lat="22.722208" lon="110.142027">
        <ele>90.832660</ele>
        <time>2026-08-16T03:10:50.000Z</time>
      </trkpt>
      <trkpt lat="22.722238" lon="110.142067">
        <ele>90.918138</ele>
        <time>2026-08-16T03:10:51.000Z</time>
      </trkpt>
      <trkpt lat="22.722266" lon="110.142118">
        <ele>91.016543</ele>
        <time>2026-08-16T03:10:52.000Z</time>
      </trkpt>
      <trkpt lat="22.722292" lon="110.142164">
        <ele>91.105993</ele>
        <time>2026-08-16T03:10:53.000Z</time>
      </trkpt>
      <trkpt lat="22.722318" lon="110.142206">
        <ele>91.189860</ele>
        <time>2026-08-16T03:10:54.000Z</time>
      </trkpt>
      <trkpt lat="22.722347" lon="110.142250">
        <ele>91.279523</ele>
        <time>2026-08-16T03:10:55.000Z</time>
      </trkpt>
      <trkpt lat="22.722364" lon="110.142300">
        <ele>91.367877</ele>
        <time>2026-08-16T03:10:56.000Z</time>
      </trkpt>
      <trkpt lat="22.722395" lon="110.142342">
        <ele>91.457065</ele>
        <time>2026-08-16T03:10:57.000Z</time>
      </trkpt>
      <trkpt lat="22.722431" lon="110.142382">
        <ele>91.549726</ele>
        <time>2026-08-16T03:10:58.000Z</time>
      </trkpt>
      <trkpt lat="22.722462" lon="110.142424">
        <ele>91.638914</ele>
        <time>2026-08-16T03:10:59.000Z</time>
      </trkpt>
      <trkpt lat="22.722496" lon="110.142466">
        <ele>91.731567</ele>
        <time>2026-08-16T03:11:00.000Z</time>
      </trkpt>
      <trkpt lat="22.722529" lon="110.142506">
        <ele>91.820545</ele>
        <time>2026-08-16T03:11:01.000Z</time>
      </trkpt>
      <trkpt lat="22.722558" lon="110.142545">
        <ele>91.903604</ele>
        <time>2026-08-16T03:11:02.000Z</time>
      </trkpt>
      <trkpt lat="22.722587" lon="110.142585">
        <ele>91.987959</ele>
        <time>2026-08-16T03:11:03.000Z</time>
      </trkpt>
      <trkpt lat="22.722616" lon="110.142625">
        <ele>92.072315</ele>
        <time>2026-08-16T03:11:04.000Z</time>
      </trkpt>
      <trkpt lat="22.722645" lon="110.142669">
        <ele>92.161978</ele>
        <time>2026-08-16T03:11:05.000Z</time>
      </trkpt>
      <trkpt lat="22.722677" lon="110.142709">
        <ele>92.249769</ele>
        <time>2026-08-16T03:11:06.000Z</time>
      </trkpt>
      <trkpt lat="22.722704" lon="110.142749">
        <ele>92.331951</ele>
        <time>2026-08-16T03:11:07.000Z</time>
      </trkpt>
      <trkpt lat="22.722726" lon="110.142790">
        <ele>92.410596</ele>
        <time>2026-08-16T03:11:08.000Z</time>
      </trkpt>
      <trkpt lat="22.722744" lon="110.142834">
        <ele>92.490403</ele>
        <time>2026-08-16T03:11:09.000Z</time>
      </trkpt>
      <trkpt lat="22.722771" lon="110.142875">
        <ele>92.573929</ele>
        <time>2026-08-16T03:11:10.000Z</time>
      </trkpt>
      <trkpt lat="22.722793" lon="110.142915">
        <ele>92.651145</ele>
        <time>2026-08-16T03:11:11.000Z</time>
      </trkpt>
      <trkpt lat="22.722819" lon="110.142953">
        <ele>92.729592</ele>
        <time>2026-08-16T03:11:12.000Z</time>
      </trkpt>
      <trkpt lat="22.722839" lon="110.142992">
        <ele>92.803576</ele>
        <time>2026-08-16T03:11:13.000Z</time>
      </trkpt>
      <trkpt lat="22.722864" lon="110.143024">
        <ele>92.873107</ele>
        <time>2026-08-16T03:11:14.000Z</time>
      </trkpt>
      <trkpt lat="22.722894" lon="110.143060">
        <ele>92.953548</ele>
        <time>2026-08-16T03:11:15.000Z</time>
      </trkpt>
      <trkpt lat="22.722929" lon="110.143095">
        <ele>93.039139</ele>
        <time>2026-08-16T03:11:16.000Z</time>
      </trkpt>
      <trkpt lat="22.722956" lon="110.143129">
        <ele>93.113525</ele>
        <time>2026-08-16T03:11:17.000Z</time>
      </trkpt>
      <trkpt lat="22.722985" lon="110.143163">
        <ele>93.190306</ele>
        <time>2026-08-16T03:11:18.000Z</time>
      </trkpt>
      <trkpt lat="22.723011" lon="110.143193">
        <ele>93.258558</ele>
        <time>2026-08-16T03:11:19.000Z</time>
      </trkpt>
      <trkpt lat="22.723037" lon="110.143225">
        <ele>93.329264</ele>
        <time>2026-08-16T03:11:20.000Z</time>
      </trkpt>
      <trkpt lat="22.723063" lon="110.143257">
        <ele>93.399969</ele>
        <time>2026-08-16T03:11:21.000Z</time>
      </trkpt>
      <trkpt lat="22.723086" lon="110.143289">
        <ele>93.467232</ele>
        <time>2026-08-16T03:11:22.000Z</time>
      </trkpt>
      <trkpt lat="22.723104" lon="110.143325">
        <ele>93.535126</ele>
        <time>2026-08-16T03:11:23.000Z</time>
      </trkpt>
      <trkpt lat="22.723122" lon="110.143360">
        <ele>93.601568</ele>
        <time>2026-08-16T03:11:24.000Z</time>
      </trkpt>
      <trkpt lat="22.723146" lon="110.143390">
        <ele>93.669799</ele>
        <time>2026-08-16T03:11:25.000Z</time>
      </trkpt>
      <trkpt lat="22.723169" lon="110.143423">
        <ele>93.747361</ele>
        <time>2026-08-16T03:11:26.000Z</time>
      </trkpt>
      <trkpt lat="22.723196" lon="110.143454">
        <ele>93.827314</ele>
        <time>2026-08-16T03:11:27.000Z</time>
      </trkpt>
      <trkpt lat="22.723223" lon="110.143486">
        <ele>93.908640</ele>
        <time>2026-08-16T03:11:28.000Z</time>
      </trkpt>
      <trkpt lat="22.723249" lon="110.143520">
        <ele>93.991459</ele>
        <time>2026-08-16T03:11:29.000Z</time>
      </trkpt>
      <trkpt lat="22.723273" lon="110.143551">
        <ele>94.067354</ele>
        <time>2026-08-16T03:11:30.000Z</time>
      </trkpt>
      <trkpt lat="22.723298" lon="110.143583">
        <ele>94.145993</ele>
        <time>2026-08-16T03:11:31.000Z</time>
      </trkpt>
      <trkpt lat="22.723324" lon="110.143614">
        <ele>94.224563</ele>
        <time>2026-08-16T03:11:32.000Z</time>
      </trkpt>
      <trkpt lat="22.723352" lon="110.143642">
        <ele>94.302006</ele>
        <time>2026-08-16T03:11:33.000Z</time>
      </trkpt>
      <trkpt lat="22.723380" lon="110.143674">
        <ele>94.384718</ele>
        <time>2026-08-16T03:11:34.000Z</time>
      </trkpt>
      <trkpt lat="22.723409" lon="110.143703">
        <ele>94.464926</ele>
        <time>2026-08-16T03:11:35.000Z</time>
      </trkpt>
      <trkpt lat="22.723433" lon="110.143729">
        <ele>94.533903</ele>
        <time>2026-08-16T03:11:36.000Z</time>
      </trkpt>
      <trkpt lat="22.723459" lon="110.143755">
        <ele>94.605813</ele>
        <time>2026-08-16T03:11:37.000Z</time>
      </trkpt>
      <trkpt lat="22.723486" lon="110.143778">
        <ele>94.675622</ele>
        <time>2026-08-16T03:11:38.000Z</time>
      </trkpt>
      <trkpt lat="22.723514" lon="110.143801">
        <ele>94.747041</ele>
        <time>2026-08-16T03:11:39.000Z</time>
      </trkpt>
      <trkpt lat="22.723543" lon="110.143823">
        <ele>94.818999</ele>
        <time>2026-08-16T03:11:40.000Z</time>
      </trkpt>
      <trkpt lat="22.723568" lon="110.143840">
        <ele>94.878994</ele>
        <time>2026-08-16T03:11:41.000Z</time>
      </trkpt>
      <trkpt lat="22.723594" lon="110.143858">
        <ele>94.941711</ele>
        <time>2026-08-16T03:11:42.000Z</time>
      </trkpt>
      <trkpt lat="22.723623" lon="110.143878">
        <ele>95.011586</ele>
        <time>2026-08-16T03:11:43.000Z</time>
      </trkpt>
      <trkpt lat="22.723651" lon="110.143896">
        <ele>95.077766</ele>
        <time>2026-08-16T03:11:44.000Z</time>
      </trkpt>
      <trkpt lat="22.723681" lon="110.143914">
        <ele>95.147473</ele>
        <time>2026-08-16T03:11:45.000Z</time>
      </trkpt>
      <trkpt lat="22.723710" lon="110.143928">
        <ele>95.212012</ele>
        <time>2026-08-16T03:11:46.000Z</time>
      </trkpt>
      <trkpt lat="22.723743" lon="110.143938">
        <ele>95.281673</ele>
        <time>2026-08-16T03:11:47.000Z</time>
      </trkpt>
      <trkpt lat="22.723773" lon="110.143949">
        <ele>95.346057</ele>
        <time>2026-08-16T03:11:48.000Z</time>
      </trkpt>
      <trkpt lat="22.723802" lon="110.143958">
        <ele>95.407383</ele>
        <time>2026-08-16T03:11:49.000Z</time>
      </trkpt>
      <trkpt lat="22.723834" lon="110.143966">
        <ele>95.474147</ele>
        <time>2026-08-16T03:11:50.000Z</time>
      </trkpt>
      <trkpt lat="22.723867" lon="110.143978">
        <ele>95.544910</ele>
        <time>2026-08-16T03:11:51.000Z</time>
      </trkpt>
      <trkpt lat="22.723898" lon="110.143989">
        <ele>95.611223</ele>
        <time>2026-08-16T03:11:52.000Z</time>
      </trkpt>
      <trkpt lat="22.723932" lon="110.143999">
        <ele>95.682844</ele>
        <time>2026-08-16T03:11:53.000Z</time>
      </trkpt>
      <trkpt lat="22.723963" lon="110.144013">
        <ele>95.751117</ele>
        <time>2026-08-16T03:11:54.000Z</time>
      </trkpt>
      <trkpt lat="22.723997" lon="110.144027">
        <ele>95.825057</ele>
        <time>2026-08-16T03:11:55.000Z</time>
      </trkpt>
      <trkpt lat="22.724030" lon="110.144039">
        <ele>95.895820</ele>
        <time>2026-08-16T03:11:56.000Z</time>
      </trkpt>
      <trkpt lat="22.724067" lon="110.144048">
        <ele>95.972912</ele>
        <time>2026-08-16T03:11:57.000Z</time>
      </trkpt>
      <trkpt lat="22.724103" lon="110.144061">
        <ele>96.050054</ele>
        <time>2026-08-16T03:11:58.000Z</time>
      </trkpt>
      <trkpt lat="22.724137" lon="110.144073">
        <ele>96.122747</ele>
        <time>2026-08-16T03:11:59.000Z</time>
      </trkpt>
      <trkpt lat="22.724172" lon="110.144085">
        <ele>96.197376</ele>
        <time>2026-08-16T03:12:00.000Z</time>
      </trkpt>
      <trkpt lat="22.724206" lon="110.144097">
        <ele>96.270070</ele>
        <time>2026-08-16T03:12:01.000Z</time>
      </trkpt>
      <trkpt lat="22.724241" lon="110.144107">
        <ele>96.343655</ele>
        <time>2026-08-16T03:12:02.000Z</time>
      </trkpt>
      <trkpt lat="22.724277" lon="110.144117">
        <ele>96.419208</ele>
        <time>2026-08-16T03:12:03.000Z</time>
      </trkpt>
      <trkpt lat="22.724314" lon="110.144126">
        <ele>96.496299</ele>
        <time>2026-08-16T03:12:04.000Z</time>
      </trkpt>
      <trkpt lat="22.724352" lon="110.144133">
        <ele>96.574661</ele>
        <time>2026-08-16T03:12:05.000Z</time>
      </trkpt>
      <trkpt lat="22.724389" lon="110.144138">
        <ele>96.650465</ele>
        <time>2026-08-16T03:12:06.000Z</time>
      </trkpt>
      <trkpt lat="22.724429" lon="110.144146">
        <ele>96.733158</ele>
        <time>2026-08-16T03:12:07.000Z</time>
      </trkpt>
      <trkpt lat="22.724470" lon="110.144149">
        <ele>96.816702</ele>
        <time>2026-08-16T03:12:08.000Z</time>
      </trkpt>
      <trkpt lat="22.724506" lon="110.144151">
        <ele>96.889986</ele>
        <time>2026-08-16T03:12:09.000Z</time>
      </trkpt>
      <trkpt lat="22.724544" lon="110.144155">
        <ele>96.967604</ele>
        <time>2026-08-16T03:12:10.000Z</time>
      </trkpt>
      <trkpt lat="22.724583" lon="110.144159">
        <ele>97.047246</ele>
        <time>2026-08-16T03:12:11.000Z</time>
      </trkpt>
      <trkpt lat="22.724621" lon="110.144160">
        <ele>97.124524</ele>
        <time>2026-08-16T03:12:12.000Z</time>
      </trkpt>
      <trkpt lat="22.724660" lon="110.144163">
        <ele>97.204011</ele>
        <time>2026-08-16T03:12:13.000Z</time>
      </trkpt>
      <trkpt lat="22.724697" lon="110.144163">
        <ele>97.279233</ele>
        <time>2026-08-16T03:12:14.000Z</time>
      </trkpt>
      <trkpt lat="22.724735" lon="110.144162">
        <ele>97.249021</ele>
        <time>2026-08-16T03:12:15.000Z</time>
      </trkpt>
      <trkpt lat="22.724774" lon="110.144161">
        <ele>97.160045</ele>
        <time>2026-08-16T03:12:16.000Z</time>
      </trkpt>
      <trkpt lat="22.724815" lon="110.144161">
        <ele>97.066533</ele>
        <time>2026-08-16T03:12:17.000Z</time>
      </trkpt>
      <trkpt lat="22.724860" lon="110.144156">
        <ele>96.963360</ele>
        <time>2026-08-16T03:12:18.000Z</time>
      </trkpt>
      <trkpt lat="22.724904" lon="110.144150">
        <ele>96.862215</ele>
        <time>2026-08-16T03:12:19.000Z</time>
      </trkpt>
      <trkpt lat="22.724946" lon="110.144145">
        <ele>96.765846</ele>
        <time>2026-08-16T03:12:20.000Z</time>
      </trkpt>
      <trkpt lat="22.724990" lon="110.144143">
        <ele>96.665403</ele>
        <time>2026-08-16T03:12:21.000Z</time>
      </trkpt>
      <trkpt lat="22.725035" lon="110.144138">
        <ele>96.562230</ele>
        <time>2026-08-16T03:12:22.000Z</time>
      </trkpt>
      <trkpt lat="22.725080" lon="110.144135">
        <ele>96.459401</ele>
        <time>2026-08-16T03:12:23.000Z</time>
      </trkpt>
      <trkpt lat="22.725128" lon="110.144133">
        <ele>96.349842</ele>
        <time>2026-08-16T03:12:24.000Z</time>
      </trkpt>
      <trkpt lat="22.725178" lon="110.144132">
        <ele>96.235784</ele>
        <time>2026-08-16T03:12:25.000Z</time>
      </trkpt>
      <trkpt lat="22.725229" lon="110.144129">
        <ele>96.119292</ele>
        <time>2026-08-16T03:12:26.000Z</time>
      </trkpt>
      <trkpt lat="22.725279" lon="110.144128">
        <ele>96.005234</ele>
        <time>2026-08-16T03:12:27.000Z</time>
      </trkpt>
      <trkpt lat="22.725328" lon="110.144130">
        <ele>95.893396</ele>
        <time>2026-08-16T03:12:28.000Z</time>
      </trkpt>
      <trkpt lat="22.725381" lon="110.144130">
        <ele>95.772514</ele>
        <time>2026-08-16T03:12:29.000Z</time>
      </trkpt>
      <trkpt lat="22.725437" lon="110.144127">
        <ele>95.644634</ele>
        <time>2026-08-16T03:12:30.000Z</time>
      </trkpt>
      <trkpt lat="22.725498" lon="110.144124">
        <ele>95.505363</ele>
        <time>2026-08-16T03:12:31.000Z</time>
      </trkpt>
      <trkpt lat="22.725554" lon="110.144123">
        <ele>95.377622</ele>
        <time>2026-08-16T03:12:32.000Z</time>
      </trkpt>
      <trkpt lat="22.725607" lon="110.144123">
        <ele>95.256740</ele>
        <time>2026-08-16T03:12:33.000Z</time>
      </trkpt>
      <trkpt lat="22.725662" lon="110.144119">
        <ele>95.131015</ele>
        <time>2026-08-16T03:12:34.000Z</time>
      </trkpt>
      <trkpt lat="22.725719" lon="110.144114">
        <ele>95.000585</ele>
        <time>2026-08-16T03:12:35.000Z</time>
      </trkpt>
      <trkpt lat="22.725778" lon="110.144108">
        <ele>94.865428</ele>
        <time>2026-08-16T03:12:36.000Z</time>
      </trkpt>
      <trkpt lat="22.725833" lon="110.144105">
        <ele>94.739826</ele>
        <time>2026-08-16T03:12:37.000Z</time>
      </trkpt>
      <trkpt lat="22.725889" lon="110.144101">
        <ele>94.611825</ele>
        <time>2026-08-16T03:12:38.000Z</time>
      </trkpt>
      <trkpt lat="22.725943" lon="110.144104">
        <ele>94.488501</ele>
        <time>2026-08-16T03:12:39.000Z</time>
      </trkpt>
      <trkpt lat="22.725997" lon="110.144108">
        <ele>94.365052</ele>
        <time>2026-08-16T03:12:40.000Z</time>
      </trkpt>
      <trkpt lat="22.726059" lon="110.144109">
        <ele>94.223627</ele>
        <time>2026-08-16T03:12:41.000Z</time>
      </trkpt>
      <trkpt lat="22.726122" lon="110.144110">
        <ele>94.079922</ele>
        <time>2026-08-16T03:12:42.000Z</time>
      </trkpt>
      <trkpt lat="22.726185" lon="110.144108">
        <ele>93.936171</ele>
        <time>2026-08-16T03:12:43.000Z</time>
      </trkpt>
      <trkpt lat="22.726251" lon="110.144114">
        <ele>93.785111</ele>
        <time>2026-08-16T03:12:44.000Z</time>
      </trkpt>
      <trkpt lat="22.726315" lon="110.144115">
        <ele>93.639125</ele>
        <time>2026-08-16T03:12:45.000Z</time>
      </trkpt>
      <trkpt lat="22.726381" lon="110.144117">
        <ele>93.488535</ele>
        <time>2026-08-16T03:12:46.000Z</time>
      </trkpt>
      <trkpt lat="22.726448" lon="110.144118">
        <ele>93.335707</ele>
        <time>2026-08-16T03:12:47.000Z</time>
      </trkpt>
      <trkpt lat="22.726519" lon="110.144126">
        <ele>93.206790</ele>
        <time>2026-08-16T03:12:48.000Z</time>
      </trkpt>
      <trkpt lat="22.726586" lon="110.144129">
        <ele>93.223061</ele>
        <time>2026-08-16T03:12:49.000Z</time>
      </trkpt>
      <trkpt lat="22.726652" lon="110.144139">
        <ele>93.239231</ele>
        <time>2026-08-16T03:12:50.000Z</time>
      </trkpt>
      <trkpt lat="22.726717" lon="110.144157">
        <ele>93.255510</ele>
        <time>2026-08-16T03:12:51.000Z</time>
      </trkpt>
      <trkpt lat="22.726776" lon="110.144193">
        <ele>93.271938</ele>
        <time>2026-08-16T03:12:52.000Z</time>
      </trkpt>
      <trkpt lat="22.726836" lon="110.144233">
        <ele>93.289029</ele>
        <time>2026-08-16T03:12:53.000Z</time>
      </trkpt>
      <trkpt lat="22.726894" lon="110.144273">
        <ele>93.305709</ele>
        <time>2026-08-16T03:12:54.000Z</time>
      </trkpt>
      <trkpt lat="22.726946" lon="110.144314">
        <ele>93.321311</ele>
        <time>2026-08-16T03:12:55.000Z</time>
      </trkpt>
      <trkpt lat="22.726996" lon="110.144359">
        <ele>93.337079</ele>
        <time>2026-08-16T03:12:56.000Z</time>
      </trkpt>
      <trkpt lat="22.727049" lon="110.144400">
        <ele>93.352877</ele>
        <time>2026-08-16T03:12:57.000Z</time>
      </trkpt>
      <trkpt lat="22.727103" lon="110.144443">
        <ele>93.369135</ele>
        <time>2026-08-16T03:12:58.000Z</time>
      </trkpt>
      <trkpt lat="22.727157" lon="110.144485">
        <ele>93.385261</ele>
        <time>2026-08-16T03:12:59.000Z</time>
      </trkpt>
      <trkpt lat="22.727209" lon="110.144526">
        <ele>93.400863</ele>
        <time>2026-08-16T03:13:00.000Z</time>
      </trkpt>
      <trkpt lat="22.727261" lon="110.144566">
        <ele>93.416334</ele>
        <time>2026-08-16T03:13:01.000Z</time>
      </trkpt>
      <trkpt lat="22.727302" lon="110.144608">
        <ele>93.430021</ele>
        <time>2026-08-16T03:13:02.000Z</time>
      </trkpt>
      <trkpt lat="22.727343" lon="110.144645">
        <ele>93.442965</ele>
        <time>2026-08-16T03:13:03.000Z</time>
      </trkpt>
      <trkpt lat="22.727390" lon="110.144670">
        <ele>93.455668</ele>
        <time>2026-08-16T03:13:04.000Z</time>
      </trkpt>
      <trkpt lat="22.727430" lon="110.144701">
        <ele>93.467599</ele>
        <time>2026-08-16T03:13:05.000Z</time>
      </trkpt>
      <trkpt lat="22.727470" lon="110.144732">
        <ele>93.479530</ele>
        <time>2026-08-16T03:13:06.000Z</time>
      </trkpt>
      <trkpt lat="22.727508" lon="110.144753">
        <ele>93.489879</ele>
        <time>2026-08-16T03:13:07.000Z</time>
      </trkpt>
      <trkpt lat="22.727541" lon="110.144775">
        <ele>93.499279</ele>
        <time>2026-08-16T03:13:08.000Z</time>
      </trkpt>
      <trkpt lat="22.727572" lon="110.144794">
        <ele>93.507920</ele>
        <time>2026-08-16T03:13:09.000Z</time>
      </trkpt>
      <trkpt lat="22.727602" lon="110.144810">
        <ele>93.516033</ele>
        <time>2026-08-16T03:13:10.000Z</time>
      </trkpt>
      <trkpt lat="22.727637" lon="110.144815">
        <ele>93.524599</ele>
        <time>2026-08-16T03:13:11.000Z</time>
      </trkpt>
      <trkpt lat="22.727674" lon="110.144817">
        <ele>93.533588</ele>
        <time>2026-08-16T03:13:12.000Z</time>
      </trkpt>
      <trkpt lat="22.727713" lon="110.144823">
        <ele>93.543146</ele>
        <time>2026-08-16T03:13:13.000Z</time>
      </trkpt>
      <trkpt lat="22.727758" lon="110.144818">
        <ele>93.554123</ele>
        <time>2026-08-16T03:13:14.000Z</time>
      </trkpt>
      <trkpt lat="22.727806" lon="110.144816">
        <ele>93.565779</ele>
        <time>2026-08-16T03:13:15.000Z</time>
      </trkpt>
      <trkpt lat="22.727850" lon="110.144813">
        <ele>93.576476</ele>
        <time>2026-08-16T03:13:16.000Z</time>
      </trkpt>
      <trkpt lat="22.727891" lon="110.144808">
        <ele>93.586488</ele>
        <time>2026-08-16T03:13:17.000Z</time>
      </trkpt>
      <trkpt lat="22.727934" lon="110.144800">
        <ele>93.597074</ele>
        <time>2026-08-16T03:13:18.000Z</time>
      </trkpt>
      <trkpt lat="22.727972" lon="110.144791">
        <ele>93.606512</ele>
        <time>2026-08-16T03:13:19.000Z</time>
      </trkpt>
      <trkpt lat="22.728009" lon="110.144781">
        <ele>93.615765</ele>
        <time>2026-08-16T03:13:20.000Z</time>
      </trkpt>
      <trkpt lat="22.728045" lon="110.144780">
        <ele>93.624503</ele>
        <time>2026-08-16T03:13:21.000Z</time>
      </trkpt>
      <trkpt lat="22.728087" lon="110.144777">
        <ele>93.634717</ele>
        <time>2026-08-16T03:13:22.000Z</time>
      </trkpt>
      <trkpt lat="22.728124" lon="110.144776">
        <ele>93.655959</ele>
        <time>2026-08-16T03:13:23.000Z</time>
      </trkpt>
      <trkpt lat="22.728164" lon="110.144788">
        <ele>93.699171</ele>
        <time>2026-08-16T03:13:24.000Z</time>
      </trkpt>
      <trkpt lat="22.728205" lon="110.144789">
        <ele>93.741871</ele>
        <time>2026-08-16T03:13:25.000Z</time>
      </trkpt>
      <trkpt lat="22.728247" lon="110.144795">
        <ele>93.785978</ele>
        <time>2026-08-16T03:13:26.000Z</time>
      </trkpt>
      <trkpt lat="22.728278" lon="110.144799">
        <ele>93.818483</ele>
        <time>2026-08-16T03:13:27.000Z</time>
      </trkpt>
      <trkpt lat="22.728314" lon="110.144791">
        <ele>93.856745</ele>
        <time>2026-08-16T03:13:28.000Z</time>
      </trkpt>
      <trkpt lat="22.728351" lon="110.144789">
        <ele>93.895317</ele>
        <time>2026-08-16T03:13:29.000Z</time>
      </trkpt>
      <trkpt lat="22.728404" lon="110.144774">
        <ele>93.952348</ele>
        <time>2026-08-16T03:13:30.000Z</time>
      </trkpt>
      <trkpt lat="22.728433" lon="110.144756">
        <ele>93.987141</ele>
        <time>2026-08-16T03:13:31.000Z</time>
      </trkpt>
      <trkpt lat="22.728451" lon="110.144746">
        <ele>94.008199</ele>
        <time>2026-08-16T03:13:32.000Z</time>
      </trkpt>
      <trkpt lat="22.728454" lon="110.144746">
        <ele>94.011323</ele>
        <time>2026-08-16T03:13:33.000Z</time>
      </trkpt>
      <trkpt lat="22.728450" lon="110.144741">
        <ele>94.017679</ele>
        <time>2026-08-16T03:13:34.000Z</time>
      </trkpt>
      <trkpt lat="22.728446" lon="110.144741">
        <ele>94.021844</ele>
        <time>2026-08-16T03:13:35.000Z</time>
      </trkpt>
      <trkpt lat="22.728445" lon="110.144738">
        <ele>94.024907</ele>
        <time>2026-08-16T03:13:36.000Z</time>
      </trkpt>
      <trkpt lat="22.728552" lon="110.144829">
        <ele>94.166500</ele>
        <time>2026-08-16T03:38:05.000Z</time>
      </trkpt>
      <trkpt lat="22.728579" lon="110.144820">
        <ele>94.195911</ele>
        <time>2026-08-16T03:38:06.000Z</time>
      </trkpt>
      <trkpt lat="22.728597" lon="110.144805">
        <ele>94.219548</ele>
        <time>2026-08-16T03:38:07.000Z</time>
      </trkpt>
      <trkpt lat="22.728620" lon="110.144799">
        <ele>94.244179</ele>
        <time>2026-08-16T03:38:08.000Z</time>
      </trkpt>
      <trkpt lat="22.728635" lon="110.144796">
        <ele>94.260060</ele>
        <time>2026-08-16T03:38:09.000Z</time>
      </trkpt>
      <trkpt lat="22.728651" lon="110.144793">
        <ele>94.276966</ele>
        <time>2026-08-16T03:38:10.000Z</time>
      </trkpt>
      <trkpt lat="22.728661" lon="110.144785">
        <ele>94.289906</ele>
        <time>2026-08-16T03:38:11.000Z</time>
      </trkpt>
      <trkpt lat="22.728671" lon="110.144784">
        <ele>94.300362</ele>
        <time>2026-08-16T03:38:12.000Z</time>
      </trkpt>
      <trkpt lat="22.728679" lon="110.144783">
        <ele>94.308747</ele>
        <time>2026-08-16T03:38:13.000Z</time>
      </trkpt>
      <trkpt lat="22.728725" lon="110.144793">
        <ele>94.357594</ele>
        <time>2026-08-16T03:38:19.000Z</time>
      </trkpt>
      <trkpt lat="22.728747" lon="110.144802">
        <ele>94.382077</ele>
        <time>2026-08-16T03:38:20.000Z</time>
      </trkpt>
      <trkpt lat="22.728773" lon="110.144798">
        <ele>94.409419</ele>
        <time>2026-08-16T03:38:21.000Z</time>
      </trkpt>
      <trkpt lat="22.728800" lon="110.144797">
        <ele>94.437547</ele>
        <time>2026-08-16T03:38:22.000Z</time>
      </trkpt>
      <trkpt lat="22.728832" lon="110.144794">
        <ele>94.470989</ele>
        <time>2026-08-16T03:38:23.000Z</time>
      </trkpt>
      <trkpt lat="22.728864" lon="110.144796">
        <ele>94.504363</ele>
        <time>2026-08-16T03:38:24.000Z</time>
      </trkpt>
      <trkpt lat="22.728897" lon="110.144818">
        <ele>94.544698</ele>
        <time>2026-08-16T03:38:25.000Z</time>
      </trkpt>
      <trkpt lat="22.728937" lon="110.144831">
        <ele>94.588176</ele>
        <time>2026-08-16T03:38:26.000Z</time>
      </trkpt>
      <trkpt lat="22.728969" lon="110.144845">
        <ele>94.624104</ele>
        <time>2026-08-16T03:38:27.000Z</time>
      </trkpt>
      <trkpt lat="22.728999" lon="110.144858">
        <ele>94.657742</ele>
        <time>2026-08-16T03:38:28.000Z</time>
      </trkpt>
      <trkpt lat="22.729023" lon="110.144891">
        <ele>94.698100</ele>
        <time>2026-08-16T03:38:29.000Z</time>
      </trkpt>
      <trkpt lat="22.729048" lon="110.144922">
        <ele>94.737645</ele>
        <time>2026-08-16T03:38:30.000Z</time>
      </trkpt>
      <trkpt lat="22.729073" lon="110.144953">
        <ele>94.777190</ele>
        <time>2026-08-16T03:38:31.000Z</time>
      </trkpt>
      <trkpt lat="22.729098" lon="110.144987">
        <ele>94.818946</ele>
        <time>2026-08-16T03:38:32.000Z</time>
      </trkpt>
      <trkpt lat="22.729128" lon="110.145022">
        <ele>94.864831</ele>
        <time>2026-08-16T03:38:33.000Z</time>
      </trkpt>
      <trkpt lat="22.729155" lon="110.145056">
        <ele>94.907917</ele>
        <time>2026-08-16T03:38:34.000Z</time>
      </trkpt>
      <trkpt lat="22.729185" lon="110.145088">
        <ele>94.951735</ele>
        <time>2026-08-16T03:38:35.000Z</time>
      </trkpt>
      <trkpt lat="22.729215" lon="110.145122">
        <ele>94.996921</ele>
        <time>2026-08-16T03:38:36.000Z</time>
      </trkpt>
      <trkpt lat="22.729239" lon="110.145160">
        <ele>95.041149</ele>
        <time>2026-08-16T03:38:37.000Z</time>
      </trkpt>
      <trkpt lat="22.729263" lon="110.145199">
        <ele>95.086172</ele>
        <time>2026-08-16T03:38:38.000Z</time>
      </trkpt>
      <trkpt lat="22.729282" lon="110.145238">
        <ele>95.128529</ele>
        <time>2026-08-16T03:38:39.000Z</time>
      </trkpt>
      <trkpt lat="22.729304" lon="110.145281">
        <ele>95.175750</ele>
        <time>2026-08-16T03:38:40.000Z</time>
      </trkpt>
      <trkpt lat="22.729325" lon="110.145317">
        <ele>95.216656</ele>
        <time>2026-08-16T03:38:41.000Z</time>
      </trkpt>
      <trkpt lat="22.729358" lon="110.145346">
        <ele>95.260884</ele>
        <time>2026-08-16T03:38:42.000Z</time>
      </trkpt>
      <trkpt lat="22.729395" lon="110.145373">
        <ele>95.307321</ele>
        <time>2026-08-16T03:38:43.000Z</time>
      </trkpt>
      <trkpt lat="22.729427" lon="110.145401">
        <ele>95.350136</ele>
        <time>2026-08-16T03:38:44.000Z</time>
      </trkpt>
      <trkpt lat="22.729458" lon="110.145439">
        <ele>95.398854</ele>
        <time>2026-08-16T03:38:45.000Z</time>
      </trkpt>
      <trkpt lat="22.729488" lon="110.145479">
        <ele>95.448364</ele>
        <time>2026-08-16T03:38:46.000Z</time>
      </trkpt>
      <trkpt lat="22.729519" lon="110.145518">
        <ele>95.497806</ele>
        <time>2026-08-16T03:38:47.000Z</time>
      </trkpt>
      <trkpt lat="22.729552" lon="110.145552">
        <ele>95.441522</ele>
        <time>2026-08-16T03:38:48.000Z</time>
      </trkpt>
      <trkpt lat="22.729584" lon="110.145582">
        <ele>95.345108</ele>
        <time>2026-08-16T03:38:49.000Z</time>
      </trkpt>
      <trkpt lat="22.729612" lon="110.145620">
        <ele>95.242869</ele>
        <time>2026-08-16T03:38:50.000Z</time>
      </trkpt>
      <trkpt lat="22.729643" lon="110.145651">
        <ele>95.146754</ele>
        <time>2026-08-16T03:38:51.000Z</time>
      </trkpt>
      <trkpt lat="22.729675" lon="110.145689">
        <ele>95.038590</ele>
        <time>2026-08-16T03:38:52.000Z</time>
      </trkpt>
      <trkpt lat="22.729706" lon="110.145722">
        <ele>94.939577</ele>
        <time>2026-08-16T03:38:53.000Z</time>
      </trkpt>
      <trkpt lat="22.729740" lon="110.145757">
        <ele>94.832725</ele>
        <time>2026-08-16T03:38:54.000Z</time>
      </trkpt>
      <trkpt lat="22.729776" lon="110.145791">
        <ele>94.723915</ele>
        <time>2026-08-16T03:38:55.000Z</time>
      </trkpt>
      <trkpt lat="22.729812" lon="110.145825">
        <ele>94.615105</ele>
        <time>2026-08-16T03:38:56.000Z</time>
      </trkpt>
      <trkpt lat="22.729845" lon="110.145861">
        <ele>94.508413</ele>
        <time>2026-08-16T03:38:57.000Z</time>
      </trkpt>
      <trkpt lat="22.729883" lon="110.145900">
        <ele>94.389160</ele>
        <time>2026-08-16T03:38:58.000Z</time>
      </trkpt>
      <trkpt lat="22.729920" lon="110.145938">
        <ele>94.273008</ele>
        <time>2026-08-16T03:38:59.000Z</time>
      </trkpt>
      <trkpt lat="22.729961" lon="110.145973">
        <ele>94.154078</ele>
        <time>2026-08-16T03:39:00.000Z</time>
      </trkpt>
      <trkpt lat="22.730000" lon="110.146011">
        <ele>94.034575</ele>
        <time>2026-08-16T03:39:01.000Z</time>
      </trkpt>
      <trkpt lat="22.730038" lon="110.146046">
        <ele>93.920939</ele>
        <time>2026-08-16T03:39:02.000Z</time>
      </trkpt>
      <trkpt lat="22.730078" lon="110.146082">
        <ele>93.802460</ele>
        <time>2026-08-16T03:39:03.000Z</time>
      </trkpt>
      <trkpt lat="22.730114" lon="110.146123">
        <ele>93.683466</ele>
        <time>2026-08-16T03:39:04.000Z</time>
      </trkpt>
      <trkpt lat="22.730146" lon="110.146171">
        <ele>93.558969</ele>
        <time>2026-08-16T03:39:05.000Z</time>
      </trkpt>
      <trkpt lat="22.730172" lon="110.146227">
        <ele>93.427181</ele>
        <time>2026-08-16T03:39:06.000Z</time>
      </trkpt>
      <trkpt lat="22.730201" lon="110.146281">
        <ele>93.295830</ele>
        <time>2026-08-16T03:39:07.000Z</time>
      </trkpt>
      <trkpt lat="22.730222" lon="110.146341">
        <ele>93.160930</ele>
        <time>2026-08-16T03:39:08.000Z</time>
      </trkpt>
      <trkpt lat="22.730247" lon="110.146396">
        <ele>93.032039</ele>
        <time>2026-08-16T03:39:09.000Z</time>
      </trkpt>
      <trkpt lat="22.730258" lon="110.146454">
        <ele>92.907569</ele>
        <time>2026-08-16T03:39:10.000Z</time>
      </trkpt>
      <trkpt lat="22.730272" lon="110.146516">
        <ele>92.773392</ele>
        <time>2026-08-16T03:39:11.000Z</time>
      </trkpt>
      <trkpt lat="22.730286" lon="110.146587">
        <ele>92.620773</ele>
        <time>2026-08-16T03:39:12.000Z</time>
      </trkpt>
      <trkpt lat="22.730304" lon="110.146652">
        <ele>92.478113</ele>
        <time>2026-08-16T03:39:13.000Z</time>
      </trkpt>
      <trkpt lat="22.730323" lon="110.146725">
        <ele>92.318670</ele>
        <time>2026-08-16T03:39:14.000Z</time>
      </trkpt>
      <trkpt lat="22.730337" lon="110.146800">
        <ele>92.157818</ele>
        <time>2026-08-16T03:39:15.000Z</time>
      </trkpt>
      <trkpt lat="22.730363" lon="110.146871">
        <ele>91.997239</ele>
        <time>2026-08-16T03:39:16.000Z</time>
      </trkpt>
      <trkpt lat="22.730374" lon="110.146948">
        <ele>91.833450</ele>
        <time>2026-08-16T03:39:17.000Z</time>
      </trkpt>
      <trkpt lat="22.730394" lon="110.147021">
        <ele>91.673373</ele>
        <time>2026-08-16T03:39:18.000Z</time>
      </trkpt>
      <trkpt lat="22.730417" lon="110.147095">
        <ele>91.509226</ele>
        <time>2026-08-16T03:39:19.000Z</time>
      </trkpt>
      <trkpt lat="22.730437" lon="110.147172">
        <ele>91.399950</ele>
        <time>2026-08-16T03:39:20.000Z</time>
      </trkpt>
      <trkpt lat="22.730456" lon="110.147245">
        <ele>91.370199</ele>
        <time>2026-08-16T03:39:21.000Z</time>
      </trkpt>
      <trkpt lat="22.730480" lon="110.147326">
        <ele>91.336830</ele>
        <time>2026-08-16T03:39:22.000Z</time>
      </trkpt>
      <trkpt lat="22.730511" lon="110.147406">
        <ele>91.302795</ele>
        <time>2026-08-16T03:39:23.000Z</time>
      </trkpt>
      <trkpt lat="22.730544" lon="110.147479">
        <ele>91.270908</ele>
        <time>2026-08-16T03:39:24.000Z</time>
      </trkpt>
      <trkpt lat="22.730583" lon="110.147542">
        <ele>91.241148</ele>
        <time>2026-08-16T03:39:25.000Z</time>
      </trkpt>
      <trkpt lat="22.730628" lon="110.147605">
        <ele>91.209894</ele>
        <time>2026-08-16T03:39:26.000Z</time>
      </trkpt>
      <trkpt lat="22.730678" lon="110.147663">
        <ele>91.178755</ele>
        <time>2026-08-16T03:39:27.000Z</time>
      </trkpt>
      <trkpt lat="22.730729" lon="110.147717">
        <ele>91.148440</ele>
        <time>2026-08-16T03:39:28.000Z</time>
      </trkpt>
      <trkpt lat="22.730778" lon="110.147777">
        <ele>91.117007</ele>
        <time>2026-08-16T03:39:29.000Z</time>
      </trkpt>
      <trkpt lat="22.730827" lon="110.147840">
        <ele>91.084684</ele>
        <time>2026-08-16T03:39:30.000Z</time>
      </trkpt>
      <trkpt lat="22.730879" lon="110.147896">
        <ele>91.053516</ele>
        <time>2026-08-16T03:39:31.000Z</time>
      </trkpt>
      <trkpt lat="22.730938" lon="110.147947">
        <ele>91.021428</ele>
        <time>2026-08-16T03:39:32.000Z</time>
      </trkpt>
      <trkpt lat="22.730993" lon="110.147997">
        <ele>90.990905</ele>
        <time>2026-08-16T03:39:33.000Z</time>
      </trkpt>
      <trkpt lat="22.731049" lon="110.148046">
        <ele>90.960302</ele>
        <time>2026-08-16T03:39:34.000Z</time>
      </trkpt>
      <trkpt lat="22.731105" lon="110.148094">
        <ele>90.929945</ele>
        <time>2026-08-16T03:39:35.000Z</time>
      </trkpt>
      <trkpt lat="22.731163" lon="110.148140">
        <ele>90.899386</ele>
        <time>2026-08-16T03:39:36.000Z</time>
      </trkpt>
      <trkpt lat="22.731217" lon="110.148184">
        <ele>90.870660</ele>
        <time>2026-08-16T03:39:37.000Z</time>
      </trkpt>
      <trkpt lat="22.731271" lon="110.148228">
        <ele>90.841934</ele>
        <time>2026-08-16T03:39:38.000Z</time>
      </trkpt>
      <trkpt lat="22.731327" lon="110.148271">
        <ele>90.812752</ele>
        <time>2026-08-16T03:39:39.000Z</time>
      </trkpt>
      <trkpt lat="22.731381" lon="110.148312">
        <ele>90.784717</ele>
        <time>2026-08-16T03:39:40.000Z</time>
      </trkpt>
      <trkpt lat="22.731434" lon="110.148355">
        <ele>90.756567</ele>
        <time>2026-08-16T03:39:41.000Z</time>
      </trkpt>
      <trkpt lat="22.731486" lon="110.148400">
        <ele>90.728274</ele>
        <time>2026-08-16T03:39:42.000Z</time>
      </trkpt>
      <trkpt lat="22.731538" lon="110.148444">
        <ele>90.700223</ele>
        <time>2026-08-16T03:39:43.000Z</time>
      </trkpt>
      <trkpt lat="22.731589" lon="110.148492">
        <ele>90.671503</ele>
        <time>2026-08-16T03:39:44.000Z</time>
      </trkpt>
      <trkpt lat="22.731642" lon="110.148538">
        <ele>90.653514</ele>
        <time>2026-08-16T03:39:45.000Z</time>
      </trkpt>
      <trkpt lat="22.731694" lon="110.148582">
        <ele>90.676849</ele>
        <time>2026-08-16T03:39:46.000Z</time>
      </trkpt>
      <trkpt lat="22.731745" lon="110.148627">
        <ele>90.700112</ele>
        <time>2026-08-16T03:39:47.000Z</time>
      </trkpt>
      <trkpt lat="22.731794" lon="110.148669">
        <ele>90.722210</ele>
        <time>2026-08-16T03:39:48.000Z</time>
      </trkpt>
      <trkpt lat="22.731839" lon="110.148714">
        <ele>90.743867</ele>
        <time>2026-08-16T03:39:49.000Z</time>
      </trkpt>
      <trkpt lat="22.731890" lon="110.148755">
        <ele>90.766328</ele>
        <time>2026-08-16T03:39:50.000Z</time>
      </trkpt>
      <trkpt lat="22.731939" lon="110.148797">
        <ele>90.788426</ele>
        <time>2026-08-16T03:39:51.000Z</time>
      </trkpt>
      <trkpt lat="22.731986" lon="110.148838">
        <ele>90.809768</ele>
        <time>2026-08-16T03:39:52.000Z</time>
      </trkpt>
      <trkpt lat="22.732033" lon="110.148879">
        <ele>90.831109</ele>
        <time>2026-08-16T03:39:53.000Z</time>
      </trkpt>
      <trkpt lat="22.732080" lon="110.148921">
        <ele>90.852656</ele>
        <time>2026-08-16T03:39:54.000Z</time>
      </trkpt>
      <trkpt lat="22.732126" lon="110.148962">
        <ele>90.873723</ele>
        <time>2026-08-16T03:39:55.000Z</time>
      </trkpt>
      <trkpt lat="22.732172" lon="110.149001">
        <ele>90.894382</ele>
        <time>2026-08-16T03:39:56.000Z</time>
      </trkpt>
      <trkpt lat="22.732216" lon="110.149038">
        <ele>90.914081</ele>
        <time>2026-08-16T03:39:57.000Z</time>
      </trkpt>
      <trkpt lat="22.732259" lon="110.149072">
        <ele>90.932909</ele>
        <time>2026-08-16T03:39:58.000Z</time>
      </trkpt>
      <trkpt lat="22.732302" lon="110.149107">
        <ele>90.951931</ele>
        <time>2026-08-16T03:39:59.000Z</time>
      </trkpt>
      <trkpt lat="22.732343" lon="110.149131">
        <ele>90.968415</ele>
        <time>2026-08-16T03:40:00.000Z</time>
      </trkpt>
      <trkpt lat="22.732383" lon="110.149158">
        <ele>90.985084</ele>
        <time>2026-08-16T03:40:01.000Z</time>
      </trkpt>
      <trkpt lat="22.732424" lon="110.149182">
        <ele>91.001568</ele>
        <time>2026-08-16T03:40:02.000Z</time>
      </trkpt>
      <trkpt lat="22.732460" lon="110.149208">
        <ele>91.016871</ele>
        <time>2026-08-16T03:40:03.000Z</time>
      </trkpt>
      <trkpt lat="22.732498" lon="110.149232">
        <ele>91.032429</ele>
        <time>2026-08-16T03:40:04.000Z</time>
      </trkpt>
      <trkpt lat="22.732535" lon="110.149275">
        <ele>91.051618</ele>
        <time>2026-08-16T03:40:05.000Z</time>
      </trkpt>
      <trkpt lat="22.732576" lon="110.149308">
        <ele>91.069682</ele>
        <time>2026-08-16T03:40:06.000Z</time>
      </trkpt>
      <trkpt lat="22.732612" lon="110.149343">
        <ele>91.086789</ele>
        <time>2026-08-16T03:40:07.000Z</time>
      </trkpt>
      <trkpt lat="22.732651" lon="110.149379">
        <ele>91.104909</ele>
        <time>2026-08-16T03:40:08.000Z</time>
      </trkpt>
      <trkpt lat="22.732689" lon="110.149416">
        <ele>91.122978</ele>
        <time>2026-08-16T03:40:09.000Z</time>
      </trkpt>
      <trkpt lat="22.732724" lon="110.149456">
        <ele>91.140969</ele>
        <time>2026-08-16T03:40:10.000Z</time>
      </trkpt>
      <trkpt lat="22.732759" lon="110.149493">
        <ele>91.158263</ele>
        <time>2026-08-16T03:40:11.000Z</time>
      </trkpt>
      <trkpt lat="22.732795" lon="110.149530">
        <ele>91.175811</ele>
        <time>2026-08-16T03:40:12.000Z</time>
      </trkpt>
      <trkpt lat="22.732836" lon="110.149564">
        <ele>91.194073</ele>
        <time>2026-08-16T03:40:13.000Z</time>
      </trkpt>
      <trkpt lat="22.732871" lon="110.149607">
        <ele>91.212786</ele>
        <time>2026-08-16T03:40:14.000Z</time>
      </trkpt>
      <trkpt lat="22.732912" lon="110.149649">
        <ele>91.232741</ele>
        <time>2026-08-16T03:40:15.000Z</time>
      </trkpt>
      <trkpt lat="22.732950" lon="110.149688">
        <ele>91.251252</ele>
        <time>2026-08-16T03:40:16.000Z</time>
      </trkpt>
      <trkpt lat="22.732989" lon="110.149727">
        <ele>91.270022</ele>
        <time>2026-08-16T03:40:17.000Z</time>
      </trkpt>
      <trkpt lat="22.733021" lon="110.149768">
        <ele>91.287167</ele>
        <time>2026-08-16T03:40:18.000Z</time>
      </trkpt>
      <trkpt lat="22.733055" lon="110.149808">
        <ele>91.302379</ele>
        <time>2026-08-16T03:40:19.000Z</time>
      </trkpt>
      <trkpt lat="22.733089" lon="110.149848">
        <ele>91.317591</ele>
        <time>2026-08-16T03:40:20.000Z</time>
      </trkpt>
      <trkpt lat="22.733127" lon="110.149888">
        <ele>91.333649</ele>
        <time>2026-08-16T03:40:21.000Z</time>
      </trkpt>
      <trkpt lat="22.733162" lon="110.149931">
        <ele>91.349687</ele>
        <time>2026-08-16T03:40:22.000Z</time>
      </trkpt>
      <trkpt lat="22.733195" lon="110.149976">
        <ele>91.365764</ele>
        <time>2026-08-16T03:40:23.000Z</time>
      </trkpt>
      <trkpt lat="22.733228" lon="110.150019">
        <ele>91.381408</ele>
        <time>2026-08-16T03:40:24.000Z</time>
      </trkpt>
      <trkpt lat="22.733259" lon="110.150061">
        <ele>91.396451</ele>
        <time>2026-08-16T03:40:25.000Z</time>
      </trkpt>
      <trkpt lat="22.733285" lon="110.150103">
        <ele>91.410597</ele>
        <time>2026-08-16T03:40:26.000Z</time>
      </trkpt>
      <trkpt lat="22.733315" lon="110.150145">
        <ele>91.425452</ele>
        <time>2026-08-16T03:40:27.000Z</time>
      </trkpt>
      <trkpt lat="22.733346" lon="110.150186">
        <ele>91.440278</ele>
        <time>2026-08-16T03:40:28.000Z</time>
      </trkpt>
      <trkpt lat="22.733378" lon="110.150225">
        <ele>91.454876</ele>
        <time>2026-08-16T03:40:29.000Z</time>
      </trkpt>
      <trkpt lat="22.733412" lon="110.150266">
        <ele>91.470294</ele>
        <time>2026-08-16T03:40:30.000Z</time>
      </trkpt>
      <trkpt lat="22.733450" lon="110.150310">
        <ele>91.487151</ele>
        <time>2026-08-16T03:40:31.000Z</time>
      </trkpt>
      <trkpt lat="22.733483" lon="110.150349">
        <ele>91.501952</ele>
        <time>2026-08-16T03:40:32.000Z</time>
      </trkpt>
      <trkpt lat="22.733519" lon="110.150383">
        <ele>91.516427</ele>
        <time>2026-08-16T03:40:33.000Z</time>
      </trkpt>
      <trkpt lat="22.733549" lon="110.150426">
        <ele>91.531505</ele>
        <time>2026-08-16T03:40:34.000Z</time>
      </trkpt>
      <trkpt lat="22.733580" lon="110.150466">
        <ele>91.546116</ele>
        <time>2026-08-16T03:40:35.000Z</time>
      </trkpt>
      <trkpt lat="22.733611" lon="110.150507">
        <ele>91.560942</ele>
        <time>2026-08-16T03:40:36.000Z</time>
      </trkpt>
      <trkpt lat="22.733640" lon="110.150548">
        <ele>91.575391</ele>
        <time>2026-08-16T03:40:37.000Z</time>
      </trkpt>
      <trkpt lat="22.733680" lon="110.150584">
        <ele>91.591153</ele>
        <time>2026-08-16T03:40:38.000Z</time>
      </trkpt>
      <trkpt lat="22.733710" lon="110.150628">
        <ele>91.606454</ele>
        <time>2026-08-16T03:40:39.000Z</time>
      </trkpt>
      <trkpt lat="22.733740" lon="110.150669">
        <ele>91.621090</ele>
        <time>2026-08-16T03:40:40.000Z</time>
      </trkpt>
      <trkpt lat="22.733770" lon="110.150712">
        <ele>91.636168</ele>
        <time>2026-08-16T03:40:41.000Z</time>
      </trkpt>
      <trkpt lat="22.733802" lon="110.150758">
        <ele>91.652280</ele>
        <time>2026-08-16T03:40:42.000Z</time>
      </trkpt>
      <trkpt lat="22.733832" lon="110.150799">
        <ele>91.666916</ele>
        <time>2026-08-16T03:40:43.000Z</time>
      </trkpt>
      <trkpt lat="22.733865" lon="110.150842">
        <ele>91.682559</ele>
        <time>2026-08-16T03:40:44.000Z</time>
      </trkpt>
      <trkpt lat="22.733895" lon="110.150887">
        <ele>91.698086</ele>
        <time>2026-08-16T03:40:45.000Z</time>
      </trkpt>
      <trkpt lat="22.733930" lon="110.150929">
        <ele>91.713916</ele>
        <time>2026-08-16T03:40:46.000Z</time>
      </trkpt>
      <trkpt lat="22.733962" lon="110.150973">
        <ele>91.729585</ele>
        <time>2026-08-16T03:40:47.000Z</time>
      </trkpt>
      <trkpt lat="22.733990" lon="110.151016">
        <ele>91.744305</ele>
        <time>2026-08-16T03:40:48.000Z</time>
      </trkpt>
      <trkpt lat="22.734020" lon="110.151061">
        <ele>91.759832</ele>
        <time>2026-08-16T03:40:49.000Z</time>
      </trkpt>
      <trkpt lat="22.734050" lon="110.151102">
        <ele>91.774468</ele>
        <time>2026-08-16T03:40:50.000Z</time>
      </trkpt>
      <trkpt lat="22.734081" lon="110.151146">
        <ele>91.789952</ele>
        <time>2026-08-16T03:40:51.000Z</time>
      </trkpt>
      <trkpt lat="22.734109" lon="110.151192">
        <ele>91.805364</ele>
        <time>2026-08-16T03:40:52.000Z</time>
      </trkpt>
      <trkpt lat="22.734137" lon="110.151237">
        <ele>91.820544</ele>
        <time>2026-08-16T03:40:53.000Z</time>
      </trkpt>
      <trkpt lat="22.734168" lon="110.151284">
        <ele>91.842813</ele>
        <time>2026-08-16T03:40:54.000Z</time>
      </trkpt>
      <trkpt lat="22.734208" lon="110.151326">
        <ele>91.875671</ele>
        <time>2026-08-16T03:40:55.000Z</time>
      </trkpt>
      <trkpt lat="22.734240" lon="110.151372">
        <ele>91.907030</ele>
        <time>2026-08-16T03:40:56.000Z</time>
      </trkpt>
      <trkpt lat="22.734271" lon="110.151415">
        <ele>91.936734</ele>
        <time>2026-08-16T03:40:57.000Z</time>
      </trkpt>
      <trkpt lat="22.734302" lon="110.151455">
        <ele>91.965170</ele>
        <time>2026-08-16T03:40:58.000Z</time>
      </trkpt>
      <trkpt lat="22.734331" lon="110.151500">
        <ele>91.995048</ele>
        <time>2026-08-16T03:40:59.000Z</time>
      </trkpt>
      <trkpt lat="22.734359" lon="110.151545">
        <ele>92.024592</ele>
        <time>2026-08-16T03:41:00.000Z</time>
      </trkpt>
      <trkpt lat="22.734388" lon="110.151589">
        <ele>92.054025</ele>
        <time>2026-08-16T03:41:01.000Z</time>
      </trkpt>
      <trkpt lat="22.734419" lon="110.151630">
        <ele>92.082879</ele>
        <time>2026-08-16T03:41:02.000Z</time>
      </trkpt>
      <trkpt lat="22.734451" lon="110.151672">
        <ele>92.112529</ele>
        <time>2026-08-16T03:41:03.000Z</time>
      </trkpt>
      <trkpt lat="22.734489" lon="110.151712">
        <ele>92.143783</ele>
        <time>2026-08-16T03:41:04.000Z</time>
      </trkpt>
      <trkpt lat="22.734525" lon="110.151746">
        <ele>92.171956</ele>
        <time>2026-08-16T03:41:05.000Z</time>
      </trkpt>
      <trkpt lat="22.734558" lon="110.151788">
        <ele>92.201984</ele>
        <time>2026-08-16T03:41:06.000Z</time>
      </trkpt>
      <trkpt lat="22.734587" lon="110.151834">
        <ele>92.232310</ele>
        <time>2026-08-16T03:41:07.000Z</time>
      </trkpt>
      <trkpt lat="22.734626" lon="110.151876">
        <ele>92.264747</ele>
        <time>2026-08-16T03:41:08.000Z</time>
      </trkpt>
      <trkpt lat="22.734658" lon="110.151922">
        <ele>92.296106</ele>
        <time>2026-08-16T03:41:09.000Z</time>
      </trkpt>
      <trkpt lat="22.734696" lon="110.151966">
        <ele>92.328913</ele>
        <time>2026-08-16T03:41:10.000Z</time>
      </trkpt>
      <trkpt lat="22.734727" lon="110.152014">
        <ele>92.360805</ele>
        <time>2026-08-16T03:41:11.000Z</time>
      </trkpt>
      <trkpt lat="22.734765" lon="110.152059">
        <ele>92.394012</ele>
        <time>2026-08-16T03:41:12.000Z</time>
      </trkpt>
      <trkpt lat="22.734800" lon="110.152103">
        <ele>92.425635</ele>
        <time>2026-08-16T03:41:13.000Z</time>
      </trkpt>
      <trkpt lat="22.734833" lon="110.152146">
        <ele>92.456080</ele>
        <time>2026-08-16T03:41:14.000Z</time>
      </trkpt>
      <trkpt lat="22.734865" lon="110.152193">
        <ele>92.487875</ele>
        <time>2026-08-16T03:41:15.000Z</time>
      </trkpt>
      <trkpt lat="22.734897" lon="110.152241">
        <ele>92.520110</ele>
        <time>2026-08-16T03:41:16.000Z</time>
      </trkpt>
      <trkpt lat="22.734929" lon="110.152286">
        <ele>92.551035</ele>
        <time>2026-08-16T03:41:17.000Z</time>
      </trkpt>
      <trkpt lat="22.734959" lon="110.152332">
        <ele>92.581698</ele>
        <time>2026-08-16T03:41:18.000Z</time>
      </trkpt>
      <trkpt lat="22.734987" lon="110.152379">
        <ele>92.612150</ele>
        <time>2026-08-16T03:41:19.000Z</time>
      </trkpt>
      <trkpt lat="22.735016" lon="110.152424">
        <ele>92.642028</ele>
        <time>2026-08-16T03:41:20.000Z</time>
      </trkpt>
      <trkpt lat="22.735048" lon="110.152467">
        <ele>92.672099</ele>
        <time>2026-08-16T03:41:21.000Z</time>
      </trkpt>
      <trkpt lat="22.735080" lon="110.152509">
        <ele>92.701749</ele>
        <time>2026-08-16T03:41:22.000Z</time>
      </trkpt>
      <trkpt lat="22.735113" lon="110.152552">
        <ele>92.732194</ele>
        <time>2026-08-16T03:41:23.000Z</time>
      </trkpt>
      <trkpt lat="22.735143" lon="110.152595">
        <ele>92.761538</ele>
        <time>2026-08-16T03:41:24.000Z</time>
      </trkpt>
      <trkpt lat="22.735172" lon="110.152637">
        <ele>92.790093</ele>
        <time>2026-08-16T03:41:25.000Z</time>
      </trkpt>
      <trkpt lat="22.735201" lon="110.152679">
        <ele>92.818648</ele>
        <time>2026-08-16T03:41:26.000Z</time>
      </trkpt>
      <trkpt lat="22.735229" lon="110.152720">
        <ele>92.846413</ele>
        <time>2026-08-16T03:41:27.000Z</time>
      </trkpt>
      <trkpt lat="22.735258" lon="110.152762">
        <ele>92.874968</ele>
        <time>2026-08-16T03:41:28.000Z</time>
      </trkpt>
      <trkpt lat="22.735287" lon="110.152804">
        <ele>92.895187</ele>
        <time>2026-08-16T03:41:29.000Z</time>
      </trkpt>
      <trkpt lat="22.735318" lon="110.152849">
        <ele>92.904328</ele>
        <time>2026-08-16T03:41:30.000Z</time>
      </trkpt>
      <trkpt lat="22.735348" lon="110.152891">
        <ele>92.912973</ele>
        <time>2026-08-16T03:41:31.000Z</time>
      </trkpt>
      <trkpt lat="22.735378" lon="110.152935">
        <ele>92.921877</ele>
        <time>2026-08-16T03:41:32.000Z</time>
      </trkpt>
      <trkpt lat="22.735407" lon="110.152980">
        <ele>92.930811</ele>
        <time>2026-08-16T03:41:33.000Z</time>
      </trkpt>
      <trkpt lat="22.735437" lon="110.153022">
        <ele>92.939456</ele>
        <time>2026-08-16T03:41:34.000Z</time>
      </trkpt>
      <trkpt lat="22.735468" lon="110.153065">
        <ele>92.948337</ele>
        <time>2026-08-16T03:41:35.000Z</time>
      </trkpt>
      <trkpt lat="22.735500" lon="110.153109">
        <ele>92.957456</ele>
        <time>2026-08-16T03:41:36.000Z</time>
      </trkpt>
      <trkpt lat="22.735531" lon="110.153149">
        <ele>92.965958</ele>
        <time>2026-08-16T03:41:37.000Z</time>
      </trkpt>
      <trkpt lat="22.735562" lon="110.153190">
        <ele>92.974586</ele>
        <time>2026-08-16T03:41:38.000Z</time>
      </trkpt>
      <trkpt lat="22.735596" lon="110.153232">
        <ele>92.983680</ele>
        <time>2026-08-16T03:41:39.000Z</time>
      </trkpt>
      <trkpt lat="22.735625" lon="110.153275">
        <ele>92.992349</ele>
        <time>2026-08-16T03:41:40.000Z</time>
      </trkpt>
      <trkpt lat="22.735662" lon="110.153318">
        <ele>93.001919</ele>
        <time>2026-08-16T03:41:41.000Z</time>
      </trkpt>
      <trkpt lat="22.735692" lon="110.153364">
        <ele>93.011087</ele>
        <time>2026-08-16T03:41:42.000Z</time>
      </trkpt>
      <trkpt lat="22.735724" lon="110.153408">
        <ele>93.020206</ele>
        <time>2026-08-16T03:41:43.000Z</time>
      </trkpt>
      <trkpt lat="22.735758" lon="110.153454">
        <ele>93.029799</ele>
        <time>2026-08-16T03:41:44.000Z</time>
      </trkpt>
      <trkpt lat="22.735794" lon="110.153495">
        <ele>93.039011</ele>
        <time>2026-08-16T03:41:45.000Z</time>
      </trkpt>
      <trkpt lat="22.735821" lon="110.153535">
        <ele>93.047078</ele>
        <time>2026-08-16T03:41:46.000Z</time>
      </trkpt>
      <trkpt lat="22.735847" lon="110.153568">
        <ele>93.054141</ele>
        <time>2026-08-16T03:41:47.000Z</time>
      </trkpt>
      <trkpt lat="22.735864" lon="110.153607">
        <ele>93.061161</ele>
        <time>2026-08-16T03:41:48.000Z</time>
      </trkpt>
      <trkpt lat="22.735872" lon="110.153640">
        <ele>93.066713</ele>
        <time>2026-08-16T03:41:49.000Z</time>
      </trkpt>
      <trkpt lat="22.735887" lon="110.153674">
        <ele>93.072847</ele>
        <time>2026-08-16T03:41:50.000Z</time>
      </trkpt>
      <trkpt lat="22.735897" lon="110.153710">
        <ele>93.078965</ele>
        <time>2026-08-16T03:41:51.000Z</time>
      </trkpt>
      <trkpt lat="22.735907" lon="110.153756">
        <ele>93.086656</ele>
        <time>2026-08-16T03:41:52.000Z</time>
      </trkpt>
      <trkpt lat="22.735919" lon="110.153813">
        <ele>93.096170</ele>
        <time>2026-08-16T03:41:53.000Z</time>
      </trkpt>
      <trkpt lat="22.735947" lon="110.153860">
        <ele>93.105276</ele>
        <time>2026-08-16T03:41:54.000Z</time>
      </trkpt>
      <trkpt lat="22.735988" lon="110.153900">
        <ele>93.115008</ele>
        <time>2026-08-16T03:41:55.000Z</time>
      </trkpt>
      <trkpt lat="22.736023" lon="110.153940">
        <ele>93.123980</ele>
        <time>2026-08-16T03:41:56.000Z</time>
      </trkpt>
      <trkpt lat="22.736055" lon="110.153984">
        <ele>93.133099</ele>
        <time>2026-08-16T03:41:57.000Z</time>
      </trkpt>
      <trkpt lat="22.736091" lon="110.154029">
        <ele>93.142793</ele>
        <time>2026-08-16T03:41:58.000Z</time>
      </trkpt>
      <trkpt lat="22.736123" lon="110.154074">
        <ele>93.152040</ele>
        <time>2026-08-16T03:41:59.000Z</time>
      </trkpt>
      <trkpt lat="22.736155" lon="110.154123">
        <ele>93.161811</ele>
        <time>2026-08-16T03:42:00.000Z</time>
      </trkpt>
      <trkpt lat="22.736183" lon="110.154173">
        <ele>93.171330</ele>
        <time>2026-08-16T03:42:01.000Z</time>
      </trkpt>
      <trkpt lat="22.736213" lon="110.154221">
        <ele>93.180766</ele>
        <time>2026-08-16T03:42:02.000Z</time>
      </trkpt>
      <trkpt lat="22.736245" lon="110.154268">
        <ele>93.190272</ele>
        <time>2026-08-16T03:42:03.000Z</time>
      </trkpt>
      <trkpt lat="22.736280" lon="110.154312">
        <ele>93.199728</ele>
        <time>2026-08-16T03:42:04.000Z</time>
      </trkpt>
      <trkpt lat="22.736312" lon="110.154354">
        <ele>93.208593</ele>
        <time>2026-08-16T03:42:05.000Z</time>
      </trkpt>
      <trkpt lat="22.736342" lon="110.154395">
        <ele>93.209129</ele>
        <time>2026-08-16T03:42:06.000Z</time>
      </trkpt>
      <trkpt lat="22.736367" lon="110.154438">
        <ele>93.209268</ele>
        <time>2026-08-16T03:42:07.000Z</time>
      </trkpt>
      <trkpt lat="22.736392" lon="110.154482">
        <ele>93.209409</ele>
        <time>2026-08-16T03:42:08.000Z</time>
      </trkpt>
      <trkpt lat="22.736415" lon="110.154525">
        <ele>93.209545</ele>
        <time>2026-08-16T03:42:09.000Z</time>
      </trkpt>
      <trkpt lat="22.736436" lon="110.154573">
        <ele>93.209690</ele>
        <time>2026-08-16T03:42:10.000Z</time>
      </trkpt>
      <trkpt lat="22.736460" lon="110.154620">
        <ele>93.209836</ele>
        <time>2026-08-16T03:42:11.000Z</time>
      </trkpt>
      <trkpt lat="22.736483" lon="110.154669">
        <ele>93.209986</ele>
        <time>2026-08-16T03:42:12.000Z</time>
      </trkpt>
      <trkpt lat="22.736503" lon="110.154720">
        <ele>93.210138</ele>
        <time>2026-08-16T03:42:13.000Z</time>
      </trkpt>
      <trkpt lat="22.736523" lon="110.154773">
        <ele>93.210294</ele>
        <time>2026-08-16T03:42:14.000Z</time>
      </trkpt>
      <trkpt lat="22.736542" lon="110.154827">
        <ele>93.210452</ele>
        <time>2026-08-16T03:42:15.000Z</time>
      </trkpt>
      <trkpt lat="22.736558" lon="110.154882">
        <ele>93.210609</ele>
        <time>2026-08-16T03:42:16.000Z</time>
      </trkpt>
      <trkpt lat="22.736573" lon="110.154938">
        <ele>93.210768</ele>
        <time>2026-08-16T03:42:17.000Z</time>
      </trkpt>
      <trkpt lat="22.736583" lon="110.154992">
        <ele>93.210919</ele>
        <time>2026-08-16T03:42:18.000Z</time>
      </trkpt>
      <trkpt lat="22.736598" lon="110.155048">
        <ele>93.211078</ele>
        <time>2026-08-16T03:42:19.000Z</time>
      </trkpt>
      <trkpt lat="22.736611" lon="110.155102">
        <ele>93.211230</ele>
        <time>2026-08-16T03:42:20.000Z</time>
      </trkpt>
      <trkpt lat="22.736632" lon="110.155155">
        <ele>93.211387</ele>
        <time>2026-08-16T03:42:21.000Z</time>
      </trkpt>
      <trkpt lat="22.736647" lon="110.155211">
        <ele>93.211547</ele>
        <time>2026-08-16T03:42:22.000Z</time>
      </trkpt>
      <trkpt lat="22.736659" lon="110.155268">
        <ele>93.211706</ele>
        <time>2026-08-16T03:42:23.000Z</time>
      </trkpt>
      <trkpt lat="22.736668" lon="110.155329">
        <ele>93.211875</ele>
        <time>2026-08-16T03:42:24.000Z</time>
      </trkpt>
      <trkpt lat="22.736681" lon="110.155388">
        <ele>93.212040</ele>
        <time>2026-08-16T03:42:25.000Z</time>
      </trkpt>
      <trkpt lat="22.736696" lon="110.155448">
        <ele>93.212210</ele>
        <time>2026-08-16T03:42:26.000Z</time>
      </trkpt>
      <trkpt lat="22.736709" lon="110.155507">
        <ele>93.212376</ele>
        <time>2026-08-16T03:42:27.000Z</time>
      </trkpt>
      <trkpt lat="22.736725" lon="110.155567">
        <ele>93.212546</ele>
        <time>2026-08-16T03:42:28.000Z</time>
      </trkpt>
      <trkpt lat="22.736739" lon="110.155627">
        <ele>93.212715</ele>
        <time>2026-08-16T03:42:29.000Z</time>
      </trkpt>
      <trkpt lat="22.736752" lon="110.155686">
        <ele>93.212881</ele>
        <time>2026-08-16T03:42:30.000Z</time>
      </trkpt>
      <trkpt lat="22.736770" lon="110.155746">
        <ele>93.213053</ele>
        <time>2026-08-16T03:42:31.000Z</time>
      </trkpt>
      <trkpt lat="22.736782" lon="110.155806">
        <ele>93.213220</ele>
        <time>2026-08-16T03:42:32.000Z</time>
      </trkpt>
      <trkpt lat="22.736796" lon="110.155865">
        <ele>93.213387</ele>
        <time>2026-08-16T03:42:33.000Z</time>
      </trkpt>
      <trkpt lat="22.736813" lon="110.155923">
        <ele>93.213553</ele>
        <time>2026-08-16T03:42:34.000Z</time>
      </trkpt>
      <trkpt lat="22.736825" lon="110.155978">
        <ele>93.213707</ele>
        <time>2026-08-16T03:42:35.000Z</time>
      </trkpt>
      <trkpt lat="22.736834" lon="110.156028">
        <ele>93.213846</ele>
        <time>2026-08-16T03:42:36.000Z</time>
      </trkpt>
      <trkpt lat="22.736844" lon="110.156075">
        <ele>93.213978</ele>
        <time>2026-08-16T03:42:37.000Z</time>
      </trkpt>
      <trkpt lat="22.736860" lon="110.156121">
        <ele>93.214112</ele>
        <time>2026-08-16T03:42:38.000Z</time>
      </trkpt>
      <trkpt lat="22.736876" lon="110.156164">
        <ele>93.214238</ele>
        <time>2026-08-16T03:42:39.000Z</time>
      </trkpt>
      <trkpt lat="22.736892" lon="110.156206">
        <ele>93.208744</ele>
        <time>2026-08-16T03:42:40.000Z</time>
      </trkpt>
      <trkpt lat="22.736907" lon="110.156249">
        <ele>93.193741</ele>
        <time>2026-08-16T03:42:41.000Z</time>
      </trkpt>
      <trkpt lat="22.736925" lon="110.156295">
        <ele>93.177434</ele>
        <time>2026-08-16T03:42:42.000Z</time>
      </trkpt>
      <trkpt lat="22.736943" lon="110.156342">
        <ele>93.160826</ele>
        <time>2026-08-16T03:42:43.000Z</time>
      </trkpt>
      <trkpt lat="22.736961" lon="110.156390">
        <ele>93.143916</ele>
        <time>2026-08-16T03:42:44.000Z</time>
      </trkpt>
      <trkpt lat="22.736976" lon="110.156438">
        <ele>93.127377</ele>
        <time>2026-08-16T03:42:45.000Z</time>
      </trkpt>
      <trkpt lat="22.736995" lon="110.156485">
        <ele>93.110630</ele>
        <time>2026-08-16T03:42:46.000Z</time>
      </trkpt>
      <trkpt lat="22.737013" lon="110.156533">
        <ele>93.093720</ele>
        <time>2026-08-16T03:42:47.000Z</time>
      </trkpt>
      <trkpt lat="22.737031" lon="110.156583">
        <ele>93.076204</ele>
        <time>2026-08-16T03:42:48.000Z</time>
      </trkpt>
      <trkpt lat="22.737048" lon="110.156640">
        <ele>93.056654</ele>
        <time>2026-08-16T03:42:49.000Z</time>
      </trkpt>
      <trkpt lat="22.737063" lon="110.156700">
        <ele>93.036367</ele>
        <time>2026-08-16T03:42:50.000Z</time>
      </trkpt>
      <trkpt lat="22.737079" lon="110.156764">
        <ele>93.014727</ele>
        <time>2026-08-16T03:42:51.000Z</time>
      </trkpt>
      <trkpt lat="22.737096" lon="110.156833">
        <ele>92.991420</ele>
        <time>2026-08-16T03:42:52.000Z</time>
      </trkpt>
      <trkpt lat="22.737110" lon="110.156900">
        <ele>92.969001</ele>
        <time>2026-08-16T03:42:53.000Z</time>
      </trkpt>
      <trkpt lat="22.737123" lon="110.156968">
        <ele>92.946338</ele>
        <time>2026-08-16T03:42:54.000Z</time>
      </trkpt>
      <trkpt lat="22.737139" lon="110.157034">
        <ele>92.924068</ele>
        <time>2026-08-16T03:42:55.000Z</time>
      </trkpt>
      <trkpt lat="22.737159" lon="110.157098">
        <ele>92.902015</ele>
        <time>2026-08-16T03:42:56.000Z</time>
      </trkpt>
      <trkpt lat="22.737178" lon="110.157161">
        <ele>92.880384</ele>
        <time>2026-08-16T03:42:57.000Z</time>
      </trkpt>
      <trkpt lat="22.737193" lon="110.157223">
        <ele>92.859467</ele>
        <time>2026-08-16T03:42:58.000Z</time>
      </trkpt>
      <trkpt lat="22.737210" lon="110.157287">
        <ele>92.837732</ele>
        <time>2026-08-16T03:42:59.000Z</time>
      </trkpt>
      <trkpt lat="22.737229" lon="110.157350">
        <ele>92.816101</ele>
        <time>2026-08-16T03:43:00.000Z</time>
      </trkpt>
      <trkpt lat="22.737246" lon="110.157412">
        <ele>92.794992</ele>
        <time>2026-08-16T03:43:01.000Z</time>
      </trkpt>
      <trkpt lat="22.737260" lon="110.157472">
        <ele>92.774795</ele>
        <time>2026-08-16T03:43:02.000Z</time>
      </trkpt>
      <trkpt lat="22.737274" lon="110.157534">
        <ele>92.753964</ele>
        <time>2026-08-16T03:43:03.000Z</time>
      </trkpt>
      <trkpt lat="22.737289" lon="110.157595">
        <ele>92.733362</ele>
        <time>2026-08-16T03:43:04.000Z</time>
      </trkpt>
      <trkpt lat="22.737303" lon="110.157653">
        <ele>92.713796</ele>
        <time>2026-08-16T03:43:05.000Z</time>
      </trkpt>
      <trkpt lat="22.737319" lon="110.157712">
        <ele>92.693727</ele>
        <time>2026-08-16T03:43:06.000Z</time>
      </trkpt>
      <trkpt lat="22.737335" lon="110.157770">
        <ele>92.673971</ele>
        <time>2026-08-16T03:43:07.000Z</time>
      </trkpt>
      <trkpt lat="22.737350" lon="110.157830">
        <ele>92.653683</ele>
        <time>2026-08-16T03:43:08.000Z</time>
      </trkpt>
      <trkpt lat="22.737367" lon="110.157889">
        <ele>92.633511</ele>
        <time>2026-08-16T03:43:09.000Z</time>
      </trkpt>
      <trkpt lat="22.737383" lon="110.157949">
        <ele>92.613129</ele>
        <time>2026-08-16T03:43:10.000Z</time>
      </trkpt>
      <trkpt lat="22.737398" lon="110.158007">
        <ele>92.593471</ele>
        <time>2026-08-16T03:43:11.000Z</time>
      </trkpt>
      <trkpt lat="22.737411" lon="110.158067">
        <ele>92.577001</ele>
        <time>2026-08-16T03:43:12.000Z</time>
      </trkpt>
      <trkpt lat="22.737427" lon="110.158127">
        <ele>92.573029</ele>
        <time>2026-08-16T03:43:13.000Z</time>
      </trkpt>
      <trkpt lat="22.737442" lon="110.158187">
        <ele>92.569076</ele>
        <time>2026-08-16T03:43:14.000Z</time>
      </trkpt>
      <trkpt lat="22.737457" lon="110.158247">
        <ele>92.565123</ele>
        <time>2026-08-16T03:43:15.000Z</time>
      </trkpt>
      <trkpt lat="22.737472" lon="110.158306">
        <ele>92.561231</ele>
        <time>2026-08-16T03:43:16.000Z</time>
      </trkpt>
      <trkpt lat="22.737487" lon="110.158365">
        <ele>92.557339</ele>
        <time>2026-08-16T03:43:17.000Z</time>
      </trkpt>
      <trkpt lat="22.737500" lon="110.158424">
        <ele>92.553481</ele>
        <time>2026-08-16T03:43:18.000Z</time>
      </trkpt>
      <trkpt lat="22.737514" lon="110.158483">
        <ele>92.549607</ele>
        <time>2026-08-16T03:43:19.000Z</time>
      </trkpt>
      <trkpt lat="22.737529" lon="110.158542">
        <ele>92.545715</ele>
        <time>2026-08-16T03:43:20.000Z</time>
      </trkpt>
      <trkpt lat="22.737543" lon="110.158599">
        <ele>92.541964</ele>
        <time>2026-08-16T03:43:21.000Z</time>
      </trkpt>
      <trkpt lat="22.737554" lon="110.158656">
        <ele>92.538261</ele>
        <time>2026-08-16T03:43:22.000Z</time>
      </trkpt>
      <trkpt lat="22.737566" lon="110.158714">
        <ele>92.534481</ele>
        <time>2026-08-16T03:43:23.000Z</time>
      </trkpt>
      <trkpt lat="22.737582" lon="110.158772">
        <ele>92.530631</ele>
        <time>2026-08-16T03:43:24.000Z</time>
      </trkpt>
      <trkpt lat="22.737595" lon="110.158831">
        <ele>92.526773</ele>
        <time>2026-08-16T03:43:25.000Z</time>
      </trkpt>
      <trkpt lat="22.737609" lon="110.158888">
        <ele>92.523022</ele>
        <time>2026-08-16T03:43:26.000Z</time>
      </trkpt>
      <trkpt lat="22.737622" lon="110.158946">
        <ele>92.519226</ele>
        <time>2026-08-16T03:43:27.000Z</time>
      </trkpt>
      <trkpt lat="22.737635" lon="110.159006">
        <ele>92.515307</ele>
        <time>2026-08-16T03:43:28.000Z</time>
      </trkpt>
      <trkpt lat="22.737648" lon="110.159066">
        <ele>92.511388</ele>
        <time>2026-08-16T03:43:29.000Z</time>
      </trkpt>
      <trkpt lat="22.737660" lon="110.159125">
        <ele>92.507545</ele>
        <time>2026-08-16T03:43:30.000Z</time>
      </trkpt>
      <trkpt lat="22.737673" lon="110.159185">
        <ele>92.503626</ele>
        <time>2026-08-16T03:43:31.000Z</time>
      </trkpt>
      <trkpt lat="22.737689" lon="110.159245">
        <ele>92.499654</ele>
        <time>2026-08-16T03:43:32.000Z</time>
      </trkpt>
      <trkpt lat="22.737702" lon="110.159305">
        <ele>92.495735</ele>
        <time>2026-08-16T03:43:33.000Z</time>
      </trkpt>
      <trkpt lat="22.737716" lon="110.159364">
        <ele>92.491861</ele>
        <time>2026-08-16T03:43:34.000Z</time>
      </trkpt>
      <trkpt lat="22.737732" lon="110.159423">
        <ele>92.487950</ele>
        <time>2026-08-16T03:43:35.000Z</time>
      </trkpt>
      <trkpt lat="22.737748" lon="110.159481">
        <ele>92.484100</ele>
        <time>2026-08-16T03:43:36.000Z</time>
      </trkpt>
      <trkpt lat="22.737763" lon="110.159539">
        <ele>92.480269</ele>
        <time>2026-08-16T03:43:37.000Z</time>
      </trkpt>
      <trkpt lat="22.737776" lon="110.159599">
        <ele>92.476350</ele>
        <time>2026-08-16T03:43:38.000Z</time>
      </trkpt>
      <trkpt lat="22.737789" lon="110.159657">
        <ele>92.472554</ele>
        <time>2026-08-16T03:43:39.000Z</time>
      </trkpt>
      <trkpt lat="22.737803" lon="110.159716">
        <ele>92.468680</ele>
        <time>2026-08-16T03:43:40.000Z</time>
      </trkpt>
      <trkpt lat="22.737818" lon="110.159773">
        <ele>92.464911</ele>
        <time>2026-08-16T03:43:41.000Z</time>
      </trkpt>
      <trkpt lat="22.737835" lon="110.159832">
        <ele>92.460980</ele>
        <time>2026-08-16T03:43:42.000Z</time>
      </trkpt>
      <trkpt lat="22.737849" lon="110.159891">
        <ele>92.457106</ele>
        <time>2026-08-16T03:43:43.000Z</time>
      </trkpt>
      <trkpt lat="22.737862" lon="110.159951">
        <ele>92.450712</ele>
        <time>2026-08-16T03:43:44.000Z</time>
      </trkpt>
      <trkpt lat="22.737875" lon="110.160013">
        <ele>92.431911</ele>
        <time>2026-08-16T03:43:45.000Z</time>
      </trkpt>
      <trkpt lat="22.737887" lon="110.160075">
        <ele>92.413178</ele>
        <time>2026-08-16T03:43:46.000Z</time>
      </trkpt>
      <trkpt lat="22.737898" lon="110.160138">
        <ele>92.394218</ele>
        <time>2026-08-16T03:43:47.000Z</time>
      </trkpt>
      <trkpt lat="22.737913" lon="110.160201">
        <ele>92.374978</ele>
        <time>2026-08-16T03:43:48.000Z</time>
      </trkpt>
      <trkpt lat="22.737928" lon="110.160263">
        <ele>92.356024</ele>
        <time>2026-08-16T03:43:49.000Z</time>
      </trkpt>
      <trkpt lat="22.737939" lon="110.160325">
        <ele>92.337354</ele>
        <time>2026-08-16T03:43:50.000Z</time>
      </trkpt>
      <trkpt lat="22.737949" lon="110.160386">
        <ele>92.319034</ele>
        <time>2026-08-16T03:43:51.000Z</time>
      </trkpt>
      <trkpt lat="22.737960" lon="110.160445">
        <ele>92.301235</ele>
        <time>2026-08-16T03:43:52.000Z</time>
      </trkpt>
      <trkpt lat="22.737970" lon="110.160505">
        <ele>92.283205</ele>
        <time>2026-08-16T03:43:53.000Z</time>
      </trkpt>
      <trkpt lat="22.737980" lon="110.160564">
        <ele>92.265467</ele>
        <time>2026-08-16T03:43:54.000Z</time>
      </trkpt>
      <trkpt lat="22.737989" lon="110.160623">
        <ele>92.247783</ele>
        <time>2026-08-16T03:43:55.000Z</time>
      </trkpt>
      <trkpt lat="22.737998" lon="110.160684">
        <ele>92.229516</ele>
        <time>2026-08-16T03:43:56.000Z</time>
      </trkpt>
      <trkpt lat="22.738007" lon="110.160744">
        <ele>92.211541</ele>
        <time>2026-08-16T03:43:57.000Z</time>
      </trkpt>
      <trkpt lat="22.738019" lon="110.160806">
        <ele>92.192808</ele>
        <time>2026-08-16T03:43:58.000Z</time>
      </trkpt>
      <trkpt lat="22.738027" lon="110.160868">
        <ele>92.174296</ele>
        <time>2026-08-16T03:43:59.000Z</time>
      </trkpt>
      <trkpt lat="22.738036" lon="110.160927">
        <ele>92.156613</ele>
        <time>2026-08-16T03:44:00.000Z</time>
      </trkpt>
      <trkpt lat="22.738045" lon="110.160987">
        <ele>92.138637</ele>
        <time>2026-08-16T03:44:01.000Z</time>
      </trkpt>
      <trkpt lat="22.738053" lon="110.161048">
        <ele>92.120418</ele>
        <time>2026-08-16T03:44:02.000Z</time>
      </trkpt>
      <trkpt lat="22.738064" lon="110.161110">
        <ele>92.101749</ele>
        <time>2026-08-16T03:44:03.000Z</time>
      </trkpt>
      <trkpt lat="22.738072" lon="110.161170">
        <ele>92.083822</ele>
        <time>2026-08-16T03:44:04.000Z</time>
      </trkpt>
      <trkpt lat="22.738079" lon="110.161231">
        <ele>92.065645</ele>
        <time>2026-08-16T03:44:05.000Z</time>
      </trkpt>
      <trkpt lat="22.738084" lon="110.161293">
        <ele>92.047242</ele>
        <time>2026-08-16T03:44:06.000Z</time>
      </trkpt>
      <trkpt lat="22.738091" lon="110.161356">
        <ele>92.028478</ele>
        <time>2026-08-16T03:44:07.000Z</time>
      </trkpt>
      <trkpt lat="22.738103" lon="110.161420">
        <ele>92.009166</ele>
        <time>2026-08-16T03:44:08.000Z</time>
      </trkpt>
      <trkpt lat="22.738115" lon="110.161482">
        <ele>91.990433</ele>
        <time>2026-08-16T03:44:09.000Z</time>
      </trkpt>
      <trkpt lat="22.738127" lon="110.161544">
        <ele>91.971700</ele>
        <time>2026-08-16T03:44:10.000Z</time>
      </trkpt>
      <trkpt lat="22.738139" lon="110.161607">
        <ele>91.952678</ele>
        <time>2026-08-16T03:44:11.000Z</time>
      </trkpt>
      <trkpt lat="22.738148" lon="110.161667">
        <ele>91.934703</ele>
        <time>2026-08-16T03:44:12.000Z</time>
      </trkpt>
      <trkpt lat="22.738158" lon="110.161726">
        <ele>91.916964</ele>
        <time>2026-08-16T03:44:13.000Z</time>
      </trkpt>
      <trkpt lat="22.738167" lon="110.161787">
        <ele>91.898697</ele>
        <time>2026-08-16T03:44:14.000Z</time>
      </trkpt>
      <trkpt lat="22.738176" lon="110.161846">
        <ele>91.881014</ele>
        <time>2026-08-16T03:44:15.000Z</time>
      </trkpt>
      <trkpt lat="22.738185" lon="110.161907">
        <ele>91.861449</ele>
        <time>2026-08-16T03:44:16.000Z</time>
      </trkpt>
      <trkpt lat="22.738195" lon="110.161967">
        <ele>91.841798</ele>
        <time>2026-08-16T03:44:17.000Z</time>
      </trkpt>
      <trkpt lat="22.738204" lon="110.162028">
        <ele>91.821889</ele>
        <time>2026-08-16T03:44:18.000Z</time>
      </trkpt>
      <trkpt lat="22.738212" lon="110.162090">
        <ele>91.801712</ele>
        <time>2026-08-16T03:44:19.000Z</time>
      </trkpt>
      <trkpt lat="22.738219" lon="110.162150">
        <ele>91.782221</ele>
        <time>2026-08-16T03:44:20.000Z</time>
      </trkpt>
      <trkpt lat="22.738229" lon="110.162212">
        <ele>91.761936</ele>
        <time>2026-08-16T03:44:21.000Z</time>
      </trkpt>
      <trkpt lat="22.738240" lon="110.162273">
        <ele>91.741904</ele>
        <time>2026-08-16T03:44:22.000Z</time>
      </trkpt>
      <trkpt lat="22.738250" lon="110.162336">
        <ele>91.721301</ele>
        <time>2026-08-16T03:44:23.000Z</time>
      </trkpt>
      <trkpt lat="22.738264" lon="110.162398">
        <ele>91.700729</ele>
        <time>2026-08-16T03:44:24.000Z</time>
      </trkpt>
      <trkpt lat="22.738282" lon="110.162458">
        <ele>91.680395</ele>
        <time>2026-08-16T03:44:25.000Z</time>
      </trkpt>
      <trkpt lat="22.738297" lon="110.162522">
        <ele>91.659113</ele>
        <time>2026-08-16T03:44:26.000Z</time>
      </trkpt>
      <trkpt lat="22.738304" lon="110.162587">
        <ele>91.638021</ele>
        <time>2026-08-16T03:44:27.000Z</time>
      </trkpt>
      <trkpt lat="22.738311" lon="110.162651">
        <ele>91.617250</ele>
        <time>2026-08-16T03:44:28.000Z</time>
      </trkpt>
      <trkpt lat="22.738317" lon="110.162716">
        <ele>91.596197</ele>
        <time>2026-08-16T03:44:29.000Z</time>
      </trkpt>
      <trkpt lat="22.738325" lon="110.162782">
        <ele>91.574743</ele>
        <time>2026-08-16T03:44:30.000Z</time>
      </trkpt>
      <trkpt lat="22.738333" lon="110.162847">
        <ele>91.553609</ele>
        <time>2026-08-16T03:44:31.000Z</time>
      </trkpt>
      <trkpt lat="22.738340" lon="110.162914">
        <ele>91.531877</ele>
        <time>2026-08-16T03:44:32.000Z</time>
      </trkpt>
      <trkpt lat="22.738348" lon="110.162981">
        <ele>91.510104</ele>
        <time>2026-08-16T03:44:33.000Z</time>
      </trkpt>
      <trkpt lat="22.738358" lon="110.163049">
        <ele>91.487911</ele>
        <time>2026-08-16T03:44:34.000Z</time>
      </trkpt>
      <trkpt lat="22.738368" lon="110.163116">
        <ele>91.466037</ele>
        <time>2026-08-16T03:44:35.000Z</time>
      </trkpt>
      <trkpt lat="22.738377" lon="110.163182">
        <ele>91.444535</ele>
        <time>2026-08-16T03:44:36.000Z</time>
      </trkpt>
      <trkpt lat="22.738386" lon="110.163249">
        <ele>91.422714</ele>
        <time>2026-08-16T03:44:37.000Z</time>
      </trkpt>
      <trkpt lat="22.738398" lon="110.163314">
        <ele>91.401350</ele>
        <time>2026-08-16T03:44:38.000Z</time>
      </trkpt>
      <trkpt lat="22.738410" lon="110.163380">
        <ele>91.379669</ele>
        <time>2026-08-16T03:44:39.000Z</time>
      </trkpt>
      <trkpt lat="22.738423" lon="110.163445">
        <ele>91.358234</ele>
        <time>2026-08-16T03:44:40.000Z</time>
      </trkpt>
      <trkpt lat="22.738435" lon="110.163510">
        <ele>91.336869</ele>
        <time>2026-08-16T03:44:41.000Z</time>
      </trkpt>
      <trkpt lat="22.738446" lon="110.163575">
        <ele>91.315571</ele>
        <time>2026-08-16T03:44:42.000Z</time>
      </trkpt>
      <trkpt lat="22.738456" lon="110.163639">
        <ele>91.294651</ele>
        <time>2026-08-16T03:44:43.000Z</time>
      </trkpt>
      <trkpt lat="22.738467" lon="110.163702">
        <ele>91.273986</ele>
        <time>2026-08-16T03:44:44.000Z</time>
      </trkpt>
      <trkpt lat="22.738475" lon="110.163765">
        <ele>91.253490</ele>
        <time>2026-08-16T03:44:45.000Z</time>
      </trkpt>
      <trkpt lat="22.738484" lon="110.163828">
        <ele>91.257408</ele>
        <time>2026-08-16T03:44:46.000Z</time>
      </trkpt>
      <trkpt lat="22.738494" lon="110.163891">
        <ele>91.268888</ele>
        <time>2026-08-16T03:44:47.000Z</time>
      </trkpt>
      <trkpt lat="22.738505" lon="110.163954">
        <ele>91.280401</ele>
        <time>2026-08-16T03:44:48.000Z</time>
      </trkpt>
      <trkpt lat="22.738515" lon="110.164016">
        <ele>91.291704</ele>
        <time>2026-08-16T03:44:49.000Z</time>
      </trkpt>
      <trkpt lat="22.738525" lon="110.164078">
        <ele>91.303006</ele>
        <time>2026-08-16T03:44:50.000Z</time>
      </trkpt>
      <trkpt lat="22.738534" lon="110.164140">
        <ele>91.314277</ele>
        <time>2026-08-16T03:44:51.000Z</time>
      </trkpt>
      <trkpt lat="22.738544" lon="110.164203">
        <ele>91.325756</ele>
        <time>2026-08-16T03:44:52.000Z</time>
      </trkpt>
      <trkpt lat="22.738554" lon="110.164265">
        <ele>91.337058</ele>
        <time>2026-08-16T03:44:53.000Z</time>
      </trkpt>
      <trkpt lat="22.738561" lon="110.164327">
        <ele>91.348275</ele>
        <time>2026-08-16T03:44:54.000Z</time>
      </trkpt>
      <trkpt lat="22.738568" lon="110.164389">
        <ele>91.359491</ele>
        <time>2026-08-16T03:44:55.000Z</time>
      </trkpt>
      <trkpt lat="22.738575" lon="110.164450">
        <ele>91.370530</ele>
        <time>2026-08-16T03:44:56.000Z</time>
      </trkpt>
      <trkpt lat="22.738580" lon="110.164510">
        <ele>91.381348</ele>
        <time>2026-08-16T03:44:57.000Z</time>
      </trkpt>
      <trkpt lat="22.738586" lon="110.164570">
        <ele>91.392185</ele>
        <time>2026-08-16T03:44:58.000Z</time>
      </trkpt>
      <trkpt lat="22.738593" lon="110.164631">
        <ele>91.403223</ele>
        <time>2026-08-16T03:44:59.000Z</time>
      </trkpt>
      <trkpt lat="22.738602" lon="110.164690">
        <ele>91.413962</ele>
        <time>2026-08-16T03:45:00.000Z</time>
      </trkpt>
      <trkpt lat="22.738614" lon="110.164750">
        <ele>91.424987</ele>
        <time>2026-08-16T03:45:01.000Z</time>
      </trkpt>
      <trkpt lat="22.738624" lon="110.164809">
        <ele>91.435759</ele>
        <time>2026-08-16T03:45:02.000Z</time>
      </trkpt>
      <trkpt lat="22.738633" lon="110.164867">
        <ele>91.446320</ele>
        <time>2026-08-16T03:45:03.000Z</time>
      </trkpt>
      <trkpt lat="22.738644" lon="110.164926">
        <ele>91.457129</ele>
        <time>2026-08-16T03:45:04.000Z</time>
      </trkpt>
      <trkpt lat="22.738653" lon="110.164986">
        <ele>91.468045</ele>
        <time>2026-08-16T03:45:05.000Z</time>
      </trkpt>
      <trkpt lat="22.738661" lon="110.165046">
        <ele>91.478931</ele>
        <time>2026-08-16T03:45:06.000Z</time>
      </trkpt>
      <trkpt lat="22.738670" lon="110.165106">
        <ele>91.489847</ele>
        <time>2026-08-16T03:45:07.000Z</time>
      </trkpt>
      <trkpt lat="22.738677" lon="110.165165">
        <ele>91.500529</ele>
        <time>2026-08-16T03:45:08.000Z</time>
      </trkpt>
      <trkpt lat="22.738685" lon="110.165225">
        <ele>91.511415</ele>
        <time>2026-08-16T03:45:09.000Z</time>
      </trkpt>
      <trkpt lat="22.738695" lon="110.165285">
        <ele>91.522364</ele>
        <time>2026-08-16T03:45:10.000Z</time>
      </trkpt>
      <trkpt lat="22.738704" lon="110.165344">
        <ele>91.533103</ele>
        <time>2026-08-16T03:45:11.000Z</time>
      </trkpt>
      <trkpt lat="22.738713" lon="110.165405">
        <ele>91.544196</ele>
        <time>2026-08-16T03:45:12.000Z</time>
      </trkpt>
      <trkpt lat="22.738721" lon="110.165463">
        <ele>91.554727</ele>
        <time>2026-08-16T03:45:13.000Z</time>
      </trkpt>
      <trkpt lat="22.738728" lon="110.165522">
        <ele>91.565409</ele>
        <time>2026-08-16T03:45:14.000Z</time>
      </trkpt>
      <trkpt lat="22.738737" lon="110.165580">
        <ele>91.575970</ele>
        <time>2026-08-16T03:45:15.000Z</time>
      </trkpt>
      <trkpt lat="22.738746" lon="110.165638">
        <ele>91.586532</ele>
        <time>2026-08-16T03:45:16.000Z</time>
      </trkpt>
      <trkpt lat="22.738754" lon="110.165696">
        <ele>91.597063</ele>
        <time>2026-08-16T03:45:17.000Z</time>
      </trkpt>
      <trkpt lat="22.738762" lon="110.165754">
        <ele>91.610930</ele>
        <time>2026-08-16T03:45:18.000Z</time>
      </trkpt>
      <trkpt lat="22.738771" lon="110.165812">
        <ele>91.625525</ele>
        <time>2026-08-16T03:45:19.000Z</time>
      </trkpt>
      <trkpt lat="22.738781" lon="110.165870">
        <ele>91.640167</ele>
        <time>2026-08-16T03:45:20.000Z</time>
      </trkpt>
      <trkpt lat="22.738791" lon="110.165927">
        <ele>91.654565</ele>
        <time>2026-08-16T03:45:21.000Z</time>
      </trkpt>
      <trkpt lat="22.738798" lon="110.165983">
        <ele>91.668588</ele>
        <time>2026-08-16T03:45:22.000Z</time>
      </trkpt>
      <trkpt lat="22.738804" lon="110.166039">
        <ele>91.682578</ele>
        <time>2026-08-16T03:45:23.000Z</time>
      </trkpt>
      <trkpt lat="22.738812" lon="110.166093">
        <ele>91.696149</ele>
        <time>2026-08-16T03:45:24.000Z</time>
      </trkpt>
      <trkpt lat="22.738820" lon="110.166146">
        <ele>91.709476</ele>
        <time>2026-08-16T03:45:25.000Z</time>
      </trkpt>
      <trkpt lat="22.738827" lon="110.166200">
        <ele>91.723008</ele>
        <time>2026-08-16T03:45:26.000Z</time>
      </trkpt>
      <trkpt lat="22.738835" lon="110.166253">
        <ele>91.736334</ele>
        <time>2026-08-16T03:45:27.000Z</time>
      </trkpt>
      <trkpt lat="22.738843" lon="110.166306">
        <ele>91.749661</ele>
        <time>2026-08-16T03:45:28.000Z</time>
      </trkpt>
      <trkpt lat="22.738852" lon="110.166359">
        <ele>91.763034</ele>
        <time>2026-08-16T03:45:29.000Z</time>
      </trkpt>
      <trkpt lat="22.738861" lon="110.166413">
        <ele>91.776651</ele>
        <time>2026-08-16T03:45:30.000Z</time>
      </trkpt>
      <trkpt lat="22.738869" lon="110.166465">
        <ele>91.789733</ele>
        <time>2026-08-16T03:45:31.000Z</time>
      </trkpt>
      <trkpt lat="22.738878" lon="110.166519">
        <ele>91.803350</ele>
        <time>2026-08-16T03:45:32.000Z</time>
      </trkpt>
      <trkpt lat="22.738887" lon="110.166572">
        <ele>91.816722</ele>
        <time>2026-08-16T03:45:33.000Z</time>
      </trkpt>
      <trkpt lat="22.738895" lon="110.166626">
        <ele>91.830294</ele>
        <time>2026-08-16T03:45:34.000Z</time>
      </trkpt>
      <trkpt lat="22.738904" lon="110.166678">
        <ele>91.843423</ele>
        <time>2026-08-16T03:45:35.000Z</time>
      </trkpt>
      <trkpt lat="22.738911" lon="110.166731">
        <ele>91.856709</ele>
        <time>2026-08-16T03:45:36.000Z</time>
      </trkpt>
      <trkpt lat="22.738918" lon="110.166784">
        <ele>91.869995</ele>
        <time>2026-08-16T03:45:37.000Z</time>
      </trkpt>
      <trkpt lat="22.738925" lon="110.166838">
        <ele>91.883526</ele>
        <time>2026-08-16T03:45:38.000Z</time>
      </trkpt>
      <trkpt lat="22.738933" lon="110.166894">
        <ele>91.897588</ele>
        <time>2026-08-16T03:45:39.000Z</time>
      </trkpt>
      <trkpt lat="22.738940" lon="110.166950">
        <ele>91.911612</ele>
        <time>2026-08-16T03:45:40.000Z</time>
      </trkpt>
      <trkpt lat="22.738948" lon="110.167005">
        <ele>91.925428</ele>
        <time>2026-08-16T03:45:41.000Z</time>
      </trkpt>
      <trkpt lat="22.738957" lon="110.167061">
        <ele>91.939534</ele>
        <time>2026-08-16T03:45:42.000Z</time>
      </trkpt>
      <trkpt lat="22.738964" lon="110.167116">
        <ele>91.953311</ele>
        <time>2026-08-16T03:45:43.000Z</time>
      </trkpt>
      <trkpt lat="22.738972" lon="110.167173">
        <ele>91.967619</ele>
        <time>2026-08-16T03:45:44.000Z</time>
      </trkpt>
      <trkpt lat="22.738981" lon="110.167229">
        <ele>91.981724</ele>
        <time>2026-08-16T03:45:45.000Z</time>
      </trkpt>
      <trkpt lat="22.738985" lon="110.167283">
        <ele>91.995167</ele>
        <time>2026-08-16T03:45:46.000Z</time>
      </trkpt>
      <trkpt lat="22.738992" lon="110.167337">
        <ele>92.008699</ele>
        <time>2026-08-16T03:45:47.000Z</time>
      </trkpt>
      <trkpt lat="22.739000" lon="110.167394">
        <ele>92.023006</ele>
        <time>2026-08-16T03:45:48.000Z</time>
      </trkpt>
      <trkpt lat="22.739008" lon="110.167449">
        <ele>92.036823</ele>
        <time>2026-08-16T03:45:49.000Z</time>
      </trkpt>
      <trkpt lat="22.739015" lon="110.167503">
        <ele>92.050354</ele>
        <time>2026-08-16T03:45:50.000Z</time>
      </trkpt>
      <trkpt lat="22.739024" lon="110.167558">
        <ele>92.064215</ele>
        <time>2026-08-16T03:45:51.000Z</time>
      </trkpt>
      <trkpt lat="22.739032" lon="110.167612">
        <ele>92.077787</ele>
        <time>2026-08-16T03:45:52.000Z</time>
      </trkpt>
      <trkpt lat="22.739041" lon="110.167667">
        <ele>92.086205</ele>
        <time>2026-08-16T03:45:53.000Z</time>
      </trkpt>
      <trkpt lat="22.739050" lon="110.167721">
        <ele>92.091448</ele>
        <time>2026-08-16T03:45:54.000Z</time>
      </trkpt>
      <trkpt lat="22.739055" lon="110.167774">
        <ele>92.096539</ele>
        <time>2026-08-16T03:45:55.000Z</time>
      </trkpt>
      <trkpt lat="22.739058" lon="110.167829">
        <ele>92.101803</ele>
        <time>2026-08-16T03:45:56.000Z</time>
      </trkpt>
      <trkpt lat="22.739061" lon="110.167882">
        <ele>92.106876</ele>
        <time>2026-08-16T03:45:57.000Z</time>
      </trkpt>
      <trkpt lat="22.739068" lon="110.167937">
        <ele>92.112181</ele>
        <time>2026-08-16T03:45:58.000Z</time>
      </trkpt>
      <trkpt lat="22.739074" lon="110.167991">
        <ele>92.117378</ele>
        <time>2026-08-16T03:45:59.000Z</time>
      </trkpt>
      <trkpt lat="22.739080" lon="110.168046">
        <ele>92.122669</ele>
        <time>2026-08-16T03:46:00.000Z</time>
      </trkpt>
      <trkpt lat="22.739085" lon="110.168101">
        <ele>92.127950</ele>
        <time>2026-08-16T03:46:01.000Z</time>
      </trkpt>
      <trkpt lat="22.739095" lon="110.168157">
        <ele>92.133400</ele>
        <time>2026-08-16T03:46:02.000Z</time>
      </trkpt>
      <trkpt lat="22.739104" lon="110.168213">
        <ele>92.138831</ele>
        <time>2026-08-16T03:46:03.000Z</time>
      </trkpt>
      <trkpt lat="22.739115" lon="110.168269">
        <ele>92.144301</ele>
        <time>2026-08-16T03:46:04.000Z</time>
      </trkpt>
      <trkpt lat="22.739127" lon="110.168328">
        <ele>92.150074</ele>
        <time>2026-08-16T03:46:05.000Z</time>
      </trkpt>
      <trkpt lat="22.739136" lon="110.168384">
        <ele>92.155505</ele>
        <time>2026-08-16T03:46:06.000Z</time>
      </trkpt>
      <trkpt lat="22.739146" lon="110.168441">
        <ele>92.161049</ele>
        <time>2026-08-16T03:46:07.000Z</time>
      </trkpt>
      <trkpt lat="22.739154" lon="110.168496">
        <ele>92.166369</ele>
        <time>2026-08-16T03:46:08.000Z</time>
      </trkpt>
      <trkpt lat="22.739165" lon="110.168552">
        <ele>92.171839</ele>
        <time>2026-08-16T03:46:09.000Z</time>
      </trkpt>
      <trkpt lat="22.739174" lon="110.168608">
        <ele>92.177271</ele>
        <time>2026-08-16T03:46:10.000Z</time>
      </trkpt>
      <trkpt lat="22.739184" lon="110.168664">
        <ele>92.182721</ele>
        <time>2026-08-16T03:46:11.000Z</time>
      </trkpt>
      <trkpt lat="22.739193" lon="110.168719">
        <ele>92.188058</ele>
        <time>2026-08-16T03:46:12.000Z</time>
      </trkpt>
      <trkpt lat="22.739200" lon="110.168774">
        <ele>92.193362</ele>
        <time>2026-08-16T03:46:13.000Z</time>
      </trkpt>
      <trkpt lat="22.739207" lon="110.168829">
        <ele>92.198667</ele>
        <time>2026-08-16T03:46:14.000Z</time>
      </trkpt>
      <trkpt lat="22.739214" lon="110.168885">
        <ele>92.204067</ele>
        <time>2026-08-16T03:46:15.000Z</time>
      </trkpt>
      <trkpt lat="22.739224" lon="110.168941">
        <ele>92.209517</ele>
        <time>2026-08-16T03:46:16.000Z</time>
      </trkpt>
      <trkpt lat="22.739234" lon="110.168997">
        <ele>92.214966</ele>
        <time>2026-08-16T03:46:17.000Z</time>
      </trkpt>
      <trkpt lat="22.739243" lon="110.169053">
        <ele>92.220398</ele>
        <time>2026-08-16T03:46:18.000Z</time>
      </trkpt>
      <trkpt lat="22.739253" lon="110.169111">
        <ele>92.226035</ele>
        <time>2026-08-16T03:46:19.000Z</time>
      </trkpt>
      <trkpt lat="22.739260" lon="110.169168">
        <ele>92.231529</ele>
        <time>2026-08-16T03:46:20.000Z</time>
      </trkpt>
      <trkpt lat="22.739267" lon="110.169223">
        <ele>92.236834</ele>
        <time>2026-08-16T03:46:21.000Z</time>
      </trkpt>
      <trkpt lat="22.739271" lon="110.169279">
        <ele>92.242201</ele>
        <time>2026-08-16T03:46:22.000Z</time>
      </trkpt>
      <trkpt lat="22.739275" lon="110.169334">
        <ele>92.247472</ele>
        <time>2026-08-16T03:46:23.000Z</time>
      </trkpt>
      <trkpt lat="22.739280" lon="110.169390">
        <ele>92.252848</ele>
        <time>2026-08-16T03:46:24.000Z</time>
      </trkpt>
      <trkpt lat="22.739289" lon="110.169445">
        <ele>92.258185</ele>
        <time>2026-08-16T03:46:25.000Z</time>
      </trkpt>
      <trkpt lat="22.739300" lon="110.169503">
        <ele>92.263842</ele>
        <time>2026-08-16T03:46:26.000Z</time>
      </trkpt>
      <trkpt lat="22.739306" lon="110.169558">
        <ele>92.269134</ele>
        <time>2026-08-16T03:46:27.000Z</time>
      </trkpt>
      <trkpt lat="22.739315" lon="110.169614">
        <ele>92.276553</ele>
        <time>2026-08-16T03:46:28.000Z</time>
      </trkpt>
      <trkpt lat="22.739325" lon="110.169672">
        <ele>92.284253</ele>
        <time>2026-08-16T03:46:29.000Z</time>
      </trkpt>
      <trkpt lat="22.739334" lon="110.169727">
        <ele>92.291542</ele>
        <time>2026-08-16T03:46:30.000Z</time>
      </trkpt>
      <trkpt lat="22.739343" lon="110.169782">
        <ele>92.298832</ele>
        <time>2026-08-16T03:46:31.000Z</time>
      </trkpt>
      <trkpt lat="22.739352" lon="110.169836">
        <ele>92.305993</ele>
        <time>2026-08-16T03:46:32.000Z</time>
      </trkpt>
      <trkpt lat="22.739365" lon="110.169889">
        <ele>92.313150</ele>
        <time>2026-08-16T03:46:33.000Z</time>
      </trkpt>
      <trkpt lat="22.739375" lon="110.169943">
        <ele>92.320338</ele>
        <time>2026-08-16T03:46:34.000Z</time>
      </trkpt>
      <trkpt lat="22.739384" lon="110.169998">
        <ele>92.327628</ele>
        <time>2026-08-16T03:46:35.000Z</time>
      </trkpt>
      <trkpt lat="22.739392" lon="110.170054">
        <ele>92.335023</ele>
        <time>2026-08-16T03:46:36.000Z</time>
      </trkpt>
      <trkpt lat="22.739399" lon="110.170109">
        <ele>92.342268</ele>
        <time>2026-08-16T03:46:37.000Z</time>
      </trkpt>
      <trkpt lat="22.739405" lon="110.170166">
        <ele>92.349755</ele>
        <time>2026-08-16T03:46:38.000Z</time>
      </trkpt>
      <trkpt lat="22.739411" lon="110.170223">
        <ele>92.357242</ele>
        <time>2026-08-16T03:46:39.000Z</time>
      </trkpt>
      <trkpt lat="22.739419" lon="110.170278">
        <ele>92.364508</ele>
        <time>2026-08-16T03:46:40.000Z</time>
      </trkpt>
      <trkpt lat="22.739426" lon="110.170333">
        <ele>92.371754</ele>
        <time>2026-08-16T03:46:41.000Z</time>
      </trkpt>
      <trkpt lat="22.739434" lon="110.170390">
        <ele>92.379278</ele>
        <time>2026-08-16T03:46:42.000Z</time>
      </trkpt>
      <trkpt lat="22.739442" lon="110.170447">
        <ele>92.386802</ele>
        <time>2026-08-16T03:46:43.000Z</time>
      </trkpt>
      <trkpt lat="22.739447" lon="110.170505">
        <ele>92.394404</ele>
        <time>2026-08-16T03:46:44.000Z</time>
      </trkpt>
      <trkpt lat="22.739453" lon="110.170563">
        <ele>92.402021</ele>
        <time>2026-08-16T03:46:45.000Z</time>
      </trkpt>
      <trkpt lat="22.739462" lon="110.170620">
        <ele>92.409567</ele>
        <time>2026-08-16T03:46:46.000Z</time>
      </trkpt>
      <trkpt lat="22.739473" lon="110.170676">
        <ele>92.417039</ele>
        <time>2026-08-16T03:46:47.000Z</time>
      </trkpt>
      <trkpt lat="22.739483" lon="110.170731">
        <ele>92.424355</ele>
        <time>2026-08-16T03:46:48.000Z</time>
      </trkpt>
      <trkpt lat="22.739494" lon="110.170786">
        <ele>92.431700</ele>
        <time>2026-08-16T03:46:49.000Z</time>
      </trkpt>
      <trkpt lat="22.739507" lon="110.170842">
        <ele>92.439236</ele>
        <time>2026-08-16T03:46:50.000Z</time>
      </trkpt>
      <trkpt lat="22.739518" lon="110.170898">
        <ele>92.446707</ele>
        <time>2026-08-16T03:46:51.000Z</time>
      </trkpt>
      <trkpt lat="22.739527" lon="110.170955">
        <ele>92.454254</ele>
        <time>2026-08-16T03:46:52.000Z</time>
      </trkpt>
      <trkpt lat="22.739536" lon="110.171014">
        <ele>92.462058</ele>
        <time>2026-08-16T03:46:53.000Z</time>
      </trkpt>
      <trkpt lat="22.739545" lon="110.171073">
        <ele>92.469863</ele>
        <time>2026-08-16T03:46:54.000Z</time>
      </trkpt>
      <trkpt lat="22.739555" lon="110.171132">
        <ele>92.477691</ele>
        <time>2026-08-16T03:46:55.000Z</time>
      </trkpt>
      <trkpt lat="22.739567" lon="110.171190">
        <ele>92.485448</ele>
        <time>2026-08-16T03:46:56.000Z</time>
      </trkpt>
      <trkpt lat="22.739579" lon="110.171247">
        <ele>92.493078</ele>
        <time>2026-08-16T03:46:57.000Z</time>
      </trkpt>
      <trkpt lat="22.739588" lon="110.171306">
        <ele>92.500882</ele>
        <time>2026-08-16T03:46:58.000Z</time>
      </trkpt>
      <trkpt lat="22.739596" lon="110.171363">
        <ele>92.508406</ele>
        <time>2026-08-16T03:46:59.000Z</time>
      </trkpt>
      <trkpt lat="22.739601" lon="110.171419">
        <ele>92.515749</ele>
        <time>2026-08-16T03:47:00.000Z</time>
      </trkpt>
      <trkpt lat="22.739607" lon="110.171473">
        <ele>92.522847</ele>
        <time>2026-08-16T03:47:01.000Z</time>
      </trkpt>
      <trkpt lat="22.739611" lon="110.171526">
        <ele>92.538164</ele>
        <time>2026-08-16T03:47:02.000Z</time>
      </trkpt>
      <trkpt lat="22.739616" lon="110.171578">
        <ele>92.554284</ele>
        <time>2026-08-16T03:47:03.000Z</time>
      </trkpt>
      <trkpt lat="22.739618" lon="110.171632">
        <ele>92.570948</ele>
        <time>2026-08-16T03:47:04.000Z</time>
      </trkpt>
      <trkpt lat="22.739627" lon="110.171689">
        <ele>92.588779</ele>
        <time>2026-08-16T03:47:05.000Z</time>
      </trkpt>
      <trkpt lat="22.739642" lon="110.171751">
        <ele>92.608542</ele>
        <time>2026-08-16T03:47:06.000Z</time>
      </trkpt>
      <trkpt lat="22.739656" lon="110.171809">
        <ele>92.627028</ele>
        <time>2026-08-16T03:47:07.000Z</time>
      </trkpt>
      <trkpt lat="22.739670" lon="110.171870">
        <ele>92.646411</ele>
        <time>2026-08-16T03:47:08.000Z</time>
      </trkpt>
      <trkpt lat="22.739682" lon="110.171927">
        <ele>92.664438</ele>
        <time>2026-08-16T03:47:09.000Z</time>
      </trkpt>
      <trkpt lat="22.739690" lon="110.171982">
        <ele>92.681606</ele>
        <time>2026-08-16T03:47:10.000Z</time>
      </trkpt>
      <trkpt lat="22.739698" lon="110.172037">
        <ele>92.698774</ele>
        <time>2026-08-16T03:47:11.000Z</time>
      </trkpt>
      <trkpt lat="22.739709" lon="110.172093">
        <ele>92.716428</ele>
        <time>2026-08-16T03:47:12.000Z</time>
      </trkpt>
      <trkpt lat="22.739716" lon="110.172149">
        <ele>92.733853</ele>
        <time>2026-08-16T03:47:13.000Z</time>
      </trkpt>
      <trkpt lat="22.739721" lon="110.172203">
        <ele>92.750587</ele>
        <time>2026-08-16T03:47:14.000Z</time>
      </trkpt>
      <trkpt lat="22.739727" lon="110.172254">
        <ele>92.766440</ele>
        <time>2026-08-16T03:47:15.000Z</time>
      </trkpt>
      <trkpt lat="22.739733" lon="110.172306">
        <ele>92.782598</ele>
        <time>2026-08-16T03:47:16.000Z</time>
      </trkpt>
      <trkpt lat="22.739739" lon="110.172358">
        <ele>92.798757</ele>
        <time>2026-08-16T03:47:17.000Z</time>
      </trkpt>
      <trkpt lat="22.739746" lon="110.172412">
        <ele>92.815571</ele>
        <time>2026-08-16T03:47:18.000Z</time>
      </trkpt>
      <trkpt lat="22.739753" lon="110.172468">
        <ele>92.832995</ele>
        <time>2026-08-16T03:47:19.000Z</time>
      </trkpt>
      <trkpt lat="22.739761" lon="110.172525">
        <ele>92.850773</ele>
        <time>2026-08-16T03:47:20.000Z</time>
      </trkpt>
      <trkpt lat="22.739771" lon="110.172580">
        <ele>92.868058</ele>
        <time>2026-08-16T03:47:21.000Z</time>
      </trkpt>
      <trkpt lat="22.739779" lon="110.172634">
        <ele>92.884922</ele>
        <time>2026-08-16T03:47:22.000Z</time>
      </trkpt>
      <trkpt lat="22.739789" lon="110.172690">
        <ele>92.902509</ele>
        <time>2026-08-16T03:47:23.000Z</time>
      </trkpt>
      <trkpt lat="22.739796" lon="110.172744">
        <ele>92.919323</ele>
        <time>2026-08-16T03:47:24.000Z</time>
      </trkpt>
      <trkpt lat="22.739801" lon="110.172796">
        <ele>92.935443</ele>
        <time>2026-08-16T03:47:25.000Z</time>
      </trkpt>
      <trkpt lat="22.739805" lon="110.172849">
        <ele>92.951840</ele>
        <time>2026-08-16T03:47:26.000Z</time>
      </trkpt>
      <trkpt lat="22.739810" lon="110.172901">
        <ele>92.967960</ele>
        <time>2026-08-16T03:47:27.000Z</time>
      </trkpt>
      <trkpt lat="22.739818" lon="110.172958">
        <ele>92.985738</ele>
        <time>2026-08-16T03:47:28.000Z</time>
      </trkpt>
      <trkpt lat="22.739824" lon="110.173012">
        <ele>93.002509</ele>
        <time>2026-08-16T03:47:29.000Z</time>
      </trkpt>
      <trkpt lat="22.739830" lon="110.173064">
        <ele>93.018667</ele>
        <time>2026-08-16T03:47:30.000Z</time>
      </trkpt>
      <trkpt lat="22.739837" lon="110.173115">
        <ele>93.034565</ele>
        <time>2026-08-16T03:47:31.000Z</time>
      </trkpt>
      <trkpt lat="22.739843" lon="110.173169">
        <ele>93.051336</ele>
        <time>2026-08-16T03:47:32.000Z</time>
      </trkpt>
      <trkpt lat="22.739847" lon="110.173221">
        <ele>93.067425</ele>
        <time>2026-08-16T03:47:33.000Z</time>
      </trkpt>
      <trkpt lat="22.739849" lon="110.173270">
        <ele>93.082549</ele>
        <time>2026-08-16T03:47:34.000Z</time>
      </trkpt>
      <trkpt lat="22.739852" lon="110.173321">
        <ele>93.098306</ele>
        <time>2026-08-16T03:47:35.000Z</time>
      </trkpt>
      <trkpt lat="22.739859" lon="110.173374">
        <ele>93.114814</ele>
        <time>2026-08-16T03:47:36.000Z</time>
      </trkpt>
      <trkpt lat="22.739865" lon="110.173423">
        <ele>93.126979</ele>
        <time>2026-08-16T03:47:37.000Z</time>
      </trkpt>
      <trkpt lat="22.739872" lon="110.173477">
        <ele>93.133623</ele>
        <time>2026-08-16T03:47:38.000Z</time>
      </trkpt>
      <trkpt lat="22.739880" lon="110.173531">
        <ele>93.140286</ele>
        <time>2026-08-16T03:47:39.000Z</time>
      </trkpt>
      <trkpt lat="22.739886" lon="110.173581">
        <ele>93.146430</ele>
        <time>2026-08-16T03:47:40.000Z</time>
      </trkpt>
      <trkpt lat="22.739895" lon="110.173632">
        <ele>93.152756</ele>
        <time>2026-08-16T03:47:41.000Z</time>
      </trkpt>
      <trkpt lat="22.739903" lon="110.173682">
        <ele>93.158939</ele>
        <time>2026-08-16T03:47:42.000Z</time>
      </trkpt>
      <trkpt lat="22.739915" lon="110.173732">
        <ele>93.165234</ele>
        <time>2026-08-16T03:47:43.000Z</time>
      </trkpt>
      <trkpt lat="22.739926" lon="110.173784">
        <ele>93.171734</ele>
        <time>2026-08-16T03:47:44.000Z</time>
      </trkpt>
      <trkpt lat="22.739938" lon="110.173839">
        <ele>93.178620</ele>
        <time>2026-08-16T03:47:45.000Z</time>
      </trkpt>
      <trkpt lat="22.739951" lon="110.173897">
        <ele>93.185893</ele>
        <time>2026-08-16T03:47:46.000Z</time>
      </trkpt>
      <trkpt lat="22.739967" lon="110.173949">
        <ele>93.192572</ele>
        <time>2026-08-16T03:47:47.000Z</time>
      </trkpt>
      <trkpt lat="22.739987" lon="110.174005">
        <ele>93.199888</ele>
        <time>2026-08-16T03:47:48.000Z</time>
      </trkpt>
      <trkpt lat="22.740008" lon="110.174058">
        <ele>93.206916</ele>
        <time>2026-08-16T03:47:49.000Z</time>
      </trkpt>
      <trkpt lat="22.740026" lon="110.174108">
        <ele>93.213456</ele>
        <time>2026-08-16T03:47:50.000Z</time>
      </trkpt>
      <trkpt lat="22.740043" lon="110.174159">
        <ele>93.220063</ele>
        <time>2026-08-16T03:47:51.000Z</time>
      </trkpt>
      <trkpt lat="22.740064" lon="110.174211">
        <ele>93.226980</ele>
        <time>2026-08-16T03:47:52.000Z</time>
      </trkpt>
      <trkpt lat="22.740088" lon="110.174264">
        <ele>93.234173</ele>
        <time>2026-08-16T03:47:53.000Z</time>
      </trkpt>
      <trkpt lat="22.740110" lon="110.174316">
        <ele>93.241144</ele>
        <time>2026-08-16T03:47:54.000Z</time>
      </trkpt>
      <trkpt lat="22.740133" lon="110.174368">
        <ele>93.248170</ele>
        <time>2026-08-16T03:47:55.000Z</time>
      </trkpt>
      <trkpt lat="22.740157" lon="110.174421">
        <ele>93.255364</ele>
        <time>2026-08-16T03:47:56.000Z</time>
      </trkpt>
      <trkpt lat="22.740181" lon="110.174471">
        <ele>93.262232</ele>
        <time>2026-08-16T03:47:57.000Z</time>
      </trkpt>
      <trkpt lat="22.740211" lon="110.174516">
        <ele>93.268997</ele>
        <time>2026-08-16T03:47:58.000Z</time>
      </trkpt>
      <trkpt lat="22.740237" lon="110.174564">
        <ele>93.275779</ele>
        <time>2026-08-16T03:47:59.000Z</time>
      </trkpt>
      <trkpt lat="22.740262" lon="110.174611">
        <ele>93.282390</ele>
        <time>2026-08-16T03:48:00.000Z</time>
      </trkpt>
      <trkpt lat="22.740287" lon="110.174661">
        <ele>93.289320</ele>
        <time>2026-08-16T03:48:01.000Z</time>
      </trkpt>
      <trkpt lat="22.740312" lon="110.174710">
        <ele>93.296142</ele>
        <time>2026-08-16T03:48:02.000Z</time>
      </trkpt>
      <trkpt lat="22.740337" lon="110.174759">
        <ele>93.302965</ele>
        <time>2026-08-16T03:48:03.000Z</time>
      </trkpt>
      <trkpt lat="22.740363" lon="110.174807">
        <ele>93.309747</ele>
        <time>2026-08-16T03:48:04.000Z</time>
      </trkpt>
      <trkpt lat="22.740387" lon="110.174854">
        <ele>93.316293</ele>
        <time>2026-08-16T03:48:05.000Z</time>
      </trkpt>
      <trkpt lat="22.740412" lon="110.174903">
        <ele>93.323116</ele>
        <time>2026-08-16T03:48:06.000Z</time>
      </trkpt>
      <trkpt lat="22.740440" lon="110.174953">
        <ele>93.330243</ele>
        <time>2026-08-16T03:48:07.000Z</time>
      </trkpt>
      <trkpt lat="22.740465" lon="110.175000">
        <ele>93.336853</ele>
        <time>2026-08-16T03:48:08.000Z</time>
      </trkpt>
      <trkpt lat="22.740490" lon="110.175047">
        <ele>93.343464</ele>
        <time>2026-08-16T03:48:09.000Z</time>
      </trkpt>
      <trkpt lat="22.740514" lon="110.175094">
        <ele>93.350009</ele>
        <time>2026-08-16T03:48:10.000Z</time>
      </trkpt>
      <trkpt lat="22.740540" lon="110.175140">
        <ele>93.356583</ele>
        <time>2026-08-16T03:48:11.000Z</time>
      </trkpt>
      <trkpt lat="22.740566" lon="110.175186">
        <ele>93.363057</ele>
        <time>2026-08-16T03:48:12.000Z</time>
      </trkpt>
      <trkpt lat="22.740592" lon="110.175233">
        <ele>93.368583</ele>
        <time>2026-08-16T03:48:13.000Z</time>
      </trkpt>
      <trkpt lat="22.740614" lon="110.175282">
        <ele>93.374077</ele>
        <time>2026-08-16T03:48:14.000Z</time>
      </trkpt>
      <trkpt lat="22.740640" lon="110.175329">
        <ele>93.379603</ele>
        <time>2026-08-16T03:48:15.000Z</time>
      </trkpt>
      <trkpt lat="22.740665" lon="110.175377">
        <ele>93.385160</ele>
        <time>2026-08-16T03:48:16.000Z</time>
      </trkpt>
      <trkpt lat="22.740688" lon="110.175422">
        <ele>93.390347</ele>
        <time>2026-08-16T03:48:17.000Z</time>
      </trkpt>
      <trkpt lat="22.740712" lon="110.175468">
        <ele>93.395676</ele>
        <time>2026-08-16T03:48:18.000Z</time>
      </trkpt>
      <trkpt lat="22.740733" lon="110.175510">
        <ele>93.400492</ele>
        <time>2026-08-16T03:48:19.000Z</time>
      </trkpt>
      <trkpt lat="22.740757" lon="110.175552">
        <ele>93.405473</ele>
        <time>2026-08-16T03:48:20.000Z</time>
      </trkpt>
      <trkpt lat="22.740780" lon="110.175592">
        <ele>93.410226</ele>
        <time>2026-08-16T03:48:21.000Z</time>
      </trkpt>
      <trkpt lat="22.740796" lon="110.175624">
        <ele>93.413896</ele>
        <time>2026-08-16T03:48:22.000Z</time>
      </trkpt>
      <trkpt lat="22.740817" lon="110.175658">
        <ele>93.418021</ele>
        <time>2026-08-16T03:48:23.000Z</time>
      </trkpt>
      <trkpt lat="22.740837" lon="110.175690">
        <ele>93.421918</ele>
        <time>2026-08-16T03:48:24.000Z</time>
      </trkpt>
      <trkpt lat="22.740854" lon="110.175722">
        <ele>93.425641</ele>
        <time>2026-08-16T03:48:25.000Z</time>
      </trkpt>
      <trkpt lat="22.740874" lon="110.175755">
        <ele>93.429623</ele>
        <time>2026-08-16T03:48:26.000Z</time>
      </trkpt>
      <trkpt lat="22.740889" lon="110.175788">
        <ele>93.433332</ele>
        <time>2026-08-16T03:48:27.000Z</time>
      </trkpt>
      <trkpt lat="22.740901" lon="110.175821">
        <ele>93.436908</ele>
        <time>2026-08-16T03:48:28.000Z</time>
      </trkpt>
      <trkpt lat="22.740915" lon="110.175857">
        <ele>93.440847</ele>
        <time>2026-08-16T03:48:29.000Z</time>
      </trkpt>
      <trkpt lat="22.740933" lon="110.175895">
        <ele>93.445154</ele>
        <time>2026-08-16T03:48:30.000Z</time>
      </trkpt>
      <trkpt lat="22.740952" lon="110.175932">
        <ele>93.449423</ele>
        <time>2026-08-16T03:48:31.000Z</time>
      </trkpt>
      <trkpt lat="22.740972" lon="110.175969">
        <ele>93.453747</ele>
        <time>2026-08-16T03:48:32.000Z</time>
      </trkpt>
      <trkpt lat="22.740993" lon="110.176005">
        <ele>93.458042</ele>
        <time>2026-08-16T03:48:33.000Z</time>
      </trkpt>
      <trkpt lat="22.741012" lon="110.176041">
        <ele>93.462223</ele>
        <time>2026-08-16T03:48:34.000Z</time>
      </trkpt>
      <trkpt lat="22.741031" lon="110.176079">
        <ele>93.466581</ele>
        <time>2026-08-16T03:48:35.000Z</time>
      </trkpt>
      <trkpt lat="22.741050" lon="110.176118">
        <ele>93.471028</ele>
        <time>2026-08-16T03:48:36.000Z</time>
      </trkpt>
      <trkpt lat="22.741068" lon="110.176157">
        <ele>93.475425</ele>
        <time>2026-08-16T03:48:37.000Z</time>
      </trkpt>
      <trkpt lat="22.741083" lon="110.176197">
        <ele>93.479778</ele>
        <time>2026-08-16T03:48:38.000Z</time>
      </trkpt>
      <trkpt lat="22.741100" lon="110.176237">
        <ele>93.484218</ele>
        <time>2026-08-16T03:48:39.000Z</time>
      </trkpt>
      <trkpt lat="22.741118" lon="110.176277">
        <ele>93.488706</ele>
        <time>2026-08-16T03:48:40.000Z</time>
      </trkpt>
      <trkpt lat="22.741136" lon="110.176320">
        <ele>93.493466</ele>
        <time>2026-08-16T03:48:41.000Z</time>
      </trkpt>
      <trkpt lat="22.741156" lon="110.176367">
        <ele>93.498685</ele>
        <time>2026-08-16T03:48:42.000Z</time>
      </trkpt>
      <trkpt lat="22.741177" lon="110.176416">
        <ele>93.504132</ele>
        <time>2026-08-16T03:48:43.000Z</time>
      </trkpt>
      <trkpt lat="22.741199" lon="110.176466">
        <ele>93.509717</ele>
        <time>2026-08-16T03:48:44.000Z</time>
      </trkpt>
      <trkpt lat="22.741221" lon="110.176515">
        <ele>93.515212</ele>
        <time>2026-08-16T03:48:45.000Z</time>
      </trkpt>
      <trkpt lat="22.741242" lon="110.176565">
        <ele>93.520751</ele>
        <time>2026-08-16T03:48:46.000Z</time>
      </trkpt>
      <trkpt lat="22.741268" lon="110.176614">
        <ele>93.526450</ele>
        <time>2026-08-16T03:48:47.000Z</time>
      </trkpt>
      <trkpt lat="22.741289" lon="110.176665">
        <ele>93.532081</ele>
        <time>2026-08-16T03:48:48.000Z</time>
      </trkpt>
      <trkpt lat="22.741311" lon="110.176714">
        <ele>93.537576</ele>
        <time>2026-08-16T03:48:49.000Z</time>
      </trkpt>
      <trkpt lat="22.741334" lon="110.176762">
        <ele>93.543029</ele>
        <time>2026-08-16T03:48:50.000Z</time>
      </trkpt>
      <trkpt lat="22.741357" lon="110.176809">
        <ele>93.548393</ele>
        <time>2026-08-16T03:48:51.000Z</time>
      </trkpt>
      <trkpt lat="22.741379" lon="110.176857">
        <ele>93.553797</ele>
        <time>2026-08-16T03:48:52.000Z</time>
      </trkpt>
      <trkpt lat="22.741401" lon="110.176906">
        <ele>93.559013</ele>
        <time>2026-08-16T03:48:53.000Z</time>
      </trkpt>
      <trkpt lat="22.741419" lon="110.176954">
        <ele>93.547518</ele>
        <time>2026-08-16T03:48:54.000Z</time>
      </trkpt>
      <trkpt lat="22.741439" lon="110.177003">
        <ele>93.535631</ele>
        <time>2026-08-16T03:48:55.000Z</time>
      </trkpt>
      <trkpt lat="22.741460" lon="110.177051">
        <ele>93.523845</ele>
        <time>2026-08-16T03:48:56.000Z</time>
      </trkpt>
      <trkpt lat="22.741486" lon="110.177099">
        <ele>93.511496</ele>
        <time>2026-08-16T03:48:57.000Z</time>
      </trkpt>
      <trkpt lat="22.741515" lon="110.177149">
        <ele>93.498393</ele>
        <time>2026-08-16T03:48:58.000Z</time>
      </trkpt>
      <trkpt lat="22.741542" lon="110.177199">
        <ele>93.485539</ele>
        <time>2026-08-16T03:48:59.000Z</time>
      </trkpt>
      <trkpt lat="22.741566" lon="110.177250">
        <ele>93.472837</ele>
        <time>2026-08-16T03:49:00.000Z</time>
      </trkpt>
      <trkpt lat="22.741589" lon="110.177303">
        <ele>93.459843</ele>
        <time>2026-08-16T03:49:01.000Z</time>
      </trkpt>
      <trkpt lat="22.741615" lon="110.177355">
        <ele>93.446721</ele>
        <time>2026-08-16T03:49:02.000Z</time>
      </trkpt>
      <trkpt lat="22.741642" lon="110.177408">
        <ele>93.433289</ele>
        <time>2026-08-16T03:49:03.000Z</time>
      </trkpt>
      <trkpt lat="22.741667" lon="110.177462">
        <ele>93.419885</ele>
        <time>2026-08-16T03:49:04.000Z</time>
      </trkpt>
      <trkpt lat="22.741689" lon="110.177515">
        <ele>93.406992</ele>
        <time>2026-08-16T03:49:05.000Z</time>
      </trkpt>
      <trkpt lat="22.741715" lon="110.177568">
        <ele>93.393674</ele>
        <time>2026-08-16T03:49:06.000Z</time>
      </trkpt>
      <trkpt lat="22.741742" lon="110.177624">
        <ele>93.379656</ele>
        <time>2026-08-16T03:49:07.000Z</time>
      </trkpt>
      <trkpt lat="22.741764" lon="110.177673">
        <ele>93.367566</ele>
        <time>2026-08-16T03:49:08.000Z</time>
      </trkpt>
      <trkpt lat="22.741791" lon="110.177727">
        <ele>93.353940</ele>
        <time>2026-08-16T03:49:09.000Z</time>
      </trkpt>
      <trkpt lat="22.741819" lon="110.177781">
        <ele>93.340197</ele>
        <time>2026-08-16T03:49:10.000Z</time>
      </trkpt>
      <trkpt lat="22.741849" lon="110.177838">
        <ele>93.325638</ele>
        <time>2026-08-16T03:49:11.000Z</time>
      </trkpt>
      <trkpt lat="22.741877" lon="110.177893">
        <ele>93.311701</ele>
        <time>2026-08-16T03:49:12.000Z</time>
      </trkpt>
      <trkpt lat="22.741906" lon="110.177949">
        <ele>93.297453</ele>
        <time>2026-08-16T03:49:13.000Z</time>
      </trkpt>
      <trkpt lat="22.741933" lon="110.178003">
        <ele>93.283827</ele>
        <time>2026-08-16T03:49:14.000Z</time>
      </trkpt>
      <trkpt lat="22.741960" lon="110.178058">
        <ele>93.270005</ele>
        <time>2026-08-16T03:49:15.000Z</time>
      </trkpt>
      <trkpt lat="22.741984" lon="110.178113">
        <ele>93.256507</ele>
        <time>2026-08-16T03:49:16.000Z</time>
      </trkpt>
      <trkpt lat="22.742008" lon="110.178170">
        <ele>93.242606</ele>
        <time>2026-08-16T03:49:17.000Z</time>
      </trkpt>
      <trkpt lat="22.742039" lon="110.178227">
        <ele>93.227926</ele>
        <time>2026-08-16T03:49:18.000Z</time>
      </trkpt>
      <trkpt lat="22.742062" lon="110.178282">
        <ele>93.214530</ele>
        <time>2026-08-16T03:49:19.000Z</time>
      </trkpt>
      <trkpt lat="22.742086" lon="110.178337">
        <ele>93.201032</ele>
        <time>2026-08-16T03:49:20.000Z</time>
      </trkpt>
      <trkpt lat="22.742110" lon="110.178391">
        <ele>93.187734</ele>
        <time>2026-08-16T03:49:21.000Z</time>
      </trkpt>
      <trkpt lat="22.742133" lon="110.178446">
        <ele>93.174337</ele>
        <time>2026-08-16T03:49:22.000Z</time>
      </trkpt>
      <trkpt lat="22.742156" lon="110.178501">
        <ele>93.160940</ele>
        <time>2026-08-16T03:49:23.000Z</time>
      </trkpt>
      <trkpt lat="22.742180" lon="110.178555">
        <ele>93.147642</ele>
        <time>2026-08-16T03:49:24.000Z</time>
      </trkpt>
      <trkpt lat="22.742205" lon="110.178608">
        <ele>93.134436</ele>
        <time>2026-08-16T03:49:25.000Z</time>
      </trkpt>
      <trkpt lat="22.742231" lon="110.178660">
        <ele>93.132484</ele>
        <time>2026-08-16T03:49:26.000Z</time>
      </trkpt>
      <trkpt lat="22.742257" lon="110.178712">
        <ele>93.147315</ele>
        <time>2026-08-16T03:49:27.000Z</time>
      </trkpt>
      <trkpt lat="22.742289" lon="110.178767">
        <ele>93.163620</ele>
        <time>2026-08-16T03:49:28.000Z</time>
      </trkpt>
      <trkpt lat="22.742319" lon="110.178824">
        <ele>93.180076</ele>
        <time>2026-08-16T03:49:29.000Z</time>
      </trkpt>
      <trkpt lat="22.742345" lon="110.178875">
        <ele>93.194687</ele>
        <time>2026-08-16T03:49:30.000Z</time>
      </trkpt>
      <trkpt lat="22.742376" lon="110.178927">
        <ele>93.210212</ele>
        <time>2026-08-16T03:49:31.000Z</time>
      </trkpt>
      <trkpt lat="22.742402" lon="110.178981">
        <ele>93.225486</ele>
        <time>2026-08-16T03:49:32.000Z</time>
      </trkpt>
      <trkpt lat="22.742435" lon="110.179034">
        <ele>93.241521</ele>
        <time>2026-08-16T03:49:33.000Z</time>
      </trkpt>
      <trkpt lat="22.742462" lon="110.179086">
        <ele>93.256483</ele>
        <time>2026-08-16T03:49:34.000Z</time>
      </trkpt>
      <trkpt lat="22.742492" lon="110.179139">
        <ele>93.272076</ele>
        <time>2026-08-16T03:49:35.000Z</time>
      </trkpt>
      <trkpt lat="22.742518" lon="110.179190">
        <ele>93.286687</ele>
        <time>2026-08-16T03:49:36.000Z</time>
      </trkpt>
      <trkpt lat="22.742543" lon="110.179246">
        <ele>93.302287</ele>
        <time>2026-08-16T03:49:37.000Z</time>
      </trkpt>
      <trkpt lat="22.742567" lon="110.179298">
        <ele>93.316867</ele>
        <time>2026-08-16T03:49:38.000Z</time>
      </trkpt>
      <trkpt lat="22.742593" lon="110.179349">
        <ele>93.331478</ele>
        <time>2026-08-16T03:49:39.000Z</time>
      </trkpt>
      <trkpt lat="22.742621" lon="110.179400">
        <ele>93.346360</ele>
        <time>2026-08-16T03:49:40.000Z</time>
      </trkpt>
      <trkpt lat="22.742648" lon="110.179452">
        <ele>93.361322</ele>
        <time>2026-08-16T03:49:41.000Z</time>
      </trkpt>
      <trkpt lat="22.742670" lon="110.179502">
        <ele>93.375213</ele>
        <time>2026-08-16T03:49:42.000Z</time>
      </trkpt>
      <trkpt lat="22.742695" lon="110.179551">
        <ele>93.389254</ele>
        <time>2026-08-16T03:49:43.000Z</time>
      </trkpt>
      <trkpt lat="22.742727" lon="110.179598">
        <ele>93.403902</ele>
        <time>2026-08-16T03:49:44.000Z</time>
      </trkpt>
      <trkpt lat="22.742759" lon="110.179642">
        <ele>93.417952</ele>
        <time>2026-08-16T03:49:45.000Z</time>
      </trkpt>
      <trkpt lat="22.742796" lon="110.179686">
        <ele>93.432882</ele>
        <time>2026-08-16T03:49:46.000Z</time>
      </trkpt>
      <trkpt lat="22.742832" lon="110.179729">
        <ele>93.447443</ele>
        <time>2026-08-16T03:49:47.000Z</time>
      </trkpt>
      <trkpt lat="22.742874" lon="110.179772">
        <ele>93.463148</ele>
        <time>2026-08-16T03:49:48.000Z</time>
      </trkpt>
      <trkpt lat="22.742917" lon="110.179814">
        <ele>93.478882</ele>
        <time>2026-08-16T03:49:49.000Z</time>
      </trkpt>
      <trkpt lat="22.742958" lon="110.179856">
        <ele>93.494217</ele>
        <time>2026-08-16T03:49:50.000Z</time>
      </trkpt>
      <trkpt lat="22.742998" lon="110.179894">
        <ele>93.508675</ele>
        <time>2026-08-16T03:49:51.000Z</time>
      </trkpt>
      <trkpt lat="22.743039" lon="110.179935">
        <ele>93.523839</ele>
        <time>2026-08-16T03:49:52.000Z</time>
      </trkpt>
      <trkpt lat="22.743083" lon="110.179974">
        <ele>93.539290</ele>
        <time>2026-08-16T03:49:53.000Z</time>
      </trkpt>
      <trkpt lat="22.743128" lon="110.180011">
        <ele>93.554644</ele>
        <time>2026-08-16T03:49:54.000Z</time>
      </trkpt>
      <trkpt lat="22.743172" lon="110.180051">
        <ele>93.570254</ele>
        <time>2026-08-16T03:49:55.000Z</time>
      </trkpt>
      <trkpt lat="22.743216" lon="110.180092">
        <ele>93.586027</ele>
        <time>2026-08-16T03:49:56.000Z</time>
      </trkpt>
      <trkpt lat="22.743259" lon="110.180134">
        <ele>93.601761</ele>
        <time>2026-08-16T03:49:57.000Z</time>
      </trkpt>
      <trkpt lat="22.743301" lon="110.180176">
        <ele>93.616678</ele>
        <time>2026-08-16T03:49:58.000Z</time>
      </trkpt>
      <trkpt lat="22.743345" lon="110.180218">
        <ele>93.626938</ele>
        <time>2026-08-16T03:49:59.000Z</time>
      </trkpt>
      <trkpt lat="22.743387" lon="110.180260">
        <ele>93.636938</ele>
        <time>2026-08-16T03:50:00.000Z</time>
      </trkpt>
      <trkpt lat="22.743427" lon="110.180304">
        <ele>93.646912</ele>
        <time>2026-08-16T03:50:01.000Z</time>
      </trkpt>
      <trkpt lat="22.743470" lon="110.180344">
        <ele>93.656828</ele>
        <time>2026-08-16T03:50:02.000Z</time>
      </trkpt>
      <trkpt lat="22.743514" lon="110.180384">
        <ele>93.666878</ele>
        <time>2026-08-16T03:50:03.000Z</time>
      </trkpt>
      <trkpt lat="22.743556" lon="110.180425">
        <ele>93.676770</ele>
        <time>2026-08-16T03:50:04.000Z</time>
      </trkpt>
      <trkpt lat="22.743602" lon="110.180462">
        <ele>93.686795</ele>
        <time>2026-08-16T03:50:05.000Z</time>
      </trkpt>
      <trkpt lat="22.743649" lon="110.180499">
        <ele>93.696960</ele>
        <time>2026-08-16T03:50:06.000Z</time>
      </trkpt>
      <trkpt lat="22.743694" lon="110.180535">
        <ele>93.706749</ele>
        <time>2026-08-16T03:50:07.000Z</time>
      </trkpt>
      <trkpt lat="22.743739" lon="110.180573">
        <ele>93.716732</ele>
        <time>2026-08-16T03:50:08.000Z</time>
      </trkpt>
      <trkpt lat="22.743783" lon="110.180608">
        <ele>93.726283</ele>
        <time>2026-08-16T03:50:09.000Z</time>
      </trkpt>
      <trkpt lat="22.743828" lon="110.180642">
        <ele>93.735883</ele>
        <time>2026-08-16T03:50:10.000Z</time>
      </trkpt>
      <trkpt lat="22.743874" lon="110.180677">
        <ele>93.745719</ele>
        <time>2026-08-16T03:50:11.000Z</time>
      </trkpt>
      <trkpt lat="22.743921" lon="110.180710">
        <ele>93.755520</ele>
        <time>2026-08-16T03:50:12.000Z</time>
      </trkpt>
      <trkpt lat="22.743967" lon="110.180738">
        <ele>93.764753</ele>
        <time>2026-08-16T03:50:13.000Z</time>
      </trkpt>
      <trkpt lat="22.744016" lon="110.180765">
        <ele>93.774373</ele>
        <time>2026-08-16T03:50:14.000Z</time>
      </trkpt>
      <trkpt lat="22.744065" lon="110.180789">
        <ele>93.783784</ele>
        <time>2026-08-16T03:50:15.000Z</time>
      </trkpt>
      <trkpt lat="22.744113" lon="110.180817">
        <ele>93.793324</ele>
        <time>2026-08-16T03:50:16.000Z</time>
      </trkpt>
      <trkpt lat="22.744160" lon="110.180844">
        <ele>93.802634</ele>
        <time>2026-08-16T03:50:17.000Z</time>
      </trkpt>
      <trkpt lat="22.744206" lon="110.180871">
        <ele>93.811789</ele>
        <time>2026-08-16T03:50:18.000Z</time>
      </trkpt>
      <trkpt lat="22.744251" lon="110.180897">
        <ele>93.820714</ele>
        <time>2026-08-16T03:50:19.000Z</time>
      </trkpt>
      <trkpt lat="22.744296" lon="110.180926">
        <ele>93.829877</ele>
        <time>2026-08-16T03:50:20.000Z</time>
      </trkpt>
      <trkpt lat="22.744339" lon="110.180955">
        <ele>93.838740</ele>
        <time>2026-08-16T03:50:21.000Z</time>
      </trkpt>
      <trkpt lat="22.744383" lon="110.180985">
        <ele>93.847837</ele>
        <time>2026-08-16T03:50:22.000Z</time>
      </trkpt>
      <trkpt lat="22.744429" lon="110.181015">
        <ele>93.857233</ele>
        <time>2026-08-16T03:50:23.000Z</time>
      </trkpt>
      <trkpt lat="22.744477" lon="110.181040">
        <ele>93.866553</ele>
        <time>2026-08-16T03:50:24.000Z</time>
      </trkpt>
      <trkpt lat="22.744527" lon="110.181065">
        <ele>93.876190</ele>
        <time>2026-08-16T03:50:25.000Z</time>
      </trkpt>
      <trkpt lat="22.744575" lon="110.181091">
        <ele>93.885582</ele>
        <time>2026-08-16T03:50:26.000Z</time>
      </trkpt>
      <trkpt lat="22.744624" lon="110.181118">
        <ele>93.895202</ele>
        <time>2026-08-16T03:50:27.000Z</time>
      </trkpt>
      <trkpt lat="22.744672" lon="110.181148">
        <ele>93.904900</ele>
        <time>2026-08-16T03:50:28.000Z</time>
      </trkpt>
      <trkpt lat="22.744720" lon="110.181178">
        <ele>93.914597</ele>
        <time>2026-08-16T03:50:29.000Z</time>
      </trkpt>
      <trkpt lat="22.744769" lon="110.181207">
        <ele>93.924368</ele>
        <time>2026-08-16T03:50:30.000Z</time>
      </trkpt>
      <trkpt lat="22.744818" lon="110.181235">
        <ele>93.930220</ele>
        <time>2026-08-16T03:50:31.000Z</time>
      </trkpt>
      <trkpt lat="22.744865" lon="110.181262">
        <ele>93.929814</ele>
        <time>2026-08-16T03:50:32.000Z</time>
      </trkpt>
      <trkpt lat="22.744913" lon="110.181293">
        <ele>93.929387</ele>
        <time>2026-08-16T03:50:33.000Z</time>
      </trkpt>
      <trkpt lat="22.744962" lon="110.181321">
        <ele>93.928964</ele>
        <time>2026-08-16T03:50:34.000Z</time>
      </trkpt>
      <trkpt lat="22.745012" lon="110.181349">
        <ele>93.928534</ele>
        <time>2026-08-16T03:50:35.000Z</time>
      </trkpt>
      <trkpt lat="22.745061" lon="110.181379">
        <ele>93.928105</ele>
        <time>2026-08-16T03:50:36.000Z</time>
      </trkpt>
      <trkpt lat="22.745112" lon="110.181403">
        <ele>93.927680</ele>
        <time>2026-08-16T03:50:37.000Z</time>
      </trkpt>
      <trkpt lat="22.745162" lon="110.181431">
        <ele>93.927250</ele>
        <time>2026-08-16T03:50:38.000Z</time>
      </trkpt>
      <trkpt lat="22.745208" lon="110.181462">
        <ele>93.926837</ele>
        <time>2026-08-16T03:50:39.000Z</time>
      </trkpt>
      <trkpt lat="22.745253" lon="110.181497">
        <ele>93.926414</ele>
        <time>2026-08-16T03:50:40.000Z</time>
      </trkpt>
      <trkpt lat="22.745299" lon="110.181531">
        <ele>93.925988</ele>
        <time>2026-08-16T03:50:41.000Z</time>
      </trkpt>
      <trkpt lat="22.745345" lon="110.181563">
        <ele>93.925571</ele>
        <time>2026-08-16T03:50:42.000Z</time>
      </trkpt>
      <trkpt lat="22.745391" lon="110.181595">
        <ele>93.925154</ele>
        <time>2026-08-16T03:50:43.000Z</time>
      </trkpt>
      <trkpt lat="22.745438" lon="110.181625">
        <ele>93.924737</ele>
        <time>2026-08-16T03:50:44.000Z</time>
      </trkpt>
      <trkpt lat="22.745483" lon="110.181657">
        <ele>93.924326</ele>
        <time>2026-08-16T03:50:45.000Z</time>
      </trkpt>
      <trkpt lat="22.745530" lon="110.181685">
        <ele>93.923917</ele>
        <time>2026-08-16T03:50:46.000Z</time>
      </trkpt>
      <trkpt lat="22.745577" lon="110.181715">
        <ele>93.923500</ele>
        <time>2026-08-16T03:50:47.000Z</time>
      </trkpt>
      <trkpt lat="22.745621" lon="110.181746">
        <ele>93.923099</ele>
        <time>2026-08-16T03:50:48.000Z</time>
      </trkpt>
      <trkpt lat="22.745667" lon="110.181781">
        <ele>93.922670</ele>
        <time>2026-08-16T03:50:49.000Z</time>
      </trkpt>
      <trkpt lat="22.745714" lon="110.181813">
        <ele>93.922246</ele>
        <time>2026-08-16T03:50:50.000Z</time>
      </trkpt>
      <trkpt lat="22.745758" lon="110.181847">
        <ele>93.921834</ele>
        <time>2026-08-16T03:50:51.000Z</time>
      </trkpt>
      <trkpt lat="22.745796" lon="110.181884">
        <ele>93.921443</ele>
        <time>2026-08-16T03:50:52.000Z</time>
      </trkpt>
      <trkpt lat="22.745831" lon="110.181928">
        <ele>93.921034</ele>
        <time>2026-08-16T03:50:53.000Z</time>
      </trkpt>
      <trkpt lat="22.745863" lon="110.181976">
        <ele>93.920617</ele>
        <time>2026-08-16T03:50:54.000Z</time>
      </trkpt>
      <trkpt lat="22.745886" lon="110.182026">
        <ele>93.920223</ele>
        <time>2026-08-16T03:50:55.000Z</time>
      </trkpt>
      <trkpt lat="22.745898" lon="110.182082">
        <ele>93.919818</ele>
        <time>2026-08-16T03:50:56.000Z</time>
      </trkpt>
      <trkpt lat="22.745908" lon="110.182138">
        <ele>93.919417</ele>
        <time>2026-08-16T03:50:57.000Z</time>
      </trkpt>
      <trkpt lat="22.745915" lon="110.182196">
        <ele>93.919005</ele>
        <time>2026-08-16T03:50:58.000Z</time>
      </trkpt>
      <trkpt lat="22.745917" lon="110.182255">
        <ele>93.918589</ele>
        <time>2026-08-16T03:50:59.000Z</time>
      </trkpt>
      <trkpt lat="22.745920" lon="110.182316">
        <ele>93.918159</ele>
        <time>2026-08-16T03:51:00.000Z</time>
      </trkpt>
      <trkpt lat="22.745925" lon="110.182380">
        <ele>93.917706</ele>
        <time>2026-08-16T03:51:01.000Z</time>
      </trkpt>
      <trkpt lat="22.745930" lon="110.182441">
        <ele>93.917275</ele>
        <time>2026-08-16T03:51:02.000Z</time>
      </trkpt>
      <trkpt lat="22.745938" lon="110.182502">
        <ele>93.916841</ele>
        <time>2026-08-16T03:51:03.000Z</time>
      </trkpt>
      <trkpt lat="22.745943" lon="110.182562">
        <ele>93.917131</ele>
        <time>2026-08-16T03:51:04.000Z</time>
      </trkpt>
      <trkpt lat="22.745948" lon="110.182622">
        <ele>93.918040</ele>
        <time>2026-08-16T03:51:05.000Z</time>
      </trkpt>
      <trkpt lat="22.745956" lon="110.182685">
        <ele>93.919001</ele>
        <time>2026-08-16T03:51:06.000Z</time>
      </trkpt>
      <trkpt lat="22.745965" lon="110.182744">
        <ele>93.919904</ele>
        <time>2026-08-16T03:51:07.000Z</time>
      </trkpt>
      <trkpt lat="22.745973" lon="110.182806">
        <ele>93.920850</ele>
        <time>2026-08-16T03:51:08.000Z</time>
      </trkpt>
      <trkpt lat="22.745978" lon="110.182864">
        <ele>93.921730</ele>
        <time>2026-08-16T03:51:09.000Z</time>
      </trkpt>
      <trkpt lat="22.745985" lon="110.182924">
        <ele>93.922643</ele>
        <time>2026-08-16T03:51:10.000Z</time>
      </trkpt>
      <trkpt lat="22.745992" lon="110.182985">
        <ele>93.923571</ele>
        <time>2026-08-16T03:51:11.000Z</time>
      </trkpt>
      <trkpt lat="22.745997" lon="110.183044">
        <ele>93.924466</ele>
        <time>2026-08-16T03:51:12.000Z</time>
      </trkpt>
      <trkpt lat="22.746002" lon="110.183104">
        <ele>93.925376</ele>
        <time>2026-08-16T03:51:13.000Z</time>
      </trkpt>
      <trkpt lat="22.746008" lon="110.183164">
        <ele>93.926288</ele>
        <time>2026-08-16T03:51:14.000Z</time>
      </trkpt>
      <trkpt lat="22.746015" lon="110.183224">
        <ele>93.927201</ele>
        <time>2026-08-16T03:51:15.000Z</time>
      </trkpt>
      <trkpt lat="22.746024" lon="110.183283">
        <ele>93.928104</ele>
        <time>2026-08-16T03:51:16.000Z</time>
      </trkpt>
      <trkpt lat="22.746032" lon="110.183341">
        <ele>93.928990</ele>
        <time>2026-08-16T03:51:17.000Z</time>
      </trkpt>
      <trkpt lat="22.746045" lon="110.183400">
        <ele>93.929906</ele>
        <time>2026-08-16T03:51:18.000Z</time>
      </trkpt>
      <trkpt lat="22.746054" lon="110.183460">
        <ele>93.930824</ele>
        <time>2026-08-16T03:51:19.000Z</time>
      </trkpt>
      <trkpt lat="22.746063" lon="110.183517">
        <ele>93.931698</ele>
        <time>2026-08-16T03:51:20.000Z</time>
      </trkpt>
      <trkpt lat="22.746066" lon="110.183572">
        <ele>93.932530</ele>
        <time>2026-08-16T03:51:21.000Z</time>
      </trkpt>
      <trkpt lat="22.746071" lon="110.183622">
        <ele>93.933290</ele>
        <time>2026-08-16T03:51:22.000Z</time>
      </trkpt>
      <trkpt lat="22.746076" lon="110.183677">
        <ele>93.934124</ele>
        <time>2026-08-16T03:51:23.000Z</time>
      </trkpt>
      <trkpt lat="22.746081" lon="110.183731">
        <ele>93.934944</ele>
        <time>2026-08-16T03:51:24.000Z</time>
      </trkpt>
      <trkpt lat="22.746087" lon="110.183787">
        <ele>93.935796</ele>
        <time>2026-08-16T03:51:25.000Z</time>
      </trkpt>
      <trkpt lat="22.746093" lon="110.183844">
        <ele>93.936662</ele>
        <time>2026-08-16T03:51:26.000Z</time>
      </trkpt>
      <trkpt lat="22.746099" lon="110.183900">
        <ele>93.937514</ele>
        <time>2026-08-16T03:51:27.000Z</time>
      </trkpt>
      <trkpt lat="22.746106" lon="110.183957">
        <ele>93.938382</ele>
        <time>2026-08-16T03:51:28.000Z</time>
      </trkpt>
      <trkpt lat="22.746116" lon="110.184014">
        <ele>93.939258</ele>
        <time>2026-08-16T03:51:29.000Z</time>
      </trkpt>
      <trkpt lat="22.746124" lon="110.184070">
        <ele>93.940114</ele>
        <time>2026-08-16T03:51:30.000Z</time>
      </trkpt>
      <trkpt lat="22.746131" lon="110.184127">
        <ele>93.940983</ele>
        <time>2026-08-16T03:51:31.000Z</time>
      </trkpt>
      <trkpt lat="22.746138" lon="110.184183">
        <ele>93.941836</ele>
        <time>2026-08-16T03:51:32.000Z</time>
      </trkpt>
      <trkpt lat="22.746143" lon="110.184239">
        <ele>93.942686</ele>
        <time>2026-08-16T03:51:33.000Z</time>
      </trkpt>
      <trkpt lat="22.746148" lon="110.184293">
        <ele>93.943506</ele>
        <time>2026-08-16T03:51:34.000Z</time>
      </trkpt>
      <trkpt lat="22.746153" lon="110.184348">
        <ele>93.944340</ele>
        <time>2026-08-16T03:51:35.000Z</time>
      </trkpt>
      <trkpt lat="22.746160" lon="110.184404">
        <ele>93.945194</ele>
        <time>2026-08-16T03:51:36.000Z</time>
      </trkpt>
      <trkpt lat="22.746170" lon="110.184461">
        <ele>93.946070</ele>
        <time>2026-08-16T03:51:37.000Z</time>
      </trkpt>
      <trkpt lat="22.746178" lon="110.184518">
        <ele>93.947891</ele>
        <time>2026-08-16T03:51:38.000Z</time>
      </trkpt>
      <trkpt lat="22.746186" lon="110.184576">
        <ele>93.949777</ele>
        <time>2026-08-16T03:51:39.000Z</time>
      </trkpt>
      <trkpt lat="22.746195" lon="110.184632">
        <ele>93.951606</ele>
        <time>2026-08-16T03:51:40.000Z</time>
      </trkpt>
      <trkpt lat="22.746203" lon="110.184689">
        <ele>93.953460</ele>
        <time>2026-08-16T03:51:41.000Z</time>
      </trkpt>
      <trkpt lat="22.746210" lon="110.184746">
        <ele>93.955310</ele>
        <time>2026-08-16T03:51:42.000Z</time>
      </trkpt>
      <trkpt lat="22.746219" lon="110.184802">
        <ele>93.957138</ele>
        <time>2026-08-16T03:51:43.000Z</time>
      </trkpt>
      <trkpt lat="22.746226" lon="110.184859">
        <ele>93.958988</ele>
        <time>2026-08-16T03:51:44.000Z</time>
      </trkpt>
      <trkpt lat="22.746233" lon="110.184916">
        <ele>93.960838</ele>
        <time>2026-08-16T03:51:45.000Z</time>
      </trkpt>
      <trkpt lat="22.746239" lon="110.184974">
        <ele>93.962715</ele>
        <time>2026-08-16T03:51:46.000Z</time>
      </trkpt>
      <trkpt lat="22.746244" lon="110.185031">
        <ele>93.964557</ele>
        <time>2026-08-16T03:51:47.000Z</time>
      </trkpt>
      <trkpt lat="22.746248" lon="110.185089">
        <ele>93.966428</ele>
        <time>2026-08-16T03:51:48.000Z</time>
      </trkpt>
      <trkpt lat="22.746256" lon="110.185146">
        <ele>93.968282</ele>
        <time>2026-08-16T03:51:49.000Z</time>
      </trkpt>
      <trkpt lat="22.746264" lon="110.185203">
        <ele>93.970137</ele>
        <time>2026-08-16T03:51:50.000Z</time>
      </trkpt>
      <trkpt lat="22.746270" lon="110.185258">
        <ele>93.971918</ele>
        <time>2026-08-16T03:51:51.000Z</time>
      </trkpt>
      <trkpt lat="22.746275" lon="110.185315">
        <ele>93.973760</ele>
        <time>2026-08-16T03:51:52.000Z</time>
      </trkpt>
      <trkpt lat="22.746281" lon="110.185371">
        <ele>93.975573</ele>
        <time>2026-08-16T03:51:53.000Z</time>
      </trkpt>
      <trkpt lat="22.746286" lon="110.185428">
        <ele>93.977415</ele>
        <time>2026-08-16T03:51:54.000Z</time>
      </trkpt>
      <trkpt lat="22.746291" lon="110.185483">
        <ele>93.979193</ele>
        <time>2026-08-16T03:51:55.000Z</time>
      </trkpt>
      <trkpt lat="22.746299" lon="110.185542">
        <ele>93.981111</ele>
        <time>2026-08-16T03:51:56.000Z</time>
      </trkpt>
      <trkpt lat="22.746305" lon="110.185600">
        <ele>93.982988</ele>
        <time>2026-08-16T03:51:57.000Z</time>
      </trkpt>
      <trkpt lat="22.746312" lon="110.185657">
        <ele>93.984838</ele>
        <time>2026-08-16T03:51:58.000Z</time>
      </trkpt>
      <trkpt lat="22.746319" lon="110.185714">
        <ele>93.986688</ele>
        <time>2026-08-16T03:51:59.000Z</time>
      </trkpt>
      <trkpt lat="22.746328" lon="110.185772">
        <ele>93.988579</ele>
        <time>2026-08-16T03:52:00.000Z</time>
      </trkpt>
      <trkpt lat="22.746335" lon="110.185831">
        <ele>93.990493</ele>
        <time>2026-08-16T03:52:01.000Z</time>
      </trkpt>
      <trkpt lat="22.746342" lon="110.185892">
        <ele>93.992470</ele>
        <time>2026-08-16T03:52:02.000Z</time>
      </trkpt>
      <trkpt lat="22.746347" lon="110.185951">
        <ele>93.994376</ele>
        <time>2026-08-16T03:52:03.000Z</time>
      </trkpt>
      <trkpt lat="22.746353" lon="110.186010">
        <ele>93.996285</ele>
        <time>2026-08-16T03:52:04.000Z</time>
      </trkpt>
      <trkpt lat="22.746362" lon="110.186069">
        <ele>93.998209</ele>
        <time>2026-08-16T03:52:05.000Z</time>
      </trkpt>
      <trkpt lat="22.746370" lon="110.186129">
        <ele>94.000159</ele>
        <time>2026-08-16T03:52:06.000Z</time>
      </trkpt>
      <trkpt lat="22.746379" lon="110.186189">
        <ele>94.002114</ele>
        <time>2026-08-16T03:52:07.000Z</time>
      </trkpt>
      <trkpt lat="22.746388" lon="110.186249">
        <ele>94.004069</ele>
        <time>2026-08-16T03:52:08.000Z</time>
      </trkpt>
      <trkpt lat="22.746396" lon="110.186306">
        <ele>94.005924</ele>
        <time>2026-08-16T03:52:09.000Z</time>
      </trkpt>
      <trkpt lat="22.746402" lon="110.186365">
        <ele>94.007833</ele>
        <time>2026-08-16T03:52:10.000Z</time>
      </trkpt>
      <trkpt lat="22.746408" lon="110.186425">
        <ele>94.018534</ele>
        <time>2026-08-16T03:52:11.000Z</time>
      </trkpt>
      <trkpt lat="22.746415" lon="110.186484">
        <ele>94.038282</ele>
        <time>2026-08-16T03:52:12.000Z</time>
      </trkpt>
      <trkpt lat="22.746422" lon="110.186543">
        <ele>94.058029</ele>
        <time>2026-08-16T03:52:13.000Z</time>
      </trkpt>
      <trkpt lat="22.746430" lon="110.186601">
        <ele>94.077497</ele>
        <time>2026-08-16T03:52:14.000Z</time>
      </trkpt>
      <trkpt lat="22.746437" lon="110.186661">
        <ele>94.097573</ele>
        <time>2026-08-16T03:52:15.000Z</time>
      </trkpt>
      <trkpt lat="22.746444" lon="110.186719">
        <ele>94.116991</ele>
        <time>2026-08-16T03:52:16.000Z</time>
      </trkpt>
      <trkpt lat="22.746450" lon="110.186778">
        <ele>94.136696</ele>
        <time>2026-08-16T03:52:17.000Z</time>
      </trkpt>
      <trkpt lat="22.746457" lon="110.186838">
        <ele>94.156772</ele>
        <time>2026-08-16T03:52:18.000Z</time>
      </trkpt>
      <trkpt lat="22.746462" lon="110.186897">
        <ele>94.176441</ele>
        <time>2026-08-16T03:52:19.000Z</time>
      </trkpt>
      <trkpt lat="22.746469" lon="110.186955">
        <ele>94.195859</ele>
        <time>2026-08-16T03:52:20.000Z</time>
      </trkpt>
      <trkpt lat="22.746475" lon="110.187010">
        <ele>94.214244</ele>
        <time>2026-08-16T03:52:21.000Z</time>
      </trkpt>
      <trkpt lat="22.746482" lon="110.187068">
        <ele>94.233662</ele>
        <time>2026-08-16T03:52:22.000Z</time>
      </trkpt>
      <trkpt lat="22.746490" lon="110.187126">
        <ele>94.253130</ele>
        <time>2026-08-16T03:52:23.000Z</time>
      </trkpt>
      <trkpt lat="22.746495" lon="110.187184">
        <ele>94.272468</ele>
        <time>2026-08-16T03:52:24.000Z</time>
      </trkpt>
      <trkpt lat="22.746502" lon="110.187241">
        <ele>94.291557</ele>
        <time>2026-08-16T03:52:25.000Z</time>
      </trkpt>
      <trkpt lat="22.746508" lon="110.187299">
        <ele>94.310931</ele>
        <time>2026-08-16T03:52:26.000Z</time>
      </trkpt>
      <trkpt lat="22.746512" lon="110.187357">
        <ele>94.330239</ele>
        <time>2026-08-16T03:52:27.000Z</time>
      </trkpt>
      <trkpt lat="22.746517" lon="110.187414">
        <ele>94.349246</ele>
        <time>2026-08-16T03:52:28.000Z</time>
      </trkpt>
      <trkpt lat="22.746517" lon="110.187472">
        <ele>94.368500</ele>
        <time>2026-08-16T03:52:29.000Z</time>
      </trkpt>
      <trkpt lat="22.746520" lon="110.187530">
        <ele>94.387784</ele>
        <time>2026-08-16T03:52:30.000Z</time>
      </trkpt>
      <trkpt lat="22.746525" lon="110.187587">
        <ele>94.406791</ele>
        <time>2026-08-16T03:52:31.000Z</time>
      </trkpt>
      <trkpt lat="22.746529" lon="110.187638">
        <ele>94.423783</ele>
        <time>2026-08-16T03:52:32.000Z</time>
      </trkpt>
      <trkpt lat="22.746531" lon="110.187680">
        <ele>94.437744</ele>
        <time>2026-08-16T03:52:33.000Z</time>
      </trkpt>
      <trkpt lat="22.746541" lon="110.187711">
        <ele>94.448646</ele>
        <time>2026-08-16T03:52:34.000Z</time>
      </trkpt>
      <trkpt lat="22.746554" lon="110.187718">
        <ele>94.453871</ele>
        <time>2026-08-16T03:52:35.000Z</time>
      </trkpt>
      <trkpt lat="22.746569" lon="110.187707">
        <ele>94.460389</ele>
        <time>2026-08-16T03:52:36.000Z</time>
      </trkpt>
      <trkpt lat="22.746576" lon="110.187692">
        <ele>94.465969</ele>
        <time>2026-08-16T03:52:37.000Z</time>
      </trkpt>
      <trkpt lat="22.746574" lon="110.187671">
        <ele>94.472978</ele>
        <time>2026-08-16T03:52:38.000Z</time>
      </trkpt>
      <trkpt lat="22.746573" lon="110.187649">
        <ele>94.480290</ele>
        <time>2026-08-16T03:52:39.000Z</time>
      </trkpt>
      <trkpt lat="22.746574" lon="110.187627">
        <ele>94.487602</ele>
        <time>2026-08-16T03:52:40.000Z</time>
      </trkpt>
      <trkpt lat="22.746572" lon="110.187605">
        <ele>94.494940</ele>
        <time>2026-08-16T03:52:41.000Z</time>
      </trkpt>
      <trkpt lat="22.746571" lon="110.187588">
        <ele>94.500595</ele>
        <time>2026-08-16T03:52:42.000Z</time>
      </trkpt>
      <trkpt lat="22.746571" lon="110.187578">
        <ele>94.503915</ele>
        <time>2026-08-16T03:52:43.000Z</time>
      </trkpt>
      <trkpt lat="22.746572" lon="110.187575">
        <ele>94.504974</ele>
        <time>2026-08-16T03:52:44.000Z</time>
      </trkpt>
      <trkpt lat="22.746563" lon="110.187644">
        <ele>94.528107</ele>
        <time>2026-08-16T03:53:56.000Z</time>
      </trkpt>
      <trkpt lat="22.746559" lon="110.187665">
        <ele>94.535226</ele>
        <time>2026-08-16T03:53:57.000Z</time>
      </trkpt>
      <trkpt lat="22.746568" lon="110.187689">
        <ele>94.543826</ele>
        <time>2026-08-16T03:53:58.000Z</time>
      </trkpt>
      <trkpt lat="22.746572" lon="110.187718">
        <ele>94.553560</ele>
        <time>2026-08-16T03:53:59.000Z</time>
      </trkpt>
      <trkpt lat="22.746575" lon="110.187749">
        <ele>94.563907</ele>
        <time>2026-08-16T03:54:00.000Z</time>
      </trkpt>
      <trkpt lat="22.746577" lon="110.187782">
        <ele>94.574886</ele>
        <time>2026-08-16T03:54:01.000Z</time>
      </trkpt>
      <trkpt lat="22.746577" lon="110.187816">
        <ele>94.586173</ele>
        <time>2026-08-16T03:54:02.000Z</time>
      </trkpt>
      <trkpt lat="22.746577" lon="110.187851">
        <ele>94.597791</ele>
        <time>2026-08-16T03:54:03.000Z</time>
      </trkpt>
      <trkpt lat="22.746580" lon="110.187891">
        <ele>94.611114</ele>
        <time>2026-08-16T03:54:04.000Z</time>
      </trkpt>
      <trkpt lat="22.746586" lon="110.187931">
        <ele>94.624567</ele>
        <time>2026-08-16T03:54:05.000Z</time>
      </trkpt>
      <trkpt lat="22.746590" lon="110.187971">
        <ele>94.637923</ele>
        <time>2026-08-16T03:54:06.000Z</time>
      </trkpt>
      <trkpt lat="22.746592" lon="110.188010">
        <ele>94.650889</ele>
        <time>2026-08-16T03:54:07.000Z</time>
      </trkpt>
      <trkpt lat="22.746595" lon="110.188050">
        <ele>94.661442</ele>
        <time>2026-08-16T03:54:08.000Z</time>
      </trkpt>
      <trkpt lat="22.746597" lon="110.188091">
        <ele>94.670318</ele>
        <time>2026-08-16T03:54:09.000Z</time>
      </trkpt>
      <trkpt lat="22.746601" lon="110.188133">
        <ele>94.679446</ele>
        <time>2026-08-16T03:54:10.000Z</time>
      </trkpt>
      <trkpt lat="22.746603" lon="110.188174">
        <ele>94.688321</ele>
        <time>2026-08-16T03:54:11.000Z</time>
      </trkpt>
      <trkpt lat="22.746604" lon="110.188215">
        <ele>94.697188</ele>
        <time>2026-08-16T03:54:12.000Z</time>
      </trkpt>
      <trkpt lat="22.746605" lon="110.188257">
        <ele>94.706270</ele>
        <time>2026-08-16T03:54:13.000Z</time>
      </trkpt>
      <trkpt lat="22.746610" lon="110.188298">
        <ele>94.715210</ele>
        <time>2026-08-16T03:54:14.000Z</time>
      </trkpt>
      <trkpt lat="22.746614" lon="110.188341">
        <ele>94.724553</ele>
        <time>2026-08-16T03:54:15.000Z</time>
      </trkpt>
      <trkpt lat="22.746615" lon="110.188386">
        <ele>94.734284</ele>
        <time>2026-08-16T03:54:16.000Z</time>
      </trkpt>
      <trkpt lat="22.746613" lon="110.188430">
        <ele>94.743807</ele>
        <time>2026-08-16T03:54:17.000Z</time>
      </trkpt>
      <trkpt lat="22.746612" lon="110.188473">
        <ele>94.753106</ele>
        <time>2026-08-16T03:54:18.000Z</time>
      </trkpt>
      <trkpt lat="22.746613" lon="110.188518">
        <ele>94.762836</ele>
        <time>2026-08-16T03:54:19.000Z</time>
      </trkpt>
      <trkpt lat="22.746615" lon="110.188563">
        <ele>94.772575</ele>
        <time>2026-08-16T03:54:20.000Z</time>
      </trkpt>
      <trkpt lat="22.746621" lon="110.188610">
        <ele>94.782833</ele>
        <time>2026-08-16T03:54:21.000Z</time>
      </trkpt>
      <trkpt lat="22.746625" lon="110.188658">
        <ele>94.793251</ele>
        <time>2026-08-16T03:54:22.000Z</time>
      </trkpt>
      <trkpt lat="22.746625" lon="110.188703">
        <ele>94.802979</ele>
        <time>2026-08-16T03:54:23.000Z</time>
      </trkpt>
      <trkpt lat="22.746630" lon="110.188748">
        <ele>94.812777</ele>
        <time>2026-08-16T03:54:24.000Z</time>
      </trkpt>
      <trkpt lat="22.746635" lon="110.188796">
        <ele>94.823220</ele>
        <time>2026-08-16T03:54:25.000Z</time>
      </trkpt>
      <trkpt lat="22.746642" lon="110.188844">
        <ele>94.833725</ele>
        <time>2026-08-16T03:54:26.000Z</time>
      </trkpt>
      <trkpt lat="22.746653" lon="110.188893">
        <ele>94.844627</ele>
        <time>2026-08-16T03:54:27.000Z</time>
      </trkpt>
      <trkpt lat="22.746662" lon="110.188940">
        <ele>94.855004</ele>
        <time>2026-08-16T03:54:28.000Z</time>
      </trkpt>
      <trkpt lat="22.746669" lon="110.188987">
        <ele>94.865296</ele>
        <time>2026-08-16T03:54:29.000Z</time>
      </trkpt>
      <trkpt lat="22.746675" lon="110.189034">
        <ele>94.875553</ele>
        <time>2026-08-16T03:54:30.000Z</time>
      </trkpt>
      <trkpt lat="22.746684" lon="110.189083">
        <ele>94.886354</ele>
        <time>2026-08-16T03:54:31.000Z</time>
      </trkpt>
      <trkpt lat="22.746691" lon="110.189130">
        <ele>94.896646</ele>
        <time>2026-08-16T03:54:32.000Z</time>
      </trkpt>
      <trkpt lat="22.746700" lon="110.189176">
        <ele>94.906811</ele>
        <time>2026-08-16T03:54:33.000Z</time>
      </trkpt>
      <trkpt lat="22.746707" lon="110.189222">
        <ele>94.916890</ele>
        <time>2026-08-16T03:54:34.000Z</time>
      </trkpt>
      <trkpt lat="22.746715" lon="110.189269">
        <ele>94.927221</ele>
        <time>2026-08-16T03:54:35.000Z</time>
      </trkpt>
      <trkpt lat="22.746722" lon="110.189314">
        <ele>94.937087</ele>
        <time>2026-08-16T03:54:36.000Z</time>
      </trkpt>
      <trkpt lat="22.746730" lon="110.189360">
        <ele>94.947206</ele>
        <time>2026-08-16T03:54:37.000Z</time>
      </trkpt>
      <trkpt lat="22.746733" lon="110.189408">
        <ele>94.957606</ele>
        <time>2026-08-16T03:54:38.000Z</time>
      </trkpt>
      <trkpt lat="22.746736" lon="110.189456">
        <ele>94.968006</ele>
        <time>2026-08-16T03:54:39.000Z</time>
      </trkpt>
      <trkpt lat="22.746740" lon="110.189505">
        <ele>94.978641</ele>
        <time>2026-08-16T03:54:40.000Z</time>
      </trkpt>
      <trkpt lat="22.746745" lon="110.189555">
        <ele>94.989513</ele>
        <time>2026-08-16T03:54:41.000Z</time>
      </trkpt>
      <trkpt lat="22.746747" lon="110.189603">
        <ele>94.999900</ele>
        <time>2026-08-16T03:54:42.000Z</time>
      </trkpt>
      <trkpt lat="22.746751" lon="110.189652">
        <ele>95.010534</ele>
        <time>2026-08-16T03:54:43.000Z</time>
      </trkpt>
      <trkpt lat="22.746756" lon="110.189702">
        <ele>95.021406</ele>
        <time>2026-08-16T03:54:44.000Z</time>
      </trkpt>
      <trkpt lat="22.746760" lon="110.189750">
        <ele>95.031824</ele>
        <time>2026-08-16T03:54:45.000Z</time>
      </trkpt>
      <trkpt lat="22.746767" lon="110.189800">
        <ele>95.042757</ele>
        <time>2026-08-16T03:54:46.000Z</time>
      </trkpt>
      <trkpt lat="22.746773" lon="110.189849">
        <ele>95.053443</ele>
        <time>2026-08-16T03:54:47.000Z</time>
      </trkpt>
      <trkpt lat="22.746777" lon="110.189899">
        <ele>95.064292</ele>
        <time>2026-08-16T03:54:48.000Z</time>
      </trkpt>
      <trkpt lat="22.746783" lon="110.189951">
        <ele>95.075621</ele>
        <time>2026-08-16T03:54:49.000Z</time>
      </trkpt>
      <trkpt lat="22.746789" lon="110.190003">
        <ele>95.099118</ele>
        <time>2026-08-16T03:54:50.000Z</time>
      </trkpt>
      <trkpt lat="22.746792" lon="110.190054">
        <ele>95.124997</ele>
        <time>2026-08-16T03:54:51.000Z</time>
      </trkpt>
      <trkpt lat="22.746798" lon="110.190105">
        <ele>95.151033</ele>
        <time>2026-08-16T03:54:52.000Z</time>
      </trkpt>
      <trkpt lat="22.746805" lon="110.190156">
        <ele>95.177144</ele>
        <time>2026-08-16T03:54:53.000Z</time>
      </trkpt>
      <trkpt lat="22.746811" lon="110.190208">
        <ele>95.203682</ele>
        <time>2026-08-16T03:54:54.000Z</time>
      </trkpt>
      <trkpt lat="22.746816" lon="110.190260">
        <ele>95.230158</ele>
        <time>2026-08-16T03:54:55.000Z</time>
      </trkpt>
      <trkpt lat="22.746822" lon="110.190312">
        <ele>95.256697</ele>
        <time>2026-08-16T03:54:56.000Z</time>
      </trkpt>
      <trkpt lat="22.746826" lon="110.190363">
        <ele>95.282617</ele>
        <time>2026-08-16T03:54:57.000Z</time>
      </trkpt>
      <trkpt lat="22.746832" lon="110.190416">
        <ele>95.309658</ele>
        <time>2026-08-16T03:54:58.000Z</time>
      </trkpt>
      <trkpt lat="22.746840" lon="110.190468">
        <ele>95.336354</ele>
        <time>2026-08-16T03:54:59.000Z</time>
      </trkpt>
      <trkpt lat="22.746847" lon="110.190520">
        <ele>95.362967</ele>
        <time>2026-08-16T03:55:00.000Z</time>
      </trkpt>
      <trkpt lat="22.746852" lon="110.190573">
        <ele>95.389946</ele>
        <time>2026-08-16T03:55:01.000Z</time>
      </trkpt>
      <trkpt lat="22.746857" lon="110.190624">
        <ele>95.415918</ele>
        <time>2026-08-16T03:55:02.000Z</time>
      </trkpt>
      <trkpt lat="22.746863" lon="110.190678">
        <ele>95.443462</ele>
        <time>2026-08-16T03:55:03.000Z</time>
      </trkpt>
      <trkpt lat="22.746868" lon="110.190731">
        <ele>95.470442</ele>
        <time>2026-08-16T03:55:04.000Z</time>
      </trkpt>
      <trkpt lat="22.746871" lon="110.190781">
        <ele>95.495815</ele>
        <time>2026-08-16T03:55:05.000Z</time>
      </trkpt>
      <trkpt lat="22.746879" lon="110.190834">
        <ele>95.523012</ele>
        <time>2026-08-16T03:55:06.000Z</time>
      </trkpt>
      <trkpt lat="22.746883" lon="110.190883">
        <ele>95.547923</ele>
        <time>2026-08-16T03:55:07.000Z</time>
      </trkpt>
      <trkpt lat="22.746887" lon="110.190929">
        <ele>95.571321</ele>
        <time>2026-08-16T03:55:08.000Z</time>
      </trkpt>
      <trkpt lat="22.746897" lon="110.190972">
        <ele>95.593778</ele>
        <time>2026-08-16T03:55:09.000Z</time>
      </trkpt>
      <trkpt lat="22.746901" lon="110.191016">
        <ele>95.616168</ele>
        <time>2026-08-16T03:55:10.000Z</time>
      </trkpt>
      <trkpt lat="22.746905" lon="110.191061">
        <ele>95.639062</ele>
        <time>2026-08-16T03:55:11.000Z</time>
      </trkpt>
      <trkpt lat="22.746909" lon="110.191106">
        <ele>95.661956</ele>
        <time>2026-08-16T03:55:12.000Z</time>
      </trkpt>
      <trkpt lat="22.746916" lon="110.191152">
        <ele>95.685565</ele>
        <time>2026-08-16T03:55:13.000Z</time>
      </trkpt>
      <trkpt lat="22.746920" lon="110.191199">
        <ele>95.709467</ele>
        <time>2026-08-16T03:55:14.000Z</time>
      </trkpt>
      <trkpt lat="22.746926" lon="110.191247">
        <ele>95.733997</ele>
        <time>2026-08-16T03:55:15.000Z</time>
      </trkpt>
      <trkpt lat="22.746932" lon="110.191295">
        <ele>95.758527</ele>
        <time>2026-08-16T03:55:16.000Z</time>
      </trkpt>
      <trkpt lat="22.746938" lon="110.191342">
        <ele>95.782555</ele>
        <time>2026-08-16T03:55:17.000Z</time>
      </trkpt>
      <trkpt lat="22.746944" lon="110.191387">
        <ele>95.805580</ele>
        <time>2026-08-16T03:55:18.000Z</time>
      </trkpt>
      <trkpt lat="22.746951" lon="110.191431">
        <ele>95.828191</ele>
        <time>2026-08-16T03:55:19.000Z</time>
      </trkpt>
      <trkpt lat="22.746959" lon="110.191473">
        <ele>95.849909</ele>
        <time>2026-08-16T03:55:20.000Z</time>
      </trkpt>
      <trkpt lat="22.746967" lon="110.191513">
        <ele>95.870636</ele>
        <time>2026-08-16T03:55:21.000Z</time>
      </trkpt>
      <trkpt lat="22.746973" lon="110.191545">
        <ele>95.887172</ele>
        <time>2026-08-16T03:55:22.000Z</time>
      </trkpt>
      <trkpt lat="22.746983" lon="110.191563">
        <ele>95.897814</ele>
        <time>2026-08-16T03:55:23.000Z</time>
      </trkpt>
      <trkpt lat="22.747001" lon="110.191568">
        <ele>95.908017</ele>
        <time>2026-08-16T03:55:24.000Z</time>
      </trkpt>
      <trkpt lat="22.747012" lon="110.191558">
        <ele>95.915899</ele>
        <time>2026-08-16T03:55:25.000Z</time>
      </trkpt>
      <trkpt lat="22.747018" lon="110.191538">
        <ele>95.926550</ele>
        <time>2026-08-16T03:55:26.000Z</time>
      </trkpt>
      <trkpt lat="22.747014" lon="110.191516">
        <ele>95.937905</ele>
        <time>2026-08-16T03:55:27.000Z</time>
      </trkpt>
      <trkpt lat="22.747007" lon="110.191487">
        <ele>95.953086</ele>
        <time>2026-08-16T03:55:28.000Z</time>
      </trkpt>
      <trkpt lat="22.746999" lon="110.191454">
        <ele>95.970365</ele>
        <time>2026-08-16T03:55:29.000Z</time>
      </trkpt>
      <trkpt lat="22.746990" lon="110.191420">
        <ele>95.988278</ele>
        <time>2026-08-16T03:55:30.000Z</time>
      </trkpt>
      <trkpt lat="22.746982" lon="110.191392">
        <ele>96.003122</ele>
        <time>2026-08-16T03:55:31.000Z</time>
      </trkpt>
      <trkpt lat="22.746974" lon="110.191361">
        <ele>96.019424</ele>
        <time>2026-08-16T03:55:32.000Z</time>
      </trkpt>
      <trkpt lat="22.746966" lon="110.191329">
        <ele>96.036213</ele>
        <time>2026-08-16T03:55:33.000Z</time>
      </trkpt>
      <trkpt lat="22.746955" lon="110.191297">
        <ele>96.053508</ele>
        <time>2026-08-16T03:55:34.000Z</time>
      </trkpt>
      <trkpt lat="22.746948" lon="110.191266">
        <ele>96.130389</ele>
        <time>2026-08-16T03:55:35.000Z</time>
      </trkpt>
      <trkpt lat="22.746944" lon="110.191238">
        <ele>96.356061</ele>
        <time>2026-08-16T03:55:36.000Z</time>
      </trkpt>
      <trkpt lat="22.746944" lon="110.191212">
        <ele>96.563144</ele>
        <time>2026-08-16T03:55:37.000Z</time>
      </trkpt>
      <trkpt lat="22.746944" lon="110.191186">
        <ele>96.770228</ele>
        <time>2026-08-16T03:55:38.000Z</time>
      </trkpt>
      <trkpt lat="22.746943" lon="110.191161">
        <ele>96.969533</ele>
        <time>2026-08-16T03:55:39.000Z</time>
      </trkpt>
      <trkpt lat="22.746939" lon="110.191139">
        <ele>97.148131</ele>
        <time>2026-08-16T03:55:40.000Z</time>
      </trkpt>
      <trkpt lat="22.746935" lon="110.191121">
        <ele>97.295599</ele>
        <time>2026-08-16T03:55:41.000Z</time>
      </trkpt>
      <trkpt lat="22.746929" lon="110.191109">
        <ele>97.404320</ele>
        <time>2026-08-16T03:55:42.000Z</time>
      </trkpt>
      <trkpt lat="22.746925" lon="110.191101">
        <ele>97.476800</ele>
        <time>2026-08-16T03:55:43.000Z</time>
      </trkpt>
      <trkpt lat="22.746922" lon="110.191093">
        <ele>97.545584</ele>
        <time>2026-08-16T03:55:44.000Z</time>
      </trkpt>
      <trkpt lat="22.746913" lon="110.191085">
        <ele>97.646091</ele>
        <time>2026-08-16T03:55:45.000Z</time>
      </trkpt>
      <trkpt lat="22.746902" lon="110.191080">
        <ele>97.749102</ele>
        <time>2026-08-16T03:55:46.000Z</time>
      </trkpt>
      <trkpt lat="22.746893" lon="110.191075">
        <ele>97.836438</ele>
        <time>2026-08-16T03:55:47.000Z</time>
      </trkpt>
      <trkpt lat="22.746886" lon="110.191071">
        <ele>97.904774</ele>
        <time>2026-08-16T03:55:48.000Z</time>
      </trkpt>
      <trkpt lat="22.746884" lon="110.191069">
        <ele>97.928271</ele>
        <time>2026-08-16T03:55:49.000Z</time>
      </trkpt>
      <trkpt lat="22.747144" lon="110.190903">
        <ele>100.534084</ele>
        <time>2026-08-16T04:05:46.000Z</time>
      </trkpt>
      <trkpt lat="22.747150" lon="110.190893">
        <ele>100.629104</ele>
        <time>2026-08-16T04:05:47.000Z</time>
      </trkpt>
      <trkpt lat="22.747155" lon="110.190886">
        <ele>100.699624</ele>
        <time>2026-08-16T04:05:48.000Z</time>
      </trkpt>
      <trkpt lat="22.747163" lon="110.190877">
        <ele>100.799184</ele>
        <time>2026-08-16T04:05:49.000Z</time>
      </trkpt>
      <trkpt lat="22.747166" lon="110.190870">
        <ele>100.860663</ele>
        <time>2026-08-16T04:05:50.000Z</time>
      </trkpt>
      <trkpt lat="22.747172" lon="110.190861">
        <ele>100.949114</ele>
        <time>2026-08-16T04:05:51.000Z</time>
      </trkpt>
      <trkpt lat="22.747178" lon="110.190852">
        <ele>101.037565</ele>
        <time>2026-08-16T04:05:52.000Z</time>
      </trkpt>
      <trkpt lat="22.747184" lon="110.190846">
        <ele>101.108056</ele>
        <time>2026-08-16T04:05:53.000Z</time>
      </trkpt>
      <trkpt lat="22.747189" lon="110.190837">
        <ele>101.191740</ele>
        <time>2026-08-16T04:05:54.000Z</time>
      </trkpt>
      <trkpt lat="22.747195" lon="110.190829">
        <ele>101.273869</ele>
        <time>2026-08-16T04:05:55.000Z</time>
      </trkpt>
      <trkpt lat="22.747201" lon="110.190820">
        <ele>101.362320</ele>
        <time>2026-08-16T04:05:56.000Z</time>
      </trkpt>
      <trkpt lat="22.747209" lon="110.190813">
        <ele>101.451101</ele>
        <time>2026-08-16T04:05:57.000Z</time>
      </trkpt>
      <trkpt lat="22.747215" lon="110.190806">
        <ele>101.527217</ele>
        <time>2026-08-16T04:05:58.000Z</time>
      </trkpt>
      <trkpt lat="22.747219" lon="110.190799">
        <ele>101.592805</ele>
        <time>2026-08-16T04:05:59.000Z</time>
      </trkpt>
      <trkpt lat="22.747225" lon="110.190791">
        <ele>101.674934</ele>
        <time>2026-08-16T04:06:00.000Z</time>
      </trkpt>
      <trkpt lat="22.747229" lon="110.190782">
        <ele>101.754506</ele>
        <time>2026-08-16T04:06:01.000Z</time>
      </trkpt>
      <trkpt lat="22.747234" lon="110.190773">
        <ele>101.838191</ele>
        <time>2026-08-16T04:06:02.000Z</time>
      </trkpt>
      <trkpt lat="22.747240" lon="110.190764">
        <ele>101.926642</ele>
        <time>2026-08-16T04:06:03.000Z</time>
      </trkpt>
      <trkpt lat="22.747248" lon="110.190756">
        <ele>102.020629</ele>
        <time>2026-08-16T04:06:04.000Z</time>
      </trkpt>
      <trkpt lat="22.747255" lon="110.190750">
        <ele>102.097691</ele>
        <time>2026-08-16T04:06:05.000Z</time>
      </trkpt>
      <trkpt lat="22.747261" lon="110.190743">
        <ele>102.173807</ele>
        <time>2026-08-16T04:06:06.000Z</time>
      </trkpt>
      <trkpt lat="22.747264" lon="110.190737">
        <ele>102.228167</ele>
        <time>2026-08-16T04:06:07.000Z</time>
      </trkpt>
      <trkpt lat="22.747559" lon="110.190714">
        <ele>104.782503</ele>
        <time>2026-08-16T04:06:59.000Z</time>
      </trkpt>
      <trkpt lat="22.747568" lon="110.190719">
        <ele>104.869839</ele>
        <time>2026-08-16T04:07:00.000Z</time>
      </trkpt>
      <trkpt lat="22.747577" lon="110.190724">
        <ele>104.957175</ele>
        <time>2026-08-16T04:07:01.000Z</time>
      </trkpt>
      <trkpt lat="22.747585" lon="110.190727">
        <ele>105.030282</ele>
        <time>2026-08-16T04:07:02.000Z</time>
      </trkpt>
      <trkpt lat="22.747651" lon="110.190738">
        <ele>105.606983</ele>
        <time>2026-08-16T04:07:08.000Z</time>
      </trkpt>
      <trkpt lat="22.747662" lon="110.190740">
        <ele>105.703310</ele>
        <time>2026-08-16T04:07:09.000Z</time>
      </trkpt>
      <trkpt lat="22.747673" lon="110.190741">
        <ele>105.798644</ele>
        <time>2026-08-16T04:07:10.000Z</time>
      </trkpt>
      <trkpt lat="22.747685" lon="110.190744">
        <ele>105.905001</ele>
        <time>2026-08-16T04:07:11.000Z</time>
      </trkpt>
      <trkpt lat="22.747697" lon="110.190747">
        <ele>106.011357</ele>
        <time>2026-08-16T04:07:12.000Z</time>
      </trkpt>
      <trkpt lat="22.747707" lon="110.190749">
        <ele>106.099179</ele>
        <time>2026-08-16T04:07:13.000Z</time>
      </trkpt>
      <trkpt lat="22.747716" lon="110.190750">
        <ele>106.177314</ele>
        <time>2026-08-16T04:07:14.000Z</time>
      </trkpt>
      <trkpt lat="22.747726" lon="110.190753">
        <ele>106.266923</ele>
        <time>2026-08-16T04:07:15.000Z</time>
      </trkpt>
      <trkpt lat="22.747735" lon="110.190755">
        <ele>106.346267</ele>
        <time>2026-08-16T04:07:16.000Z</time>
      </trkpt>
      <trkpt lat="22.747793" lon="110.190769">
        <ele>106.859443</ele>
        <time>2026-08-16T04:07:21.000Z</time>
      </trkpt>
      <trkpt lat="22.747806" lon="110.190772">
        <ele>106.974231</ele>
        <time>2026-08-16T04:07:22.000Z</time>
      </trkpt>
      <trkpt lat="22.747817" lon="110.190772">
        <ele>107.069232</ele>
        <time>2026-08-16T04:07:23.000Z</time>
      </trkpt>
      <trkpt lat="22.747828" lon="110.190773">
        <ele>107.164567</ele>
        <time>2026-08-16T04:07:24.000Z</time>
      </trkpt>
      <trkpt lat="22.747837" lon="110.190779">
        <ele>107.255810</ele>
        <time>2026-08-16T04:07:25.000Z</time>
      </trkpt>
      <trkpt lat="22.747847" lon="110.190785">
        <ele>107.354515</ele>
        <time>2026-08-16T04:07:26.000Z</time>
      </trkpt>
      <trkpt lat="22.747858" lon="110.190792">
        <ele>107.464668</ele>
        <time>2026-08-16T04:07:27.000Z</time>
      </trkpt>
      <trkpt lat="22.747869" lon="110.190795">
        <ele>107.562627</ele>
        <time>2026-08-16T04:07:28.000Z</time>
      </trkpt>
      <trkpt lat="22.747880" lon="110.190799">
        <ele>107.662828</ele>
        <time>2026-08-16T04:07:29.000Z</time>
      </trkpt>
      <trkpt lat="22.747892" lon="110.190803">
        <ele>107.771252</ele>
        <time>2026-08-16T04:07:30.000Z</time>
      </trkpt>
      <trkpt lat="22.747901" lon="110.190810">
        <ele>107.866908</ele>
        <time>2026-08-16T04:07:31.000Z</time>
      </trkpt>
      <trkpt lat="22.747910" lon="110.190813">
        <ele>107.948226</ele>
        <time>2026-08-16T04:07:32.000Z</time>
      </trkpt>
      <trkpt lat="22.747917" lon="110.190816">
        <ele>108.013232</ele>
        <time>2026-08-16T04:07:33.000Z</time>
      </trkpt>
      <trkpt lat="22.747924" lon="110.190818">
        <ele>108.075751</ele>
        <time>2026-08-16T04:07:34.000Z</time>
      </trkpt>
      <trkpt lat="22.747932" lon="110.190820">
        <ele>108.146655</ele>
        <time>2026-08-16T04:07:35.000Z</time>
      </trkpt>
      <trkpt lat="22.747936" lon="110.190810">
        <ele>108.233471</ele>
        <time>2026-08-16T07:11:49.000Z</time>
      </trkpt>
      <trkpt lat="22.747924" lon="110.190801">
        <ele>108.359483</ele>
        <time>2026-08-16T07:11:50.000Z</time>
      </trkpt>
      <trkpt lat="22.747907" lon="110.190793">
        <ele>108.519533</ele>
        <time>2026-08-16T07:11:51.000Z</time>
      </trkpt>
      <trkpt lat="22.747891" lon="110.190787">
        <ele>108.665747</ele>
        <time>2026-08-16T07:11:52.000Z</time>
      </trkpt>
      <trkpt lat="22.747871" lon="110.190781">
        <ele>108.844965</ele>
        <time>2026-08-16T07:11:53.000Z</time>
      </trkpt>
      <trkpt lat="22.747848" lon="110.190775">
        <ele>109.049271</ele>
        <time>2026-08-16T07:11:54.000Z</time>
      </trkpt>
      <trkpt lat="22.747828" lon="110.190768">
        <ele>109.230776</ele>
        <time>2026-08-16T07:11:55.000Z</time>
      </trkpt>
      <trkpt lat="22.747804" lon="110.190761">
        <ele>109.445418</ele>
        <time>2026-08-16T07:11:56.000Z</time>
      </trkpt>
      <trkpt lat="22.747780" lon="110.190758">
        <ele>109.654066</ele>
        <time>2026-08-16T07:11:57.000Z</time>
      </trkpt>
      <trkpt lat="22.747757" lon="110.190762">
        <ele>109.855243</ele>
        <time>2026-08-16T07:11:58.000Z</time>
      </trkpt>
      <trkpt lat="22.747736" lon="110.190759">
        <ele>110.038177</ele>
        <time>2026-08-16T07:11:59.000Z</time>
      </trkpt>
      <trkpt lat="22.747712" lon="110.190751">
        <ele>110.255024</ele>
        <time>2026-08-16T07:12:00.000Z</time>
      </trkpt>
      <trkpt lat="22.747688" lon="110.190746">
        <ele>110.466091</ele>
        <time>2026-08-16T07:12:01.000Z</time>
      </trkpt>
      <trkpt lat="22.747663" lon="110.190739">
        <ele>110.689084</ele>
        <time>2026-08-16T07:12:02.000Z</time>
      </trkpt>
      <trkpt lat="22.747638" lon="110.190731">
        <ele>110.914202</ele>
        <time>2026-08-16T07:12:03.000Z</time>
      </trkpt>
      <trkpt lat="22.747614" lon="110.190723">
        <ele>111.131050</ele>
        <time>2026-08-16T07:12:04.000Z</time>
      </trkpt>
      <trkpt lat="22.747594" lon="110.190707">
        <ele>111.345701</ele>
        <time>2026-08-16T07:12:05.000Z</time>
      </trkpt>
      <trkpt lat="22.747574" lon="110.190689">
        <ele>111.570176</ele>
        <time>2026-08-16T07:12:06.000Z</time>
      </trkpt>
      <trkpt lat="22.747553" lon="110.190669">
        <ele>111.678069</ele>
        <time>2026-08-16T07:12:07.000Z</time>
      </trkpt>
      <trkpt lat="22.747532" lon="110.190648">
        <ele>111.769496</ele>
        <time>2026-08-16T07:12:08.000Z</time>
      </trkpt>
      <trkpt lat="22.747509" lon="110.190630">
        <ele>111.860275</ele>
        <time>2026-08-16T07:12:09.000Z</time>
      </trkpt>
      <trkpt lat="22.747487" lon="110.190613">
        <ele>111.946734</ele>
        <time>2026-08-16T07:12:10.000Z</time>
      </trkpt>
      <trkpt lat="22.747468" lon="110.190595">
        <ele>112.027481</ele>
        <time>2026-08-16T07:12:11.000Z</time>
      </trkpt>
      <trkpt lat="22.747443" lon="110.190583">
        <ele>112.114980</ele>
        <time>2026-08-16T07:12:12.000Z</time>
      </trkpt>
      <trkpt lat="22.747421" lon="110.190579">
        <ele>112.186373</ele>
        <time>2026-08-16T07:12:13.000Z</time>
      </trkpt>
      <trkpt lat="22.747401" lon="110.190574">
        <ele>112.252061</ele>
        <time>2026-08-16T07:12:14.000Z</time>
      </trkpt>
      <trkpt lat="22.747387" lon="110.190579">
        <ele>112.299235</ele>
        <time>2026-08-16T07:12:15.000Z</time>
      </trkpt>
      <trkpt lat="22.747378" lon="110.190590">
        <ele>112.342637</ele>
        <time>2026-08-16T07:12:16.000Z</time>
      </trkpt>
      <trkpt lat="22.747368" lon="110.190613">
        <ele>112.417687</ele>
        <time>2026-08-16T07:12:17.000Z</time>
      </trkpt>
      <trkpt lat="22.747350" lon="110.190638">
        <ele>112.511299</ele>
        <time>2026-08-16T07:12:18.000Z</time>
      </trkpt>
      <trkpt lat="22.747326" lon="110.190665">
        <ele>112.621981</ele>
        <time>2026-08-16T07:12:19.000Z</time>
      </trkpt>
      <trkpt lat="22.747302" lon="110.190688">
        <ele>112.724490</ele>
        <time>2026-08-16T07:12:20.000Z</time>
      </trkpt>
      <trkpt lat="22.747281" lon="110.190712">
        <ele>112.822137</ele>
        <time>2026-08-16T07:12:21.000Z</time>
      </trkpt>
      <trkpt lat="22.747257" lon="110.190731">
        <ele>112.917240</ele>
        <time>2026-08-16T07:12:22.000Z</time>
      </trkpt>
      <trkpt lat="22.747241" lon="110.190757">
        <ele>113.009495</ele>
        <time>2026-08-16T07:12:23.000Z</time>
      </trkpt>
      <trkpt lat="22.747219" lon="110.190785">
        <ele>113.118064</ele>
        <time>2026-08-16T07:12:24.000Z</time>
      </trkpt>
      <trkpt lat="22.747196" lon="110.190800">
        <ele>113.203963</ele>
        <time>2026-08-16T07:12:25.000Z</time>
      </trkpt>
      <trkpt lat="22.747177" lon="110.190819">
        <ele>113.286682</ele>
        <time>2026-08-16T07:12:26.000Z</time>
      </trkpt>
      <trkpt lat="22.747161" lon="110.190838">
        <ele>113.362622</ele>
        <time>2026-08-16T07:12:27.000Z</time>
      </trkpt>
      <trkpt lat="22.747144" lon="110.190862">
        <ele>113.451941</ele>
        <time>2026-08-16T07:12:28.000Z</time>
      </trkpt>
      <trkpt lat="22.747127" lon="110.190888">
        <ele>113.546011</ele>
        <time>2026-08-16T07:12:29.000Z</time>
      </trkpt>
      <trkpt lat="22.747108" lon="110.190907">
        <ele>113.628730</ele>
        <time>2026-08-16T07:12:30.000Z</time>
      </trkpt>
      <trkpt lat="22.747097" lon="110.190928">
        <ele>113.700012</ele>
        <time>2026-08-16T07:12:31.000Z</time>
      </trkpt>
      <trkpt lat="22.747087" lon="110.190945">
        <ele>113.759526</ele>
        <time>2026-08-16T07:12:32.000Z</time>
      </trkpt>
      <trkpt lat="22.747078" lon="110.190952">
        <ele>113.794973</ele>
        <time>2026-08-16T07:12:33.000Z</time>
      </trkpt>
      <trkpt lat="22.747072" lon="110.190957">
        <ele>113.819191</ele>
        <time>2026-08-16T07:12:34.000Z</time>
      </trkpt>
      <trkpt lat="22.747060" lon="110.190968">
        <ele>113.869481</ele>
        <time>2026-08-16T07:12:35.000Z</time>
      </trkpt>
      <trkpt lat="22.747048" lon="110.190983">
        <ele>113.928090</ele>
        <time>2026-08-16T07:12:36.000Z</time>
      </trkpt>
      <trkpt lat="22.747032" lon="110.191008">
        <ele>114.017905</ele>
        <time>2026-08-16T07:12:37.000Z</time>
      </trkpt>
      <trkpt lat="22.747028" lon="110.191042">
        <ele>114.119070</ele>
        <time>2026-08-16T07:12:38.000Z</time>
      </trkpt>
      <trkpt lat="22.747025" lon="110.191080">
        <ele>114.231637</ele>
        <time>2026-08-16T07:12:39.000Z</time>
      </trkpt>
      <trkpt lat="22.747023" lon="110.191119">
        <ele>114.346924</ele>
        <time>2026-08-16T07:12:40.000Z</time>
      </trkpt>
      <trkpt lat="22.747022" lon="110.191158">
        <ele>114.462077</ele>
        <time>2026-08-16T07:12:41.000Z</time>
      </trkpt>
      <trkpt lat="22.747024" lon="110.191198">
        <ele>114.580311</ele>
        <time>2026-08-16T07:12:42.000Z</time>
      </trkpt>
      <trkpt lat="22.747027" lon="110.191242">
        <ele>114.710532</ele>
        <time>2026-08-16T07:12:43.000Z</time>
      </trkpt>
      <trkpt lat="22.747026" lon="110.191288">
        <ele>114.846339</ele>
        <time>2026-08-16T07:12:44.000Z</time>
      </trkpt>
      <trkpt lat="22.747029" lon="110.191332">
        <ele>114.976560</ele>
        <time>2026-08-16T07:12:45.000Z</time>
      </trkpt>
      <trkpt lat="22.747032" lon="110.191378">
        <ele>115.112668</ele>
        <time>2026-08-16T07:12:46.000Z</time>
      </trkpt>
      <trkpt lat="22.747037" lon="110.191423">
        <ele>115.246446</ele>
        <time>2026-08-16T07:12:47.000Z</time>
      </trkpt>
      <trkpt lat="22.747042" lon="110.191468">
        <ele>115.380225</ele>
        <time>2026-08-16T07:12:48.000Z</time>
      </trkpt>
      <trkpt lat="22.747047" lon="110.191514">
        <ele>115.516934</ele>
        <time>2026-08-16T07:12:49.000Z</time>
      </trkpt>
      <trkpt lat="22.747053" lon="110.191559">
        <ele>115.651133</ele>
        <time>2026-08-16T07:12:50.000Z</time>
      </trkpt>
      <trkpt lat="22.747058" lon="110.191604">
        <ele>115.784911</ele>
        <time>2026-08-16T07:12:51.000Z</time>
      </trkpt>
      <trkpt lat="22.747063" lon="110.191651">
        <ele>115.924552</ele>
        <time>2026-08-16T07:12:52.000Z</time>
      </trkpt>
      <trkpt lat="22.747069" lon="110.191698">
        <ele>116.064596</ele>
        <time>2026-08-16T07:12:53.000Z</time>
      </trkpt>
      <trkpt lat="22.747075" lon="110.191748">
        <ele>116.213415</ele>
        <time>2026-08-16T07:12:54.000Z</time>
      </trkpt>
      <trkpt lat="22.747079" lon="110.191796">
        <ele>116.355665</ele>
        <time>2026-08-16T07:12:55.000Z</time>
      </trkpt>
      <trkpt lat="22.747079" lon="110.191843">
        <ele>116.494385</ele>
        <time>2026-08-16T07:12:56.000Z</time>
      </trkpt>
      <trkpt lat="22.747077" lon="110.191892">
        <ele>116.639151</ele>
        <time>2026-08-16T07:12:57.000Z</time>
      </trkpt>
      <trkpt lat="22.747069" lon="110.191941">
        <ele>116.786024</ele>
        <time>2026-08-16T07:12:58.000Z</time>
      </trkpt>
      <trkpt lat="22.747068" lon="110.191994">
        <ele>116.942486</ele>
        <time>2026-08-16T07:12:59.000Z</time>
      </trkpt>
      <trkpt lat="22.747074" lon="110.192047">
        <ele>117.100090</ele>
        <time>2026-08-16T07:13:00.000Z</time>
      </trkpt>
      <trkpt lat="22.747074" lon="110.192101">
        <ele>117.259472</ele>
        <time>2026-08-16T07:13:01.000Z</time>
      </trkpt>
      <trkpt lat="22.747070" lon="110.192153">
        <ele>117.360627</ele>
        <time>2026-08-16T07:13:02.000Z</time>
      </trkpt>
      <trkpt lat="22.747070" lon="110.192204">
        <ele>117.372945</ele>
        <time>2026-08-16T07:13:03.000Z</time>
      </trkpt>
      <trkpt lat="22.747069" lon="110.192257">
        <ele>117.385750</ele>
        <time>2026-08-16T07:13:04.000Z</time>
      </trkpt>
      <trkpt lat="22.747066" lon="110.192310">
        <ele>117.398576</ele>
        <time>2026-08-16T07:13:05.000Z</time>
      </trkpt>
      <trkpt lat="22.747081" lon="110.192365">
        <ele>117.412429</ele>
        <time>2026-08-16T07:13:06.000Z</time>
      </trkpt>
      <trkpt lat="22.747093" lon="110.192420">
        <ele>117.426081</ele>
        <time>2026-08-16T07:13:07.000Z</time>
      </trkpt>
      <trkpt lat="22.747103" lon="110.192474">
        <ele>117.439384</ele>
        <time>2026-08-16T07:13:08.000Z</time>
      </trkpt>
      <trkpt lat="22.747115" lon="110.192527">
        <ele>117.452566</ele>
        <time>2026-08-16T07:13:09.000Z</time>
      </trkpt>
      <trkpt lat="22.747123" lon="110.192581">
        <ele>117.465776</ele>
        <time>2026-08-16T07:13:10.000Z</time>
      </trkpt>
      <trkpt lat="22.747134" lon="110.192637">
        <ele>117.479606</ele>
        <time>2026-08-16T07:13:11.000Z</time>
      </trkpt>
      <trkpt lat="22.747145" lon="110.192691">
        <ele>117.492964</ele>
        <time>2026-08-16T07:13:12.000Z</time>
      </trkpt>
      <trkpt lat="22.747154" lon="110.192745">
        <ele>117.506218</ele>
        <time>2026-08-16T07:13:13.000Z</time>
      </trkpt>
      <trkpt lat="22.747163" lon="110.192801">
        <ele>117.519948</ele>
        <time>2026-08-16T07:13:14.000Z</time>
      </trkpt>
      <trkpt lat="22.747172" lon="110.192854">
        <ele>117.532965</ele>
        <time>2026-08-16T07:13:15.000Z</time>
      </trkpt>
      <trkpt lat="22.747181" lon="110.192908">
        <ele>117.546220</ele>
        <time>2026-08-16T07:13:16.000Z</time>
      </trkpt>
      <trkpt lat="22.747191" lon="110.192963">
        <ele>117.559760</ele>
        <time>2026-08-16T07:13:17.000Z</time>
      </trkpt>
      <trkpt lat="22.747199" lon="110.193018">
        <ele>117.573209</ele>
        <time>2026-08-16T07:13:18.000Z</time>
      </trkpt>
      <trkpt lat="22.747207" lon="110.193074">
        <ele>117.586897</ele>
        <time>2026-08-16T07:13:19.000Z</time>
      </trkpt>
      <trkpt lat="22.747214" lon="110.193134">
        <ele>117.601505</ele>
        <time>2026-08-16T07:13:20.000Z</time>
      </trkpt>
      <trkpt lat="22.747225" lon="110.193189">
        <ele>117.615098</ele>
        <time>2026-08-16T07:13:21.000Z</time>
      </trkpt>
      <trkpt lat="22.747232" lon="110.193245">
        <ele>117.628748</ele>
        <time>2026-08-16T07:13:22.000Z</time>
      </trkpt>
      <trkpt lat="22.747238" lon="110.193293">
        <ele>117.640448</ele>
        <time>2026-08-16T07:13:23.000Z</time>
      </trkpt>
      <trkpt lat="22.747246" lon="110.193342">
        <ele>117.652468</ele>
        <time>2026-08-16T07:13:24.000Z</time>
      </trkpt>
      <trkpt lat="22.747251" lon="110.193389">
        <ele>117.663896</ele>
        <time>2026-08-16T07:13:25.000Z</time>
      </trkpt>
      <trkpt lat="22.747257" lon="110.193437">
        <ele>117.675596</ele>
        <time>2026-08-16T07:13:26.000Z</time>
      </trkpt>
      <trkpt lat="22.747253" lon="110.193481">
        <ele>117.686275</ele>
        <time>2026-08-16T07:13:27.000Z</time>
      </trkpt>
      <trkpt lat="22.747264" lon="110.193534">
        <ele>117.699397</ele>
        <time>2026-08-16T07:13:28.000Z</time>
      </trkpt>
      <trkpt lat="22.747261" lon="110.193572">
        <ele>117.708609</ele>
        <time>2026-08-16T07:13:29.000Z</time>
      </trkpt>
      <trkpt lat="22.747256" lon="110.193615">
        <ele>117.719077</ele>
        <time>2026-08-16T07:13:30.000Z</time>
      </trkpt>
      <trkpt lat="22.747253" lon="110.193658">
        <ele>117.729493</ele>
        <time>2026-08-16T07:13:31.000Z</time>
      </trkpt>
      <trkpt lat="22.747255" lon="110.193704">
        <ele>117.740616</ele>
        <time>2026-08-16T07:13:32.000Z</time>
      </trkpt>
      <trkpt lat="22.747265" lon="110.193760">
        <ele>117.754394</ele>
        <time>2026-08-16T07:13:33.000Z</time>
      </trkpt>
      <trkpt lat="22.747268" lon="110.193819">
        <ele>117.768667</ele>
        <time>2026-08-16T07:13:34.000Z</time>
      </trkpt>
      <trkpt lat="22.747268" lon="110.193872">
        <ele>117.781468</ele>
        <time>2026-08-16T07:13:35.000Z</time>
      </trkpt>
      <trkpt lat="22.747267" lon="110.193923">
        <ele>117.793790</ele>
        <time>2026-08-16T07:13:36.000Z</time>
      </trkpt>
      <trkpt lat="22.747270" lon="110.193972">
        <ele>117.805651</ele>
        <time>2026-08-16T07:13:37.000Z</time>
      </trkpt>
      <trkpt lat="22.747275" lon="110.194023">
        <ele>117.818039</ele>
        <time>2026-08-16T07:13:38.000Z</time>
      </trkpt>
      <trkpt lat="22.747279" lon="110.194073">
        <ele>117.831396</ele>
        <time>2026-08-16T07:13:39.000Z</time>
      </trkpt>
      <trkpt lat="22.747286" lon="110.194126">
        <ele>117.849382</ele>
        <time>2026-08-16T07:13:40.000Z</time>
      </trkpt>
      <trkpt lat="22.747288" lon="110.194173">
        <ele>117.865188</ele>
        <time>2026-08-16T07:13:41.000Z</time>
      </trkpt>
      <trkpt lat="22.747286" lon="110.194221">
        <ele>117.881330</ele>
        <time>2026-08-16T07:13:42.000Z</time>
      </trkpt>
      <trkpt lat="22.747288" lon="110.194275">
        <ele>117.899485</ele>
        <time>2026-08-16T07:13:43.000Z</time>
      </trkpt>
      <trkpt lat="22.747291" lon="110.194325">
        <ele>117.916317</ele>
        <time>2026-08-16T07:13:44.000Z</time>
      </trkpt>
      <trkpt lat="22.747296" lon="110.194373">
        <ele>117.932545</ele>
        <time>2026-08-16T07:13:45.000Z</time>
      </trkpt>
      <trkpt lat="22.747300" lon="110.194424">
        <ele>117.949739</ele>
        <time>2026-08-16T07:13:46.000Z</time>
      </trkpt>
      <trkpt lat="22.747306" lon="110.194478">
        <ele>117.968011</ele>
        <time>2026-08-16T07:13:47.000Z</time>
      </trkpt>
      <trkpt lat="22.747314" lon="110.194528">
        <ele>117.985059</ele>
        <time>2026-08-16T07:13:48.000Z</time>
      </trkpt>
      <trkpt lat="22.747309" lon="110.194580">
        <ele>118.002622</ele>
        <time>2026-08-16T07:13:49.000Z</time>
      </trkpt>
      <trkpt lat="22.747327" lon="110.194630">
        <ele>118.020653</ele>
        <time>2026-08-16T07:13:50.000Z</time>
      </trkpt>
      <trkpt lat="22.747350" lon="110.194688">
        <ele>118.041863</ele>
        <time>2026-08-16T07:13:51.000Z</time>
      </trkpt>
      <trkpt lat="22.747365" lon="110.194747">
        <ele>118.062422</ele>
        <time>2026-08-16T07:13:52.000Z</time>
      </trkpt>
      <trkpt lat="22.747376" lon="110.194804">
        <ele>118.081986</ele>
        <time>2026-08-16T07:13:53.000Z</time>
      </trkpt>
      <trkpt lat="22.747388" lon="110.194860">
        <ele>118.101299</ele>
        <time>2026-08-16T07:13:54.000Z</time>
      </trkpt>
      <trkpt lat="22.747401" lon="110.194914">
        <ele>118.120048</ele>
        <time>2026-08-16T07:13:55.000Z</time>
      </trkpt>
      <trkpt lat="22.747421" lon="110.194967">
        <ele>118.139285</ele>
        <time>2026-08-16T07:13:56.000Z</time>
      </trkpt>
      <trkpt lat="22.747430" lon="110.195020">
        <ele>118.157389</ele>
        <time>2026-08-16T07:13:57.000Z</time>
      </trkpt>
      <trkpt lat="22.747435" lon="110.195073">
        <ele>118.175287</ele>
        <time>2026-08-16T07:13:58.000Z</time>
      </trkpt>
      <trkpt lat="22.747444" lon="110.195128">
        <ele>118.194052</ele>
        <time>2026-08-16T07:13:59.000Z</time>
      </trkpt>
      <trkpt lat="22.747476" lon="110.195196">
        <ele>118.219698</ele>
        <time>2026-08-16T07:14:00.000Z</time>
      </trkpt>
      <trkpt lat="22.747522" lon="110.195283">
        <ele>118.253387</ele>
        <time>2026-08-16T07:14:01.000Z</time>
      </trkpt>
      <trkpt lat="22.747561" lon="110.195357">
        <ele>118.282019</ele>
        <time>2026-08-16T07:14:02.000Z</time>
      </trkpt>
      <trkpt lat="22.747572" lon="110.195418">
        <ele>118.302899</ele>
        <time>2026-08-16T07:14:03.000Z</time>
      </trkpt>
      <trkpt lat="22.747571" lon="110.195477">
        <ele>118.322723</ele>
        <time>2026-08-16T07:14:04.000Z</time>
      </trkpt>
      <trkpt lat="22.747565" lon="110.195530">
        <ele>118.340661</ele>
        <time>2026-08-16T07:14:05.000Z</time>
      </trkpt>
      <trkpt lat="22.747571" lon="110.195581">
        <ele>118.357933</ele>
        <time>2026-08-16T07:14:06.000Z</time>
      </trkpt>
      <trkpt lat="22.747577" lon="110.195631">
        <ele>118.374871</ele>
        <time>2026-08-16T07:14:07.000Z</time>
      </trkpt>
      <trkpt lat="22.747577" lon="110.195683">
        <ele>118.392340</ele>
        <time>2026-08-16T07:14:08.000Z</time>
      </trkpt>
      <trkpt lat="22.747580" lon="110.195730">
        <ele>118.408167</ele>
        <time>2026-08-16T07:14:09.000Z</time>
      </trkpt>
      <trkpt lat="22.747587" lon="110.195783">
        <ele>118.426153</ele>
        <time>2026-08-16T07:14:10.000Z</time>
      </trkpt>
      <trkpt lat="22.747589" lon="110.195837">
        <ele>118.444308</ele>
        <time>2026-08-16T07:14:11.000Z</time>
      </trkpt>
      <trkpt lat="22.747591" lon="110.195890">
        <ele>118.462128</ele>
        <time>2026-08-16T07:14:12.000Z</time>
      </trkpt>
      <trkpt lat="22.747593" lon="110.195947">
        <ele>118.481290</ele>
        <time>2026-08-16T07:14:13.000Z</time>
      </trkpt>
      <trkpt lat="22.747594" lon="110.196003">
        <ele>118.489427</ele>
        <time>2026-08-16T07:14:14.000Z</time>
      </trkpt>
      <trkpt lat="22.747592" lon="110.196058">
        <ele>118.496894</ele>
        <time>2026-08-16T07:14:15.000Z</time>
      </trkpt>
      <trkpt lat="22.747586" lon="110.196111">
        <ele>118.504137</ele>
        <time>2026-08-16T07:14:16.000Z</time>
      </trkpt>
      <trkpt lat="22.747580" lon="110.196166">
        <ele>118.511650</ele>
        <time>2026-08-16T07:14:17.000Z</time>
      </trkpt>
      <trkpt lat="22.747574" lon="110.196221">
        <ele>118.519163</ele>
        <time>2026-08-16T07:14:18.000Z</time>
      </trkpt>
      <trkpt lat="22.747567" lon="110.196275">
        <ele>118.526561</ele>
        <time>2026-08-16T07:14:19.000Z</time>
      </trkpt>
      <trkpt lat="22.747562" lon="110.196330">
        <ele>118.534058</ele>
        <time>2026-08-16T07:14:20.000Z</time>
      </trkpt>
      <trkpt lat="22.747556" lon="110.196386">
        <ele>118.541705</ele>
        <time>2026-08-16T07:14:21.000Z</time>
      </trkpt>
      <trkpt lat="22.747553" lon="110.196443">
        <ele>118.549450</ele>
        <time>2026-08-16T07:14:22.000Z</time>
      </trkpt>
      <trkpt lat="22.747549" lon="110.196497">
        <ele>118.556799</ele>
        <time>2026-08-16T07:14:23.000Z</time>
      </trkpt>
      <trkpt lat="22.747534" lon="110.196548">
        <ele>118.564060</ele>
        <time>2026-08-16T07:14:24.000Z</time>
      </trkpt>
      <trkpt lat="22.747526" lon="110.196602">
        <ele>118.571479</ele>
        <time>2026-08-16T07:14:25.000Z</time>
      </trkpt>
      <trkpt lat="22.747520" lon="110.196658">
        <ele>118.579127</ele>
        <time>2026-08-16T07:14:26.000Z</time>
      </trkpt>
      <trkpt lat="22.747512" lon="110.196714">
        <ele>118.586814</ele>
        <time>2026-08-16T07:14:27.000Z</time>
      </trkpt>
      <trkpt lat="22.747509" lon="110.196765">
        <ele>118.593747</ele>
        <time>2026-08-16T07:14:28.000Z</time>
      </trkpt>
      <trkpt lat="22.747505" lon="110.196815">
        <ele>118.600555</ele>
        <time>2026-08-16T07:14:29.000Z</time>
      </trkpt>
      <trkpt lat="22.747497" lon="110.196854">
        <ele>118.605974</ele>
        <time>2026-08-16T07:14:30.000Z</time>
      </trkpt>
      <trkpt lat="22.747488" lon="110.196888">
        <ele>118.610773</ele>
        <time>2026-08-16T07:14:31.000Z</time>
      </trkpt>
      <trkpt lat="22.747481" lon="110.196919">
        <ele>118.615102</ele>
        <time>2026-08-16T07:14:32.000Z</time>
      </trkpt>
      <trkpt lat="22.747478" lon="110.196945">
        <ele>118.618657</ele>
        <time>2026-08-16T07:14:33.000Z</time>
      </trkpt>
      <trkpt lat="22.747474" lon="110.196980">
        <ele>118.623441</ele>
        <time>2026-08-16T07:14:34.000Z</time>
      </trkpt>
      <trkpt lat="22.747471" lon="110.197016">
        <ele>118.628344</ele>
        <time>2026-08-16T07:14:35.000Z</time>
      </trkpt>
      <trkpt lat="22.747473" lon="110.197065">
        <ele>118.634998</ele>
        <time>2026-08-16T07:14:36.000Z</time>
      </trkpt>
      <trkpt lat="22.747480" lon="110.197120">
        <ele>118.642529</ele>
        <time>2026-08-16T07:14:37.000Z</time>
      </trkpt>
      <trkpt lat="22.747484" lon="110.197168">
        <ele>118.649067</ele>
        <time>2026-08-16T07:14:38.000Z</time>
      </trkpt>
      <trkpt lat="22.747488" lon="110.197207">
        <ele>118.654390</ele>
        <time>2026-08-16T07:14:39.000Z</time>
      </trkpt>
      <trkpt lat="22.747482" lon="110.197241">
        <ele>118.659086</ele>
        <time>2026-08-16T07:14:40.000Z</time>
      </trkpt>
      <trkpt lat="22.747471" lon="110.197276">
        <ele>118.664102</ele>
        <time>2026-08-16T07:14:41.000Z</time>
      </trkpt>
      <trkpt lat="22.747463" lon="110.197315">
        <ele>118.669522</ele>
        <time>2026-08-16T07:14:42.000Z</time>
      </trkpt>
      <trkpt lat="22.747458" lon="110.197353">
        <ele>118.674729</ele>
        <time>2026-08-16T07:14:43.000Z</time>
      </trkpt>
      <trkpt lat="22.747450" lon="110.197390">
        <ele>118.679884</ele>
        <time>2026-08-16T07:14:44.000Z</time>
      </trkpt>
      <trkpt lat="22.747442" lon="110.197426">
        <ele>118.684907</ele>
        <time>2026-08-16T07:14:45.000Z</time>
      </trkpt>
      <trkpt lat="22.747434" lon="110.197466">
        <ele>118.690459</ele>
        <time>2026-08-16T07:14:46.000Z</time>
      </trkpt>
      <trkpt lat="22.747427" lon="110.197506">
        <ele>118.695982</ele>
        <time>2026-08-16T07:14:47.000Z</time>
      </trkpt>
      <trkpt lat="22.747416" lon="110.197546">
        <ele>118.701644</ele>
        <time>2026-08-16T07:14:48.000Z</time>
      </trkpt>
      <trkpt lat="22.747404" lon="110.197589">
        <ele>118.707739</ele>
        <time>2026-08-16T07:14:49.000Z</time>
      </trkpt>
      <trkpt lat="22.747392" lon="110.197634">
        <ele>118.714093</ele>
        <time>2026-08-16T07:14:50.000Z</time>
      </trkpt>
      <trkpt lat="22.747381" lon="110.197681">
        <ele>118.720671</ele>
        <time>2026-08-16T07:14:51.000Z</time>
      </trkpt>
      <trkpt lat="22.747371" lon="110.197727">
        <ele>118.727082</ele>
        <time>2026-08-16T07:14:52.000Z</time>
      </trkpt>
      <trkpt lat="22.747361" lon="110.197773">
        <ele>118.733493</ele>
        <time>2026-08-16T07:14:53.000Z</time>
      </trkpt>
      <trkpt lat="22.747351" lon="110.197821">
        <ele>118.740168</ele>
        <time>2026-08-16T07:14:54.000Z</time>
      </trkpt>
      <trkpt lat="22.747334" lon="110.197870">
        <ele>118.745307</ele>
        <time>2026-08-16T07:14:55.000Z</time>
      </trkpt>
      <trkpt lat="22.747313" lon="110.197917">
        <ele>118.724938</ele>
        <time>2026-08-16T07:14:56.000Z</time>
      </trkpt>
      <trkpt lat="22.747297" lon="110.197967">
        <ele>118.704297</ele>
        <time>2026-08-16T07:14:57.000Z</time>
      </trkpt>
      <trkpt lat="22.747283" lon="110.198014">
        <ele>118.685035</ele>
        <time>2026-08-16T07:14:58.000Z</time>
      </trkpt>
      <trkpt lat="22.747276" lon="110.198067">
        <ele>118.664154</ele>
        <time>2026-08-16T07:14:59.000Z</time>
      </trkpt>
      <trkpt lat="22.747272" lon="110.198119">
        <ele>118.643803</ele>
        <time>2026-08-16T07:15:00.000Z</time>
      </trkpt>
      <trkpt lat="22.747267" lon="110.198172">
        <ele>118.623025</ele>
        <time>2026-08-16T07:15:01.000Z</time>
      </trkpt>
      <trkpt lat="22.747264" lon="110.198226">
        <ele>118.601926</ele>
        <time>2026-08-16T07:15:02.000Z</time>
      </trkpt>
      <trkpt lat="22.747258" lon="110.198279">
        <ele>118.581101</ele>
        <time>2026-08-16T07:15:03.000Z</time>
      </trkpt>
      <trkpt lat="22.747249" lon="110.198332">
        <ele>118.560083</ele>
        <time>2026-08-16T07:15:04.000Z</time>
      </trkpt>
      <trkpt lat="22.747238" lon="110.198382">
        <ele>118.540036</ele>
        <time>2026-08-16T07:15:05.000Z</time>
      </trkpt>
      <trkpt lat="22.747227" lon="110.198432">
        <ele>118.519988</ele>
        <time>2026-08-16T07:15:06.000Z</time>
      </trkpt>
      <trkpt lat="22.747219" lon="110.198482">
        <ele>118.500197</ele>
        <time>2026-08-16T07:15:07.000Z</time>
      </trkpt>
      <trkpt lat="22.747212" lon="110.198534">
        <ele>118.479701</ele>
        <time>2026-08-16T07:15:08.000Z</time>
      </trkpt>
      <trkpt lat="22.747203" lon="110.198588">
        <ele>118.458300</ele>
        <time>2026-08-16T07:15:09.000Z</time>
      </trkpt>
      <trkpt lat="22.747198" lon="110.198643">
        <ele>118.436746</ele>
        <time>2026-08-16T07:15:10.000Z</time>
      </trkpt>
      <trkpt lat="22.747195" lon="110.198697">
        <ele>118.415647</ele>
        <time>2026-08-16T07:15:11.000Z</time>
      </trkpt>
      <trkpt lat="22.747190" lon="110.198751">
        <ele>118.394481</ele>
        <time>2026-08-16T07:15:12.000Z</time>
      </trkpt>
      <trkpt lat="22.747189" lon="110.198800">
        <ele>118.375366</ele>
        <time>2026-08-16T07:15:13.000Z</time>
      </trkpt>
      <trkpt lat="22.747184" lon="110.198844">
        <ele>118.358076</ele>
        <time>2026-08-16T07:15:14.000Z</time>
      </trkpt>
      <trkpt lat="22.747177" lon="110.198882">
        <ele>118.342963</ele>
        <time>2026-08-16T07:15:15.000Z</time>
      </trkpt>
      <trkpt lat="22.747173" lon="110.198909">
        <ele>118.332298</ele>
        <time>2026-08-16T07:15:16.000Z</time>
      </trkpt>
      <trkpt lat="22.747172" lon="110.198929">
        <ele>118.324486</ele>
        <time>2026-08-16T07:15:17.000Z</time>
      </trkpt>
      <trkpt lat="22.747169" lon="110.198946">
        <ele>118.317736</ele>
        <time>2026-08-16T07:15:18.000Z</time>
      </trkpt>
      <trkpt lat="22.747171" lon="110.198969">
        <ele>118.308726</ele>
        <time>2026-08-16T07:15:19.000Z</time>
      </trkpt>
      <trkpt lat="22.747176" lon="110.198993">
        <ele>118.299130</ele>
        <time>2026-08-16T07:15:20.000Z</time>
      </trkpt>
      <trkpt lat="22.747175" lon="110.199021">
        <ele>118.288202</ele>
        <time>2026-08-16T07:15:21.000Z</time>
      </trkpt>
      <trkpt lat="22.747174" lon="110.199053">
        <ele>118.275714</ele>
        <time>2026-08-16T07:15:22.000Z</time>
      </trkpt>
      <trkpt lat="22.747171" lon="110.199081">
        <ele>118.264721</ele>
        <time>2026-08-16T07:15:23.000Z</time>
      </trkpt>
      <trkpt lat="22.747162" lon="110.199114">
        <ele>118.251300</ele>
        <time>2026-08-16T07:15:24.000Z</time>
      </trkpt>
      <trkpt lat="22.747156" lon="110.199152">
        <ele>118.236264</ele>
        <time>2026-08-16T07:15:25.000Z</time>
      </trkpt>
      <trkpt lat="22.747151" lon="110.199193">
        <ele>118.220134</ele>
        <time>2026-08-16T07:15:26.000Z</time>
      </trkpt>
      <trkpt lat="22.747145" lon="110.199236">
        <ele>118.203173</ele>
        <time>2026-08-16T07:15:27.000Z</time>
      </trkpt>
      <trkpt lat="22.747140" lon="110.199278">
        <ele>118.186657</ele>
        <time>2026-08-16T07:15:28.000Z</time>
      </trkpt>
      <trkpt lat="22.747136" lon="110.199322">
        <ele>118.169414</ele>
        <time>2026-08-16T07:15:29.000Z</time>
      </trkpt>
      <trkpt lat="22.747134" lon="110.199364">
        <ele>118.153011</ele>
        <time>2026-08-16T07:15:30.000Z</time>
      </trkpt>
      <trkpt lat="22.747130" lon="110.199407">
        <ele>118.136156</ele>
        <time>2026-08-16T07:15:31.000Z</time>
      </trkpt>
      <trkpt lat="22.747118" lon="110.199449">
        <ele>118.119008</ele>
        <time>2026-08-16T07:15:32.000Z</time>
      </trkpt>
      <trkpt lat="22.747109" lon="110.199492">
        <ele>118.101811</ele>
        <time>2026-08-16T07:15:33.000Z</time>
      </trkpt>
      <trkpt lat="22.747101" lon="110.199539">
        <ele>118.083171</ele>
        <time>2026-08-16T07:15:34.000Z</time>
      </trkpt>
      <trkpt lat="22.747096" lon="110.199586">
        <ele>118.064719</ele>
        <time>2026-08-16T07:15:35.000Z</time>
      </trkpt>
      <trkpt lat="22.747091" lon="110.199632">
        <ele>118.046655</ele>
        <time>2026-08-16T07:15:36.000Z</time>
      </trkpt>
      <trkpt lat="22.747082" lon="110.199679">
        <ele>118.027934</ele>
        <time>2026-08-16T07:15:37.000Z</time>
      </trkpt>
      <trkpt lat="22.747074" lon="110.199726">
        <ele>118.009294</ele>
        <time>2026-08-16T07:15:38.000Z</time>
      </trkpt>
      <trkpt lat="22.747069" lon="110.199774">
        <ele>117.990454</ele>
        <time>2026-08-16T07:15:39.000Z</time>
      </trkpt>
      <trkpt lat="22.747064" lon="110.199820">
        <ele>117.976021</ele>
        <time>2026-08-16T07:15:40.000Z</time>
      </trkpt>
      <trkpt lat="22.747059" lon="110.199866">
        <ele>117.962734</ele>
        <time>2026-08-16T07:15:41.000Z</time>
      </trkpt>
      <trkpt lat="22.747052" lon="110.199910">
        <ele>117.949926</ele>
        <time>2026-08-16T07:15:42.000Z</time>
      </trkpt>
      <trkpt lat="22.747045" lon="110.199956">
        <ele>117.936552</ele>
        <time>2026-08-16T07:15:43.000Z</time>
      </trkpt>
      <trkpt lat="22.747038" lon="110.200003">
        <ele>117.922895</ele>
        <time>2026-08-16T07:15:44.000Z</time>
      </trkpt>
      <trkpt lat="22.747028" lon="110.200047">
        <ele>117.909895</ele>
        <time>2026-08-16T07:15:45.000Z</time>
      </trkpt>
      <trkpt lat="22.747022" lon="110.200094">
        <ele>117.896284</ele>
        <time>2026-08-16T07:15:46.000Z</time>
      </trkpt>
      <trkpt lat="22.747014" lon="110.200141">
        <ele>117.882574</ele>
        <time>2026-08-16T07:15:47.000Z</time>
      </trkpt>
      <trkpt lat="22.747004" lon="110.200188">
        <ele>117.868738</ele>
        <time>2026-08-16T07:15:48.000Z</time>
      </trkpt>
      <trkpt lat="22.746994" lon="110.200236">
        <ele>117.854621</ele>
        <time>2026-08-16T07:15:49.000Z</time>
      </trkpt>
      <trkpt lat="22.746993" lon="110.200285">
        <ele>117.840562</ele>
        <time>2026-08-16T07:15:50.000Z</time>
      </trkpt>
      <trkpt lat="22.746989" lon="110.200336">
        <ele>117.825879</ele>
        <time>2026-08-16T07:15:51.000Z</time>
      </trkpt>
      <trkpt lat="22.746982" lon="110.200386">
        <ele>117.811372</ele>
        <time>2026-08-16T07:15:52.000Z</time>
      </trkpt>
      <trkpt lat="22.746972" lon="110.200436">
        <ele>117.796695</ele>
        <time>2026-08-16T07:15:53.000Z</time>
      </trkpt>
      <trkpt lat="22.746962" lon="110.200486">
        <ele>117.782019</ele>
        <time>2026-08-16T07:15:54.000Z</time>
      </trkpt>
      <trkpt lat="22.746953" lon="110.200534">
        <ele>117.767968</ele>
        <time>2026-08-16T07:15:55.000Z</time>
      </trkpt>
      <trkpt lat="22.746946" lon="110.200585">
        <ele>117.753177</ele>
        <time>2026-08-16T07:15:56.000Z</time>
      </trkpt>
      <trkpt lat="22.746940" lon="110.200635">
        <ele>117.738713</ele>
        <time>2026-08-16T07:15:57.000Z</time>
      </trkpt>
      <trkpt lat="22.746927" lon="110.200681">
        <ele>117.724911</ele>
        <time>2026-08-16T07:15:58.000Z</time>
      </trkpt>
      <trkpt lat="22.746921" lon="110.200728">
        <ele>117.711300</ele>
        <time>2026-08-16T07:15:59.000Z</time>
      </trkpt>
      <trkpt lat="22.746912" lon="110.200772">
        <ele>117.698372</ele>
        <time>2026-08-16T07:16:00.000Z</time>
      </trkpt>
      <trkpt lat="22.746902" lon="110.200817">
        <ele>117.685094</ele>
        <time>2026-08-16T07:16:01.000Z</time>
      </trkpt>
      <trkpt lat="22.746891" lon="110.200862">
        <ele>117.671739</ele>
        <time>2026-08-16T07:16:02.000Z</time>
      </trkpt>
      <trkpt lat="22.746883" lon="110.200910">
        <ele>117.657747</ele>
        <time>2026-08-16T07:16:03.000Z</time>
      </trkpt>
      <trkpt lat="22.746876" lon="110.200959">
        <ele>117.643523</ele>
        <time>2026-08-16T07:16:04.000Z</time>
      </trkpt>
      <trkpt lat="22.746863" lon="110.201008">
        <ele>117.628897</ele>
        <time>2026-08-16T07:16:05.000Z</time>
      </trkpt>
      <trkpt lat="22.746851" lon="110.201056">
        <ele>117.614630</ele>
        <time>2026-08-16T07:16:06.000Z</time>
      </trkpt>
      <trkpt lat="22.746842" lon="110.201109">
        <ele>117.599171</ele>
        <time>2026-08-16T07:16:07.000Z</time>
      </trkpt>
      <trkpt lat="22.746835" lon="110.201163">
        <ele>117.583528</ele>
        <time>2026-08-16T07:16:08.000Z</time>
      </trkpt>
      <trkpt lat="22.746825" lon="110.201215">
        <ele>117.568291</ele>
        <time>2026-08-16T07:16:09.000Z</time>
      </trkpt>
      <trkpt lat="22.746815" lon="110.201266">
        <ele>117.553334</ele>
        <time>2026-08-16T07:16:10.000Z</time>
      </trkpt>
      <trkpt lat="22.746805" lon="110.201320">
        <ele>117.537534</ele>
        <time>2026-08-16T07:16:11.000Z</time>
      </trkpt>
      <trkpt lat="22.746796" lon="110.201373">
        <ele>117.522075</ele>
        <time>2026-08-16T07:16:12.000Z</time>
      </trkpt>
      <trkpt lat="22.746788" lon="110.201427">
        <ele>117.506386</ele>
        <time>2026-08-16T07:16:13.000Z</time>
      </trkpt>
      <trkpt lat="22.746781" lon="110.201482">
        <ele>117.490459</ele>
        <time>2026-08-16T07:16:14.000Z</time>
      </trkpt>
      <trkpt lat="22.746773" lon="110.201535">
        <ele>117.475053</ele>
        <time>2026-08-16T07:16:15.000Z</time>
      </trkpt>
      <trkpt lat="22.746765" lon="110.201589">
        <ele>117.459364</ele>
        <time>2026-08-16T07:16:16.000Z</time>
      </trkpt>
      <trkpt lat="22.746758" lon="110.201643">
        <ele>117.443721</ele>
        <time>2026-08-16T07:16:17.000Z</time>
      </trkpt>
      <trkpt lat="22.746749" lon="110.201697">
        <ele>117.427980</ele>
        <time>2026-08-16T07:16:18.000Z</time>
      </trkpt>
      <trkpt lat="22.746740" lon="110.201751">
        <ele>117.401990</ele>
        <time>2026-08-16T07:16:19.000Z</time>
      </trkpt>
      <trkpt lat="22.746733" lon="110.201802">
        <ele>117.376676</ele>
        <time>2026-08-16T07:16:20.000Z</time>
      </trkpt>
      <trkpt lat="22.746726" lon="110.201853">
        <ele>117.351363</ele>
        <time>2026-08-16T07:16:21.000Z</time>
      </trkpt>
      <trkpt lat="22.746719" lon="110.201904">
        <ele>117.326050</ele>
        <time>2026-08-16T07:16:22.000Z</time>
      </trkpt>
      <trkpt lat="22.746713" lon="110.201957">
        <ele>117.299835</ele>
        <time>2026-08-16T07:16:23.000Z</time>
      </trkpt>
      <trkpt lat="22.746703" lon="110.202010">
        <ele>117.273277</ele>
        <time>2026-08-16T07:16:24.000Z</time>
      </trkpt>
      <trkpt lat="22.746694" lon="110.202064">
        <ele>117.246337</ele>
        <time>2026-08-16T07:16:25.000Z</time>
      </trkpt>
      <trkpt lat="22.746686" lon="110.202118">
        <ele>117.219487</ele>
        <time>2026-08-16T07:16:26.000Z</time>
      </trkpt>
      <trkpt lat="22.746677" lon="110.202173">
        <ele>117.192063</ele>
        <time>2026-08-16T07:16:27.000Z</time>
      </trkpt>
      <trkpt lat="22.746670" lon="110.202226">
        <ele>117.165779</ele>
        <time>2026-08-16T07:16:28.000Z</time>
      </trkpt>
      <trkpt lat="22.746663" lon="110.202281">
        <ele>117.138521</ele>
        <time>2026-08-16T07:16:29.000Z</time>
      </trkpt>
      <trkpt lat="22.746654" lon="110.202337">
        <ele>117.110615</ele>
        <time>2026-08-16T07:16:30.000Z</time>
      </trkpt>
      <trkpt lat="22.746644" lon="110.202392">
        <ele>117.083094</ele>
        <time>2026-08-16T07:16:31.000Z</time>
      </trkpt>
      <trkpt lat="22.746635" lon="110.202448">
        <ele>117.055187</ele>
        <time>2026-08-16T07:16:32.000Z</time>
      </trkpt>
      <trkpt lat="22.746625" lon="110.202505">
        <ele>117.026702</ele>
        <time>2026-08-16T07:16:33.000Z</time>
      </trkpt>
      <trkpt lat="22.746617" lon="110.202561">
        <ele>116.998882</ele>
        <time>2026-08-16T07:16:34.000Z</time>
      </trkpt>
      <trkpt lat="22.746607" lon="110.202619">
        <ele>116.969915</ele>
        <time>2026-08-16T07:16:35.000Z</time>
      </trkpt>
      <trkpt lat="22.746597" lon="110.202678">
        <ele>116.940465</ele>
        <time>2026-08-16T07:16:36.000Z</time>
      </trkpt>
      <trkpt lat="22.746591" lon="110.202739">
        <ele>116.910348</ele>
        <time>2026-08-16T07:16:37.000Z</time>
      </trkpt>
      <trkpt lat="22.746580" lon="110.202795">
        <ele>116.882239</ele>
        <time>2026-08-16T07:16:38.000Z</time>
      </trkpt>
      <trkpt lat="22.746570" lon="110.202849">
        <ele>116.855199</ele>
        <time>2026-08-16T07:16:39.000Z</time>
      </trkpt>
      <trkpt lat="22.746561" lon="110.202903">
        <ele>116.828260</ele>
        <time>2026-08-16T07:16:40.000Z</time>
      </trkpt>
      <trkpt lat="22.746552" lon="110.202956">
        <ele>116.801803</ele>
        <time>2026-08-16T07:16:41.000Z</time>
      </trkpt>
      <trkpt lat="22.746541" lon="110.203011">
        <ele>116.774174</ele>
        <time>2026-08-16T07:16:42.000Z</time>
      </trkpt>
      <trkpt lat="22.746527" lon="110.203070">
        <ele>116.744265</ele>
        <time>2026-08-16T07:16:43.000Z</time>
      </trkpt>
      <trkpt lat="22.746512" lon="110.203124">
        <ele>116.716579</ele>
        <time>2026-08-16T07:16:44.000Z</time>
      </trkpt>
      <trkpt lat="22.746505" lon="110.203176">
        <ele>116.690779</ele>
        <time>2026-08-16T07:16:45.000Z</time>
      </trkpt>
      <trkpt lat="22.746505" lon="110.203223">
        <ele>116.667706</ele>
        <time>2026-08-16T07:16:46.000Z</time>
      </trkpt>
      <trkpt lat="22.746499" lon="110.203274">
        <ele>116.642465</ele>
        <time>2026-08-16T07:16:47.000Z</time>
      </trkpt>
      <trkpt lat="22.746489" lon="110.203327">
        <ele>116.615907</ele>
        <time>2026-08-16T07:16:48.000Z</time>
      </trkpt>
      <trkpt lat="22.746476" lon="110.203380">
        <ele>116.588983</ele>
        <time>2026-08-16T07:16:49.000Z</time>
      </trkpt>
      <trkpt lat="22.746463" lon="110.203434">
        <ele>116.561584</ele>
        <time>2026-08-16T07:16:50.000Z</time>
      </trkpt>
      <trkpt lat="22.746454" lon="110.203487">
        <ele>116.535127</ele>
        <time>2026-08-16T07:16:51.000Z</time>
      </trkpt>
      <trkpt lat="22.746447" lon="110.203540">
        <ele>116.508842</ele>
        <time>2026-08-16T07:16:52.000Z</time>
      </trkpt>
      <trkpt lat="22.746430" lon="110.203590">
        <ele>116.482680</ele>
        <time>2026-08-16T07:16:53.000Z</time>
      </trkpt>
      <trkpt lat="22.746416" lon="110.203644">
        <ele>116.460843</ele>
        <time>2026-08-16T07:16:54.000Z</time>
      </trkpt>
      <trkpt lat="22.746405" lon="110.203702">
        <ele>116.443592</ele>
        <time>2026-08-16T07:16:55.000Z</time>
      </trkpt>
      <trkpt lat="22.746397" lon="110.203759">
        <ele>116.426795</ele>
        <time>2026-08-16T07:16:56.000Z</time>
      </trkpt>
      <trkpt lat="22.746390" lon="110.203816">
        <ele>116.410043</ele>
        <time>2026-08-16T07:16:57.000Z</time>
      </trkpt>
      <trkpt lat="22.746379" lon="110.203874">
        <ele>116.392792</ele>
        <time>2026-08-16T07:16:58.000Z</time>
      </trkpt>
      <trkpt lat="22.746368" lon="110.203933">
        <ele>116.375256</ele>
        <time>2026-08-16T07:16:59.000Z</time>
      </trkpt>
      <trkpt lat="22.746359" lon="110.203992">
        <ele>116.357833</ele>
        <time>2026-08-16T07:17:00.000Z</time>
      </trkpt>
      <trkpt lat="22.746348" lon="110.204050">
        <ele>116.340583</ele>
        <time>2026-08-16T07:17:01.000Z</time>
      </trkpt>
      <trkpt lat="22.746337" lon="110.204107">
        <ele>116.323617</ele>
        <time>2026-08-16T07:17:02.000Z</time>
      </trkpt>
      <trkpt lat="22.746328" lon="110.204163">
        <ele>116.307057</ele>
        <time>2026-08-16T07:17:03.000Z</time>
      </trkpt>
      <trkpt lat="22.746319" lon="110.204222">
        <ele>116.289635</ele>
        <time>2026-08-16T07:17:04.000Z</time>
      </trkpt>
      <trkpt lat="22.746310" lon="110.204282">
        <ele>116.271925</ele>
        <time>2026-08-16T07:17:05.000Z</time>
      </trkpt>
      <trkpt lat="22.746302" lon="110.204340">
        <ele>116.254840</ele>
        <time>2026-08-16T07:17:06.000Z</time>
      </trkpt>
      <trkpt lat="22.746295" lon="110.204398">
        <ele>116.237799</ele>
        <time>2026-08-16T07:17:07.000Z</time>
      </trkpt>
      <trkpt lat="22.746288" lon="110.204457">
        <ele>116.220469</ele>
        <time>2026-08-16T07:17:08.000Z</time>
      </trkpt>
      <trkpt lat="22.746281" lon="110.204517">
        <ele>116.202849</ele>
        <time>2026-08-16T07:17:09.000Z</time>
      </trkpt>
      <trkpt lat="22.746271" lon="110.204576">
        <ele>116.185373</ele>
        <time>2026-08-16T07:17:10.000Z</time>
      </trkpt>
      <trkpt lat="22.746259" lon="110.204633">
        <ele>116.168340</ele>
        <time>2026-08-16T07:17:11.000Z</time>
      </trkpt>
      <trkpt lat="22.746247" lon="110.204691">
        <ele>116.151023</ele>
        <time>2026-08-16T07:17:12.000Z</time>
      </trkpt>
      <trkpt lat="22.746237" lon="110.204749">
        <ele>116.133833</ele>
        <time>2026-08-16T07:17:13.000Z</time>
      </trkpt>
      <trkpt lat="22.746224" lon="110.204806">
        <ele>116.116727</ele>
        <time>2026-08-16T07:17:14.000Z</time>
      </trkpt>
      <trkpt lat="22.746214" lon="110.204864">
        <ele>116.099537</ele>
        <time>2026-08-16T07:17:15.000Z</time>
      </trkpt>
      <trkpt lat="22.746209" lon="110.204926">
        <ele>116.081405</ele>
        <time>2026-08-16T07:17:16.000Z</time>
      </trkpt>
      <trkpt lat="22.746203" lon="110.204984">
        <ele>116.064402</ele>
        <time>2026-08-16T07:17:17.000Z</time>
      </trkpt>
      <trkpt lat="22.746193" lon="110.205044">
        <ele>116.046639</ele>
        <time>2026-08-16T07:17:18.000Z</time>
      </trkpt>
      <trkpt lat="22.746182" lon="110.205102">
        <ele>116.029388</ele>
        <time>2026-08-16T07:17:19.000Z</time>
      </trkpt>
      <trkpt lat="22.746172" lon="110.205161">
        <ele>116.011912</ele>
        <time>2026-08-16T07:17:20.000Z</time>
      </trkpt>
      <trkpt lat="22.746161" lon="110.205218">
        <ele>115.994946</ele>
        <time>2026-08-16T07:17:21.000Z</time>
      </trkpt>
      <trkpt lat="22.746149" lon="110.205275">
        <ele>115.977913</ele>
        <time>2026-08-16T07:17:22.000Z</time>
      </trkpt>
      <trkpt lat="22.746139" lon="110.205331">
        <ele>115.961296</ele>
        <time>2026-08-16T07:17:23.000Z</time>
      </trkpt>
      <trkpt lat="22.746130" lon="110.205388">
        <ele>115.944448</ele>
        <time>2026-08-16T07:17:24.000Z</time>
      </trkpt>
      <trkpt lat="22.746121" lon="110.205445">
        <ele>115.927601</ele>
        <time>2026-08-16T07:17:25.000Z</time>
      </trkpt>
      <trkpt lat="22.746112" lon="110.205503">
        <ele>115.910466</ele>
        <time>2026-08-16T07:17:26.000Z</time>
      </trkpt>
      <trkpt lat="22.746103" lon="110.205560">
        <ele>115.909186</ele>
        <time>2026-08-16T07:17:27.000Z</time>
      </trkpt>
      <trkpt lat="22.746093" lon="110.205617">
        <ele>115.928067</ele>
        <time>2026-08-16T07:17:28.000Z</time>
      </trkpt>
      <trkpt lat="22.746086" lon="110.205677">
        <ele>115.947746</ele>
        <time>2026-08-16T07:17:29.000Z</time>
      </trkpt>
      <trkpt lat="22.746075" lon="110.205736">
        <ele>115.967334</ele>
        <time>2026-08-16T07:17:30.000Z</time>
      </trkpt>
      <trkpt lat="22.746065" lon="110.205794">
        <ele>115.986534</ele>
        <time>2026-08-16T07:17:31.000Z</time>
      </trkpt>
      <trkpt lat="22.746055" lon="110.205852">
        <ele>116.005734</ele>
        <time>2026-08-16T07:17:32.000Z</time>
      </trkpt>
      <trkpt lat="22.746046" lon="110.205910">
        <ele>116.024873</ele>
        <time>2026-08-16T07:17:33.000Z</time>
      </trkpt>
      <trkpt lat="22.746038" lon="110.205967">
        <ele>116.043635</ele>
        <time>2026-08-16T07:17:34.000Z</time>
      </trkpt>
      <trkpt lat="22.746030" lon="110.206025">
        <ele>116.062718</ele>
        <time>2026-08-16T07:17:35.000Z</time>
      </trkpt>
      <trkpt lat="22.746023" lon="110.206083">
        <ele>116.081752</ele>
        <time>2026-08-16T07:17:36.000Z</time>
      </trkpt>
      <trkpt lat="22.746013" lon="110.206139">
        <ele>116.100313</ele>
        <time>2026-08-16T07:17:37.000Z</time>
      </trkpt>
      <trkpt lat="22.746003" lon="110.206195">
        <ele>116.118874</ele>
        <time>2026-08-16T07:17:38.000Z</time>
      </trkpt>
      <trkpt lat="22.745993" lon="110.206248">
        <ele>116.136478</ele>
        <time>2026-08-16T07:17:39.000Z</time>
      </trkpt>
      <trkpt lat="22.745983" lon="110.206301">
        <ele>116.154082</ele>
        <time>2026-08-16T07:17:40.000Z</time>
      </trkpt>
      <trkpt lat="22.745974" lon="110.206354">
        <ele>116.171618</ele>
        <time>2026-08-16T07:17:41.000Z</time>
      </trkpt>
      <trkpt lat="22.745966" lon="110.206406">
        <ele>116.188773</ele>
        <time>2026-08-16T07:17:42.000Z</time>
      </trkpt>
      <trkpt lat="22.745958" lon="110.206458">
        <ele>116.205927</ele>
        <time>2026-08-16T07:17:43.000Z</time>
      </trkpt>
      <trkpt lat="22.745948" lon="110.206509">
        <ele>116.222894</ele>
        <time>2026-08-16T07:17:44.000Z</time>
      </trkpt>
      <trkpt lat="22.745936" lon="110.206561">
        <ele>116.240337</ele>
        <time>2026-08-16T07:17:45.000Z</time>
      </trkpt>
      <trkpt lat="22.745926" lon="110.206611">
        <ele>116.256985</ele>
        <time>2026-08-16T07:17:46.000Z</time>
      </trkpt>
      <trkpt lat="22.745917" lon="110.206660">
        <ele>116.273243</ele>
        <time>2026-08-16T07:17:47.000Z</time>
      </trkpt>
      <trkpt lat="22.745907" lon="110.206703">
        <ele>116.287673</ele>
        <time>2026-08-16T07:17:48.000Z</time>
      </trkpt>
      <trkpt lat="22.745899" lon="110.206742">
        <ele>116.300674</ele>
        <time>2026-08-16T07:17:49.000Z</time>
      </trkpt>
      <trkpt lat="22.745894" lon="110.206779">
        <ele>116.312843</ele>
        <time>2026-08-16T07:17:50.000Z</time>
      </trkpt>
      <trkpt lat="22.745892" lon="110.206815">
        <ele>116.324578</ele>
        <time>2026-08-16T07:17:51.000Z</time>
      </trkpt>
      <trkpt lat="22.745887" lon="110.206851">
        <ele>116.336425</ele>
        <time>2026-08-16T07:17:52.000Z</time>
      </trkpt>
      <trkpt lat="22.745882" lon="110.206886">
        <ele>116.347950</ele>
        <time>2026-08-16T07:17:53.000Z</time>
      </trkpt>
      <trkpt lat="22.745877" lon="110.206922">
        <ele>116.359797</ele>
        <time>2026-08-16T07:17:54.000Z</time>
      </trkpt>
      <trkpt lat="22.745871" lon="110.206960">
        <ele>116.372342</ele>
        <time>2026-08-16T07:17:55.000Z</time>
      </trkpt>
      <trkpt lat="22.745865" lon="110.206998">
        <ele>116.384887</ele>
        <time>2026-08-16T07:17:56.000Z</time>
      </trkpt>
      <trkpt lat="22.745857" lon="110.207038">
        <ele>116.398206</ele>
        <time>2026-08-16T07:17:57.000Z</time>
      </trkpt>
      <trkpt lat="22.745849" lon="110.207079">
        <ele>116.411843</ele>
        <time>2026-08-16T07:17:58.000Z</time>
      </trkpt>
      <trkpt lat="22.745845" lon="110.207121">
        <ele>116.425582</ele>
        <time>2026-08-16T07:17:59.000Z</time>
      </trkpt>
      <trkpt lat="22.745838" lon="110.207164">
        <ele>116.439791</ele>
        <time>2026-08-16T07:18:00.000Z</time>
      </trkpt>
      <trkpt lat="22.745833" lon="110.207209">
        <ele>116.454540</ele>
        <time>2026-08-16T07:18:01.000Z</time>
      </trkpt>
      <trkpt lat="22.745827" lon="110.207254">
        <ele>116.469336</ele>
        <time>2026-08-16T07:18:02.000Z</time>
      </trkpt>
      <trkpt lat="22.745821" lon="110.207300">
        <ele>116.484453</ele>
        <time>2026-08-16T07:18:03.000Z</time>
      </trkpt>
      <trkpt lat="22.745814" lon="110.207344">
        <ele>116.498982</ele>
        <time>2026-08-16T07:18:04.000Z</time>
      </trkpt>
      <trkpt lat="22.745805" lon="110.207391">
        <ele>116.514603</ele>
        <time>2026-08-16T07:18:05.000Z</time>
      </trkpt>
      <trkpt lat="22.745795" lon="110.207440">
        <ele>116.530933</ele>
        <time>2026-08-16T07:18:06.000Z</time>
      </trkpt>
      <trkpt lat="22.745787" lon="110.207491">
        <ele>116.525447</ele>
        <time>2026-08-16T07:18:07.000Z</time>
      </trkpt>
      <trkpt lat="22.745778" lon="110.207541">
        <ele>116.511578</ele>
        <time>2026-08-16T07:18:08.000Z</time>
      </trkpt>
      <trkpt lat="22.745769" lon="110.207593">
        <ele>116.497175</ele>
        <time>2026-08-16T07:18:09.000Z</time>
      </trkpt>
      <trkpt lat="22.745760" lon="110.207644">
        <ele>116.483039</ele>
        <time>2026-08-16T07:18:10.000Z</time>
      </trkpt>
      <trkpt lat="22.745751" lon="110.207696">
        <ele>116.468636</ele>
        <time>2026-08-16T07:18:11.000Z</time>
      </trkpt>
      <trkpt lat="22.745741" lon="110.207749">
        <ele>116.453908</ele>
        <time>2026-08-16T07:18:12.000Z</time>
      </trkpt>
      <trkpt lat="22.745730" lon="110.207801">
        <ele>116.439385</ele>
        <time>2026-08-16T07:18:13.000Z</time>
      </trkpt>
      <trkpt lat="22.745719" lon="110.207856">
        <ele>116.424064</ele>
        <time>2026-08-16T07:18:14.000Z</time>
      </trkpt>
      <trkpt lat="22.745710" lon="110.207909">
        <ele>116.409393</ele>
        <time>2026-08-16T07:18:15.000Z</time>
      </trkpt>
      <trkpt lat="22.745700" lon="110.207964">
        <ele>116.394132</ele>
        <time>2026-08-16T07:18:16.000Z</time>
      </trkpt>
      <trkpt lat="22.745691" lon="110.208020">
        <ele>116.378657</ele>
        <time>2026-08-16T07:18:17.000Z</time>
      </trkpt>
      <trkpt lat="22.745682" lon="110.208077">
        <ele>116.362914</ele>
        <time>2026-08-16T07:18:18.000Z</time>
      </trkpt>
      <trkpt lat="22.745674" lon="110.208132">
        <ele>116.347756</ele>
        <time>2026-08-16T07:18:19.000Z</time>
      </trkpt>
      <trkpt lat="22.745665" lon="110.208186">
        <ele>116.332817</ele>
        <time>2026-08-16T07:18:20.000Z</time>
      </trkpt>
      <trkpt lat="22.745655" lon="110.208241">
        <ele>116.317556</ele>
        <time>2026-08-16T07:18:21.000Z</time>
      </trkpt>
      <trkpt lat="22.745646" lon="110.208295">
        <ele>116.302617</ele>
        <time>2026-08-16T07:18:22.000Z</time>
      </trkpt>
      <trkpt lat="22.745636" lon="110.208348">
        <ele>116.287890</ele>
        <time>2026-08-16T07:18:23.000Z</time>
      </trkpt>
      <trkpt lat="22.745627" lon="110.208401">
        <ele>116.273219</ele>
        <time>2026-08-16T07:18:24.000Z</time>
      </trkpt>
      <trkpt lat="22.745620" lon="110.208455">
        <ele>116.258374</ele>
        <time>2026-08-16T07:18:25.000Z</time>
      </trkpt>
      <trkpt lat="22.745612" lon="110.208508">
        <ele>116.243753</ele>
        <time>2026-08-16T07:18:26.000Z</time>
      </trkpt>
      <trkpt lat="22.745604" lon="110.208562">
        <ele>116.228864</ele>
        <time>2026-08-16T07:18:27.000Z</time>
      </trkpt>
      <trkpt lat="22.745596" lon="110.208615">
        <ele>116.214244</ele>
        <time>2026-08-16T07:18:28.000Z</time>
      </trkpt>
      <trkpt lat="22.745588" lon="110.208669">
        <ele>116.199355</ele>
        <time>2026-08-16T07:18:29.000Z</time>
      </trkpt>
      <trkpt lat="22.745581" lon="110.208723">
        <ele>116.184510</ele>
        <time>2026-08-16T07:18:30.000Z</time>
      </trkpt>
      <trkpt lat="22.745572" lon="110.208779">
        <ele>116.169035</ele>
        <time>2026-08-16T07:18:31.000Z</time>
      </trkpt>
      <trkpt lat="22.745563" lon="110.208834">
        <ele>116.153828</ele>
        <time>2026-08-16T07:18:32.000Z</time>
      </trkpt>
      <trkpt lat="22.745554" lon="110.208888">
        <ele>116.138889</ele>
        <time>2026-08-16T07:18:33.000Z</time>
      </trkpt>
      <trkpt lat="22.745545" lon="110.208941">
        <ele>116.124218</ele>
        <time>2026-08-16T07:18:34.000Z</time>
      </trkpt>
      <trkpt lat="22.745538" lon="110.208994">
        <ele>116.109643</ele>
        <time>2026-08-16T07:18:35.000Z</time>
      </trkpt>
      <trkpt lat="22.745530" lon="110.209047">
        <ele>116.095022</ele>
        <time>2026-08-16T07:18:36.000Z</time>
      </trkpt>
      <trkpt lat="22.745521" lon="110.209100">
        <ele>116.080351</ele>
        <time>2026-08-16T07:18:37.000Z</time>
      </trkpt>
      <trkpt lat="22.745512" lon="110.209154">
        <ele>116.065413</ele>
        <time>2026-08-16T07:18:38.000Z</time>
      </trkpt>
      <trkpt lat="22.745503" lon="110.209206">
        <ele>116.051009</ele>
        <time>2026-08-16T07:18:39.000Z</time>
      </trkpt>
      <trkpt lat="22.745495" lon="110.209259">
        <ele>116.036389</ele>
        <time>2026-08-16T07:18:40.000Z</time>
      </trkpt>
      <trkpt lat="22.745484" lon="110.209312">
        <ele>116.021600</ele>
        <time>2026-08-16T07:18:41.000Z</time>
      </trkpt>
      <trkpt lat="22.745476" lon="110.209365">
        <ele>116.006979</ele>
        <time>2026-08-16T07:18:42.000Z</time>
      </trkpt>
      <trkpt lat="22.745468" lon="110.209418">
        <ele>116.015987</ele>
        <time>2026-08-16T07:18:43.000Z</time>
      </trkpt>
      <trkpt lat="22.745461" lon="110.209471">
        <ele>116.029383</ele>
        <time>2026-08-16T07:18:44.000Z</time>
      </trkpt>
      <trkpt lat="22.745455" lon="110.209524">
        <ele>116.042744</ele>
        <time>2026-08-16T07:18:45.000Z</time>
      </trkpt>
      <trkpt lat="22.745447" lon="110.209578">
        <ele>116.056428</ele>
        <time>2026-08-16T07:18:46.000Z</time>
      </trkpt>
      <trkpt lat="22.745437" lon="110.209631">
        <ele>116.069964</ele>
        <time>2026-08-16T07:18:47.000Z</time>
      </trkpt>
      <trkpt lat="22.745425" lon="110.209684">
        <ele>116.083618</ele>
        <time>2026-08-16T07:18:48.000Z</time>
      </trkpt>
      <trkpt lat="22.745417" lon="110.209737">
        <ele>116.097056</ele>
        <time>2026-08-16T07:18:49.000Z</time>
      </trkpt>
      <trkpt lat="22.745409" lon="110.209791">
        <ele>116.110740</ele>
        <time>2026-08-16T07:18:50.000Z</time>
      </trkpt>
      <trkpt lat="22.745399" lon="110.209844">
        <ele>116.124276</ele>
        <time>2026-08-16T07:18:51.000Z</time>
      </trkpt>
      <trkpt lat="22.745390" lon="110.209898">
        <ele>116.138006</ele>
        <time>2026-08-16T07:18:52.000Z</time>
      </trkpt>
      <trkpt lat="22.745382" lon="110.209950">
        <ele>116.151196</ele>
        <time>2026-08-16T07:18:53.000Z</time>
      </trkpt>
      <trkpt lat="22.745374" lon="110.210001">
        <ele>116.164140</ele>
        <time>2026-08-16T07:18:54.000Z</time>
      </trkpt>
      <trkpt lat="22.745367" lon="110.210055">
        <ele>116.177784</ele>
        <time>2026-08-16T07:18:55.000Z</time>
      </trkpt>
      <trkpt lat="22.745359" lon="110.210108">
        <ele>116.191221</ele>
        <time>2026-08-16T07:18:56.000Z</time>
      </trkpt>
      <trkpt lat="22.745353" lon="110.210162">
        <ele>116.204830</ele>
        <time>2026-08-16T07:18:57.000Z</time>
      </trkpt>
      <trkpt lat="22.745347" lon="110.210217">
        <ele>116.218687</ele>
        <time>2026-08-16T07:18:58.000Z</time>
      </trkpt>
      <trkpt lat="22.745340" lon="110.210272">
        <ele>116.232579</ele>
        <time>2026-08-16T07:18:59.000Z</time>
      </trkpt>
      <trkpt lat="22.745332" lon="110.210328">
        <ele>116.246758</ele>
        <time>2026-08-16T07:19:00.000Z</time>
      </trkpt>
      <trkpt lat="22.745323" lon="110.210384">
        <ele>116.260981</ele>
        <time>2026-08-16T07:19:01.000Z</time>
      </trkpt>
      <trkpt lat="22.745315" lon="110.210439">
        <ele>116.274912</ele>
        <time>2026-08-16T07:19:02.000Z</time>
      </trkpt>
      <trkpt lat="22.745308" lon="110.210495">
        <ele>116.289052</ele>
        <time>2026-08-16T07:19:03.000Z</time>
      </trkpt>
      <trkpt lat="22.745302" lon="110.210549">
        <ele>116.302661</ele>
        <time>2026-08-16T07:19:04.000Z</time>
      </trkpt>
      <trkpt lat="22.745293" lon="110.210604">
        <ele>116.316637</ele>
        <time>2026-08-16T07:19:05.000Z</time>
      </trkpt>
      <trkpt lat="22.745281" lon="110.210658">
        <ele>116.330535</ele>
        <time>2026-08-16T07:19:06.000Z</time>
      </trkpt>
      <trkpt lat="22.745269" lon="110.210711">
        <ele>116.344190</ele>
        <time>2026-08-16T07:19:07.000Z</time>
      </trkpt>
      <trkpt lat="22.745258" lon="110.210764">
        <ele>116.357782</ele>
        <time>2026-08-16T07:19:08.000Z</time>
      </trkpt>
      <trkpt lat="22.745249" lon="110.210816">
        <ele>116.371020</ele>
        <time>2026-08-16T07:19:09.000Z</time>
      </trkpt>
      <trkpt lat="22.745240" lon="110.210869">
        <ele>116.384504</ele>
        <time>2026-08-16T07:19:10.000Z</time>
      </trkpt>
      <trkpt lat="22.745230" lon="110.210922">
        <ele>116.398040</ele>
        <time>2026-08-16T07:19:11.000Z</time>
      </trkpt>
      <trkpt lat="22.745222" lon="110.210976">
        <ele>116.411724</ele>
        <time>2026-08-16T07:19:12.000Z</time>
      </trkpt>
      <trkpt lat="22.745214" lon="110.211030">
        <ele>116.425408</ele>
        <time>2026-08-16T07:19:13.000Z</time>
      </trkpt>
      <trkpt lat="22.745206" lon="110.211083">
        <ele>116.438846</ele>
        <time>2026-08-16T07:19:14.000Z</time>
      </trkpt>
      <trkpt lat="22.745199" lon="110.211136">
        <ele>116.452242</ele>
        <time>2026-08-16T07:19:15.000Z</time>
      </trkpt>
      <trkpt lat="22.745191" lon="110.211189">
        <ele>116.465679</ele>
        <time>2026-08-16T07:19:16.000Z</time>
      </trkpt>
      <trkpt lat="22.745182" lon="110.211244">
        <ele>116.479656</ele>
        <time>2026-08-16T07:19:17.000Z</time>
      </trkpt>
      <trkpt lat="22.745172" lon="110.211298">
        <ele>116.493094</ele>
        <time>2026-08-16T07:19:18.000Z</time>
      </trkpt>
      <trkpt lat="22.745162" lon="110.211351">
        <ele>116.500712</ele>
        <time>2026-08-16T07:19:19.000Z</time>
      </trkpt>
      <trkpt lat="22.745153" lon="110.211406">
        <ele>116.508578</ele>
        <time>2026-08-16T07:19:20.000Z</time>
      </trkpt>
      <trkpt lat="22.745144" lon="110.211462">
        <ele>116.516583</ele>
        <time>2026-08-16T07:19:21.000Z</time>
      </trkpt>
      <trkpt lat="22.745134" lon="110.211517">
        <ele>116.524477</ele>
        <time>2026-08-16T07:19:22.000Z</time>
      </trkpt>
      <trkpt lat="22.745125" lon="110.211573">
        <ele>116.532482</ele>
        <time>2026-08-16T07:19:23.000Z</time>
      </trkpt>
      <trkpt lat="22.745116" lon="110.211628">
        <ele>116.540348</ele>
        <time>2026-08-16T07:19:24.000Z</time>
      </trkpt>
      <trkpt lat="22.745106" lon="110.211683">
        <ele>116.548242</ele>
        <time>2026-08-16T07:19:25.000Z</time>
      </trkpt>
      <trkpt lat="22.745096" lon="110.211738">
        <ele>116.556136</ele>
        <time>2026-08-16T07:19:26.000Z</time>
      </trkpt>
      <trkpt lat="22.745086" lon="110.211793">
        <ele>116.564030</ele>
        <time>2026-08-16T07:19:27.000Z</time>
      </trkpt>
      <trkpt lat="22.745077" lon="110.211847">
        <ele>116.571758</ele>
        <time>2026-08-16T07:19:28.000Z</time>
      </trkpt>
      <trkpt lat="22.745071" lon="110.211903">
        <ele>116.579697</ele>
        <time>2026-08-16T07:19:29.000Z</time>
      </trkpt>
      <trkpt lat="22.745063" lon="110.211959">
        <ele>116.587677</ele>
        <time>2026-08-16T07:19:30.000Z</time>
      </trkpt>
      <trkpt lat="22.745055" lon="110.212014">
        <ele>116.595517</ele>
        <time>2026-08-16T07:19:31.000Z</time>
      </trkpt>
      <trkpt lat="22.745048" lon="110.212070">
        <ele>116.603475</ele>
        <time>2026-08-16T07:19:32.000Z</time>
      </trkpt>
      <trkpt lat="22.745042" lon="110.212126">
        <ele>116.611414</ele>
        <time>2026-08-16T07:19:33.000Z</time>
      </trkpt>
      <trkpt lat="22.745033" lon="110.212183">
        <ele>116.619558</ele>
        <time>2026-08-16T07:19:34.000Z</time>
      </trkpt>
      <trkpt lat="22.745023" lon="110.212241">
        <ele>116.627867</ele>
        <time>2026-08-16T07:19:35.000Z</time>
      </trkpt>
      <trkpt lat="22.745016" lon="110.212302">
        <ele>116.636523</ele>
        <time>2026-08-16T07:19:36.000Z</time>
      </trkpt>
      <trkpt lat="22.745005" lon="110.212363">
        <ele>116.645276</ele>
        <time>2026-08-16T07:19:37.000Z</time>
      </trkpt>
      <trkpt lat="22.744993" lon="110.212424">
        <ele>116.654059</ele>
        <time>2026-08-16T07:19:38.000Z</time>
      </trkpt>
      <trkpt lat="22.744981" lon="110.212484">
        <ele>116.662705</ele>
        <time>2026-08-16T07:19:39.000Z</time>
      </trkpt>
      <trkpt lat="22.744966" lon="110.212544">
        <ele>116.671459</ele>
        <time>2026-08-16T07:19:40.000Z</time>
      </trkpt>
      <trkpt lat="22.744953" lon="110.212602">
        <ele>116.679864</ele>
        <time>2026-08-16T07:19:41.000Z</time>
      </trkpt>
      <trkpt lat="22.744941" lon="110.212660">
        <ele>116.688235</ele>
        <time>2026-08-16T07:19:42.000Z</time>
      </trkpt>
      <trkpt lat="22.744930" lon="110.212717">
        <ele>116.696435</ele>
        <time>2026-08-16T07:19:43.000Z</time>
      </trkpt>
      <trkpt lat="22.744921" lon="110.212775">
        <ele>116.704718</ele>
        <time>2026-08-16T07:19:44.000Z</time>
      </trkpt>
      <trkpt lat="22.744913" lon="110.212832">
        <ele>116.712837</ele>
        <time>2026-08-16T07:19:45.000Z</time>
      </trkpt>
      <trkpt lat="22.744906" lon="110.212888">
        <ele>116.720795</ele>
        <time>2026-08-16T07:19:46.000Z</time>
      </trkpt>
      <trkpt lat="22.744897" lon="110.212943">
        <ele>116.728661</ele>
        <time>2026-08-16T07:19:47.000Z</time>
      </trkpt>
      <trkpt lat="22.744888" lon="110.212999">
        <ele>116.736666</ele>
        <time>2026-08-16T07:19:48.000Z</time>
      </trkpt>
      <trkpt lat="22.744879" lon="110.213056">
        <ele>116.744809</ele>
        <time>2026-08-16T07:19:49.000Z</time>
      </trkpt>
      <trkpt lat="22.744870" lon="110.213112">
        <ele>116.752814</ele>
        <time>2026-08-16T07:19:50.000Z</time>
      </trkpt>
      <trkpt lat="22.744864" lon="110.213169">
        <ele>116.760893</ele>
        <time>2026-08-16T07:19:51.000Z</time>
      </trkpt>
      <trkpt lat="22.744854" lon="110.213222">
        <ele>116.767263</ele>
        <time>2026-08-16T07:19:52.000Z</time>
      </trkpt>
      <trkpt lat="22.744847" lon="110.213278">
        <ele>116.767058</ele>
        <time>2026-08-16T07:19:53.000Z</time>
      </trkpt>
      <trkpt lat="22.744837" lon="110.213332">
        <ele>116.766857</ele>
        <time>2026-08-16T07:19:54.000Z</time>
      </trkpt>
      <trkpt lat="22.744829" lon="110.213384">
        <ele>116.766666</ele>
        <time>2026-08-16T07:19:55.000Z</time>
      </trkpt>
      <trkpt lat="22.744824" lon="110.213438">
        <ele>116.766468</ele>
        <time>2026-08-16T07:19:56.000Z</time>
      </trkpt>
      <trkpt lat="22.744810" lon="110.213491">
        <ele>116.766268</ele>
        <time>2026-08-16T07:19:57.000Z</time>
      </trkpt>
      <trkpt lat="22.744798" lon="110.213543">
        <ele>116.766072</ele>
        <time>2026-08-16T07:19:58.000Z</time>
      </trkpt>
      <trkpt lat="22.744788" lon="110.213596">
        <ele>116.765876</ele>
        <time>2026-08-16T07:19:59.000Z</time>
      </trkpt>
      <trkpt lat="22.744780" lon="110.213651">
        <ele>116.765673</ele>
        <time>2026-08-16T07:20:00.000Z</time>
      </trkpt>
      <trkpt lat="22.744772" lon="110.213707">
        <ele>116.765467</ele>
        <time>2026-08-16T07:20:01.000Z</time>
      </trkpt>
      <trkpt lat="22.744766" lon="110.213763">
        <ele>116.765262</ele>
        <time>2026-08-16T07:20:02.000Z</time>
      </trkpt>
      <trkpt lat="22.744754" lon="110.213817">
        <ele>116.765060</ele>
        <time>2026-08-16T07:20:03.000Z</time>
      </trkpt>
      <trkpt lat="22.744743" lon="110.213869">
        <ele>116.764866</ele>
        <time>2026-08-16T07:20:04.000Z</time>
      </trkpt>
      <trkpt lat="22.744733" lon="110.213923">
        <ele>116.764665</ele>
        <time>2026-08-16T07:20:05.000Z</time>
      </trkpt>
      <trkpt lat="22.744718" lon="110.213975">
        <ele>116.764467</ele>
        <time>2026-08-16T07:20:06.000Z</time>
      </trkpt>
      <trkpt lat="22.744705" lon="110.214029">
        <ele>116.764264</ele>
        <time>2026-08-16T07:20:07.000Z</time>
      </trkpt>
      <trkpt lat="22.744695" lon="110.214083">
        <ele>116.764063</ele>
        <time>2026-08-16T07:20:08.000Z</time>
      </trkpt>
      <trkpt lat="22.744686" lon="110.214137">
        <ele>116.763864</ele>
        <time>2026-08-16T07:20:09.000Z</time>
      </trkpt>
      <trkpt lat="22.744680" lon="110.214192">
        <ele>116.763662</ele>
        <time>2026-08-16T07:20:10.000Z</time>
      </trkpt>
      <trkpt lat="22.744673" lon="110.214247">
        <ele>116.763460</ele>
        <time>2026-08-16T07:20:11.000Z</time>
      </trkpt>
      <trkpt lat="22.744667" lon="110.214304">
        <ele>116.763252</ele>
        <time>2026-08-16T07:20:12.000Z</time>
      </trkpt>
      <trkpt lat="22.744660" lon="110.214360">
        <ele>116.763046</ele>
        <time>2026-08-16T07:20:13.000Z</time>
      </trkpt>
      <trkpt lat="22.744652" lon="110.214418">
        <ele>116.762833</ele>
        <time>2026-08-16T07:20:14.000Z</time>
      </trkpt>
      <trkpt lat="22.744642" lon="110.214479">
        <ele>116.762607</ele>
        <time>2026-08-16T07:20:15.000Z</time>
      </trkpt>
      <trkpt lat="22.744635" lon="110.214541">
        <ele>116.762380</ele>
        <time>2026-08-16T07:20:16.000Z</time>
      </trkpt>
      <trkpt lat="22.744629" lon="110.214602">
        <ele>116.762157</ele>
        <time>2026-08-16T07:20:17.000Z</time>
      </trkpt>
      <trkpt lat="22.744623" lon="110.214662">
        <ele>116.761937</ele>
        <time>2026-08-16T07:20:18.000Z</time>
      </trkpt>
      <trkpt lat="22.744616" lon="110.214721">
        <ele>116.761721</ele>
        <time>2026-08-16T07:20:19.000Z</time>
      </trkpt>
      <trkpt lat="22.744610" lon="110.214782">
        <ele>116.761497</ele>
        <time>2026-08-16T07:20:20.000Z</time>
      </trkpt>
      <trkpt lat="22.744605" lon="110.214845">
        <ele>116.761267</ele>
        <time>2026-08-16T07:20:21.000Z</time>
      </trkpt>
      <trkpt lat="22.744602" lon="110.214907">
        <ele>116.761041</ele>
        <time>2026-08-16T07:20:22.000Z</time>
      </trkpt>
      <trkpt lat="22.744598" lon="110.214970">
        <ele>116.760812</ele>
        <time>2026-08-16T07:20:23.000Z</time>
      </trkpt>
      <trkpt lat="22.744592" lon="110.215034">
        <ele>116.760578</ele>
        <time>2026-08-16T07:20:24.000Z</time>
      </trkpt>
      <trkpt lat="22.744586" lon="110.215099">
        <ele>116.760340</ele>
        <time>2026-08-16T07:20:25.000Z</time>
      </trkpt>
      <trkpt lat="22.744578" lon="110.215164">
        <ele>116.774705</ele>
        <time>2026-08-16T07:20:26.000Z</time>
      </trkpt>
      <trkpt lat="22.744570" lon="110.215228">
        <ele>116.809707</ele>
        <time>2026-08-16T07:20:27.000Z</time>
      </trkpt>
      <trkpt lat="22.744561" lon="110.215294">
        <ele>116.845865</ele>
        <time>2026-08-16T07:20:28.000Z</time>
      </trkpt>
      <trkpt lat="22.744548" lon="110.215360">
        <ele>116.882440</ele>
        <time>2026-08-16T07:20:29.000Z</time>
      </trkpt>
      <trkpt lat="22.744541" lon="110.215426">
        <ele>116.918444</ele>
        <time>2026-08-16T07:20:30.000Z</time>
      </trkpt>
      <trkpt lat="22.744529" lon="110.215490">
        <ele>116.953839</ele>
        <time>2026-08-16T07:20:31.000Z</time>
      </trkpt>
      <trkpt lat="22.744518" lon="110.215556">
        <ele>116.990187</ele>
        <time>2026-08-16T07:20:32.000Z</time>
      </trkpt>
      <trkpt lat="22.744504" lon="110.215622">
        <ele>117.026890</ele>
        <time>2026-08-16T07:20:33.000Z</time>
      </trkpt>
      <trkpt lat="22.744501" lon="110.215688">
        <ele>117.062702</ele>
        <time>2026-08-16T07:20:34.000Z</time>
      </trkpt>
      <trkpt lat="22.744496" lon="110.215756">
        <ele>117.099671</ele>
        <time>2026-08-16T07:20:35.000Z</time>
      </trkpt>
      <trkpt lat="22.744496" lon="110.215823">
        <ele>117.135982</ele>
        <time>2026-08-16T07:20:36.000Z</time>
      </trkpt>
      <trkpt lat="22.744489" lon="110.215887">
        <ele>117.170910</ele>
        <time>2026-08-16T07:20:37.000Z</time>
      </trkpt>
      <trkpt lat="22.744479" lon="110.215951">
        <ele>117.206089</ele>
        <time>2026-08-16T07:20:38.000Z</time>
      </trkpt>
      <trkpt lat="22.744472" lon="110.216014">
        <ele>117.240479</ele>
        <time>2026-08-16T07:20:39.000Z</time>
      </trkpt>
      <trkpt lat="22.744461" lon="110.216075">
        <ele>117.274164</ele>
        <time>2026-08-16T07:20:40.000Z</time>
      </trkpt>
      <trkpt lat="22.744456" lon="110.216137">
        <ele>117.307893</ele>
        <time>2026-08-16T07:20:41.000Z</time>
      </trkpt>
      <trkpt lat="22.744450" lon="110.216197">
        <ele>117.340600</ele>
        <time>2026-08-16T07:20:42.000Z</time>
      </trkpt>
      <trkpt lat="22.744445" lon="110.216256">
        <ele>117.372710</ele>
        <time>2026-08-16T07:20:43.000Z</time>
      </trkpt>
      <trkpt lat="22.744438" lon="110.216314">
        <ele>117.404411</ele>
        <time>2026-08-16T07:20:44.000Z</time>
      </trkpt>
      <trkpt lat="22.744429" lon="110.216371">
        <ele>117.435752</ele>
        <time>2026-08-16T07:20:45.000Z</time>
      </trkpt>
      <trkpt lat="22.744421" lon="110.216428">
        <ele>117.466999</ele>
        <time>2026-08-16T07:20:46.000Z</time>
      </trkpt>
      <trkpt lat="22.744411" lon="110.216483">
        <ele>117.497380</ele>
        <time>2026-08-16T07:20:47.000Z</time>
      </trkpt>
      <trkpt lat="22.744399" lon="110.216540">
        <ele>117.529065</ele>
        <time>2026-08-16T07:20:48.000Z</time>
      </trkpt>
      <trkpt lat="22.744397" lon="110.216595">
        <ele>117.558896</ele>
        <time>2026-08-16T07:20:49.000Z</time>
      </trkpt>
      <trkpt lat="22.744392" lon="110.216651">
        <ele>117.589387</ele>
        <time>2026-08-16T07:20:50.000Z</time>
      </trkpt>
      <trkpt lat="22.744390" lon="110.216706">
        <ele>117.619217</ele>
        <time>2026-08-16T07:20:51.000Z</time>
      </trkpt>
      <trkpt lat="22.744395" lon="110.216759">
        <ele>117.648091</ele>
        <time>2026-08-16T07:20:52.000Z</time>
      </trkpt>
      <trkpt lat="22.744395" lon="110.216809">
        <ele>117.675188</ele>
        <time>2026-08-16T07:20:53.000Z</time>
      </trkpt>
      <trkpt lat="22.744397" lon="110.216858">
        <ele>117.701770</ele>
        <time>2026-08-16T07:20:54.000Z</time>
      </trkpt>
      <trkpt lat="22.744392" lon="110.216905">
        <ele>117.727410</ele>
        <time>2026-08-16T07:20:55.000Z</time>
      </trkpt>
      <trkpt lat="22.744389" lon="110.216953">
        <ele>117.753484</ele>
        <time>2026-08-16T07:20:56.000Z</time>
      </trkpt>
      <trkpt lat="22.744391" lon="110.217004">
        <ele>117.781148</ele>
        <time>2026-08-16T07:20:57.000Z</time>
      </trkpt>
      <trkpt lat="22.744395" lon="110.217057">
        <ele>117.809967</ele>
        <time>2026-08-16T07:20:58.000Z</time>
      </trkpt>
      <trkpt lat="22.744396" lon="110.217111">
        <ele>117.830254</ele>
        <time>2026-08-16T07:20:59.000Z</time>
      </trkpt>
      <trkpt lat="22.744396" lon="110.217166">
        <ele>117.847928</ele>
        <time>2026-08-16T07:21:00.000Z</time>
      </trkpt>
      <trkpt lat="22.744396" lon="110.217219">
        <ele>117.864960</ele>
        <time>2026-08-16T07:21:01.000Z</time>
      </trkpt>
      <trkpt lat="22.744393" lon="110.217273">
        <ele>117.882345</ele>
        <time>2026-08-16T07:21:02.000Z</time>
      </trkpt>
      <trkpt lat="22.744388" lon="110.217326">
        <ele>117.899466</ele>
        <time>2026-08-16T07:21:03.000Z</time>
      </trkpt>
      <trkpt lat="22.744384" lon="110.217380">
        <ele>117.916875</ele>
        <time>2026-08-16T07:21:04.000Z</time>
      </trkpt>
      <trkpt lat="22.744381" lon="110.217434">
        <ele>117.934260</ele>
        <time>2026-08-16T07:21:05.000Z</time>
      </trkpt>
      <trkpt lat="22.744380" lon="110.217490">
        <ele>117.952259</ele>
        <time>2026-08-16T07:21:06.000Z</time>
      </trkpt>
      <trkpt lat="22.744379" lon="110.217544">
        <ele>117.969616</ele>
        <time>2026-08-16T07:21:07.000Z</time>
      </trkpt>
      <trkpt lat="22.744378" lon="110.217596">
        <ele>117.986330</ele>
        <time>2026-08-16T07:21:08.000Z</time>
      </trkpt>
      <trkpt lat="22.744376" lon="110.217648">
        <ele>118.003055</ele>
        <time>2026-08-16T07:21:09.000Z</time>
      </trkpt>
      <trkpt lat="22.744375" lon="110.217701">
        <ele>118.020091</ele>
        <time>2026-08-16T07:21:10.000Z</time>
      </trkpt>
      <trkpt lat="22.744373" lon="110.217752">
        <ele>118.036495</ele>
        <time>2026-08-16T07:21:11.000Z</time>
      </trkpt>
      <trkpt lat="22.744372" lon="110.217805">
        <ele>118.053531</ele>
        <time>2026-08-16T07:21:12.000Z</time>
      </trkpt>
      <trkpt lat="22.744369" lon="110.217856">
        <ele>118.069953</ele>
        <time>2026-08-16T07:21:13.000Z</time>
      </trkpt>
      <trkpt lat="22.744371" lon="110.217908">
        <ele>118.086678</ele>
        <time>2026-08-16T07:21:14.000Z</time>
      </trkpt>
      <trkpt lat="22.744371" lon="110.217959">
        <ele>118.103067</ele>
        <time>2026-08-16T07:21:15.000Z</time>
      </trkpt>
      <trkpt lat="22.744371" lon="110.218010">
        <ele>118.119457</ele>
        <time>2026-08-16T07:21:16.000Z</time>
      </trkpt>
      <trkpt lat="22.744369" lon="110.218062">
        <ele>118.136182</ele>
        <time>2026-08-16T07:21:17.000Z</time>
      </trkpt>
      <trkpt lat="22.744365" lon="110.218113">
        <ele>118.152630</ele>
        <time>2026-08-16T07:21:18.000Z</time>
      </trkpt>
      <trkpt lat="22.744365" lon="110.218164">
        <ele>118.169019</ele>
        <time>2026-08-16T07:21:19.000Z</time>
      </trkpt>
      <trkpt lat="22.744362" lon="110.218214">
        <ele>118.185121</ele>
        <time>2026-08-16T07:21:20.000Z</time>
      </trkpt>
      <trkpt lat="22.744360" lon="110.218263">
        <ele>118.200883</ele>
        <time>2026-08-16T07:21:21.000Z</time>
      </trkpt>
      <trkpt lat="22.744357" lon="110.218313">
        <ele>118.216985</ele>
        <time>2026-08-16T07:21:22.000Z</time>
      </trkpt>
      <trkpt lat="22.744357" lon="110.218363">
        <ele>118.233053</ele>
        <time>2026-08-16T07:21:23.000Z</time>
      </trkpt>
      <trkpt lat="22.744355" lon="110.218414">
        <ele>118.249457</ele>
        <time>2026-08-16T07:21:24.000Z</time>
      </trkpt>
      <trkpt lat="22.744353" lon="110.218463">
        <ele>118.265219</ele>
        <time>2026-08-16T07:21:25.000Z</time>
      </trkpt>
      <trkpt lat="22.744350" lon="110.218512">
        <ele>118.281000</ele>
        <time>2026-08-16T07:21:26.000Z</time>
      </trkpt>
      <trkpt lat="22.744349" lon="110.218563">
        <ele>118.297393</ele>
        <time>2026-08-16T07:21:27.000Z</time>
      </trkpt>
      <trkpt lat="22.744349" lon="110.218616">
        <ele>118.314425</ele>
        <time>2026-08-16T07:21:28.000Z</time>
      </trkpt>
      <trkpt lat="22.744349" lon="110.218672">
        <ele>118.332421</ele>
        <time>2026-08-16T07:21:29.000Z</time>
      </trkpt>
      <trkpt lat="22.744353" lon="110.218728">
        <ele>118.350471</ele>
        <time>2026-08-16T07:21:30.000Z</time>
      </trkpt>
      <trkpt lat="22.744358" lon="110.218783">
        <ele>118.368231</ele>
        <time>2026-08-16T07:21:31.000Z</time>
      </trkpt>
      <trkpt lat="22.744363" lon="110.218838">
        <ele>118.385992</ele>
        <time>2026-08-16T07:21:32.000Z</time>
      </trkpt>
      <trkpt lat="22.744363" lon="110.218893">
        <ele>118.403666</ele>
        <time>2026-08-16T07:21:33.000Z</time>
      </trkpt>
      <trkpt lat="22.744361" lon="110.218947">
        <ele>118.421033</ele>
        <time>2026-08-16T07:21:34.000Z</time>
      </trkpt>
      <trkpt lat="22.744354" lon="110.219002">
        <ele>118.438876</ele>
        <time>2026-08-16T07:21:35.000Z</time>
      </trkpt>
      <trkpt lat="22.744353" lon="110.219059">
        <ele>118.441765</ele>
        <time>2026-08-16T07:21:36.000Z</time>
      </trkpt>
      <trkpt lat="22.744352" lon="110.219115">
        <ele>118.438862</ele>
        <time>2026-08-16T07:21:37.000Z</time>
      </trkpt>
      <trkpt lat="22.744350" lon="110.219171">
        <ele>118.435957</ele>
        <time>2026-08-16T07:21:38.000Z</time>
      </trkpt>
      <trkpt lat="22.744348" lon="110.219228">
        <ele>118.433000</ele>
        <time>2026-08-16T07:21:39.000Z</time>
      </trkpt>
      <trkpt lat="22.744344" lon="110.219284">
        <ele>118.430089</ele>
        <time>2026-08-16T07:21:40.000Z</time>
      </trkpt>
      <trkpt lat="22.744340" lon="110.219339">
        <ele>118.427229</ele>
        <time>2026-08-16T07:21:41.000Z</time>
      </trkpt>
      <trkpt lat="22.744340" lon="110.219396">
        <ele>118.424274</ele>
        <time>2026-08-16T07:21:42.000Z</time>
      </trkpt>
      <trkpt lat="22.744344" lon="110.219454">
        <ele>118.421260</ele>
        <time>2026-08-16T07:21:43.000Z</time>
      </trkpt>
      <trkpt lat="22.744343" lon="110.219509">
        <ele>118.418408</ele>
        <time>2026-08-16T07:21:44.000Z</time>
      </trkpt>
      <trkpt lat="22.744342" lon="110.219565">
        <ele>118.415505</ele>
        <time>2026-08-16T07:21:45.000Z</time>
      </trkpt>
      <trkpt lat="22.744341" lon="110.219622">
        <ele>118.412550</ele>
        <time>2026-08-16T07:21:46.000Z</time>
      </trkpt>
      <trkpt lat="22.744336" lon="110.219680">
        <ele>118.409530</ele>
        <time>2026-08-16T07:21:47.000Z</time>
      </trkpt>
      <trkpt lat="22.744334" lon="110.219735">
        <ele>118.406677</ele>
        <time>2026-08-16T07:21:48.000Z</time>
      </trkpt>
      <trkpt lat="22.744333" lon="110.219792">
        <ele>118.403722</ele>
        <time>2026-08-16T07:21:49.000Z</time>
      </trkpt>
      <trkpt lat="22.744333" lon="110.219848">
        <ele>118.400819</ele>
        <time>2026-08-16T07:21:50.000Z</time>
      </trkpt>
      <trkpt lat="22.744330" lon="110.219903">
        <ele>118.397963</ele>
        <time>2026-08-16T07:21:51.000Z</time>
      </trkpt>
      <trkpt lat="22.744329" lon="110.219959">
        <ele>118.395060</ele>
        <time>2026-08-16T07:21:52.000Z</time>
      </trkpt>
      <trkpt lat="22.744327" lon="110.220014">
        <ele>118.392207</ele>
        <time>2026-08-16T07:21:53.000Z</time>
      </trkpt>
      <trkpt lat="22.744325" lon="110.220067">
        <ele>118.389457</ele>
        <time>2026-08-16T07:21:54.000Z</time>
      </trkpt>
      <trkpt lat="22.744323" lon="110.220122">
        <ele>118.386604</ele>
        <time>2026-08-16T07:21:55.000Z</time>
      </trkpt>
      <trkpt lat="22.744315" lon="110.220176">
        <ele>118.383769</ele>
        <time>2026-08-16T07:21:56.000Z</time>
      </trkpt>
      <trkpt lat="22.744310" lon="110.220231">
        <ele>118.380904</ele>
        <time>2026-08-16T07:21:57.000Z</time>
      </trkpt>
      <trkpt lat="22.744308" lon="110.220287">
        <ele>118.377999</ele>
        <time>2026-08-16T07:21:58.000Z</time>
      </trkpt>
      <trkpt lat="22.744304" lon="110.220343">
        <ele>118.375088</ele>
        <time>2026-08-16T07:21:59.000Z</time>
      </trkpt>
      <trkpt lat="22.744301" lon="110.220399">
        <ele>118.372180</ele>
        <time>2026-08-16T07:22:00.000Z</time>
      </trkpt>
      <trkpt lat="22.744298" lon="110.220455">
        <ele>118.369273</ele>
        <time>2026-08-16T07:22:01.000Z</time>
      </trkpt>
      <trkpt lat="22.744293" lon="110.220509">
        <ele>118.366460</ele>
        <time>2026-08-16T07:22:02.000Z</time>
      </trkpt>
      <trkpt lat="22.744288" lon="110.220566">
        <ele>118.363492</ele>
        <time>2026-08-16T07:22:03.000Z</time>
      </trkpt>
      <trkpt lat="22.744281" lon="110.220622">
        <ele>118.360562</ele>
        <time>2026-08-16T07:22:04.000Z</time>
      </trkpt>
      <trkpt lat="22.744275" lon="110.220680">
        <ele>118.357537</ele>
        <time>2026-08-16T07:22:05.000Z</time>
      </trkpt>
      <trkpt lat="22.744270" lon="110.220736">
        <ele>118.354621</ele>
        <time>2026-08-16T07:22:06.000Z</time>
      </trkpt>
      <trkpt lat="22.744267" lon="110.220792">
        <ele>118.351713</ele>
        <time>2026-08-16T07:22:07.000Z</time>
      </trkpt>
      <trkpt lat="22.744259" lon="110.220848">
        <ele>118.348776</ele>
        <time>2026-08-16T07:22:08.000Z</time>
      </trkpt>
      <trkpt lat="22.744255" lon="110.220907">
        <ele>118.345709</ele>
        <time>2026-08-16T07:22:09.000Z</time>
      </trkpt>
      <trkpt lat="22.744252" lon="110.220968">
        <ele>118.336716</ele>
        <time>2026-08-16T07:22:10.000Z</time>
      </trkpt>
      <trkpt lat="22.744252" lon="110.221025">
        <ele>118.270493</ele>
        <time>2026-08-16T07:22:11.000Z</time>
      </trkpt>
      <trkpt lat="22.744252" lon="110.221085">
        <ele>118.200783</ele>
        <time>2026-08-16T07:22:12.000Z</time>
      </trkpt>
      <trkpt lat="22.744252" lon="110.221143">
        <ele>118.133398</ele>
        <time>2026-08-16T07:22:13.000Z</time>
      </trkpt>
      <trkpt lat="22.744248" lon="110.221202">
        <ele>118.064665</ele>
        <time>2026-08-16T07:22:14.000Z</time>
      </trkpt>
      <trkpt lat="22.744243" lon="110.221260">
        <ele>117.996986</ele>
        <time>2026-08-16T07:22:15.000Z</time>
      </trkpt>
      <trkpt lat="22.744238" lon="110.221318">
        <ele>117.929306</ele>
        <time>2026-08-16T07:22:16.000Z</time>
      </trkpt>
      <trkpt lat="22.744234" lon="110.221373">
        <ele>117.865208</ele>
        <time>2026-08-16T07:22:17.000Z</time>
      </trkpt>
      <trkpt lat="22.744229" lon="110.221427">
        <ele>117.802154</ele>
        <time>2026-08-16T07:22:18.000Z</time>
      </trkpt>
      <trkpt lat="22.744225" lon="110.221481">
        <ele>117.739214</ele>
        <time>2026-08-16T07:22:19.000Z</time>
      </trkpt>
      <trkpt lat="22.744221" lon="110.221536">
        <ele>117.675115</ele>
        <time>2026-08-16T07:22:20.000Z</time>
      </trkpt>
      <trkpt lat="22.744213" lon="110.221586">
        <ele>117.616156</ele>
        <time>2026-08-16T07:22:21.000Z</time>
      </trkpt>
      <trkpt lat="22.744210" lon="110.221640">
        <ele>117.553304</ele>
        <time>2026-08-16T07:22:22.000Z</time>
      </trkpt>
      <trkpt lat="22.744207" lon="110.221691">
        <ele>117.493931</ele>
        <time>2026-08-16T07:22:23.000Z</time>
      </trkpt>
      <trkpt lat="22.744192" lon="110.221742">
        <ele>117.431738</ele>
        <time>2026-08-16T07:22:24.000Z</time>
      </trkpt>
      <trkpt lat="22.744180" lon="110.221795">
        <ele>117.368333</ele>
        <time>2026-08-16T07:22:25.000Z</time>
      </trkpt>
      <trkpt lat="22.744143" lon="110.221847">
        <ele>117.292027</ele>
        <time>2026-08-16T07:22:26.000Z</time>
      </trkpt>
      <trkpt lat="22.744122" lon="110.221901">
        <ele>117.223939</ele>
        <time>2026-08-16T07:22:27.000Z</time>
      </trkpt>
      <trkpt lat="22.744102" lon="110.221958">
        <ele>117.153084</ele>
        <time>2026-08-16T07:22:28.000Z</time>
      </trkpt>
      <trkpt lat="22.744089" lon="110.222019">
        <ele>117.080345</ele>
        <time>2026-08-16T07:22:29.000Z</time>
      </trkpt>
      <trkpt lat="22.744077" lon="110.222076">
        <ele>117.012417</ele>
        <time>2026-08-16T07:22:30.000Z</time>
      </trkpt>
      <trkpt lat="22.744063" lon="110.222135">
        <ele>116.941637</ele>
        <time>2026-08-16T07:22:31.000Z</time>
      </trkpt>
      <trkpt lat="22.744046" lon="110.222196">
        <ele>116.867601</ele>
        <time>2026-08-16T07:22:32.000Z</time>
      </trkpt>
      <trkpt lat="22.744025" lon="110.222256">
        <ele>116.793040</ele>
        <time>2026-08-16T07:22:33.000Z</time>
      </trkpt>
      <trkpt lat="22.744003" lon="110.222316">
        <ele>116.718023</ele>
        <time>2026-08-16T07:22:34.000Z</time>
      </trkpt>
      <trkpt lat="22.743984" lon="110.222380">
        <ele>116.639909</ele>
        <time>2026-08-16T07:22:35.000Z</time>
      </trkpt>
      <trkpt lat="22.743964" lon="110.222443">
        <ele>116.562499</ele>
        <time>2026-08-16T07:22:36.000Z</time>
      </trkpt>
      <trkpt lat="22.743947" lon="110.222506">
        <ele>116.486235</ele>
        <time>2026-08-16T07:22:37.000Z</time>
      </trkpt>
      <trkpt lat="22.743928" lon="110.222571">
        <ele>116.407014</ele>
        <time>2026-08-16T07:22:38.000Z</time>
      </trkpt>
      <trkpt lat="22.743908" lon="110.222635">
        <ele>116.328505</ele>
        <time>2026-08-16T07:22:39.000Z</time>
      </trkpt>
      <trkpt lat="22.743886" lon="110.222699">
        <ele>116.249151</ele>
        <time>2026-08-16T07:22:40.000Z</time>
      </trkpt>
      <trkpt lat="22.743861" lon="110.222760">
        <ele>116.171597</ele>
        <time>2026-08-16T07:22:41.000Z</time>
      </trkpt>
      <trkpt lat="22.743838" lon="110.222823">
        <ele>116.092875</ele>
        <time>2026-08-16T07:22:42.000Z</time>
      </trkpt>
      <trkpt lat="22.743818" lon="110.222885">
        <ele>116.061496</ele>
        <time>2026-08-16T07:22:43.000Z</time>
      </trkpt>
      <trkpt lat="22.743797" lon="110.222947">
        <ele>116.041890</ele>
        <time>2026-08-16T07:22:44.000Z</time>
      </trkpt>
      <trkpt lat="22.743778" lon="110.223007">
        <ele>116.023058</ele>
        <time>2026-08-16T07:22:45.000Z</time>
      </trkpt>
      <trkpt lat="22.743756" lon="110.223066">
        <ele>116.004167</ele>
        <time>2026-08-16T07:22:46.000Z</time>
      </trkpt>
      <trkpt lat="22.743736" lon="110.223126">
        <ele>115.985229</ele>
        <time>2026-08-16T07:22:47.000Z</time>
      </trkpt>
      <trkpt lat="22.743714" lon="110.223184">
        <ele>115.966612</ele>
        <time>2026-08-16T07:22:48.000Z</time>
      </trkpt>
      <trkpt lat="22.743695" lon="110.223242">
        <ele>115.948341</ele>
        <time>2026-08-16T07:22:49.000Z</time>
      </trkpt>
      <trkpt lat="22.743674" lon="110.223301">
        <ele>115.929568</ele>
        <time>2026-08-16T07:22:50.000Z</time>
      </trkpt>
      <trkpt lat="22.743651" lon="110.223361">
        <ele>115.910280</ele>
        <time>2026-08-16T07:22:51.000Z</time>
      </trkpt>
      <trkpt lat="22.743628" lon="110.223419">
        <ele>115.891539</ele>
        <time>2026-08-16T07:22:52.000Z</time>
      </trkpt>
      <trkpt lat="22.743602" lon="110.223477">
        <ele>115.872396</ele>
        <time>2026-08-16T07:22:53.000Z</time>
      </trkpt>
      <trkpt lat="22.743573" lon="110.223532">
        <ele>115.853589</ele>
        <time>2026-08-16T07:22:54.000Z</time>
      </trkpt>
      <trkpt lat="22.743543" lon="110.223586">
        <ele>115.834876</ele>
        <time>2026-08-16T07:22:55.000Z</time>
      </trkpt>
      <trkpt lat="22.743513" lon="110.223641">
        <ele>115.815908</ele>
        <time>2026-08-16T07:22:56.000Z</time>
      </trkpt>
      <trkpt lat="22.743484" lon="110.223695">
        <ele>115.797358</ele>
        <time>2026-08-16T07:22:57.000Z</time>
      </trkpt>
      <trkpt lat="22.743456" lon="110.223747">
        <ele>115.779484</ele>
        <time>2026-08-16T07:22:58.000Z</time>
      </trkpt>
      <trkpt lat="22.743429" lon="110.223800">
        <ele>115.761510</ele>
        <time>2026-08-16T07:22:59.000Z</time>
      </trkpt>
      <trkpt lat="22.743405" lon="110.223854">
        <ele>115.743716</ele>
        <time>2026-08-16T07:23:00.000Z</time>
      </trkpt>
      <trkpt lat="22.743381" lon="110.223905">
        <ele>115.726720</ele>
        <time>2026-08-16T07:23:01.000Z</time>
      </trkpt>
      <trkpt lat="22.743356" lon="110.223953">
        <ele>115.710356</ele>
        <time>2026-08-16T07:23:02.000Z</time>
      </trkpt>
      <trkpt lat="22.743329" lon="110.223996">
        <ele>115.694914</ele>
        <time>2026-08-16T07:23:03.000Z</time>
      </trkpt>
      <trkpt lat="22.743302" lon="110.224038">
        <ele>115.679717</ele>
        <time>2026-08-16T07:23:04.000Z</time>
      </trkpt>
      <trkpt lat="22.743275" lon="110.224081">
        <ele>115.664274</ele>
        <time>2026-08-16T07:23:05.000Z</time>
      </trkpt>
      <trkpt lat="22.743254" lon="110.224124">
        <ele>115.649831</ele>
        <time>2026-08-16T07:23:06.000Z</time>
      </trkpt>
      <trkpt lat="22.743237" lon="110.224167">
        <ele>115.635943</ele>
        <time>2026-08-16T07:23:07.000Z</time>
      </trkpt>
      <trkpt lat="22.743220" lon="110.224206">
        <ele>115.623138</ele>
        <time>2026-08-16T07:23:08.000Z</time>
      </trkpt>
      <trkpt lat="22.743201" lon="110.224238">
        <ele>115.611840</ele>
        <time>2026-08-16T07:23:09.000Z</time>
      </trkpt>
      <trkpt lat="22.743180" lon="110.224269">
        <ele>115.600423</ele>
        <time>2026-08-16T07:23:10.000Z</time>
      </trkpt>
      <trkpt lat="22.743161" lon="110.224299">
        <ele>115.589619</ele>
        <time>2026-08-16T07:23:11.000Z</time>
      </trkpt>
      <trkpt lat="22.743144" lon="110.224329">
        <ele>115.579167</ele>
        <time>2026-08-16T07:23:12.000Z</time>
      </trkpt>
      <trkpt lat="22.743126" lon="110.224361">
        <ele>115.568041</ele>
        <time>2026-08-16T07:23:13.000Z</time>
      </trkpt>
      <trkpt lat="22.743112" lon="110.224394">
        <ele>115.557258</ele>
        <time>2026-08-16T07:23:14.000Z</time>
      </trkpt>
      <trkpt lat="22.743095" lon="110.224422">
        <ele>115.547307</ele>
        <time>2026-08-16T07:23:15.000Z</time>
      </trkpt>
      <trkpt lat="22.743077" lon="110.224448">
        <ele>115.537656</ele>
        <time>2026-08-16T07:23:16.000Z</time>
      </trkpt>
      <trkpt lat="22.743062" lon="110.224476">
        <ele>115.528044</ele>
        <time>2026-08-16T07:23:17.000Z</time>
      </trkpt>
      <trkpt lat="22.743047" lon="110.224511">
        <ele>115.516587</ele>
        <time>2026-08-16T07:23:18.000Z</time>
      </trkpt>
      <trkpt lat="22.743031" lon="110.224542">
        <ele>115.506042</ele>
        <time>2026-08-16T07:23:19.000Z</time>
      </trkpt>
      <trkpt lat="22.743017" lon="110.224574">
        <ele>115.509645</ele>
        <time>2026-08-16T07:23:20.000Z</time>
      </trkpt>
      <trkpt lat="22.743001" lon="110.224607">
        <ele>115.562280</ele>
        <time>2026-08-16T07:23:21.000Z</time>
      </trkpt>
      <trkpt lat="22.742981" lon="110.224643">
        <ele>115.621612</ele>
        <time>2026-08-16T07:23:22.000Z</time>
      </trkpt>
      <trkpt lat="22.742961" lon="110.224681">
        <ele>115.683381</ele>
        <time>2026-08-16T07:23:23.000Z</time>
      </trkpt>
      <trkpt lat="22.742941" lon="110.224717">
        <ele>115.742714</ele>
        <time>2026-08-16T07:23:24.000Z</time>
      </trkpt>
      <trkpt lat="22.742923" lon="110.224755">
        <ele>115.803024</ele>
        <time>2026-08-16T07:23:25.000Z</time>
      </trkpt>
      <trkpt lat="22.742904" lon="110.224795">
        <ele>115.866544</ele>
        <time>2026-08-16T07:23:26.000Z</time>
      </trkpt>
      <trkpt lat="22.742882" lon="110.224833">
        <ele>115.929886</ele>
        <time>2026-08-16T07:23:27.000Z</time>
      </trkpt>
      <trkpt lat="22.742859" lon="110.224869">
        <ele>115.991714</ele>
        <time>2026-08-16T07:23:28.000Z</time>
      </trkpt>
      <trkpt lat="22.742846" lon="110.224908">
        <ele>116.050259</ele>
        <time>2026-08-16T07:23:29.000Z</time>
      </trkpt>
      <trkpt lat="22.742838" lon="110.224954">
        <ele>116.116345</ele>
        <time>2026-08-16T07:23:30.000Z</time>
      </trkpt>
      <trkpt lat="22.742830" lon="110.224998">
        <ele>116.179659</ele>
        <time>2026-08-16T07:23:31.000Z</time>
      </trkpt>
      <trkpt lat="22.742824" lon="110.225045">
        <ele>116.246645</ele>
        <time>2026-08-16T07:23:32.000Z</time>
      </trkpt>
      <trkpt lat="22.742819" lon="110.225093">
        <ele>116.314841</ele>
        <time>2026-08-16T07:23:33.000Z</time>
      </trkpt>
      <trkpt lat="22.742811" lon="110.225144">
        <ele>116.387875</ele>
        <time>2026-08-16T07:23:34.000Z</time>
      </trkpt>
      <trkpt lat="22.742806" lon="110.225194">
        <ele>116.458878</ele>
        <time>2026-08-16T07:23:35.000Z</time>
      </trkpt>
      <trkpt lat="22.742793" lon="110.225245">
        <ele>116.533577</ele>
        <time>2026-08-16T07:23:36.000Z</time>
      </trkpt>
      <trkpt lat="22.742788" lon="110.225297">
        <ele>116.607387</ele>
        <time>2026-08-16T07:23:37.000Z</time>
      </trkpt>
      <trkpt lat="22.742780" lon="110.225347">
        <ele>116.679031</ele>
        <time>2026-08-16T07:23:38.000Z</time>
      </trkpt>
      <trkpt lat="22.742773" lon="110.225399">
        <ele>116.753221</ele>
        <time>2026-08-16T07:23:39.000Z</time>
      </trkpt>
      <trkpt lat="22.742765" lon="110.225448">
        <ele>116.823473</ele>
        <time>2026-08-16T07:23:40.000Z</time>
      </trkpt>
      <trkpt lat="22.742766" lon="110.225495">
        <ele>116.889844</ele>
        <time>2026-08-16T07:23:41.000Z</time>
      </trkpt>
      <trkpt lat="22.742789" lon="110.225544">
        <ele>116.967465</ele>
        <time>2026-08-16T07:23:42.000Z</time>
      </trkpt>
      <trkpt lat="22.742798" lon="110.225589">
        <ele>117.032472</ele>
        <time>2026-08-16T07:23:43.000Z</time>
      </trkpt>
      <trkpt lat="22.742787" lon="110.225627">
        <ele>117.088700</ele>
        <time>2026-08-16T07:23:44.000Z</time>
      </trkpt>
      <trkpt lat="22.742781" lon="110.225665">
        <ele>117.143128</ele>
        <time>2026-08-16T07:23:45.000Z</time>
      </trkpt>
      <trkpt lat="22.742775" lon="110.225701">
        <ele>117.194775</ele>
        <time>2026-08-16T07:23:46.000Z</time>
      </trkpt>
      <trkpt lat="22.742765" lon="110.225730">
        <ele>117.238484</ele>
        <time>2026-08-16T07:23:47.000Z</time>
      </trkpt>
      <trkpt lat="22.742757" lon="110.225757">
        <ele>117.278521</ele>
        <time>2026-08-16T07:23:48.000Z</time>
      </trkpt>
      <trkpt lat="22.742750" lon="110.225786">
        <ele>117.320841</ele>
        <time>2026-08-16T07:23:49.000Z</time>
      </trkpt>
      <trkpt lat="22.742743" lon="110.225818">
        <ele>117.367272</ele>
        <time>2026-08-16T07:23:50.000Z</time>
      </trkpt>
      <trkpt lat="22.742740" lon="110.225853">
        <ele>117.416897</ele>
        <time>2026-08-16T07:23:51.000Z</time>
      </trkpt>
      <trkpt lat="22.742729" lon="110.225886">
        <ele>117.466435</ele>
        <time>2026-08-16T07:23:52.000Z</time>
      </trkpt>
      <trkpt lat="22.742721" lon="110.225919">
        <ele>117.514606</ele>
        <time>2026-08-16T07:23:53.000Z</time>
      </trkpt>
      <trkpt lat="22.742714" lon="110.225951">
        <ele>117.561036</ele>
        <time>2026-08-16T07:23:54.000Z</time>
      </trkpt>
      <trkpt lat="22.742710" lon="110.225989">
        <ele>117.615032</ele>
        <time>2026-08-16T07:23:55.000Z</time>
      </trkpt>
      <trkpt lat="22.742704" lon="110.226027">
        <ele>117.669460</ele>
        <time>2026-08-16T07:23:56.000Z</time>
      </trkpt>
      <trkpt lat="22.742701" lon="110.226069">
        <ele>117.728932</ele>
        <time>2026-08-16T07:23:57.000Z</time>
      </trkpt>
      <trkpt lat="22.742693" lon="110.226110">
        <ele>117.788096</ele>
        <time>2026-08-16T07:23:58.000Z</time>
      </trkpt>
      <trkpt lat="22.742684" lon="110.226153">
        <ele>117.850346</ele>
        <time>2026-08-16T07:23:59.000Z</time>
      </trkpt>
      <trkpt lat="22.742677" lon="110.226197">
        <ele>117.913381</ele>
        <time>2026-08-16T07:24:00.000Z</time>
      </trkpt>
      <trkpt lat="22.742667" lon="110.226242">
        <ele>117.978729</ele>
        <time>2026-08-16T07:24:01.000Z</time>
      </trkpt>
      <trkpt lat="22.742666" lon="110.226287">
        <ele>118.042277</ele>
        <time>2026-08-16T07:24:02.000Z</time>
      </trkpt>
      <trkpt lat="22.742660" lon="110.226329">
        <ele>118.102279</ele>
        <time>2026-08-16T07:24:03.000Z</time>
      </trkpt>
      <trkpt lat="22.742654" lon="110.226370">
        <ele>118.160886</ele>
        <time>2026-08-16T07:24:04.000Z</time>
      </trkpt>
      <trkpt lat="22.742653" lon="110.226414">
        <ele>118.223023</ele>
        <time>2026-08-16T07:24:05.000Z</time>
      </trkpt>
      <trkpt lat="22.742659" lon="110.226455">
        <ele>118.273165</ele>
        <time>2026-08-16T07:24:06.000Z</time>
      </trkpt>
      <trkpt lat="22.742657" lon="110.226499">
        <ele>118.317984</ele>
        <time>2026-08-16T07:24:07.000Z</time>
      </trkpt>
      <trkpt lat="22.742654" lon="110.226545">
        <ele>118.364900</ele>
        <time>2026-08-16T07:24:08.000Z</time>
      </trkpt>
      <trkpt lat="22.742648" lon="110.226590">
        <ele>118.411158</ele>
        <time>2026-08-16T07:24:09.000Z</time>
      </trkpt>
      <trkpt lat="22.742642" lon="110.226637">
        <ele>118.459431</ele>
        <time>2026-08-16T07:24:10.000Z</time>
      </trkpt>
      <trkpt lat="22.742635" lon="110.226682">
        <ele>118.505860</ele>
        <time>2026-08-16T07:24:11.000Z</time>
      </trkpt>
      <trkpt lat="22.742632" lon="110.226726">
        <ele>118.550747</ele>
        <time>2026-08-16T07:24:12.000Z</time>
      </trkpt>
      <trkpt lat="22.742627" lon="110.226773">
        <ele>118.598881</ele>
        <time>2026-08-16T07:24:13.000Z</time>
      </trkpt>
      <trkpt lat="22.742624" lon="110.226818">
        <ele>118.644782</ele>
        <time>2026-08-16T07:24:14.000Z</time>
      </trkpt>
      <trkpt lat="22.742619" lon="110.226866">
        <ele>118.693927</ele>
        <time>2026-08-16T07:24:15.000Z</time>
      </trkpt>
      <trkpt lat="22.742612" lon="110.226912">
        <ele>118.741359</ele>
        <time>2026-08-16T07:24:16.000Z</time>
      </trkpt>
      <trkpt lat="22.742603" lon="110.226956">
        <ele>118.787212</ele>
        <time>2026-08-16T07:24:17.000Z</time>
      </trkpt>
      <trkpt lat="22.742592" lon="110.227002">
        <ele>118.835559</ele>
        <time>2026-08-16T07:24:18.000Z</time>
      </trkpt>
      <trkpt lat="22.742586" lon="110.227049">
        <ele>118.883832</ele>
        <time>2026-08-16T07:24:19.000Z</time>
      </trkpt>
      <trkpt lat="22.742570" lon="110.227091">
        <ele>118.930063</ele>
        <time>2026-08-16T07:24:20.000Z</time>
      </trkpt>
      <trkpt lat="22.742562" lon="110.227137">
        <ele>118.977688</ele>
        <time>2026-08-16T07:24:21.000Z</time>
      </trkpt>
      <trkpt lat="22.742552" lon="110.227184">
        <ele>119.026761</ele>
        <time>2026-08-16T07:24:22.000Z</time>
      </trkpt>
      <trkpt lat="22.742554" lon="110.227228">
        <ele>119.071580</ele>
        <time>2026-08-16T07:24:23.000Z</time>
      </trkpt>
      <trkpt lat="22.742550" lon="110.227271">
        <ele>119.115549</ele>
        <time>2026-08-16T07:24:24.000Z</time>
      </trkpt>
      <trkpt lat="22.742545" lon="110.227311">
        <ele>119.156616</ele>
        <time>2026-08-16T07:24:25.000Z</time>
      </trkpt>
      <trkpt lat="22.742541" lon="110.227353">
        <ele>119.199573</ele>
        <time>2026-08-16T07:24:26.000Z</time>
      </trkpt>
      <trkpt lat="22.742537" lon="110.227399">
        <ele>119.246581</ele>
        <time>2026-08-16T07:24:27.000Z</time>
      </trkpt>
      <trkpt lat="22.742533" lon="110.227447">
        <ele>119.295614</ele>
        <time>2026-08-16T07:24:28.000Z</time>
      </trkpt>
      <trkpt lat="22.742525" lon="110.227494">
        <ele>119.344238</ele>
        <time>2026-08-16T07:24:29.000Z</time>
      </trkpt>
      <trkpt lat="22.742519" lon="110.227539">
        <ele>119.390496</ele>
        <time>2026-08-16T07:24:30.000Z</time>
      </trkpt>
      <trkpt lat="22.742518" lon="110.227574">
        <ele>119.426122</ele>
        <time>2026-08-16T07:24:31.000Z</time>
      </trkpt>
      <trkpt lat="22.742510" lon="110.227615">
        <ele>119.468758</ele>
        <time>2026-08-16T07:24:32.000Z</time>
      </trkpt>
      <trkpt lat="22.742495" lon="110.227654">
        <ele>119.511748</ele>
        <time>2026-08-16T07:24:33.000Z</time>
      </trkpt>
      <trkpt lat="22.742485" lon="110.227698">
        <ele>119.557852</ele>
        <time>2026-08-16T07:24:34.000Z</time>
      </trkpt>
      <trkpt lat="22.742474" lon="110.227744">
        <ele>119.606199</ele>
        <time>2026-08-16T07:24:35.000Z</time>
      </trkpt>
      <trkpt lat="22.742467" lon="110.227785">
        <ele>119.648620</ele>
        <time>2026-08-16T07:24:36.000Z</time>
      </trkpt>
      <trkpt lat="22.742460" lon="110.227824">
        <ele>119.689042</ele>
        <time>2026-08-16T07:24:37.000Z</time>
      </trkpt>
      <trkpt lat="22.742448" lon="110.227867">
        <ele>119.734749</ele>
        <time>2026-08-16T07:24:38.000Z</time>
      </trkpt>
      <trkpt lat="22.742442" lon="110.227915">
        <ele>119.784030</ele>
        <time>2026-08-16T07:24:39.000Z</time>
      </trkpt>
      <trkpt lat="22.742436" lon="110.227958">
        <ele>119.828275</ele>
        <time>2026-08-16T07:24:40.000Z</time>
      </trkpt>
      <trkpt lat="22.742429" lon="110.228002">
        <ele>119.873701</ele>
        <time>2026-08-16T07:24:41.000Z</time>
      </trkpt>
      <trkpt lat="22.742422" lon="110.228046">
        <ele>119.919127</ele>
        <time>2026-08-16T07:24:42.000Z</time>
      </trkpt>
      <trkpt lat="22.742415" lon="110.228082">
        <ele>119.956558</ele>
        <time>2026-08-16T07:24:43.000Z</time>
      </trkpt>
      <trkpt lat="22.742410" lon="110.228117">
        <ele>119.992591</ele>
        <time>2026-08-16T07:24:44.000Z</time>
      </trkpt>
      <trkpt lat="22.742409" lon="110.228154">
        <ele>120.030250</ele>
        <time>2026-08-16T07:24:45.000Z</time>
      </trkpt>
      <trkpt lat="22.742410" lon="110.228194">
        <ele>120.070960</ele>
        <time>2026-08-16T07:24:46.000Z</time>
      </trkpt>
      <trkpt lat="22.742407" lon="110.228237">
        <ele>120.114833</ele>
        <time>2026-08-16T07:24:47.000Z</time>
      </trkpt>
      <trkpt lat="22.742400" lon="110.228282">
        <ele>120.161261</ele>
        <time>2026-08-16T07:24:48.000Z</time>
      </trkpt>
      <trkpt lat="22.742393" lon="110.228325">
        <ele>120.205685</ele>
        <time>2026-08-16T07:24:49.000Z</time>
      </trkpt>
      <trkpt lat="22.742388" lon="110.228369">
        <ele>120.230175</ele>
        <time>2026-08-16T07:24:50.000Z</time>
      </trkpt>
      <trkpt lat="22.742384" lon="110.228413">
        <ele>120.214507</ele>
        <time>2026-08-16T07:24:51.000Z</time>
      </trkpt>
      <trkpt lat="22.742374" lon="110.228459">
        <ele>120.197760</ele>
        <time>2026-08-16T07:24:52.000Z</time>
      </trkpt>
      <trkpt lat="22.742364" lon="110.228502">
        <ele>120.182045</ele>
        <time>2026-08-16T07:24:53.000Z</time>
      </trkpt>
      <trkpt lat="22.742354" lon="110.228536">
        <ele>120.169399</ele>
        <time>2026-08-16T07:24:54.000Z</time>
      </trkpt>
      <trkpt lat="22.742345" lon="110.228571">
        <ele>120.156524</ele>
        <time>2026-08-16T07:24:55.000Z</time>
      </trkpt>
      <trkpt lat="22.742336" lon="110.228600">
        <ele>120.145681</ele>
        <time>2026-08-16T07:24:56.000Z</time>
      </trkpt>
      <trkpt lat="22.742327" lon="110.228625">
        <ele>120.136171</ele>
        <time>2026-08-16T07:24:57.000Z</time>
      </trkpt>
      <trkpt lat="22.742317" lon="110.228650">
        <ele>120.126514</ele>
        <time>2026-08-16T07:24:58.000Z</time>
      </trkpt>
      <trkpt lat="22.742308" lon="110.228677">
        <ele>120.116341</ele>
        <time>2026-08-16T07:24:59.000Z</time>
      </trkpt>
      <trkpt lat="22.742299" lon="110.228706">
        <ele>120.105498</ele>
        <time>2026-08-16T07:25:00.000Z</time>
      </trkpt>
      <trkpt lat="22.742292" lon="110.228735">
        <ele>120.094876</ele>
        <time>2026-08-16T07:25:01.000Z</time>
      </trkpt>
      <trkpt lat="22.742287" lon="110.228770">
        <ele>120.082325</ele>
        <time>2026-08-16T07:25:02.000Z</time>
      </trkpt>
      <trkpt lat="22.742279" lon="110.228808">
        <ele>120.068513</ele>
        <time>2026-08-16T07:25:03.000Z</time>
      </trkpt>
      <trkpt lat="22.742274" lon="110.228846">
        <ele>120.054911</ele>
        <time>2026-08-16T07:25:04.000Z</time>
      </trkpt>
      <trkpt lat="22.742266" lon="110.228884">
        <ele>120.041099</ele>
        <time>2026-08-16T07:25:05.000Z</time>
      </trkpt>
      <trkpt lat="22.742253" lon="110.228921">
        <ele>120.027068</ele>
        <time>2026-08-16T07:25:06.000Z</time>
      </trkpt>
      <trkpt lat="22.742243" lon="110.228956">
        <ele>120.014084</ele>
        <time>2026-08-16T07:25:07.000Z</time>
      </trkpt>
      <trkpt lat="22.742237" lon="110.228986">
        <ele>120.003206</ele>
        <time>2026-08-16T07:25:08.000Z</time>
      </trkpt>
      <trkpt lat="22.742231" lon="110.229018">
        <ele>119.991634</ele>
        <time>2026-08-16T07:25:09.000Z</time>
      </trkpt>
      <trkpt lat="22.742228" lon="110.229057">
        <ele>119.977766</ele>
        <time>2026-08-16T07:25:10.000Z</time>
      </trkpt>
      <trkpt lat="22.742228" lon="110.229097">
        <ele>119.963592</ele>
        <time>2026-08-16T07:25:11.000Z</time>
      </trkpt>
      <trkpt lat="22.742224" lon="110.229135">
        <ele>119.950038</ele>
        <time>2026-08-16T07:25:12.000Z</time>
      </trkpt>
      <trkpt lat="22.742214" lon="110.229171">
        <ele>119.936715</ele>
        <time>2026-08-16T07:25:13.000Z</time>
      </trkpt>
      <trkpt lat="22.742207" lon="110.229215">
        <ele>119.920893</ele>
        <time>2026-08-16T07:25:14.000Z</time>
      </trkpt>
      <trkpt lat="22.742205" lon="110.229256">
        <ele>119.906344</ele>
        <time>2026-08-16T07:25:15.000Z</time>
      </trkpt>
      <trkpt lat="22.742205" lon="110.229302">
        <ele>119.890043</ele>
        <time>2026-08-16T07:25:16.000Z</time>
      </trkpt>
      <trkpt lat="22.742194" lon="110.229347">
        <ele>119.873547</ele>
        <time>2026-08-16T07:25:17.000Z</time>
      </trkpt>
      <trkpt lat="22.742183" lon="110.229393">
        <ele>119.856707</ele>
        <time>2026-08-16T07:25:18.000Z</time>
      </trkpt>
      <trkpt lat="22.742173" lon="110.229443">
        <ele>119.838577</ele>
        <time>2026-08-16T07:25:19.000Z</time>
      </trkpt>
      <trkpt lat="22.742162" lon="110.229492">
        <ele>119.820706</ele>
        <time>2026-08-16T07:25:20.000Z</time>
      </trkpt>
      <trkpt lat="22.742153" lon="110.229540">
        <ele>119.803349</ele>
        <time>2026-08-16T07:25:21.000Z</time>
      </trkpt>
      <trkpt lat="22.742155" lon="110.229589">
        <ele>119.785968</ele>
        <time>2026-08-16T07:25:22.000Z</time>
      </trkpt>
      <trkpt lat="22.742156" lon="110.229639">
        <ele>119.768246</ele>
        <time>2026-08-16T07:25:23.000Z</time>
      </trkpt>
      <trkpt lat="22.742149" lon="110.229686">
        <ele>119.751375</ele>
        <time>2026-08-16T07:25:24.000Z</time>
      </trkpt>
      <trkpt lat="22.742150" lon="110.229734">
        <ele>119.734361</ele>
        <time>2026-08-16T07:25:25.000Z</time>
      </trkpt>
      <trkpt lat="22.742146" lon="110.229783">
        <ele>119.716930</ele>
        <time>2026-08-16T07:25:26.000Z</time>
      </trkpt>
      <trkpt lat="22.742154" lon="110.229834">
        <ele>119.698598</ele>
        <time>2026-08-16T07:25:27.000Z</time>
      </trkpt>
      <trkpt lat="22.742147" lon="110.229880">
        <ele>119.682077</ele>
        <time>2026-08-16T07:25:28.000Z</time>
      </trkpt>
      <trkpt lat="22.742140" lon="110.229915">
        <ele>119.669386</ele>
        <time>2026-08-16T07:25:29.000Z</time>
      </trkpt>
      <trkpt lat="22.742135" lon="110.229958">
        <ele>119.654027</ele>
        <time>2026-08-16T07:25:30.000Z</time>
      </trkpt>
      <trkpt lat="22.742132" lon="110.229997">
        <ele>119.640159</ele>
        <time>2026-08-16T07:25:31.000Z</time>
      </trkpt>
      <trkpt lat="22.742130" lon="110.230037">
        <ele>119.625964</ele>
        <time>2026-08-16T07:25:32.000Z</time>
      </trkpt>
      <trkpt lat="22.742136" lon="110.230077">
        <ele>119.611603</ele>
        <time>2026-08-16T07:25:33.000Z</time>
      </trkpt>
      <trkpt lat="22.742136" lon="110.230128">
        <ele>119.593531</ele>
        <time>2026-08-16T07:25:34.000Z</time>
      </trkpt>
      <trkpt lat="22.742146" lon="110.230183">
        <ele>119.573666</ele>
        <time>2026-08-16T07:25:35.000Z</time>
      </trkpt>
      <trkpt lat="22.742154" lon="110.230238">
        <ele>119.553935</ele>
        <time>2026-08-16T07:25:36.000Z</time>
      </trkpt>
      <trkpt lat="22.742163" lon="110.230293">
        <ele>119.539532</ele>
        <time>2026-08-16T07:25:37.000Z</time>
      </trkpt>
      <trkpt lat="22.742172" lon="110.230345">
        <ele>119.530638</ele>
        <time>2026-08-16T07:25:38.000Z</time>
      </trkpt>
      <trkpt lat="22.742188" lon="110.230395">
        <ele>119.521740</ele>
        <time>2026-08-16T07:25:39.000Z</time>
      </trkpt>
      <trkpt lat="22.742173" lon="110.230446">
        <ele>119.512741</ele>
        <time>2026-08-16T07:25:40.000Z</time>
      </trkpt>
      <trkpt lat="22.742174" lon="110.230491">
        <ele>119.505173</ele>
        <time>2026-08-16T07:25:41.000Z</time>
      </trkpt>
      <trkpt lat="22.742178" lon="110.230543">
        <ele>119.496401</ele>
        <time>2026-08-16T07:25:42.000Z</time>
      </trkpt>
      <trkpt lat="22.742191" lon="110.230585">
        <ele>119.488953</ele>
        <time>2026-08-16T07:25:43.000Z</time>
      </trkpt>
      <trkpt lat="22.742203" lon="110.230633">
        <ele>119.480592</ele>
        <time>2026-08-16T07:25:44.000Z</time>
      </trkpt>
      <trkpt lat="22.742212" lon="110.230683">
        <ele>119.472028</ele>
        <time>2026-08-16T07:25:45.000Z</time>
      </trkpt>
      <trkpt lat="22.742221" lon="110.230736">
        <ele>119.462968</ele>
        <time>2026-08-16T07:25:46.000Z</time>
      </trkpt>
      <trkpt lat="22.742234" lon="110.230791">
        <ele>119.453422</ele>
        <time>2026-08-16T07:25:47.000Z</time>
      </trkpt>
      <trkpt lat="22.742241" lon="110.230847">
        <ele>119.443922</ele>
        <time>2026-08-16T07:25:48.000Z</time>
      </trkpt>
      <trkpt lat="22.742250" lon="110.230902">
        <ele>119.434531</ele>
        <time>2026-08-16T07:25:49.000Z</time>
      </trkpt>
      <trkpt lat="22.742253" lon="110.230959">
        <ele>119.424933</ele>
        <time>2026-08-16T07:25:50.000Z</time>
      </trkpt>
      <trkpt lat="22.742262" lon="110.231013">
        <ele>119.415708</ele>
        <time>2026-08-16T07:25:51.000Z</time>
      </trkpt>
      <trkpt lat="22.742262" lon="110.231065">
        <ele>119.406965</ele>
        <time>2026-08-16T07:25:52.000Z</time>
      </trkpt>
      <trkpt lat="22.742268" lon="110.231116">
        <ele>119.398322</ele>
        <time>2026-08-16T07:25:53.000Z</time>
      </trkpt>
      <trkpt lat="22.742276" lon="110.231166">
        <ele>119.389791</ele>
        <time>2026-08-16T07:25:54.000Z</time>
      </trkpt>
      <trkpt lat="22.742283" lon="110.231214">
        <ele>119.381621</ele>
        <time>2026-08-16T07:25:55.000Z</time>
      </trkpt>
      <trkpt lat="22.742292" lon="110.231264">
        <ele>119.373056</ele>
        <time>2026-08-16T07:25:56.000Z</time>
      </trkpt>
      <trkpt lat="22.742311" lon="110.231314">
        <ele>119.363965</ele>
        <time>2026-08-16T07:25:57.000Z</time>
      </trkpt>
      <trkpt lat="22.742320" lon="110.231366">
        <ele>119.355070</ele>
        <time>2026-08-16T07:25:58.000Z</time>
      </trkpt>
      <trkpt lat="22.742324" lon="110.231417">
        <ele>119.346466</ele>
        <time>2026-08-16T07:25:59.000Z</time>
      </trkpt>
      <trkpt lat="22.742339" lon="110.231475">
        <ele>119.336339</ele>
        <time>2026-08-16T07:26:00.000Z</time>
      </trkpt>
      <trkpt lat="22.742353" lon="110.231532">
        <ele>119.326422</ele>
        <time>2026-08-16T07:26:01.000Z</time>
      </trkpt>
      <trkpt lat="22.742365" lon="110.231586">
        <ele>119.317084</ele>
        <time>2026-08-16T07:26:02.000Z</time>
      </trkpt>
      <trkpt lat="22.742375" lon="110.231642">
        <ele>119.307495</ele>
        <time>2026-08-16T07:26:03.000Z</time>
      </trkpt>
      <trkpt lat="22.742383" lon="110.231700">
        <ele>119.297635</ele>
        <time>2026-08-16T07:26:04.000Z</time>
      </trkpt>
      <trkpt lat="22.742385" lon="110.231756">
        <ele>119.288214</ele>
        <time>2026-08-16T07:26:05.000Z</time>
      </trkpt>
      <trkpt lat="22.742382" lon="110.231810">
        <ele>119.279119</ele>
        <time>2026-08-16T07:26:06.000Z</time>
      </trkpt>
      <trkpt lat="22.742375" lon="110.231862">
        <ele>119.270284</ele>
        <time>2026-08-16T07:26:07.000Z</time>
      </trkpt>
      <trkpt lat="22.742384" lon="110.231916">
        <ele>119.261059</ele>
        <time>2026-08-16T07:26:08.000Z</time>
      </trkpt>
      <trkpt lat="22.742381" lon="110.231968">
        <ele>119.252300</ele>
        <time>2026-08-16T07:26:09.000Z</time>
      </trkpt>
      <trkpt lat="22.742379" lon="110.232018">
        <ele>119.243886</ele>
        <time>2026-08-16T07:26:10.000Z</time>
      </trkpt>
      <trkpt lat="22.742377" lon="110.232068">
        <ele>119.235473</ele>
        <time>2026-08-16T07:26:11.000Z</time>
      </trkpt>
      <trkpt lat="22.742372" lon="110.232114">
        <ele>119.227686</ele>
        <time>2026-08-16T07:26:12.000Z</time>
      </trkpt>
      <trkpt lat="22.742373" lon="110.232160">
        <ele>119.219950</ele>
        <time>2026-08-16T07:26:13.000Z</time>
      </trkpt>
      <trkpt lat="22.742377" lon="110.232206">
        <ele>119.214730</ele>
        <time>2026-08-16T07:26:14.000Z</time>
      </trkpt>
      <trkpt lat="22.742380" lon="110.232251">
        <ele>119.211593</ele>
        <time>2026-08-16T07:26:15.000Z</time>
      </trkpt>
      <trkpt lat="22.742385" lon="110.232298">
        <ele>119.208303</ele>
        <time>2026-08-16T07:26:16.000Z</time>
      </trkpt>
      <trkpt lat="22.742392" lon="110.232341">
        <ele>119.205267</ele>
        <time>2026-08-16T07:26:17.000Z</time>
      </trkpt>
      <trkpt lat="22.742398" lon="110.232385">
        <ele>119.202175</ele>
        <time>2026-08-16T07:26:18.000Z</time>
      </trkpt>
      <trkpt lat="22.742399" lon="110.232423">
        <ele>119.199532</ele>
        <time>2026-08-16T07:26:19.000Z</time>
      </trkpt>
      <trkpt lat="22.742405" lon="110.232464">
        <ele>119.196645</ele>
        <time>2026-08-16T07:26:20.000Z</time>
      </trkpt>
      <trkpt lat="22.742411" lon="110.232507">
        <ele>119.193621</ele>
        <time>2026-08-16T07:26:21.000Z</time>
      </trkpt>
      <trkpt lat="22.742417" lon="110.232550">
        <ele>119.190598</ele>
        <time>2026-08-16T07:26:22.000Z</time>
      </trkpt>
      <trkpt lat="22.742420" lon="110.232589">
        <ele>119.187877</ele>
        <time>2026-08-16T07:26:23.000Z</time>
      </trkpt>
      <trkpt lat="22.742421" lon="110.232634">
        <ele>119.184747</ele>
        <time>2026-08-16T07:26:24.000Z</time>
      </trkpt>
      <trkpt lat="22.742428" lon="110.232678">
        <ele>119.181642</ele>
        <time>2026-08-16T07:26:25.000Z</time>
      </trkpt>
      <trkpt lat="22.742429" lon="110.232722">
        <ele>119.178582</ele>
        <time>2026-08-16T07:26:26.000Z</time>
      </trkpt>
      <trkpt lat="22.742428" lon="110.232768">
        <ele>119.175383</ele>
        <time>2026-08-16T07:26:27.000Z</time>
      </trkpt>
      <trkpt lat="22.742430" lon="110.232814">
        <ele>119.172181</ele>
        <time>2026-08-16T07:26:28.000Z</time>
      </trkpt>
      <trkpt lat="22.742431" lon="110.232860">
        <ele>119.168982</ele>
        <time>2026-08-16T07:26:29.000Z</time>
      </trkpt>
      <trkpt lat="22.742431" lon="110.232905">
        <ele>119.165853</ele>
        <time>2026-08-16T07:26:30.000Z</time>
      </trkpt>
      <trkpt lat="22.742433" lon="110.232952">
        <ele>119.162581</ele>
        <time>2026-08-16T07:26:31.000Z</time>
      </trkpt>
      <trkpt lat="22.742435" lon="110.232997">
        <ele>119.159449</ele>
        <time>2026-08-16T07:26:32.000Z</time>
      </trkpt>
      <trkpt lat="22.742431" lon="110.233037">
        <ele>119.156651</ele>
        <time>2026-08-16T07:26:33.000Z</time>
      </trkpt>
      <trkpt lat="22.742416" lon="110.233070">
        <ele>119.154093</ele>
        <time>2026-08-16T07:26:34.000Z</time>
      </trkpt>
      <trkpt lat="22.742383" lon="110.233092">
        <ele>119.151173</ele>
        <time>2026-08-16T07:26:35.000Z</time>
      </trkpt>
      <trkpt lat="22.742354" lon="110.233126">
        <ele>119.147953</ele>
        <time>2026-08-16T07:26:36.000Z</time>
      </trkpt>
      <trkpt lat="22.742321" lon="110.233155">
        <ele>119.144750</ele>
        <time>2026-08-16T07:26:37.000Z</time>
      </trkpt>
      <trkpt lat="22.742284" lon="110.233176">
        <ele>119.141602</ele>
        <time>2026-08-16T07:26:38.000Z</time>
      </trkpt>
      <trkpt lat="22.742242" lon="110.233190">
        <ele>119.138289</ele>
        <time>2026-08-16T07:26:39.000Z</time>
      </trkpt>
      <trkpt lat="22.742196" lon="110.233201">
        <ele>119.134738</ele>
        <time>2026-08-16T07:26:40.000Z</time>
      </trkpt>
      <trkpt lat="22.742153" lon="110.233221">
        <ele>119.131210</ele>
        <time>2026-08-16T07:26:41.000Z</time>
      </trkpt>
      <trkpt lat="22.742117" lon="110.233249">
        <ele>119.127870</ele>
        <time>2026-08-16T07:26:42.000Z</time>
      </trkpt>
      <trkpt lat="22.742080" lon="110.233289">
        <ele>119.123931</ele>
        <time>2026-08-16T07:26:43.000Z</time>
      </trkpt>
      <trkpt lat="22.742052" lon="110.233331">
        <ele>119.120328</ele>
        <time>2026-08-16T07:26:44.000Z</time>
      </trkpt>
      <trkpt lat="22.742039" lon="110.233377">
        <ele>119.116983</ele>
        <time>2026-08-16T07:26:45.000Z</time>
      </trkpt>
      <trkpt lat="22.742022" lon="110.233421">
        <ele>119.113666</ele>
        <time>2026-08-16T07:26:46.000Z</time>
      </trkpt>
      <trkpt lat="22.742002" lon="110.233457">
        <ele>119.110744</ele>
        <time>2026-08-16T07:26:47.000Z</time>
      </trkpt>
      <trkpt lat="22.741994" lon="110.233495">
        <ele>119.108033</ele>
        <time>2026-08-16T07:26:48.000Z</time>
      </trkpt>
      <trkpt lat="22.741982" lon="110.233531">
        <ele>119.105372</ele>
        <time>2026-08-16T07:26:49.000Z</time>
      </trkpt>
      <trkpt lat="22.741960" lon="110.233551">
        <ele>119.103207</ele>
        <time>2026-08-16T07:26:50.000Z</time>
      </trkpt>
      <trkpt lat="22.741917" lon="110.233567">
        <ele>119.099780</ele>
        <time>2026-08-16T07:26:51.000Z</time>
      </trkpt>
      <trkpt lat="22.741878" lon="110.233581">
        <ele>119.096683</ele>
        <time>2026-08-16T07:26:52.000Z</time>
      </trkpt>
      <trkpt lat="22.741838" lon="110.233587">
        <ele>119.093639</ele>
        <time>2026-08-16T07:26:53.000Z</time>
      </trkpt>
      <trkpt lat="22.741796" lon="110.233597">
        <ele>119.090397</ele>
        <time>2026-08-16T07:26:54.000Z</time>
      </trkpt>
      <trkpt lat="22.741744" lon="110.233604">
        <ele>119.086446</ele>
        <time>2026-08-16T07:26:55.000Z</time>
      </trkpt>
      <trkpt lat="22.741697" lon="110.233611">
        <ele>119.082870</ele>
        <time>2026-08-16T07:26:56.000Z</time>
      </trkpt>
      <trkpt lat="22.741653" lon="110.233635">
        <ele>119.069476</ele>
        <time>2026-08-16T07:26:57.000Z</time>
      </trkpt>
      <trkpt lat="22.741618" lon="110.233668">
        <ele>119.046838</ele>
        <time>2026-08-16T07:26:58.000Z</time>
      </trkpt>
      <trkpt lat="22.741588" lon="110.233700">
        <ele>119.026298</ele>
        <time>2026-08-16T07:26:59.000Z</time>
      </trkpt>
      <trkpt lat="22.741557" lon="110.233726">
        <ele>119.007169</ele>
        <time>2026-08-16T07:27:00.000Z</time>
      </trkpt>
      <trkpt lat="22.741516" lon="110.233743">
        <ele>118.985744</ele>
        <time>2026-08-16T07:27:01.000Z</time>
      </trkpt>
      <trkpt lat="22.741474" lon="110.233764">
        <ele>118.963169</ele>
        <time>2026-08-16T07:27:02.000Z</time>
      </trkpt>
      <trkpt lat="22.741444" lon="110.233786">
        <ele>118.945492</ele>
        <time>2026-08-16T07:27:03.000Z</time>
      </trkpt>
      <trkpt lat="22.741403" lon="110.233806">
        <ele>118.923548</ele>
        <time>2026-08-16T07:27:04.000Z</time>
      </trkpt>
      <trkpt lat="22.741356" lon="110.233819">
        <ele>118.899873</ele>
        <time>2026-08-16T07:27:05.000Z</time>
      </trkpt>
      <trkpt lat="22.741312" lon="110.233840">
        <ele>118.876409</ele>
        <time>2026-08-16T07:27:06.000Z</time>
      </trkpt>
      <trkpt lat="22.741268" lon="110.233856">
        <ele>118.853757</ele>
        <time>2026-08-16T07:27:07.000Z</time>
      </trkpt>
      <trkpt lat="22.741224" lon="110.233873">
        <ele>118.830959</ele>
        <time>2026-08-16T07:27:08.000Z</time>
      </trkpt>
      <trkpt lat="22.741183" lon="110.233895">
        <ele>118.808631</ele>
        <time>2026-08-16T07:27:09.000Z</time>
      </trkpt>
      <trkpt lat="22.741140" lon="110.233920">
        <ele>118.784816</ele>
        <time>2026-08-16T07:27:10.000Z</time>
      </trkpt>
      <trkpt lat="22.741091" lon="110.233945">
        <ele>118.758384</ele>
        <time>2026-08-16T07:27:11.000Z</time>
      </trkpt>
      <trkpt lat="22.741041" lon="110.233964">
        <ele>118.732524</ele>
        <time>2026-08-16T07:27:12.000Z</time>
      </trkpt>
      <trkpt lat="22.740995" lon="110.233980">
        <ele>118.708945</ele>
        <time>2026-08-16T07:27:13.000Z</time>
      </trkpt>
      <trkpt lat="22.740961" lon="110.234008">
        <ele>118.688106</ele>
        <time>2026-08-16T07:27:14.000Z</time>
      </trkpt>
      <trkpt lat="22.740913" lon="110.234023">
        <ele>118.663724</ele>
        <time>2026-08-16T07:27:15.000Z</time>
      </trkpt>
      <trkpt lat="22.740868" lon="110.234043">
        <ele>118.639987</ele>
        <time>2026-08-16T07:27:16.000Z</time>
      </trkpt>
      <trkpt lat="22.740824" lon="110.234058">
        <ele>118.617474</ele>
        <time>2026-08-16T07:27:17.000Z</time>
      </trkpt>
      <trkpt lat="22.740791" lon="110.234071">
        <ele>118.600337</ele>
        <time>2026-08-16T07:27:18.000Z</time>
      </trkpt>
      <trkpt lat="22.740762" lon="110.234083">
        <ele>118.585187</ele>
        <time>2026-08-16T07:27:19.000Z</time>
      </trkpt>
      <trkpt lat="22.740735" lon="110.234094">
        <ele>118.571109</ele>
        <time>2026-08-16T07:27:20.000Z</time>
      </trkpt>
      <trkpt lat="22.740711" lon="110.234110">
        <ele>118.557358</ele>
        <time>2026-08-16T07:27:21.000Z</time>
      </trkpt>
      <trkpt lat="22.740694" lon="110.234130">
        <ele>118.545114</ele>
        <time>2026-08-16T07:27:22.000Z</time>
      </trkpt>
      <trkpt lat="22.740685" lon="110.234161">
        <ele>118.530484</ele>
        <time>2026-08-16T07:27:23.000Z</time>
      </trkpt>
      <trkpt lat="22.740692" lon="110.234192">
        <ele>118.516118</ele>
        <time>2026-08-16T07:27:24.000Z</time>
      </trkpt>
      <trkpt lat="22.740698" lon="110.234223">
        <ele>118.501859</ele>
        <time>2026-08-16T07:27:25.000Z</time>
      </trkpt>
      <trkpt lat="22.740704" lon="110.234254">
        <ele>118.487600</ele>
        <time>2026-08-16T07:27:26.000Z</time>
      </trkpt>
      <trkpt lat="22.740712" lon="110.234286">
        <ele>118.472676</ele>
        <time>2026-08-16T07:27:27.000Z</time>
      </trkpt>
      <trkpt lat="22.740717" lon="110.234328">
        <ele>118.453613</ele>
        <time>2026-08-16T07:27:28.000Z</time>
      </trkpt>
      <trkpt lat="22.740721" lon="110.234366">
        <ele>118.436396</ele>
        <time>2026-08-16T07:27:29.000Z</time>
      </trkpt>
      <trkpt lat="22.740722" lon="110.234401">
        <ele>118.420633</ele>
        <time>2026-08-16T07:27:30.000Z</time>
      </trkpt>
      <trkpt lat="22.740723" lon="110.234441">
        <ele>118.402621</ele>
        <time>2026-08-16T07:27:31.000Z</time>
      </trkpt>
      <trkpt lat="22.740728" lon="110.234477">
        <ele>118.386233</ele>
        <time>2026-08-16T07:27:32.000Z</time>
      </trkpt>
      <trkpt lat="22.740727" lon="110.234518">
        <ele>118.367770</ele>
        <time>2026-08-16T07:27:33.000Z</time>
      </trkpt>
      <trkpt lat="22.740721" lon="110.234560">
        <ele>118.348638</ele>
        <time>2026-08-16T07:27:34.000Z</time>
      </trkpt>
      <trkpt lat="22.740717" lon="110.234601">
        <ele>118.330079</ele>
        <time>2026-08-16T07:27:35.000Z</time>
      </trkpt>
      <trkpt lat="22.740711" lon="110.234645">
        <ele>118.310057</ele>
        <time>2026-08-16T07:27:36.000Z</time>
      </trkpt>
      <trkpt lat="22.740707" lon="110.234691">
        <ele>118.289259</ele>
        <time>2026-08-16T07:27:37.000Z</time>
      </trkpt>
      <trkpt lat="22.740710" lon="110.234736">
        <ele>118.268949</ele>
        <time>2026-08-16T07:27:38.000Z</time>
      </trkpt>
      <trkpt lat="22.740707" lon="110.234783">
        <ele>118.247742</ele>
        <time>2026-08-16T07:27:39.000Z</time>
      </trkpt>
      <trkpt lat="22.740703" lon="110.234831">
        <ele>118.226046</ele>
        <time>2026-08-16T07:27:40.000Z</time>
      </trkpt>
      <trkpt lat="22.740701" lon="110.234874">
        <ele>118.206665</ele>
        <time>2026-08-16T07:27:41.000Z</time>
      </trkpt>
      <trkpt lat="22.740697" lon="110.234914">
        <ele>118.180860</ele>
        <time>2026-08-16T07:27:42.000Z</time>
      </trkpt>
      <trkpt lat="22.740694" lon="110.234951">
        <ele>118.155250</ele>
        <time>2026-08-16T07:27:43.000Z</time>
      </trkpt>
      <trkpt lat="22.740691" lon="110.234994">
        <ele>118.125516</ele>
        <time>2026-08-16T07:27:44.000Z</time>
      </trkpt>
      <trkpt lat="22.740696" lon="110.235043">
        <ele>118.091524</ele>
        <time>2026-08-16T07:27:45.000Z</time>
      </trkpt>
      <trkpt lat="22.740697" lon="110.235090">
        <ele>118.059109</ele>
        <time>2026-08-16T07:27:46.000Z</time>
      </trkpt>
      <trkpt lat="22.740697" lon="110.235140">
        <ele>118.024633</ele>
        <time>2026-08-16T07:27:47.000Z</time>
      </trkpt>
      <trkpt lat="22.740693" lon="110.235190">
        <ele>117.990028</ele>
        <time>2026-08-16T07:27:48.000Z</time>
      </trkpt>
      <trkpt lat="22.740685" lon="110.235232">
        <ele>117.960458</ele>
        <time>2026-08-16T07:27:49.000Z</time>
      </trkpt>
      <trkpt lat="22.740684" lon="110.235284">
        <ele>117.924595</ele>
        <time>2026-08-16T07:27:50.000Z</time>
      </trkpt>
      <trkpt lat="22.740682" lon="110.235338">
        <ele>117.887332</ele>
        <time>2026-08-16T07:27:51.000Z</time>
      </trkpt>
      <trkpt lat="22.740685" lon="110.235397">
        <ele>117.846589</ele>
        <time>2026-08-16T07:27:52.000Z</time>
      </trkpt>
      <trkpt lat="22.740687" lon="110.235446">
        <ele>117.812770</ele>
        <time>2026-08-16T07:27:53.000Z</time>
      </trkpt>
      <trkpt lat="22.740697" lon="110.235494">
        <ele>117.778840</ele>
        <time>2026-08-16T07:27:54.000Z</time>
      </trkpt>
      <trkpt lat="22.740701" lon="110.235544">
        <ele>117.744235</ele>
        <time>2026-08-16T07:27:55.000Z</time>
      </trkpt>
      <trkpt lat="22.740704" lon="110.235597">
        <ele>117.707622</ele>
        <time>2026-08-16T07:27:56.000Z</time>
      </trkpt>
      <trkpt lat="22.740707" lon="110.235653">
        <ele>117.668944</ele>
        <time>2026-08-16T07:27:57.000Z</time>
      </trkpt>
      <trkpt lat="22.740710" lon="110.235717">
        <ele>117.624759</ele>
        <time>2026-08-16T07:27:58.000Z</time>
      </trkpt>
      <trkpt lat="22.740711" lon="110.235773">
        <ele>117.586139</ele>
        <time>2026-08-16T07:27:59.000Z</time>
      </trkpt>
      <trkpt lat="22.740702" lon="110.235829">
        <ele>117.546944</ele>
        <time>2026-08-16T07:28:00.000Z</time>
      </trkpt>
      <trkpt lat="22.740701" lon="110.235891">
        <ele>117.504188</ele>
        <time>2026-08-16T07:28:01.000Z</time>
      </trkpt>
      <trkpt lat="22.740706" lon="110.235955">
        <ele>117.459902</ele>
        <time>2026-08-16T07:28:02.000Z</time>
      </trkpt>
      <trkpt lat="22.740711" lon="110.236021">
        <ele>117.414241</ele>
        <time>2026-08-16T07:28:03.000Z</time>
      </trkpt>
      <trkpt lat="22.740714" lon="110.236083">
        <ele>117.371432</ele>
        <time>2026-08-16T07:28:04.000Z</time>
      </trkpt>
      <trkpt lat="22.740715" lon="110.236148">
        <ele>117.326608</ele>
        <time>2026-08-16T07:28:05.000Z</time>
      </trkpt>
      <trkpt lat="22.740718" lon="110.236214">
        <ele>117.281045</ele>
        <time>2026-08-16T07:28:06.000Z</time>
      </trkpt>
      <trkpt lat="22.740723" lon="110.236281">
        <ele>117.234697</ele>
        <time>2026-08-16T07:28:07.000Z</time>
      </trkpt>
      <trkpt lat="22.740732" lon="110.236345">
        <ele>117.190058</ele>
        <time>2026-08-16T07:28:08.000Z</time>
      </trkpt>
      <trkpt lat="22.740743" lon="110.236410">
        <ele>117.144492</ele>
        <time>2026-08-16T07:28:09.000Z</time>
      </trkpt>
      <trkpt lat="22.740751" lon="110.236474">
        <ele>117.099960</ele>
        <time>2026-08-16T07:28:10.000Z</time>
      </trkpt>
      <trkpt lat="22.740759" lon="110.236536">
        <ele>117.056794</ele>
        <time>2026-08-16T07:28:11.000Z</time>
      </trkpt>
      <trkpt lat="22.740759" lon="110.236599">
        <ele>117.013355</ele>
        <time>2026-08-16T07:28:12.000Z</time>
      </trkpt>
      <trkpt lat="22.740760" lon="110.236660">
        <ele>116.971288</ele>
        <time>2026-08-16T07:28:13.000Z</time>
      </trkpt>
      <trkpt lat="22.740761" lon="110.236718">
        <ele>116.931290</ele>
        <time>2026-08-16T07:28:14.000Z</time>
      </trkpt>
      <trkpt lat="22.740760" lon="110.236779">
        <ele>116.889223</ele>
        <time>2026-08-16T07:28:15.000Z</time>
      </trkpt>
      <trkpt lat="22.740758" lon="110.236838">
        <ele>116.866862</ele>
        <time>2026-08-16T07:28:16.000Z</time>
      </trkpt>
      <trkpt lat="22.740762" lon="110.236899">
        <ele>116.903690</ele>
        <time>2026-08-16T07:28:17.000Z</time>
      </trkpt>
      <trkpt lat="22.740768" lon="110.236959">
        <ele>116.940035</ele>
        <time>2026-08-16T07:28:18.000Z</time>
      </trkpt>
      <trkpt lat="22.740772" lon="110.237018">
        <ele>116.975662</ele>
        <time>2026-08-16T07:28:19.000Z</time>
      </trkpt>
      <trkpt lat="22.740777" lon="110.237076">
        <ele>117.010743</ele>
        <time>2026-08-16T07:28:20.000Z</time>
      </trkpt>
      <trkpt lat="22.740784" lon="110.237133">
        <ele>117.045373</ele>
        <time>2026-08-16T07:28:21.000Z</time>
      </trkpt>
      <trkpt lat="22.740786" lon="110.237189">
        <ele>117.079122</ele>
        <time>2026-08-16T07:28:22.000Z</time>
      </trkpt>
      <trkpt lat="22.740785" lon="110.237243">
        <ele>117.111649</ele>
        <time>2026-08-16T07:28:23.000Z</time>
      </trkpt>
      <trkpt lat="22.740784" lon="110.237299">
        <ele>117.145380</ele>
        <time>2026-08-16T07:28:24.000Z</time>
      </trkpt>
      <trkpt lat="22.740783" lon="110.237355">
        <ele>117.179110</ele>
        <time>2026-08-16T07:28:25.000Z</time>
      </trkpt>
      <trkpt lat="22.740786" lon="110.237414">
        <ele>117.214695</ele>
        <time>2026-08-16T07:28:26.000Z</time>
      </trkpt>
      <trkpt lat="22.740784" lon="110.237467">
        <ele>117.246640</ele>
        <time>2026-08-16T07:28:27.000Z</time>
      </trkpt>
      <trkpt lat="22.740792" lon="110.237525">
        <ele>117.281957</ele>
        <time>2026-08-16T07:28:28.000Z</time>
      </trkpt>
      <trkpt lat="22.740794" lon="110.237587">
        <ele>117.319318</ele>
        <time>2026-08-16T07:28:29.000Z</time>
      </trkpt>
      <trkpt lat="22.740797" lon="110.237643">
        <ele>117.353099</ele>
        <time>2026-08-16T07:28:30.000Z</time>
      </trkpt>
      <trkpt lat="22.740799" lon="110.237701">
        <ele>117.388052</ele>
        <time>2026-08-16T07:28:31.000Z</time>
      </trkpt>
      <trkpt lat="22.740805" lon="110.237753">
        <ele>117.419612</ele>
        <time>2026-08-16T07:28:32.000Z</time>
      </trkpt>
      <trkpt lat="22.740809" lon="110.237806">
        <ele>117.451636</ele>
        <time>2026-08-16T07:28:33.000Z</time>
      </trkpt>
      <trkpt lat="22.740807" lon="110.237861">
        <ele>117.484784</ele>
        <time>2026-08-16T07:28:34.000Z</time>
      </trkpt>
      <trkpt lat="22.740800" lon="110.237915">
        <ele>117.517623</ele>
        <time>2026-08-16T07:28:35.000Z</time>
      </trkpt>
      <trkpt lat="22.740794" lon="110.237968">
        <ele>117.549781</ele>
        <time>2026-08-16T07:28:36.000Z</time>
      </trkpt>
      <trkpt lat="22.740775" lon="110.238015">
        <ele>117.580685</ele>
        <time>2026-08-16T07:28:37.000Z</time>
      </trkpt>
      <trkpt lat="22.740758" lon="110.238065">
        <ele>117.612777</ele>
        <time>2026-08-16T07:28:38.000Z</time>
      </trkpt>
      <trkpt lat="22.740745" lon="110.238113">
        <ele>117.642904</ele>
        <time>2026-08-16T07:28:39.000Z</time>
      </trkpt>
      <trkpt lat="22.740740" lon="110.238162">
        <ele>117.672593</ele>
        <time>2026-08-16T07:28:40.000Z</time>
      </trkpt>
      <trkpt lat="22.740748" lon="110.238213">
        <ele>117.703747</ele>
        <time>2026-08-16T07:28:41.000Z</time>
      </trkpt>
      <trkpt lat="22.740749" lon="110.238263">
        <ele>117.733865</ele>
        <time>2026-08-16T07:28:42.000Z</time>
      </trkpt>
      <trkpt lat="22.740750" lon="110.238311">
        <ele>117.762779</ele>
        <time>2026-08-16T07:28:43.000Z</time>
      </trkpt>
      <trkpt lat="22.740751" lon="110.238360">
        <ele>117.792295</ele>
        <time>2026-08-16T07:28:44.000Z</time>
      </trkpt>
      <trkpt lat="22.740751" lon="110.238409">
        <ele>117.821804</ele>
        <time>2026-08-16T07:28:45.000Z</time>
      </trkpt>
      <trkpt lat="22.740750" lon="110.238460">
        <ele>117.852525</ele>
        <time>2026-08-16T07:28:46.000Z</time>
      </trkpt>
      <trkpt lat="22.740745" lon="110.238507">
        <ele>117.881017</ele>
        <time>2026-08-16T07:28:47.000Z</time>
      </trkpt>
      <trkpt lat="22.740741" lon="110.238557">
        <ele>117.911241</ele>
        <time>2026-08-16T07:28:48.000Z</time>
      </trkpt>
      <trkpt lat="22.740737" lon="110.238606">
        <ele>117.940865</ele>
        <time>2026-08-16T07:28:49.000Z</time>
      </trkpt>
      <trkpt lat="22.740735" lon="110.238656">
        <ele>117.971004</ele>
        <time>2026-08-16T07:28:50.000Z</time>
      </trkpt>
      <trkpt lat="22.740731" lon="110.238700">
        <ele>117.997630</ele>
        <time>2026-08-16T07:28:51.000Z</time>
      </trkpt>
      <trkpt lat="22.740723" lon="110.238742">
        <ele>118.023458</ele>
        <time>2026-08-16T07:28:52.000Z</time>
      </trkpt>
      <trkpt lat="22.740713" lon="110.238789">
        <ele>118.057763</ele>
        <time>2026-08-16T07:28:53.000Z</time>
      </trkpt>
      <trkpt lat="22.740707" lon="110.238842">
        <ele>118.098497</ele>
        <time>2026-08-16T07:28:54.000Z</time>
      </trkpt>
      <trkpt lat="22.740701" lon="110.238893">
        <ele>118.137716</ele>
        <time>2026-08-16T07:28:55.000Z</time>
      </trkpt>
      <trkpt lat="22.740698" lon="110.238946">
        <ele>118.178222</ele>
        <time>2026-08-16T07:28:56.000Z</time>
      </trkpt>
      <trkpt lat="22.740694" lon="110.238999">
        <ele>118.218787</ele>
        <time>2026-08-16T07:28:57.000Z</time>
      </trkpt>
      <trkpt lat="22.740690" lon="110.239048">
        <ele>118.256312</ele>
        <time>2026-08-16T07:28:58.000Z</time>
      </trkpt>
      <trkpt lat="22.740681" lon="110.239098">
        <ele>118.295173</ele>
        <time>2026-08-16T07:28:59.000Z</time>
      </trkpt>
      <trkpt lat="22.740681" lon="110.239152">
        <ele>118.336365</ele>
        <time>2026-08-16T07:29:00.000Z</time>
      </trkpt>
      <trkpt lat="22.740681" lon="110.239207">
        <ele>118.378321</ele>
        <time>2026-08-16T07:29:01.000Z</time>
      </trkpt>
      <trkpt lat="22.740680" lon="110.239259">
        <ele>118.417997</ele>
        <time>2026-08-16T07:29:02.000Z</time>
      </trkpt>
      <trkpt lat="22.740677" lon="110.239312">
        <ele>118.458502</ele>
        <time>2026-08-16T07:29:03.000Z</time>
      </trkpt>
      <trkpt lat="22.740673" lon="110.239365">
        <ele>118.499067</ele>
        <time>2026-08-16T07:29:04.000Z</time>
      </trkpt>
      <trkpt lat="22.740672" lon="110.239417">
        <ele>118.538743</ele>
        <time>2026-08-16T07:29:05.000Z</time>
      </trkpt>
      <trkpt lat="22.740672" lon="110.239466">
        <ele>118.576122</ele>
        <time>2026-08-16T07:29:06.000Z</time>
      </trkpt>
      <trkpt lat="22.740667" lon="110.239514">
        <ele>118.612970</ele>
        <time>2026-08-16T07:29:07.000Z</time>
      </trkpt>
      <trkpt lat="22.740665" lon="110.239561">
        <ele>118.648861</ele>
        <time>2026-08-16T07:29:08.000Z</time>
      </trkpt>
      <trkpt lat="22.740669" lon="110.239612">
        <ele>118.687906</ele>
        <time>2026-08-16T07:29:09.000Z</time>
      </trkpt>
      <trkpt lat="22.740674" lon="110.239662">
        <ele>118.726271</ele>
        <time>2026-08-16T07:29:10.000Z</time>
      </trkpt>
      <trkpt lat="22.740672" lon="110.239708">
        <ele>118.761400</ele>
        <time>2026-08-16T07:29:11.000Z</time>
      </trkpt>
      <trkpt lat="22.740671" lon="110.239758">
        <ele>118.799550</ele>
        <time>2026-08-16T07:29:12.000Z</time>
      </trkpt>
      <trkpt lat="22.740672" lon="110.239808">
        <ele>118.837700</ele>
        <time>2026-08-16T07:29:13.000Z</time>
      </trkpt>
      <trkpt lat="22.740667" lon="110.239854">
        <ele>118.873033</ele>
        <time>2026-08-16T07:29:14.000Z</time>
      </trkpt>
      <trkpt lat="22.740664" lon="110.239899">
        <ele>118.907450</ele>
        <time>2026-08-16T07:29:15.000Z</time>
      </trkpt>
      <trkpt lat="22.740662" lon="110.239942">
        <ele>118.940293</ele>
        <time>2026-08-16T07:29:16.000Z</time>
      </trkpt>
      <trkpt lat="22.740662" lon="110.239988">
        <ele>118.975383</ele>
        <time>2026-08-16T07:29:17.000Z</time>
      </trkpt>
      <trkpt lat="22.740662" lon="110.240037">
        <ele>119.012762</ele>
        <time>2026-08-16T07:29:18.000Z</time>
      </trkpt>
      <trkpt lat="22.740659" lon="110.240087">
        <ele>119.050984</ele>
        <time>2026-08-16T07:29:19.000Z</time>
      </trkpt>
      <trkpt lat="22.740652" lon="110.240140">
        <ele>119.091826</ele>
        <time>2026-08-16T07:29:20.000Z</time>
      </trkpt>
      <trkpt lat="22.740645" lon="110.240193">
        <ele>119.132668</ele>
        <time>2026-08-16T07:29:21.000Z</time>
      </trkpt>
      <trkpt lat="22.740640" lon="110.240246">
        <ele>119.173309</ele>
        <time>2026-08-16T07:29:22.000Z</time>
      </trkpt>
      <trkpt lat="22.740635" lon="110.240299">
        <ele>119.213950</ele>
        <time>2026-08-16T07:29:23.000Z</time>
      </trkpt>
      <trkpt lat="22.740630" lon="110.240351">
        <ele>119.253832</ele>
        <time>2026-08-16T07:29:24.000Z</time>
      </trkpt>
      <trkpt lat="22.740623" lon="110.240402">
        <ele>119.293165</ele>
        <time>2026-08-16T07:29:25.000Z</time>
      </trkpt>
      <trkpt lat="22.740615" lon="110.240451">
        <ele>119.331125</ele>
        <time>2026-08-16T07:29:26.000Z</time>
      </trkpt>
      <trkpt lat="22.740607" lon="110.240501">
        <ele>119.369836</ele>
        <time>2026-08-16T07:29:27.000Z</time>
      </trkpt>
      <trkpt lat="22.740598" lon="110.240550">
        <ele>119.407948</ele>
        <time>2026-08-16T07:29:28.000Z</time>
      </trkpt>
      <trkpt lat="22.740588" lon="110.240599">
        <ele>119.446231</ele>
        <time>2026-08-16T07:29:29.000Z</time>
      </trkpt>
      <trkpt lat="22.740579" lon="110.240648">
        <ele>119.484344</ele>
        <time>2026-08-16T07:29:30.000Z</time>
      </trkpt>
      <trkpt lat="22.740571" lon="110.240696">
        <ele>119.519834</ele>
        <time>2026-08-16T07:29:31.000Z</time>
      </trkpt>
      <trkpt lat="22.740561" lon="110.240746">
        <ele>119.495665</ele>
        <time>2026-08-16T07:29:32.000Z</time>
      </trkpt>
      <trkpt lat="22.740552" lon="110.240797">
        <ele>119.471136</ele>
        <time>2026-08-16T07:29:33.000Z</time>
      </trkpt>
      <trkpt lat="22.740544" lon="110.240850">
        <ele>119.445766</ele>
        <time>2026-08-16T07:29:34.000Z</time>
      </trkpt>
      <trkpt lat="22.740535" lon="110.240902">
        <ele>119.420772</ele>
        <time>2026-08-16T07:29:35.000Z</time>
      </trkpt>
      <trkpt lat="22.740524" lon="110.240953">
        <ele>119.396030</ele>
        <time>2026-08-16T07:29:36.000Z</time>
      </trkpt>
      <trkpt lat="22.740516" lon="110.241004">
        <ele>119.371592</ele>
        <time>2026-08-16T07:29:37.000Z</time>
      </trkpt>
      <trkpt lat="22.740503" lon="110.241050">
        <ele>119.348865</ele>
        <time>2026-08-16T07:29:38.000Z</time>
      </trkpt>
      <trkpt lat="22.740492" lon="110.241101">
        <ele>119.324123</ele>
        <time>2026-08-16T07:29:39.000Z</time>
      </trkpt>
      <trkpt lat="22.740481" lon="110.241153">
        <ele>119.298920</ele>
        <time>2026-08-16T07:29:40.000Z</time>
      </trkpt>
      <trkpt lat="22.740471" lon="110.241207">
        <ele>119.272902</ele>
        <time>2026-08-16T07:29:41.000Z</time>
      </trkpt>
      <trkpt lat="22.740462" lon="110.241262">
        <ele>119.246514</ele>
        <time>2026-08-16T07:29:42.000Z</time>
      </trkpt>
      <trkpt lat="22.740451" lon="110.241317">
        <ele>119.219929</ele>
        <time>2026-08-16T07:29:43.000Z</time>
      </trkpt>
      <trkpt lat="22.740440" lon="110.241374">
        <ele>119.192419</ele>
        <time>2026-08-16T07:29:44.000Z</time>
      </trkpt>
      <trkpt lat="22.740428" lon="110.241431">
        <ele>119.164800</ele>
        <time>2026-08-16T07:29:45.000Z</time>
      </trkpt>
      <trkpt lat="22.740417" lon="110.241488">
        <ele>119.137290</ele>
        <time>2026-08-16T07:29:46.000Z</time>
      </trkpt>
      <trkpt lat="22.740409" lon="110.241545">
        <ele>119.110054</ele>
        <time>2026-08-16T07:29:47.000Z</time>
      </trkpt>
      <trkpt lat="22.740408" lon="110.241603">
        <ele>119.082650</ele>
        <time>2026-08-16T07:29:48.000Z</time>
      </trkpt>
      <trkpt lat="22.740412" lon="110.241661">
        <ele>119.055175</ele>
        <time>2026-08-16T07:29:49.000Z</time>
      </trkpt>
      <trkpt lat="22.740420" lon="110.241717">
        <ele>119.028405</ele>
        <time>2026-08-16T07:29:50.000Z</time>
      </trkpt>
      <trkpt lat="22.740429" lon="110.241774">
        <ele>119.001087</ele>
        <time>2026-08-16T07:29:51.000Z</time>
      </trkpt>
      <trkpt lat="22.740434" lon="110.241833">
        <ele>118.973098</ele>
        <time>2026-08-16T07:29:52.000Z</time>
      </trkpt>
      <trkpt lat="22.740434" lon="110.241890">
        <ele>118.946171</ele>
        <time>2026-08-16T07:29:53.000Z</time>
      </trkpt>
      <trkpt lat="22.740431" lon="110.241945">
        <ele>118.920144</ele>
        <time>2026-08-16T07:29:54.000Z</time>
      </trkpt>
      <trkpt lat="22.740422" lon="110.241996">
        <ele>118.895615</ele>
        <time>2026-08-16T07:29:55.000Z</time>
      </trkpt>
      <trkpt lat="22.740412" lon="110.242048">
        <ele>118.870522</ele>
        <time>2026-08-16T07:29:56.000Z</time>
      </trkpt>
      <trkpt lat="22.740402" lon="110.242100">
        <ele>118.845429</ele>
        <time>2026-08-16T07:29:57.000Z</time>
      </trkpt>
      <trkpt lat="22.740395" lon="110.242152">
        <ele>118.820605</ele>
        <time>2026-08-16T07:29:58.000Z</time>
      </trkpt>
      <trkpt lat="22.740396" lon="110.242203">
        <ele>118.796507</ele>
        <time>2026-08-16T07:29:59.000Z</time>
      </trkpt>
      <trkpt lat="22.740400" lon="110.242254">
        <ele>118.772328</ele>
        <time>2026-08-16T07:30:00.000Z</time>
      </trkpt>
      <trkpt lat="22.740399" lon="110.242300">
        <ele>118.750592</ele>
        <time>2026-08-16T07:30:01.000Z</time>
      </trkpt>
      <trkpt lat="22.740401" lon="110.242339">
        <ele>118.732140</ele>
        <time>2026-08-16T07:30:02.000Z</time>
      </trkpt>
      <trkpt lat="22.740406" lon="110.242376">
        <ele>118.714475</ele>
        <time>2026-08-16T07:30:03.000Z</time>
      </trkpt>
      <trkpt lat="22.740404" lon="110.242416">
        <ele>118.695551</ele>
        <time>2026-08-16T07:30:04.000Z</time>
      </trkpt>
      <trkpt lat="22.740390" lon="110.242456">
        <ele>118.675340</ele>
        <time>2026-08-16T07:30:05.000Z</time>
      </trkpt>
      <trkpt lat="22.740366" lon="110.242485">
        <ele>118.656934</ele>
        <time>2026-08-16T07:30:06.000Z</time>
      </trkpt>
      <trkpt lat="22.740335" lon="110.242504">
        <ele>118.638694</ele>
        <time>2026-08-16T07:30:07.000Z</time>
      </trkpt>
      <trkpt lat="22.740302" lon="110.242519">
        <ele>118.620366</ele>
        <time>2026-08-16T07:30:08.000Z</time>
      </trkpt>
      <trkpt lat="22.740271" lon="110.242537">
        <ele>118.602354</ele>
        <time>2026-08-16T07:30:09.000Z</time>
      </trkpt>
      <trkpt lat="22.740243" lon="110.242559">
        <ele>118.609514</ele>
        <time>2026-08-16T07:30:10.000Z</time>
      </trkpt>
      <trkpt lat="22.740219" lon="110.242586">
        <ele>118.622052</ele>
        <time>2026-08-16T07:30:11.000Z</time>
      </trkpt>
      <trkpt lat="22.740203" lon="110.242613">
        <ele>118.632782</ele>
        <time>2026-08-16T07:30:12.000Z</time>
      </trkpt>
      <trkpt lat="22.740189" lon="110.242642">
        <ele>118.643726</ele>
        <time>2026-08-16T07:30:13.000Z</time>
      </trkpt>
      <trkpt lat="22.740180" lon="110.242677">
        <ele>118.655875</ele>
        <time>2026-08-16T07:30:14.000Z</time>
      </trkpt>
      <trkpt lat="22.740172" lon="110.242715">
        <ele>118.668907</ele>
        <time>2026-08-16T07:30:15.000Z</time>
      </trkpt>
      <trkpt lat="22.740163" lon="110.242758">
        <ele>118.683650</ele>
        <time>2026-08-16T07:30:16.000Z</time>
      </trkpt>
      <trkpt lat="22.740153" lon="110.242800">
        <ele>118.698153</ele>
        <time>2026-08-16T07:30:17.000Z</time>
      </trkpt>
      <trkpt lat="22.740141" lon="110.242845">
        <ele>118.713815</ele>
        <time>2026-08-16T07:30:18.000Z</time>
      </trkpt>
      <trkpt lat="22.740130" lon="110.242892">
        <ele>118.730028</ele>
        <time>2026-08-16T07:30:19.000Z</time>
      </trkpt>
      <trkpt lat="22.740118" lon="110.242940">
        <ele>118.746656</ele>
        <time>2026-08-16T07:30:20.000Z</time>
      </trkpt>
      <trkpt lat="22.740106" lon="110.242987">
        <ele>118.762961</ele>
        <time>2026-08-16T07:30:21.000Z</time>
      </trkpt>
      <trkpt lat="22.740094" lon="110.243034">
        <ele>118.779267</ele>
        <time>2026-08-16T07:30:22.000Z</time>
      </trkpt>
      <trkpt lat="22.740087" lon="110.243083">
        <ele>118.795845</ele>
        <time>2026-08-16T07:30:23.000Z</time>
      </trkpt>
      <trkpt lat="22.740085" lon="110.243134">
        <ele>118.812913</ele>
        <time>2026-08-16T07:30:24.000Z</time>
      </trkpt>
      <trkpt lat="22.740089" lon="110.243183">
        <ele>118.829360</ele>
        <time>2026-08-16T07:30:25.000Z</time>
      </trkpt>
      <trkpt lat="22.740097" lon="110.243234">
        <ele>118.846657</ele>
        <time>2026-08-16T07:30:26.000Z</time>
      </trkpt>
      <trkpt lat="22.740103" lon="110.243287">
        <ele>118.864511</ele>
        <time>2026-08-16T07:30:27.000Z</time>
      </trkpt>
      <trkpt lat="22.740102" lon="110.243340">
        <ele>118.882235</ele>
        <time>2026-08-16T07:30:28.000Z</time>
      </trkpt>
      <trkpt lat="22.740095" lon="110.243394">
        <ele>118.900467</ele>
        <time>2026-08-16T07:30:29.000Z</time>
      </trkpt>
      <trkpt lat="22.740080" lon="110.243442">
        <ele>118.917413</ele>
        <time>2026-08-16T07:30:30.000Z</time>
      </trkpt>
      <trkpt lat="22.740062" lon="110.243489">
        <ele>118.934428</ele>
        <time>2026-08-16T07:30:31.000Z</time>
      </trkpt>
      <trkpt lat="22.740043" lon="110.243539">
        <ele>118.952509</ele>
        <time>2026-08-16T07:30:32.000Z</time>
      </trkpt>
      <trkpt lat="22.740027" lon="110.243590">
        <ele>118.970521</ele>
        <time>2026-08-16T07:30:33.000Z</time>
      </trkpt>
      <trkpt lat="22.740011" lon="110.243643">
        <ele>118.989167</ele>
        <time>2026-08-16T07:30:34.000Z</time>
      </trkpt>
      <trkpt lat="22.739993" lon="110.243695">
        <ele>119.007737</ele>
        <time>2026-08-16T07:30:35.000Z</time>
      </trkpt>
      <trkpt lat="22.739974" lon="110.243747">
        <ele>119.026438</ele>
        <time>2026-08-16T07:30:36.000Z</time>
      </trkpt>
      <trkpt lat="22.739952" lon="110.243800">
        <ele>119.045871</ele>
        <time>2026-08-16T07:30:37.000Z</time>
      </trkpt>
      <trkpt lat="22.739934" lon="110.243849">
        <ele>119.063506</ele>
        <time>2026-08-16T07:30:38.000Z</time>
      </trkpt>
      <trkpt lat="22.739918" lon="110.243900">
        <ele>119.081518</ele>
        <time>2026-08-16T07:30:39.000Z</time>
      </trkpt>
      <trkpt lat="22.739901" lon="110.243950">
        <ele>119.099335</ele>
        <time>2026-08-16T07:30:40.000Z</time>
      </trkpt>
      <trkpt lat="22.739887" lon="110.244002">
        <ele>119.117447</ele>
        <time>2026-08-16T07:30:41.000Z</time>
      </trkpt>
      <trkpt lat="22.739873" lon="110.244057">
        <ele>119.136524</ele>
        <time>2026-08-16T07:30:42.000Z</time>
      </trkpt>
      <trkpt lat="22.739857" lon="110.244109">
        <ele>119.154852</ele>
        <time>2026-08-16T07:30:43.000Z</time>
      </trkpt>
      <trkpt lat="22.739838" lon="110.244161">
        <ele>119.173553</ele>
        <time>2026-08-16T07:30:44.000Z</time>
      </trkpt>
      <trkpt lat="22.739822" lon="110.244214">
        <ele>119.192199</ele>
        <time>2026-08-16T07:30:45.000Z</time>
      </trkpt>
      <trkpt lat="22.739806" lon="110.244266">
        <ele>119.210528</ele>
        <time>2026-08-16T07:30:46.000Z</time>
      </trkpt>
      <trkpt lat="22.739790" lon="110.244317">
        <ele>119.228539</ele>
        <time>2026-08-16T07:30:47.000Z</time>
      </trkpt>
      <trkpt lat="22.739773" lon="110.244368">
        <ele>119.246671</ele>
        <time>2026-08-16T07:30:48.000Z</time>
      </trkpt>
      <trkpt lat="22.739757" lon="110.244422">
        <ele>119.293742</ele>
        <time>2026-08-16T07:30:49.000Z</time>
      </trkpt>
      <trkpt lat="22.739740" lon="110.244474">
        <ele>119.348288</ele>
        <time>2026-08-16T07:30:50.000Z</time>
      </trkpt>
      <trkpt lat="22.739727" lon="110.244527">
        <ele>119.402509</ele>
        <time>2026-08-16T07:30:51.000Z</time>
      </trkpt>
      <trkpt lat="22.739714" lon="110.244578">
        <ele>119.454822</ele>
        <time>2026-08-16T07:30:52.000Z</time>
      </trkpt>
      <trkpt lat="22.739702" lon="110.244630">
        <ele>119.507819</ele>
        <time>2026-08-16T07:30:53.000Z</time>
      </trkpt>
      <trkpt lat="22.739688" lon="110.244681">
        <ele>119.560427</ele>
        <time>2026-08-16T07:30:54.000Z</time>
      </trkpt>
      <trkpt lat="22.739673" lon="110.244732">
        <ele>119.613352</ele>
        <time>2026-08-16T07:30:55.000Z</time>
      </trkpt>
      <trkpt lat="22.739660" lon="110.244784">
        <ele>119.666618</ele>
        <time>2026-08-16T07:30:56.000Z</time>
      </trkpt>
      <trkpt lat="22.739648" lon="110.244836">
        <ele>119.719615</ele>
        <time>2026-08-16T07:30:57.000Z</time>
      </trkpt>
      <trkpt lat="22.739635" lon="110.244888">
        <ele>119.772881</ele>
        <time>2026-08-16T07:30:58.000Z</time>
      </trkpt>
      <trkpt lat="22.739622" lon="110.244938">
        <ele>119.824242</ele>
        <time>2026-08-16T07:30:59.000Z</time>
      </trkpt>
      <trkpt lat="22.739607" lon="110.244989">
        <ele>119.877166</ele>
        <time>2026-08-16T07:31:00.000Z</time>
      </trkpt>
      <trkpt lat="22.739593" lon="110.245039">
        <ele>119.928828</ele>
        <time>2026-08-16T07:31:01.000Z</time>
      </trkpt>
      <trkpt lat="22.739583" lon="110.245088">
        <ele>119.978445</ele>
        <time>2026-08-16T07:31:02.000Z</time>
      </trkpt>
      <trkpt lat="22.739574" lon="110.245136">
        <ele>120.026873</ele>
        <time>2026-08-16T07:31:03.000Z</time>
      </trkpt>
      <trkpt lat="22.739565" lon="110.245183">
        <ele>120.074332</ele>
        <time>2026-08-16T07:31:04.000Z</time>
      </trkpt>
      <trkpt lat="22.739555" lon="110.245229">
        <ele>120.121057</ele>
        <time>2026-08-16T07:31:05.000Z</time>
      </trkpt>
      <trkpt lat="22.739548" lon="110.245274">
        <ele>120.166176</ele>
        <time>2026-08-16T07:31:06.000Z</time>
      </trkpt>
      <trkpt lat="22.739538" lon="110.245318">
        <ele>120.210979</ele>
        <time>2026-08-16T07:31:07.000Z</time>
      </trkpt>
      <trkpt lat="22.739528" lon="110.245363">
        <ele>120.256743</ele>
        <time>2026-08-16T07:31:08.000Z</time>
      </trkpt>
      <trkpt lat="22.739516" lon="110.245409">
        <ele>120.304007</ele>
        <time>2026-08-16T07:31:09.000Z</time>
      </trkpt>
      <trkpt lat="22.739507" lon="110.245453">
        <ele>120.348566</ele>
        <time>2026-08-16T07:31:10.000Z</time>
      </trkpt>
      <trkpt lat="22.739497" lon="110.245496">
        <ele>120.392410</ele>
        <time>2026-08-16T07:31:11.000Z</time>
      </trkpt>
      <trkpt lat="22.739489" lon="110.245541">
        <ele>120.437719</ele>
        <time>2026-08-16T07:31:12.000Z</time>
      </trkpt>
      <trkpt lat="22.739482" lon="110.245587">
        <ele>120.483813</ele>
        <time>2026-08-16T07:31:13.000Z</time>
      </trkpt>
      <trkpt lat="22.739475" lon="110.245628">
        <ele>120.525038</ele>
        <time>2026-08-16T07:31:14.000Z</time>
      </trkpt>
      <trkpt lat="22.739465" lon="110.245672">
        <ele>120.569841</ele>
        <time>2026-08-16T07:31:15.000Z</time>
      </trkpt>
      <trkpt lat="22.739458" lon="110.245714">
        <ele>120.612038</ele>
        <time>2026-08-16T07:31:16.000Z</time>
      </trkpt>
      <trkpt lat="22.739449" lon="110.245755">
        <ele>120.653706</ele>
        <time>2026-08-16T07:31:17.000Z</time>
      </trkpt>
      <trkpt lat="22.739441" lon="110.245798">
        <ele>120.697076</ele>
        <time>2026-08-16T07:31:18.000Z</time>
      </trkpt>
      <trkpt lat="22.739431" lon="110.245844">
        <ele>120.743802</ele>
        <time>2026-08-16T07:31:19.000Z</time>
      </trkpt>
      <trkpt lat="22.739423" lon="110.245888">
        <ele>120.788141</ele>
        <time>2026-08-16T07:31:20.000Z</time>
      </trkpt>
      <trkpt lat="22.739414" lon="110.245935">
        <ele>120.835600</ele>
        <time>2026-08-16T07:31:21.000Z</time>
      </trkpt>
      <trkpt lat="22.739406" lon="110.245982">
        <ele>120.882853</ele>
        <time>2026-08-16T07:31:22.000Z</time>
      </trkpt>
      <trkpt lat="22.739400" lon="110.246025">
        <ele>120.925850</ele>
        <time>2026-08-16T07:31:23.000Z</time>
      </trkpt>
      <trkpt lat="22.739390" lon="110.246067">
        <ele>120.968736</ele>
        <time>2026-08-16T07:31:24.000Z</time>
      </trkpt>
      <trkpt lat="22.739379" lon="110.246110">
        <ele>121.012854</ele>
        <time>2026-08-16T07:31:25.000Z</time>
      </trkpt>
      <trkpt lat="22.739371" lon="110.246155">
        <ele>121.058163</ele>
        <time>2026-08-16T07:31:26.000Z</time>
      </trkpt>
      <trkpt lat="22.739365" lon="110.246200">
        <ele>121.103117</ele>
        <time>2026-08-16T07:31:27.000Z</time>
      </trkpt>
      <trkpt lat="22.739360" lon="110.246246">
        <ele>121.148911</ele>
        <time>2026-08-16T07:31:28.000Z</time>
      </trkpt>
      <trkpt lat="22.739357" lon="110.246293">
        <ele>121.183780</ele>
        <time>2026-08-16T07:31:29.000Z</time>
      </trkpt>
      <trkpt lat="22.739360" lon="110.246338">
        <ele>121.195873</ele>
        <time>2026-08-16T07:31:30.000Z</time>
      </trkpt>
      <trkpt lat="22.739366" lon="110.246383">
        <ele>121.208061</ele>
        <time>2026-08-16T07:31:31.000Z</time>
      </trkpt>
      <trkpt lat="22.739377" lon="110.246426">
        <ele>121.220022</ele>
        <time>2026-08-16T07:31:32.000Z</time>
      </trkpt>
      <trkpt lat="22.739393" lon="110.246466">
        <ele>121.231709</ele>
        <time>2026-08-16T07:31:33.000Z</time>
      </trkpt>
      <trkpt lat="22.739413" lon="110.246504">
        <ele>121.243437</ele>
        <time>2026-08-16T07:31:34.000Z</time>
      </trkpt>
      <trkpt lat="22.739437" lon="110.246540">
        <ele>121.255343</ele>
        <time>2026-08-16T07:31:35.000Z</time>
      </trkpt>
      <trkpt lat="22.739465" lon="110.246573">
        <ele>121.267363</ele>
        <time>2026-08-16T07:31:36.000Z</time>
      </trkpt>
      <trkpt lat="22.739495" lon="110.246603">
        <ele>121.279224</ele>
        <time>2026-08-16T07:31:37.000Z</time>
      </trkpt>
      <trkpt lat="22.739523" lon="110.246631">
        <ele>121.290295</ele>
        <time>2026-08-16T07:31:38.000Z</time>
      </trkpt>
      <trkpt lat="22.739549" lon="110.246659">
        <ele>121.300945</ele>
        <time>2026-08-16T07:31:39.000Z</time>
      </trkpt>
      <trkpt lat="22.739573" lon="110.246688">
        <ele>121.311389</ele>
        <time>2026-08-16T07:31:40.000Z</time>
      </trkpt>
      <trkpt lat="22.739595" lon="110.246713">
        <ele>121.320651</ele>
        <time>2026-08-16T07:31:41.000Z</time>
      </trkpt>
      <trkpt lat="22.739617" lon="110.246738">
        <ele>121.329914</ele>
        <time>2026-08-16T07:31:42.000Z</time>
      </trkpt>
      <trkpt lat="22.739637" lon="110.246762">
        <ele>121.338584</ele>
        <time>2026-08-16T07:31:43.000Z</time>
      </trkpt>
      <trkpt lat="22.739657" lon="110.246787">
        <ele>121.347455</ele>
        <time>2026-08-16T07:31:44.000Z</time>
      </trkpt>
      <trkpt lat="22.739676" lon="110.246811">
        <ele>121.355933</ele>
        <time>2026-08-16T07:31:45.000Z</time>
      </trkpt>
      <trkpt lat="22.739699" lon="110.246836">
        <ele>121.365398</ele>
        <time>2026-08-16T07:31:46.000Z</time>
      </trkpt>
      <trkpt lat="22.739721" lon="110.246863">
        <ele>121.375055</ele>
        <time>2026-08-16T07:31:47.000Z</time>
      </trkpt>
      <trkpt lat="22.739746" lon="110.246893">
        <ele>121.385893</ele>
        <time>2026-08-16T07:31:48.000Z</time>
      </trkpt>
      <trkpt lat="22.739772" lon="110.246922">
        <ele>121.396734</ele>
        <time>2026-08-16T07:31:49.000Z</time>
      </trkpt>
      <trkpt lat="22.739800" lon="110.246952">
        <ele>121.408175</ele>
        <time>2026-08-16T07:31:50.000Z</time>
      </trkpt>
      <trkpt lat="22.739825" lon="110.246985">
        <ele>121.419622</ele>
        <time>2026-08-16T07:31:51.000Z</time>
      </trkpt>
      <trkpt lat="22.739851" lon="110.247018">
        <ele>121.431256</ele>
        <time>2026-08-16T07:31:52.000Z</time>
      </trkpt>
      <trkpt lat="22.739879" lon="110.247051">
        <ele>121.443275</ele>
        <time>2026-08-16T07:31:53.000Z</time>
      </trkpt>
      <trkpt lat="22.739903" lon="110.247084">
        <ele>121.454540</ele>
        <time>2026-08-16T07:31:54.000Z</time>
      </trkpt>
      <trkpt lat="22.739932" lon="110.247114">
        <ele>121.466189</ele>
        <time>2026-08-16T07:31:55.000Z</time>
      </trkpt>
      <trkpt lat="22.739962" lon="110.247145">
        <ele>121.478234</ele>
        <time>2026-08-16T07:31:56.000Z</time>
      </trkpt>
      <trkpt lat="22.739993" lon="110.247179">
        <ele>121.491049</ele>
        <time>2026-08-16T07:31:57.000Z</time>
      </trkpt>
      <trkpt lat="22.740023" lon="110.247213">
        <ele>121.503662</ele>
        <time>2026-08-16T07:31:58.000Z</time>
      </trkpt>
      <trkpt lat="22.740052" lon="110.247249">
        <ele>121.516474</ele>
        <time>2026-08-16T07:31:59.000Z</time>
      </trkpt>
      <trkpt lat="22.740077" lon="110.247286">
        <ele>121.528768</ele>
        <time>2026-08-16T07:32:00.000Z</time>
      </trkpt>
      <trkpt lat="22.740108" lon="110.247322">
        <ele>121.541970</ele>
        <time>2026-08-16T07:32:01.000Z</time>
      </trkpt>
      <trkpt lat="22.740136" lon="110.247362">
        <ele>121.555431</ele>
        <time>2026-08-16T07:32:02.000Z</time>
      </trkpt>
      <trkpt lat="22.740165" lon="110.247401">
        <ele>121.568859</ele>
        <time>2026-08-16T07:32:03.000Z</time>
      </trkpt>
      <trkpt lat="22.740195" lon="110.247440">
        <ele>121.582472</ele>
        <time>2026-08-16T07:32:04.000Z</time>
      </trkpt>
      <trkpt lat="22.740230" lon="110.247476">
        <ele>121.596493</ele>
        <time>2026-08-16T07:32:05.000Z</time>
      </trkpt>
      <trkpt lat="22.740268" lon="110.247514">
        <ele>121.611517</ele>
        <time>2026-08-16T07:32:06.000Z</time>
      </trkpt>
      <trkpt lat="22.740303" lon="110.247554">
        <ele>121.626296</ele>
        <time>2026-08-16T07:32:07.000Z</time>
      </trkpt>
      <trkpt lat="22.740341" lon="110.247589">
        <ele>121.640787</ele>
        <time>2026-08-16T07:32:08.000Z</time>
      </trkpt>
      <trkpt lat="22.740373" lon="110.247628">
        <ele>121.654779</ele>
        <time>2026-08-16T07:32:09.000Z</time>
      </trkpt>
      <trkpt lat="22.740408" lon="110.247666">
        <ele>121.669175</ele>
        <time>2026-08-16T07:32:10.000Z</time>
      </trkpt>
      <trkpt lat="22.740440" lon="110.247707">
        <ele>121.683572</ele>
        <time>2026-08-16T07:32:11.000Z</time>
      </trkpt>
      <trkpt lat="22.740474" lon="110.247748">
        <ele>121.698351</ele>
        <time>2026-08-16T07:32:12.000Z</time>
      </trkpt>
      <trkpt lat="22.740504" lon="110.247790">
        <ele>121.714131</ele>
        <time>2026-08-16T07:32:13.000Z</time>
      </trkpt>
      <trkpt lat="22.740538" lon="110.247828">
        <ele>121.730423</ele>
        <time>2026-08-16T07:32:14.000Z</time>
      </trkpt>
      <trkpt lat="22.740575" lon="110.247862">
        <ele>121.746605</ele>
        <time>2026-08-16T07:32:15.000Z</time>
      </trkpt>
      <trkpt lat="22.740610" lon="110.247896">
        <ele>121.762284</ele>
        <time>2026-08-16T07:32:16.000Z</time>
      </trkpt>
      <trkpt lat="22.740643" lon="110.247931">
        <ele>121.777686</ele>
        <time>2026-08-16T07:32:17.000Z</time>
      </trkpt>
      <trkpt lat="22.740674" lon="110.247970">
        <ele>121.793529</ele>
        <time>2026-08-16T07:32:18.000Z</time>
      </trkpt>
      <trkpt lat="22.740706" lon="110.248008">
        <ele>121.809363</ele>
        <time>2026-08-16T07:32:19.000Z</time>
      </trkpt>
      <trkpt lat="22.740739" lon="110.248045">
        <ele>121.825202</ele>
        <time>2026-08-16T07:32:20.000Z</time>
      </trkpt>
      <trkpt lat="22.740771" lon="110.248082">
        <ele>121.840810</ele>
        <time>2026-08-16T07:32:21.000Z</time>
      </trkpt>
      <trkpt lat="22.740802" lon="110.248120">
        <ele>121.856421</ele>
        <time>2026-08-16T07:32:22.000Z</time>
      </trkpt>
      <trkpt lat="22.740835" lon="110.248157">
        <ele>121.872260</ele>
        <time>2026-08-16T07:32:23.000Z</time>
      </trkpt>
      <trkpt lat="22.740865" lon="110.248196">
        <ele>121.887887</ele>
        <time>2026-08-16T07:32:24.000Z</time>
      </trkpt>
      <trkpt lat="22.740895" lon="110.248235">
        <ele>121.903514</ele>
        <time>2026-08-16T07:32:25.000Z</time>
      </trkpt>
      <trkpt lat="22.740925" lon="110.248274">
        <ele>121.919142</ele>
        <time>2026-08-16T07:32:26.000Z</time>
      </trkpt>
      <trkpt lat="22.740957" lon="110.248312">
        <ele>121.934976</ele>
        <time>2026-08-16T07:32:27.000Z</time>
      </trkpt>
      <trkpt lat="22.740993" lon="110.248349">
        <ele>121.951526</ele>
        <time>2026-08-16T07:32:28.000Z</time>
      </trkpt>
      <trkpt lat="22.741029" lon="110.248386">
        <ele>121.968076</ele>
        <time>2026-08-16T07:32:29.000Z</time>
      </trkpt>
      <trkpt lat="22.741064" lon="110.248424">
        <ele>121.984601</ele>
        <time>2026-08-16T07:32:30.000Z</time>
      </trkpt>
      <trkpt lat="22.741099" lon="110.248461">
        <ele>122.000911</ele>
        <time>2026-08-16T07:32:31.000Z</time>
      </trkpt>
      <trkpt lat="22.741137" lon="110.248498">
        <ele>122.017951</ele>
        <time>2026-08-16T07:32:32.000Z</time>
      </trkpt>
      <trkpt lat="22.741174" lon="110.248536">
        <ele>122.034955</ele>
        <time>2026-08-16T07:32:33.000Z</time>
      </trkpt>
      <trkpt lat="22.741209" lon="110.248574">
        <ele>122.051481</ele>
        <time>2026-08-16T07:32:34.000Z</time>
      </trkpt>
      <trkpt lat="22.741245" lon="110.248612">
        <ele>122.068244</ele>
        <time>2026-08-16T07:32:35.000Z</time>
      </trkpt>
      <trkpt lat="22.741278" lon="110.248651">
        <ele>122.084530</ele>
        <time>2026-08-16T07:32:36.000Z</time>
      </trkpt>
      <trkpt lat="22.741310" lon="110.248691">
        <ele>122.100824</ele>
        <time>2026-08-16T07:32:37.000Z</time>
      </trkpt>
      <trkpt lat="22.741343" lon="110.248730">
        <ele>122.117111</ele>
        <time>2026-08-16T07:32:38.000Z</time>
      </trkpt>
      <trkpt lat="22.741374" lon="110.248768">
        <ele>122.132722</ele>
        <time>2026-08-16T07:32:39.000Z</time>
      </trkpt>
      <trkpt lat="22.741408" lon="110.248804">
        <ele>122.148577</ele>
        <time>2026-08-16T07:32:40.000Z</time>
      </trkpt>
      <trkpt lat="22.741438" lon="110.248844">
        <ele>122.164442</ele>
        <time>2026-08-16T07:32:41.000Z</time>
      </trkpt>
      <trkpt lat="22.741470" lon="110.248882">
        <ele>122.180276</ele>
        <time>2026-08-16T07:32:42.000Z</time>
      </trkpt>
      <trkpt lat="22.741499" lon="110.248922">
        <ele>122.195933</ele>
        <time>2026-08-16T07:32:43.000Z</time>
      </trkpt>
      <trkpt lat="22.741528" lon="110.248963">
        <ele>122.211832</ele>
        <time>2026-08-16T07:32:44.000Z</time>
      </trkpt>
      <trkpt lat="22.741556" lon="110.249003">
        <ele>122.227284</ele>
        <time>2026-08-16T07:32:45.000Z</time>
      </trkpt>
      <trkpt lat="22.741579" lon="110.249047">
        <ele>122.242847</ele>
        <time>2026-08-16T07:32:46.000Z</time>
      </trkpt>
      <trkpt lat="22.741606" lon="110.249089">
        <ele>122.258601</ele>
        <time>2026-08-16T07:32:47.000Z</time>
      </trkpt>
      <trkpt lat="22.741632" lon="110.249133">
        <ele>122.274681</ele>
        <time>2026-08-16T07:32:48.000Z</time>
      </trkpt>
      <trkpt lat="22.741656" lon="110.249177">
        <ele>122.290411</ele>
        <time>2026-08-16T07:32:49.000Z</time>
      </trkpt>
      <trkpt lat="22.741678" lon="110.249219">
        <ele>122.300109</ele>
        <time>2026-08-16T07:32:50.000Z</time>
      </trkpt>
      <trkpt lat="22.741697" lon="110.249261">
        <ele>122.289550</ele>
        <time>2026-08-16T07:32:51.000Z</time>
      </trkpt>
      <trkpt lat="22.741718" lon="110.249301">
        <ele>122.279161</ele>
        <time>2026-08-16T07:32:52.000Z</time>
      </trkpt>
      <trkpt lat="22.741736" lon="110.249342">
        <ele>122.268911</ele>
        <time>2026-08-16T07:32:53.000Z</time>
      </trkpt>
      <trkpt lat="22.741754" lon="110.249383">
        <ele>122.258661</ele>
        <time>2026-08-16T07:32:54.000Z</time>
      </trkpt>
      <trkpt lat="22.741772" lon="110.249425">
        <ele>122.248207</ele>
        <time>2026-08-16T07:32:55.000Z</time>
      </trkpt>
      <trkpt lat="22.741789" lon="110.249467">
        <ele>122.237854</ele>
        <time>2026-08-16T07:32:56.000Z</time>
      </trkpt>
      <trkpt lat="22.741803" lon="110.249511">
        <ele>122.227348</ele>
        <time>2026-08-16T07:32:57.000Z</time>
      </trkpt>
      <trkpt lat="22.741818" lon="110.249555">
        <ele>122.216760</ele>
        <time>2026-08-16T07:32:58.000Z</time>
      </trkpt>
      <trkpt lat="22.741831" lon="110.249598">
        <ele>122.206545</ele>
        <time>2026-08-16T07:32:59.000Z</time>
      </trkpt>
      <trkpt lat="22.741839" lon="110.249643">
        <ele>122.196201</ele>
        <time>2026-08-16T07:33:00.000Z</time>
      </trkpt>
      <trkpt lat="22.741844" lon="110.249689">
        <ele>122.185746</ele>
        <time>2026-08-16T07:33:01.000Z</time>
      </trkpt>
      <trkpt lat="22.741849" lon="110.249735">
        <ele>122.175291</ele>
        <time>2026-08-16T07:33:02.000Z</time>
      </trkpt>
      <trkpt lat="22.741852" lon="110.249779">
        <ele>122.165332</ele>
        <time>2026-08-16T07:33:03.000Z</time>
      </trkpt>
      <trkpt lat="22.741856" lon="110.249822">
        <ele>122.155577</ele>
        <time>2026-08-16T07:33:04.000Z</time>
      </trkpt>
      <trkpt lat="22.741859" lon="110.249866">
        <ele>122.145618</ele>
        <time>2026-08-16T07:33:05.000Z</time>
      </trkpt>
      <trkpt lat="22.741858" lon="110.249909">
        <ele>122.135909</ele>
        <time>2026-08-16T07:33:06.000Z</time>
      </trkpt>
      <trkpt lat="22.741856" lon="110.249954">
        <ele>122.125739</ele>
        <time>2026-08-16T07:33:07.000Z</time>
      </trkpt>
      <trkpt lat="22.741857" lon="110.250000">
        <ele>122.115353</ele>
        <time>2026-08-16T07:33:08.000Z</time>
      </trkpt>
      <trkpt lat="22.741858" lon="110.250048">
        <ele>122.104516</ele>
        <time>2026-08-16T07:33:09.000Z</time>
      </trkpt>
      <trkpt lat="22.741864" lon="110.250090">
        <ele>122.094922</ele>
        <time>2026-08-16T07:33:10.000Z</time>
      </trkpt>
      <trkpt lat="22.741871" lon="110.250136">
        <ele>122.084399</ele>
        <time>2026-08-16T07:33:11.000Z</time>
      </trkpt>
      <trkpt lat="22.741878" lon="110.250186">
        <ele>122.072984</ele>
        <time>2026-08-16T07:33:12.000Z</time>
      </trkpt>
      <trkpt lat="22.741886" lon="110.250242">
        <ele>122.060192</ele>
        <time>2026-08-16T07:33:13.000Z</time>
      </trkpt>
      <trkpt lat="22.741895" lon="110.250295">
        <ele>122.048028</ele>
        <time>2026-08-16T07:33:14.000Z</time>
      </trkpt>
      <trkpt lat="22.741905" lon="110.250349">
        <ele>122.035596</ele>
        <time>2026-08-16T07:33:15.000Z</time>
      </trkpt>
      <trkpt lat="22.741918" lon="110.250404">
        <ele>122.022780</ele>
        <time>2026-08-16T07:33:16.000Z</time>
      </trkpt>
      <trkpt lat="22.741936" lon="110.250457">
        <ele>122.010031</ele>
        <time>2026-08-16T07:33:17.000Z</time>
      </trkpt>
      <trkpt lat="22.741957" lon="110.250510">
        <ele>121.997011</ele>
        <time>2026-08-16T07:33:18.000Z</time>
      </trkpt>
      <trkpt lat="22.741978" lon="110.250564">
        <ele>121.983782</ele>
        <time>2026-08-16T07:33:19.000Z</time>
      </trkpt>
      <trkpt lat="22.742000" lon="110.250619">
        <ele>121.970250</ele>
        <time>2026-08-16T07:33:20.000Z</time>
      </trkpt>
      <trkpt lat="22.742022" lon="110.250674">
        <ele>121.956718</ele>
        <time>2026-08-16T07:33:21.000Z</time>
      </trkpt>
      <trkpt lat="22.742044" lon="110.250731">
        <ele>121.942771</ele>
        <time>2026-08-16T07:33:22.000Z</time>
      </trkpt>
      <trkpt lat="22.742068" lon="110.250787">
        <ele>121.928832</ele>
        <time>2026-08-16T07:33:23.000Z</time>
      </trkpt>
      <trkpt lat="22.742092" lon="110.250842">
        <ele>121.915098</ele>
        <time>2026-08-16T07:33:24.000Z</time>
      </trkpt>
      <trkpt lat="22.742118" lon="110.250895">
        <ele>121.901548</ele>
        <time>2026-08-16T07:33:25.000Z</time>
      </trkpt>
      <trkpt lat="22.742145" lon="110.250946">
        <ele>121.888274</ele>
        <time>2026-08-16T07:33:26.000Z</time>
      </trkpt>
      <trkpt lat="22.742171" lon="110.250999">
        <ele>121.874724</ele>
        <time>2026-08-16T07:33:27.000Z</time>
      </trkpt>
      <trkpt lat="22.742195" lon="110.251049">
        <ele>121.862323</ele>
        <time>2026-08-16T07:33:28.000Z</time>
      </trkpt>
      <trkpt lat="22.742220" lon="110.251099">
        <ele>121.902932</ele>
        <time>2026-08-16T07:33:29.000Z</time>
      </trkpt>
      <trkpt lat="22.742244" lon="110.251148">
        <ele>121.942546</ele>
        <time>2026-08-16T07:33:30.000Z</time>
      </trkpt>
      <trkpt lat="22.742269" lon="110.251197">
        <ele>121.982529</ele>
        <time>2026-08-16T07:33:31.000Z</time>
      </trkpt>
      <trkpt lat="22.742292" lon="110.251248">
        <ele>122.023063</ele>
        <time>2026-08-16T07:33:32.000Z</time>
      </trkpt>
      <trkpt lat="22.742314" lon="110.251298">
        <ele>122.062618</ele>
        <time>2026-08-16T07:33:33.000Z</time>
      </trkpt>
      <trkpt lat="22.742334" lon="110.251350">
        <ele>122.102846</ele>
        <time>2026-08-16T07:33:34.000Z</time>
      </trkpt>
      <trkpt lat="22.742355" lon="110.251402">
        <ele>122.143377</ele>
        <time>2026-08-16T07:33:35.000Z</time>
      </trkpt>
      <trkpt lat="22.742378" lon="110.251453">
        <ele>122.183912</ele>
        <time>2026-08-16T07:33:36.000Z</time>
      </trkpt>
      <trkpt lat="22.742400" lon="110.251504">
        <ele>122.224112</ele>
        <time>2026-08-16T07:33:37.000Z</time>
      </trkpt>
      <trkpt lat="22.742423" lon="110.251554">
        <ele>122.264007</ele>
        <time>2026-08-16T07:33:38.000Z</time>
      </trkpt>
      <trkpt lat="22.742448" lon="110.251604">
        <ele>122.304616</ele>
        <time>2026-08-16T07:33:39.000Z</time>
      </trkpt>
      <trkpt lat="22.742472" lon="110.251652">
        <ele>122.343601</ele>
        <time>2026-08-16T07:33:40.000Z</time>
      </trkpt>
      <trkpt lat="22.742493" lon="110.251696">
        <ele>122.378974</ele>
        <time>2026-08-16T07:33:41.000Z</time>
      </trkpt>
      <trkpt lat="22.742513" lon="110.251741">
        <ele>122.414640</ele>
        <time>2026-08-16T07:33:42.000Z</time>
      </trkpt>
      <trkpt lat="22.742533" lon="110.251783">
        <ele>122.448390</ele>
        <time>2026-08-16T07:33:43.000Z</time>
      </trkpt>
      <trkpt lat="22.742553" lon="110.251824">
        <ele>122.481507</ele>
        <time>2026-08-16T07:33:44.000Z</time>
      </trkpt>
      <trkpt lat="22.742574" lon="110.251866">
        <ele>122.515618</ele>
        <time>2026-08-16T07:33:45.000Z</time>
      </trkpt>
      <trkpt lat="22.742594" lon="110.251906">
        <ele>122.548106</ele>
        <time>2026-08-16T07:33:46.000Z</time>
      </trkpt>
      <trkpt lat="22.742614" lon="110.251946">
        <ele>122.580593</ele>
        <time>2026-08-16T07:33:47.000Z</time>
      </trkpt>
      <trkpt lat="22.742635" lon="110.251984">
        <ele>122.612223</ele>
        <time>2026-08-16T07:33:48.000Z</time>
      </trkpt>
      <trkpt lat="22.742655" lon="110.252020">
        <ele>122.642230</ele>
        <time>2026-08-16T07:33:49.000Z</time>
      </trkpt>
      <trkpt lat="22.742675" lon="110.252058">
        <ele>122.673470</ele>
        <time>2026-08-16T07:33:50.000Z</time>
      </trkpt>
      <trkpt lat="22.742695" lon="110.252095">
        <ele>122.704091</ele>
        <time>2026-08-16T07:33:51.000Z</time>
      </trkpt>
      <trkpt lat="22.742717" lon="110.252125">
        <ele>122.731457</ele>
        <time>2026-08-16T07:33:52.000Z</time>
      </trkpt>
      <trkpt lat="22.742740" lon="110.252159">
        <ele>122.761563</ele>
        <time>2026-08-16T07:33:53.000Z</time>
      </trkpt>
      <trkpt lat="22.742755" lon="110.252194">
        <ele>122.789120</ele>
        <time>2026-08-16T07:33:54.000Z</time>
      </trkpt>
      <trkpt lat="22.742767" lon="110.252227">
        <ele>122.814447</ele>
        <time>2026-08-16T07:33:55.000Z</time>
      </trkpt>
      <trkpt lat="22.742771" lon="110.252258">
        <ele>122.836797</ele>
        <time>2026-08-16T07:33:56.000Z</time>
      </trkpt>
      <trkpt lat="22.742779" lon="110.252290">
        <ele>122.860469</ele>
        <time>2026-08-16T07:33:57.000Z</time>
      </trkpt>
      <trkpt lat="22.742790" lon="110.252316">
        <ele>122.880893</ele>
        <time>2026-08-16T07:33:58.000Z</time>
      </trkpt>
      <trkpt lat="22.742816" lon="110.252344">
        <ele>122.909263</ele>
        <time>2026-08-16T07:33:59.000Z</time>
      </trkpt>
      <trkpt lat="22.742840" lon="110.252369">
        <ele>122.935029</ele>
        <time>2026-08-16T07:34:00.000Z</time>
      </trkpt>
      <trkpt lat="22.742862" lon="110.252394">
        <ele>122.959701</ele>
        <time>2026-08-16T07:34:01.000Z</time>
      </trkpt>
      <trkpt lat="22.742886" lon="110.252423">
        <ele>122.987521</ele>
        <time>2026-08-16T07:34:02.000Z</time>
      </trkpt>
      <trkpt lat="22.742904" lon="110.252453">
        <ele>123.013076</ele>
        <time>2026-08-16T07:34:03.000Z</time>
      </trkpt>
      <trkpt lat="22.742925" lon="110.252484">
        <ele>123.040539</ele>
        <time>2026-08-16T07:34:04.000Z</time>
      </trkpt>
      <trkpt lat="22.742943" lon="110.252520">
        <ele>123.069777</ele>
        <time>2026-08-16T07:34:05.000Z</time>
      </trkpt>
      <trkpt lat="22.742965" lon="110.252555">
        <ele>123.100020</ele>
        <time>2026-08-16T07:34:06.000Z</time>
      </trkpt>
      <trkpt lat="22.742986" lon="110.252590">
        <ele>123.129833</ele>
        <time>2026-08-16T07:34:07.000Z</time>
      </trkpt>
      <trkpt lat="22.743010" lon="110.252625">
        <ele>123.160973</ele>
        <time>2026-08-16T07:34:08.000Z</time>
      </trkpt>
      <trkpt lat="22.743039" lon="110.252666">
        <ele>123.197865</ele>
        <time>2026-08-16T07:34:09.000Z</time>
      </trkpt>
      <trkpt lat="22.743067" lon="110.252703">
        <ele>123.232039</ele>
        <time>2026-08-16T07:34:10.000Z</time>
      </trkpt>
      <trkpt lat="22.743094" lon="110.252743">
        <ele>123.233428</ele>
        <time>2026-08-16T07:34:11.000Z</time>
      </trkpt>
      <trkpt lat="22.743120" lon="110.252786">
        <ele>123.173051</ele>
        <time>2026-08-16T07:34:12.000Z</time>
      </trkpt>
      <trkpt lat="22.743142" lon="110.252832">
        <ele>123.112205</ele>
        <time>2026-08-16T07:34:13.000Z</time>
      </trkpt>
      <trkpt lat="22.743167" lon="110.252878">
        <ele>123.049508</ele>
        <time>2026-08-16T07:34:14.000Z</time>
      </trkpt>
      <trkpt lat="22.743193" lon="110.252923">
        <ele>122.987154</ele>
        <time>2026-08-16T07:34:15.000Z</time>
      </trkpt>
      <trkpt lat="22.743214" lon="110.252969">
        <ele>122.926883</ele>
        <time>2026-08-16T07:34:16.000Z</time>
      </trkpt>
      <trkpt lat="22.743234" lon="110.253012">
        <ele>122.870333</ele>
        <time>2026-08-16T07:34:17.000Z</time>
      </trkpt>
      <trkpt lat="22.743257" lon="110.253054">
        <ele>122.812976</ele>
        <time>2026-08-16T07:34:18.000Z</time>
      </trkpt>
      <trkpt lat="22.743281" lon="110.253099">
        <ele>122.751935</ele>
        <time>2026-08-16T07:34:19.000Z</time>
      </trkpt>
      <trkpt lat="22.743307" lon="110.253146">
        <ele>122.687579</ele>
        <time>2026-08-16T07:34:20.000Z</time>
      </trkpt>
      <trkpt lat="22.743329" lon="110.253194">
        <ele>122.624638</ele>
        <time>2026-08-16T07:34:21.000Z</time>
      </trkpt>
      <trkpt lat="22.743349" lon="110.253243">
        <ele>122.561717</ele>
        <time>2026-08-16T07:34:22.000Z</time>
      </trkpt>
      <trkpt lat="22.743372" lon="110.253294">
        <ele>122.495055</ele>
        <time>2026-08-16T07:34:23.000Z</time>
      </trkpt>
      <trkpt lat="22.743396" lon="110.253343">
        <ele>122.429906</ele>
        <time>2026-08-16T07:34:24.000Z</time>
      </trkpt>
      <trkpt lat="22.743420" lon="110.253392">
        <ele>122.364757</ele>
        <time>2026-08-16T07:34:25.000Z</time>
      </trkpt>
      <trkpt lat="22.743443" lon="110.253441">
        <ele>122.300195</ele>
        <time>2026-08-16T07:34:26.000Z</time>
      </trkpt>
      <trkpt lat="22.743465" lon="110.253492">
        <ele>122.234082</ele>
        <time>2026-08-16T07:34:27.000Z</time>
      </trkpt>
      <trkpt lat="22.743488" lon="110.253545">
        <ele>122.165302</ele>
        <time>2026-08-16T07:34:28.000Z</time>
      </trkpt>
      <trkpt lat="22.743513" lon="110.253601">
        <ele>122.092245</ele>
        <time>2026-08-16T07:34:29.000Z</time>
      </trkpt>
      <trkpt lat="22.743539" lon="110.253654">
        <ele>122.021754</ele>
        <time>2026-08-16T07:34:30.000Z</time>
      </trkpt>
      <trkpt lat="22.743565" lon="110.253706">
        <ele>121.952297</ele>
        <time>2026-08-16T07:34:31.000Z</time>
      </trkpt>
      <trkpt lat="22.743591" lon="110.253760">
        <ele>121.880767</ele>
        <time>2026-08-16T07:34:32.000Z</time>
      </trkpt>
      <trkpt lat="22.743615" lon="110.253817">
        <ele>121.807189</ele>
        <time>2026-08-16T07:34:33.000Z</time>
      </trkpt>
      <trkpt lat="22.743639" lon="110.253875">
        <ele>121.732542</ele>
        <time>2026-08-16T07:34:34.000Z</time>
      </trkpt>
      <trkpt lat="22.743665" lon="110.253932">
        <ele>121.657872</ele>
        <time>2026-08-16T07:34:35.000Z</time>
      </trkpt>
      <trkpt lat="22.743692" lon="110.253989">
        <ele>121.582628</ele>
        <time>2026-08-16T07:34:36.000Z</time>
      </trkpt>
      <trkpt lat="22.743719" lon="110.254047">
        <ele>121.506337</ele>
        <time>2026-08-16T07:34:37.000Z</time>
      </trkpt>
      <trkpt lat="22.743748" lon="110.254105">
        <ele>121.428866</ele>
        <time>2026-08-16T07:34:38.000Z</time>
      </trkpt>
      <trkpt lat="22.743774" lon="110.254163">
        <ele>121.353141</ele>
        <time>2026-08-16T07:34:39.000Z</time>
      </trkpt>
      <trkpt lat="22.743797" lon="110.254216">
        <ele>121.284361</ele>
        <time>2026-08-16T07:34:40.000Z</time>
      </trkpt>
      <trkpt lat="22.743817" lon="110.254265">
        <ele>121.221440</ele>
        <time>2026-08-16T07:34:41.000Z</time>
      </trkpt>
      <trkpt lat="22.743836" lon="110.254309">
        <ele>121.164391</ele>
        <time>2026-08-16T07:34:42.000Z</time>
      </trkpt>
      <trkpt lat="22.743855" lon="110.254349">
        <ele>121.111557</ele>
        <time>2026-08-16T07:34:43.000Z</time>
      </trkpt>
      <trkpt lat="22.743872" lon="110.254391">
        <ele>121.057699</ele>
        <time>2026-08-16T07:34:44.000Z</time>
      </trkpt>
      <trkpt lat="22.743890" lon="110.254437">
        <ele>120.999023</ele>
        <time>2026-08-16T07:34:45.000Z</time>
      </trkpt>
      <trkpt lat="22.743910" lon="110.254487">
        <ele>120.949928</ele>
        <time>2026-08-16T07:34:46.000Z</time>
      </trkpt>
      <trkpt lat="22.743930" lon="110.254541">
        <ele>120.916182</ele>
        <time>2026-08-16T07:34:47.000Z</time>
      </trkpt>
      <trkpt lat="22.743948" lon="110.254598">
        <ele>120.881243</ele>
        <time>2026-08-16T07:34:48.000Z</time>
      </trkpt>
      <trkpt lat="22.743965" lon="110.254657">
        <ele>120.845398</ele>
        <time>2026-08-16T07:34:49.000Z</time>
      </trkpt>
      <trkpt lat="22.743981" lon="110.254718">
        <ele>120.808620</ele>
        <time>2026-08-16T07:34:50.000Z</time>
      </trkpt>
      <trkpt lat="22.743996" lon="110.254778">
        <ele>120.772570</ele>
        <time>2026-08-16T07:34:51.000Z</time>
      </trkpt>
      <trkpt lat="22.744012" lon="110.254838">
        <ele>120.736350</ele>
        <time>2026-08-16T07:34:52.000Z</time>
      </trkpt>
      <trkpt lat="22.744026" lon="110.254900">
        <ele>120.699334</ele>
        <time>2026-08-16T07:34:53.000Z</time>
      </trkpt>
      <trkpt lat="22.744038" lon="110.254962">
        <ele>120.662596</ele>
        <time>2026-08-16T07:34:54.000Z</time>
      </trkpt>
      <trkpt lat="22.744050" lon="110.255024">
        <ele>120.625858</ele>
        <time>2026-08-16T07:34:55.000Z</time>
      </trkpt>
      <trkpt lat="22.744060" lon="110.255085">
        <ele>120.589929</ele>
        <time>2026-08-16T07:34:56.000Z</time>
      </trkpt>
      <trkpt lat="22.744068" lon="110.255142">
        <ele>120.556494</ele>
        <time>2026-08-16T07:34:57.000Z</time>
      </trkpt>
      <trkpt lat="22.744075" lon="110.255193">
        <ele>120.526593</ele>
        <time>2026-08-16T07:34:58.000Z</time>
      </trkpt>
      <trkpt lat="22.744080" lon="110.255237">
        <ele>120.500884</ele>
        <time>2026-08-16T07:34:59.000Z</time>
      </trkpt>
      <trkpt lat="22.744083" lon="110.255275">
        <ele>120.478767</ele>
        <time>2026-08-16T07:35:00.000Z</time>
      </trkpt>
      <trkpt lat="22.744082" lon="110.255305">
        <ele>120.461358</ele>
        <time>2026-08-16T07:35:01.000Z</time>
      </trkpt>
      <trkpt lat="22.744081" lon="110.255325">
        <ele>120.449743</ele>
        <time>2026-08-16T07:35:02.000Z</time>
      </trkpt>
      <trkpt lat="22.744082" lon="110.255335">
        <ele>120.443910</ele>
        <time>2026-08-16T07:35:03.000Z</time>
      </trkpt>
      <trkpt lat="22.744081" lon="110.255340">
        <ele>120.440943</ele>
        <time>2026-08-16T07:35:04.000Z</time>
      </trkpt>
      <trkpt lat="22.744081" lon="110.255340">
        <ele>120.440943</ele>
        <time>2026-08-16T07:35:06.000Z</time>
      </trkpt>
      <trkpt lat="22.744081" lon="110.255450">
        <ele>120.377153</ele>
        <time>2026-08-16T07:36:48.000Z</time>
      </trkpt>
      <trkpt lat="22.744081" lon="110.255477">
        <ele>120.361495</ele>
        <time>2026-08-16T07:36:49.000Z</time>
      </trkpt>
      <trkpt lat="22.744084" lon="110.255504">
        <ele>120.345725</ele>
        <time>2026-08-16T07:36:50.000Z</time>
      </trkpt>
      <trkpt lat="22.744088" lon="110.255533">
        <ele>120.328720</ele>
        <time>2026-08-16T07:36:51.000Z</time>
      </trkpt>
      <trkpt lat="22.744090" lon="110.255565">
        <ele>120.310121</ele>
        <time>2026-08-16T07:36:52.000Z</time>
      </trkpt>
      <trkpt lat="22.744091" lon="110.255600">
        <ele>120.289814</ele>
        <time>2026-08-16T07:36:53.000Z</time>
      </trkpt>
      <trkpt lat="22.744093" lon="110.255637">
        <ele>120.268321</ele>
        <time>2026-08-16T07:36:54.000Z</time>
      </trkpt>
      <trkpt lat="22.744097" lon="110.255677">
        <ele>120.244988</ele>
        <time>2026-08-16T07:36:55.000Z</time>
      </trkpt>
      <trkpt lat="22.744101" lon="110.255717">
        <ele>120.221656</ele>
        <time>2026-08-16T07:36:56.000Z</time>
      </trkpt>
      <trkpt lat="22.744103" lon="110.255760">
        <ele>120.196688</ele>
        <time>2026-08-16T07:36:57.000Z</time>
      </trkpt>
      <trkpt lat="22.744105" lon="110.255804">
        <ele>120.171141</ele>
        <time>2026-08-16T07:36:58.000Z</time>
      </trkpt>
      <trkpt lat="22.744109" lon="110.255849">
        <ele>120.144924</ele>
        <time>2026-08-16T07:36:59.000Z</time>
      </trkpt>
      <trkpt lat="22.744112" lon="110.255894">
        <ele>120.118760</ele>
        <time>2026-08-16T07:37:00.000Z</time>
      </trkpt>
      <trkpt lat="22.744115" lon="110.255942">
        <ele>120.090861</ele>
        <time>2026-08-16T07:37:01.000Z</time>
      </trkpt>
      <trkpt lat="22.744118" lon="110.255988">
        <ele>120.064119</ele>
        <time>2026-08-16T07:37:02.000Z</time>
      </trkpt>
      <trkpt lat="22.744123" lon="110.256037">
        <ele>120.035530</ele>
        <time>2026-08-16T07:37:03.000Z</time>
      </trkpt>
      <trkpt lat="22.744129" lon="110.256085">
        <ele>120.007439</ele>
        <time>2026-08-16T07:37:04.000Z</time>
      </trkpt>
      <trkpt lat="22.744135" lon="110.256136">
        <ele>119.977624</ele>
        <time>2026-08-16T07:37:05.000Z</time>
      </trkpt>
      <trkpt lat="22.744136" lon="110.256186">
        <ele>119.948622</ele>
        <time>2026-08-16T07:37:06.000Z</time>
      </trkpt>
      <trkpt lat="22.744134" lon="110.256236">
        <ele>119.919600</ele>
        <time>2026-08-16T07:37:07.000Z</time>
      </trkpt>
      <trkpt lat="22.744132" lon="110.256285">
        <ele>119.891156</ele>
        <time>2026-08-16T07:37:08.000Z</time>
      </trkpt>
      <trkpt lat="22.744132" lon="110.256334">
        <ele>119.862741</ele>
        <time>2026-08-16T07:37:09.000Z</time>
      </trkpt>
      <trkpt lat="22.744134" lon="110.256380">
        <ele>119.836035</ele>
        <time>2026-08-16T07:37:10.000Z</time>
      </trkpt>
      <trkpt lat="22.744139" lon="110.256427">
        <ele>119.906891</ele>
        <time>2026-08-16T07:37:11.000Z</time>
      </trkpt>
      <trkpt lat="22.744145" lon="110.256474">
        <ele>119.988099</ele>
        <time>2026-08-16T07:37:12.000Z</time>
      </trkpt>
      <trkpt lat="22.744149" lon="110.256520">
        <ele>120.067177</ele>
        <time>2026-08-16T07:37:13.000Z</time>
      </trkpt>
      <trkpt lat="22.744154" lon="110.256569">
        <ele>120.151553</ele>
        <time>2026-08-16T07:37:14.000Z</time>
      </trkpt>
      <trkpt lat="22.744159" lon="110.256620">
        <ele>120.239331</ele>
        <time>2026-08-16T07:37:15.000Z</time>
      </trkpt>
      <trkpt lat="22.744164" lon="110.256670">
        <ele>120.325408</ele>
        <time>2026-08-16T07:37:16.000Z</time>
      </trkpt>
      <trkpt lat="22.744172" lon="110.256720">
        <ele>120.412262</ele>
        <time>2026-08-16T07:37:17.000Z</time>
      </trkpt>
      <trkpt lat="22.744180" lon="110.256770">
        <ele>120.499115</ele>
        <time>2026-08-16T07:37:18.000Z</time>
      </trkpt>
      <trkpt lat="22.744188" lon="110.256818">
        <ele>120.582598</ele>
        <time>2026-08-16T07:37:19.000Z</time>
      </trkpt>
      <trkpt lat="22.744196" lon="110.256866">
        <ele>120.666081</ele>
        <time>2026-08-16T07:37:20.000Z</time>
      </trkpt>
      <trkpt lat="22.744208" lon="110.256913">
        <ele>120.749548</ele>
        <time>2026-08-16T07:37:21.000Z</time>
      </trkpt>
      <trkpt lat="22.744223" lon="110.256959">
        <ele>120.833053</ele>
        <time>2026-08-16T07:37:22.000Z</time>
      </trkpt>
      <trkpt lat="22.744238" lon="110.257002">
        <ele>120.911737</ele>
        <time>2026-08-16T07:37:23.000Z</time>
      </trkpt>
      <trkpt lat="22.744254" lon="110.257045">
        <ele>120.991096</ele>
        <time>2026-08-16T07:37:24.000Z</time>
      </trkpt>
      <trkpt lat="22.744271" lon="110.257087">
        <ele>121.069597</ele>
        <time>2026-08-16T07:37:25.000Z</time>
      </trkpt>
      <trkpt lat="22.744289" lon="110.257128">
        <ele>121.147314</ele>
        <time>2026-08-16T07:37:26.000Z</time>
      </trkpt>
      <trkpt lat="22.744308" lon="110.257167">
        <ele>121.222804</ele>
        <time>2026-08-16T07:37:27.000Z</time>
      </trkpt>
      <trkpt lat="22.744327" lon="110.257205">
        <ele>121.296785</ele>
        <time>2026-08-16T07:37:28.000Z</time>
      </trkpt>
      <trkpt lat="22.744345" lon="110.257241">
        <ele>121.366871</ele>
        <time>2026-08-16T07:37:29.000Z</time>
      </trkpt>
      <trkpt lat="22.744362" lon="110.257278">
        <ele>121.437621</ele>
        <time>2026-08-16T07:37:30.000Z</time>
      </trkpt>
      <trkpt lat="22.744379" lon="110.257311">
        <ele>121.502314</ele>
        <time>2026-08-16T07:37:31.000Z</time>
      </trkpt>
      <trkpt lat="22.744394" lon="110.257344">
        <ele>121.565281</ele>
        <time>2026-08-16T07:37:32.000Z</time>
      </trkpt>
      <trkpt lat="22.744408" lon="110.257379">
        <ele>121.630576</ele>
        <time>2026-08-16T07:37:33.000Z</time>
      </trkpt>
      <trkpt lat="22.744425" lon="110.257414">
        <ele>121.698278</ele>
        <time>2026-08-16T07:37:34.000Z</time>
      </trkpt>
      <trkpt lat="22.744439" lon="110.257447">
        <ele>121.760447</ele>
        <time>2026-08-16T07:37:35.000Z</time>
      </trkpt>
      <trkpt lat="22.744456" lon="110.257479">
        <ele>121.823652</ele>
        <time>2026-08-16T07:37:36.000Z</time>
      </trkpt>
      <trkpt lat="22.744475" lon="110.257513">
        <ele>121.891693</ele>
        <time>2026-08-16T07:37:37.000Z</time>
      </trkpt>
      <trkpt lat="22.744496" lon="110.257548">
        <ele>121.963157</ele>
        <time>2026-08-16T07:37:38.000Z</time>
      </trkpt>
      <trkpt lat="22.744515" lon="110.257583">
        <ele>122.032667</ele>
        <time>2026-08-16T07:37:39.000Z</time>
      </trkpt>
      <trkpt lat="22.744535" lon="110.257617">
        <ele>122.101687</ele>
        <time>2026-08-16T07:37:40.000Z</time>
      </trkpt>
      <trkpt lat="22.744553" lon="110.257654">
        <ele>122.173283</ele>
        <time>2026-08-16T07:37:41.000Z</time>
      </trkpt>
      <trkpt lat="22.744572" lon="110.257691">
        <ele>122.245764</ele>
        <time>2026-08-16T07:37:42.000Z</time>
      </trkpt>
      <trkpt lat="22.744589" lon="110.257728">
        <ele>122.316513</ele>
        <time>2026-08-16T07:37:43.000Z</time>
      </trkpt>
      <trkpt lat="22.744607" lon="110.257765">
        <ele>122.388109</ele>
        <time>2026-08-16T07:37:44.000Z</time>
      </trkpt>
      <trkpt lat="22.744626" lon="110.257803">
        <ele>122.462089</ele>
        <time>2026-08-16T07:37:45.000Z</time>
      </trkpt>
      <trkpt lat="22.744645" lon="110.257839">
        <ele>122.533079</ele>
        <time>2026-08-16T07:37:46.000Z</time>
      </trkpt>
      <trkpt lat="22.744663" lon="110.257876">
        <ele>122.604675</ele>
        <time>2026-08-16T07:37:47.000Z</time>
      </trkpt>
      <trkpt lat="22.744680" lon="110.257913">
        <ele>122.675424</ele>
        <time>2026-08-16T07:37:48.000Z</time>
      </trkpt>
      <trkpt lat="22.744696" lon="110.257951">
        <ele>122.746919</ele>
        <time>2026-08-16T07:37:49.000Z</time>
      </trkpt>
      <trkpt lat="22.744713" lon="110.257988">
        <ele>122.817668</ele>
        <time>2026-08-16T07:37:50.000Z</time>
      </trkpt>
      <trkpt lat="22.744730" lon="110.258027">
        <ele>122.891497</ele>
        <time>2026-08-16T07:37:51.000Z</time>
      </trkpt>
      <trkpt lat="22.744746" lon="110.258064">
        <ele>122.961438</ele>
        <time>2026-08-16T07:37:52.000Z</time>
      </trkpt>
      <trkpt lat="22.744763" lon="110.258103">
        <ele>123.035267</ele>
        <time>2026-08-16T07:37:53.000Z</time>
      </trkpt>
      <trkpt lat="22.744781" lon="110.258141">
        <ele>123.108381</ele>
        <time>2026-08-16T07:37:54.000Z</time>
      </trkpt>
      <trkpt lat="22.744797" lon="110.258178">
        <ele>123.173660</ele>
        <time>2026-08-16T07:37:55.000Z</time>
      </trkpt>
      <trkpt lat="22.744814" lon="110.258215">
        <ele>123.196629</ele>
        <time>2026-08-16T07:37:56.000Z</time>
      </trkpt>
      <trkpt lat="22.744830" lon="110.258252">
        <ele>123.219335</ele>
        <time>2026-08-16T07:37:57.000Z</time>
      </trkpt>
      <trkpt lat="22.744847" lon="110.258290">
        <ele>123.242802</ele>
        <time>2026-08-16T07:37:58.000Z</time>
      </trkpt>
      <trkpt lat="22.744866" lon="110.258328">
        <ele>123.266820</ele>
        <time>2026-08-16T07:37:59.000Z</time>
      </trkpt>
      <trkpt lat="22.744884" lon="110.258365">
        <ele>123.290064</ele>
        <time>2026-08-16T07:38:00.000Z</time>
      </trkpt>
      <trkpt lat="22.744900" lon="110.258404">
        <ele>123.313781</ele>
        <time>2026-08-16T07:38:01.000Z</time>
      </trkpt>
      <trkpt lat="22.744914" lon="110.258443">
        <ele>123.337035</ele>
        <time>2026-08-16T07:38:02.000Z</time>
      </trkpt>
      <trkpt lat="22.744930" lon="110.258483">
        <ele>123.361261</ele>
        <time>2026-08-16T07:38:03.000Z</time>
      </trkpt>
      <trkpt lat="22.744941" lon="110.258524">
        <ele>123.384986</ele>
        <time>2026-08-16T07:38:04.000Z</time>
      </trkpt>
      <trkpt lat="22.744957" lon="110.258562">
        <ele>123.408197</ele>
        <time>2026-08-16T07:38:05.000Z</time>
      </trkpt>
      <trkpt lat="22.744978" lon="110.258598">
        <ele>123.431865</ele>
        <time>2026-08-16T07:38:06.000Z</time>
      </trkpt>
      <trkpt lat="22.744998" lon="110.258638">
        <ele>123.457147</ele>
        <time>2026-08-16T07:38:07.000Z</time>
      </trkpt>
      <trkpt lat="22.745017" lon="110.258676">
        <ele>123.481165</ele>
        <time>2026-08-16T07:38:08.000Z</time>
      </trkpt>
      <trkpt lat="22.745033" lon="110.258715">
        <ele>123.504882</ele>
        <time>2026-08-16T07:38:09.000Z</time>
      </trkpt>
      <trkpt lat="22.745050" lon="110.258753">
        <ele>123.528349</ele>
        <time>2026-08-16T07:38:10.000Z</time>
      </trkpt>
      <trkpt lat="22.745070" lon="110.258792">
        <ele>123.553144</ele>
        <time>2026-08-16T07:38:11.000Z</time>
      </trkpt>
      <trkpt lat="22.745091" lon="110.258828">
        <ele>123.576813</ele>
        <time>2026-08-16T07:38:12.000Z</time>
      </trkpt>
      <trkpt lat="22.745107" lon="110.258865">
        <ele>123.599519</ele>
        <time>2026-08-16T07:38:13.000Z</time>
      </trkpt>
      <trkpt lat="22.745124" lon="110.258901">
        <ele>123.621992</ele>
        <time>2026-08-16T07:38:14.000Z</time>
      </trkpt>
      <trkpt lat="22.745146" lon="110.258939">
        <ele>123.646922</ele>
        <time>2026-08-16T07:38:15.000Z</time>
      </trkpt>
      <trkpt lat="22.745168" lon="110.258975">
        <ele>123.670917</ele>
        <time>2026-08-16T07:38:16.000Z</time>
      </trkpt>
      <trkpt lat="22.745189" lon="110.259012">
        <ele>123.695057</ele>
        <time>2026-08-16T07:38:17.000Z</time>
      </trkpt>
      <trkpt lat="22.745210" lon="110.259047">
        <ele>123.718258</ele>
        <time>2026-08-16T07:38:18.000Z</time>
      </trkpt>
      <trkpt lat="22.745232" lon="110.259086">
        <ele>123.743660</ele>
        <time>2026-08-16T07:38:19.000Z</time>
      </trkpt>
      <trkpt lat="22.745252" lon="110.259127">
        <ele>123.769432</ele>
        <time>2026-08-16T07:38:20.000Z</time>
      </trkpt>
      <trkpt lat="22.745270" lon="110.259172">
        <ele>123.796686</ele>
        <time>2026-08-16T07:38:21.000Z</time>
      </trkpt>
      <trkpt lat="22.745285" lon="110.259215">
        <ele>123.822230</ele>
        <time>2026-08-16T07:38:22.000Z</time>
      </trkpt>
      <trkpt lat="22.745303" lon="110.259255">
        <ele>123.846961</ele>
        <time>2026-08-16T07:38:23.000Z</time>
      </trkpt>
      <trkpt lat="22.745327" lon="110.259293">
        <ele>123.872551</ele>
        <time>2026-08-16T07:38:24.000Z</time>
      </trkpt>
      <trkpt lat="22.745353" lon="110.259335">
        <ele>123.900658</ele>
        <time>2026-08-16T07:38:25.000Z</time>
      </trkpt>
      <trkpt lat="22.745375" lon="110.259374">
        <ele>123.926060</ele>
        <time>2026-08-16T07:38:26.000Z</time>
      </trkpt>
      <trkpt lat="22.745397" lon="110.259413">
        <ele>123.951462</ele>
        <time>2026-08-16T07:38:27.000Z</time>
      </trkpt>
      <trkpt lat="22.745416" lon="110.259453">
        <ele>123.976463</ele>
        <time>2026-08-16T07:38:28.000Z</time>
      </trkpt>
      <trkpt lat="22.745436" lon="110.259494">
        <ele>124.002234</ele>
        <time>2026-08-16T07:38:29.000Z</time>
      </trkpt>
      <trkpt lat="22.745458" lon="110.259531">
        <ele>124.026695</ele>
        <time>2026-08-16T07:38:30.000Z</time>
      </trkpt>
      <trkpt lat="22.745479" lon="110.259572">
        <ele>124.052754</ele>
        <time>2026-08-16T07:38:31.000Z</time>
      </trkpt>
      <trkpt lat="22.745487" lon="110.259610">
        <ele>124.074411</ele>
        <time>2026-08-16T07:38:32.000Z</time>
      </trkpt>
      <trkpt lat="22.745506" lon="110.259649">
        <ele>124.098919</ele>
        <time>2026-08-16T07:38:33.000Z</time>
      </trkpt>
      <trkpt lat="22.745531" lon="110.259688">
        <ele>124.125309</ele>
        <time>2026-08-16T07:38:34.000Z</time>
      </trkpt>
      <trkpt lat="22.745548" lon="110.259729">
        <ele>124.150287</ele>
        <time>2026-08-16T07:38:35.000Z</time>
      </trkpt>
      <trkpt lat="22.745573" lon="110.259772">
        <ele>124.178530</ele>
        <time>2026-08-16T07:38:36.000Z</time>
      </trkpt>
      <trkpt lat="22.745598" lon="110.259817">
        <ele>124.207720</ele>
        <time>2026-08-16T07:38:37.000Z</time>
      </trkpt>
      <trkpt lat="22.745623" lon="110.259863">
        <ele>124.237388</ele>
        <time>2026-08-16T07:38:38.000Z</time>
      </trkpt>
      <trkpt lat="22.745645" lon="110.259905">
        <ele>124.250711</ele>
        <time>2026-08-16T07:38:39.000Z</time>
      </trkpt>
      <trkpt lat="22.745658" lon="110.259953">
        <ele>124.237418</ele>
        <time>2026-08-16T07:38:40.000Z</time>
      </trkpt>
      <trkpt lat="22.745674" lon="110.259996">
        <ele>124.225098</ele>
        <time>2026-08-16T07:38:41.000Z</time>
      </trkpt>
      <trkpt lat="22.745691" lon="110.260039">
        <ele>124.212667</ele>
        <time>2026-08-16T07:38:42.000Z</time>
      </trkpt>
      <trkpt lat="22.745713" lon="110.260080">
        <ele>124.200063</ele>
        <time>2026-08-16T07:38:43.000Z</time>
      </trkpt>
      <trkpt lat="22.745740" lon="110.260126">
        <ele>124.185575</ele>
        <time>2026-08-16T07:38:44.000Z</time>
      </trkpt>
      <trkpt lat="22.745767" lon="110.260168">
        <ele>124.171972</ele>
        <time>2026-08-16T07:38:45.000Z</time>
      </trkpt>
      <trkpt lat="22.745798" lon="110.260210">
        <ele>124.157678</ele>
        <time>2026-08-16T07:38:46.000Z</time>
      </trkpt>
      <trkpt lat="22.745826" lon="110.260252">
        <ele>124.143908</ele>
        <time>2026-08-16T07:38:47.000Z</time>
      </trkpt>
      <trkpt lat="22.745852" lon="110.260297">
        <ele>124.129799</ele>
        <time>2026-08-16T07:38:48.000Z</time>
      </trkpt>
      <trkpt lat="22.745878" lon="110.260342">
        <ele>124.115689</ele>
        <time>2026-08-16T07:38:49.000Z</time>
      </trkpt>
      <trkpt lat="22.745902" lon="110.260387">
        <ele>124.101877</ele>
        <time>2026-08-16T07:38:50.000Z</time>
      </trkpt>
      <trkpt lat="22.745924" lon="110.260431">
        <ele>124.088579</ele>
        <time>2026-08-16T07:38:51.000Z</time>
      </trkpt>
      <trkpt lat="22.745945" lon="110.260475">
        <ele>124.075415</ele>
        <time>2026-08-16T07:38:52.000Z</time>
      </trkpt>
      <trkpt lat="22.745967" lon="110.260520">
        <ele>124.061882</ele>
        <time>2026-08-16T07:38:53.000Z</time>
      </trkpt>
      <trkpt lat="22.745992" lon="110.260565">
        <ele>124.047923</ele>
        <time>2026-08-16T07:38:54.000Z</time>
      </trkpt>
      <trkpt lat="22.746015" lon="110.260609">
        <ele>124.034485</ele>
        <time>2026-08-16T07:38:55.000Z</time>
      </trkpt>
      <trkpt lat="22.746041" lon="110.260651">
        <ele>124.021044</ele>
        <time>2026-08-16T07:38:56.000Z</time>
      </trkpt>
      <trkpt lat="22.746067" lon="110.260693">
        <ele>124.007604</ele>
        <time>2026-08-16T07:38:57.000Z</time>
      </trkpt>
      <trkpt lat="22.746093" lon="110.260736">
        <ele>123.993942</ele>
        <time>2026-08-16T07:38:58.000Z</time>
      </trkpt>
      <trkpt lat="22.746118" lon="110.260781">
        <ele>123.979983</ele>
        <time>2026-08-16T07:38:59.000Z</time>
      </trkpt>
      <trkpt lat="22.746145" lon="110.260828">
        <ele>123.965270</ele>
        <time>2026-08-16T07:39:00.000Z</time>
      </trkpt>
      <trkpt lat="22.746174" lon="110.260874">
        <ele>123.950465</ele>
        <time>2026-08-16T07:39:01.000Z</time>
      </trkpt>
      <trkpt lat="22.746200" lon="110.260922">
        <ele>123.935674</ele>
        <time>2026-08-16T07:39:02.000Z</time>
      </trkpt>
      <trkpt lat="22.746228" lon="110.260972">
        <ele>123.920131</ele>
        <time>2026-08-16T07:39:03.000Z</time>
      </trkpt>
      <trkpt lat="22.746256" lon="110.261021">
        <ele>123.904815</ele>
        <time>2026-08-16T07:39:04.000Z</time>
      </trkpt>
      <trkpt lat="22.746283" lon="110.261070">
        <ele>123.889649</ele>
        <time>2026-08-16T07:39:05.000Z</time>
      </trkpt>
      <trkpt lat="22.746311" lon="110.261120">
        <ele>123.874106</ele>
        <time>2026-08-16T07:39:06.000Z</time>
      </trkpt>
      <trkpt lat="22.746337" lon="110.261172">
        <ele>123.858389</ele>
        <time>2026-08-16T07:39:07.000Z</time>
      </trkpt>
      <trkpt lat="22.746365" lon="110.261224">
        <ele>123.842390</ele>
        <time>2026-08-16T07:39:08.000Z</time>
      </trkpt>
      <trkpt lat="22.746392" lon="110.261277">
        <ele>123.826302</ele>
        <time>2026-08-16T07:39:09.000Z</time>
      </trkpt>
      <trkpt lat="22.746416" lon="110.261328">
        <ele>123.811089</ele>
        <time>2026-08-16T07:39:10.000Z</time>
      </trkpt>
      <trkpt lat="22.746441" lon="110.261380">
        <ele>123.795508</ele>
        <time>2026-08-16T07:39:11.000Z</time>
      </trkpt>
      <trkpt lat="22.746470" lon="110.261427">
        <ele>123.780482</ele>
        <time>2026-08-16T07:39:12.000Z</time>
      </trkpt>
      <trkpt lat="22.746497" lon="110.261475">
        <ele>123.765543</ele>
        <time>2026-08-16T07:39:13.000Z</time>
      </trkpt>
      <trkpt lat="22.746522" lon="110.261523">
        <ele>123.750896</ele>
        <time>2026-08-16T07:39:14.000Z</time>
      </trkpt>
      <trkpt lat="22.746548" lon="110.261573">
        <ele>123.738292</ele>
        <time>2026-08-16T07:39:15.000Z</time>
      </trkpt>
      <trkpt lat="22.746573" lon="110.261623">
        <ele>123.755749</ele>
        <time>2026-08-16T07:39:16.000Z</time>
      </trkpt>
      <trkpt lat="22.746597" lon="110.261674">
        <ele>123.773322</ele>
        <time>2026-08-16T07:39:17.000Z</time>
      </trkpt>
      <trkpt lat="22.746624" lon="110.261724">
        <ele>123.791106</ele>
        <time>2026-08-16T07:39:18.000Z</time>
      </trkpt>
      <trkpt lat="22.746649" lon="110.261772">
        <ele>123.808026</ele>
        <time>2026-08-16T07:39:19.000Z</time>
      </trkpt>
      <trkpt lat="22.746672" lon="110.261820">
        <ele>123.824628</ele>
        <time>2026-08-16T07:39:20.000Z</time>
      </trkpt>
      <trkpt lat="22.746697" lon="110.261866">
        <ele>123.841016</ele>
        <time>2026-08-16T07:39:21.000Z</time>
      </trkpt>
      <trkpt lat="22.746716" lon="110.261914">
        <ele>123.857048</ele>
        <time>2026-08-16T07:39:22.000Z</time>
      </trkpt>
      <trkpt lat="22.746733" lon="110.261959">
        <ele>123.871974</ele>
        <time>2026-08-16T07:39:23.000Z</time>
      </trkpt>
      <trkpt lat="22.746746" lon="110.262001">
        <ele>123.885572</ele>
        <time>2026-08-16T07:39:24.000Z</time>
      </trkpt>
      <trkpt lat="22.746765" lon="110.262046">
        <ele>123.900762</ele>
        <time>2026-08-16T07:39:25.000Z</time>
      </trkpt>
      <trkpt lat="22.746789" lon="110.262086">
        <ele>123.915409</ele>
        <time>2026-08-16T07:39:26.000Z</time>
      </trkpt>
      <trkpt lat="22.746812" lon="110.262128">
        <ele>123.930401</ele>
        <time>2026-08-16T07:39:27.000Z</time>
      </trkpt>
      <trkpt lat="22.746832" lon="110.262168">
        <ele>123.944367</ele>
        <time>2026-08-16T07:39:28.000Z</time>
      </trkpt>
      <trkpt lat="22.746851" lon="110.262213">
        <ele>123.959557</ele>
        <time>2026-08-16T07:39:29.000Z</time>
      </trkpt>
      <trkpt lat="22.746872" lon="110.262262">
        <ele>123.976141</ele>
        <time>2026-08-16T07:39:30.000Z</time>
      </trkpt>
      <trkpt lat="22.746897" lon="110.262311">
        <ele>123.993329</ele>
        <time>2026-08-16T07:39:31.000Z</time>
      </trkpt>
      <trkpt lat="22.746919" lon="110.262359">
        <ele>124.009780</ele>
        <time>2026-08-16T07:39:32.000Z</time>
      </trkpt>
      <trkpt lat="22.746945" lon="110.262404">
        <ele>124.026079</ele>
        <time>2026-08-16T07:39:33.000Z</time>
      </trkpt>
      <trkpt lat="22.746973" lon="110.262447">
        <ele>124.042235</ele>
        <time>2026-08-16T07:39:34.000Z</time>
      </trkpt>
      <trkpt lat="22.747001" lon="110.262492">
        <ele>124.058897</ele>
        <time>2026-08-16T07:39:35.000Z</time>
      </trkpt>
      <trkpt lat="22.747032" lon="110.262538">
        <ele>124.076383</ele>
        <time>2026-08-16T07:39:36.000Z</time>
      </trkpt>
      <trkpt lat="22.747065" lon="110.262581">
        <ele>124.093553</ele>
        <time>2026-08-16T07:39:37.000Z</time>
      </trkpt>
      <trkpt lat="22.747101" lon="110.262626">
        <ele>124.111837</ele>
        <time>2026-08-16T07:39:38.000Z</time>
      </trkpt>
      <trkpt lat="22.747134" lon="110.262667">
        <ele>124.128540</ele>
        <time>2026-08-16T07:39:39.000Z</time>
      </trkpt>
      <trkpt lat="22.747166" lon="110.262709">
        <ele>124.145261</ele>
        <time>2026-08-16T07:39:40.000Z</time>
      </trkpt>
      <trkpt lat="22.747196" lon="110.262753">
        <ele>124.162056</ele>
        <time>2026-08-16T07:39:41.000Z</time>
      </trkpt>
      <trkpt lat="22.747224" lon="110.262798">
        <ele>124.178718</ele>
        <time>2026-08-16T07:39:42.000Z</time>
      </trkpt>
      <trkpt lat="22.747257" lon="110.262839">
        <ele>124.195420</ele>
        <time>2026-08-16T07:39:43.000Z</time>
      </trkpt>
      <trkpt lat="22.747291" lon="110.262880">
        <ele>124.212344</ele>
        <time>2026-08-16T07:39:44.000Z</time>
      </trkpt>
      <trkpt lat="22.747324" lon="110.262919">
        <ele>124.228589</ele>
        <time>2026-08-16T07:39:45.000Z</time>
      </trkpt>
      <trkpt lat="22.747359" lon="110.262965">
        <ele>124.246892</ele>
        <time>2026-08-16T07:39:46.000Z</time>
      </trkpt>
      <trkpt lat="22.747390" lon="110.263006">
        <ele>124.263165</ele>
        <time>2026-08-16T07:39:47.000Z</time>
      </trkpt>
      <trkpt lat="22.747431" lon="110.263041">
        <ele>124.280532</ele>
        <time>2026-08-16T07:39:48.000Z</time>
      </trkpt>
      <trkpt lat="22.747468" lon="110.263078">
        <ele>124.297283</ele>
        <time>2026-08-16T07:39:49.000Z</time>
      </trkpt>
      <trkpt lat="22.747505" lon="110.263116">
        <ele>124.314244</ele>
        <time>2026-08-16T07:39:50.000Z</time>
      </trkpt>
      <trkpt lat="22.747541" lon="110.263152">
        <ele>124.330542</ele>
        <time>2026-08-16T07:39:51.000Z</time>
      </trkpt>
      <trkpt lat="22.747573" lon="110.263189">
        <ele>124.345842</ele>
        <time>2026-08-16T07:39:52.000Z</time>
      </trkpt>
      <trkpt lat="22.747606" lon="110.263227">
        <ele>124.361457</ele>
        <time>2026-08-16T07:39:53.000Z</time>
      </trkpt>
      <trkpt lat="22.747642" lon="110.263266">
        <ele>124.377964</ele>
        <time>2026-08-16T07:39:54.000Z</time>
      </trkpt>
      <trkpt lat="22.747676" lon="110.263303">
        <ele>124.393590</ele>
        <time>2026-08-16T07:39:55.000Z</time>
      </trkpt>
      <trkpt lat="22.747709" lon="110.263341">
        <ele>124.409204</ele>
        <time>2026-08-16T07:39:56.000Z</time>
      </trkpt>
      <trkpt lat="22.747740" lon="110.263379">
        <ele>124.424382</ele>
        <time>2026-08-16T07:39:57.000Z</time>
      </trkpt>
      <trkpt lat="22.747772" lon="110.263415">
        <ele>124.439340</ele>
        <time>2026-08-16T07:39:58.000Z</time>
      </trkpt>
      <trkpt lat="22.747809" lon="110.263451">
        <ele>124.455465</ele>
        <time>2026-08-16T07:39:59.000Z</time>
      </trkpt>
      <trkpt lat="22.747842" lon="110.263490">
        <ele>124.471299</ele>
        <time>2026-08-16T07:40:00.000Z</time>
      </trkpt>
      <trkpt lat="22.747876" lon="110.263529">
        <ele>124.487354</ele>
        <time>2026-08-16T07:40:01.000Z</time>
      </trkpt>
      <trkpt lat="22.747911" lon="110.263569">
        <ele>124.503850</ele>
        <time>2026-08-16T07:40:02.000Z</time>
      </trkpt>
      <trkpt lat="22.747951" lon="110.263605">
        <ele>124.520712</ele>
        <time>2026-08-16T07:40:03.000Z</time>
      </trkpt>
      <trkpt lat="22.747982" lon="110.263639">
        <ele>124.535015</ele>
        <time>2026-08-16T07:40:04.000Z</time>
      </trkpt>
      <trkpt lat="22.748009" lon="110.263671">
        <ele>124.547990</ele>
        <time>2026-08-16T07:40:05.000Z</time>
      </trkpt>
      <trkpt lat="22.748038" lon="110.263701">
        <ele>124.560992</ele>
        <time>2026-08-16T07:40:06.000Z</time>
      </trkpt>
      <trkpt lat="22.748072" lon="110.263734">
        <ele>124.575794</ele>
        <time>2026-08-16T07:40:07.000Z</time>
      </trkpt>
      <trkpt lat="22.748110" lon="110.263772">
        <ele>124.592562</ele>
        <time>2026-08-16T07:40:08.000Z</time>
      </trkpt>
      <trkpt lat="22.748145" lon="110.263812">
        <ele>124.609058</ele>
        <time>2026-08-16T07:40:09.000Z</time>
      </trkpt>
      <trkpt lat="22.748182" lon="110.263849">
        <ele>124.625385</ele>
        <time>2026-08-16T07:40:10.000Z</time>
      </trkpt>
      <trkpt lat="22.748220" lon="110.263889">
        <ele>124.642564</ele>
        <time>2026-08-16T07:40:11.000Z</time>
      </trkpt>
      <trkpt lat="22.748255" lon="110.263926">
        <ele>124.658420</ele>
        <time>2026-08-16T07:40:12.000Z</time>
      </trkpt>
      <trkpt lat="22.748287" lon="110.263971">
        <ele>124.675420</ele>
        <time>2026-08-16T07:40:13.000Z</time>
      </trkpt>
      <trkpt lat="22.748322" lon="110.264014">
        <ele>124.692577</ele>
        <time>2026-08-16T07:40:14.000Z</time>
      </trkpt>
      <trkpt lat="22.748357" lon="110.264058">
        <ele>124.709960</ele>
        <time>2026-08-16T07:40:15.000Z</time>
      </trkpt>
      <trkpt lat="22.748395" lon="110.264101">
        <ele>124.727776</ele>
        <time>2026-08-16T07:40:16.000Z</time>
      </trkpt>
      <trkpt lat="22.748434" lon="110.264146">
        <ele>124.746250</ele>
        <time>2026-08-16T07:40:17.000Z</time>
      </trkpt>
      <trkpt lat="22.748474" lon="110.264191">
        <ele>124.764947</ele>
        <time>2026-08-16T07:40:18.000Z</time>
      </trkpt>
      <trkpt lat="22.748513" lon="110.264235">
        <ele>124.783204</ele>
        <time>2026-08-16T07:40:19.000Z</time>
      </trkpt>
      <trkpt lat="22.748554" lon="110.264281">
        <ele>124.802342</ele>
        <time>2026-08-16T07:40:20.000Z</time>
      </trkpt>
      <trkpt lat="22.748592" lon="110.264325">
        <ele>124.820375</ele>
        <time>2026-08-16T07:40:21.000Z</time>
      </trkpt>
      <trkpt lat="22.748630" lon="110.264366">
        <ele>124.837764</ele>
        <time>2026-08-16T07:40:22.000Z</time>
      </trkpt>
      <trkpt lat="22.748672" lon="110.264405">
        <ele>124.855701</ele>
        <time>2026-08-16T07:40:23.000Z</time>
      </trkpt>
      <trkpt lat="22.748718" lon="110.264444">
        <ele>124.874643</ele>
        <time>2026-08-16T07:40:24.000Z</time>
      </trkpt>
      <trkpt lat="22.748758" lon="110.264485">
        <ele>124.892498</ele>
        <time>2026-08-16T07:40:25.000Z</time>
      </trkpt>
      <trkpt lat="22.748794" lon="110.264529">
        <ele>124.910094</ele>
        <time>2026-08-16T07:40:26.000Z</time>
      </trkpt>
      <trkpt lat="22.748829" lon="110.264573">
        <ele>124.927990</ele>
        <time>2026-08-16T07:40:27.000Z</time>
      </trkpt>
      <trkpt lat="22.748864" lon="110.264615">
        <ele>124.945941</ele>
        <time>2026-08-16T07:40:28.000Z</time>
      </trkpt>
      <trkpt lat="22.748901" lon="110.264659">
        <ele>124.964825</ele>
        <time>2026-08-16T07:40:29.000Z</time>
      </trkpt>
      <trkpt lat="22.748939" lon="110.264706">
        <ele>124.984646</ele>
        <time>2026-08-16T07:40:30.000Z</time>
      </trkpt>
      <trkpt lat="22.748973" lon="110.264753">
        <ele>125.003590</ele>
        <time>2026-08-16T07:40:31.000Z</time>
      </trkpt>
      <trkpt lat="22.749010" lon="110.264797">
        <ele>125.022473</ele>
        <time>2026-08-16T07:40:32.000Z</time>
      </trkpt>
      <trkpt lat="22.749042" lon="110.264847">
        <ele>125.041774</ele>
        <time>2026-08-16T07:40:33.000Z</time>
      </trkpt>
      <trkpt lat="22.749077" lon="110.264892">
        <ele>125.060442</ele>
        <time>2026-08-16T07:40:34.000Z</time>
      </trkpt>
      <trkpt lat="22.749111" lon="110.264939">
        <ele>125.079385</ele>
        <time>2026-08-16T07:40:35.000Z</time>
      </trkpt>
      <trkpt lat="22.749144" lon="110.264989">
        <ele>125.098884</ele>
        <time>2026-08-16T07:40:36.000Z</time>
      </trkpt>
      <trkpt lat="22.749177" lon="110.265039">
        <ele>125.118382</ele>
        <time>2026-08-16T07:40:37.000Z</time>
      </trkpt>
      <trkpt lat="22.749211" lon="110.265089">
        <ele>125.138083</ele>
        <time>2026-08-16T07:40:38.000Z</time>
      </trkpt>
      <trkpt lat="22.749245" lon="110.265137">
        <ele>125.157277</ele>
        <time>2026-08-16T07:40:39.000Z</time>
      </trkpt>
      <trkpt lat="22.749279" lon="110.265186">
        <ele>125.176723</ele>
        <time>2026-08-16T07:40:40.000Z</time>
      </trkpt>
      <trkpt lat="22.749309" lon="110.265235">
        <ele>125.195375</ele>
        <time>2026-08-16T07:40:41.000Z</time>
      </trkpt>
      <trkpt lat="22.749337" lon="110.265285">
        <ele>125.213925</ele>
        <time>2026-08-16T07:40:42.000Z</time>
      </trkpt>
      <trkpt lat="22.749367" lon="110.265335">
        <ele>125.232842</ele>
        <time>2026-08-16T07:40:43.000Z</time>
      </trkpt>
      <trkpt lat="22.749398" lon="110.265383">
        <ele>125.251425</ele>
        <time>2026-08-16T07:40:44.000Z</time>
      </trkpt>
      <trkpt lat="22.749429" lon="110.265431">
        <ele>125.270009</ele>
        <time>2026-08-16T07:40:45.000Z</time>
      </trkpt>
      <trkpt lat="22.749460" lon="110.265481">
        <ele>125.289115</ele>
        <time>2026-08-16T07:40:46.000Z</time>
      </trkpt>
      <trkpt lat="22.749487" lon="110.265531">
        <ele>125.307489</ele>
        <time>2026-08-16T07:40:47.000Z</time>
      </trkpt>
      <trkpt lat="22.749516" lon="110.265580">
        <ele>125.325953</ele>
        <time>2026-08-16T07:40:48.000Z</time>
      </trkpt>
      <trkpt lat="22.749546" lon="110.265626">
        <ele>125.343820</ele>
        <time>2026-08-16T07:40:49.000Z</time>
      </trkpt>
      <trkpt lat="22.749574" lon="110.265671">
        <ele>125.361035</ele>
        <time>2026-08-16T07:40:50.000Z</time>
      </trkpt>
      <trkpt lat="22.749602" lon="110.265718">
        <ele>125.378779</ele>
        <time>2026-08-16T07:40:51.000Z</time>
      </trkpt>
      <trkpt lat="22.749630" lon="110.265765">
        <ele>125.396523</ele>
        <time>2026-08-16T07:40:52.000Z</time>
      </trkpt>
      <trkpt lat="22.749655" lon="110.265813">
        <ele>125.414005</ele>
        <time>2026-08-16T07:40:53.000Z</time>
      </trkpt>
      <trkpt lat="22.749677" lon="110.265861">
        <ele>125.431003</ele>
        <time>2026-08-16T07:40:54.000Z</time>
      </trkpt>
      <trkpt lat="22.749697" lon="110.265911">
        <ele>125.448287</ele>
        <time>2026-08-16T07:40:55.000Z</time>
      </trkpt>
      <trkpt lat="22.749714" lon="110.265963">
        <ele>125.465783</ele>
        <time>2026-08-16T07:40:56.000Z</time>
      </trkpt>
      <trkpt lat="22.749732" lon="110.266012">
        <ele>125.482509</ele>
        <time>2026-08-16T07:40:57.000Z</time>
      </trkpt>
      <trkpt lat="22.749754" lon="110.266058">
        <ele>125.498942</ele>
        <time>2026-08-16T07:40:58.000Z</time>
      </trkpt>
      <trkpt lat="22.749779" lon="110.266109">
        <ele>125.517258</ele>
        <time>2026-08-16T07:40:59.000Z</time>
      </trkpt>
      <trkpt lat="22.749815" lon="110.266157">
        <ele>125.536878</ele>
        <time>2026-08-16T07:41:00.000Z</time>
      </trkpt>
      <trkpt lat="22.749847" lon="110.266205">
        <ele>125.559501</ele>
        <time>2026-08-16T07:41:01.000Z</time>
      </trkpt>
      <trkpt lat="22.749872" lon="110.266262">
        <ele>125.583738</ele>
        <time>2026-08-16T07:41:02.000Z</time>
      </trkpt>
      <trkpt lat="22.749891" lon="110.266318">
        <ele>125.606651</ele>
        <time>2026-08-16T07:41:03.000Z</time>
      </trkpt>
      <trkpt lat="22.749908" lon="110.266377">
        <ele>125.630387</ele>
        <time>2026-08-16T07:41:04.000Z</time>
      </trkpt>
      <trkpt lat="22.749923" lon="110.266439">
        <ele>125.655001</ele>
        <time>2026-08-16T07:41:05.000Z</time>
      </trkpt>
      <trkpt lat="22.749943" lon="110.266496">
        <ele>125.678419</ele>
        <time>2026-08-16T07:41:06.000Z</time>
      </trkpt>
      <trkpt lat="22.749962" lon="110.266555">
        <ele>125.702417</ele>
        <time>2026-08-16T07:41:07.000Z</time>
      </trkpt>
      <trkpt lat="22.749982" lon="110.266611">
        <ele>125.725477</ele>
        <time>2026-08-16T07:41:08.000Z</time>
      </trkpt>
      <trkpt lat="22.750002" lon="110.266666">
        <ele>125.748179</ele>
        <time>2026-08-16T07:41:09.000Z</time>
      </trkpt>
      <trkpt lat="22.750023" lon="110.266722">
        <ele>125.771393</ele>
        <time>2026-08-16T07:41:10.000Z</time>
      </trkpt>
      <trkpt lat="22.750045" lon="110.266777">
        <ele>125.794414</ele>
        <time>2026-08-16T07:41:11.000Z</time>
      </trkpt>
      <trkpt lat="22.750067" lon="110.266830">
        <ele>125.816732</ele>
        <time>2026-08-16T07:41:12.000Z</time>
      </trkpt>
      <trkpt lat="22.750086" lon="110.266887">
        <ele>125.840006</ele>
        <time>2026-08-16T07:41:13.000Z</time>
      </trkpt>
      <trkpt lat="22.750107" lon="110.266941">
        <ele>125.862510</ele>
        <time>2026-08-16T07:41:14.000Z</time>
      </trkpt>
      <trkpt lat="22.750129" lon="110.266995">
        <ele>125.885179</ele>
        <time>2026-08-16T07:41:15.000Z</time>
      </trkpt>
      <trkpt lat="22.750149" lon="110.267052">
        <ele>125.908598</ele>
        <time>2026-08-16T07:41:16.000Z</time>
      </trkpt>
      <trkpt lat="22.750171" lon="110.267107">
        <ele>125.931619</ele>
        <time>2026-08-16T07:41:17.000Z</time>
      </trkpt>
      <trkpt lat="22.750193" lon="110.267161">
        <ele>125.954288</ele>
        <time>2026-08-16T07:41:18.000Z</time>
      </trkpt>
      <trkpt lat="22.750214" lon="110.267214">
        <ele>125.976439</ele>
        <time>2026-08-16T07:41:19.000Z</time>
      </trkpt>
      <trkpt lat="22.750235" lon="110.267268">
        <ele>125.998943</ele>
        <time>2026-08-16T07:41:20.000Z</time>
      </trkpt>
      <trkpt lat="22.750254" lon="110.267324">
        <ele>126.021856</ele>
        <time>2026-08-16T07:41:21.000Z</time>
      </trkpt>
      <trkpt lat="22.750276" lon="110.267378">
        <ele>126.044525</ele>
        <time>2026-08-16T07:41:22.000Z</time>
      </trkpt>
      <trkpt lat="22.750296" lon="110.267433">
        <ele>126.067227</ele>
        <time>2026-08-16T07:41:23.000Z</time>
      </trkpt>
      <trkpt lat="22.750314" lon="110.267487">
        <ele>126.089276</ele>
        <time>2026-08-16T07:41:24.000Z</time>
      </trkpt>
      <trkpt lat="22.750330" lon="110.267542">
        <ele>126.111422</ele>
        <time>2026-08-16T07:41:25.000Z</time>
      </trkpt>
      <trkpt lat="22.750348" lon="110.267596">
        <ele>126.133470</ele>
        <time>2026-08-16T07:41:26.000Z</time>
      </trkpt>
      <trkpt lat="22.750366" lon="110.267647">
        <ele>126.154439</ele>
        <time>2026-08-16T07:41:27.000Z</time>
      </trkpt>
      <trkpt lat="22.750386" lon="110.267699">
        <ele>126.176074</ele>
        <time>2026-08-16T07:41:28.000Z</time>
      </trkpt>
      <trkpt lat="22.750408" lon="110.267750">
        <ele>126.197695</ele>
        <time>2026-08-16T07:41:29.000Z</time>
      </trkpt>
      <trkpt lat="22.750429" lon="110.267802">
        <ele>126.219493</ele>
        <time>2026-08-16T07:41:30.000Z</time>
      </trkpt>
      <trkpt lat="22.750451" lon="110.267853">
        <ele>126.241113</ele>
        <time>2026-08-16T07:41:31.000Z</time>
      </trkpt>
      <trkpt lat="22.750474" lon="110.267905">
        <ele>126.263259</ele>
        <time>2026-08-16T07:41:32.000Z</time>
      </trkpt>
      <trkpt lat="22.750492" lon="110.267959">
        <ele>126.285308</ele>
        <time>2026-08-16T07:41:33.000Z</time>
      </trkpt>
      <trkpt lat="22.750510" lon="110.268011">
        <ele>126.262412</ele>
        <time>2026-08-16T07:41:34.000Z</time>
      </trkpt>
      <trkpt lat="22.750530" lon="110.268058">
        <ele>126.238873</ele>
        <time>2026-08-16T07:41:35.000Z</time>
      </trkpt>
      <trkpt lat="22.750551" lon="110.268104">
        <ele>126.215531</ele>
        <time>2026-08-16T07:41:36.000Z</time>
      </trkpt>
      <trkpt lat="22.750572" lon="110.268158">
        <ele>126.188880</ele>
        <time>2026-08-16T07:41:37.000Z</time>
      </trkpt>
      <trkpt lat="22.750595" lon="110.268210">
        <ele>126.162654</ele>
        <time>2026-08-16T07:41:38.000Z</time>
      </trkpt>
      <trkpt lat="22.750611" lon="110.268259">
        <ele>126.139015</ele>
        <time>2026-08-16T07:41:39.000Z</time>
      </trkpt>
      <trkpt lat="22.750630" lon="110.268310">
        <ele>126.114002</ele>
        <time>2026-08-16T07:41:40.000Z</time>
      </trkpt>
      <trkpt lat="22.750650" lon="110.268362">
        <ele>126.088380</ele>
        <time>2026-08-16T07:41:41.000Z</time>
      </trkpt>
      <trkpt lat="22.750670" lon="110.268414">
        <ele>126.062759</ele>
        <time>2026-08-16T07:41:42.000Z</time>
      </trkpt>
      <trkpt lat="22.750690" lon="110.268468">
        <ele>126.036296</ele>
        <time>2026-08-16T07:41:43.000Z</time>
      </trkpt>
      <trkpt lat="22.750711" lon="110.268523">
        <ele>126.009225</ele>
        <time>2026-08-16T07:41:44.000Z</time>
      </trkpt>
      <trkpt lat="22.750733" lon="110.268577">
        <ele>125.982379</ele>
        <time>2026-08-16T07:41:45.000Z</time>
      </trkpt>
      <trkpt lat="22.750753" lon="110.268632">
        <ele>125.955493</ele>
        <time>2026-08-16T07:41:46.000Z</time>
      </trkpt>
      <trkpt lat="22.750774" lon="110.268687">
        <ele>125.928423</ele>
        <time>2026-08-16T07:41:47.000Z</time>
      </trkpt>
      <trkpt lat="22.750796" lon="110.268743">
        <ele>125.900742</ele>
        <time>2026-08-16T07:41:48.000Z</time>
      </trkpt>
      <trkpt lat="22.750816" lon="110.268803">
        <ele>125.871729</ele>
        <time>2026-08-16T07:41:49.000Z</time>
      </trkpt>
      <trkpt lat="22.750839" lon="110.268863">
        <ele>125.842181</ele>
        <time>2026-08-16T07:41:50.000Z</time>
      </trkpt>
      <trkpt lat="22.750859" lon="110.268924">
        <ele>125.812740</ele>
        <time>2026-08-16T07:41:51.000Z</time>
      </trkpt>
      <trkpt lat="22.750877" lon="110.268986">
        <ele>125.783181</ele>
        <time>2026-08-16T07:41:52.000Z</time>
      </trkpt>
      <trkpt lat="22.750897" lon="110.269048">
        <ele>125.753311</ele>
        <time>2026-08-16T07:41:53.000Z</time>
      </trkpt>
      <trkpt lat="22.750916" lon="110.269111">
        <ele>125.723168</ele>
        <time>2026-08-16T07:41:54.000Z</time>
      </trkpt>
      <trkpt lat="22.750934" lon="110.269177">
        <ele>125.691870</ele>
        <time>2026-08-16T07:41:55.000Z</time>
      </trkpt>
      <trkpt lat="22.750954" lon="110.269242">
        <ele>125.660709</ele>
        <time>2026-08-16T07:41:56.000Z</time>
      </trkpt>
      <trkpt lat="22.750971" lon="110.269307">
        <ele>125.629984</ele>
        <time>2026-08-16T07:41:57.000Z</time>
      </trkpt>
      <trkpt lat="22.750987" lon="110.269372">
        <ele>125.599390</ele>
        <time>2026-08-16T07:41:58.000Z</time>
      </trkpt>
      <trkpt lat="22.751007" lon="110.269436">
        <ele>125.568661</ele>
        <time>2026-08-16T07:41:59.000Z</time>
      </trkpt>
      <trkpt lat="22.751024" lon="110.269499">
        <ele>125.538810</ele>
        <time>2026-08-16T07:42:00.000Z</time>
      </trkpt>
      <trkpt lat="22.751040" lon="110.269562">
        <ele>125.509094</ele>
        <time>2026-08-16T07:42:01.000Z</time>
      </trkpt>
      <trkpt lat="22.751057" lon="110.269624">
        <ele>125.479679</ele>
        <time>2026-08-16T07:42:02.000Z</time>
      </trkpt>
      <trkpt lat="22.751075" lon="110.269686">
        <ele>125.450121</ele>
        <time>2026-08-16T07:42:03.000Z</time>
      </trkpt>
      <trkpt lat="22.751093" lon="110.269750">
        <ele>125.419693</ele>
        <time>2026-08-16T07:42:04.000Z</time>
      </trkpt>
      <trkpt lat="22.751110" lon="110.269814">
        <ele>125.401823</ele>
        <time>2026-08-16T07:42:05.000Z</time>
      </trkpt>
      <trkpt lat="22.751126" lon="110.269877">
        <ele>125.408871</ele>
        <time>2026-08-16T07:42:06.000Z</time>
      </trkpt>
      <trkpt lat="22.751142" lon="110.269937">
        <ele>125.415608</ele>
        <time>2026-08-16T07:42:07.000Z</time>
      </trkpt>
      <trkpt lat="22.751155" lon="110.269996">
        <ele>125.422152</ele>
        <time>2026-08-16T07:42:08.000Z</time>
      </trkpt>
      <trkpt lat="22.751164" lon="110.270058">
        <ele>125.428922</ele>
        <time>2026-08-16T07:42:09.000Z</time>
      </trkpt>
      <trkpt lat="22.751173" lon="110.270116">
        <ele>125.435266</ele>
        <time>2026-08-16T07:42:10.000Z</time>
      </trkpt>
      <trkpt lat="22.751177" lon="110.270171">
        <ele>125.441217</ele>
        <time>2026-08-16T07:42:11.000Z</time>
      </trkpt>
      <trkpt lat="22.751186" lon="110.270227">
        <ele>125.447349</ele>
        <time>2026-08-16T07:42:12.000Z</time>
      </trkpt>
      <trkpt lat="22.751194" lon="110.270283">
        <ele>125.453461</ele>
        <time>2026-08-16T07:42:13.000Z</time>
      </trkpt>
      <trkpt lat="22.751209" lon="110.270337">
        <ele>125.459545</ele>
        <time>2026-08-16T07:42:14.000Z</time>
      </trkpt>
      <trkpt lat="22.751222" lon="110.270397">
        <ele>125.466193</ele>
        <time>2026-08-16T07:42:15.000Z</time>
      </trkpt>
      <trkpt lat="22.751236" lon="110.270453">
        <ele>125.472451</ele>
        <time>2026-08-16T07:42:16.000Z</time>
      </trkpt>
      <trkpt lat="22.751250" lon="110.270509">
        <ele>125.478710</ele>
        <time>2026-08-16T07:42:17.000Z</time>
      </trkpt>
      <trkpt lat="22.751264" lon="110.270565">
        <ele>125.484968</ele>
        <time>2026-08-16T07:42:18.000Z</time>
      </trkpt>
      <trkpt lat="22.751279" lon="110.270619">
        <ele>125.491052</ele>
        <time>2026-08-16T07:42:19.000Z</time>
      </trkpt>
      <trkpt lat="22.751294" lon="110.270676">
        <ele>125.497446</ele>
        <time>2026-08-16T07:42:20.000Z</time>
      </trkpt>
      <trkpt lat="22.751309" lon="110.270732">
        <ele>125.503736</ele>
        <time>2026-08-16T07:42:21.000Z</time>
      </trkpt>
      <trkpt lat="22.751323" lon="110.270788">
        <ele>125.509994</ele>
        <time>2026-08-16T07:42:22.000Z</time>
      </trkpt>
      <trkpt lat="22.751338" lon="110.270844">
        <ele>125.516285</ele>
        <time>2026-08-16T07:42:23.000Z</time>
      </trkpt>
      <trkpt lat="22.751352" lon="110.270899">
        <ele>125.522439</ele>
        <time>2026-08-16T07:42:24.000Z</time>
      </trkpt>
      <trkpt lat="22.751365" lon="110.270957">
        <ele>125.528877</ele>
        <time>2026-08-16T07:42:25.000Z</time>
      </trkpt>
      <trkpt lat="22.751377" lon="110.271014">
        <ele>125.535184</ele>
        <time>2026-08-16T07:42:26.000Z</time>
      </trkpt>
      <trkpt lat="22.751388" lon="110.271072">
        <ele>125.541571</ele>
        <time>2026-08-16T07:42:27.000Z</time>
      </trkpt>
      <trkpt lat="22.751399" lon="110.271128">
        <ele>125.547747</ele>
        <time>2026-08-16T07:42:28.000Z</time>
      </trkpt>
      <trkpt lat="22.751408" lon="110.271182">
        <ele>125.553666</ele>
        <time>2026-08-16T07:42:29.000Z</time>
      </trkpt>
      <trkpt lat="22.751415" lon="110.271235">
        <ele>125.559442</ele>
        <time>2026-08-16T07:42:30.000Z</time>
      </trkpt>
      <trkpt lat="22.751422" lon="110.271287">
        <ele>125.565110</ele>
        <time>2026-08-16T07:42:31.000Z</time>
      </trkpt>
      <trkpt lat="22.751428" lon="110.271336">
        <ele>125.570442</ele>
        <time>2026-08-16T07:42:32.000Z</time>
      </trkpt>
      <trkpt lat="22.751439" lon="110.271385">
        <ele>125.575882</ele>
        <time>2026-08-16T07:42:33.000Z</time>
      </trkpt>
      <trkpt lat="22.751450" lon="110.271436">
        <ele>125.581532</ele>
        <time>2026-08-16T07:42:34.000Z</time>
      </trkpt>
      <trkpt lat="22.751462" lon="110.271488">
        <ele>125.587314</ele>
        <time>2026-08-16T07:42:35.000Z</time>
      </trkpt>
      <trkpt lat="22.751473" lon="110.271539">
        <ele>125.592963</ele>
        <time>2026-08-16T07:42:36.000Z</time>
      </trkpt>
      <trkpt lat="22.751487" lon="110.271590">
        <ele>125.598703</ele>
        <time>2026-08-16T07:42:37.000Z</time>
      </trkpt>
      <trkpt lat="22.751499" lon="110.271641">
        <ele>125.604380</ele>
        <time>2026-08-16T07:42:38.000Z</time>
      </trkpt>
      <trkpt lat="22.751508" lon="110.271694">
        <ele>125.608797</ele>
        <time>2026-08-16T07:42:39.000Z</time>
      </trkpt>
      <trkpt lat="22.751516" lon="110.271744">
        <ele>125.593506</ele>
        <time>2026-08-16T07:42:40.000Z</time>
      </trkpt>
      <trkpt lat="22.751526" lon="110.271796">
        <ele>125.577502</ele>
        <time>2026-08-16T07:42:41.000Z</time>
      </trkpt>
      <trkpt lat="22.751533" lon="110.271847">
        <ele>125.561966</ele>
        <time>2026-08-16T07:42:42.000Z</time>
      </trkpt>
      <trkpt lat="22.751541" lon="110.271897">
        <ele>125.546676</ele>
        <time>2026-08-16T07:42:43.000Z</time>
      </trkpt>
      <trkpt lat="22.751554" lon="110.271945">
        <ele>125.531602</ele>
        <time>2026-08-16T07:42:44.000Z</time>
      </trkpt>
      <trkpt lat="22.751565" lon="110.271997">
        <ele>125.515527</ele>
        <time>2026-08-16T07:42:45.000Z</time>
      </trkpt>
      <trkpt lat="22.751574" lon="110.272051">
        <ele>125.498993</ele>
        <time>2026-08-16T07:42:46.000Z</time>
      </trkpt>
      <trkpt lat="22.751584" lon="110.272104">
        <ele>125.482694</ele>
        <time>2026-08-16T07:42:47.000Z</time>
      </trkpt>
      <trkpt lat="22.751596" lon="110.272157">
        <ele>125.466250</ele>
        <time>2026-08-16T07:42:48.000Z</time>
      </trkpt>
      <trkpt lat="22.751608" lon="110.272203">
        <ele>125.451846</ele>
        <time>2026-08-16T07:42:49.000Z</time>
      </trkpt>
      <trkpt lat="22.751618" lon="110.272250">
        <ele>125.437313</ele>
        <time>2026-08-16T07:42:50.000Z</time>
      </trkpt>
      <trkpt lat="22.751623" lon="110.272301">
        <ele>125.421860</ele>
        <time>2026-08-16T07:42:51.000Z</time>
      </trkpt>
      <trkpt lat="22.751631" lon="110.272351">
        <ele>125.406570</ele>
        <time>2026-08-16T07:42:52.000Z</time>
      </trkpt>
      <trkpt lat="22.751636" lon="110.272405">
        <ele>125.390218</ele>
        <time>2026-08-16T07:42:53.000Z</time>
      </trkpt>
      <trkpt lat="22.751638" lon="110.272459">
        <ele>125.373934</ele>
        <time>2026-08-16T07:42:54.000Z</time>
      </trkpt>
      <trkpt lat="22.751639" lon="110.272515">
        <ele>125.357058</ele>
        <time>2026-08-16T07:42:55.000Z</time>
      </trkpt>
      <trkpt lat="22.751641" lon="110.272571">
        <ele>125.340172</ele>
        <time>2026-08-16T07:42:56.000Z</time>
      </trkpt>
      <trkpt lat="22.751645" lon="110.272628">
        <ele>125.322948</ele>
        <time>2026-08-16T07:42:57.000Z</time>
      </trkpt>
      <trkpt lat="22.751648" lon="110.272686">
        <ele>125.305445</ele>
        <time>2026-08-16T07:42:58.000Z</time>
      </trkpt>
      <trkpt lat="22.751652" lon="110.272744">
        <ele>125.287921</ele>
        <time>2026-08-16T07:42:59.000Z</time>
      </trkpt>
      <trkpt lat="22.751656" lon="110.272801">
        <ele>125.270697</ele>
        <time>2026-08-16T07:43:00.000Z</time>
      </trkpt>
      <trkpt lat="22.751661" lon="110.272859">
        <ele>125.253145</ele>
        <time>2026-08-16T07:43:01.000Z</time>
      </trkpt>
      <trkpt lat="22.751665" lon="110.272920">
        <ele>125.234719</ele>
        <time>2026-08-16T07:43:02.000Z</time>
      </trkpt>
      <trkpt lat="22.751670" lon="110.272981">
        <ele>125.216267</ele>
        <time>2026-08-16T07:43:03.000Z</time>
      </trkpt>
      <trkpt lat="22.751675" lon="110.273042">
        <ele>125.197816</ele>
        <time>2026-08-16T07:43:04.000Z</time>
      </trkpt>
      <trkpt lat="22.751681" lon="110.273103">
        <ele>125.179332</ele>
        <time>2026-08-16T07:43:05.000Z</time>
      </trkpt>
      <trkpt lat="22.751687" lon="110.273164">
        <ele>125.160848</ele>
        <time>2026-08-16T07:43:06.000Z</time>
      </trkpt>
      <trkpt lat="22.751693" lon="110.273224">
        <ele>125.142664</ele>
        <time>2026-08-16T07:43:07.000Z</time>
      </trkpt>
      <trkpt lat="22.751701" lon="110.273284">
        <ele>125.124398</ele>
        <time>2026-08-16T07:43:08.000Z</time>
      </trkpt>
      <trkpt lat="22.751708" lon="110.273345">
        <ele>125.105876</ele>
        <time>2026-08-16T07:43:09.000Z</time>
      </trkpt>
      <trkpt lat="22.751716" lon="110.273408">
        <ele>125.086715</ele>
        <time>2026-08-16T07:43:10.000Z</time>
      </trkpt>
      <trkpt lat="22.751723" lon="110.273469">
        <ele>125.068194</ele>
        <time>2026-08-16T07:43:11.000Z</time>
      </trkpt>
      <trkpt lat="22.751730" lon="110.273529">
        <ele>125.049972</ele>
        <time>2026-08-16T07:43:12.000Z</time>
      </trkpt>
      <trkpt lat="22.751739" lon="110.273590">
        <ele>125.031359</ele>
        <time>2026-08-16T07:43:13.000Z</time>
      </trkpt>
      <trkpt lat="22.751748" lon="110.273650">
        <ele>125.036544</ele>
        <time>2026-08-16T07:43:14.000Z</time>
      </trkpt>
      <trkpt lat="22.751759" lon="110.273712">
        <ele>125.066546</ele>
        <time>2026-08-16T07:43:15.000Z</time>
      </trkpt>
      <trkpt lat="22.751769" lon="110.273771">
        <ele>125.095051</ele>
        <time>2026-08-16T07:43:16.000Z</time>
      </trkpt>
      <trkpt lat="22.751780" lon="110.273832">
        <ele>125.124587</ele>
        <time>2026-08-16T07:43:17.000Z</time>
      </trkpt>
      <trkpt lat="22.751792" lon="110.273891">
        <ele>125.153296</ele>
        <time>2026-08-16T07:43:18.000Z</time>
      </trkpt>
      <trkpt lat="22.751802" lon="110.273952">
        <ele>125.182737</ele>
        <time>2026-08-16T07:43:19.000Z</time>
      </trkpt>
      <trkpt lat="22.751813" lon="110.274013">
        <ele>125.212272</ele>
        <time>2026-08-16T07:43:20.000Z</time>
      </trkpt>
      <trkpt lat="22.751825" lon="110.274074">
        <ele>125.241910</ele>
        <time>2026-08-16T07:43:21.000Z</time>
      </trkpt>
      <trkpt lat="22.751839" lon="110.274134">
        <ele>125.271320</ele>
        <time>2026-08-16T07:43:22.000Z</time>
      </trkpt>
      <trkpt lat="22.751856" lon="110.274194">
        <ele>125.301146</ele>
        <time>2026-08-16T07:43:23.000Z</time>
      </trkpt>
      <trkpt lat="22.751874" lon="110.274254">
        <ele>125.331128</ele>
        <time>2026-08-16T07:43:24.000Z</time>
      </trkpt>
      <trkpt lat="22.751894" lon="110.274312">
        <ele>125.360552</ele>
        <time>2026-08-16T07:43:25.000Z</time>
      </trkpt>
      <trkpt lat="22.751915" lon="110.274371">
        <ele>125.390604</ele>
        <time>2026-08-16T07:43:26.000Z</time>
      </trkpt>
      <trkpt lat="22.751936" lon="110.274430">
        <ele>125.420655</ele>
        <time>2026-08-16T07:43:27.000Z</time>
      </trkpt>
      <trkpt lat="22.751956" lon="110.274487">
        <ele>125.449635</ele>
        <time>2026-08-16T07:43:28.000Z</time>
      </trkpt>
      <trkpt lat="22.751977" lon="110.274542">
        <ele>125.477922</ele>
        <time>2026-08-16T07:43:29.000Z</time>
      </trkpt>
      <trkpt lat="22.751999" lon="110.274595">
        <ele>125.505540</ele>
        <time>2026-08-16T07:43:30.000Z</time>
      </trkpt>
      <trkpt lat="22.752022" lon="110.274644">
        <ele>125.531667</ele>
        <time>2026-08-16T07:43:31.000Z</time>
      </trkpt>
      <trkpt lat="22.752047" lon="110.274687">
        <ele>125.555821</ele>
        <time>2026-08-16T07:43:32.000Z</time>
      </trkpt>
      <trkpt lat="22.752072" lon="110.274731">
        <ele>125.580379</ele>
        <time>2026-08-16T07:43:33.000Z</time>
      </trkpt>
      <trkpt lat="22.752094" lon="110.274773">
        <ele>125.603332</ele>
        <time>2026-08-16T07:43:34.000Z</time>
      </trkpt>
      <trkpt lat="22.752115" lon="110.274817">
        <ele>125.626874</ele>
        <time>2026-08-16T07:43:35.000Z</time>
      </trkpt>
      <trkpt lat="22.752142" lon="110.274857">
        <ele>125.650429</ele>
        <time>2026-08-16T07:43:36.000Z</time>
      </trkpt>
      <trkpt lat="22.752169" lon="110.274897">
        <ele>125.673984</ele>
        <time>2026-08-16T07:43:37.000Z</time>
      </trkpt>
      <trkpt lat="22.752193" lon="110.274938">
        <ele>125.697060</ele>
        <time>2026-08-16T07:43:38.000Z</time>
      </trkpt>
      <trkpt lat="22.752216" lon="110.274978">
        <ele>125.719459</ele>
        <time>2026-08-16T07:43:39.000Z</time>
      </trkpt>
      <trkpt lat="22.752241" lon="110.275018">
        <ele>125.742421</ele>
        <time>2026-08-16T07:43:40.000Z</time>
      </trkpt>
      <trkpt lat="22.752268" lon="110.275057">
        <ele>125.765594</ele>
        <time>2026-08-16T07:43:41.000Z</time>
      </trkpt>
      <trkpt lat="22.752294" lon="110.275096">
        <ele>125.788461</ele>
        <time>2026-08-16T07:43:42.000Z</time>
      </trkpt>
      <trkpt lat="22.752315" lon="110.275136">
        <ele>125.810333</ele>
        <time>2026-08-16T07:43:43.000Z</time>
      </trkpt>
      <trkpt lat="22.752340" lon="110.275174">
        <ele>125.832514</ele>
        <time>2026-08-16T07:43:44.000Z</time>
      </trkpt>
      <trkpt lat="22.752362" lon="110.275216">
        <ele>125.855466</ele>
        <time>2026-08-16T07:43:45.000Z</time>
      </trkpt>
      <trkpt lat="22.752383" lon="110.275261">
        <ele>125.879432</ele>
        <time>2026-08-16T07:43:46.000Z</time>
      </trkpt>
      <trkpt lat="22.752404" lon="110.275306">
        <ele>125.903397</ele>
        <time>2026-08-16T07:43:47.000Z</time>
      </trkpt>
      <trkpt lat="22.752427" lon="110.275350">
        <ele>125.927430</ele>
        <time>2026-08-16T07:43:48.000Z</time>
      </trkpt>
      <trkpt lat="22.752444" lon="110.275391">
        <ele>125.948791</ele>
        <time>2026-08-16T07:43:49.000Z</time>
      </trkpt>
      <trkpt lat="22.752457" lon="110.275428">
        <ele>125.932295</ele>
        <time>2026-08-16T07:43:50.000Z</time>
      </trkpt>
      <trkpt lat="22.752471" lon="110.275472">
        <ele>125.912518</ele>
        <time>2026-08-16T07:43:51.000Z</time>
      </trkpt>
      <trkpt lat="22.752484" lon="110.275517">
        <ele>125.892483</ele>
        <time>2026-08-16T07:43:52.000Z</time>
      </trkpt>
      <trkpt lat="22.752498" lon="110.275560">
        <ele>125.873108</ele>
        <time>2026-08-16T07:43:53.000Z</time>
      </trkpt>
      <trkpt lat="22.752528" lon="110.275600">
        <ele>125.851201</ele>
        <time>2026-08-16T07:43:54.000Z</time>
      </trkpt>
      <trkpt lat="22.752552" lon="110.275646">
        <ele>125.828746</ele>
        <time>2026-08-16T07:43:55.000Z</time>
      </trkpt>
      <trkpt lat="22.752572" lon="110.275698">
        <ele>125.804807</ele>
        <time>2026-08-16T07:43:56.000Z</time>
      </trkpt>
      <trkpt lat="22.752594" lon="110.275749">
        <ele>125.780885</ele>
        <time>2026-08-16T07:43:57.000Z</time>
      </trkpt>
      <trkpt lat="22.752617" lon="110.275802">
        <ele>125.755998</ele>
        <time>2026-08-16T07:43:58.000Z</time>
      </trkpt>
      <trkpt lat="22.752647" lon="110.275853">
        <ele>125.730296</ele>
        <time>2026-08-16T07:43:59.000Z</time>
      </trkpt>
      <trkpt lat="22.752684" lon="110.275903">
        <ele>125.703058</ele>
        <time>2026-08-16T07:44:00.000Z</time>
      </trkpt>
      <trkpt lat="22.752709" lon="110.275955">
        <ele>125.678142</ele>
        <time>2026-08-16T07:44:01.000Z</time>
      </trkpt>
      <trkpt lat="22.752733" lon="110.276013">
        <ele>125.651132</ele>
        <time>2026-08-16T07:44:02.000Z</time>
      </trkpt>
      <trkpt lat="22.752761" lon="110.276069">
        <ele>125.624066</ele>
        <time>2026-08-16T07:44:03.000Z</time>
      </trkpt>
      <trkpt lat="22.752789" lon="110.276118">
        <ele>125.599574</ele>
        <time>2026-08-16T07:44:04.000Z</time>
      </trkpt>
      <trkpt lat="22.752812" lon="110.276155">
        <ele>125.580616</ele>
        <time>2026-08-16T07:44:05.000Z</time>
      </trkpt>
      <trkpt lat="22.752835" lon="110.276192">
        <ele>125.561657</ele>
        <time>2026-08-16T07:44:06.000Z</time>
      </trkpt>
      <trkpt lat="22.752857" lon="110.276223">
        <ele>125.545037</ele>
        <time>2026-08-16T07:44:07.000Z</time>
      </trkpt>
      <trkpt lat="22.752876" lon="110.276255">
        <ele>125.528867</ele>
        <time>2026-08-16T07:44:08.000Z</time>
      </trkpt>
      <trkpt lat="22.752900" lon="110.276287">
        <ele>125.511342</ele>
        <time>2026-08-16T07:44:09.000Z</time>
      </trkpt>
      <trkpt lat="22.752929" lon="110.276319">
        <ele>125.492279</ele>
        <time>2026-08-16T07:44:10.000Z</time>
      </trkpt>
      <trkpt lat="22.752959" lon="110.276350">
        <ele>125.473187</ele>
        <time>2026-08-16T07:44:11.000Z</time>
      </trkpt>
      <trkpt lat="22.752994" lon="110.276380">
        <ele>125.452632</ele>
        <time>2026-08-16T07:44:12.000Z</time>
      </trkpt>
      <trkpt lat="22.753032" lon="110.276408">
        <ele>125.431464</ele>
        <time>2026-08-16T07:44:13.000Z</time>
      </trkpt>
      <trkpt lat="22.753070" lon="110.276434">
        <ele>125.410763</ele>
        <time>2026-08-16T07:44:14.000Z</time>
      </trkpt>
      <trkpt lat="22.753113" lon="110.276454">
        <ele>125.389206</ele>
        <time>2026-08-16T07:44:15.000Z</time>
      </trkpt>
      <trkpt lat="22.753154" lon="110.276475">
        <ele>125.368315</ele>
        <time>2026-08-16T07:44:16.000Z</time>
      </trkpt>
      <trkpt lat="22.753196" lon="110.276495">
        <ele>125.347180</ele>
        <time>2026-08-16T07:44:17.000Z</time>
      </trkpt>
      <trkpt lat="22.753240" lon="110.276515">
        <ele>125.325199</ele>
        <time>2026-08-16T07:44:18.000Z</time>
      </trkpt>
      <trkpt lat="22.753283" lon="110.276532">
        <ele>125.304112</ele>
        <time>2026-08-16T07:44:19.000Z</time>
      </trkpt>
      <trkpt lat="22.753324" lon="110.276552">
        <ele>125.283399</ele>
        <time>2026-08-16T07:44:20.000Z</time>
      </trkpt>
      <trkpt lat="22.753364" lon="110.276575">
        <ele>125.262539</ele>
        <time>2026-08-16T07:44:21.000Z</time>
      </trkpt>
      <trkpt lat="22.753404" lon="110.276599">
        <ele>125.241477</ele>
        <time>2026-08-16T07:44:22.000Z</time>
      </trkpt>
      <trkpt lat="22.753443" lon="110.276622">
        <ele>125.221023</ele>
        <time>2026-08-16T07:44:23.000Z</time>
      </trkpt>
      <trkpt lat="22.753485" lon="110.276645">
        <ele>125.199344</ele>
        <time>2026-08-16T07:44:24.000Z</time>
      </trkpt>
      <trkpt lat="22.753525" lon="110.276671">
        <ele>125.177858</ele>
        <time>2026-08-16T07:44:25.000Z</time>
      </trkpt>
      <trkpt lat="22.753566" lon="110.276694">
        <ele>125.156590</ele>
        <time>2026-08-16T07:44:26.000Z</time>
      </trkpt>
      <trkpt lat="22.753600" lon="110.276726">
        <ele>125.135848</ele>
        <time>2026-08-16T07:44:27.000Z</time>
      </trkpt>
      <trkpt lat="22.753642" lon="110.276752">
        <ele>125.130439</ele>
        <time>2026-08-16T07:44:28.000Z</time>
      </trkpt>
      <trkpt lat="22.753685" lon="110.276781">
        <ele>125.165823</ele>
        <time>2026-08-16T07:44:29.000Z</time>
      </trkpt>
      <trkpt lat="22.753724" lon="110.276812">
        <ele>125.199611</ele>
        <time>2026-08-16T07:44:30.000Z</time>
      </trkpt>
      <trkpt lat="22.753768" lon="110.276837">
        <ele>125.234321</ele>
        <time>2026-08-16T07:44:31.000Z</time>
      </trkpt>
      <trkpt lat="22.753807" lon="110.276867">
        <ele>125.267732</ele>
        <time>2026-08-16T07:44:32.000Z</time>
      </trkpt>
      <trkpt lat="22.753850" lon="110.276898">
        <ele>125.303813</ele>
        <time>2026-08-16T07:44:33.000Z</time>
      </trkpt>
      <trkpt lat="22.753894" lon="110.276928">
        <ele>125.340130</ele>
        <time>2026-08-16T07:44:34.000Z</time>
      </trkpt>
      <trkpt lat="22.753940" lon="110.276958">
        <ele>125.377638</ele>
        <time>2026-08-16T07:44:35.000Z</time>
      </trkpt>
      <trkpt lat="22.753987" lon="110.276984">
        <ele>125.414506</ele>
        <time>2026-08-16T07:44:36.000Z</time>
      </trkpt>
      <trkpt lat="22.754034" lon="110.277013">
        <ele>125.452291</ele>
        <time>2026-08-16T07:44:37.000Z</time>
      </trkpt>
      <trkpt lat="22.754084" lon="110.277041">
        <ele>125.491612</ele>
        <time>2026-08-16T07:44:38.000Z</time>
      </trkpt>
      <trkpt lat="22.754132" lon="110.277071">
        <ele>125.530324</ele>
        <time>2026-08-16T07:44:39.000Z</time>
      </trkpt>
      <trkpt lat="22.754173" lon="110.277099">
        <ele>125.564181</ele>
        <time>2026-08-16T07:44:40.000Z</time>
      </trkpt>
      <trkpt lat="22.754215" lon="110.277130">
        <ele>125.599682</ele>
        <time>2026-08-16T07:44:41.000Z</time>
      </trkpt>
      <trkpt lat="22.754254" lon="110.277166">
        <ele>125.635469</ele>
        <time>2026-08-16T07:44:42.000Z</time>
      </trkpt>
      <trkpt lat="22.754293" lon="110.277193">
        <ele>125.667801</ele>
        <time>2026-08-16T07:44:43.000Z</time>
      </trkpt>
      <trkpt lat="22.754335" lon="110.277212">
        <ele>125.699599</ele>
        <time>2026-08-16T07:44:44.000Z</time>
      </trkpt>
      <trkpt lat="22.754375" lon="110.277233">
        <ele>125.730653</ele>
        <time>2026-08-16T07:44:45.000Z</time>
      </trkpt>
      <trkpt lat="22.754414" lon="110.277253">
        <ele>125.760798</ele>
        <time>2026-08-16T07:44:46.000Z</time>
      </trkpt>
      <trkpt lat="22.754460" lon="110.277274">
        <ele>125.795672</ele>
        <time>2026-08-16T07:44:47.000Z</time>
      </trkpt>
      <trkpt lat="22.754503" lon="110.277294">
        <ele>125.828366</ele>
        <time>2026-08-16T07:44:48.000Z</time>
      </trkpt>
      <trkpt lat="22.754545" lon="110.277319">
        <ele>125.861844</ele>
        <time>2026-08-16T07:44:49.000Z</time>
      </trkpt>
      <trkpt lat="22.754587" lon="110.277345">
        <ele>125.895637</ele>
        <time>2026-08-16T07:44:50.000Z</time>
      </trkpt>
      <trkpt lat="22.754632" lon="110.277370">
        <ele>125.930967</ele>
        <time>2026-08-16T07:44:51.000Z</time>
      </trkpt>
      <trkpt lat="22.754670" lon="110.277400">
        <ele>125.963811</ele>
        <time>2026-08-16T07:44:52.000Z</time>
      </trkpt>
      <trkpt lat="22.754699" lon="110.277429">
        <ele>125.991376</ele>
        <time>2026-08-16T07:44:53.000Z</time>
      </trkpt>
      <trkpt lat="22.754725" lon="110.277462">
        <ele>126.019344</ele>
        <time>2026-08-16T07:44:54.000Z</time>
      </trkpt>
      <trkpt lat="22.754747" lon="110.277499">
        <ele>126.047712</ele>
        <time>2026-08-16T07:44:55.000Z</time>
      </trkpt>
      <trkpt lat="22.754771" lon="110.277536">
        <ele>126.076860</ele>
        <time>2026-08-16T07:44:56.000Z</time>
      </trkpt>
      <trkpt lat="22.754795" lon="110.277575">
        <ele>126.107072</ele>
        <time>2026-08-16T07:44:57.000Z</time>
      </trkpt>
      <trkpt lat="22.754820" lon="110.277612">
        <ele>126.136629</ele>
        <time>2026-08-16T07:44:58.000Z</time>
      </trkpt>
      <trkpt lat="22.754847" lon="110.277649">
        <ele>126.167032</ele>
        <time>2026-08-16T07:44:59.000Z</time>
      </trkpt>
      <trkpt lat="22.754873" lon="110.277689">
        <ele>126.198566</ele>
        <time>2026-08-16T07:45:00.000Z</time>
      </trkpt>
      <trkpt lat="22.754893" lon="110.277730">
        <ele>126.228453</ele>
        <time>2026-08-16T07:45:01.000Z</time>
      </trkpt>
      <trkpt lat="22.754915" lon="110.277773">
        <ele>126.260140</ele>
        <time>2026-08-16T07:45:02.000Z</time>
      </trkpt>
      <trkpt lat="22.754936" lon="110.277818">
        <ele>126.292638</ele>
        <time>2026-08-16T07:45:03.000Z</time>
      </trkpt>
      <trkpt lat="22.754951" lon="110.277862">
        <ele>126.322865</ele>
        <time>2026-08-16T07:45:04.000Z</time>
      </trkpt>
      <trkpt lat="22.754973" lon="110.277906">
        <ele>126.355117</ele>
        <time>2026-08-16T07:45:05.000Z</time>
      </trkpt>
      <trkpt lat="22.754998" lon="110.277955">
        <ele>126.379950</ele>
        <time>2026-08-16T07:45:06.000Z</time>
      </trkpt>
      <trkpt lat="22.755023" lon="110.278002">
        <ele>126.387069</ele>
        <time>2026-08-16T07:45:07.000Z</time>
      </trkpt>
      <trkpt lat="22.755040" lon="110.278051">
        <ele>126.393939</ele>
        <time>2026-08-16T07:45:08.000Z</time>
      </trkpt>
      <trkpt lat="22.755045" lon="110.278094">
        <ele>126.399625</ele>
        <time>2026-08-16T07:45:09.000Z</time>
      </trkpt>
      <trkpt lat="22.755066" lon="110.278140">
        <ele>126.406360</ele>
        <time>2026-08-16T07:45:10.000Z</time>
      </trkpt>
      <trkpt lat="22.755093" lon="110.278185">
        <ele>126.413404</ele>
        <time>2026-08-16T07:45:11.000Z</time>
      </trkpt>
      <trkpt lat="22.755114" lon="110.278229">
        <ele>126.419905</ele>
        <time>2026-08-16T07:45:12.000Z</time>
      </trkpt>
      <trkpt lat="22.755129" lon="110.278279">
        <ele>126.426803</ele>
        <time>2026-08-16T07:45:13.000Z</time>
      </trkpt>
      <trkpt lat="22.755147" lon="110.278326">
        <ele>126.433481</ele>
        <time>2026-08-16T07:45:14.000Z</time>
      </trkpt>
      <trkpt lat="22.755160" lon="110.278372">
        <ele>126.439794</ele>
        <time>2026-08-16T07:45:15.000Z</time>
      </trkpt>
      <trkpt lat="22.755182" lon="110.278417">
        <ele>126.446476</ele>
        <time>2026-08-16T07:45:16.000Z</time>
      </trkpt>
      <trkpt lat="22.755205" lon="110.278462">
        <ele>126.453227</ele>
        <time>2026-08-16T07:45:17.000Z</time>
      </trkpt>
      <trkpt lat="22.755227" lon="110.278508">
        <ele>126.460026</ele>
        <time>2026-08-16T07:45:18.000Z</time>
      </trkpt>
      <trkpt lat="22.755258" lon="110.278550">
        <ele>126.467085</ele>
        <time>2026-08-16T07:45:19.000Z</time>
      </trkpt>
      <trkpt lat="22.755288" lon="110.278592">
        <ele>126.474055</ele>
        <time>2026-08-16T07:45:20.000Z</time>
      </trkpt>
      <trkpt lat="22.755310" lon="110.278638">
        <ele>126.480854</ele>
        <time>2026-08-16T07:45:21.000Z</time>
      </trkpt>
      <trkpt lat="22.755340" lon="110.278681">
        <ele>126.487929</ele>
        <time>2026-08-16T07:45:22.000Z</time>
      </trkpt>
      <trkpt lat="22.755378" lon="110.278721">
        <ele>126.495464</ele>
        <time>2026-08-16T07:45:23.000Z</time>
      </trkpt>
      <trkpt lat="22.755404" lon="110.278766">
        <ele>126.502431</ele>
        <time>2026-08-16T07:45:24.000Z</time>
      </trkpt>
      <trkpt lat="22.755439" lon="110.278810">
        <ele>126.510056</ele>
        <time>2026-08-16T07:45:25.000Z</time>
      </trkpt>
      <trkpt lat="22.755469" lon="110.278857">
        <ele>126.517556</ele>
        <time>2026-08-16T07:45:26.000Z</time>
      </trkpt>
      <trkpt lat="22.755492" lon="110.278907">
        <ele>126.524887</ele>
        <time>2026-08-16T07:45:27.000Z</time>
      </trkpt>
      <trkpt lat="22.755512" lon="110.278953">
        <ele>126.531560</ele>
        <time>2026-08-16T07:45:28.000Z</time>
      </trkpt>
      <trkpt lat="22.755530" lon="110.278998">
        <ele>126.537996</ele>
        <time>2026-08-16T07:45:29.000Z</time>
      </trkpt>
      <trkpt lat="22.755552" lon="110.279043">
        <ele>126.544678</ele>
        <time>2026-08-16T07:45:30.000Z</time>
      </trkpt>
      <trkpt lat="22.755575" lon="110.279086">
        <ele>126.551201</ele>
        <time>2026-08-16T07:45:31.000Z</time>
      </trkpt>
      <trkpt lat="22.755598" lon="110.279130">
        <ele>126.557837</ele>
        <time>2026-08-16T07:45:32.000Z</time>
      </trkpt>
      <trkpt lat="22.755622" lon="110.279175">
        <ele>126.564658</ele>
        <time>2026-08-16T07:45:33.000Z</time>
      </trkpt>
      <trkpt lat="22.755643" lon="110.279220">
        <ele>126.571275</ele>
        <time>2026-08-16T07:45:34.000Z</time>
      </trkpt>
      <trkpt lat="22.755666" lon="110.279264">
        <ele>126.577911</ele>
        <time>2026-08-16T07:45:35.000Z</time>
      </trkpt>
      <trkpt lat="22.755684" lon="110.279308">
        <ele>126.584227</ele>
        <time>2026-08-16T07:45:36.000Z</time>
      </trkpt>
      <trkpt lat="22.755694" lon="110.279358">
        <ele>126.590940</ele>
        <time>2026-08-16T07:45:37.000Z</time>
      </trkpt>
      <trkpt lat="22.755705" lon="110.279413">
        <ele>126.598324</ele>
        <time>2026-08-16T07:45:38.000Z</time>
      </trkpt>
      <trkpt lat="22.755725" lon="110.279462">
        <ele>126.605355</ele>
        <time>2026-08-16T07:45:39.000Z</time>
      </trkpt>
      <trkpt lat="22.755743" lon="110.279510">
        <ele>126.612153</ele>
        <time>2026-08-16T07:45:40.000Z</time>
      </trkpt>
      <trkpt lat="22.755757" lon="110.279561">
        <ele>126.619135</ele>
        <time>2026-08-16T07:45:41.000Z</time>
      </trkpt>
      <trkpt lat="22.755769" lon="110.279613">
        <ele>126.626168</ele>
        <time>2026-08-16T07:45:42.000Z</time>
      </trkpt>
      <trkpt lat="22.755784" lon="110.279661">
        <ele>126.632818</ele>
        <time>2026-08-16T07:45:43.000Z</time>
      </trkpt>
      <trkpt lat="22.755798" lon="110.279709">
        <ele>126.605767</ele>
        <time>2026-08-16T07:45:44.000Z</time>
      </trkpt>
      <trkpt lat="22.755808" lon="110.279757">
        <ele>126.578450</ele>
        <time>2026-08-16T07:45:45.000Z</time>
      </trkpt>
      <trkpt lat="22.755822" lon="110.279806">
        <ele>126.549973</ele>
        <time>2026-08-16T07:45:46.000Z</time>
      </trkpt>
      <trkpt lat="22.755834" lon="110.279858">
        <ele>126.520216</ele>
        <time>2026-08-16T07:45:47.000Z</time>
      </trkpt>
      <trkpt lat="22.755841" lon="110.279909">
        <ele>126.491593</ele>
        <time>2026-08-16T07:45:48.000Z</time>
      </trkpt>
      <trkpt lat="22.755855" lon="110.279960">
        <ele>126.462053</ele>
        <time>2026-08-16T07:45:49.000Z</time>
      </trkpt>
      <trkpt lat="22.755872" lon="110.280008">
        <ele>126.433510</ele>
        <time>2026-08-16T07:45:50.000Z</time>
      </trkpt>
      <trkpt lat="22.755889" lon="110.280060">
        <ele>126.402883</ele>
        <time>2026-08-16T07:45:51.000Z</time>
      </trkpt>
      <trkpt lat="22.755905" lon="110.280111">
        <ele>126.372978</ele>
        <time>2026-08-16T07:45:52.000Z</time>
      </trkpt>
      <trkpt lat="22.755919" lon="110.280161">
        <ele>126.343970</ele>
        <time>2026-08-16T07:45:53.000Z</time>
      </trkpt>
      <trkpt lat="22.755931" lon="110.280208">
        <ele>126.316898</ele>
        <time>2026-08-16T07:45:54.000Z</time>
      </trkpt>
      <trkpt lat="22.755950" lon="110.280261">
        <ele>126.285331</ele>
        <time>2026-08-16T07:45:55.000Z</time>
      </trkpt>
      <trkpt lat="22.755967" lon="110.280314">
        <ele>126.254180</ele>
        <time>2026-08-16T07:45:56.000Z</time>
      </trkpt>
      <trkpt lat="22.755972" lon="110.280367">
        <ele>126.224605</ele>
        <time>2026-08-16T07:45:57.000Z</time>
      </trkpt>
      <trkpt lat="22.755977" lon="110.280419">
        <ele>126.195582</ele>
        <time>2026-08-16T07:45:58.000Z</time>
      </trkpt>
      <trkpt lat="22.755988" lon="110.280470">
        <ele>126.166507</ele>
        <time>2026-08-16T07:45:59.000Z</time>
      </trkpt>
      <trkpt lat="22.755999" lon="110.280522">
        <ele>126.136890</ele>
        <time>2026-08-16T07:46:00.000Z</time>
      </trkpt>
      <trkpt lat="22.756017" lon="110.280572">
        <ele>126.107094</ele>
        <time>2026-08-16T07:46:01.000Z</time>
      </trkpt>
      <trkpt lat="22.756035" lon="110.280619">
        <ele>126.078842</ele>
        <time>2026-08-16T07:46:02.000Z</time>
      </trkpt>
      <trkpt lat="22.756053" lon="110.280664">
        <ele>126.051613</ele>
        <time>2026-08-16T07:46:03.000Z</time>
      </trkpt>
      <trkpt lat="22.756064" lon="110.280709">
        <ele>126.025770</ele>
        <time>2026-08-16T07:46:04.000Z</time>
      </trkpt>
      <trkpt lat="22.756072" lon="110.280750">
        <ele>126.002505</ele>
        <time>2026-08-16T07:46:05.000Z</time>
      </trkpt>
      <trkpt lat="22.756075" lon="110.280798">
        <ele>125.975798</ele>
        <time>2026-08-16T07:46:06.000Z</time>
      </trkpt>
      <trkpt lat="22.756083" lon="110.280848">
        <ele>125.947627</ele>
        <time>2026-08-16T07:46:07.000Z</time>
      </trkpt>
      <trkpt lat="22.756088" lon="110.280894">
        <ele>125.921915</ele>
        <time>2026-08-16T07:46:08.000Z</time>
      </trkpt>
      <trkpt lat="22.756090" lon="110.280942">
        <ele>125.895242</ele>
        <time>2026-08-16T07:46:09.000Z</time>
      </trkpt>
      <trkpt lat="22.756101" lon="110.280992">
        <ele>125.866706</ele>
        <time>2026-08-16T07:46:10.000Z</time>
      </trkpt>
      <trkpt lat="22.756102" lon="110.281036">
        <ele>125.842273</ele>
        <time>2026-08-16T07:46:11.000Z</time>
      </trkpt>
      <trkpt lat="22.756101" lon="110.281078">
        <ele>125.818950</ele>
        <time>2026-08-16T07:46:12.000Z</time>
      </trkpt>
      <trkpt lat="22.756107" lon="110.281126">
        <ele>125.792061</ele>
        <time>2026-08-16T07:46:13.000Z</time>
      </trkpt>
      <trkpt lat="22.756109" lon="110.281174">
        <ele>125.765388</ele>
        <time>2026-08-16T07:46:14.000Z</time>
      </trkpt>
      <trkpt lat="22.756114" lon="110.281218">
        <ele>125.740777</ele>
        <time>2026-08-16T07:46:15.000Z</time>
      </trkpt>
      <trkpt lat="22.756121" lon="110.281264">
        <ele>125.714896</ele>
        <time>2026-08-16T07:46:16.000Z</time>
      </trkpt>
      <trkpt lat="22.756127" lon="110.281318">
        <ele>125.684703</ele>
        <time>2026-08-16T07:46:17.000Z</time>
      </trkpt>
      <trkpt lat="22.756138" lon="110.281369">
        <ele>125.655627</ele>
        <time>2026-08-16T07:46:18.000Z</time>
      </trkpt>
      <trkpt lat="22.756149" lon="110.281417">
        <ele>125.628171</ele>
        <time>2026-08-16T07:46:19.000Z</time>
      </trkpt>
      <trkpt lat="22.756160" lon="110.281463">
        <ele>125.601790</ele>
        <time>2026-08-16T07:46:20.000Z</time>
      </trkpt>
      <trkpt lat="22.756194" lon="110.281502">
        <ele>125.571997</ele>
        <time>2026-08-16T07:46:21.000Z</time>
      </trkpt>
      <trkpt lat="22.756215" lon="110.281547">
        <ele>125.547569</ele>
        <time>2026-08-16T07:46:22.000Z</time>
      </trkpt>
      <trkpt lat="22.756234" lon="110.281594">
        <ele>125.535387</ele>
        <time>2026-08-16T07:46:23.000Z</time>
      </trkpt>
      <trkpt lat="22.756265" lon="110.281652">
        <ele>125.519473</ele>
        <time>2026-08-16T07:46:24.000Z</time>
      </trkpt>
      <trkpt lat="22.756296" lon="110.281711">
        <ele>125.503353</ele>
        <time>2026-08-16T07:46:25.000Z</time>
      </trkpt>
      <trkpt lat="22.756312" lon="110.281768">
        <ele>125.489209</ele>
        <time>2026-08-16T07:46:26.000Z</time>
      </trkpt>
      <trkpt lat="22.756322" lon="110.281817">
        <ele>125.477296</ele>
        <time>2026-08-16T07:46:27.000Z</time>
      </trkpt>
      <trkpt lat="22.756338" lon="110.281870">
        <ele>125.464057</ele>
        <time>2026-08-16T07:46:28.000Z</time>
      </trkpt>
      <trkpt lat="22.756358" lon="110.281922">
        <ele>125.450682</ele>
        <time>2026-08-16T07:46:29.000Z</time>
      </trkpt>
      <trkpt lat="22.756373" lon="110.281974">
        <ele>125.437748</ele>
        <time>2026-08-16T07:46:30.000Z</time>
      </trkpt>
      <trkpt lat="22.756389" lon="110.282027">
        <ele>125.424510</ele>
        <time>2026-08-16T07:46:31.000Z</time>
      </trkpt>
      <trkpt lat="22.756402" lon="110.282077">
        <ele>125.412178</ele>
        <time>2026-08-16T07:46:32.000Z</time>
      </trkpt>
      <trkpt lat="22.756410" lon="110.282129">
        <ele>125.399663</ele>
        <time>2026-08-16T07:46:33.000Z</time>
      </trkpt>
      <trkpt lat="22.756408" lon="110.282188">
        <ele>125.385648</ele>
        <time>2026-08-16T07:46:34.000Z</time>
      </trkpt>
      <trkpt lat="22.756423" lon="110.282245">
        <ele>125.371577</ele>
        <time>2026-08-16T07:46:35.000Z</time>
      </trkpt>
      <trkpt lat="22.756436" lon="110.282303">
        <ele>125.357407</ele>
        <time>2026-08-16T07:46:36.000Z</time>
      </trkpt>
      <trkpt lat="22.756456" lon="110.282363">
        <ele>125.342262</ele>
        <time>2026-08-16T07:46:37.000Z</time>
      </trkpt>
      <trkpt lat="22.756478" lon="110.282420">
        <ele>125.327594</ele>
        <time>2026-08-16T07:46:38.000Z</time>
      </trkpt>
      <trkpt lat="22.756492" lon="110.282476">
        <ele>125.313820</ele>
        <time>2026-08-16T07:46:39.000Z</time>
      </trkpt>
      <trkpt lat="22.756512" lon="110.282521">
        <ele>125.301962</ele>
        <time>2026-08-16T07:46:40.000Z</time>
      </trkpt>
      <trkpt lat="22.756536" lon="110.282565">
        <ele>125.289827</ele>
        <time>2026-08-16T07:46:41.000Z</time>
      </trkpt>
      <trkpt lat="22.756558" lon="110.282610">
        <ele>125.277736</ele>
        <time>2026-08-16T07:46:42.000Z</time>
      </trkpt>
      <trkpt lat="22.756589" lon="110.282656">
        <ele>125.264211</ele>
        <time>2026-08-16T07:46:43.000Z</time>
      </trkpt>
      <trkpt lat="22.756615" lon="110.282703">
        <ele>125.251200</ele>
        <time>2026-08-16T07:46:44.000Z</time>
      </trkpt>
      <trkpt lat="22.756630" lon="110.282747">
        <ele>125.240064</ele>
        <time>2026-08-16T07:46:45.000Z</time>
      </trkpt>
      <trkpt lat="22.756651" lon="110.282777">
        <ele>125.231123</ele>
        <time>2026-08-16T07:46:46.000Z</time>
      </trkpt>
      <trkpt lat="22.756679" lon="110.282810">
        <ele>125.220478</ele>
        <time>2026-08-16T07:46:47.000Z</time>
      </trkpt>
      <trkpt lat="22.756710" lon="110.282866">
        <ele>125.204973</ele>
        <time>2026-08-16T07:46:48.000Z</time>
      </trkpt>
      <trkpt lat="22.756728" lon="110.282916">
        <ele>125.192231</ele>
        <time>2026-08-16T07:46:49.000Z</time>
      </trkpt>
      <trkpt lat="22.756755" lon="110.282964">
        <ele>125.178884</ele>
        <time>2026-08-16T07:46:50.000Z</time>
      </trkpt>
      <trkpt lat="22.756787" lon="110.283009">
        <ele>125.165395</ele>
        <time>2026-08-16T07:46:51.000Z</time>
      </trkpt>
      <trkpt lat="22.756807" lon="110.283061">
        <ele>125.152020</ele>
        <time>2026-08-16T07:46:52.000Z</time>
      </trkpt>
      <trkpt lat="22.756830" lon="110.283108">
        <ele>125.139389</ele>
        <time>2026-08-16T07:46:53.000Z</time>
      </trkpt>
      <trkpt lat="22.756863" lon="110.283158">
        <ele>125.124793</ele>
        <time>2026-08-16T07:46:54.000Z</time>
      </trkpt>
      <trkpt lat="22.756889" lon="110.283205">
        <ele>125.111782</ele>
        <time>2026-08-16T07:46:55.000Z</time>
      </trkpt>
      <trkpt lat="22.756919" lon="110.283255">
        <ele>125.097622</ele>
        <time>2026-08-16T07:46:56.000Z</time>
      </trkpt>
      <trkpt lat="22.756959" lon="110.283305">
        <ele>125.066560</ele>
        <time>2026-08-16T07:46:57.000Z</time>
      </trkpt>
      <trkpt lat="22.756987" lon="110.283357">
        <ele>125.010958</ele>
        <time>2026-08-16T07:46:58.000Z</time>
      </trkpt>
      <trkpt lat="22.757015" lon="110.283406">
        <ele>124.957729</ele>
        <time>2026-08-16T07:46:59.000Z</time>
      </trkpt>
      <trkpt lat="22.757047" lon="110.283457">
        <ele>124.900768</ele>
        <time>2026-08-16T07:47:00.000Z</time>
      </trkpt>
      <trkpt lat="22.757087" lon="110.283513">
        <ele>124.835361</ele>
        <time>2026-08-16T07:47:01.000Z</time>
      </trkpt>
      <trkpt lat="22.757123" lon="110.283571">
        <ele>124.770802</ele>
        <time>2026-08-16T07:47:02.000Z</time>
      </trkpt>
      <trkpt lat="22.757166" lon="110.283622">
        <ele>124.706992</ele>
        <time>2026-08-16T07:47:03.000Z</time>
      </trkpt>
      <trkpt lat="22.757219" lon="110.283664">
        <ele>124.641261</ele>
        <time>2026-08-16T07:47:04.000Z</time>
      </trkpt>
      <trkpt lat="22.757256" lon="110.283716">
        <ele>124.580613</ele>
        <time>2026-08-16T07:47:05.000Z</time>
      </trkpt>
      <trkpt lat="22.757289" lon="110.283769">
        <ele>124.521562</ele>
        <time>2026-08-16T07:47:06.000Z</time>
      </trkpt>
      <trkpt lat="22.757329" lon="110.283825">
        <ele>124.456154</ele>
        <time>2026-08-16T07:47:07.000Z</time>
      </trkpt>
      <trkpt lat="22.757359" lon="110.283886">
        <ele>124.392317</ele>
        <time>2026-08-16T07:47:08.000Z</time>
      </trkpt>
      <trkpt lat="22.757388" lon="110.283942">
        <ele>124.333012</ele>
        <time>2026-08-16T07:47:09.000Z</time>
      </trkpt>
      <trkpt lat="22.757421" lon="110.284000">
        <ele>124.270082</ele>
        <time>2026-08-16T07:47:10.000Z</time>
      </trkpt>
      <trkpt lat="22.757467" lon="110.284058">
        <ele>124.199442</ele>
        <time>2026-08-16T07:47:11.000Z</time>
      </trkpt>
      <trkpt lat="22.757512" lon="110.284116">
        <ele>124.129451</ele>
        <time>2026-08-16T07:47:12.000Z</time>
      </trkpt>
      <trkpt lat="22.757550" lon="110.284172">
        <ele>124.065250</ele>
        <time>2026-08-16T07:47:13.000Z</time>
      </trkpt>
      <trkpt lat="22.757587" lon="110.284231">
        <ele>123.999366</ele>
        <time>2026-08-16T07:47:14.000Z</time>
      </trkpt>
      <trkpt lat="22.757616" lon="110.284288">
        <ele>123.939254</ele>
        <time>2026-08-16T07:47:15.000Z</time>
      </trkpt>
      <trkpt lat="22.757643" lon="110.284344">
        <ele>123.880903</ele>
        <time>2026-08-16T07:47:16.000Z</time>
      </trkpt>
      <trkpt lat="22.757669" lon="110.284401">
        <ele>123.822182</ele>
        <time>2026-08-16T07:47:17.000Z</time>
      </trkpt>
      <trkpt lat="22.757694" lon="110.284457">
        <ele>123.764732</ele>
        <time>2026-08-16T07:47:18.000Z</time>
      </trkpt>
      <trkpt lat="22.757718" lon="110.284513">
        <ele>123.707711</ele>
        <time>2026-08-16T07:47:19.000Z</time>
      </trkpt>
      <trkpt lat="22.757740" lon="110.284573">
        <ele>123.648089</ele>
        <time>2026-08-16T07:47:20.000Z</time>
      </trkpt>
      <trkpt lat="22.757761" lon="110.284633">
        <ele>123.588829</ele>
        <time>2026-08-16T07:47:21.000Z</time>
      </trkpt>
      <trkpt lat="22.757780" lon="110.284694">
        <ele>123.529376</ele>
        <time>2026-08-16T07:47:22.000Z</time>
      </trkpt>
      <trkpt lat="22.757801" lon="110.284756">
        <ele>123.468387</ele>
        <time>2026-08-16T07:47:23.000Z</time>
      </trkpt>
      <trkpt lat="22.757821" lon="110.284821">
        <ele>123.405114</ele>
        <time>2026-08-16T07:47:24.000Z</time>
      </trkpt>
      <trkpt lat="22.757835" lon="110.284887">
        <ele>123.342579</ele>
        <time>2026-08-16T07:47:25.000Z</time>
      </trkpt>
      <trkpt lat="22.757850" lon="110.284953">
        <ele>123.288550</ele>
        <time>2026-08-16T07:47:26.000Z</time>
      </trkpt>
      <trkpt lat="22.757863" lon="110.285020">
        <ele>123.312287</ele>
        <time>2026-08-16T07:47:27.000Z</time>
      </trkpt>
      <trkpt lat="22.757877" lon="110.285086">
        <ele>123.335765</ele>
        <time>2026-08-16T07:47:28.000Z</time>
      </trkpt>
      <trkpt lat="22.757888" lon="110.285151">
        <ele>123.358675</ele>
        <time>2026-08-16T07:47:29.000Z</time>
      </trkpt>
      <trkpt lat="22.757898" lon="110.285216">
        <ele>123.381521</ele>
        <time>2026-08-16T07:47:30.000Z</time>
      </trkpt>
      <trkpt lat="22.757908" lon="110.285280">
        <ele>123.404025</ele>
        <time>2026-08-16T07:47:31.000Z</time>
      </trkpt>
      <trkpt lat="22.757918" lon="110.285349">
        <ele>123.428239</ele>
        <time>2026-08-16T07:47:32.000Z</time>
      </trkpt>
      <trkpt lat="22.757928" lon="110.285417">
        <ele>123.452111</ele>
        <time>2026-08-16T07:47:33.000Z</time>
      </trkpt>
      <trkpt lat="22.757938" lon="110.285480">
        <ele>123.474273</ele>
        <time>2026-08-16T07:47:34.000Z</time>
      </trkpt>
      <trkpt lat="22.757944" lon="110.285547">
        <ele>123.497610</ele>
        <time>2026-08-16T07:47:35.000Z</time>
      </trkpt>
      <trkpt lat="22.757951" lon="110.285612">
        <ele>123.520297</ele>
        <time>2026-08-16T07:47:36.000Z</time>
      </trkpt>
      <trkpt lat="22.757958" lon="110.285678">
        <ele>123.543329</ele>
        <time>2026-08-16T07:47:37.000Z</time>
      </trkpt>
      <trkpt lat="22.757964" lon="110.285740">
        <ele>123.564941</ele>
        <time>2026-08-16T07:47:38.000Z</time>
      </trkpt>
      <trkpt lat="22.757975" lon="110.285800">
        <ele>123.586149</ele>
        <time>2026-08-16T07:47:39.000Z</time>
      </trkpt>
      <trkpt lat="22.757981" lon="110.285862">
        <ele>123.607761</ele>
        <time>2026-08-16T07:47:40.000Z</time>
      </trkpt>
      <trkpt lat="22.757988" lon="110.285921">
        <ele>123.628384</ele>
        <time>2026-08-16T07:47:41.000Z</time>
      </trkpt>
      <trkpt lat="22.757986" lon="110.285980">
        <ele>123.648852</ele>
        <time>2026-08-16T07:47:42.000Z</time>
      </trkpt>
      <trkpt lat="22.757988" lon="110.286041">
        <ele>123.670013</ele>
        <time>2026-08-16T07:47:43.000Z</time>
      </trkpt>
      <trkpt lat="22.757991" lon="110.286100">
        <ele>123.690498</ele>
        <time>2026-08-16T07:47:44.000Z</time>
      </trkpt>
      <trkpt lat="22.757996" lon="110.286159">
        <ele>123.711038</ele>
        <time>2026-08-16T07:47:45.000Z</time>
      </trkpt>
      <trkpt lat="22.758001" lon="110.286218">
        <ele>123.731578</ele>
        <time>2026-08-16T07:47:46.000Z</time>
      </trkpt>
      <trkpt lat="22.758001" lon="110.286274">
        <ele>123.750992</ele>
        <time>2026-08-16T07:47:47.000Z</time>
      </trkpt>
      <trkpt lat="22.758009" lon="110.286331">
        <ele>123.770981</ele>
        <time>2026-08-16T07:47:48.000Z</time>
      </trkpt>
      <trkpt lat="22.758016" lon="110.286387">
        <ele>123.790572</ele>
        <time>2026-08-16T07:47:49.000Z</time>
      </trkpt>
      <trkpt lat="22.758020" lon="110.286442">
        <ele>123.809699</ele>
        <time>2026-08-16T07:47:50.000Z</time>
      </trkpt>
      <trkpt lat="22.758026" lon="110.286499">
        <ele>123.829588</ele>
        <time>2026-08-16T07:47:51.000Z</time>
      </trkpt>
      <trkpt lat="22.758027" lon="110.286555">
        <ele>123.849006</ele>
        <time>2026-08-16T07:47:52.000Z</time>
      </trkpt>
      <trkpt lat="22.758028" lon="110.286610">
        <ele>123.868077</ele>
        <time>2026-08-16T07:47:53.000Z</time>
      </trkpt>
      <trkpt lat="22.758028" lon="110.286665">
        <ele>123.887144</ele>
        <time>2026-08-16T07:47:54.000Z</time>
      </trkpt>
      <trkpt lat="22.758031" lon="110.286721">
        <ele>123.906591</ele>
        <time>2026-08-16T07:47:55.000Z</time>
      </trkpt>
      <trkpt lat="22.758032" lon="110.286776">
        <ele>123.925662</ele>
        <time>2026-08-16T07:47:56.000Z</time>
      </trkpt>
      <trkpt lat="22.758034" lon="110.286831">
        <ele>123.944744</ele>
        <time>2026-08-16T07:47:57.000Z</time>
      </trkpt>
      <trkpt lat="22.758036" lon="110.286885">
        <ele>123.962622</ele>
        <time>2026-08-16T07:47:58.000Z</time>
      </trkpt>
      <trkpt lat="22.758037" lon="110.286937">
        <ele>123.966824</ele>
        <time>2026-08-16T07:47:59.000Z</time>
      </trkpt>
      <trkpt lat="22.758040" lon="110.286989">
        <ele>123.971034</ele>
        <time>2026-08-16T07:48:00.000Z</time>
      </trkpt>
      <trkpt lat="22.758044" lon="110.287043">
        <ele>123.975411</ele>
        <time>2026-08-16T07:48:01.000Z</time>
      </trkpt>
      <trkpt lat="22.758049" lon="110.287095">
        <ele>123.979635</ele>
        <time>2026-08-16T07:48:02.000Z</time>
      </trkpt>
      <trkpt lat="22.758053" lon="110.287147">
        <ele>123.983851</ele>
        <time>2026-08-16T07:48:03.000Z</time>
      </trkpt>
      <trkpt lat="22.758059" lon="110.287199">
        <ele>123.988085</ele>
        <time>2026-08-16T07:48:04.000Z</time>
      </trkpt>
      <trkpt lat="22.758065" lon="110.287250">
        <ele>123.992239</ele>
        <time>2026-08-16T07:48:05.000Z</time>
      </trkpt>
      <trkpt lat="22.758074" lon="110.287303">
        <ele>123.996594</ele>
        <time>2026-08-16T07:48:06.000Z</time>
      </trkpt>
      <trkpt lat="22.758084" lon="110.287356">
        <ele>124.000964</ele>
        <time>2026-08-16T07:48:07.000Z</time>
      </trkpt>
      <trkpt lat="22.758093" lon="110.287407">
        <ele>124.005160</ele>
        <time>2026-08-16T07:48:08.000Z</time>
      </trkpt>
      <trkpt lat="22.758104" lon="110.287456">
        <ele>124.009235</ele>
        <time>2026-08-16T07:48:09.000Z</time>
      </trkpt>
      <trkpt lat="22.758116" lon="110.287504">
        <ele>124.013253</ele>
        <time>2026-08-16T07:48:10.000Z</time>
      </trkpt>
      <trkpt lat="22.758128" lon="110.287551">
        <ele>124.017193</ele>
        <time>2026-08-16T07:48:11.000Z</time>
      </trkpt>
      <trkpt lat="22.758141" lon="110.287596">
        <ele>124.021003</ele>
        <time>2026-08-16T07:48:12.000Z</time>
      </trkpt>
      <trkpt lat="22.758153" lon="110.287641">
        <ele>124.024788</ele>
        <time>2026-08-16T07:48:13.000Z</time>
      </trkpt>
      <trkpt lat="22.758166" lon="110.287687">
        <ele>124.028675</ele>
        <time>2026-08-16T07:48:14.000Z</time>
      </trkpt>
      <trkpt lat="22.758180" lon="110.287733">
        <ele>124.032589</ele>
        <time>2026-08-16T07:48:15.000Z</time>
      </trkpt>
      <trkpt lat="22.758194" lon="110.287779">
        <ele>124.036503</ele>
        <time>2026-08-16T07:48:16.000Z</time>
      </trkpt>
      <trkpt lat="22.758207" lon="110.287827">
        <ele>124.040545</ele>
        <time>2026-08-16T07:48:17.000Z</time>
      </trkpt>
      <trkpt lat="22.758221" lon="110.287876">
        <ele>124.044690</ele>
        <time>2026-08-16T07:48:18.000Z</time>
      </trkpt>
      <trkpt lat="22.758238" lon="110.287924">
        <ele>124.048844</ele>
        <time>2026-08-16T07:48:19.000Z</time>
      </trkpt>
      <trkpt lat="22.758254" lon="110.287971">
        <ele>124.052892</ele>
        <time>2026-08-16T07:48:20.000Z</time>
      </trkpt>
      <trkpt lat="22.758267" lon="110.288019">
        <ele>124.056934</ele>
        <time>2026-08-16T07:48:21.000Z</time>
      </trkpt>
      <trkpt lat="22.758282" lon="110.288066">
        <ele>124.060952</ele>
        <time>2026-08-16T07:48:22.000Z</time>
      </trkpt>
      <trkpt lat="22.758295" lon="110.288113">
        <ele>124.064917</ele>
        <time>2026-08-16T07:48:23.000Z</time>
      </trkpt>
      <trkpt lat="22.758312" lon="110.288157">
        <ele>124.068771</ele>
        <time>2026-08-16T07:48:24.000Z</time>
      </trkpt>
      <trkpt lat="22.758334" lon="110.288197">
        <ele>124.072534</ele>
        <time>2026-08-16T07:48:25.000Z</time>
      </trkpt>
      <trkpt lat="22.758348" lon="110.288240">
        <ele>124.076219</ele>
        <time>2026-08-16T07:48:26.000Z</time>
      </trkpt>
      <trkpt lat="22.758358" lon="110.288285">
        <ele>124.079959</ele>
        <time>2026-08-16T07:48:27.000Z</time>
      </trkpt>
      <trkpt lat="22.758366" lon="110.288330">
        <ele>124.083662</ele>
        <time>2026-08-16T07:48:28.000Z</time>
      </trkpt>
      <trkpt lat="22.758371" lon="110.288379">
        <ele>124.087645</ele>
        <time>2026-08-16T07:48:29.000Z</time>
      </trkpt>
      <trkpt lat="22.758381" lon="110.288425">
        <ele>124.091463</ele>
        <time>2026-08-16T07:48:30.000Z</time>
      </trkpt>
      <trkpt lat="22.758395" lon="110.288472">
        <ele>124.095454</ele>
        <time>2026-08-16T07:48:31.000Z</time>
      </trkpt>
      <trkpt lat="22.758410" lon="110.288520">
        <ele>124.099549</ele>
        <time>2026-08-16T07:48:32.000Z</time>
      </trkpt>
      <trkpt lat="22.758421" lon="110.288570">
        <ele>124.103702</ele>
        <time>2026-08-16T07:48:33.000Z</time>
      </trkpt>
      <trkpt lat="22.758432" lon="110.288622">
        <ele>124.108012</ele>
        <time>2026-08-16T07:48:34.000Z</time>
      </trkpt>
      <trkpt lat="22.758443" lon="110.288674">
        <ele>124.112323</ele>
        <time>2026-08-16T07:48:35.000Z</time>
      </trkpt>
      <trkpt lat="22.758449" lon="110.288728">
        <ele>124.116717</ele>
        <time>2026-08-16T07:48:36.000Z</time>
      </trkpt>
      <trkpt lat="22.758462" lon="110.288783">
        <ele>124.110421</ele>
        <time>2026-08-16T07:48:37.000Z</time>
      </trkpt>
      <trkpt lat="22.758476" lon="110.288840">
        <ele>124.076783</ele>
        <time>2026-08-16T07:48:38.000Z</time>
      </trkpt>
      <trkpt lat="22.758491" lon="110.288896">
        <ele>124.043529</ele>
        <time>2026-08-16T07:48:39.000Z</time>
      </trkpt>
      <trkpt lat="22.758506" lon="110.288955">
        <ele>124.008628</ele>
        <time>2026-08-16T07:48:40.000Z</time>
      </trkpt>
      <trkpt lat="22.758520" lon="110.289015">
        <ele>123.973334</ele>
        <time>2026-08-16T07:48:41.000Z</time>
      </trkpt>
      <trkpt lat="22.758534" lon="110.289076">
        <ele>123.937486</ele>
        <time>2026-08-16T07:48:42.000Z</time>
      </trkpt>
      <trkpt lat="22.758550" lon="110.289136">
        <ele>123.901869</ele>
        <time>2026-08-16T07:48:43.000Z</time>
      </trkpt>
      <trkpt lat="22.758565" lon="110.289197">
        <ele>123.865867</ele>
        <time>2026-08-16T07:48:44.000Z</time>
      </trkpt>
      <trkpt lat="22.758578" lon="110.289260">
        <ele>123.829052</ele>
        <time>2026-08-16T07:48:45.000Z</time>
      </trkpt>
      <trkpt lat="22.758591" lon="110.289324">
        <ele>123.791680</ele>
        <time>2026-08-16T07:48:46.000Z</time>
      </trkpt>
      <trkpt lat="22.758602" lon="110.289387">
        <ele>123.755115</ele>
        <time>2026-08-16T07:48:47.000Z</time>
      </trkpt>
      <trkpt lat="22.758609" lon="110.289450">
        <ele>123.718929</ele>
        <time>2026-08-16T07:48:48.000Z</time>
      </trkpt>
      <trkpt lat="22.758613" lon="110.289514">
        <ele>123.682348</ele>
        <time>2026-08-16T07:48:49.000Z</time>
      </trkpt>
      <trkpt lat="22.758617" lon="110.289578">
        <ele>123.645768</ele>
        <time>2026-08-16T07:48:50.000Z</time>
      </trkpt>
      <trkpt lat="22.758620" lon="110.289642">
        <ele>123.609224</ele>
        <time>2026-08-16T07:48:51.000Z</time>
      </trkpt>
      <trkpt lat="22.758624" lon="110.289707">
        <ele>123.572075</ele>
        <time>2026-08-16T07:48:52.000Z</time>
      </trkpt>
      <trkpt lat="22.758627" lon="110.289771">
        <ele>123.535531</ele>
        <time>2026-08-16T07:48:53.000Z</time>
      </trkpt>
      <trkpt lat="22.758629" lon="110.289836">
        <ele>123.498443</ele>
        <time>2026-08-16T07:48:54.000Z</time>
      </trkpt>
      <trkpt lat="22.758630" lon="110.289899">
        <ele>123.462511</ele>
        <time>2026-08-16T07:48:55.000Z</time>
      </trkpt>
      <trkpt lat="22.758631" lon="110.289962">
        <ele>123.426579</ele>
        <time>2026-08-16T07:48:56.000Z</time>
      </trkpt>
      <trkpt lat="22.758631" lon="110.290025">
        <ele>123.390653</ele>
        <time>2026-08-16T07:48:57.000Z</time>
      </trkpt>
      <trkpt lat="22.758632" lon="110.290087">
        <ele>123.355291</ele>
        <time>2026-08-16T07:48:58.000Z</time>
      </trkpt>
      <trkpt lat="22.758636" lon="110.290147">
        <ele>123.320986</ele>
        <time>2026-08-16T07:48:59.000Z</time>
      </trkpt>
      <trkpt lat="22.758640" lon="110.290208">
        <ele>123.286112</ele>
        <time>2026-08-16T07:49:00.000Z</time>
      </trkpt>
      <trkpt lat="22.758645" lon="110.290267">
        <ele>123.252325</ele>
        <time>2026-08-16T07:49:01.000Z</time>
      </trkpt>
      <trkpt lat="22.758648" lon="110.290326">
        <ele>123.218628</ele>
        <time>2026-08-16T07:49:02.000Z</time>
      </trkpt>
      <trkpt lat="22.758650" lon="110.290383">
        <ele>123.186100</ele>
        <time>2026-08-16T07:49:03.000Z</time>
      </trkpt>
      <trkpt lat="22.758652" lon="110.290439">
        <ele>123.154141</ele>
        <time>2026-08-16T07:49:04.000Z</time>
      </trkpt>
      <trkpt lat="22.758655" lon="110.290494">
        <ele>123.122722</ele>
        <time>2026-08-16T07:49:05.000Z</time>
      </trkpt>
      <trkpt lat="22.758659" lon="110.290549">
        <ele>123.091260</ele>
        <time>2026-08-16T07:49:06.000Z</time>
      </trkpt>
      <trkpt lat="22.758662" lon="110.290602">
        <ele>123.060979</ele>
        <time>2026-08-16T07:49:07.000Z</time>
      </trkpt>
      <trkpt lat="22.758663" lon="110.290656">
        <ele>123.030179</ele>
        <time>2026-08-16T07:49:08.000Z</time>
      </trkpt>
      <trkpt lat="22.758666" lon="110.290708">
        <ele>123.010735</ele>
        <time>2026-08-16T07:49:09.000Z</time>
      </trkpt>
      <trkpt lat="22.758668" lon="110.290761">
        <ele>123.023696</ele>
        <time>2026-08-16T07:49:10.000Z</time>
      </trkpt>
      <trkpt lat="22.758669" lon="110.290813">
        <ele>123.036404</ele>
        <time>2026-08-16T07:49:11.000Z</time>
      </trkpt>
      <trkpt lat="22.758672" lon="110.290865">
        <ele>123.049134</ele>
        <time>2026-08-16T07:49:12.000Z</time>
      </trkpt>
      <trkpt lat="22.758675" lon="110.290918">
        <ele>123.062108</ele>
        <time>2026-08-16T07:49:13.000Z</time>
      </trkpt>
      <trkpt lat="22.758678" lon="110.290971">
        <ele>123.075083</ele>
        <time>2026-08-16T07:49:14.000Z</time>
      </trkpt>
      <trkpt lat="22.758679" lon="110.291022">
        <ele>123.087547</ele>
        <time>2026-08-16T07:49:15.000Z</time>
      </trkpt>
      <trkpt lat="22.758682" lon="110.291075">
        <ele>123.100521</ele>
        <time>2026-08-16T07:49:16.000Z</time>
      </trkpt>
      <trkpt lat="22.758685" lon="110.291127">
        <ele>123.113251</ele>
        <time>2026-08-16T07:49:17.000Z</time>
      </trkpt>
      <trkpt lat="22.758688" lon="110.291179">
        <ele>123.125982</ele>
        <time>2026-08-16T07:49:18.000Z</time>
      </trkpt>
      <trkpt lat="22.758690" lon="110.291231">
        <ele>123.138698</ele>
        <time>2026-08-16T07:49:19.000Z</time>
      </trkpt>
      <trkpt lat="22.758691" lon="110.291282">
        <ele>123.151162</ele>
        <time>2026-08-16T07:49:20.000Z</time>
      </trkpt>
      <trkpt lat="22.758693" lon="110.291333">
        <ele>123.163635</ele>
        <time>2026-08-16T07:49:21.000Z</time>
      </trkpt>
      <trkpt lat="22.758696" lon="110.291383">
        <ele>123.175877</ele>
        <time>2026-08-16T07:49:22.000Z</time>
      </trkpt>
      <trkpt lat="22.758697" lon="110.291434">
        <ele>123.188341</ele>
        <time>2026-08-16T07:49:23.000Z</time>
      </trkpt>
      <trkpt lat="22.758698" lon="110.291484">
        <ele>123.200561</ele>
        <time>2026-08-16T07:49:24.000Z</time>
      </trkpt>
      <trkpt lat="22.758698" lon="110.291535">
        <ele>123.213022</ele>
        <time>2026-08-16T07:49:25.000Z</time>
      </trkpt>
      <trkpt lat="22.758699" lon="110.291587">
        <ele>123.225730</ele>
        <time>2026-08-16T07:49:26.000Z</time>
      </trkpt>
      <trkpt lat="22.758702" lon="110.291640">
        <ele>123.238705</ele>
        <time>2026-08-16T07:49:27.000Z</time>
      </trkpt>
      <trkpt lat="22.758704" lon="110.291691">
        <ele>123.251177</ele>
        <time>2026-08-16T07:49:28.000Z</time>
      </trkpt>
      <trkpt lat="22.758705" lon="110.291743">
        <ele>123.263885</ele>
        <time>2026-08-16T07:49:29.000Z</time>
      </trkpt>
      <trkpt lat="22.758706" lon="110.291794">
        <ele>123.276349</ele>
        <time>2026-08-16T07:49:30.000Z</time>
      </trkpt>
      <trkpt lat="22.758707" lon="110.291846">
        <ele>123.289058</ele>
        <time>2026-08-16T07:49:31.000Z</time>
      </trkpt>
      <trkpt lat="22.758709" lon="110.291898">
        <ele>123.301774</ele>
        <time>2026-08-16T07:49:32.000Z</time>
      </trkpt>
      <trkpt lat="22.758713" lon="110.291950">
        <ele>123.314524</ele>
        <time>2026-08-16T07:49:33.000Z</time>
      </trkpt>
      <trkpt lat="22.758715" lon="110.292000">
        <ele>123.326752</ele>
        <time>2026-08-16T07:49:34.000Z</time>
      </trkpt>
      <trkpt lat="22.758715" lon="110.292051">
        <ele>123.339213</ele>
        <time>2026-08-16T07:49:35.000Z</time>
      </trkpt>
      <trkpt lat="22.758716" lon="110.292102">
        <ele>123.351677</ele>
        <time>2026-08-16T07:49:36.000Z</time>
      </trkpt>
      <trkpt lat="22.758718" lon="110.292154">
        <ele>123.364394</ele>
        <time>2026-08-16T07:49:37.000Z</time>
      </trkpt>
      <trkpt lat="22.758722" lon="110.292205">
        <ele>123.376900</ele>
        <time>2026-08-16T07:49:38.000Z</time>
      </trkpt>
      <trkpt lat="22.758727" lon="110.292257">
        <ele>123.389674</ele>
        <time>2026-08-16T07:49:39.000Z</time>
      </trkpt>
      <trkpt lat="22.758733" lon="110.292308">
        <ele>123.402236</ele>
        <time>2026-08-16T07:49:40.000Z</time>
      </trkpt>
      <trkpt lat="22.758738" lon="110.292360">
        <ele>123.415011</ele>
        <time>2026-08-16T07:49:41.000Z</time>
      </trkpt>
      <trkpt lat="22.758742" lon="110.292414">
        <ele>123.428248</ele>
        <time>2026-08-16T07:49:42.000Z</time>
      </trkpt>
      <trkpt lat="22.758745" lon="110.292468">
        <ele>123.441466</ele>
        <time>2026-08-16T07:49:43.000Z</time>
      </trkpt>
      <trkpt lat="22.758751" lon="110.292520">
        <ele>123.454270</ele>
        <time>2026-08-16T07:49:44.000Z</time>
      </trkpt>
      <trkpt lat="22.758759" lon="110.292573">
        <ele>123.467392</ele>
        <time>2026-08-16T07:49:45.000Z</time>
      </trkpt>
      <trkpt lat="22.758770" lon="110.292624">
        <ele>123.480190</ele>
        <time>2026-08-16T07:49:46.000Z</time>
      </trkpt>
      <trkpt lat="22.758780" lon="110.292675">
        <ele>123.510322</ele>
        <time>2026-08-16T07:49:47.000Z</time>
      </trkpt>
      <trkpt lat="22.758792" lon="110.292727">
        <ele>123.549618</ele>
        <time>2026-08-16T07:49:48.000Z</time>
      </trkpt>
      <trkpt lat="22.758803" lon="110.292779">
        <ele>123.588729</ele>
        <time>2026-08-16T07:49:49.000Z</time>
      </trkpt>
      <trkpt lat="22.758815" lon="110.292829">
        <ele>123.626605</ele>
        <time>2026-08-16T07:49:50.000Z</time>
      </trkpt>
      <trkpt lat="22.758826" lon="110.292879">
        <ele>123.664289</ele>
        <time>2026-08-16T07:49:51.000Z</time>
      </trkpt>
      <trkpt lat="22.758837" lon="110.292930">
        <ele>123.702686</ele>
        <time>2026-08-16T07:49:52.000Z</time>
      </trkpt>
      <trkpt lat="22.758848" lon="110.292980">
        <ele>123.740369</ele>
        <time>2026-08-16T07:49:53.000Z</time>
      </trkpt>
      <trkpt lat="22.758858" lon="110.293030">
        <ele>123.777876</ele>
        <time>2026-08-16T07:49:54.000Z</time>
      </trkpt>
      <trkpt lat="22.758870" lon="110.293079">
        <ele>123.815043</ele>
        <time>2026-08-16T07:49:55.000Z</time>
      </trkpt>
      <trkpt lat="22.758882" lon="110.293129">
        <ele>123.852919</ele>
        <time>2026-08-16T07:49:56.000Z</time>
      </trkpt>
      <trkpt lat="22.758895" lon="110.293179">
        <ele>123.891003</ele>
        <time>2026-08-16T07:49:57.000Z</time>
      </trkpt>
      <trkpt lat="22.758906" lon="110.293230">
        <ele>123.929400</ele>
        <time>2026-08-16T07:49:58.000Z</time>
      </trkpt>
      <trkpt lat="22.758919" lon="110.293279">
        <ele>123.966779</ele>
        <time>2026-08-16T07:49:59.000Z</time>
      </trkpt>
      <trkpt lat="22.758930" lon="110.293329">
        <ele>124.004463</ele>
        <time>2026-08-16T07:50:00.000Z</time>
      </trkpt>
      <trkpt lat="22.758942" lon="110.293379">
        <ele>124.042338</ele>
        <time>2026-08-16T07:50:01.000Z</time>
      </trkpt>
      <trkpt lat="22.758954" lon="110.293428">
        <ele>124.079505</ele>
        <time>2026-08-16T07:50:02.000Z</time>
      </trkpt>
      <trkpt lat="22.758967" lon="110.293478">
        <ele>124.117589</ele>
        <time>2026-08-16T07:50:03.000Z</time>
      </trkpt>
      <trkpt lat="22.758980" lon="110.293528">
        <ele>124.155673</ele>
        <time>2026-08-16T07:50:04.000Z</time>
      </trkpt>
      <trkpt lat="22.758992" lon="110.293577">
        <ele>124.192840</ele>
        <time>2026-08-16T07:50:05.000Z</time>
      </trkpt>
      <trkpt lat="22.759006" lon="110.293625">
        <ele>124.229747</ele>
        <time>2026-08-16T07:50:06.000Z</time>
      </trkpt>
      <trkpt lat="22.759020" lon="110.293672">
        <ele>124.265955</ele>
        <time>2026-08-16T07:50:07.000Z</time>
      </trkpt>
      <trkpt lat="22.759035" lon="110.293719">
        <ele>124.302416</ele>
        <time>2026-08-16T07:50:08.000Z</time>
      </trkpt>
      <trkpt lat="22.759047" lon="110.293768">
        <ele>124.339583</ele>
        <time>2026-08-16T07:50:09.000Z</time>
      </trkpt>
      <trkpt lat="22.759059" lon="110.293818">
        <ele>124.377459</ele>
        <time>2026-08-16T07:50:10.000Z</time>
      </trkpt>
      <trkpt lat="22.759073" lon="110.293868">
        <ele>124.415766</ele>
        <time>2026-08-16T07:50:11.000Z</time>
      </trkpt>
      <trkpt lat="22.759086" lon="110.293917">
        <ele>124.453145</ele>
        <time>2026-08-16T07:50:12.000Z</time>
      </trkpt>
      <trkpt lat="22.759101" lon="110.293965">
        <ele>124.490299</ele>
        <time>2026-08-16T07:50:13.000Z</time>
      </trkpt>
      <trkpt lat="22.759115" lon="110.294012">
        <ele>124.526507</ele>
        <time>2026-08-16T07:50:14.000Z</time>
      </trkpt>
      <trkpt lat="22.759128" lon="110.294059">
        <ele>124.562479</ele>
        <time>2026-08-16T07:50:15.000Z</time>
      </trkpt>
      <trkpt lat="22.759139" lon="110.294109">
        <ele>124.600163</ele>
        <time>2026-08-16T07:50:16.000Z</time>
      </trkpt>
      <trkpt lat="22.759151" lon="110.294158">
        <ele>124.637330</ele>
        <time>2026-08-16T07:50:17.000Z</time>
      </trkpt>
      <trkpt lat="22.759163" lon="110.294206">
        <ele>124.673788</ele>
        <time>2026-08-16T07:50:18.000Z</time>
      </trkpt>
      <trkpt lat="22.759174" lon="110.294255">
        <ele>124.710759</ele>
        <time>2026-08-16T07:50:19.000Z</time>
      </trkpt>
      <trkpt lat="22.759188" lon="110.294303">
        <ele>124.747666</ele>
        <time>2026-08-16T07:50:20.000Z</time>
      </trkpt>
      <trkpt lat="22.759197" lon="110.294353">
        <ele>124.785012</ele>
        <time>2026-08-16T07:50:21.000Z</time>
      </trkpt>
      <trkpt lat="22.759208" lon="110.294402">
        <ele>124.821983</ele>
        <time>2026-08-16T07:50:22.000Z</time>
      </trkpt>
      <trkpt lat="22.759222" lon="110.294451">
        <ele>124.859590</ele>
        <time>2026-08-16T07:50:23.000Z</time>
      </trkpt>
      <trkpt lat="22.759235" lon="110.294501">
        <ele>124.897673</ele>
        <time>2026-08-16T07:50:24.000Z</time>
      </trkpt>
      <trkpt lat="22.759249" lon="110.294550">
        <ele>124.922293</ele>
        <time>2026-08-16T07:50:25.000Z</time>
      </trkpt>
      <trkpt lat="22.759263" lon="110.294600">
        <ele>124.937062</ele>
        <time>2026-08-16T07:50:26.000Z</time>
      </trkpt>
      <trkpt lat="22.759275" lon="110.294647">
        <ele>124.950846</ele>
        <time>2026-08-16T07:50:27.000Z</time>
      </trkpt>
      <trkpt lat="22.759290" lon="110.294694">
        <ele>124.964903</ele>
        <time>2026-08-16T07:50:28.000Z</time>
      </trkpt>
      <trkpt lat="22.759307" lon="110.294741">
        <ele>124.979173</ele>
        <time>2026-08-16T07:50:29.000Z</time>
      </trkpt>
      <trkpt lat="22.759326" lon="110.294786">
        <ele>124.993161</ele>
        <time>2026-08-16T07:50:30.000Z</time>
      </trkpt>
      <trkpt lat="22.759348" lon="110.294830">
        <ele>125.007308</ele>
        <time>2026-08-16T07:50:31.000Z</time>
      </trkpt>
      <trkpt lat="22.759370" lon="110.294872">
        <ele>125.020960</ele>
        <time>2026-08-16T07:50:32.000Z</time>
      </trkpt>
      <trkpt lat="22.759396" lon="110.294913">
        <ele>125.035024</ele>
        <time>2026-08-16T07:50:33.000Z</time>
      </trkpt>
      <trkpt lat="22.759424" lon="110.294953">
        <ele>125.049218</ele>
        <time>2026-08-16T07:50:34.000Z</time>
      </trkpt>
      <trkpt lat="22.759452" lon="110.294993">
        <ele>125.063412</ele>
        <time>2026-08-16T07:50:35.000Z</time>
      </trkpt>
      <trkpt lat="22.759480" lon="110.295032">
        <ele>125.077382</ele>
        <time>2026-08-16T07:50:36.000Z</time>
      </trkpt>
      <trkpt lat="22.759510" lon="110.295070">
        <ele>125.091521</ele>
        <time>2026-08-16T07:50:37.000Z</time>
      </trkpt>
      <trkpt lat="22.759544" lon="110.295105">
        <ele>125.105890</ele>
        <time>2026-08-16T07:50:38.000Z</time>
      </trkpt>
      <trkpt lat="22.759579" lon="110.295138">
        <ele>125.120105</ele>
        <time>2026-08-16T07:50:39.000Z</time>
      </trkpt>
      <trkpt lat="22.759616" lon="110.295170">
        <ele>125.134611</ele>
        <time>2026-08-16T07:50:40.000Z</time>
      </trkpt>
      <trkpt lat="22.759656" lon="110.295201">
        <ele>125.149680</ele>
        <time>2026-08-16T07:50:41.000Z</time>
      </trkpt>
      <trkpt lat="22.759697" lon="110.295231">
        <ele>125.164840</ele>
        <time>2026-08-16T07:50:42.000Z</time>
      </trkpt>
      <trkpt lat="22.759737" lon="110.295261">
        <ele>125.179747</ele>
        <time>2026-08-16T07:50:43.000Z</time>
      </trkpt>
      <trkpt lat="22.759779" lon="110.295292">
        <ele>125.195319</ele>
        <time>2026-08-16T07:50:44.000Z</time>
      </trkpt>
      <trkpt lat="22.759819" lon="110.295323">
        <ele>125.210388</ele>
        <time>2026-08-16T07:50:45.000Z</time>
      </trkpt>
      <trkpt lat="22.759858" lon="110.295353">
        <ele>125.225044</ele>
        <time>2026-08-16T07:50:46.000Z</time>
      </trkpt>
      <trkpt lat="22.759898" lon="110.295384">
        <ele>125.240113</ele>
        <time>2026-08-16T07:50:47.000Z</time>
      </trkpt>
      <trkpt lat="22.759938" lon="110.295413">
        <ele>125.254861</ele>
        <time>2026-08-16T07:50:48.000Z</time>
      </trkpt>
      <trkpt lat="22.759980" lon="110.295440">
        <ele>125.269826</ele>
        <time>2026-08-16T07:50:49.000Z</time>
      </trkpt>
      <trkpt lat="22.760021" lon="110.295468">
        <ele>125.284677</ele>
        <time>2026-08-16T07:50:50.000Z</time>
      </trkpt>
      <trkpt lat="22.760064" lon="110.295496">
        <ele>125.300050</ele>
        <time>2026-08-16T07:50:51.000Z</time>
      </trkpt>
      <trkpt lat="22.760107" lon="110.295524">
        <ele>125.315423</ele>
        <time>2026-08-16T07:50:52.000Z</time>
      </trkpt>
      <trkpt lat="22.760150" lon="110.295552">
        <ele>125.330797</ele>
        <time>2026-08-16T07:50:53.000Z</time>
      </trkpt>
      <trkpt lat="22.760194" lon="110.295578">
        <ele>125.346155</ele>
        <time>2026-08-16T07:50:54.000Z</time>
      </trkpt>
      <trkpt lat="22.760237" lon="110.295605">
        <ele>125.361385</ele>
        <time>2026-08-16T07:50:55.000Z</time>
      </trkpt>
      <trkpt lat="22.760278" lon="110.295632">
        <ele>125.376087</ele>
        <time>2026-08-16T07:50:56.000Z</time>
      </trkpt>
      <trkpt lat="22.760319" lon="110.295660">
        <ele>125.390938</ele>
        <time>2026-08-16T07:50:57.000Z</time>
      </trkpt>
      <trkpt lat="22.760361" lon="110.295688">
        <ele>125.406049</ele>
        <time>2026-08-16T07:50:58.000Z</time>
      </trkpt>
      <trkpt lat="22.760403" lon="110.295713">
        <ele>125.420734</ele>
        <time>2026-08-16T07:50:59.000Z</time>
      </trkpt>
      <trkpt lat="22.760444" lon="110.295743">
        <ele>125.435894</ele>
        <time>2026-08-16T07:51:00.000Z</time>
      </trkpt>
      <trkpt lat="22.760487" lon="110.295771">
        <ele>125.451267</ele>
        <time>2026-08-16T07:51:01.000Z</time>
      </trkpt>
      <trkpt lat="22.760526" lon="110.295795">
        <ele>125.465011</ele>
        <time>2026-08-16T07:51:02.000Z</time>
      </trkpt>
      <trkpt lat="22.760569" lon="110.295823">
        <ele>125.453670</ele>
        <time>2026-08-16T07:51:03.000Z</time>
      </trkpt>
      <trkpt lat="22.760614" lon="110.295853">
        <ele>125.440921</ele>
        <time>2026-08-16T07:51:04.000Z</time>
      </trkpt>
      <trkpt lat="22.760659" lon="110.295883">
        <ele>125.428173</ele>
        <time>2026-08-16T07:51:05.000Z</time>
      </trkpt>
      <trkpt lat="22.760706" lon="110.295912">
        <ele>125.415122</ele>
        <time>2026-08-16T07:51:06.000Z</time>
      </trkpt>
      <trkpt lat="22.760754" lon="110.295936">
        <ele>125.402365</ele>
        <time>2026-08-16T07:51:07.000Z</time>
      </trkpt>
      <trkpt lat="22.760795" lon="110.295963">
        <ele>125.390789</ele>
        <time>2026-08-16T07:51:08.000Z</time>
      </trkpt>
      <trkpt lat="22.760833" lon="110.295995">
        <ele>125.379177</ele>
        <time>2026-08-16T07:51:09.000Z</time>
      </trkpt>
      <trkpt lat="22.760868" lon="110.296030">
        <ele>125.367687</ele>
        <time>2026-08-16T07:51:10.000Z</time>
      </trkpt>
      <trkpt lat="22.760907" lon="110.296064">
        <ele>125.355610</ele>
        <time>2026-08-16T07:51:11.000Z</time>
      </trkpt>
      <trkpt lat="22.760947" lon="110.296094">
        <ele>125.343872</ele>
        <time>2026-08-16T07:51:12.000Z</time>
      </trkpt>
      <trkpt lat="22.760988" lon="110.296125">
        <ele>125.331809</ele>
        <time>2026-08-16T07:51:13.000Z</time>
      </trkpt>
      <trkpt lat="22.761029" lon="110.296154">
        <ele>125.319996</ele>
        <time>2026-08-16T07:51:14.000Z</time>
      </trkpt>
      <trkpt lat="22.761072" lon="110.296186">
        <ele>125.307409</ele>
        <time>2026-08-16T07:51:15.000Z</time>
      </trkpt>
      <trkpt lat="22.761118" lon="110.296218">
        <ele>125.294219</ele>
        <time>2026-08-16T07:51:16.000Z</time>
      </trkpt>
      <trkpt lat="22.761163" lon="110.296248">
        <ele>125.281471</ele>
        <time>2026-08-16T07:51:17.000Z</time>
      </trkpt>
      <trkpt lat="22.761208" lon="110.296280">
        <ele>125.268483</ele>
        <time>2026-08-16T07:51:18.000Z</time>
      </trkpt>
      <trkpt lat="22.761253" lon="110.296310">
        <ele>125.255735</ele>
        <time>2026-08-16T07:51:19.000Z</time>
      </trkpt>
      <trkpt lat="22.761299" lon="110.296341">
        <ele>125.242664</ele>
        <time>2026-08-16T07:51:20.000Z</time>
      </trkpt>
      <trkpt lat="22.761345" lon="110.296372">
        <ele>125.229593</ele>
        <time>2026-08-16T07:51:21.000Z</time>
      </trkpt>
      <trkpt lat="22.761390" lon="110.296403">
        <ele>125.216726</ele>
        <time>2026-08-16T07:51:22.000Z</time>
      </trkpt>
      <trkpt lat="22.761438" lon="110.296434">
        <ele>125.203243</ele>
        <time>2026-08-16T07:51:23.000Z</time>
      </trkpt>
      <trkpt lat="22.761487" lon="110.296464">
        <ele>125.189663</ele>
        <time>2026-08-16T07:51:24.000Z</time>
      </trkpt>
      <trkpt lat="22.761536" lon="110.296496">
        <ele>125.175858</ele>
        <time>2026-08-16T07:51:25.000Z</time>
      </trkpt>
      <trkpt lat="22.761585" lon="110.296527">
        <ele>125.162167</ele>
        <time>2026-08-16T07:51:26.000Z</time>
      </trkpt>
      <trkpt lat="22.761634" lon="110.296560">
        <ele>125.148246</ele>
        <time>2026-08-16T07:51:27.000Z</time>
      </trkpt>
      <trkpt lat="22.761682" lon="110.296594">
        <ele>125.134409</ele>
        <time>2026-08-16T07:51:28.000Z</time>
      </trkpt>
      <trkpt lat="22.761733" lon="110.296628">
        <ele>125.119961</ele>
        <time>2026-08-16T07:51:29.000Z</time>
      </trkpt>
      <trkpt lat="22.761782" lon="110.296660">
        <ele>125.106156</ele>
        <time>2026-08-16T07:51:30.000Z</time>
      </trkpt>
      <trkpt lat="22.761830" lon="110.296694">
        <ele>125.092319</ele>
        <time>2026-08-16T07:51:31.000Z</time>
      </trkpt>
      <trkpt lat="22.761878" lon="110.296727">
        <ele>125.078603</ele>
        <time>2026-08-16T07:51:32.000Z</time>
      </trkpt>
      <trkpt lat="22.761924" lon="110.296761">
        <ele>125.065167</ele>
        <time>2026-08-16T07:51:33.000Z</time>
      </trkpt>
      <trkpt lat="22.761970" lon="110.296795">
        <ele>125.051732</ele>
        <time>2026-08-16T07:51:34.000Z</time>
      </trkpt>
      <trkpt lat="22.762015" lon="110.296829">
        <ele>125.038495</ele>
        <time>2026-08-16T07:51:35.000Z</time>
      </trkpt>
      <trkpt lat="22.762059" lon="110.296862">
        <ele>125.064213</ele>
        <time>2026-08-16T07:51:36.000Z</time>
      </trkpt>
      <trkpt lat="22.762104" lon="110.296898">
        <ele>125.141228</ele>
        <time>2026-08-16T07:51:37.000Z</time>
      </trkpt>
      <trkpt lat="22.762146" lon="110.296934">
        <ele>125.214959</ele>
        <time>2026-08-16T07:51:38.000Z</time>
      </trkpt>
      <trkpt lat="22.762184" lon="110.296971">
        <ele>125.285294</ele>
        <time>2026-08-16T07:51:39.000Z</time>
      </trkpt>
      <trkpt lat="22.762221" lon="110.297008">
        <ele>125.354610</ele>
        <time>2026-08-16T07:51:40.000Z</time>
      </trkpt>
      <trkpt lat="22.762257" lon="110.297045">
        <ele>125.422920</ele>
        <time>2026-08-16T07:51:41.000Z</time>
      </trkpt>
      <trkpt lat="22.762292" lon="110.297081">
        <ele>125.489357</ele>
        <time>2026-08-16T07:51:42.000Z</time>
      </trkpt>
      <trkpt lat="22.762324" lon="110.297117">
        <ele>125.552860</ele>
        <time>2026-08-16T07:51:43.000Z</time>
      </trkpt>
      <trkpt lat="22.762358" lon="110.297151">
        <ele>125.616556</ele>
        <time>2026-08-16T07:51:44.000Z</time>
      </trkpt>
      <trkpt lat="22.762389" lon="110.297187">
        <ele>125.679111</ele>
        <time>2026-08-16T07:51:45.000Z</time>
      </trkpt>
      <trkpt lat="22.762420" lon="110.297223">
        <ele>125.741665</ele>
        <time>2026-08-16T07:51:46.000Z</time>
      </trkpt>
      <trkpt lat="22.762455" lon="110.297258">
        <ele>125.807235</ele>
        <time>2026-08-16T07:51:47.000Z</time>
      </trkpt>
      <trkpt lat="22.762489" lon="110.297292">
        <ele>125.870931</ele>
        <time>2026-08-16T07:51:48.000Z</time>
      </trkpt>
      <trkpt lat="22.762521" lon="110.297327">
        <ele>125.933525</ele>
        <time>2026-08-16T07:51:49.000Z</time>
      </trkpt>
      <trkpt lat="22.762555" lon="110.297361">
        <ele>125.997221</ele>
        <time>2026-08-16T07:51:50.000Z</time>
      </trkpt>
      <trkpt lat="22.762587" lon="110.297394">
        <ele>126.058039</ele>
        <time>2026-08-16T07:51:51.000Z</time>
      </trkpt>
      <trkpt lat="22.762621" lon="110.297428">
        <ele>126.121735</ele>
        <time>2026-08-16T07:51:52.000Z</time>
      </trkpt>
      <trkpt lat="22.762654" lon="110.297461">
        <ele>126.183557</ele>
        <time>2026-08-16T07:51:53.000Z</time>
      </trkpt>
      <trkpt lat="22.762685" lon="110.297495">
        <ele>126.244280</ele>
        <time>2026-08-16T07:51:54.000Z</time>
      </trkpt>
      <trkpt lat="22.762713" lon="110.297531">
        <ele>126.304091</ele>
        <time>2026-08-16T07:51:55.000Z</time>
      </trkpt>
      <trkpt lat="22.762741" lon="110.297566">
        <ele>126.362937</ele>
        <time>2026-08-16T07:51:56.000Z</time>
      </trkpt>
      <trkpt lat="22.762772" lon="110.297599">
        <ele>126.422764</ele>
        <time>2026-08-16T07:51:57.000Z</time>
      </trkpt>
      <trkpt lat="22.762802" lon="110.297630">
        <ele>126.479835</ele>
        <time>2026-08-16T07:51:58.000Z</time>
      </trkpt>
      <trkpt lat="22.762833" lon="110.297661">
        <ele>126.537910</ele>
        <time>2026-08-16T07:51:59.000Z</time>
      </trkpt>
      <trkpt lat="22.762862" lon="110.297692">
        <ele>126.593992</ele>
        <time>2026-08-16T07:52:00.000Z</time>
      </trkpt>
      <trkpt lat="22.762891" lon="110.297722">
        <ele>126.649190</ele>
        <time>2026-08-16T07:52:01.000Z</time>
      </trkpt>
      <trkpt lat="22.762921" lon="110.297751">
        <ele>126.704539</ele>
        <time>2026-08-16T07:52:02.000Z</time>
      </trkpt>
      <trkpt lat="22.762951" lon="110.297781">
        <ele>126.760741</ele>
        <time>2026-08-16T07:52:03.000Z</time>
      </trkpt>
      <trkpt lat="22.762982" lon="110.297810">
        <ele>126.817126</ele>
        <time>2026-08-16T07:52:04.000Z</time>
      </trkpt>
      <trkpt lat="22.763015" lon="110.297837">
        <ele>126.874059</ele>
        <time>2026-08-16T07:52:05.000Z</time>
      </trkpt>
      <trkpt lat="22.763049" lon="110.297865">
        <ele>126.932857</ele>
        <time>2026-08-16T07:52:06.000Z</time>
      </trkpt>
      <trkpt lat="22.763082" lon="110.297893">
        <ele>126.990564</ele>
        <time>2026-08-16T07:52:07.000Z</time>
      </trkpt>
      <trkpt lat="22.763116" lon="110.297921">
        <ele>127.049362</ele>
        <time>2026-08-16T07:52:08.000Z</time>
      </trkpt>
      <trkpt lat="22.763151" lon="110.297950">
        <ele>127.110025</ele>
        <time>2026-08-16T07:52:09.000Z</time>
      </trkpt>
      <trkpt lat="22.763185" lon="110.297976">
        <ele>127.167322</ele>
        <time>2026-08-16T07:52:10.000Z</time>
      </trkpt>
      <trkpt lat="22.763221" lon="110.298005">
        <ele>127.229085</ele>
        <time>2026-08-16T07:52:11.000Z</time>
      </trkpt>
      <trkpt lat="22.763256" lon="110.298033">
        <ele>127.288986</ele>
        <time>2026-08-16T07:52:12.000Z</time>
      </trkpt>
      <trkpt lat="22.763291" lon="110.298061">
        <ele>127.348886</ele>
        <time>2026-08-16T07:52:13.000Z</time>
      </trkpt>
      <trkpt lat="22.763328" lon="110.298091">
        <ele>127.412512</ele>
        <time>2026-08-16T07:52:14.000Z</time>
      </trkpt>
      <trkpt lat="22.763364" lon="110.298120">
        <ele>127.474275</ele>
        <time>2026-08-16T07:52:15.000Z</time>
      </trkpt>
      <trkpt lat="22.763400" lon="110.298149">
        <ele>127.522407</ele>
        <time>2026-08-16T07:52:16.000Z</time>
      </trkpt>
      <trkpt lat="22.763437" lon="110.298177">
        <ele>127.553764</ele>
        <time>2026-08-16T07:52:17.000Z</time>
      </trkpt>
      <trkpt lat="22.763473" lon="110.298206">
        <ele>127.584930</ele>
        <time>2026-08-16T07:52:18.000Z</time>
      </trkpt>
      <trkpt lat="22.763508" lon="110.298234">
        <ele>127.615157</ele>
        <time>2026-08-16T07:52:19.000Z</time>
      </trkpt>
      <trkpt lat="22.763544" lon="110.298263">
        <ele>127.646324</ele>
        <time>2026-08-16T07:52:20.000Z</time>
      </trkpt>
      <trkpt lat="22.763580" lon="110.298292">
        <ele>127.677491</ele>
        <time>2026-08-16T07:52:21.000Z</time>
      </trkpt>
      <trkpt lat="22.763615" lon="110.298322">
        <ele>127.708496</ele>
        <time>2026-08-16T07:52:22.000Z</time>
      </trkpt>
      <trkpt lat="22.763650" lon="110.298352">
        <ele>127.739501</ele>
        <time>2026-08-16T07:52:23.000Z</time>
      </trkpt>
      <trkpt lat="22.763686" lon="110.298379">
        <ele>127.769921</ele>
        <time>2026-08-16T07:52:24.000Z</time>
      </trkpt>
      <trkpt lat="22.763722" lon="110.298407">
        <ele>127.800710</ele>
        <time>2026-08-16T07:52:25.000Z</time>
      </trkpt>
      <trkpt lat="22.763758" lon="110.298435">
        <ele>127.831499</ele>
        <time>2026-08-16T07:52:26.000Z</time>
      </trkpt>
      <trkpt lat="22.763793" lon="110.298463">
        <ele>127.861726</ele>
        <time>2026-08-16T07:52:27.000Z</time>
      </trkpt>
      <trkpt lat="22.763827" lon="110.298491">
        <ele>127.891396</ele>
        <time>2026-08-16T07:52:28.000Z</time>
      </trkpt>
      <trkpt lat="22.763860" lon="110.298520">
        <ele>127.920916</ele>
        <time>2026-08-16T07:52:29.000Z</time>
      </trkpt>
      <trkpt lat="22.763895" lon="110.298548">
        <ele>127.951143</ele>
        <time>2026-08-16T07:52:30.000Z</time>
      </trkpt>
      <trkpt lat="22.763928" lon="110.298576">
        <ele>127.980263</ele>
        <time>2026-08-16T07:52:31.000Z</time>
      </trkpt>
      <trkpt lat="22.763962" lon="110.298603">
        <ele>128.009550</ele>
        <time>2026-08-16T07:52:32.000Z</time>
      </trkpt>
      <trkpt lat="22.763996" lon="110.298630">
        <ele>128.038838</ele>
        <time>2026-08-16T07:52:33.000Z</time>
      </trkpt>
      <trkpt lat="22.764027" lon="110.298660">
        <ele>128.067713</ele>
        <time>2026-08-16T07:52:34.000Z</time>
      </trkpt>
      <trkpt lat="22.764060" lon="110.298688">
        <ele>128.096833</ele>
        <time>2026-08-16T07:52:35.000Z</time>
      </trkpt>
      <trkpt lat="22.764094" lon="110.298716">
        <ele>128.126504</ele>
        <time>2026-08-16T07:52:36.000Z</time>
      </trkpt>
      <trkpt lat="22.764129" lon="110.298744">
        <ele>128.156731</ele>
        <time>2026-08-16T07:52:37.000Z</time>
      </trkpt>
      <trkpt lat="22.764165" lon="110.298773">
        <ele>128.187897</ele>
        <time>2026-08-16T07:52:38.000Z</time>
      </trkpt>
      <trkpt lat="22.764202" lon="110.298802">
        <ele>128.219625</ele>
        <time>2026-08-16T07:52:39.000Z</time>
      </trkpt>
      <trkpt lat="22.764238" lon="110.298832">
        <ele>128.251178</ele>
        <time>2026-08-16T07:52:40.000Z</time>
      </trkpt>
      <trkpt lat="22.764273" lon="110.298863">
        <ele>128.282584</ele>
        <time>2026-08-16T07:52:41.000Z</time>
      </trkpt>
      <trkpt lat="22.764308" lon="110.298895">
        <ele>128.314400</ele>
        <time>2026-08-16T07:52:42.000Z</time>
      </trkpt>
      <trkpt lat="22.764345" lon="110.298925">
        <ele>128.346507</ele>
        <time>2026-08-16T07:52:43.000Z</time>
      </trkpt>
      <trkpt lat="22.764380" lon="110.298954">
        <ele>128.377118</ele>
        <time>2026-08-16T07:52:44.000Z</time>
      </trkpt>
      <trkpt lat="22.764416" lon="110.298985">
        <ele>128.409066</ele>
        <time>2026-08-16T07:52:45.000Z</time>
      </trkpt>
      <trkpt lat="22.764453" lon="110.299015">
        <ele>128.441173</ele>
        <time>2026-08-16T07:52:46.000Z</time>
      </trkpt>
      <trkpt lat="22.764488" lon="110.299044">
        <ele>128.471785</ele>
        <time>2026-08-16T07:52:47.000Z</time>
      </trkpt>
      <trkpt lat="22.764524" lon="110.299073">
        <ele>128.502951</ele>
        <time>2026-08-16T07:52:48.000Z</time>
      </trkpt>
      <trkpt lat="22.764559" lon="110.299103">
        <ele>128.533956</ele>
        <time>2026-08-16T07:52:49.000Z</time>
      </trkpt>
      <trkpt lat="22.764595" lon="110.299133">
        <ele>128.565509</ele>
        <time>2026-08-16T07:52:50.000Z</time>
      </trkpt>
      <trkpt lat="22.764632" lon="110.299163">
        <ele>128.597616</ele>
        <time>2026-08-16T07:52:51.000Z</time>
      </trkpt>
      <trkpt lat="22.764667" lon="110.299195">
        <ele>128.629432</ele>
        <time>2026-08-16T07:52:52.000Z</time>
      </trkpt>
      <trkpt lat="22.764704" lon="110.299226">
        <ele>128.661927</ele>
        <time>2026-08-16T07:52:53.000Z</time>
      </trkpt>
      <trkpt lat="22.764740" lon="110.299257">
        <ele>128.693874</ele>
        <time>2026-08-16T07:52:54.000Z</time>
      </trkpt>
      <trkpt lat="22.764776" lon="110.299290">
        <ele>128.726634</ele>
        <time>2026-08-16T07:52:55.000Z</time>
      </trkpt>
      <trkpt lat="22.764814" lon="110.299323">
        <ele>128.757469</ele>
        <time>2026-08-16T07:52:56.000Z</time>
      </trkpt>
      <trkpt lat="22.764854" lon="110.299356">
        <ele>128.737599</ele>
        <time>2026-08-16T07:52:57.000Z</time>
      </trkpt>
      <trkpt lat="22.764893" lon="110.299388">
        <ele>128.718263</ele>
        <time>2026-08-16T07:52:58.000Z</time>
      </trkpt>
      <trkpt lat="22.764931" lon="110.299418">
        <ele>128.699680</ele>
        <time>2026-08-16T07:52:59.000Z</time>
      </trkpt>
      <trkpt lat="22.764969" lon="110.299448">
        <ele>128.681097</ele>
        <time>2026-08-16T07:53:00.000Z</time>
      </trkpt>
      <trkpt lat="22.765009" lon="110.299478">
        <ele>128.661869</ele>
        <time>2026-08-16T07:53:01.000Z</time>
      </trkpt>
      <trkpt lat="22.765049" lon="110.299510">
        <ele>128.642217</ele>
        <time>2026-08-16T07:53:02.000Z</time>
      </trkpt>
      <trkpt lat="22.765091" lon="110.299543">
        <ele>128.621711</ele>
        <time>2026-08-16T07:53:03.000Z</time>
      </trkpt>
      <trkpt lat="22.765134" lon="110.299577">
        <ele>128.600672</ele>
        <time>2026-08-16T07:53:04.000Z</time>
      </trkpt>
      <trkpt lat="22.765176" lon="110.299611">
        <ele>128.579950</ele>
        <time>2026-08-16T07:53:05.000Z</time>
      </trkpt>
      <trkpt lat="22.765219" lon="110.299645">
        <ele>128.558911</ele>
        <time>2026-08-16T07:53:06.000Z</time>
      </trkpt>
      <trkpt lat="22.765262" lon="110.299681">
        <ele>128.537433</ele>
        <time>2026-08-16T07:53:07.000Z</time>
      </trkpt>
      <trkpt lat="22.765305" lon="110.299717">
        <ele>128.515956</ele>
        <time>2026-08-16T07:53:08.000Z</time>
      </trkpt>
      <trkpt lat="22.765350" lon="110.299751">
        <ele>128.494273</ele>
        <time>2026-08-16T07:53:09.000Z</time>
      </trkpt>
      <trkpt lat="22.765396" lon="110.299785">
        <ele>128.472263</ele>
        <time>2026-08-16T07:53:10.000Z</time>
      </trkpt>
      <trkpt lat="22.765442" lon="110.299821">
        <ele>128.449836</ele>
        <time>2026-08-16T07:53:11.000Z</time>
      </trkpt>
      <trkpt lat="22.765487" lon="110.299857">
        <ele>128.427727</ele>
        <time>2026-08-16T07:53:12.000Z</time>
      </trkpt>
      <trkpt lat="22.765532" lon="110.299896">
        <ele>128.404952</ele>
        <time>2026-08-16T07:53:13.000Z</time>
      </trkpt>
      <trkpt lat="22.765578" lon="110.299934">
        <ele>128.382090</ele>
        <time>2026-08-16T07:53:14.000Z</time>
      </trkpt>
      <trkpt lat="22.765624" lon="110.299972">
        <ele>128.359228</ele>
        <time>2026-08-16T07:53:15.000Z</time>
      </trkpt>
      <trkpt lat="22.765667" lon="110.300012">
        <ele>128.336830</ele>
        <time>2026-08-16T07:53:16.000Z</time>
      </trkpt>
      <trkpt lat="22.765712" lon="110.300051">
        <ele>128.314055</ele>
        <time>2026-08-16T07:53:17.000Z</time>
      </trkpt>
      <trkpt lat="22.765755" lon="110.300089">
        <ele>128.292125</ele>
        <time>2026-08-16T07:53:18.000Z</time>
      </trkpt>
      <trkpt lat="22.765798" lon="110.300129">
        <ele>128.269727</ele>
        <time>2026-08-16T07:53:19.000Z</time>
      </trkpt>
      <trkpt lat="22.765841" lon="110.300167">
        <ele>128.247796</ele>
        <time>2026-08-16T07:53:20.000Z</time>
      </trkpt>
      <trkpt lat="22.765885" lon="110.300204">
        <ele>128.225783</ele>
        <time>2026-08-16T07:53:21.000Z</time>
      </trkpt>
      <trkpt lat="22.765930" lon="110.300241">
        <ele>128.203456</ele>
        <time>2026-08-16T07:53:22.000Z</time>
      </trkpt>
      <trkpt lat="22.765973" lon="110.300278">
        <ele>128.181754</ele>
        <time>2026-08-16T07:53:23.000Z</time>
      </trkpt>
      <trkpt lat="22.766018" lon="110.300314">
        <ele>128.159646</ele>
        <time>2026-08-16T07:53:24.000Z</time>
      </trkpt>
      <trkpt lat="22.766063" lon="110.300350">
        <ele>128.137538</ele>
        <time>2026-08-16T07:53:25.000Z</time>
      </trkpt>
      <trkpt lat="22.766106" lon="110.300383">
        <ele>128.116711</ele>
        <time>2026-08-16T07:53:26.000Z</time>
      </trkpt>
      <trkpt lat="22.766151" lon="110.300416">
        <ele>128.095234</ele>
        <time>2026-08-16T07:53:27.000Z</time>
      </trkpt>
      <trkpt lat="22.766193" lon="110.300451">
        <ele>128.074292</ele>
        <time>2026-08-16T07:53:28.000Z</time>
      </trkpt>
      <trkpt lat="22.766235" lon="110.300487">
        <ele>128.053126</ele>
        <time>2026-08-16T07:53:29.000Z</time>
      </trkpt>
      <trkpt lat="22.766276" lon="110.300523">
        <ele>128.104514</ele>
        <time>2026-08-16T07:53:30.000Z</time>
      </trkpt>
      <trkpt lat="22.766317" lon="110.300558">
        <ele>128.182157</ele>
        <time>2026-08-16T07:53:31.000Z</time>
      </trkpt>
      <trkpt lat="22.766359" lon="110.300591">
        <ele>128.259333</ele>
        <time>2026-08-16T07:53:32.000Z</time>
      </trkpt>
      <trkpt lat="22.766398" lon="110.300625">
        <ele>128.333793</ele>
        <time>2026-08-16T07:53:33.000Z</time>
      </trkpt>
      <trkpt lat="22.766439" lon="110.300658">
        <ele>128.409769</ele>
        <time>2026-08-16T07:53:34.000Z</time>
      </trkpt>
      <trkpt lat="22.766480" lon="110.300691">
        <ele>128.485746</ele>
        <time>2026-08-16T07:53:35.000Z</time>
      </trkpt>
      <trkpt lat="22.766518" lon="110.300724">
        <ele>128.558186</ele>
        <time>2026-08-16T07:53:36.000Z</time>
      </trkpt>
      <trkpt lat="22.766555" lon="110.300757">
        <ele>128.629471</ele>
        <time>2026-08-16T07:53:37.000Z</time>
      </trkpt>
      <trkpt lat="22.766592" lon="110.300792">
        <ele>128.702530</ele>
        <time>2026-08-16T07:53:38.000Z</time>
      </trkpt>
      <trkpt lat="22.766627" lon="110.300824">
        <ele>128.770650</ele>
        <time>2026-08-16T07:53:39.000Z</time>
      </trkpt>
      <trkpt lat="22.766665" lon="110.300857">
        <ele>128.843091</ele>
        <time>2026-08-16T07:53:40.000Z</time>
      </trkpt>
      <trkpt lat="22.766702" lon="110.300888">
        <ele>128.912665</ele>
        <time>2026-08-16T07:53:41.000Z</time>
      </trkpt>
      <trkpt lat="22.766738" lon="110.300920">
        <ele>128.981929</ele>
        <time>2026-08-16T07:53:42.000Z</time>
      </trkpt>
      <trkpt lat="22.766774" lon="110.300954">
        <ele>129.052965</ele>
        <time>2026-08-16T07:53:43.000Z</time>
      </trkpt>
      <trkpt lat="22.766809" lon="110.300987">
        <ele>129.121977</ele>
        <time>2026-08-16T07:53:44.000Z</time>
      </trkpt>
      <trkpt lat="22.766845" lon="110.301019">
        <ele>129.191241</ele>
        <time>2026-08-16T07:53:45.000Z</time>
      </trkpt>
      <trkpt lat="22.766881" lon="110.301051">
        <ele>129.260505</ele>
        <time>2026-08-16T07:53:46.000Z</time>
      </trkpt>
      <trkpt lat="22.766916" lon="110.301083">
        <ele>129.328625</ele>
        <time>2026-08-16T07:53:47.000Z</time>
      </trkpt>
      <trkpt lat="22.766950" lon="110.301114">
        <ele>129.394723</ele>
        <time>2026-08-16T07:53:48.000Z</time>
      </trkpt>
      <trkpt lat="22.766983" lon="110.301144">
        <ele>129.458799</ele>
        <time>2026-08-16T07:53:49.000Z</time>
      </trkpt>
      <trkpt lat="22.767016" lon="110.301175">
        <ele>129.523765</ele>
        <time>2026-08-16T07:53:50.000Z</time>
      </trkpt>
      <trkpt lat="22.767047" lon="110.301206">
        <ele>129.586512</ele>
        <time>2026-08-16T07:53:51.000Z</time>
      </trkpt>
      <trkpt lat="22.767079" lon="110.301236">
        <ele>129.649455</ele>
        <time>2026-08-16T07:53:52.000Z</time>
      </trkpt>
      <trkpt lat="22.767110" lon="110.301266">
        <ele>129.711279</ele>
        <time>2026-08-16T07:53:53.000Z</time>
      </trkpt>
      <trkpt lat="22.767141" lon="110.301298">
        <ele>129.774964</ele>
        <time>2026-08-16T07:53:54.000Z</time>
      </trkpt>
      <trkpt lat="22.767173" lon="110.301331">
        <ele>129.840673</ele>
        <time>2026-08-16T07:53:55.000Z</time>
      </trkpt>
      <trkpt lat="22.767205" lon="110.301364">
        <ele>129.906381</ele>
        <time>2026-08-16T07:53:56.000Z</time>
      </trkpt>
      <trkpt lat="22.767237" lon="110.301396">
        <ele>129.971152</ele>
        <time>2026-08-16T07:53:57.000Z</time>
      </trkpt>
      <trkpt lat="22.767268" lon="110.301427">
        <ele>130.033899</ele>
        <time>2026-08-16T07:53:58.000Z</time>
      </trkpt>
      <trkpt lat="22.767298" lon="110.301459">
        <ele>130.096514</ele>
        <time>2026-08-16T07:53:59.000Z</time>
      </trkpt>
      <trkpt lat="22.767329" lon="110.301492">
        <ele>130.161152</ele>
        <time>2026-08-16T07:54:00.000Z</time>
      </trkpt>
      <trkpt lat="22.767360" lon="110.301524">
        <ele>130.224837</ele>
        <time>2026-08-16T07:54:01.000Z</time>
      </trkpt>
      <trkpt lat="22.767390" lon="110.301555">
        <ele>130.286498</ele>
        <time>2026-08-16T07:54:02.000Z</time>
      </trkpt>
      <trkpt lat="22.767419" lon="110.301586">
        <ele>130.347090</ele>
        <time>2026-08-16T07:54:03.000Z</time>
      </trkpt>
      <trkpt lat="22.767446" lon="110.301619">
        <ele>130.407624</ele>
        <time>2026-08-16T07:54:04.000Z</time>
      </trkpt>
      <trkpt lat="22.767473" lon="110.301653">
        <ele>130.469192</ele>
        <time>2026-08-16T07:54:05.000Z</time>
      </trkpt>
      <trkpt lat="22.767502" lon="110.301688">
        <ele>130.533755</ele>
        <time>2026-08-16T07:54:06.000Z</time>
      </trkpt>
      <trkpt lat="22.767532" lon="110.301722">
        <ele>130.598324</ele>
        <time>2026-08-16T07:54:07.000Z</time>
      </trkpt>
      <trkpt lat="22.767560" lon="110.301755">
        <ele>130.659856</ele>
        <time>2026-08-16T07:54:08.000Z</time>
      </trkpt>
      <trkpt lat="22.767589" lon="110.301791">
        <ele>130.725437</ele>
        <time>2026-08-16T07:54:09.000Z</time>
      </trkpt>
      <trkpt lat="22.767620" lon="110.301828">
        <ele>130.793602</ele>
        <time>2026-08-16T07:54:10.000Z</time>
      </trkpt>
      <trkpt lat="22.767649" lon="110.301864">
        <ele>130.858782</ele>
        <time>2026-08-16T07:54:11.000Z</time>
      </trkpt>
      <trkpt lat="22.767678" lon="110.301900">
        <ele>130.923962</ele>
        <time>2026-08-16T07:54:12.000Z</time>
      </trkpt>
      <trkpt lat="22.767708" lon="110.301937">
        <ele>130.991143</ele>
        <time>2026-08-16T07:54:13.000Z</time>
      </trkpt>
      <trkpt lat="22.767738" lon="110.301974">
        <ele>131.058323</ele>
        <time>2026-08-16T07:54:14.000Z</time>
      </trkpt>
      <trkpt lat="22.767768" lon="110.302010">
        <ele>131.124485</ele>
        <time>2026-08-16T07:54:15.000Z</time>
      </trkpt>
      <trkpt lat="22.767799" lon="110.302046">
        <ele>131.191647</ele>
        <time>2026-08-16T07:54:16.000Z</time>
      </trkpt>
      <trkpt lat="22.767830" lon="110.302083">
        <ele>131.259813</ele>
        <time>2026-08-16T07:54:17.000Z</time>
      </trkpt>
      <trkpt lat="22.767858" lon="110.302120">
        <ele>131.325078</ele>
        <time>2026-08-16T07:54:18.000Z</time>
      </trkpt>
      <trkpt lat="22.767884" lon="110.302159">
        <ele>131.390698</ele>
        <time>2026-08-16T07:54:19.000Z</time>
      </trkpt>
      <trkpt lat="22.767909" lon="110.302200">
        <ele>131.457719</ele>
        <time>2026-08-16T07:54:20.000Z</time>
      </trkpt>
      <trkpt lat="22.767932" lon="110.302241">
        <ele>131.523156</ele>
        <time>2026-08-16T07:54:21.000Z</time>
      </trkpt>
      <trkpt lat="22.767953" lon="110.302283">
        <ele>131.588301</ele>
        <time>2026-08-16T07:54:22.000Z</time>
      </trkpt>
      <trkpt lat="22.767975" lon="110.302325">
        <ele>131.654163</ele>
        <time>2026-08-16T07:54:23.000Z</time>
      </trkpt>
      <trkpt lat="22.767999" lon="110.302366">
        <ele>131.720380</ele>
        <time>2026-08-16T07:54:24.000Z</time>
      </trkpt>
      <trkpt lat="22.768023" lon="110.302406">
        <ele>131.785451</ele>
        <time>2026-08-16T07:54:25.000Z</time>
      </trkpt>
      <trkpt lat="22.768047" lon="110.302447">
        <ele>131.851668</ele>
        <time>2026-08-16T07:54:26.000Z</time>
      </trkpt>
      <trkpt lat="22.768071" lon="110.302487">
        <ele>131.916738</ele>
        <time>2026-08-16T07:54:27.000Z</time>
      </trkpt>
      <trkpt lat="22.768097" lon="110.302527">
        <ele>131.983468</ele>
        <time>2026-08-16T07:54:28.000Z</time>
      </trkpt>
      <trkpt lat="22.768121" lon="110.302569">
        <ele>132.050840</ele>
        <time>2026-08-16T07:54:29.000Z</time>
      </trkpt>
      <trkpt lat="22.768146" lon="110.302610">
        <ele>132.117861</ele>
        <time>2026-08-16T07:54:30.000Z</time>
      </trkpt>
      <trkpt lat="22.768171" lon="110.302650">
        <ele>132.183750</ele>
        <time>2026-08-16T07:54:31.000Z</time>
      </trkpt>
      <trkpt lat="22.768196" lon="110.302691">
        <ele>132.250771</ele>
        <time>2026-08-16T07:54:32.000Z</time>
      </trkpt>
      <trkpt lat="22.768222" lon="110.302732">
        <ele>132.318619</ele>
        <time>2026-08-16T07:54:33.000Z</time>
      </trkpt>
      <trkpt lat="22.768250" lon="110.302773">
        <ele>132.388186</ele>
        <time>2026-08-16T07:54:34.000Z</time>
      </trkpt>
      <trkpt lat="22.768276" lon="110.302816">
        <ele>132.458298</ele>
        <time>2026-08-16T07:54:35.000Z</time>
      </trkpt>
      <trkpt lat="22.768301" lon="110.302858">
        <ele>132.526461</ele>
        <time>2026-08-16T07:54:36.000Z</time>
      </trkpt>
      <trkpt lat="22.768328" lon="110.302899">
        <ele>132.595158</ele>
        <time>2026-08-16T07:54:37.000Z</time>
      </trkpt>
      <trkpt lat="22.768351" lon="110.302941">
        <ele>132.661764</ele>
        <time>2026-08-16T07:54:38.000Z</time>
      </trkpt>
      <trkpt lat="22.768374" lon="110.302981">
        <ele>132.726039</ele>
        <time>2026-08-16T07:54:39.000Z</time>
      </trkpt>
      <trkpt lat="22.768400" lon="110.303018">
        <ele>132.789469</ele>
        <time>2026-08-16T07:54:40.000Z</time>
      </trkpt>
      <trkpt lat="22.768424" lon="110.303059">
        <ele>132.855686</ele>
        <time>2026-08-16T07:54:41.000Z</time>
      </trkpt>
      <trkpt lat="22.768447" lon="110.303100">
        <ele>132.921123</ele>
        <time>2026-08-16T07:54:42.000Z</time>
      </trkpt>
      <trkpt lat="22.768471" lon="110.303138">
        <ele>132.983925</ele>
        <time>2026-08-16T07:54:43.000Z</time>
      </trkpt>
      <trkpt lat="22.768494" lon="110.303178">
        <ele>133.048200</ele>
        <time>2026-08-16T07:54:44.000Z</time>
      </trkpt>
      <trkpt lat="22.768514" lon="110.303217">
        <ele>133.109047</ele>
        <time>2026-08-16T07:54:45.000Z</time>
      </trkpt>
      <trkpt lat="22.768535" lon="110.303256">
        <ele>133.170627</ele>
        <time>2026-08-16T07:54:46.000Z</time>
      </trkpt>
      <trkpt lat="22.768553" lon="110.303294">
        <ele>133.228877</ele>
        <time>2026-08-16T07:54:47.000Z</time>
      </trkpt>
      <trkpt lat="22.768569" lon="110.303333">
        <ele>133.287079</ele>
        <time>2026-08-16T07:54:48.000Z</time>
      </trkpt>
      <trkpt lat="22.768585" lon="110.303373">
        <ele>133.346530</ele>
        <time>2026-08-16T07:54:49.000Z</time>
      </trkpt>
      <trkpt lat="22.768603" lon="110.303411">
        <ele>133.384746</ele>
        <time>2026-08-16T07:54:50.000Z</time>
      </trkpt>
      <trkpt lat="22.768627" lon="110.303442">
        <ele>133.387748</ele>
        <time>2026-08-16T07:54:51.000Z</time>
      </trkpt>
      <trkpt lat="22.768647" lon="110.303476">
        <ele>133.390738</ele>
        <time>2026-08-16T07:54:52.000Z</time>
      </trkpt>
      <trkpt lat="22.768663" lon="110.303510">
        <ele>133.393568</ele>
        <time>2026-08-16T07:54:53.000Z</time>
      </trkpt>
      <trkpt lat="22.768688" lon="110.303542">
        <ele>133.396678</ele>
        <time>2026-08-16T07:54:54.000Z</time>
      </trkpt>
      <trkpt lat="22.768712" lon="110.303578">
        <ele>133.399972</ele>
        <time>2026-08-16T07:54:55.000Z</time>
      </trkpt>
      <trkpt lat="22.768736" lon="110.303617">
        <ele>133.403449</ele>
        <time>2026-08-16T07:54:56.000Z</time>
      </trkpt>
      <trkpt lat="22.768759" lon="110.303659">
        <ele>133.407071</ele>
        <time>2026-08-16T07:54:57.000Z</time>
      </trkpt>
      <trkpt lat="22.768785" lon="110.303703">
        <ele>133.410946</ele>
        <time>2026-08-16T07:54:58.000Z</time>
      </trkpt>
      <trkpt lat="22.768803" lon="110.303745">
        <ele>133.414381</ele>
        <time>2026-08-16T07:54:59.000Z</time>
      </trkpt>
      <trkpt lat="22.768820" lon="110.303785">
        <ele>133.417647</ele>
        <time>2026-08-16T07:55:00.000Z</time>
      </trkpt>
      <trkpt lat="22.768835" lon="110.303824">
        <ele>133.420780</ele>
        <time>2026-08-16T07:55:01.000Z</time>
      </trkpt>
      <trkpt lat="22.768853" lon="110.303863">
        <ele>133.424014</ele>
        <time>2026-08-16T07:55:02.000Z</time>
      </trkpt>
      <trkpt lat="22.768876" lon="110.303901">
        <ele>133.427384</ele>
        <time>2026-08-16T07:55:03.000Z</time>
      </trkpt>
      <trkpt lat="22.768898" lon="110.303938">
        <ele>133.430649</ele>
        <time>2026-08-16T07:55:04.000Z</time>
      </trkpt>
      <trkpt lat="22.768921" lon="110.303974">
        <ele>133.433897</ele>
        <time>2026-08-16T07:55:05.000Z</time>
      </trkpt>
      <trkpt lat="22.768942" lon="110.304014">
        <ele>133.437310</ele>
        <time>2026-08-16T07:55:06.000Z</time>
      </trkpt>
      <trkpt lat="22.768958" lon="110.304056">
        <ele>133.440679</ele>
        <time>2026-08-16T07:55:07.000Z</time>
      </trkpt>
      <trkpt lat="22.768978" lon="110.304096">
        <ele>133.444053</ele>
        <time>2026-08-16T07:55:08.000Z</time>
      </trkpt>
      <trkpt lat="22.768996" lon="110.304139">
        <ele>133.447555</ele>
        <time>2026-08-16T07:55:09.000Z</time>
      </trkpt>
      <trkpt lat="22.769013" lon="110.304182">
        <ele>133.451024</ele>
        <time>2026-08-16T07:55:10.000Z</time>
      </trkpt>
      <trkpt lat="22.769036" lon="110.304222">
        <ele>133.454520</ele>
        <time>2026-08-16T07:55:11.000Z</time>
      </trkpt>
      <trkpt lat="22.769063" lon="110.304261">
        <ele>133.458136</ele>
        <time>2026-08-16T07:55:12.000Z</time>
      </trkpt>
      <trkpt lat="22.769085" lon="110.304305">
        <ele>133.461847</ele>
        <time>2026-08-16T07:55:13.000Z</time>
      </trkpt>
      <trkpt lat="22.769105" lon="110.304359">
        <ele>133.466162</ele>
        <time>2026-08-16T07:55:14.000Z</time>
      </trkpt>
      <trkpt lat="22.769125" lon="110.304420">
        <ele>133.470963</ele>
        <time>2026-08-16T07:55:15.000Z</time>
      </trkpt>
      <trkpt lat="22.769146" lon="110.304470">
        <ele>133.475037</ele>
        <time>2026-08-16T07:55:16.000Z</time>
      </trkpt>
      <trkpt lat="22.769167" lon="110.304518">
        <ele>133.478976</ele>
        <time>2026-08-16T07:55:17.000Z</time>
      </trkpt>
      <trkpt lat="22.769196" lon="110.304566">
        <ele>133.483232</ele>
        <time>2026-08-16T07:55:18.000Z</time>
      </trkpt>
      <trkpt lat="22.769219" lon="110.304616">
        <ele>133.487375</ele>
        <time>2026-08-16T07:55:19.000Z</time>
      </trkpt>
      <trkpt lat="22.769238" lon="110.304668">
        <ele>133.491522</ele>
        <time>2026-08-16T07:55:20.000Z</time>
      </trkpt>
      <trkpt lat="22.769256" lon="110.304721">
        <ele>133.495710</ele>
        <time>2026-08-16T07:55:21.000Z</time>
      </trkpt>
      <trkpt lat="22.769279" lon="110.304780">
        <ele>133.500460</ele>
        <time>2026-08-16T07:55:22.000Z</time>
      </trkpt>
      <trkpt lat="22.769296" lon="110.304834">
        <ele>133.504691</ele>
        <time>2026-08-16T07:55:23.000Z</time>
      </trkpt>
      <trkpt lat="22.769310" lon="110.304890">
        <ele>133.508994</ele>
        <time>2026-08-16T07:55:24.000Z</time>
      </trkpt>
      <trkpt lat="22.769324" lon="110.304944">
        <ele>133.513153</ele>
        <time>2026-08-16T07:55:25.000Z</time>
      </trkpt>
      <trkpt lat="22.769341" lon="110.304996">
        <ele>133.517244</ele>
        <time>2026-08-16T07:55:26.000Z</time>
      </trkpt>
      <trkpt lat="22.769362" lon="110.305047">
        <ele>133.521386</ele>
        <time>2026-08-16T07:55:27.000Z</time>
      </trkpt>
      <trkpt lat="22.769387" lon="110.305107">
        <ele>133.526268</ele>
        <time>2026-08-16T07:55:28.000Z</time>
      </trkpt>
      <trkpt lat="22.769415" lon="110.305165">
        <ele>133.553605</ele>
        <time>2026-08-16T07:55:29.000Z</time>
      </trkpt>
      <trkpt lat="22.769443" lon="110.305224">
        <ele>133.596843</ele>
        <time>2026-08-16T07:55:30.000Z</time>
      </trkpt>
      <trkpt lat="22.769470" lon="110.305284">
        <ele>133.640348</ele>
        <time>2026-08-16T07:55:31.000Z</time>
      </trkpt>
      <trkpt lat="22.769496" lon="110.305341">
        <ele>133.681786</ele>
        <time>2026-08-16T07:55:32.000Z</time>
      </trkpt>
      <trkpt lat="22.769522" lon="110.305398">
        <ele>133.723225</ele>
        <time>2026-08-16T07:55:33.000Z</time>
      </trkpt>
      <trkpt lat="22.769548" lon="110.305454">
        <ele>133.764080</ele>
        <time>2026-08-16T07:55:34.000Z</time>
      </trkpt>
      <trkpt lat="22.769573" lon="110.305508">
        <ele>133.803454</ele>
        <time>2026-08-16T07:55:35.000Z</time>
      </trkpt>
      <trkpt lat="22.769601" lon="110.305560">
        <ele>133.842692</ele>
        <time>2026-08-16T07:55:36.000Z</time>
      </trkpt>
      <trkpt lat="22.769630" lon="110.305609">
        <ele>133.880633</ele>
        <time>2026-08-16T07:55:37.000Z</time>
      </trkpt>
      <trkpt lat="22.769660" lon="110.305656">
        <ele>133.917881</ele>
        <time>2026-08-16T07:55:38.000Z</time>
      </trkpt>
      <trkpt lat="22.769690" lon="110.305701">
        <ele>133.954065</ele>
        <time>2026-08-16T07:55:39.000Z</time>
      </trkpt>
      <trkpt lat="22.769719" lon="110.305745">
        <ele>133.989308</ele>
        <time>2026-08-16T07:55:40.000Z</time>
      </trkpt>
      <trkpt lat="22.769748" lon="110.305788">
        <ele>134.024022</ele>
        <time>2026-08-16T07:55:41.000Z</time>
      </trkpt>
      <trkpt lat="22.769776" lon="110.305830">
        <ele>134.057794</ele>
        <time>2026-08-16T07:55:42.000Z</time>
      </trkpt>
      <trkpt lat="22.769806" lon="110.305870">
        <ele>134.091392</ele>
        <time>2026-08-16T07:55:43.000Z</time>
      </trkpt>
      <trkpt lat="22.769834" lon="110.305910">
        <ele>134.124117</ele>
        <time>2026-08-16T07:55:44.000Z</time>
      </trkpt>
      <trkpt lat="22.769863" lon="110.305948">
        <ele>134.156259</ele>
        <time>2026-08-16T07:55:45.000Z</time>
      </trkpt>
      <trkpt lat="22.769890" lon="110.305985">
        <ele>134.187006</ele>
        <time>2026-08-16T07:55:46.000Z</time>
      </trkpt>
      <trkpt lat="22.769915" lon="110.306021">
        <ele>134.216373</ele>
        <time>2026-08-16T07:55:47.000Z</time>
      </trkpt>
      <trkpt lat="22.769941" lon="110.306058">
        <ele>134.246686</ele>
        <time>2026-08-16T07:55:48.000Z</time>
      </trkpt>
      <trkpt lat="22.769968" lon="110.306095">
        <ele>134.277432</ele>
        <time>2026-08-16T07:55:49.000Z</time>
      </trkpt>
      <trkpt lat="22.769993" lon="110.306131">
        <ele>134.306799</ele>
        <time>2026-08-16T07:55:50.000Z</time>
      </trkpt>
      <trkpt lat="22.770016" lon="110.306165">
        <ele>134.334277</ele>
        <time>2026-08-16T07:55:51.000Z</time>
      </trkpt>
      <trkpt lat="22.770040" lon="110.306200">
        <ele>134.362699</ele>
        <time>2026-08-16T07:55:52.000Z</time>
      </trkpt>
      <trkpt lat="22.770064" lon="110.306234">
        <ele>134.390600</ele>
        <time>2026-08-16T07:55:53.000Z</time>
      </trkpt>
      <trkpt lat="22.770089" lon="110.306267">
        <ele>134.418431</ele>
        <time>2026-08-16T07:55:54.000Z</time>
      </trkpt>
      <trkpt lat="22.770114" lon="110.306298">
        <ele>134.445267</ele>
        <time>2026-08-16T07:55:55.000Z</time>
      </trkpt>
      <trkpt lat="22.770139" lon="110.306330">
        <ele>134.472597</ele>
        <time>2026-08-16T07:55:56.000Z</time>
      </trkpt>
      <trkpt lat="22.770165" lon="110.306362">
        <ele>134.500389</ele>
        <time>2026-08-16T07:55:57.000Z</time>
      </trkpt>
      <trkpt lat="22.770191" lon="110.306395">
        <ele>134.528673</ele>
        <time>2026-08-16T07:55:58.000Z</time>
      </trkpt>
      <trkpt lat="22.770215" lon="110.306429">
        <ele>134.556574</ele>
        <time>2026-08-16T07:55:59.000Z</time>
      </trkpt>
      <trkpt lat="22.770241" lon="110.306463">
        <ele>134.585357</ele>
        <time>2026-08-16T07:56:00.000Z</time>
      </trkpt>
      <trkpt lat="22.770267" lon="110.306496">
        <ele>134.613641</ele>
        <time>2026-08-16T07:56:01.000Z</time>
      </trkpt>
      <trkpt lat="22.770293" lon="110.306530">
        <ele>134.642424</ele>
        <time>2026-08-16T07:56:02.000Z</time>
      </trkpt>
      <trkpt lat="22.770317" lon="110.306563">
        <ele>134.669811</ele>
        <time>2026-08-16T07:56:03.000Z</time>
      </trkpt>
      <trkpt lat="22.770344" lon="110.306596">
        <ele>134.698559</ele>
        <time>2026-08-16T07:56:04.000Z</time>
      </trkpt>
      <trkpt lat="22.770373" lon="110.306627">
        <ele>134.727335</ele>
        <time>2026-08-16T07:56:05.000Z</time>
      </trkpt>
      <trkpt lat="22.770402" lon="110.306659">
        <ele>134.756572</ele>
        <time>2026-08-16T07:56:06.000Z</time>
      </trkpt>
      <trkpt lat="22.770430" lon="110.306690">
        <ele>134.784848</ele>
        <time>2026-08-16T07:56:07.000Z</time>
      </trkpt>
      <trkpt lat="22.770457" lon="110.306721">
        <ele>134.803630</ele>
        <time>2026-08-16T07:56:08.000Z</time>
      </trkpt>
      <trkpt lat="22.770484" lon="110.306752">
        <ele>134.812625</ele>
        <time>2026-08-16T07:56:09.000Z</time>
      </trkpt>
      <trkpt lat="22.770511" lon="110.306784">
        <ele>134.821776</ele>
        <time>2026-08-16T07:56:10.000Z</time>
      </trkpt>
      <trkpt lat="22.770539" lon="110.306818">
        <ele>134.831392</ele>
        <time>2026-08-16T07:56:11.000Z</time>
      </trkpt>
      <trkpt lat="22.770565" lon="110.306853">
        <ele>134.840873</ele>
        <time>2026-08-16T07:56:12.000Z</time>
      </trkpt>
      <trkpt lat="22.770592" lon="110.306888">
        <ele>134.850500</ele>
        <time>2026-08-16T07:56:13.000Z</time>
      </trkpt>
      <trkpt lat="22.770619" lon="110.306923">
        <ele>134.860127</ele>
        <time>2026-08-16T07:56:14.000Z</time>
      </trkpt>
      <trkpt lat="22.770647" lon="110.306958">
        <ele>134.869901</ele>
        <time>2026-08-16T07:56:15.000Z</time>
      </trkpt>
      <trkpt lat="22.770674" lon="110.306994">
        <ele>134.879691</ele>
        <time>2026-08-16T07:56:16.000Z</time>
      </trkpt>
      <trkpt lat="22.770703" lon="110.307030">
        <ele>134.889775</ele>
        <time>2026-08-16T07:56:17.000Z</time>
      </trkpt>
      <trkpt lat="22.770733" lon="110.307068">
        <ele>134.900328</ele>
        <time>2026-08-16T07:56:18.000Z</time>
      </trkpt>
      <trkpt lat="22.770760" lon="110.307105">
        <ele>134.910282</ele>
        <time>2026-08-16T07:56:19.000Z</time>
      </trkpt>
      <trkpt lat="22.770791" lon="110.307142">
        <ele>134.920828</ele>
        <time>2026-08-16T07:56:20.000Z</time>
      </trkpt>
      <trkpt lat="22.770822" lon="110.307183">
        <ele>134.932013</ele>
        <time>2026-08-16T07:56:21.000Z</time>
      </trkpt>
      <trkpt lat="22.770850" lon="110.307223">
        <ele>134.942607</ele>
        <time>2026-08-16T07:56:22.000Z</time>
      </trkpt>
      <trkpt lat="22.770880" lon="110.307262">
        <ele>134.953321</ele>
        <time>2026-08-16T07:56:23.000Z</time>
      </trkpt>
      <trkpt lat="22.770912" lon="110.307302">
        <ele>134.964493</ele>
        <time>2026-08-16T07:56:24.000Z</time>
      </trkpt>
      <trkpt lat="22.770944" lon="110.307341">
        <ele>134.975505</ele>
        <time>2026-08-16T07:56:25.000Z</time>
      </trkpt>
      <trkpt lat="22.770975" lon="110.307380">
        <ele>134.986368</ele>
        <time>2026-08-16T07:56:26.000Z</time>
      </trkpt>
      <trkpt lat="22.771009" lon="110.307421">
        <ele>134.998000</ele>
        <time>2026-08-16T07:56:27.000Z</time>
      </trkpt>
      <trkpt lat="22.771042" lon="110.307462">
        <ele>135.009481</ele>
        <time>2026-08-16T07:56:28.000Z</time>
      </trkpt>
      <trkpt lat="22.771074" lon="110.307503">
        <ele>135.020812</ele>
        <time>2026-08-16T07:56:29.000Z</time>
      </trkpt>
      <trkpt lat="22.771107" lon="110.307544">
        <ele>135.032293</ele>
        <time>2026-08-16T07:56:30.000Z</time>
      </trkpt>
      <trkpt lat="22.771139" lon="110.307586">
        <ele>135.043786</ele>
        <time>2026-08-16T07:56:31.000Z</time>
      </trkpt>
      <trkpt lat="22.771172" lon="110.307628">
        <ele>135.055426</ele>
        <time>2026-08-16T07:56:32.000Z</time>
      </trkpt>
      <trkpt lat="22.771203" lon="110.307669">
        <ele>135.066611</ele>
        <time>2026-08-16T07:56:33.000Z</time>
      </trkpt>
      <trkpt lat="22.771235" lon="110.307710">
        <ele>135.077943</ele>
        <time>2026-08-16T07:56:34.000Z</time>
      </trkpt>
      <trkpt lat="22.771267" lon="110.307751">
        <ele>135.089274</ele>
        <time>2026-08-16T07:56:35.000Z</time>
      </trkpt>
      <trkpt lat="22.771299" lon="110.307794">
        <ele>135.100931</ele>
        <time>2026-08-16T07:56:36.000Z</time>
      </trkpt>
      <trkpt lat="22.771332" lon="110.307837">
        <ele>135.112733</ele>
        <time>2026-08-16T07:56:37.000Z</time>
      </trkpt>
      <trkpt lat="22.771365" lon="110.307879">
        <ele>135.124373</ele>
        <time>2026-08-16T07:56:38.000Z</time>
      </trkpt>
      <trkpt lat="22.771398" lon="110.307923">
        <ele>135.136338</ele>
        <time>2026-08-16T07:56:39.000Z</time>
      </trkpt>
      <trkpt lat="22.771431" lon="110.307967">
        <ele>135.148302</ele>
        <time>2026-08-16T07:56:40.000Z</time>
      </trkpt>
      <trkpt lat="22.771465" lon="110.308011">
        <ele>135.160413</ele>
        <time>2026-08-16T07:56:41.000Z</time>
      </trkpt>
      <trkpt lat="22.771501" lon="110.308054">
        <ele>135.172665</ele>
        <time>2026-08-16T07:56:42.000Z</time>
      </trkpt>
      <trkpt lat="22.771537" lon="110.308098">
        <ele>135.185074</ele>
        <time>2026-08-16T07:56:43.000Z</time>
      </trkpt>
      <trkpt lat="22.771572" lon="110.308143">
        <ele>135.197493</ele>
        <time>2026-08-16T07:56:44.000Z</time>
      </trkpt>
      <trkpt lat="22.771606" lon="110.308188">
        <ele>135.209766</ele>
        <time>2026-08-16T07:56:45.000Z</time>
      </trkpt>
      <trkpt lat="22.771641" lon="110.308233">
        <ele>135.250632</ele>
        <time>2026-08-16T07:56:46.000Z</time>
      </trkpt>
      <trkpt lat="22.771677" lon="110.308279">
        <ele>135.295211</ele>
        <time>2026-08-16T07:56:47.000Z</time>
      </trkpt>
      <trkpt lat="22.771714" lon="110.308325">
        <ele>135.340313</ele>
        <time>2026-08-16T07:56:48.000Z</time>
      </trkpt>
      <trkpt lat="22.771749" lon="110.308371">
        <ele>135.384377</ele>
        <time>2026-08-16T07:56:49.000Z</time>
      </trkpt>
      <trkpt lat="22.771784" lon="110.308417">
        <ele>135.428442</ele>
        <time>2026-08-16T07:56:50.000Z</time>
      </trkpt>
      <trkpt lat="22.771818" lon="110.308464">
        <ele>135.472580</ele>
        <time>2026-08-16T07:56:51.000Z</time>
      </trkpt>
      <trkpt lat="22.771851" lon="110.308509">
        <ele>135.515061</ele>
        <time>2026-08-16T07:56:52.000Z</time>
      </trkpt>
      <trkpt lat="22.771884" lon="110.308555">
        <ele>135.558124</ele>
        <time>2026-08-16T07:56:53.000Z</time>
      </trkpt>
      <trkpt lat="22.771918" lon="110.308600">
        <ele>135.601109</ele>
        <time>2026-08-16T07:56:54.000Z</time>
      </trkpt>
      <trkpt lat="22.771951" lon="110.308645">
        <ele>135.643590</ele>
        <time>2026-08-16T07:56:55.000Z</time>
      </trkpt>
      <trkpt lat="22.771984" lon="110.308690">
        <ele>135.686072</ele>
        <time>2026-08-16T07:56:56.000Z</time>
      </trkpt>
      <trkpt lat="22.772016" lon="110.308735">
        <ele>135.728059</ele>
        <time>2026-08-16T07:56:57.000Z</time>
      </trkpt>
      <trkpt lat="22.772049" lon="110.308780">
        <ele>135.770541</ele>
        <time>2026-08-16T07:56:58.000Z</time>
      </trkpt>
      <trkpt lat="22.772080" lon="110.308824">
        <ele>135.811454</ele>
        <time>2026-08-16T07:56:59.000Z</time>
      </trkpt>
      <trkpt lat="22.772110" lon="110.308868">
        <ele>135.851886</ele>
        <time>2026-08-16T07:57:00.000Z</time>
      </trkpt>
      <trkpt lat="22.772141" lon="110.308913">
        <ele>135.893389</ele>
        <time>2026-08-16T07:57:01.000Z</time>
      </trkpt>
      <trkpt lat="22.772172" lon="110.308959">
        <ele>135.935486</ele>
        <time>2026-08-16T07:57:02.000Z</time>
      </trkpt>
      <trkpt lat="22.772204" lon="110.309005">
        <ele>135.978061</ele>
        <time>2026-08-16T07:57:03.000Z</time>
      </trkpt>
      <trkpt lat="22.772235" lon="110.309052">
        <ele>136.020757</ele>
        <time>2026-08-16T07:57:04.000Z</time>
      </trkpt>
      <trkpt lat="22.772266" lon="110.309097">
        <ele>136.062260</ele>
        <time>2026-08-16T07:57:05.000Z</time>
      </trkpt>
      <trkpt lat="22.772299" lon="110.309142">
        <ele>136.104742</ele>
        <time>2026-08-16T07:57:06.000Z</time>
      </trkpt>
      <trkpt lat="22.772330" lon="110.309188">
        <ele>136.146839</ele>
        <time>2026-08-16T07:57:07.000Z</time>
      </trkpt>
      <trkpt lat="22.772362" lon="110.309233">
        <ele>136.188826</ele>
        <time>2026-08-16T07:57:08.000Z</time>
      </trkpt>
      <trkpt lat="22.772393" lon="110.309279">
        <ele>136.230923</ele>
        <time>2026-08-16T07:57:09.000Z</time>
      </trkpt>
      <trkpt lat="22.772425" lon="110.309326">
        <ele>136.274090</ele>
        <time>2026-08-16T07:57:10.000Z</time>
      </trkpt>
      <trkpt lat="22.772457" lon="110.309372">
        <ele>136.316665</ele>
        <time>2026-08-16T07:57:11.000Z</time>
      </trkpt>
      <trkpt lat="22.772490" lon="110.309417">
        <ele>136.359147</ele>
        <time>2026-08-16T07:57:12.000Z</time>
      </trkpt>
      <trkpt lat="22.772520" lon="110.309461">
        <ele>136.399579</ele>
        <time>2026-08-16T07:57:13.000Z</time>
      </trkpt>
      <trkpt lat="22.772553" lon="110.309504">
        <ele>136.440914</ele>
        <time>2026-08-16T07:57:14.000Z</time>
      </trkpt>
      <trkpt lat="22.772584" lon="110.309547">
        <ele>136.481243</ele>
        <time>2026-08-16T07:57:15.000Z</time>
      </trkpt>
      <trkpt lat="22.772616" lon="110.309590">
        <ele>136.522070</ele>
        <time>2026-08-16T07:57:16.000Z</time>
      </trkpt>
      <trkpt lat="22.772646" lon="110.309633">
        <ele>136.561910</ele>
        <time>2026-08-16T07:57:17.000Z</time>
      </trkpt>
      <trkpt lat="22.772678" lon="110.309675">
        <ele>136.602165</ele>
        <time>2026-08-16T07:57:18.000Z</time>
      </trkpt>
      <trkpt lat="22.772712" lon="110.309717">
        <ele>136.643459</ele>
        <time>2026-08-16T07:57:19.000Z</time>
      </trkpt>
      <trkpt lat="22.772743" lon="110.309760">
        <ele>136.692276</ele>
        <time>2026-08-16T07:57:20.000Z</time>
      </trkpt>
      <trkpt lat="22.772769" lon="110.309805">
        <ele>136.742018</ele>
        <time>2026-08-16T07:57:21.000Z</time>
      </trkpt>
      <trkpt lat="22.772801" lon="110.309849">
        <ele>136.794509</ele>
        <time>2026-08-16T07:57:22.000Z</time>
      </trkpt>
      <trkpt lat="22.772835" lon="110.309891">
        <ele>136.846860</ele>
        <time>2026-08-16T07:57:23.000Z</time>
      </trkpt>
      <trkpt lat="22.772869" lon="110.309932">
        <ele>136.898511</ele>
        <time>2026-08-16T07:57:24.000Z</time>
      </trkpt>
      <trkpt lat="22.772904" lon="110.309971">
        <ele>136.949488</ele>
        <time>2026-08-16T07:57:25.000Z</time>
      </trkpt>
      <trkpt lat="22.772937" lon="110.310011">
        <ele>136.999763</ele>
        <time>2026-08-16T07:57:26.000Z</time>
      </trkpt>
      <trkpt lat="22.772970" lon="110.310051">
        <ele>137.050038</ele>
        <time>2026-08-16T07:57:27.000Z</time>
      </trkpt>
      <trkpt lat="22.773005" lon="110.310091">
        <ele>137.101691</ele>
        <time>2026-08-16T07:57:28.000Z</time>
      </trkpt>
      <trkpt lat="22.773035" lon="110.310132">
        <ele>137.150717</ele>
        <time>2026-08-16T07:57:29.000Z</time>
      </trkpt>
      <trkpt lat="22.773065" lon="110.310171">
        <ele>137.198291</ele>
        <time>2026-08-16T07:57:30.000Z</time>
      </trkpt>
      <trkpt lat="22.773098" lon="110.310209">
        <ele>137.247186</ele>
        <time>2026-08-16T07:57:31.000Z</time>
      </trkpt>
      <trkpt lat="22.773134" lon="110.310247">
        <ele>137.298218</ele>
        <time>2026-08-16T07:57:32.000Z</time>
      </trkpt>
      <trkpt lat="22.773175" lon="110.310284">
        <ele>137.352402</ele>
        <time>2026-08-16T07:57:33.000Z</time>
      </trkpt>
      <trkpt lat="22.773209" lon="110.310320">
        <ele>137.400672</ele>
        <time>2026-08-16T07:57:34.000Z</time>
      </trkpt>
      <trkpt lat="22.773240" lon="110.310357">
        <ele>137.447500</ele>
        <time>2026-08-16T07:57:35.000Z</time>
      </trkpt>
      <trkpt lat="22.773273" lon="110.310394">
        <ele>137.495717</ele>
        <time>2026-08-16T07:57:36.000Z</time>
      </trkpt>
      <trkpt lat="22.773309" lon="110.310431">
        <ele>137.546101</ele>
        <time>2026-08-16T07:57:37.000Z</time>
      </trkpt>
      <trkpt lat="22.773345" lon="110.310467">
        <ele>137.595845</ele>
        <time>2026-08-16T07:57:38.000Z</time>
      </trkpt>
      <trkpt lat="22.773378" lon="110.310503">
        <ele>137.643394</ele>
        <time>2026-08-16T07:57:39.000Z</time>
      </trkpt>
      <trkpt lat="22.773415" lon="110.310539">
        <ele>137.693890</ele>
        <time>2026-08-16T07:57:40.000Z</time>
      </trkpt>
      <trkpt lat="22.773449" lon="110.310575">
        <ele>137.742160</ele>
        <time>2026-08-16T07:57:41.000Z</time>
      </trkpt>
      <trkpt lat="22.773486" lon="110.310612">
        <ele>137.793286</ele>
        <time>2026-08-16T07:57:42.000Z</time>
      </trkpt>
      <trkpt lat="22.773520" lon="110.310649">
        <ele>137.842215</ele>
        <time>2026-08-16T07:57:43.000Z</time>
      </trkpt>
      <trkpt lat="22.773552" lon="110.310685">
        <ele>137.889053</ele>
        <time>2026-08-16T07:57:44.000Z</time>
      </trkpt>
      <trkpt lat="22.773586" lon="110.310723">
        <ele>137.938650</ele>
        <time>2026-08-16T07:57:45.000Z</time>
      </trkpt>
      <trkpt lat="22.773621" lon="110.310761">
        <ele>137.988960</ele>
        <time>2026-08-16T07:57:46.000Z</time>
      </trkpt>
      <trkpt lat="22.773655" lon="110.310799">
        <ele>138.038557</ele>
        <time>2026-08-16T07:57:47.000Z</time>
      </trkpt>
      <trkpt lat="22.773687" lon="110.310837">
        <ele>138.086761</ele>
        <time>2026-08-16T07:57:48.000Z</time>
      </trkpt>
      <trkpt lat="22.773718" lon="110.310875">
        <ele>138.134286</ele>
        <time>2026-08-16T07:57:49.000Z</time>
      </trkpt>
      <trkpt lat="22.773747" lon="110.310917">
        <ele>138.183434</ele>
        <time>2026-08-16T07:57:50.000Z</time>
      </trkpt>
      <trkpt lat="22.773778" lon="110.310956">
        <ele>138.231664</ele>
        <time>2026-08-16T07:57:51.000Z</time>
      </trkpt>
      <trkpt lat="22.773810" lon="110.310994">
        <ele>138.279868</ele>
        <time>2026-08-16T07:57:52.000Z</time>
      </trkpt>
      <trkpt lat="22.773844" lon="110.311030">
        <ele>138.328138</ele>
        <time>2026-08-16T07:57:53.000Z</time>
      </trkpt>
      <trkpt lat="22.773880" lon="110.311066">
        <ele>138.377882</ele>
        <time>2026-08-16T07:57:54.000Z</time>
      </trkpt>
      <trkpt lat="22.773914" lon="110.311103">
        <ele>138.426811</ele>
        <time>2026-08-16T07:57:55.000Z</time>
      </trkpt>
      <trkpt lat="22.773948" lon="110.311141">
        <ele>138.476408</ele>
        <time>2026-08-16T07:57:56.000Z</time>
      </trkpt>
      <trkpt lat="22.773981" lon="110.311181">
        <ele>138.480373</ele>
        <time>2026-08-16T07:57:57.000Z</time>
      </trkpt>
      <trkpt lat="22.774013" lon="110.311221">
        <ele>138.481536</ele>
        <time>2026-08-16T07:57:58.000Z</time>
      </trkpt>
      <trkpt lat="22.774042" lon="110.311262">
        <ele>138.482671</ele>
        <time>2026-08-16T07:57:59.000Z</time>
      </trkpt>
      <trkpt lat="22.774070" lon="110.311300">
        <ele>138.483740</ele>
        <time>2026-08-16T07:58:00.000Z</time>
      </trkpt>
      <trkpt lat="22.774097" lon="110.311341">
        <ele>138.484846</ele>
        <time>2026-08-16T07:58:01.000Z</time>
      </trkpt>
      <trkpt lat="22.774119" lon="110.311381">
        <ele>138.485869</ele>
        <time>2026-08-16T07:58:02.000Z</time>
      </trkpt>
      <trkpt lat="22.774142" lon="110.311422">
        <ele>138.486923</ele>
        <time>2026-08-16T07:58:03.000Z</time>
      </trkpt>
      <trkpt lat="22.774174" lon="110.311461">
        <ele>138.488070</ele>
        <time>2026-08-16T07:58:04.000Z</time>
      </trkpt>
      <trkpt lat="22.774207" lon="110.311499">
        <ele>138.489216</ele>
        <time>2026-08-16T07:58:05.000Z</time>
      </trkpt>
      <trkpt lat="22.774236" lon="110.311537">
        <ele>138.490299</ele>
        <time>2026-08-16T07:58:06.000Z</time>
      </trkpt>
      <trkpt lat="22.774268" lon="110.311575">
        <ele>138.491429</ele>
        <time>2026-08-16T07:58:07.000Z</time>
      </trkpt>
      <trkpt lat="22.774299" lon="110.311615">
        <ele>138.492577</ele>
        <time>2026-08-16T07:58:08.000Z</time>
      </trkpt>
      <trkpt lat="22.774331" lon="110.311655">
        <ele>138.493740</ele>
        <time>2026-08-16T07:58:09.000Z</time>
      </trkpt>
      <trkpt lat="22.774360" lon="110.311693">
        <ele>138.494823</ele>
        <time>2026-08-16T07:58:10.000Z</time>
      </trkpt>
      <trkpt lat="22.774391" lon="110.311731">
        <ele>138.495938</ele>
        <time>2026-08-16T07:58:11.000Z</time>
      </trkpt>
      <trkpt lat="22.774423" lon="110.311769">
        <ele>138.497068</ele>
        <time>2026-08-16T07:58:12.000Z</time>
      </trkpt>
      <trkpt lat="22.774454" lon="110.311807">
        <ele>138.498182</ele>
        <time>2026-08-16T07:58:13.000Z</time>
      </trkpt>
      <trkpt lat="22.774483" lon="110.311845">
        <ele>138.499266</ele>
        <time>2026-08-16T07:58:14.000Z</time>
      </trkpt>
      <trkpt lat="22.774513" lon="110.311885">
        <ele>138.500398</ele>
        <time>2026-08-16T07:58:15.000Z</time>
      </trkpt>
      <trkpt lat="22.774542" lon="110.311924">
        <ele>138.501498</ele>
        <time>2026-08-16T07:58:16.000Z</time>
      </trkpt>
      <trkpt lat="22.774571" lon="110.311962">
        <ele>138.502582</ele>
        <time>2026-08-16T07:58:17.000Z</time>
      </trkpt>
      <trkpt lat="22.774603" lon="110.311999">
        <ele>138.503696</ele>
        <time>2026-08-16T07:58:18.000Z</time>
      </trkpt>
      <trkpt lat="22.774634" lon="110.312036">
        <ele>138.504794</ele>
        <time>2026-08-16T07:58:19.000Z</time>
      </trkpt>
      <trkpt lat="22.774666" lon="110.312075">
        <ele>138.505940</ele>
        <time>2026-08-16T07:58:20.000Z</time>
      </trkpt>
      <trkpt lat="22.774699" lon="110.312113">
        <ele>138.507087</ele>
        <time>2026-08-16T07:58:21.000Z</time>
      </trkpt>
      <trkpt lat="22.774732" lon="110.312153">
        <ele>138.508265</ele>
        <time>2026-08-16T07:58:22.000Z</time>
      </trkpt>
      <trkpt lat="22.774767" lon="110.312190">
        <ele>138.509430</ele>
        <time>2026-08-16T07:58:23.000Z</time>
      </trkpt>
      <trkpt lat="22.774802" lon="110.312230">
        <ele>138.510641</ele>
        <time>2026-08-16T07:58:24.000Z</time>
      </trkpt>
      <trkpt lat="22.774836" lon="110.312270">
        <ele>138.511835</ele>
        <time>2026-08-16T07:58:25.000Z</time>
      </trkpt>
      <trkpt lat="22.774871" lon="110.312311">
        <ele>138.513062</ele>
        <time>2026-08-16T07:58:26.000Z</time>
      </trkpt>
      <trkpt lat="22.774909" lon="110.312353">
        <ele>138.514355</ele>
        <time>2026-08-16T07:58:27.000Z</time>
      </trkpt>
      <trkpt lat="22.774947" lon="110.312393">
        <ele>138.515616</ele>
        <time>2026-08-16T07:58:28.000Z</time>
      </trkpt>
      <trkpt lat="22.774986" lon="110.312434">
        <ele>138.516910</ele>
        <time>2026-08-16T07:58:29.000Z</time>
      </trkpt>
      <trkpt lat="22.775024" lon="110.312476">
        <ele>138.518202</ele>
        <time>2026-08-16T07:58:30.000Z</time>
      </trkpt>
      <trkpt lat="22.775061" lon="110.312519">
        <ele>138.519494</ele>
        <time>2026-08-16T07:58:31.000Z</time>
      </trkpt>
      <trkpt lat="22.775100" lon="110.312562">
        <ele>138.520818</ele>
        <time>2026-08-16T07:58:32.000Z</time>
      </trkpt>
      <trkpt lat="22.775138" lon="110.312606">
        <ele>138.522016</ele>
        <time>2026-08-16T07:58:33.000Z</time>
      </trkpt>
      <trkpt lat="22.775177" lon="110.312650">
        <ele>138.519087</ele>
        <time>2026-08-16T07:58:34.000Z</time>
      </trkpt>
      <trkpt lat="22.775216" lon="110.312693">
        <ele>138.516191</ele>
        <time>2026-08-16T07:58:35.000Z</time>
      </trkpt>
      <trkpt lat="22.775254" lon="110.312737">
        <ele>138.513298</ele>
        <time>2026-08-16T07:58:36.000Z</time>
      </trkpt>
      <trkpt lat="22.775291" lon="110.312783">
        <ele>138.510367</ele>
        <time>2026-08-16T07:58:37.000Z</time>
      </trkpt>
      <trkpt lat="22.775324" lon="110.312830">
        <ele>138.507532</ele>
        <time>2026-08-16T07:58:38.000Z</time>
      </trkpt>
      <trkpt lat="22.775358" lon="110.312877">
        <ele>138.504664</ele>
        <time>2026-08-16T07:58:39.000Z</time>
      </trkpt>
      <trkpt lat="22.775394" lon="110.312923">
        <ele>138.501768</ele>
        <time>2026-08-16T07:58:40.000Z</time>
      </trkpt>
      <trkpt lat="22.775428" lon="110.312971">
        <ele>138.498863</ele>
        <time>2026-08-16T07:58:41.000Z</time>
      </trkpt>
      <trkpt lat="22.775464" lon="110.313020">
        <ele>138.495855</ele>
        <time>2026-08-16T07:58:42.000Z</time>
      </trkpt>
      <trkpt lat="22.775497" lon="110.313070">
        <ele>138.492904</ele>
        <time>2026-08-16T07:58:43.000Z</time>
      </trkpt>
      <trkpt lat="22.775532" lon="110.313119">
        <ele>138.489929</ele>
        <time>2026-08-16T07:58:44.000Z</time>
      </trkpt>
      <trkpt lat="22.775565" lon="110.313167">
        <ele>138.487055</ele>
        <time>2026-08-16T07:58:45.000Z</time>
      </trkpt>
      <trkpt lat="22.775597" lon="110.313217">
        <ele>138.484133</ele>
        <time>2026-08-16T07:58:46.000Z</time>
      </trkpt>
      <trkpt lat="22.775630" lon="110.313267">
        <ele>138.481182</ele>
        <time>2026-08-16T07:58:47.000Z</time>
      </trkpt>
      <trkpt lat="22.775664" lon="110.313317">
        <ele>138.478200</ele>
        <time>2026-08-16T07:58:48.000Z</time>
      </trkpt>
      <trkpt lat="22.775696" lon="110.313366">
        <ele>138.475317</ele>
        <time>2026-08-16T07:58:49.000Z</time>
      </trkpt>
      <trkpt lat="22.775729" lon="110.313416">
        <ele>138.472366</ele>
        <time>2026-08-16T07:58:50.000Z</time>
      </trkpt>
      <trkpt lat="22.775761" lon="110.313464">
        <ele>138.469523</ele>
        <time>2026-08-16T07:58:51.000Z</time>
      </trkpt>
      <trkpt lat="22.775792" lon="110.313513">
        <ele>138.466670</ele>
        <time>2026-08-16T07:58:52.000Z</time>
      </trkpt>
      <trkpt lat="22.775821" lon="110.313562">
        <ele>138.463875</ele>
        <time>2026-08-16T07:58:53.000Z</time>
      </trkpt>
      <trkpt lat="22.775850" lon="110.313612">
        <ele>138.461040</ele>
        <time>2026-08-16T07:58:54.000Z</time>
      </trkpt>
      <trkpt lat="22.775878" lon="110.313663">
        <ele>138.458191</ele>
        <time>2026-08-16T07:58:55.000Z</time>
      </trkpt>
      <trkpt lat="22.775908" lon="110.313712">
        <ele>138.455368</ele>
        <time>2026-08-16T07:58:56.000Z</time>
      </trkpt>
      <trkpt lat="22.775939" lon="110.313760">
        <ele>138.452555</ele>
        <time>2026-08-16T07:58:57.000Z</time>
      </trkpt>
      <trkpt lat="22.775968" lon="110.313808">
        <ele>138.449800</ele>
        <time>2026-08-16T07:58:58.000Z</time>
      </trkpt>
      <trkpt lat="22.775997" lon="110.313855">
        <ele>138.447086</ele>
        <time>2026-08-16T07:58:59.000Z</time>
      </trkpt>
      <trkpt lat="22.776026" lon="110.313902">
        <ele>138.444371</ele>
        <time>2026-08-16T07:59:00.000Z</time>
      </trkpt>
      <trkpt lat="22.776053" lon="110.313948">
        <ele>138.441754</ele>
        <time>2026-08-16T07:59:01.000Z</time>
      </trkpt>
      <trkpt lat="22.776080" lon="110.313995">
        <ele>138.439096</ele>
        <time>2026-08-16T07:59:02.000Z</time>
      </trkpt>
      <trkpt lat="22.776109" lon="110.314041">
        <ele>138.436421</ele>
        <time>2026-08-16T07:59:03.000Z</time>
      </trkpt>
      <trkpt lat="22.776138" lon="110.314087">
        <ele>138.433746</ele>
        <time>2026-08-16T07:59:04.000Z</time>
      </trkpt>
      <trkpt lat="22.776165" lon="110.314132">
        <ele>138.431169</ele>
        <time>2026-08-16T07:59:05.000Z</time>
      </trkpt>
      <trkpt lat="22.776194" lon="110.314177">
        <ele>138.428534</ele>
        <time>2026-08-16T07:59:06.000Z</time>
      </trkpt>
      <trkpt lat="22.776222" lon="110.314222">
        <ele>138.450196</ele>
        <time>2026-08-16T07:59:07.000Z</time>
      </trkpt>
      <trkpt lat="22.776250" lon="110.314266">
        <ele>138.472155</ele>
        <time>2026-08-16T07:59:08.000Z</time>
      </trkpt>
      <trkpt lat="22.776278" lon="110.314311">
        <ele>138.494455</ele>
        <time>2026-08-16T07:59:09.000Z</time>
      </trkpt>
      <trkpt lat="22.776305" lon="110.314353">
        <ele>138.515486</ele>
        <time>2026-08-16T07:59:10.000Z</time>
      </trkpt>
      <trkpt lat="22.776333" lon="110.314396">
        <ele>138.537109</ele>
        <time>2026-08-16T07:59:11.000Z</time>
      </trkpt>
      <trkpt lat="22.776359" lon="110.314439">
        <ele>138.558230</ele>
        <time>2026-08-16T07:59:12.000Z</time>
      </trkpt>
      <trkpt lat="22.776383" lon="110.314484">
        <ele>138.579584</ele>
        <time>2026-08-16T07:59:13.000Z</time>
      </trkpt>
      <trkpt lat="22.776408" lon="110.314529">
        <ele>138.601164</ele>
        <time>2026-08-16T07:59:14.000Z</time>
      </trkpt>
      <trkpt lat="22.776431" lon="110.314577">
        <ele>138.623384</ele>
        <time>2026-08-16T07:59:15.000Z</time>
      </trkpt>
      <trkpt lat="22.776450" lon="110.314626">
        <ele>138.645218</ele>
        <time>2026-08-16T07:59:16.000Z</time>
      </trkpt>
      <trkpt lat="22.776467" lon="110.314669">
        <ele>138.664436</ele>
        <time>2026-08-16T07:59:17.000Z</time>
      </trkpt>
      <trkpt lat="22.776491" lon="110.314710">
        <ele>138.684384</ele>
        <time>2026-08-16T07:59:18.000Z</time>
      </trkpt>
      <trkpt lat="22.776517" lon="110.314754">
        <ele>138.705850</ele>
        <time>2026-08-16T07:59:19.000Z</time>
      </trkpt>
      <trkpt lat="22.776546" lon="110.314795">
        <ele>138.727076</ele>
        <time>2026-08-16T07:59:20.000Z</time>
      </trkpt>
      <trkpt lat="22.776576" lon="110.314836">
        <ele>138.748576</ele>
        <time>2026-08-16T07:59:21.000Z</time>
      </trkpt>
      <trkpt lat="22.776605" lon="110.314876">
        <ele>138.769477</ele>
        <time>2026-08-16T07:59:22.000Z</time>
      </trkpt>
      <trkpt lat="22.776634" lon="110.314919">
        <ele>138.791360</ele>
        <time>2026-08-16T07:59:23.000Z</time>
      </trkpt>
      <trkpt lat="22.776662" lon="110.314959">
        <ele>138.811989</ele>
        <time>2026-08-16T07:59:24.000Z</time>
      </trkpt>
      <trkpt lat="22.776687" lon="110.315003">
        <ele>138.833218</ele>
        <time>2026-08-16T07:59:25.000Z</time>
      </trkpt>
      <trkpt lat="22.776712" lon="110.315048">
        <ele>138.854798</ele>
        <time>2026-08-16T07:59:26.000Z</time>
      </trkpt>
      <trkpt lat="22.776737" lon="110.315093">
        <ele>138.876378</ele>
        <time>2026-08-16T07:59:27.000Z</time>
      </trkpt>
      <trkpt lat="22.776763" lon="110.315136">
        <ele>138.897500</ele>
        <time>2026-08-16T07:59:28.000Z</time>
      </trkpt>
      <trkpt lat="22.776785" lon="110.315177">
        <ele>138.916985</ele>
        <time>2026-08-16T07:59:29.000Z</time>
      </trkpt>
      <trkpt lat="22.776814" lon="110.315215">
        <ele>138.937247</ele>
        <time>2026-08-16T07:59:30.000Z</time>
      </trkpt>
      <trkpt lat="22.776828" lon="110.315259">
        <ele>138.956366</ele>
        <time>2026-08-16T07:59:31.000Z</time>
      </trkpt>
      <trkpt lat="22.776837" lon="110.315301">
        <ele>138.974077</ele>
        <time>2026-08-16T07:59:32.000Z</time>
      </trkpt>
      <trkpt lat="22.776851" lon="110.315345">
        <ele>138.993196</ele>
        <time>2026-08-16T07:59:33.000Z</time>
      </trkpt>
      <trkpt lat="22.776870" lon="110.315388">
        <ele>139.012782</ele>
        <time>2026-08-16T07:59:34.000Z</time>
      </trkpt>
      <trkpt lat="22.776902" lon="110.315430">
        <ele>139.035162</ele>
        <time>2026-08-16T07:59:35.000Z</time>
      </trkpt>
      <trkpt lat="22.776923" lon="110.315474">
        <ele>139.055513</ele>
        <time>2026-08-16T07:59:36.000Z</time>
      </trkpt>
      <trkpt lat="22.776946" lon="110.315518">
        <ele>139.076288</ele>
        <time>2026-08-16T07:59:37.000Z</time>
      </trkpt>
      <trkpt lat="22.776968" lon="110.315562">
        <ele>139.096848</ele>
        <time>2026-08-16T07:59:38.000Z</time>
      </trkpt>
      <trkpt lat="22.776987" lon="110.315607">
        <ele>139.117178</ele>
        <time>2026-08-16T07:59:39.000Z</time>
      </trkpt>
      <trkpt lat="22.777002" lon="110.315653">
        <ele>139.137219</ele>
        <time>2026-08-16T07:59:40.000Z</time>
      </trkpt>
      <trkpt lat="22.777025" lon="110.315692">
        <ele>139.156235</ele>
        <time>2026-08-16T07:59:41.000Z</time>
      </trkpt>
      <trkpt lat="22.777050" lon="110.315735">
        <ele>139.177116</ele>
        <time>2026-08-16T07:59:42.000Z</time>
      </trkpt>
      <trkpt lat="22.777079" lon="110.315776">
        <ele>139.198341</ele>
        <time>2026-08-16T07:59:43.000Z</time>
      </trkpt>
      <trkpt lat="22.777105" lon="110.315822">
        <ele>139.220504</ele>
        <time>2026-08-16T07:59:44.000Z</time>
      </trkpt>
      <trkpt lat="22.777131" lon="110.315870">
        <ele>139.206309</ele>
        <time>2026-08-16T07:59:45.000Z</time>
      </trkpt>
      <trkpt lat="22.777156" lon="110.315919">
        <ele>139.166716</ele>
        <time>2026-08-16T07:59:46.000Z</time>
      </trkpt>
      <trkpt lat="22.777192" lon="110.315967">
        <ele>139.122971</ele>
        <time>2026-08-16T07:59:47.000Z</time>
      </trkpt>
      <trkpt lat="22.777225" lon="110.316010">
        <ele>139.083417</ele>
        <time>2026-08-16T07:59:48.000Z</time>
      </trkpt>
      <trkpt lat="22.777252" lon="110.316054">
        <ele>139.046050</ele>
        <time>2026-08-16T07:59:49.000Z</time>
      </trkpt>
      <trkpt lat="22.777268" lon="110.316106">
        <ele>139.007293</ele>
        <time>2026-08-16T07:59:50.000Z</time>
      </trkpt>
      <trkpt lat="22.777285" lon="110.316160">
        <ele>138.966951</ele>
        <time>2026-08-16T07:59:51.000Z</time>
      </trkpt>
      <trkpt lat="22.777323" lon="110.316217">
        <ele>138.917222</ele>
        <time>2026-08-16T07:59:52.000Z</time>
      </trkpt>
      <trkpt lat="22.777352" lon="110.316265">
        <ele>138.876650</ele>
        <time>2026-08-16T07:59:53.000Z</time>
      </trkpt>
      <trkpt lat="22.777370" lon="110.316321">
        <ele>138.834721</ele>
        <time>2026-08-16T07:59:54.000Z</time>
      </trkpt>
      <trkpt lat="22.777390" lon="110.316370">
        <ele>138.796836</ele>
        <time>2026-08-16T07:59:55.000Z</time>
      </trkpt>
      <trkpt lat="22.777405" lon="110.316422">
        <ele>138.758315</ele>
        <time>2026-08-16T07:59:56.000Z</time>
      </trkpt>
      <trkpt lat="22.777431" lon="110.316474">
        <ele>138.716494</ele>
        <time>2026-08-16T07:59:57.000Z</time>
      </trkpt>
      <trkpt lat="22.777460" lon="110.316528">
        <ele>138.672312</ele>
        <time>2026-08-16T07:59:58.000Z</time>
      </trkpt>
      <trkpt lat="22.777484" lon="110.316580">
        <ele>138.631200</ele>
        <time>2026-08-16T07:59:59.000Z</time>
      </trkpt>
      <trkpt lat="22.777508" lon="110.316634">
        <ele>138.588818</ele>
        <time>2026-08-16T08:00:00.000Z</time>
      </trkpt>
      <trkpt lat="22.777535" lon="110.316683">
        <ele>138.548461</ele>
        <time>2026-08-16T08:00:01.000Z</time>
      </trkpt>
      <trkpt lat="22.777559" lon="110.316727">
        <ele>138.512317</ele>
        <time>2026-08-16T08:00:02.000Z</time>
      </trkpt>
      <trkpt lat="22.777592" lon="110.316771">
        <ele>138.472218</ele>
        <time>2026-08-16T08:00:03.000Z</time>
      </trkpt>
      <trkpt lat="22.777623" lon="110.316818">
        <ele>138.431362</ele>
        <time>2026-08-16T08:00:04.000Z</time>
      </trkpt>
      <trkpt lat="22.777656" lon="110.316865">
        <ele>138.389596</ele>
        <time>2026-08-16T08:00:05.000Z</time>
      </trkpt>
      <trkpt lat="22.777691" lon="110.316915">
        <ele>138.345213</ele>
        <time>2026-08-16T08:00:06.000Z</time>
      </trkpt>
      <trkpt lat="22.777735" lon="110.316964">
        <ele>138.296856</ele>
        <time>2026-08-16T08:00:07.000Z</time>
      </trkpt>
      <trkpt lat="22.777773" lon="110.317007">
        <ele>138.254746</ele>
        <time>2026-08-16T08:00:08.000Z</time>
      </trkpt>
      <trkpt lat="22.777815" lon="110.317053">
        <ele>138.208977</ele>
        <time>2026-08-16T08:00:09.000Z</time>
      </trkpt>
      <trkpt lat="22.777853" lon="110.317101">
        <ele>138.164248</ele>
        <time>2026-08-16T08:00:10.000Z</time>
      </trkpt>
      <trkpt lat="22.777885" lon="110.317149">
        <ele>138.122371</ele>
        <time>2026-08-16T08:00:11.000Z</time>
      </trkpt>
      <trkpt lat="22.777916" lon="110.317199">
        <ele>138.079773</ele>
        <time>2026-08-16T08:00:12.000Z</time>
      </trkpt>
      <trkpt lat="22.777951" lon="110.317246">
        <ele>138.037060</ele>
        <time>2026-08-16T08:00:13.000Z</time>
      </trkpt>
      <trkpt lat="22.777983" lon="110.317296">
        <ele>137.994029</ele>
        <time>2026-08-16T08:00:14.000Z</time>
      </trkpt>
      <trkpt lat="22.778016" lon="110.317346">
        <ele>137.950556</ele>
        <time>2026-08-16T08:00:15.000Z</time>
      </trkpt>
      <trkpt lat="22.778051" lon="110.317396">
        <ele>137.906173</ele>
        <time>2026-08-16T08:00:16.000Z</time>
      </trkpt>
      <trkpt lat="22.778085" lon="110.317446">
        <ele>137.862250</ele>
        <time>2026-08-16T08:00:17.000Z</time>
      </trkpt>
      <trkpt lat="22.778136" lon="110.317493">
        <ele>137.801546</ele>
        <time>2026-08-16T08:00:18.000Z</time>
      </trkpt>
      <trkpt lat="22.778168" lon="110.317542">
        <ele>137.749040</ele>
        <time>2026-08-16T08:00:19.000Z</time>
      </trkpt>
      <trkpt lat="22.778198" lon="110.317594">
        <ele>137.695403</ele>
        <time>2026-08-16T08:00:20.000Z</time>
      </trkpt>
      <trkpt lat="22.778228" lon="110.317645">
        <ele>137.642504</ele>
        <time>2026-08-16T08:00:21.000Z</time>
      </trkpt>
      <trkpt lat="22.778256" lon="110.317695">
        <ele>137.591351</ele>
        <time>2026-08-16T08:00:22.000Z</time>
      </trkpt>
      <trkpt lat="22.778287" lon="110.317746">
        <ele>137.537937</ele>
        <time>2026-08-16T08:00:23.000Z</time>
      </trkpt>
      <trkpt lat="22.778317" lon="110.317796">
        <ele>137.485773</ele>
        <time>2026-08-16T08:00:24.000Z</time>
      </trkpt>
      <trkpt lat="22.778349" lon="110.317845">
        <ele>137.433268</ele>
        <time>2026-08-16T08:00:25.000Z</time>
      </trkpt>
      <trkpt lat="22.778378" lon="110.317894">
        <ele>137.382354</ele>
        <time>2026-08-16T08:00:26.000Z</time>
      </trkpt>
      <trkpt lat="22.778408" lon="110.317944">
        <ele>137.330191</ele>
        <time>2026-08-16T08:00:27.000Z</time>
      </trkpt>
      <trkpt lat="22.778442" lon="110.317995">
        <ele>137.275159</ele>
        <time>2026-08-16T08:00:28.000Z</time>
      </trkpt>
      <trkpt lat="22.778475" lon="110.318046">
        <ele>137.220678</ele>
        <time>2026-08-16T08:00:29.000Z</time>
      </trkpt>
      <trkpt lat="22.778505" lon="110.318097">
        <ele>137.167779</ele>
        <time>2026-08-16T08:00:30.000Z</time>
      </trkpt>
      <trkpt lat="22.778536" lon="110.318146">
        <ele>137.115816</ele>
        <time>2026-08-16T08:00:31.000Z</time>
      </trkpt>
      <trkpt lat="22.778568" lon="110.318197">
        <ele>137.061874</ele>
        <time>2026-08-16T08:00:32.000Z</time>
      </trkpt>
      <trkpt lat="22.778602" lon="110.318248">
        <ele>137.006843</ele>
        <time>2026-08-16T08:00:33.000Z</time>
      </trkpt>
      <trkpt lat="22.778634" lon="110.318300">
        <ele>136.952175</ele>
        <time>2026-08-16T08:00:34.000Z</time>
      </trkpt>
      <trkpt lat="22.778666" lon="110.318351">
        <ele>136.898233</ele>
        <time>2026-08-16T08:00:35.000Z</time>
      </trkpt>
      <trkpt lat="22.778698" lon="110.318402">
        <ele>136.844291</ele>
        <time>2026-08-16T08:00:36.000Z</time>
      </trkpt>
      <trkpt lat="22.778731" lon="110.318456">
        <ele>136.787643</ele>
        <time>2026-08-16T08:00:37.000Z</time>
      </trkpt>
      <trkpt lat="22.778763" lon="110.318507">
        <ele>136.733701</ele>
        <time>2026-08-16T08:00:38.000Z</time>
      </trkpt>
      <trkpt lat="22.778797" lon="110.318557">
        <ele>136.679375</ele>
        <time>2026-08-16T08:00:39.000Z</time>
      </trkpt>
      <trkpt lat="22.778828" lon="110.318608">
        <ele>136.625961</ele>
        <time>2026-08-16T08:00:40.000Z</time>
      </trkpt>
      <trkpt lat="22.778860" lon="110.318659">
        <ele>136.572019</ele>
        <time>2026-08-16T08:00:41.000Z</time>
      </trkpt>
      <trkpt lat="22.778890" lon="110.318711">
        <ele>136.518382</ele>
        <time>2026-08-16T08:00:42.000Z</time>
      </trkpt>
      <trkpt lat="22.778919" lon="110.318764">
        <ele>136.464491</ele>
        <time>2026-08-16T08:00:43.000Z</time>
      </trkpt>
      <trkpt lat="22.778950" lon="110.318816">
        <ele>136.410345</ele>
        <time>2026-08-16T08:00:44.000Z</time>
      </trkpt>
      <trkpt lat="22.778979" lon="110.318868">
        <ele>136.357204</ele>
        <time>2026-08-16T08:00:45.000Z</time>
      </trkpt>
      <trkpt lat="22.779008" lon="110.318916">
        <ele>136.307024</ele>
        <time>2026-08-16T08:00:46.000Z</time>
      </trkpt>
      <trkpt lat="22.779040" lon="110.318967">
        <ele>136.253082</ele>
        <time>2026-08-16T08:00:47.000Z</time>
      </trkpt>
      <trkpt lat="22.779072" lon="110.319014">
        <ele>136.201994</ele>
        <time>2026-08-16T08:00:48.000Z</time>
      </trkpt>
      <trkpt lat="22.779106" lon="110.319061">
        <ele>136.149757</ele>
        <time>2026-08-16T08:00:49.000Z</time>
      </trkpt>
      <trkpt lat="22.779138" lon="110.319109">
        <ele>136.108696</ele>
        <time>2026-08-16T08:00:50.000Z</time>
      </trkpt>
      <trkpt lat="22.779169" lon="110.319156">
        <ele>136.069754</ele>
        <time>2026-08-16T08:00:51.000Z</time>
      </trkpt>
      <trkpt lat="22.779201" lon="110.319206">
        <ele>136.028738</ele>
        <time>2026-08-16T08:00:52.000Z</time>
      </trkpt>
      <trkpt lat="22.779232" lon="110.319254">
        <ele>135.989246</ele>
        <time>2026-08-16T08:00:53.000Z</time>
      </trkpt>
      <trkpt lat="22.779259" lon="110.319302">
        <ele>135.951355</ele>
        <time>2026-08-16T08:00:54.000Z</time>
      </trkpt>
      <trkpt lat="22.779286" lon="110.319352">
        <ele>135.912307</ele>
        <time>2026-08-16T08:00:55.000Z</time>
      </trkpt>
      <trkpt lat="22.779314" lon="110.319401">
        <ele>135.873460</ele>
        <time>2026-08-16T08:00:56.000Z</time>
      </trkpt>
      <trkpt lat="22.779343" lon="110.319451">
        <ele>135.833653</ele>
        <time>2026-08-16T08:00:57.000Z</time>
      </trkpt>
      <trkpt lat="22.779376" lon="110.319501">
        <ele>135.792216</ele>
        <time>2026-08-16T08:00:58.000Z</time>
      </trkpt>
      <trkpt lat="22.779404" lon="110.319553">
        <ele>135.751636</ele>
        <time>2026-08-16T08:00:59.000Z</time>
      </trkpt>
      <trkpt lat="22.779433" lon="110.319603">
        <ele>135.711830</ele>
        <time>2026-08-16T08:01:00.000Z</time>
      </trkpt>
      <trkpt lat="22.779462" lon="110.319652">
        <ele>135.672592</ele>
        <time>2026-08-16T08:01:01.000Z</time>
      </trkpt>
      <trkpt lat="22.779495" lon="110.319700">
        <ele>135.632244</ele>
        <time>2026-08-16T08:01:02.000Z</time>
      </trkpt>
      <trkpt lat="22.779531" lon="110.319749">
        <ele>135.590022</ele>
        <time>2026-08-16T08:01:03.000Z</time>
      </trkpt>
      <trkpt lat="22.779565" lon="110.319796">
        <ele>135.549765</ele>
        <time>2026-08-16T08:01:04.000Z</time>
      </trkpt>
      <trkpt lat="22.779598" lon="110.319842">
        <ele>135.510488</ele>
        <time>2026-08-16T08:01:05.000Z</time>
      </trkpt>
      <trkpt lat="22.779629" lon="110.319886">
        <ele>135.473172</ele>
        <time>2026-08-16T08:01:06.000Z</time>
      </trkpt>
      <trkpt lat="22.779659" lon="110.319931">
        <ele>135.435751</ele>
        <time>2026-08-16T08:01:07.000Z</time>
      </trkpt>
      <trkpt lat="22.779689" lon="110.319975">
        <ele>135.398873</ele>
        <time>2026-08-16T08:01:08.000Z</time>
      </trkpt>
      <trkpt lat="22.779720" lon="110.320021">
        <ele>135.360477</ele>
        <time>2026-08-16T08:01:09.000Z</time>
      </trkpt>
      <trkpt lat="22.779751" lon="110.320068">
        <ele>135.321535</ele>
        <time>2026-08-16T08:01:10.000Z</time>
      </trkpt>
      <trkpt lat="22.779784" lon="110.320115">
        <ele>135.281724</ele>
        <time>2026-08-16T08:01:11.000Z</time>
      </trkpt>
      <trkpt lat="22.779817" lon="110.320162">
        <ele>135.241914</ele>
        <time>2026-08-16T08:01:12.000Z</time>
      </trkpt>
      <trkpt lat="22.779849" lon="110.320211">
        <ele>135.201450</ele>
        <time>2026-08-16T08:01:13.000Z</time>
      </trkpt>
      <trkpt lat="22.779881" lon="110.320258">
        <ele>135.162078</ele>
        <time>2026-08-16T08:01:14.000Z</time>
      </trkpt>
      <trkpt lat="22.779916" lon="110.320306">
        <ele>135.120839</ele>
        <time>2026-08-16T08:01:15.000Z</time>
      </trkpt>
      <trkpt lat="22.779953" lon="110.320352">
        <ele>135.079702</ele>
        <time>2026-08-16T08:01:16.000Z</time>
      </trkpt>
      <trkpt lat="22.779990" lon="110.320398">
        <ele>135.038566</ele>
        <time>2026-08-16T08:01:17.000Z</time>
      </trkpt>
      <trkpt lat="22.780028" lon="110.320443">
        <ele>134.997445</ele>
        <time>2026-08-16T08:01:18.000Z</time>
      </trkpt>
      <trkpt lat="22.780066" lon="110.320488">
        <ele>134.956323</ele>
        <time>2026-08-16T08:01:19.000Z</time>
      </trkpt>
      <trkpt lat="22.780105" lon="110.320532">
        <ele>134.915194</ele>
        <time>2026-08-16T08:01:20.000Z</time>
      </trkpt>
      <trkpt lat="22.780143" lon="110.320575">
        <ele>134.875056</ele>
        <time>2026-08-16T08:01:21.000Z</time>
      </trkpt>
      <trkpt lat="22.780181" lon="110.320617">
        <ele>134.835402</ele>
        <time>2026-08-16T08:01:22.000Z</time>
      </trkpt>
      <trkpt lat="22.780219" lon="110.320660">
        <ele>134.757156</ele>
        <time>2026-08-16T08:01:23.000Z</time>
      </trkpt>
      <trkpt lat="22.780254" lon="110.320704">
        <ele>134.675233</ele>
        <time>2026-08-16T08:01:24.000Z</time>
      </trkpt>
      <trkpt lat="22.780287" lon="110.320748">
        <ele>134.595274</ele>
        <time>2026-08-16T08:01:25.000Z</time>
      </trkpt>
      <trkpt lat="22.780319" lon="110.320792">
        <ele>134.516271</ele>
        <time>2026-08-16T08:01:26.000Z</time>
      </trkpt>
      <trkpt lat="22.780351" lon="110.320836">
        <ele>134.437268</ele>
        <time>2026-08-16T08:01:27.000Z</time>
      </trkpt>
      <trkpt lat="22.780384" lon="110.320880">
        <ele>134.357309</ele>
        <time>2026-08-16T08:01:28.000Z</time>
      </trkpt>
      <trkpt lat="22.780416" lon="110.320924">
        <ele>134.278305</ele>
        <time>2026-08-16T08:01:29.000Z</time>
      </trkpt>
      <trkpt lat="22.780450" lon="110.320968">
        <ele>134.197373</ele>
        <time>2026-08-16T08:01:30.000Z</time>
      </trkpt>
      <trkpt lat="22.780484" lon="110.321014">
        <ele>134.114260</ele>
        <time>2026-08-16T08:01:31.000Z</time>
      </trkpt>
      <trkpt lat="22.780518" lon="110.321059">
        <ele>134.032242</ele>
        <time>2026-08-16T08:01:32.000Z</time>
      </trkpt>
      <trkpt lat="22.780549" lon="110.321105">
        <ele>133.951918</ele>
        <time>2026-08-16T08:01:33.000Z</time>
      </trkpt>
      <trkpt lat="22.780581" lon="110.321154">
        <ele>133.867268</ele>
        <time>2026-08-16T08:01:34.000Z</time>
      </trkpt>
      <trkpt lat="22.780614" lon="110.321201">
        <ele>133.783985</ele>
        <time>2026-08-16T08:01:35.000Z</time>
      </trkpt>
      <trkpt lat="22.780647" lon="110.321251">
        <ele>133.697300</ele>
        <time>2026-08-16T08:01:36.000Z</time>
      </trkpt>
      <trkpt lat="22.780678" lon="110.321302">
        <ele>133.611185</ele>
        <time>2026-08-16T08:01:37.000Z</time>
      </trkpt>
      <trkpt lat="22.780710" lon="110.321356">
        <ele>133.520692</ele>
        <time>2026-08-16T08:01:38.000Z</time>
      </trkpt>
      <trkpt lat="22.780742" lon="110.321407">
        <ele>133.433726</ele>
        <time>2026-08-16T08:01:39.000Z</time>
      </trkpt>
      <trkpt lat="22.780775" lon="110.321459">
        <ele>133.344733</ele>
        <time>2026-08-16T08:01:40.000Z</time>
      </trkpt>
      <trkpt lat="22.780810" lon="110.321512">
        <ele>133.252829</ele>
        <time>2026-08-16T08:01:41.000Z</time>
      </trkpt>
      <trkpt lat="22.780844" lon="110.321566">
        <ele>133.160646</ele>
        <time>2026-08-16T08:01:42.000Z</time>
      </trkpt>
      <trkpt lat="22.780879" lon="110.321618">
        <ele>133.069885</ele>
        <time>2026-08-16T08:01:43.000Z</time>
      </trkpt>
      <trkpt lat="22.780913" lon="110.321670">
        <ele>132.980016</ele>
        <time>2026-08-16T08:01:44.000Z</time>
      </trkpt>
      <trkpt lat="22.780947" lon="110.321722">
        <ele>132.890148</ele>
        <time>2026-08-16T08:01:45.000Z</time>
      </trkpt>
      <trkpt lat="22.780981" lon="110.321774">
        <ele>132.800279</ele>
        <time>2026-08-16T08:01:46.000Z</time>
      </trkpt>
      <trkpt lat="22.781017" lon="110.321825">
        <ele>132.709731</ele>
        <time>2026-08-16T08:01:47.000Z</time>
      </trkpt>
      <trkpt lat="22.781052" lon="110.321879">
        <ele>132.616678</ele>
        <time>2026-08-16T08:01:48.000Z</time>
      </trkpt>
      <trkpt lat="22.781087" lon="110.321933">
        <ele>132.523624</ele>
        <time>2026-08-16T08:01:49.000Z</time>
      </trkpt>
      <trkpt lat="22.781121" lon="110.321988">
        <ele>132.430274</ele>
        <time>2026-08-16T08:01:50.000Z</time>
      </trkpt>
      <trkpt lat="22.781156" lon="110.322041">
        <ele>132.338370</ele>
        <time>2026-08-16T08:01:51.000Z</time>
      </trkpt>
      <trkpt lat="22.781191" lon="110.322094">
        <ele>132.246466</ele>
        <time>2026-08-16T08:01:52.000Z</time>
      </trkpt>
      <trkpt lat="22.781227" lon="110.322147">
        <ele>132.153664</ele>
        <time>2026-08-16T08:01:53.000Z</time>
      </trkpt>
      <trkpt lat="22.781262" lon="110.322201">
        <ele>132.056028</ele>
        <time>2026-08-16T08:01:54.000Z</time>
      </trkpt>
      <trkpt lat="22.781298" lon="110.322254">
        <ele>131.941322</ele>
        <time>2026-08-16T08:01:55.000Z</time>
      </trkpt>
      <trkpt lat="22.781335" lon="110.322308">
        <ele>131.824091</ele>
        <time>2026-08-16T08:01:56.000Z</time>
      </trkpt>
      <trkpt lat="22.781370" lon="110.322362">
        <ele>131.709075</ele>
        <time>2026-08-16T08:01:57.000Z</time>
      </trkpt>
      <trkpt lat="22.781406" lon="110.322417">
        <ele>131.591546</ele>
        <time>2026-08-16T08:01:58.000Z</time>
      </trkpt>
      <trkpt lat="22.781442" lon="110.322471">
        <ele>131.475432</ele>
        <time>2026-08-16T08:01:59.000Z</time>
      </trkpt>
      <trkpt lat="22.781477" lon="110.322525">
        <ele>131.360416</ele>
        <time>2026-08-16T08:02:00.000Z</time>
      </trkpt>
      <trkpt lat="22.781511" lon="110.322578">
        <ele>131.247911</ele>
        <time>2026-08-16T08:02:01.000Z</time>
      </trkpt>
      <trkpt lat="22.781544" lon="110.322630">
        <ele>131.137915</ele>
        <time>2026-08-16T08:02:02.000Z</time>
      </trkpt>
      <trkpt lat="22.781576" lon="110.322680">
        <ele>131.031859</ele>
        <time>2026-08-16T08:02:03.000Z</time>
      </trkpt>
      <trkpt lat="22.781608" lon="110.322729">
        <ele>130.927230</ele>
        <time>2026-08-16T08:02:04.000Z</time>
      </trkpt>
      <trkpt lat="22.781638" lon="110.322776">
        <ele>130.827625</ele>
        <time>2026-08-16T08:02:05.000Z</time>
      </trkpt>
      <trkpt lat="22.781669" lon="110.322822">
        <ele>130.728343</ele>
        <time>2026-08-16T08:02:06.000Z</time>
      </trkpt>
      <trkpt lat="22.781699" lon="110.322867">
        <ele>130.631582</ele>
        <time>2026-08-16T08:02:07.000Z</time>
      </trkpt>
      <trkpt lat="22.781730" lon="110.322913">
        <ele>130.532300</ele>
        <time>2026-08-16T08:02:08.000Z</time>
      </trkpt>
      <trkpt lat="22.781760" lon="110.322961">
        <ele>130.431257</ele>
        <time>2026-08-16T08:02:09.000Z</time>
      </trkpt>
      <trkpt lat="22.781789" lon="110.323008">
        <ele>130.332715</ele>
        <time>2026-08-16T08:02:10.000Z</time>
      </trkpt>
      <trkpt lat="22.781819" lon="110.323056">
        <ele>130.231672</ele>
        <time>2026-08-16T08:02:11.000Z</time>
      </trkpt>
      <trkpt lat="22.781850" lon="110.323106">
        <ele>130.126683</ele>
        <time>2026-08-16T08:02:12.000Z</time>
      </trkpt>
      <trkpt lat="22.781880" lon="110.323157">
        <ele>130.021272</ele>
        <time>2026-08-16T08:02:13.000Z</time>
      </trkpt>
      <trkpt lat="22.781907" lon="110.323215">
        <ele>129.908058</ele>
        <time>2026-08-16T08:02:14.000Z</time>
      </trkpt>
      <trkpt lat="22.781934" lon="110.323276">
        <ele>129.790155</ele>
        <time>2026-08-16T08:02:15.000Z</time>
      </trkpt>
      <trkpt lat="22.781959" lon="110.323340">
        <ele>129.669043</ele>
        <time>2026-08-16T08:02:16.000Z</time>
      </trkpt>
      <trkpt lat="22.781980" lon="110.323406">
        <ele>129.547385</ele>
        <time>2026-08-16T08:02:17.000Z</time>
      </trkpt>
      <trkpt lat="22.782000" lon="110.323474">
        <ele>129.423016</ele>
        <time>2026-08-16T08:02:18.000Z</time>
      </trkpt>
      <trkpt lat="22.782024" lon="110.323540">
        <ele>129.299393</ele>
        <time>2026-08-16T08:02:19.000Z</time>
      </trkpt>
      <trkpt lat="22.782039" lon="110.323610">
        <ele>129.174171</ele>
        <time>2026-08-16T08:02:20.000Z</time>
      </trkpt>
      <trkpt lat="22.782058" lon="110.323683">
        <ele>129.042001</ele>
        <time>2026-08-16T08:02:21.000Z</time>
      </trkpt>
      <trkpt lat="22.782078" lon="110.323757">
        <ele>128.907635</ele>
        <time>2026-08-16T08:02:22.000Z</time>
      </trkpt>
      <trkpt lat="22.782100" lon="110.323831">
        <ele>128.772156</ele>
        <time>2026-08-16T08:02:23.000Z</time>
      </trkpt>
      <trkpt lat="22.782123" lon="110.323904">
        <ele>128.643618</ele>
        <time>2026-08-16T08:02:24.000Z</time>
      </trkpt>
      <trkpt lat="22.782144" lon="110.323976">
        <ele>128.530012</ele>
        <time>2026-08-16T08:02:25.000Z</time>
      </trkpt>
      <trkpt lat="22.782166" lon="110.324047">
        <ele>128.417330</ele>
        <time>2026-08-16T08:02:26.000Z</time>
      </trkpt>
      <trkpt lat="22.782186" lon="110.324119">
        <ele>128.304205</ele>
        <time>2026-08-16T08:02:27.000Z</time>
      </trkpt>
      <trkpt lat="22.782204" lon="110.324188">
        <ele>128.196328</ele>
        <time>2026-08-16T08:02:28.000Z</time>
      </trkpt>
      <trkpt lat="22.782221" lon="110.324255">
        <ele>128.091787</ele>
        <time>2026-08-16T08:02:29.000Z</time>
      </trkpt>
      <trkpt lat="22.782237" lon="110.324322">
        <ele>127.987667</ele>
        <time>2026-08-16T08:02:30.000Z</time>
      </trkpt>
      <trkpt lat="22.782252" lon="110.324389">
        <ele>127.883945</ele>
        <time>2026-08-16T08:02:31.000Z</time>
      </trkpt>
      <trkpt lat="22.782268" lon="110.324454">
        <ele>127.782735</ele>
        <time>2026-08-16T08:02:32.000Z</time>
      </trkpt>
      <trkpt lat="22.782281" lon="110.324518">
        <ele>127.684145</ele>
        <time>2026-08-16T08:02:33.000Z</time>
      </trkpt>
      <trkpt lat="22.782292" lon="110.324583">
        <ele>127.584727</ele>
        <time>2026-08-16T08:02:34.000Z</time>
      </trkpt>
      <trkpt lat="22.782304" lon="110.324648">
        <ele>127.485001</ele>
        <time>2026-08-16T08:02:35.000Z</time>
      </trkpt>
      <trkpt lat="22.782317" lon="110.324714">
        <ele>127.383472</ele>
        <time>2026-08-16T08:02:36.000Z</time>
      </trkpt>
      <trkpt lat="22.782331" lon="110.324779">
        <ele>127.283054</ele>
        <time>2026-08-16T08:02:37.000Z</time>
      </trkpt>
      <trkpt lat="22.782346" lon="110.324842">
        <ele>127.185169</ele>
        <time>2026-08-16T08:02:38.000Z</time>
      </trkpt>
      <trkpt lat="22.782363" lon="110.324909">
        <ele>127.080628</ele>
        <time>2026-08-16T08:02:39.000Z</time>
      </trkpt>
      <trkpt lat="22.782378" lon="110.324976">
        <ele>126.976905</ele>
        <time>2026-08-16T08:02:40.000Z</time>
      </trkpt>
      <trkpt lat="22.782394" lon="110.325042">
        <ele>126.874241</ele>
        <time>2026-08-16T08:02:41.000Z</time>
      </trkpt>
      <trkpt lat="22.782411" lon="110.325109">
        <ele>126.769701</ele>
        <time>2026-08-16T08:02:42.000Z</time>
      </trkpt>
      <trkpt lat="22.782427" lon="110.325176">
        <ele>126.665581</ele>
        <time>2026-08-16T08:02:43.000Z</time>
      </trkpt>
      <trkpt lat="22.782440" lon="110.325243">
        <ele>126.562580</ele>
        <time>2026-08-16T08:02:44.000Z</time>
      </trkpt>
      <trkpt lat="22.782446" lon="110.325312">
        <ele>126.458317</ele>
        <time>2026-08-16T08:02:45.000Z</time>
      </trkpt>
      <trkpt lat="22.782457" lon="110.325379">
        <ele>126.355938</ele>
        <time>2026-08-16T08:02:46.000Z</time>
      </trkpt>
      <trkpt lat="22.782475" lon="110.325447">
        <ele>126.249507</ele>
        <time>2026-08-16T08:02:47.000Z</time>
      </trkpt>
      <trkpt lat="22.782498" lon="110.325522">
        <ele>126.130601</ele>
        <time>2026-08-16T08:02:48.000Z</time>
      </trkpt>
      <trkpt lat="22.782516" lon="110.325593">
        <ele>126.019826</ele>
        <time>2026-08-16T08:02:49.000Z</time>
      </trkpt>
      <trkpt lat="22.782531" lon="110.325662">
        <ele>125.913177</ele>
        <time>2026-08-16T08:02:50.000Z</time>
      </trkpt>
      <trkpt lat="22.782542" lon="110.325730">
        <ele>125.809317</ele>
        <time>2026-08-16T08:02:51.000Z</time>
      </trkpt>
      <trkpt lat="22.782557" lon="110.325796">
        <ele>125.757895</ele>
        <time>2026-08-16T08:02:52.000Z</time>
      </trkpt>
      <trkpt lat="22.782574" lon="110.325863">
        <ele>125.789884</ele>
        <time>2026-08-16T08:02:53.000Z</time>
      </trkpt>
      <trkpt lat="22.782590" lon="110.325928">
        <ele>125.820853</ele>
        <time>2026-08-16T08:02:54.000Z</time>
      </trkpt>
      <trkpt lat="22.782608" lon="110.325995">
        <ele>125.852977</ele>
        <time>2026-08-16T08:02:55.000Z</time>
      </trkpt>
      <trkpt lat="22.782627" lon="110.326061">
        <ele>125.884805</ele>
        <time>2026-08-16T08:02:56.000Z</time>
      </trkpt>
      <trkpt lat="22.782643" lon="110.326128">
        <ele>125.916665</ele>
        <time>2026-08-16T08:02:57.000Z</time>
      </trkpt>
      <trkpt lat="22.782662" lon="110.326195">
        <ele>125.948933</ele>
        <time>2026-08-16T08:02:58.000Z</time>
      </trkpt>
      <trkpt lat="22.782680" lon="110.326262">
        <ele>125.981057</ele>
        <time>2026-08-16T08:02:59.000Z</time>
      </trkpt>
      <trkpt lat="22.782698" lon="110.326329">
        <ele>126.013182</ele>
        <time>2026-08-16T08:03:00.000Z</time>
      </trkpt>
      <trkpt lat="22.782715" lon="110.326394">
        <ele>126.044284</ele>
        <time>2026-08-16T08:03:01.000Z</time>
      </trkpt>
      <trkpt lat="22.782733" lon="110.326460">
        <ele>126.075967</ele>
        <time>2026-08-16T08:03:02.000Z</time>
      </trkpt>
      <trkpt lat="22.782750" lon="110.326525">
        <ele>126.107068</ele>
        <time>2026-08-16T08:03:03.000Z</time>
      </trkpt>
      <trkpt lat="22.782759" lon="110.326588">
        <ele>126.136415</ele>
        <time>2026-08-16T08:03:04.000Z</time>
      </trkpt>
      <trkpt lat="22.782761" lon="110.326656">
        <ele>126.167733</ele>
        <time>2026-08-16T08:03:05.000Z</time>
      </trkpt>
      <trkpt lat="22.782762" lon="110.326722">
        <ele>126.198119</ele>
        <time>2026-08-16T08:03:06.000Z</time>
      </trkpt>
      <trkpt lat="22.782767" lon="110.326784">
        <ele>126.226768</ele>
        <time>2026-08-16T08:03:07.000Z</time>
      </trkpt>
      <trkpt lat="22.782773" lon="110.326843">
        <ele>126.254092</ele>
        <time>2026-08-16T08:03:08.000Z</time>
      </trkpt>
      <trkpt lat="22.782780" lon="110.326897">
        <ele>126.279194</ele>
        <time>2026-08-16T08:03:09.000Z</time>
      </trkpt>
      <trkpt lat="22.782787" lon="110.326953">
        <ele>126.305208</ele>
        <time>2026-08-16T08:03:10.000Z</time>
      </trkpt>
      <trkpt lat="22.782789" lon="110.327006">
        <ele>126.329626</ele>
        <time>2026-08-16T08:03:11.000Z</time>
      </trkpt>
      <trkpt lat="22.782797" lon="110.327060">
        <ele>126.354802</ele>
        <time>2026-08-16T08:03:12.000Z</time>
      </trkpt>
      <trkpt lat="22.782804" lon="110.327113">
        <ele>126.379449</ele>
        <time>2026-08-16T08:03:13.000Z</time>
      </trkpt>
      <trkpt lat="22.782811" lon="110.327164">
        <ele>126.403184</ele>
        <time>2026-08-16T08:03:14.000Z</time>
      </trkpt>
      <trkpt lat="22.782818" lon="110.327214">
        <ele>126.426464</ele>
        <time>2026-08-16T08:03:15.000Z</time>
      </trkpt>
      <trkpt lat="22.782823" lon="110.327267">
        <ele>126.450989</ele>
        <time>2026-08-16T08:03:16.000Z</time>
      </trkpt>
      <trkpt lat="22.782822" lon="110.327317">
        <ele>126.474010</ele>
        <time>2026-08-16T08:03:17.000Z</time>
      </trkpt>
      <trkpt lat="22.782822" lon="110.327366">
        <ele>126.496566</ele>
        <time>2026-08-16T08:03:18.000Z</time>
      </trkpt>
      <trkpt lat="22.782824" lon="110.327418">
        <ele>126.520524</ele>
        <time>2026-08-16T08:03:19.000Z</time>
      </trkpt>
      <trkpt lat="22.782823" lon="110.327472">
        <ele>126.545387</ele>
        <time>2026-08-16T08:03:20.000Z</time>
      </trkpt>
      <trkpt lat="22.782821" lon="110.327524">
        <ele>126.569344</ele>
        <time>2026-08-16T08:03:21.000Z</time>
      </trkpt>
      <trkpt lat="22.782818" lon="110.327572">
        <ele>126.591491</ele>
        <time>2026-08-16T08:03:22.000Z</time>
      </trkpt>
      <trkpt lat="22.782811" lon="110.327620">
        <ele>126.613861</ele>
        <time>2026-08-16T08:03:23.000Z</time>
      </trkpt>
      <trkpt lat="22.782804" lon="110.327665">
        <ele>126.634869</ele>
        <time>2026-08-16T08:03:24.000Z</time>
      </trkpt>
      <trkpt lat="22.782796" lon="110.327713">
        <ele>126.609975</ele>
        <time>2026-08-16T08:03:25.000Z</time>
      </trkpt>
      <trkpt lat="22.782784" lon="110.327758">
        <ele>126.554843</ele>
        <time>2026-08-16T08:03:26.000Z</time>
      </trkpt>
      <trkpt lat="22.782772" lon="110.327801">
        <ele>126.501969</ele>
        <time>2026-08-16T08:03:27.000Z</time>
      </trkpt>
      <trkpt lat="22.782760" lon="110.327847">
        <ele>126.445706</ele>
        <time>2026-08-16T08:03:28.000Z</time>
      </trkpt>
      <trkpt lat="22.782751" lon="110.327892">
        <ele>126.391513</ele>
        <time>2026-08-16T08:03:29.000Z</time>
      </trkpt>
      <trkpt lat="22.782744" lon="110.327940">
        <ele>126.334319</ele>
        <time>2026-08-16T08:03:30.000Z</time>
      </trkpt>
      <trkpt lat="22.782739" lon="110.327987">
        <ele>126.278638</ele>
        <time>2026-08-16T08:03:31.000Z</time>
      </trkpt>
      <trkpt lat="22.782730" lon="110.328036">
        <ele>126.219836</ele>
        <time>2026-08-16T08:03:32.000Z</time>
      </trkpt>
      <trkpt lat="22.782720" lon="110.328084">
        <ele>126.161920</ele>
        <time>2026-08-16T08:03:33.000Z</time>
      </trkpt>
      <trkpt lat="22.782709" lon="110.328133">
        <ele>126.102567</ele>
        <time>2026-08-16T08:03:34.000Z</time>
      </trkpt>
      <trkpt lat="22.782699" lon="110.328183">
        <ele>126.042353</ele>
        <time>2026-08-16T08:03:35.000Z</time>
      </trkpt>
      <trkpt lat="22.782688" lon="110.328231">
        <ele>125.984142</ele>
        <time>2026-08-16T08:03:36.000Z</time>
      </trkpt>
      <trkpt lat="22.782680" lon="110.328269">
        <ele>125.938269</ele>
        <time>2026-08-16T08:03:37.000Z</time>
      </trkpt>
      <trkpt lat="22.782668" lon="110.328306">
        <ele>125.892108</ele>
        <time>2026-08-16T08:03:38.000Z</time>
      </trkpt>
      <trkpt lat="22.782666" lon="110.328357">
        <ele>125.832031</ele>
        <time>2026-08-16T08:03:39.000Z</time>
      </trkpt>
      <trkpt lat="22.782665" lon="110.328408">
        <ele>125.771995</ele>
        <time>2026-08-16T08:03:40.000Z</time>
      </trkpt>
      <trkpt lat="22.782663" lon="110.328464">
        <ele>125.706039</ele>
        <time>2026-08-16T08:03:41.000Z</time>
      </trkpt>
      <trkpt lat="22.782661" lon="110.328520">
        <ele>125.640083</ele>
        <time>2026-08-16T08:03:42.000Z</time>
      </trkpt>
      <trkpt lat="22.782658" lon="110.328578">
        <ele>125.571715</ele>
        <time>2026-08-16T08:03:43.000Z</time>
      </trkpt>
      <trkpt lat="22.782657" lon="110.328640">
        <ele>125.498735</ele>
        <time>2026-08-16T08:03:44.000Z</time>
      </trkpt>
      <trkpt lat="22.782655" lon="110.328702">
        <ele>125.425722</ele>
        <time>2026-08-16T08:03:45.000Z</time>
      </trkpt>
      <trkpt lat="22.782655" lon="110.328761">
        <ele>125.356285</ele>
        <time>2026-08-16T08:03:46.000Z</time>
      </trkpt>
      <trkpt lat="22.782653" lon="110.328820">
        <ele>125.286800</ele>
        <time>2026-08-16T08:03:47.000Z</time>
      </trkpt>
      <trkpt lat="22.782649" lon="110.328880">
        <ele>125.216001</ele>
        <time>2026-08-16T08:03:48.000Z</time>
      </trkpt>
      <trkpt lat="22.782648" lon="110.328944">
        <ele>125.140668</ele>
        <time>2026-08-16T08:03:49.000Z</time>
      </trkpt>
      <trkpt lat="22.782645" lon="110.329008">
        <ele>125.065249</ele>
        <time>2026-08-16T08:03:50.000Z</time>
      </trkpt>
      <trkpt lat="22.782641" lon="110.329073">
        <ele>124.988580</ele>
        <time>2026-08-16T08:03:51.000Z</time>
      </trkpt>
      <trkpt lat="22.782639" lon="110.329140">
        <ele>124.909686</ele>
        <time>2026-08-16T08:03:52.000Z</time>
      </trkpt>
      <trkpt lat="22.782634" lon="110.329209">
        <ele>124.828229</ele>
        <time>2026-08-16T08:03:53.000Z</time>
      </trkpt>
      <trkpt lat="22.782633" lon="110.329279">
        <ele>124.745835</ele>
        <time>2026-08-16T08:03:54.000Z</time>
      </trkpt>
      <trkpt lat="22.782631" lon="110.329346">
        <ele>124.666941</ele>
        <time>2026-08-16T08:03:55.000Z</time>
      </trkpt>
      <trkpt lat="22.782628" lon="110.329417">
        <ele>124.583293</ele>
        <time>2026-08-16T08:03:56.000Z</time>
      </trkpt>
      <trkpt lat="22.782624" lon="110.329486">
        <ele>124.501926</ele>
        <time>2026-08-16T08:03:57.000Z</time>
      </trkpt>
      <trkpt lat="22.782623" lon="110.329554">
        <ele>124.421886</ele>
        <time>2026-08-16T08:03:58.000Z</time>
      </trkpt>
      <trkpt lat="22.782620" lon="110.329623">
        <ele>124.344725</ele>
        <time>2026-08-16T08:03:59.000Z</time>
      </trkpt>
      <trkpt lat="22.782617" lon="110.329693">
        <ele>124.308017</ele>
        <time>2026-08-16T08:04:00.000Z</time>
      </trkpt>
      <trkpt lat="22.782614" lon="110.329764">
        <ele>124.270785</ele>
        <time>2026-08-16T08:04:01.000Z</time>
      </trkpt>
      <trkpt lat="22.782612" lon="110.329837">
        <ele>124.232529</ele>
        <time>2026-08-16T08:04:02.000Z</time>
      </trkpt>
      <trkpt lat="22.782611" lon="110.329910">
        <ele>124.194284</ele>
        <time>2026-08-16T08:04:03.000Z</time>
      </trkpt>
      <trkpt lat="22.782611" lon="110.329984">
        <ele>124.155520</ele>
        <time>2026-08-16T08:04:04.000Z</time>
      </trkpt>
      <trkpt lat="22.782611" lon="110.330058">
        <ele>124.116757</ele>
        <time>2026-08-16T08:04:05.000Z</time>
      </trkpt>
      <trkpt lat="22.782615" lon="110.330132">
        <ele>124.077926</ele>
        <time>2026-08-16T08:04:06.000Z</time>
      </trkpt>
      <trkpt lat="22.782613" lon="110.330208">
        <ele>124.038098</ele>
        <time>2026-08-16T08:04:07.000Z</time>
      </trkpt>
      <trkpt lat="22.782610" lon="110.330282">
        <ele>123.999297</ele>
        <time>2026-08-16T08:04:08.000Z</time>
      </trkpt>
      <trkpt lat="22.782604" lon="110.330357">
        <ele>123.959862</ele>
        <time>2026-08-16T08:04:09.000Z</time>
      </trkpt>
      <trkpt lat="22.782599" lon="110.330430">
        <ele>123.921516</ele>
        <time>2026-08-16T08:04:10.000Z</time>
      </trkpt>
      <trkpt lat="22.782595" lon="110.330502">
        <ele>123.883732</ele>
        <time>2026-08-16T08:04:11.000Z</time>
      </trkpt>
      <trkpt lat="22.782592" lon="110.330575">
        <ele>123.845454</ele>
        <time>2026-08-16T08:04:12.000Z</time>
      </trkpt>
      <trkpt lat="22.782591" lon="110.330646">
        <ele>123.808257</ele>
        <time>2026-08-16T08:04:13.000Z</time>
      </trkpt>
      <trkpt lat="22.782590" lon="110.330717">
        <ele>123.771060</ele>
        <time>2026-08-16T08:04:14.000Z</time>
      </trkpt>
      <trkpt lat="22.782588" lon="110.330788">
        <ele>123.733851</ele>
        <time>2026-08-16T08:04:15.000Z</time>
      </trkpt>
      <trkpt lat="22.782585" lon="110.330859">
        <ele>123.696619</ele>
        <time>2026-08-16T08:04:16.000Z</time>
      </trkpt>
      <trkpt lat="22.782583" lon="110.330931">
        <ele>123.658886</ele>
        <time>2026-08-16T08:04:17.000Z</time>
      </trkpt>
      <trkpt lat="22.782580" lon="110.331001">
        <ele>123.622178</ele>
        <time>2026-08-16T08:04:18.000Z</time>
      </trkpt>
      <trkpt lat="22.782579" lon="110.331070">
        <ele>123.586029</ele>
        <time>2026-08-16T08:04:19.000Z</time>
      </trkpt>
      <trkpt lat="22.782574" lon="110.331139">
        <ele>123.549773</ele>
        <time>2026-08-16T08:04:20.000Z</time>
      </trkpt>
      <trkpt lat="22.782569" lon="110.331204">
        <ele>123.515605</ele>
        <time>2026-08-16T08:04:21.000Z</time>
      </trkpt>
      <trkpt lat="22.782565" lon="110.331269">
        <ele>123.481480</ele>
        <time>2026-08-16T08:04:22.000Z</time>
      </trkpt>
      <trkpt lat="22.782562" lon="110.331332">
        <ele>123.448434</ele>
        <time>2026-08-16T08:04:23.000Z</time>
      </trkpt>
      <trkpt lat="22.782560" lon="110.331399">
        <ele>123.413319</ele>
        <time>2026-08-16T08:04:24.000Z</time>
      </trkpt>
      <trkpt lat="22.782559" lon="110.331463">
        <ele>123.379789</ele>
        <time>2026-08-16T08:04:25.000Z</time>
      </trkpt>
      <trkpt lat="22.782555" lon="110.331524">
        <ele>123.347754</ele>
        <time>2026-08-16T08:04:26.000Z</time>
      </trkpt>
      <trkpt lat="22.782551" lon="110.331582">
        <ele>123.325628</ele>
        <time>2026-08-16T08:04:27.000Z</time>
      </trkpt>
      <trkpt lat="22.782550" lon="110.331640">
        <ele>123.323939</ele>
        <time>2026-08-16T08:04:28.000Z</time>
      </trkpt>
      <trkpt lat="22.782550" lon="110.331696">
        <ele>123.322309</ele>
        <time>2026-08-16T08:04:29.000Z</time>
      </trkpt>
      <trkpt lat="22.782547" lon="110.331746">
        <ele>123.320851</ele>
        <time>2026-08-16T08:04:30.000Z</time>
      </trkpt>
      <trkpt lat="22.782541" lon="110.331791">
        <ele>123.319527</ele>
        <time>2026-08-16T08:04:31.000Z</time>
      </trkpt>
      <trkpt lat="22.782537" lon="110.331826">
        <ele>123.318500</ele>
        <time>2026-08-16T08:04:32.000Z</time>
      </trkpt>
      <trkpt lat="22.782533" lon="110.331857">
        <ele>123.317589</ele>
        <time>2026-08-16T08:04:33.000Z</time>
      </trkpt>
      <trkpt lat="22.782532" lon="110.331875">
        <ele>123.317064</ele>
        <time>2026-08-16T08:04:34.000Z</time>
      </trkpt>
      <trkpt lat="22.782530" lon="110.331880">
        <ele>123.316906</ele>
        <time>2026-08-16T08:04:35.000Z</time>
      </trkpt>
      <trkpt lat="22.782539" lon="110.331947">
        <ele>123.314935</ele>
        <time>2026-08-16T08:09:14.000Z</time>
      </trkpt>
      <trkpt lat="22.782542" lon="110.331975">
        <ele>123.314114</ele>
        <time>2026-08-16T08:09:15.000Z</time>
      </trkpt>
      <trkpt lat="22.782539" lon="110.332000">
        <ele>123.313380</ele>
        <time>2026-08-16T08:09:16.000Z</time>
      </trkpt>
      <trkpt lat="22.782535" lon="110.332027">
        <ele>123.312584</ele>
        <time>2026-08-16T08:09:17.000Z</time>
      </trkpt>
      <trkpt lat="22.782534" lon="110.332056">
        <ele>123.311739</ele>
        <time>2026-08-16T08:09:18.000Z</time>
      </trkpt>
      <trkpt lat="22.782532" lon="110.332088">
        <ele>123.310806</ele>
        <time>2026-08-16T08:09:19.000Z</time>
      </trkpt>
      <trkpt lat="22.782531" lon="110.332124">
        <ele>123.309757</ele>
        <time>2026-08-16T08:09:20.000Z</time>
      </trkpt>
      <trkpt lat="22.782532" lon="110.332161">
        <ele>123.308680</ele>
        <time>2026-08-16T08:09:21.000Z</time>
      </trkpt>
      <trkpt lat="22.782535" lon="110.332201">
        <ele>123.307512</ele>
        <time>2026-08-16T08:09:22.000Z</time>
      </trkpt>
      <trkpt lat="22.782536" lon="110.332241">
        <ele>123.306347</ele>
        <time>2026-08-16T08:09:23.000Z</time>
      </trkpt>
      <trkpt lat="22.782536" lon="110.332280">
        <ele>123.305212</ele>
        <time>2026-08-16T08:09:24.000Z</time>
      </trkpt>
      <trkpt lat="22.782534" lon="110.332317">
        <ele>123.304133</ele>
        <time>2026-08-16T08:09:25.000Z</time>
      </trkpt>
      <trkpt lat="22.782530" lon="110.332356">
        <ele>123.302990</ele>
        <time>2026-08-16T08:09:26.000Z</time>
      </trkpt>
      <trkpt lat="22.782527" lon="110.332397">
        <ele>123.301793</ele>
        <time>2026-08-16T08:09:27.000Z</time>
      </trkpt>
      <trkpt lat="22.782527" lon="110.332441">
        <ele>123.300512</ele>
        <time>2026-08-16T08:09:28.000Z</time>
      </trkpt>
      <trkpt lat="22.782525" lon="110.332482">
        <ele>123.299317</ele>
        <time>2026-08-16T08:09:29.000Z</time>
      </trkpt>
      <trkpt lat="22.782525" lon="110.332527">
        <ele>123.298007</ele>
        <time>2026-08-16T08:09:30.000Z</time>
      </trkpt>
      <trkpt lat="22.782524" lon="110.332569">
        <ele>123.296784</ele>
        <time>2026-08-16T08:09:31.000Z</time>
      </trkpt>
      <trkpt lat="22.782525" lon="110.332613">
        <ele>123.295503</ele>
        <time>2026-08-16T08:09:32.000Z</time>
      </trkpt>
      <trkpt lat="22.782525" lon="110.332658">
        <ele>123.294193</ele>
        <time>2026-08-16T08:09:33.000Z</time>
      </trkpt>
      <trkpt lat="22.782525" lon="110.332702">
        <ele>123.292912</ele>
        <time>2026-08-16T08:09:34.000Z</time>
      </trkpt>
      <trkpt lat="22.782524" lon="110.332746">
        <ele>123.291631</ele>
        <time>2026-08-16T08:09:35.000Z</time>
      </trkpt>
      <trkpt lat="22.782520" lon="110.332788">
        <ele>123.290402</ele>
        <time>2026-08-16T08:09:36.000Z</time>
      </trkpt>
      <trkpt lat="22.782518" lon="110.332830">
        <ele>123.289178</ele>
        <time>2026-08-16T08:09:37.000Z</time>
      </trkpt>
      <trkpt lat="22.782515" lon="110.332874">
        <ele>123.287893</ele>
        <time>2026-08-16T08:09:38.000Z</time>
      </trkpt>
      <trkpt lat="22.782513" lon="110.332918">
        <ele>123.286611</ele>
        <time>2026-08-16T08:09:39.000Z</time>
      </trkpt>
      <trkpt lat="22.782511" lon="110.332963">
        <ele>123.285299</ele>
        <time>2026-08-16T08:09:40.000Z</time>
      </trkpt>
      <trkpt lat="22.782509" lon="110.333009">
        <ele>123.283959</ele>
        <time>2026-08-16T08:09:41.000Z</time>
      </trkpt>
      <trkpt lat="22.782507" lon="110.333056">
        <ele>123.282589</ele>
        <time>2026-08-16T08:09:42.000Z</time>
      </trkpt>
      <trkpt lat="22.782506" lon="110.333101">
        <ele>123.281279</ele>
        <time>2026-08-16T08:09:43.000Z</time>
      </trkpt>
      <trkpt lat="22.782505" lon="110.333147">
        <ele>123.279940</ele>
        <time>2026-08-16T08:09:44.000Z</time>
      </trkpt>
      <trkpt lat="22.782505" lon="110.333195">
        <ele>123.278542</ele>
        <time>2026-08-16T08:09:45.000Z</time>
      </trkpt>
      <trkpt lat="22.782506" lon="110.333241">
        <ele>123.277203</ele>
        <time>2026-08-16T08:09:46.000Z</time>
      </trkpt>
      <trkpt lat="22.782508" lon="110.333288">
        <ele>123.275833</ele>
        <time>2026-08-16T08:09:47.000Z</time>
      </trkpt>
      <trkpt lat="22.782510" lon="110.333335">
        <ele>123.274464</ele>
        <time>2026-08-16T08:09:48.000Z</time>
      </trkpt>
      <trkpt lat="22.782508" lon="110.333383">
        <ele>123.273065</ele>
        <time>2026-08-16T08:09:49.000Z</time>
      </trkpt>
      <trkpt lat="22.782503" lon="110.333429">
        <ele>123.271717</ele>
        <time>2026-08-16T08:09:50.000Z</time>
      </trkpt>
      <trkpt lat="22.782497" lon="110.333475">
        <ele>123.270364</ele>
        <time>2026-08-16T08:09:51.000Z</time>
      </trkpt>
      <trkpt lat="22.782491" lon="110.333520">
        <ele>123.270204</ele>
        <time>2026-08-16T08:09:52.000Z</time>
      </trkpt>
      <trkpt lat="22.782487" lon="110.333564">
        <ele>123.274086</ele>
        <time>2026-08-16T08:09:53.000Z</time>
      </trkpt>
      <trkpt lat="22.782485" lon="110.333610">
        <ele>123.278130</ele>
        <time>2026-08-16T08:09:54.000Z</time>
      </trkpt>
      <trkpt lat="22.782483" lon="110.333655">
        <ele>123.282086</ele>
        <time>2026-08-16T08:09:55.000Z</time>
      </trkpt>
      <trkpt lat="22.782481" lon="110.333701">
        <ele>123.286130</ele>
        <time>2026-08-16T08:09:56.000Z</time>
      </trkpt>
      <trkpt lat="22.782479" lon="110.333745">
        <ele>123.289999</ele>
        <time>2026-08-16T08:09:57.000Z</time>
      </trkpt>
      <trkpt lat="22.782477" lon="110.333788">
        <ele>123.293780</ele>
        <time>2026-08-16T08:09:58.000Z</time>
      </trkpt>
      <trkpt lat="22.782474" lon="110.333832">
        <ele>123.297654</ele>
        <time>2026-08-16T08:09:59.000Z</time>
      </trkpt>
      <trkpt lat="22.782473" lon="110.333876">
        <ele>123.301519</ele>
        <time>2026-08-16T08:10:00.000Z</time>
      </trkpt>
      <trkpt lat="22.782473" lon="110.333920">
        <ele>123.305383</ele>
        <time>2026-08-16T08:10:01.000Z</time>
      </trkpt>
      <trkpt lat="22.782475" lon="110.333965">
        <ele>123.309339</ele>
        <time>2026-08-16T08:10:02.000Z</time>
      </trkpt>
      <trkpt lat="22.782476" lon="110.334009">
        <ele>123.313204</ele>
        <time>2026-08-16T08:10:03.000Z</time>
      </trkpt>
      <trkpt lat="22.782476" lon="110.334052">
        <ele>123.316980</ele>
        <time>2026-08-16T08:10:04.000Z</time>
      </trkpt>
      <trkpt lat="22.782475" lon="110.334094">
        <ele>123.320669</ele>
        <time>2026-08-16T08:10:05.000Z</time>
      </trkpt>
      <trkpt lat="22.782474" lon="110.334133">
        <ele>123.324095</ele>
        <time>2026-08-16T08:10:06.000Z</time>
      </trkpt>
      <trkpt lat="22.782472" lon="110.334174">
        <ele>123.327701</ele>
        <time>2026-08-16T08:10:07.000Z</time>
      </trkpt>
      <trkpt lat="22.782469" lon="110.334219">
        <ele>123.331663</ele>
        <time>2026-08-16T08:10:08.000Z</time>
      </trkpt>
      <trkpt lat="22.782466" lon="110.334266">
        <ele>123.335800</ele>
        <time>2026-08-16T08:10:09.000Z</time>
      </trkpt>
      <trkpt lat="22.782463" lon="110.334313">
        <ele>123.339937</ele>
        <time>2026-08-16T08:10:10.000Z</time>
      </trkpt>
      <trkpt lat="22.782460" lon="110.334360">
        <ele>123.344074</ele>
        <time>2026-08-16T08:10:11.000Z</time>
      </trkpt>
      <trkpt lat="22.782458" lon="110.334407">
        <ele>123.348206</ele>
        <time>2026-08-16T08:10:12.000Z</time>
      </trkpt>
      <trkpt lat="22.782456" lon="110.334454">
        <ele>123.352337</ele>
        <time>2026-08-16T08:10:13.000Z</time>
      </trkpt>
      <trkpt lat="22.782455" lon="110.334502">
        <ele>123.356554</ele>
        <time>2026-08-16T08:10:14.000Z</time>
      </trkpt>
      <trkpt lat="22.782453" lon="110.334550">
        <ele>123.360773</ele>
        <time>2026-08-16T08:10:15.000Z</time>
      </trkpt>
      <trkpt lat="22.782450" lon="110.334598">
        <ele>123.364998</ele>
        <time>2026-08-16T08:10:16.000Z</time>
      </trkpt>
      <trkpt lat="22.782447" lon="110.334646">
        <ele>123.369222</ele>
        <time>2026-08-16T08:10:17.000Z</time>
      </trkpt>
      <trkpt lat="22.782445" lon="110.334694">
        <ele>123.373442</ele>
        <time>2026-08-16T08:10:18.000Z</time>
      </trkpt>
      <trkpt lat="22.782443" lon="110.334744">
        <ele>123.377837</ele>
        <time>2026-08-16T08:10:19.000Z</time>
      </trkpt>
      <trkpt lat="22.782441" lon="110.334794">
        <ele>123.382231</ele>
        <time>2026-08-16T08:10:20.000Z</time>
      </trkpt>
      <trkpt lat="22.782441" lon="110.334843">
        <ele>123.386534</ele>
        <time>2026-08-16T08:10:21.000Z</time>
      </trkpt>
      <trkpt lat="22.782439" lon="110.334894">
        <ele>123.391017</ele>
        <time>2026-08-16T08:10:22.000Z</time>
      </trkpt>
      <trkpt lat="22.782437" lon="110.334946">
        <ele>123.395587</ele>
        <time>2026-08-16T08:10:23.000Z</time>
      </trkpt>
      <trkpt lat="22.782435" lon="110.334997">
        <ele>123.400070</ele>
        <time>2026-08-16T08:10:24.000Z</time>
      </trkpt>
      <trkpt lat="22.782433" lon="110.335047">
        <ele>123.404465</ele>
        <time>2026-08-16T08:10:25.000Z</time>
      </trkpt>
      <trkpt lat="22.782432" lon="110.335097">
        <ele>123.408856</ele>
        <time>2026-08-16T08:10:26.000Z</time>
      </trkpt>
      <trkpt lat="22.782430" lon="110.335147">
        <ele>123.413251</ele>
        <time>2026-08-16T08:10:27.000Z</time>
      </trkpt>
      <trkpt lat="22.782430" lon="110.335197">
        <ele>123.417642</ele>
        <time>2026-08-16T08:10:28.000Z</time>
      </trkpt>
      <trkpt lat="22.782432" lon="110.335247">
        <ele>123.422037</ele>
        <time>2026-08-16T08:10:29.000Z</time>
      </trkpt>
      <trkpt lat="22.782431" lon="110.335298">
        <ele>123.426516</ele>
        <time>2026-08-16T08:10:30.000Z</time>
      </trkpt>
      <trkpt lat="22.782430" lon="110.335349">
        <ele>123.430996</ele>
        <time>2026-08-16T08:10:31.000Z</time>
      </trkpt>
      <trkpt lat="22.782428" lon="110.335399">
        <ele>123.435390</ele>
        <time>2026-08-16T08:10:32.000Z</time>
      </trkpt>
      <trkpt lat="22.782425" lon="110.335449">
        <ele>123.439790</ele>
        <time>2026-08-16T08:10:33.000Z</time>
      </trkpt>
      <trkpt lat="22.782423" lon="110.335500">
        <ele>123.450653</ele>
        <time>2026-08-16T08:10:34.000Z</time>
      </trkpt>
      <trkpt lat="22.782419" lon="110.335550">
        <ele>123.462803</ele>
        <time>2026-08-16T08:10:35.000Z</time>
      </trkpt>
      <trkpt lat="22.782417" lon="110.335601">
        <ele>123.475161</ele>
        <time>2026-08-16T08:10:36.000Z</time>
      </trkpt>
      <trkpt lat="22.782415" lon="110.335652">
        <ele>123.487519</ele>
        <time>2026-08-16T08:10:37.000Z</time>
      </trkpt>
      <trkpt lat="22.782412" lon="110.335704">
        <ele>123.500132</ele>
        <time>2026-08-16T08:10:38.000Z</time>
      </trkpt>
      <trkpt lat="22.782410" lon="110.335757">
        <ele>123.512974</ele>
        <time>2026-08-16T08:10:39.000Z</time>
      </trkpt>
      <trkpt lat="22.782406" lon="110.335809">
        <ele>123.525606</ele>
        <time>2026-08-16T08:10:40.000Z</time>
      </trkpt>
      <trkpt lat="22.782403" lon="110.335859">
        <ele>123.537736</ele>
        <time>2026-08-16T08:10:41.000Z</time>
      </trkpt>
      <trkpt lat="22.782400" lon="110.335908">
        <ele>123.549625</ele>
        <time>2026-08-16T08:10:42.000Z</time>
      </trkpt>
      <trkpt lat="22.782398" lon="110.335960">
        <ele>123.562225</ele>
        <time>2026-08-16T08:10:43.000Z</time>
      </trkpt>
      <trkpt lat="22.782396" lon="110.336012">
        <ele>123.574824</ele>
        <time>2026-08-16T08:10:44.000Z</time>
      </trkpt>
      <trkpt lat="22.782395" lon="110.336064">
        <ele>123.587416</ele>
        <time>2026-08-16T08:10:45.000Z</time>
      </trkpt>
      <trkpt lat="22.782394" lon="110.336116">
        <ele>123.600007</ele>
        <time>2026-08-16T08:10:46.000Z</time>
      </trkpt>
      <trkpt lat="22.782393" lon="110.336170">
        <ele>123.613083</ele>
        <time>2026-08-16T08:10:47.000Z</time>
      </trkpt>
      <trkpt lat="22.782391" lon="110.336224">
        <ele>123.626166</ele>
        <time>2026-08-16T08:10:48.000Z</time>
      </trkpt>
      <trkpt lat="22.782389" lon="110.336278">
        <ele>123.639249</ele>
        <time>2026-08-16T08:10:49.000Z</time>
      </trkpt>
      <trkpt lat="22.782386" lon="110.336330">
        <ele>123.651863</ele>
        <time>2026-08-16T08:10:50.000Z</time>
      </trkpt>
      <trkpt lat="22.782383" lon="110.336382">
        <ele>123.664476</ele>
        <time>2026-08-16T08:10:51.000Z</time>
      </trkpt>
      <trkpt lat="22.782381" lon="110.336434">
        <ele>123.677076</ele>
        <time>2026-08-16T08:10:52.000Z</time>
      </trkpt>
      <trkpt lat="22.782381" lon="110.336485">
        <ele>123.689422</ele>
        <time>2026-08-16T08:10:53.000Z</time>
      </trkpt>
      <trkpt lat="22.782379" lon="110.336536">
        <ele>123.701780</ele>
        <time>2026-08-16T08:10:54.000Z</time>
      </trkpt>
      <trkpt lat="22.782378" lon="110.336589">
        <ele>123.714614</ele>
        <time>2026-08-16T08:10:55.000Z</time>
      </trkpt>
      <trkpt lat="22.782377" lon="110.336642">
        <ele>123.727447</ele>
        <time>2026-08-16T08:10:56.000Z</time>
      </trkpt>
      <trkpt lat="22.782374" lon="110.336695">
        <ele>123.740302</ele>
        <time>2026-08-16T08:10:57.000Z</time>
      </trkpt>
      <trkpt lat="22.782372" lon="110.336747">
        <ele>123.752902</ele>
        <time>2026-08-16T08:10:58.000Z</time>
      </trkpt>
      <trkpt lat="22.782371" lon="110.336798">
        <ele>123.765251</ele>
        <time>2026-08-16T08:10:59.000Z</time>
      </trkpt>
      <trkpt lat="22.782369" lon="110.336849">
        <ele>123.777609</ele>
        <time>2026-08-16T08:11:00.000Z</time>
      </trkpt>
      <trkpt lat="22.782368" lon="110.336900">
        <ele>123.789958</ele>
        <time>2026-08-16T08:11:01.000Z</time>
      </trkpt>
      <trkpt lat="22.782366" lon="110.336950">
        <ele>123.802074</ele>
        <time>2026-08-16T08:11:02.000Z</time>
      </trkpt>
      <trkpt lat="22.782363" lon="110.337001">
        <ele>123.814446</ele>
        <time>2026-08-16T08:11:03.000Z</time>
      </trkpt>
      <trkpt lat="22.782361" lon="110.337051">
        <ele>123.826562</ele>
        <time>2026-08-16T08:11:04.000Z</time>
      </trkpt>
      <trkpt lat="22.782358" lon="110.337103">
        <ele>123.839175</ele>
        <time>2026-08-16T08:11:05.000Z</time>
      </trkpt>
      <trkpt lat="22.782355" lon="110.337155">
        <ele>123.851788</ele>
        <time>2026-08-16T08:11:06.000Z</time>
      </trkpt>
      <trkpt lat="22.782353" lon="110.337208">
        <ele>123.864630</ele>
        <time>2026-08-16T08:11:07.000Z</time>
      </trkpt>
      <trkpt lat="22.782352" lon="110.337261">
        <ele>123.877463</ele>
        <time>2026-08-16T08:11:08.000Z</time>
      </trkpt>
      <trkpt lat="22.782350" lon="110.337314">
        <ele>123.890305</ele>
        <time>2026-08-16T08:11:09.000Z</time>
      </trkpt>
      <trkpt lat="22.782349" lon="110.337366">
        <ele>123.902896</ele>
        <time>2026-08-16T08:11:10.000Z</time>
      </trkpt>
      <trkpt lat="22.782346" lon="110.337419">
        <ele>123.911341</ele>
        <time>2026-08-16T08:11:11.000Z</time>
      </trkpt>
      <trkpt lat="22.782344" lon="110.337473">
        <ele>123.904032</ele>
        <time>2026-08-16T08:11:12.000Z</time>
      </trkpt>
      <trkpt lat="22.782341" lon="110.337525">
        <ele>123.896985</ele>
        <time>2026-08-16T08:11:13.000Z</time>
      </trkpt>
      <trkpt lat="22.782338" lon="110.337578">
        <ele>123.889803</ele>
        <time>2026-08-16T08:11:14.000Z</time>
      </trkpt>
      <trkpt lat="22.782336" lon="110.337631">
        <ele>123.882629</ele>
        <time>2026-08-16T08:11:15.000Z</time>
      </trkpt>
      <trkpt lat="22.782335" lon="110.337683">
        <ele>123.875595</ele>
        <time>2026-08-16T08:11:16.000Z</time>
      </trkpt>
      <trkpt lat="22.782333" lon="110.337736">
        <ele>123.868421</ele>
        <time>2026-08-16T08:11:17.000Z</time>
      </trkpt>
      <trkpt lat="22.782332" lon="110.337789">
        <ele>123.861251</ele>
        <time>2026-08-16T08:11:18.000Z</time>
      </trkpt>
      <trkpt lat="22.782330" lon="110.337843">
        <ele>123.853942</ele>
        <time>2026-08-16T08:11:19.000Z</time>
      </trkpt>
      <trkpt lat="22.782327" lon="110.337897">
        <ele>123.846625</ele>
        <time>2026-08-16T08:11:20.000Z</time>
      </trkpt>
      <trkpt lat="22.782323" lon="110.337950">
        <ele>123.839433</ele>
        <time>2026-08-16T08:11:21.000Z</time>
      </trkpt>
      <trkpt lat="22.782320" lon="110.338000">
        <ele>123.832657</ele>
        <time>2026-08-16T08:11:22.000Z</time>
      </trkpt>
      <trkpt lat="22.782317" lon="110.338052">
        <ele>123.825610</ele>
        <time>2026-08-16T08:11:23.000Z</time>
      </trkpt>
      <trkpt lat="22.782313" lon="110.338104">
        <ele>123.818553</ele>
        <time>2026-08-16T08:11:24.000Z</time>
      </trkpt>
      <trkpt lat="22.782311" lon="110.338156">
        <ele>123.811514</ele>
        <time>2026-08-16T08:11:25.000Z</time>
      </trkpt>
      <trkpt lat="22.782309" lon="110.338208">
        <ele>123.804475</ele>
        <time>2026-08-16T08:11:26.000Z</time>
      </trkpt>
      <trkpt lat="22.782307" lon="110.338260">
        <ele>123.797436</ele>
        <time>2026-08-16T08:11:27.000Z</time>
      </trkpt>
      <trkpt lat="22.782306" lon="110.338312">
        <ele>123.790401</ele>
        <time>2026-08-16T08:11:28.000Z</time>
      </trkpt>
      <trkpt lat="22.782304" lon="110.338364">
        <ele>123.783362</ele>
        <time>2026-08-16T08:11:29.000Z</time>
      </trkpt>
      <trkpt lat="22.782298" lon="110.338412">
        <ele>123.776811</ele>
        <time>2026-08-16T08:11:30.000Z</time>
      </trkpt>
      <trkpt lat="22.782291" lon="110.338461">
        <ele>123.770105</ele>
        <time>2026-08-16T08:11:31.000Z</time>
      </trkpt>
      <trkpt lat="22.782288" lon="110.338512">
        <ele>123.763193</ele>
        <time>2026-08-16T08:11:32.000Z</time>
      </trkpt>
      <trkpt lat="22.782287" lon="110.338564">
        <ele>123.756159</ele>
        <time>2026-08-16T08:11:33.000Z</time>
      </trkpt>
      <trkpt lat="22.782286" lon="110.338617">
        <ele>123.748989</ele>
        <time>2026-08-16T08:11:34.000Z</time>
      </trkpt>
      <trkpt lat="22.782285" lon="110.338670">
        <ele>123.741820</ele>
        <time>2026-08-16T08:11:35.000Z</time>
      </trkpt>
      <trkpt lat="22.782283" lon="110.338724">
        <ele>123.734510</ele>
        <time>2026-08-16T08:11:36.000Z</time>
      </trkpt>
      <trkpt lat="22.782282" lon="110.338779">
        <ele>123.727070</ele>
        <time>2026-08-16T08:11:37.000Z</time>
      </trkpt>
      <trkpt lat="22.782280" lon="110.338833">
        <ele>123.719761</ele>
        <time>2026-08-16T08:11:38.000Z</time>
      </trkpt>
      <trkpt lat="22.782278" lon="110.338889">
        <ele>123.712182</ele>
        <time>2026-08-16T08:11:39.000Z</time>
      </trkpt>
      <trkpt lat="22.782277" lon="110.338947">
        <ele>123.704336</ele>
        <time>2026-08-16T08:11:40.000Z</time>
      </trkpt>
      <trkpt lat="22.782275" lon="110.339005">
        <ele>123.696486</ele>
        <time>2026-08-16T08:11:41.000Z</time>
      </trkpt>
      <trkpt lat="22.782268" lon="110.339061">
        <ele>123.688843</ele>
        <time>2026-08-16T08:11:42.000Z</time>
      </trkpt>
      <trkpt lat="22.782259" lon="110.339116">
        <ele>123.681288</ele>
        <time>2026-08-16T08:11:43.000Z</time>
      </trkpt>
      <trkpt lat="22.782255" lon="110.339172">
        <ele>123.673691</ele>
        <time>2026-08-16T08:11:44.000Z</time>
      </trkpt>
      <trkpt lat="22.782248" lon="110.339224">
        <ele>123.666584</ele>
        <time>2026-08-16T08:11:45.000Z</time>
      </trkpt>
      <trkpt lat="22.782244" lon="110.339277">
        <ele>123.659392</ele>
        <time>2026-08-16T08:11:46.000Z</time>
      </trkpt>
      <trkpt lat="22.782243" lon="110.339332">
        <ele>123.651952</ele>
        <time>2026-08-16T08:11:47.000Z</time>
      </trkpt>
      <trkpt lat="22.782242" lon="110.339389">
        <ele>123.668017</ele>
        <time>2026-08-16T08:11:48.000Z</time>
      </trkpt>
      <trkpt lat="22.782242" lon="110.339447">
        <ele>123.698753</ele>
        <time>2026-08-16T08:11:49.000Z</time>
      </trkpt>
      <trkpt lat="22.782242" lon="110.339504">
        <ele>123.728960</ele>
        <time>2026-08-16T08:11:50.000Z</time>
      </trkpt>
      <trkpt lat="22.782242" lon="110.339561">
        <ele>123.759167</ele>
        <time>2026-08-16T08:11:51.000Z</time>
      </trkpt>
      <trkpt lat="22.782241" lon="110.339620">
        <ele>123.790439</ele>
        <time>2026-08-16T08:11:52.000Z</time>
      </trkpt>
      <trkpt lat="22.782240" lon="110.339680">
        <ele>123.822241</ele>
        <time>2026-08-16T08:11:53.000Z</time>
      </trkpt>
      <trkpt lat="22.782237" lon="110.339742">
        <ele>123.855142</ele>
        <time>2026-08-16T08:11:54.000Z</time>
      </trkpt>
      <trkpt lat="22.782235" lon="110.339805">
        <ele>123.888549</ele>
        <time>2026-08-16T08:11:55.000Z</time>
      </trkpt>
      <trkpt lat="22.782232" lon="110.339868">
        <ele>123.921979</ele>
        <time>2026-08-16T08:11:56.000Z</time>
      </trkpt>
      <trkpt lat="22.782229" lon="110.339930">
        <ele>123.954881</ele>
        <time>2026-08-16T08:11:57.000Z</time>
      </trkpt>
      <trkpt lat="22.782226" lon="110.339990">
        <ele>123.986725</ele>
        <time>2026-08-16T08:11:58.000Z</time>
      </trkpt>
      <trkpt lat="22.782224" lon="110.340050">
        <ele>124.018542</ele>
        <time>2026-08-16T08:11:59.000Z</time>
      </trkpt>
      <trkpt lat="22.782222" lon="110.340110">
        <ele>124.050359</ele>
        <time>2026-08-16T08:12:00.000Z</time>
      </trkpt>
      <trkpt lat="22.782222" lon="110.340169">
        <ele>124.081626</ele>
        <time>2026-08-16T08:12:01.000Z</time>
      </trkpt>
      <trkpt lat="22.782222" lon="110.340227">
        <ele>124.112363</ele>
        <time>2026-08-16T08:12:02.000Z</time>
      </trkpt>
      <trkpt lat="22.782219" lon="110.340286">
        <ele>124.143677</ele>
        <time>2026-08-16T08:12:03.000Z</time>
      </trkpt>
      <trkpt lat="22.782216" lon="110.340345">
        <ele>124.174991</ele>
        <time>2026-08-16T08:12:04.000Z</time>
      </trkpt>
      <trkpt lat="22.782214" lon="110.340404">
        <ele>124.206279</ele>
        <time>2026-08-16T08:12:05.000Z</time>
      </trkpt>
      <trkpt lat="22.782211" lon="110.340463">
        <ele>124.237593</ele>
        <time>2026-08-16T08:12:06.000Z</time>
      </trkpt>
      <trkpt lat="22.782209" lon="110.340522">
        <ele>124.268881</ele>
        <time>2026-08-16T08:12:07.000Z</time>
      </trkpt>
      <trkpt lat="22.782208" lon="110.340579">
        <ele>124.299093</ele>
        <time>2026-08-16T08:12:08.000Z</time>
      </trkpt>
      <trkpt lat="22.782205" lon="110.340636">
        <ele>124.329349</ele>
        <time>2026-08-16T08:12:09.000Z</time>
      </trkpt>
      <trkpt lat="22.782202" lon="110.340693">
        <ele>124.359605</ele>
        <time>2026-08-16T08:12:10.000Z</time>
      </trkpt>
      <trkpt lat="22.782200" lon="110.340749">
        <ele>124.389304</ele>
        <time>2026-08-16T08:12:11.000Z</time>
      </trkpt>
      <trkpt lat="22.782197" lon="110.340805">
        <ele>124.419031</ele>
        <time>2026-08-16T08:12:12.000Z</time>
      </trkpt>
      <trkpt lat="22.782195" lon="110.340861">
        <ele>124.448730</ele>
        <time>2026-08-16T08:12:13.000Z</time>
      </trkpt>
      <trkpt lat="22.782189" lon="110.340917">
        <ele>124.478607</ele>
        <time>2026-08-16T08:12:14.000Z</time>
      </trkpt>
      <trkpt lat="22.782185" lon="110.340971">
        <ele>124.507316</ele>
        <time>2026-08-16T08:12:15.000Z</time>
      </trkpt>
      <trkpt lat="22.782181" lon="110.341025">
        <ele>124.536025</ele>
        <time>2026-08-16T08:12:16.000Z</time>
      </trkpt>
      <trkpt lat="22.782178" lon="110.341077">
        <ele>124.563636</ele>
        <time>2026-08-16T08:12:17.000Z</time>
      </trkpt>
      <trkpt lat="22.782177" lon="110.341128">
        <ele>124.590669</ele>
        <time>2026-08-16T08:12:18.000Z</time>
      </trkpt>
      <trkpt lat="22.782174" lon="110.341179">
        <ele>124.617751</ele>
        <time>2026-08-16T08:12:19.000Z</time>
      </trkpt>
      <trkpt lat="22.782171" lon="110.341229">
        <ele>124.644305</ele>
        <time>2026-08-16T08:12:20.000Z</time>
      </trkpt>
      <trkpt lat="22.782170" lon="110.341279">
        <ele>124.670808</ele>
        <time>2026-08-16T08:12:21.000Z</time>
      </trkpt>
      <trkpt lat="22.782169" lon="110.341330">
        <ele>124.732384</ele>
        <time>2026-08-16T08:12:22.000Z</time>
      </trkpt>
      <trkpt lat="22.782168" lon="110.341381">
        <ele>124.821962</ele>
        <time>2026-08-16T08:12:23.000Z</time>
      </trkpt>
      <trkpt lat="22.782168" lon="110.341428">
        <ele>124.904497</ele>
        <time>2026-08-16T08:12:24.000Z</time>
      </trkpt>
      <trkpt lat="22.782167" lon="110.341472">
        <ele>124.981786</ele>
        <time>2026-08-16T08:12:25.000Z</time>
      </trkpt>
      <trkpt lat="22.782163" lon="110.341518">
        <ele>125.062922</ele>
        <time>2026-08-16T08:12:26.000Z</time>
      </trkpt>
      <trkpt lat="22.782160" lon="110.341558">
        <ele>125.133396</ele>
        <time>2026-08-16T08:12:27.000Z</time>
      </trkpt>
      <trkpt lat="22.782159" lon="110.341598">
        <ele>125.203664</ele>
        <time>2026-08-16T08:12:28.000Z</time>
      </trkpt>
      <trkpt lat="22.782156" lon="110.341638">
        <ele>125.274137</ele>
        <time>2026-08-16T08:12:29.000Z</time>
      </trkpt>
      <trkpt lat="22.782156" lon="110.341674">
        <ele>125.337355</ele>
        <time>2026-08-16T08:12:30.000Z</time>
      </trkpt>
      <trkpt lat="22.782153" lon="110.341704">
        <ele>125.390345</ele>
        <time>2026-08-16T08:12:31.000Z</time>
      </trkpt>
      <trkpt lat="22.782147" lon="110.341734">
        <ele>125.444252</ele>
        <time>2026-08-16T08:12:32.000Z</time>
      </trkpt>
      <trkpt lat="22.782147" lon="110.341766">
        <ele>125.500445</ele>
        <time>2026-08-16T08:12:33.000Z</time>
      </trkpt>
      <trkpt lat="22.782149" lon="110.341796">
        <ele>125.553264</ele>
        <time>2026-08-16T08:12:34.000Z</time>
      </trkpt>
      <trkpt lat="22.782152" lon="110.341826">
        <ele>125.606254</ele>
        <time>2026-08-16T08:12:35.000Z</time>
      </trkpt>
      <trkpt lat="22.782152" lon="110.341858">
        <ele>125.662448</ele>
        <time>2026-08-16T08:12:36.000Z</time>
      </trkpt>
      <trkpt lat="22.782152" lon="110.341891">
        <ele>125.720397</ele>
        <time>2026-08-16T08:12:37.000Z</time>
      </trkpt>
      <trkpt lat="22.782151" lon="110.341925">
        <ele>125.780133</ele>
        <time>2026-08-16T08:12:38.000Z</time>
      </trkpt>
      <trkpt lat="22.782155" lon="110.341960">
        <ele>125.842065</ele>
        <time>2026-08-16T08:12:39.000Z</time>
      </trkpt>
      <trkpt lat="22.782159" lon="110.341994">
        <ele>125.902254</ele>
        <time>2026-08-16T08:12:40.000Z</time>
      </trkpt>
      <trkpt lat="22.782164" lon="110.342031">
        <ele>125.967922</ele>
        <time>2026-08-16T08:12:41.000Z</time>
      </trkpt>
      <trkpt lat="22.782169" lon="110.342069">
        <ele>126.035328</ele>
        <time>2026-08-16T08:12:42.000Z</time>
      </trkpt>
      <trkpt lat="22.782171" lon="110.342109">
        <ele>126.105673</ele>
        <time>2026-08-16T08:12:43.000Z</time>
      </trkpt>
      <trkpt lat="22.782173" lon="110.342148">
        <ele>126.174264</ele>
        <time>2026-08-16T08:12:44.000Z</time>
      </trkpt>
      <trkpt lat="22.782174" lon="110.342186">
        <ele>126.241021</ele>
        <time>2026-08-16T08:12:45.000Z</time>
      </trkpt>
      <trkpt lat="22.782178" lon="110.342225">
        <ele>126.309929</ele>
        <time>2026-08-16T08:12:46.000Z</time>
      </trkpt>
      <trkpt lat="22.782181" lon="110.342263">
        <ele>126.376903</ele>
        <time>2026-08-16T08:12:47.000Z</time>
      </trkpt>
      <trkpt lat="22.782179" lon="110.342303">
        <ele>126.447248</ele>
        <time>2026-08-16T08:12:48.000Z</time>
      </trkpt>
      <trkpt lat="22.782178" lon="110.342345">
        <ele>126.521026</ele>
        <time>2026-08-16T08:12:49.000Z</time>
      </trkpt>
      <trkpt lat="22.782178" lon="110.342386">
        <ele>126.593024</ele>
        <time>2026-08-16T08:12:50.000Z</time>
      </trkpt>
      <trkpt lat="22.782178" lon="110.342428">
        <ele>126.666778</ele>
        <time>2026-08-16T08:12:51.000Z</time>
      </trkpt>
      <trkpt lat="22.782177" lon="110.342469">
        <ele>126.738801</ele>
        <time>2026-08-16T08:12:52.000Z</time>
      </trkpt>
      <trkpt lat="22.782177" lon="110.342509">
        <ele>126.809043</ele>
        <time>2026-08-16T08:12:53.000Z</time>
      </trkpt>
      <trkpt lat="22.782179" lon="110.342550">
        <ele>126.881141</ele>
        <time>2026-08-16T08:12:54.000Z</time>
      </trkpt>
      <trkpt lat="22.782183" lon="110.342590">
        <ele>126.951795</ele>
        <time>2026-08-16T08:12:55.000Z</time>
      </trkpt>
      <trkpt lat="22.782185" lon="110.342629">
        <ele>127.020386</ele>
        <time>2026-08-16T08:12:56.000Z</time>
      </trkpt>
      <trkpt lat="22.782187" lon="110.342670">
        <ele>127.092485</ele>
        <time>2026-08-16T08:12:57.000Z</time>
      </trkpt>
      <trkpt lat="22.782193" lon="110.342711">
        <ele>127.165384</ele>
        <time>2026-08-16T08:12:58.000Z</time>
      </trkpt>
      <trkpt lat="22.782197" lon="110.342751">
        <ele>127.236037</ele>
        <time>2026-08-16T08:12:59.000Z</time>
      </trkpt>
      <trkpt lat="22.782200" lon="110.342792">
        <ele>127.308262</ele>
        <time>2026-08-16T08:13:00.000Z</time>
      </trkpt>
      <trkpt lat="22.782202" lon="110.342833">
        <ele>127.380360</ele>
        <time>2026-08-16T08:13:01.000Z</time>
      </trkpt>
      <trkpt lat="22.782202" lon="110.342874">
        <ele>127.452358</ele>
        <time>2026-08-16T08:13:02.000Z</time>
      </trkpt>
      <trkpt lat="22.782203" lon="110.342916">
        <ele>127.526136</ele>
        <time>2026-08-16T08:13:03.000Z</time>
      </trkpt>
      <trkpt lat="22.782204" lon="110.342958">
        <ele>127.599915</ele>
        <time>2026-08-16T08:13:04.000Z</time>
      </trkpt>
      <trkpt lat="22.782206" lon="110.343000">
        <ele>127.673767</ele>
        <time>2026-08-16T08:13:05.000Z</time>
      </trkpt>
      <trkpt lat="22.782210" lon="110.343044">
        <ele>127.751407</ele>
        <time>2026-08-16T08:13:06.000Z</time>
      </trkpt>
      <trkpt lat="22.782213" lon="110.343090">
        <ele>127.832387</ele>
        <time>2026-08-16T08:13:07.000Z</time>
      </trkpt>
      <trkpt lat="22.782216" lon="110.343135">
        <ele>127.911615</ele>
        <time>2026-08-16T08:13:08.000Z</time>
      </trkpt>
      <trkpt lat="22.782219" lon="110.343178">
        <ele>127.987341</ele>
        <time>2026-08-16T08:13:09.000Z</time>
      </trkpt>
      <trkpt lat="22.782224" lon="110.343221">
        <ele>128.063449</ele>
        <time>2026-08-16T08:13:10.000Z</time>
      </trkpt>
      <trkpt lat="22.782227" lon="110.343265">
        <ele>128.091013</ele>
        <time>2026-08-16T08:13:11.000Z</time>
      </trkpt>
      <trkpt lat="22.782230" lon="110.343311">
        <ele>128.046678</ele>
        <time>2026-08-16T08:13:12.000Z</time>
      </trkpt>
      <trkpt lat="22.782232" lon="110.343358">
        <ele>128.001445</ele>
        <time>2026-08-16T08:13:13.000Z</time>
      </trkpt>
      <trkpt lat="22.782236" lon="110.343407">
        <ele>127.954153</ele>
        <time>2026-08-16T08:13:14.000Z</time>
      </trkpt>
      <trkpt lat="22.782242" lon="110.343459">
        <ele>127.903771</ele>
        <time>2026-08-16T08:13:15.000Z</time>
      </trkpt>
      <trkpt lat="22.782240" lon="110.343510">
        <ele>127.854696</ele>
        <time>2026-08-16T08:13:16.000Z</time>
      </trkpt>
      <trkpt lat="22.782236" lon="110.343558">
        <ele>127.808362</ele>
        <time>2026-08-16T08:13:17.000Z</time>
      </trkpt>
      <trkpt lat="22.782239" lon="110.343606">
        <ele>127.762109</ele>
        <time>2026-08-16T08:13:18.000Z</time>
      </trkpt>
      <trkpt lat="22.782244" lon="110.343656">
        <ele>127.713758</ele>
        <time>2026-08-16T08:13:19.000Z</time>
      </trkpt>
      <trkpt lat="22.782247" lon="110.343706">
        <ele>127.665587</ele>
        <time>2026-08-16T08:13:20.000Z</time>
      </trkpt>
      <trkpt lat="22.782249" lon="110.343756">
        <ele>127.617473</ele>
        <time>2026-08-16T08:13:21.000Z</time>
      </trkpt>
      <trkpt lat="22.782249" lon="110.343807">
        <ele>127.568442</ele>
        <time>2026-08-16T08:13:22.000Z</time>
      </trkpt>
      <trkpt lat="22.782248" lon="110.343857">
        <ele>127.520362</ele>
        <time>2026-08-16T08:13:23.000Z</time>
      </trkpt>
      <trkpt lat="22.782249" lon="110.343912">
        <ele>127.467476</ele>
        <time>2026-08-16T08:13:24.000Z</time>
      </trkpt>
      <trkpt lat="22.782257" lon="110.343967">
        <ele>127.413945</ele>
        <time>2026-08-16T08:13:25.000Z</time>
      </trkpt>
      <trkpt lat="22.782267" lon="110.344024">
        <ele>127.358163</ele>
        <time>2026-08-16T08:13:26.000Z</time>
      </trkpt>
      <trkpt lat="22.782276" lon="110.344084">
        <ele>127.299722</ele>
        <time>2026-08-16T08:13:27.000Z</time>
      </trkpt>
      <trkpt lat="22.782279" lon="110.344144">
        <ele>127.241954</ele>
        <time>2026-08-16T08:13:28.000Z</time>
      </trkpt>
      <trkpt lat="22.782284" lon="110.344201">
        <ele>127.186908</ele>
        <time>2026-08-16T08:13:29.000Z</time>
      </trkpt>
      <trkpt lat="22.782290" lon="110.344263">
        <ele>127.126975</ele>
        <time>2026-08-16T08:13:30.000Z</time>
      </trkpt>
      <trkpt lat="22.782295" lon="110.344323">
        <ele>127.069056</ele>
        <time>2026-08-16T08:13:31.000Z</time>
      </trkpt>
      <trkpt lat="22.782303" lon="110.344384">
        <ele>127.009822</ele>
        <time>2026-08-16T08:13:32.000Z</time>
      </trkpt>
      <trkpt lat="22.782312" lon="110.344442">
        <ele>126.953277</ele>
        <time>2026-08-16T08:13:33.000Z</time>
      </trkpt>
      <trkpt lat="22.782323" lon="110.344502">
        <ele>126.894465</ele>
        <time>2026-08-16T08:13:34.000Z</time>
      </trkpt>
      <trkpt lat="22.782330" lon="110.344564">
        <ele>126.834414</ele>
        <time>2026-08-16T08:13:35.000Z</time>
      </trkpt>
      <trkpt lat="22.782336" lon="110.344625">
        <ele>126.775437</ele>
        <time>2026-08-16T08:13:36.000Z</time>
      </trkpt>
      <trkpt lat="22.782339" lon="110.344686">
        <ele>126.716709</ele>
        <time>2026-08-16T08:13:37.000Z</time>
      </trkpt>
      <trkpt lat="22.782345" lon="110.344749">
        <ele>126.655820</ele>
        <time>2026-08-16T08:13:38.000Z</time>
      </trkpt>
      <trkpt lat="22.782346" lon="110.344816">
        <ele>126.591399</ele>
        <time>2026-08-16T08:13:39.000Z</time>
      </trkpt>
      <trkpt lat="22.782351" lon="110.344883">
        <ele>126.526775</ele>
        <time>2026-08-16T08:13:40.000Z</time>
      </trkpt>
      <trkpt lat="22.782362" lon="110.344953">
        <ele>126.458508</ele>
        <time>2026-08-16T08:13:41.000Z</time>
      </trkpt>
      <trkpt lat="22.782368" lon="110.345020">
        <ele>126.393792</ele>
        <time>2026-08-16T08:13:42.000Z</time>
      </trkpt>
      <trkpt lat="22.782377" lon="110.345090">
        <ele>126.325844</ele>
        <time>2026-08-16T08:13:43.000Z</time>
      </trkpt>
      <trkpt lat="22.782384" lon="110.345158">
        <ele>126.260064</ele>
        <time>2026-08-16T08:13:44.000Z</time>
      </trkpt>
      <trkpt lat="22.782391" lon="110.345224">
        <ele>126.217889</ele>
        <time>2026-08-16T08:13:45.000Z</time>
      </trkpt>
      <trkpt lat="22.782399" lon="110.345289">
        <ele>126.191840</ele>
        <time>2026-08-16T08:13:46.000Z</time>
      </trkpt>
      <trkpt lat="22.782412" lon="110.345352">
        <ele>126.166197</ele>
        <time>2026-08-16T08:13:47.000Z</time>
      </trkpt>
      <trkpt lat="22.782417" lon="110.345420">
        <ele>126.139100</ele>
        <time>2026-08-16T08:13:48.000Z</time>
      </trkpt>
      <trkpt lat="22.782423" lon="110.345483">
        <ele>126.113942</ele>
        <time>2026-08-16T08:13:49.000Z</time>
      </trkpt>
      <trkpt lat="22.782434" lon="110.345549">
        <ele>126.087301</ele>
        <time>2026-08-16T08:13:50.000Z</time>
      </trkpt>
      <trkpt lat="22.782445" lon="110.345614">
        <ele>126.061050</ele>
        <time>2026-08-16T08:13:51.000Z</time>
      </trkpt>
      <trkpt lat="22.782461" lon="110.345678">
        <ele>126.034710</ele>
        <time>2026-08-16T08:13:52.000Z</time>
      </trkpt>
      <trkpt lat="22.782477" lon="110.345739">
        <ele>126.009518</ele>
        <time>2026-08-16T08:13:53.000Z</time>
      </trkpt>
      <trkpt lat="22.782495" lon="110.345798">
        <ele>125.984833</ele>
        <time>2026-08-16T08:13:54.000Z</time>
      </trkpt>
      <trkpt lat="22.782514" lon="110.345855">
        <ele>125.960757</ele>
        <time>2026-08-16T08:13:55.000Z</time>
      </trkpt>
      <trkpt lat="22.782536" lon="110.345911">
        <ele>125.936578</ele>
        <time>2026-08-16T08:13:56.000Z</time>
      </trkpt>
      <trkpt lat="22.782560" lon="110.345964">
        <ele>125.913123</ele>
        <time>2026-08-16T08:13:57.000Z</time>
      </trkpt>
      <trkpt lat="22.782587" lon="110.346021">
        <ele>125.887668</ele>
        <time>2026-08-16T08:13:58.000Z</time>
      </trkpt>
      <trkpt lat="22.782616" lon="110.346072">
        <ele>125.863867</ele>
        <time>2026-08-16T08:13:59.000Z</time>
      </trkpt>
      <trkpt lat="22.782646" lon="110.346123">
        <ele>125.839837</ele>
        <time>2026-08-16T08:14:00.000Z</time>
      </trkpt>
      <trkpt lat="22.782673" lon="110.346177">
        <ele>125.815436</ele>
        <time>2026-08-16T08:14:01.000Z</time>
      </trkpt>
      <trkpt lat="22.782697" lon="110.346231">
        <ele>125.791624</ele>
        <time>2026-08-16T08:14:02.000Z</time>
      </trkpt>
      <trkpt lat="22.782721" lon="110.346284">
        <ele>125.768169</ele>
        <time>2026-08-16T08:14:03.000Z</time>
      </trkpt>
      <trkpt lat="22.782748" lon="110.346336">
        <ele>125.744464</ele>
        <time>2026-08-16T08:14:04.000Z</time>
      </trkpt>
      <trkpt lat="22.782776" lon="110.346386">
        <ele>125.721226</ele>
        <time>2026-08-16T08:14:05.000Z</time>
      </trkpt>
      <trkpt lat="22.782802" lon="110.346434">
        <ele>125.699113</ele>
        <time>2026-08-16T08:14:06.000Z</time>
      </trkpt>
      <trkpt lat="22.782828" lon="110.346481">
        <ele>125.677341</ele>
        <time>2026-08-16T08:14:07.000Z</time>
      </trkpt>
      <trkpt lat="22.782852" lon="110.346523">
        <ele>125.657714</ele>
        <time>2026-08-16T08:14:08.000Z</time>
      </trkpt>
      <trkpt lat="22.782878" lon="110.346564">
        <ele>125.637947</ele>
        <time>2026-08-16T08:14:09.000Z</time>
      </trkpt>
      <trkpt lat="22.782901" lon="110.346608">
        <ele>125.617856</ele>
        <time>2026-08-16T08:14:10.000Z</time>
      </trkpt>
      <trkpt lat="22.782922" lon="110.346654">
        <ele>125.597467</ele>
        <time>2026-08-16T08:14:11.000Z</time>
      </trkpt>
      <trkpt lat="22.782941" lon="110.346700">
        <ele>125.577445</ele>
        <time>2026-08-16T08:14:12.000Z</time>
      </trkpt>
      <trkpt lat="22.782960" lon="110.346747">
        <ele>125.557060</ele>
        <time>2026-08-16T08:14:13.000Z</time>
      </trkpt>
      <trkpt lat="22.782984" lon="110.346794">
        <ele>125.535719</ele>
        <time>2026-08-16T08:14:14.000Z</time>
      </trkpt>
      <trkpt lat="22.783010" lon="110.346842">
        <ele>125.513605</ele>
        <time>2026-08-16T08:14:15.000Z</time>
      </trkpt>
      <trkpt lat="22.783037" lon="110.346890">
        <ele>125.491271</ele>
        <time>2026-08-16T08:14:16.000Z</time>
      </trkpt>
      <trkpt lat="22.783067" lon="110.346938">
        <ele>125.468236</ele>
        <time>2026-08-16T08:14:17.000Z</time>
      </trkpt>
      <trkpt lat="22.783096" lon="110.346986">
        <ele>125.446707</ele>
        <time>2026-08-16T08:14:18.000Z</time>
      </trkpt>
      <trkpt lat="22.783125" lon="110.347034">
        <ele>125.426165</ele>
        <time>2026-08-16T08:14:19.000Z</time>
      </trkpt>
      <trkpt lat="22.783153" lon="110.347084">
        <ele>125.405225</ele>
        <time>2026-08-16T08:14:20.000Z</time>
      </trkpt>
      <trkpt lat="22.783180" lon="110.347129">
        <ele>125.386007</ele>
        <time>2026-08-16T08:14:21.000Z</time>
      </trkpt>
      <trkpt lat="22.783206" lon="110.347176">
        <ele>125.366387</ele>
        <time>2026-08-16T08:14:22.000Z</time>
      </trkpt>
      <trkpt lat="22.783233" lon="110.347226">
        <ele>125.345646</ele>
        <time>2026-08-16T08:14:23.000Z</time>
      </trkpt>
      <trkpt lat="22.783261" lon="110.347274">
        <ele>125.325314</ele>
        <time>2026-08-16T08:14:24.000Z</time>
      </trkpt>
      <trkpt lat="22.783288" lon="110.347323">
        <ele>125.304881</ele>
        <time>2026-08-16T08:14:25.000Z</time>
      </trkpt>
      <trkpt lat="22.783318" lon="110.347369">
        <ele>125.284712</ele>
        <time>2026-08-16T08:14:26.000Z</time>
      </trkpt>
      <trkpt lat="22.783347" lon="110.347414">
        <ele>125.265059</ele>
        <time>2026-08-16T08:14:27.000Z</time>
      </trkpt>
      <trkpt lat="22.783374" lon="110.347463">
        <ele>125.244626</ele>
        <time>2026-08-16T08:14:28.000Z</time>
      </trkpt>
      <trkpt lat="22.783403" lon="110.347515">
        <ele>125.222872</ele>
        <time>2026-08-16T08:14:29.000Z</time>
      </trkpt>
      <trkpt lat="22.783430" lon="110.347565">
        <ele>125.202131</ele>
        <time>2026-08-16T08:14:30.000Z</time>
      </trkpt>
      <trkpt lat="22.783458" lon="110.347614">
        <ele>125.181496</ele>
        <time>2026-08-16T08:14:31.000Z</time>
      </trkpt>
      <trkpt lat="22.783484" lon="110.347666">
        <ele>125.160321</ele>
        <time>2026-08-16T08:14:32.000Z</time>
      </trkpt>
      <trkpt lat="22.783511" lon="110.347718">
        <ele>125.138959</ele>
        <time>2026-08-16T08:14:33.000Z</time>
      </trkpt>
      <trkpt lat="22.783540" lon="110.347768">
        <ele>125.117815</ele>
        <time>2026-08-16T08:14:34.000Z</time>
      </trkpt>
      <trkpt lat="22.783569" lon="110.347817">
        <ele>125.096973</ele>
        <time>2026-08-16T08:14:35.000Z</time>
      </trkpt>
      <trkpt lat="22.783598" lon="110.347869">
        <ele>125.075219</ele>
        <time>2026-08-16T08:14:36.000Z</time>
      </trkpt>
      <trkpt lat="22.783626" lon="110.347922">
        <ele>125.053354</ele>
        <time>2026-08-16T08:14:37.000Z</time>
      </trkpt>
      <trkpt lat="22.783658" lon="110.347974">
        <ele>125.030975</ele>
        <time>2026-08-16T08:14:38.000Z</time>
      </trkpt>
      <trkpt lat="22.783686" lon="110.348027">
        <ele>125.009110</ele>
        <time>2026-08-16T08:14:39.000Z</time>
      </trkpt>
      <trkpt lat="22.783713" lon="110.348080">
        <ele>124.987435</ele>
        <time>2026-08-16T08:14:40.000Z</time>
      </trkpt>
      <trkpt lat="22.783736" lon="110.348134">
        <ele>124.966143</ele>
        <time>2026-08-16T08:14:41.000Z</time>
      </trkpt>
      <trkpt lat="22.783764" lon="110.348184">
        <ele>124.945203</ele>
        <time>2026-08-16T08:14:42.000Z</time>
      </trkpt>
      <trkpt lat="22.783791" lon="110.348234">
        <ele>124.924462</ele>
        <time>2026-08-16T08:14:43.000Z</time>
      </trkpt>
      <trkpt lat="22.783819" lon="110.348278">
        <ele>124.905325</ele>
        <time>2026-08-16T08:14:44.000Z</time>
      </trkpt>
      <trkpt lat="22.783848" lon="110.348327">
        <ele>124.884482</ele>
        <time>2026-08-16T08:14:45.000Z</time>
      </trkpt>
      <trkpt lat="22.783878" lon="110.348376">
        <ele>124.863428</ele>
        <time>2026-08-16T08:14:46.000Z</time>
      </trkpt>
      <trkpt lat="22.783909" lon="110.348427">
        <ele>124.841562</ele>
        <time>2026-08-16T08:14:47.000Z</time>
      </trkpt>
      <trkpt lat="22.783936" lon="110.348485">
        <ele>124.818305</ele>
        <time>2026-08-16T08:14:48.000Z</time>
      </trkpt>
      <trkpt lat="22.783963" lon="110.348538">
        <ele>124.796630</ele>
        <time>2026-08-16T08:14:49.000Z</time>
      </trkpt>
      <trkpt lat="22.783991" lon="110.348590">
        <ele>124.775075</ele>
        <time>2026-08-16T08:14:50.000Z</time>
      </trkpt>
      <trkpt lat="22.784017" lon="110.348643">
        <ele>124.761803</ele>
        <time>2026-08-16T08:14:51.000Z</time>
      </trkpt>
      <trkpt lat="22.784041" lon="110.348699">
        <ele>124.768269</ele>
        <time>2026-08-16T08:14:52.000Z</time>
      </trkpt>
      <trkpt lat="22.784068" lon="110.348756">
        <ele>124.774979</ele>
        <time>2026-08-16T08:14:53.000Z</time>
      </trkpt>
      <trkpt lat="22.784093" lon="110.348811">
        <ele>124.781400</ele>
        <time>2026-08-16T08:14:54.000Z</time>
      </trkpt>
      <trkpt lat="22.784118" lon="110.348866">
        <ele>124.787821</ele>
        <time>2026-08-16T08:14:55.000Z</time>
      </trkpt>
      <trkpt lat="22.784138" lon="110.348920">
        <ele>124.793914</ele>
        <time>2026-08-16T08:14:56.000Z</time>
      </trkpt>
      <trkpt lat="22.784151" lon="110.348973">
        <ele>124.799656</ele>
        <time>2026-08-16T08:14:57.000Z</time>
      </trkpt>
      <trkpt lat="22.784170" lon="110.349028">
        <ele>124.805806</ele>
        <time>2026-08-16T08:14:58.000Z</time>
      </trkpt>
      <trkpt lat="22.784190" lon="110.349086">
        <ele>124.812290</ele>
        <time>2026-08-16T08:14:59.000Z</time>
      </trkpt>
      <trkpt lat="22.784211" lon="110.349141">
        <ele>124.818523</ele>
        <time>2026-08-16T08:15:00.000Z</time>
      </trkpt>
      <trkpt lat="22.784235" lon="110.349192">
        <ele>124.824518</ele>
        <time>2026-08-16T08:15:01.000Z</time>
      </trkpt>
      <trkpt lat="22.784265" lon="110.349242">
        <ele>124.830765</ele>
        <time>2026-08-16T08:15:02.000Z</time>
      </trkpt>
      <trkpt lat="22.784291" lon="110.349291">
        <ele>124.836684</ele>
        <time>2026-08-16T08:15:03.000Z</time>
      </trkpt>
      <trkpt lat="22.784316" lon="110.349345">
        <ele>124.843011</ele>
        <time>2026-08-16T08:15:04.000Z</time>
      </trkpt>
      <trkpt lat="22.784344" lon="110.349393">
        <ele>124.848959</ele>
        <time>2026-08-16T08:15:05.000Z</time>
      </trkpt>
      <trkpt lat="22.784369" lon="110.349443">
        <ele>124.854914</ele>
        <time>2026-08-16T08:15:06.000Z</time>
      </trkpt>
      <trkpt lat="22.784398" lon="110.349494">
        <ele>124.861188</ele>
        <time>2026-08-16T08:15:07.000Z</time>
      </trkpt>
      <trkpt lat="22.784422" lon="110.349546">
        <ele>124.867277</ele>
        <time>2026-08-16T08:15:08.000Z</time>
      </trkpt>
      <trkpt lat="22.784445" lon="110.349597">
        <ele>124.873222</ele>
        <time>2026-08-16T08:15:09.000Z</time>
      </trkpt>
      <trkpt lat="22.784472" lon="110.349649">
        <ele>124.879470</ele>
        <time>2026-08-16T08:15:10.000Z</time>
      </trkpt>
      <trkpt lat="22.784505" lon="110.349701">
        <ele>124.886080</ele>
        <time>2026-08-16T08:15:11.000Z</time>
      </trkpt>
      <trkpt lat="22.784534" lon="110.349751">
        <ele>124.892265</ele>
        <time>2026-08-16T08:15:12.000Z</time>
      </trkpt>
      <trkpt lat="22.784558" lon="110.349803">
        <ele>124.898354</ele>
        <time>2026-08-16T08:15:13.000Z</time>
      </trkpt>
      <trkpt lat="22.784583" lon="110.349852">
        <ele>124.904218</ele>
        <time>2026-08-16T08:15:14.000Z</time>
      </trkpt>
      <trkpt lat="22.784612" lon="110.349900">
        <ele>124.910227</ele>
        <time>2026-08-16T08:15:15.000Z</time>
      </trkpt>
      <trkpt lat="22.784641" lon="110.349948">
        <ele>124.916236</ele>
        <time>2026-08-16T08:15:16.000Z</time>
      </trkpt>
      <trkpt lat="22.784670" lon="110.349995">
        <ele>124.922157</ele>
        <time>2026-08-16T08:15:17.000Z</time>
      </trkpt>
      <trkpt lat="22.784694" lon="110.350044">
        <ele>124.927967</ele>
        <time>2026-08-16T08:15:18.000Z</time>
      </trkpt>
      <trkpt lat="22.784722" lon="110.350092">
        <ele>124.933914</ele>
        <time>2026-08-16T08:15:19.000Z</time>
      </trkpt>
      <trkpt lat="22.784749" lon="110.350142">
        <ele>124.939982</ele>
        <time>2026-08-16T08:15:20.000Z</time>
      </trkpt>
      <trkpt lat="22.784774" lon="110.350190">
        <ele>124.945754</ele>
        <time>2026-08-16T08:15:21.000Z</time>
      </trkpt>
      <trkpt lat="22.784800" lon="110.350237">
        <ele>124.951493</ele>
        <time>2026-08-16T08:15:22.000Z</time>
      </trkpt>
      <trkpt lat="22.784828" lon="110.350285">
        <ele>124.957440</ele>
        <time>2026-08-16T08:15:23.000Z</time>
      </trkpt>
      <trkpt lat="22.784851" lon="110.350330">
        <ele>124.962828</ele>
        <time>2026-08-16T08:15:24.000Z</time>
      </trkpt>
      <trkpt lat="22.784874" lon="110.350377">
        <ele>124.969575</ele>
        <time>2026-08-16T08:15:25.000Z</time>
      </trkpt>
      <trkpt lat="22.784898" lon="110.350424">
        <ele>124.976781</ele>
        <time>2026-08-16T08:15:26.000Z</time>
      </trkpt>
      <trkpt lat="22.784925" lon="110.350472">
        <ele>124.984322</ele>
        <time>2026-08-16T08:15:27.000Z</time>
      </trkpt>
      <trkpt lat="22.784949" lon="110.350520">
        <ele>124.991646</ele>
        <time>2026-08-16T08:15:28.000Z</time>
      </trkpt>
      <trkpt lat="22.784974" lon="110.350568">
        <ele>124.999040</ele>
        <time>2026-08-16T08:15:29.000Z</time>
      </trkpt>
      <trkpt lat="22.785005" lon="110.350613">
        <ele>125.006574</ele>
        <time>2026-08-16T08:15:30.000Z</time>
      </trkpt>
      <trkpt lat="22.785029" lon="110.350659">
        <ele>125.013662</ele>
        <time>2026-08-16T08:15:31.000Z</time>
      </trkpt>
      <trkpt lat="22.785055" lon="110.350708">
        <ele>125.021245</ele>
        <time>2026-08-16T08:15:32.000Z</time>
      </trkpt>
      <trkpt lat="22.785058" lon="110.350753">
        <ele>125.027296</ele>
        <time>2026-08-16T08:15:33.000Z</time>
      </trkpt>
      <trkpt lat="22.785084" lon="110.350795">
        <ele>125.034081</ele>
        <time>2026-08-16T08:15:34.000Z</time>
      </trkpt>
      <trkpt lat="22.785111" lon="110.350842">
        <ele>125.041508</ele>
        <time>2026-08-16T08:15:35.000Z</time>
      </trkpt>
      <trkpt lat="22.785135" lon="110.350887">
        <ele>125.048480</ele>
        <time>2026-08-16T08:15:36.000Z</time>
      </trkpt>
      <trkpt lat="22.785163" lon="110.350934">
        <ele>125.055985</ele>
        <time>2026-08-16T08:15:37.000Z</time>
      </trkpt>
      <trkpt lat="22.785182" lon="110.350980">
        <ele>125.062745</ele>
        <time>2026-08-16T08:15:38.000Z</time>
      </trkpt>
      <trkpt lat="22.785203" lon="110.351026">
        <ele>125.069630</ele>
        <time>2026-08-16T08:15:39.000Z</time>
      </trkpt>
      <trkpt lat="22.785231" lon="110.351072">
        <ele>125.077022</ele>
        <time>2026-08-16T08:15:40.000Z</time>
      </trkpt>
      <trkpt lat="22.785260" lon="110.351119">
        <ele>125.084607</ele>
        <time>2026-08-16T08:15:41.000Z</time>
      </trkpt>
      <trkpt lat="22.785287" lon="110.351167">
        <ele>125.092148</ele>
        <time>2026-08-16T08:15:42.000Z</time>
      </trkpt>
      <trkpt lat="22.785312" lon="110.351215">
        <ele>125.099542</ele>
        <time>2026-08-16T08:15:43.000Z</time>
      </trkpt>
      <trkpt lat="22.785342" lon="110.351261">
        <ele>125.107099</ele>
        <time>2026-08-16T08:15:44.000Z</time>
      </trkpt>
      <trkpt lat="22.785369" lon="110.351305">
        <ele>125.114188</ele>
        <time>2026-08-16T08:15:45.000Z</time>
      </trkpt>
      <trkpt lat="22.785392" lon="110.351352">
        <ele>125.121324</ele>
        <time>2026-08-16T08:15:46.000Z</time>
      </trkpt>
      <trkpt lat="22.785415" lon="110.351398">
        <ele>125.128343</ele>
        <time>2026-08-16T08:15:47.000Z</time>
      </trkpt>
      <trkpt lat="22.785433" lon="110.351444">
        <ele>125.135045</ele>
        <time>2026-08-16T08:15:48.000Z</time>
      </trkpt>
      <trkpt lat="22.785456" lon="110.351487">
        <ele>125.141712</ele>
        <time>2026-08-16T08:15:49.000Z</time>
      </trkpt>
      <trkpt lat="22.785481" lon="110.351534">
        <ele>125.148989</ele>
        <time>2026-08-16T08:15:50.000Z</time>
      </trkpt>
      <trkpt lat="22.785504" lon="110.351581">
        <ele>125.156126</ele>
        <time>2026-08-16T08:15:51.000Z</time>
      </trkpt>
      <trkpt lat="22.785534" lon="110.351627">
        <ele>125.163683</ele>
        <time>2026-08-16T08:15:52.000Z</time>
      </trkpt>
      <trkpt lat="22.785557" lon="110.351675">
        <ele>125.170938</ele>
        <time>2026-08-16T08:15:53.000Z</time>
      </trkpt>
      <trkpt lat="22.785579" lon="110.351721">
        <ele>125.177888</ele>
        <time>2026-08-16T08:15:54.000Z</time>
      </trkpt>
      <trkpt lat="22.785595" lon="110.351774">
        <ele>125.185367</ele>
        <time>2026-08-16T08:15:55.000Z</time>
      </trkpt>
      <trkpt lat="22.785615" lon="110.351823">
        <ele>125.192554</ele>
        <time>2026-08-16T08:15:56.000Z</time>
      </trkpt>
      <trkpt lat="22.785644" lon="110.351868">
        <ele>125.199918</ele>
        <time>2026-08-16T08:15:57.000Z</time>
      </trkpt>
      <trkpt lat="22.785671" lon="110.351911">
        <ele>125.206895</ele>
        <time>2026-08-16T08:15:58.000Z</time>
      </trkpt>
      <trkpt lat="22.785689" lon="110.351959">
        <ele>125.213845</ele>
        <time>2026-08-16T08:15:59.000Z</time>
      </trkpt>
      <trkpt lat="22.785711" lon="110.352006">
        <ele>125.220914</ele>
        <time>2026-08-16T08:16:00.000Z</time>
      </trkpt>
      <trkpt lat="22.785741" lon="110.352053">
        <ele>125.198537</ele>
        <time>2026-08-16T08:16:01.000Z</time>
      </trkpt>
      <trkpt lat="22.785765" lon="110.352102">
        <ele>125.123858</ele>
        <time>2026-08-16T08:16:02.000Z</time>
      </trkpt>
      <trkpt lat="22.785791" lon="110.352151">
        <ele>125.047767</ele>
        <time>2026-08-16T08:16:03.000Z</time>
      </trkpt>
      <trkpt lat="22.785820" lon="110.352198">
        <ele>124.971650</ele>
        <time>2026-08-16T08:16:04.000Z</time>
      </trkpt>
      <trkpt lat="22.785854" lon="110.352237">
        <ele>124.899409</ele>
        <time>2026-08-16T08:16:05.000Z</time>
      </trkpt>
      <trkpt lat="22.785888" lon="110.352274">
        <ele>124.829099</ele>
        <time>2026-08-16T08:16:06.000Z</time>
      </trkpt>
      <trkpt lat="22.785918" lon="110.352314">
        <ele>124.759699</ele>
        <time>2026-08-16T08:16:07.000Z</time>
      </trkpt>
      <trkpt lat="22.785948" lon="110.352349">
        <ele>124.695379</ele>
        <time>2026-08-16T08:16:08.000Z</time>
      </trkpt>
      <trkpt lat="22.785966" lon="110.352387">
        <ele>124.637880</ele>
        <time>2026-08-16T08:16:09.000Z</time>
      </trkpt>
      <trkpt lat="22.785984" lon="110.352417">
        <ele>124.589705</ele>
        <time>2026-08-16T08:16:10.000Z</time>
      </trkpt>
      <trkpt lat="22.786001" lon="110.352440">
        <ele>124.550029</ele>
        <time>2026-08-16T08:16:11.000Z</time>
      </trkpt>
      <trkpt lat="22.786015" lon="110.352459">
        <ele>124.517294</ele>
        <time>2026-08-16T08:16:12.000Z</time>
      </trkpt>
      <trkpt lat="22.786024" lon="110.352472">
        <ele>124.495413</ele>
        <time>2026-08-16T08:16:13.000Z</time>
      </trkpt>
      <trkpt lat="22.786025" lon="110.352482">
        <ele>124.481875</ele>
        <time>2026-08-16T08:16:14.000Z</time>
      </trkpt>
      <trkpt lat="22.786053" lon="110.352538">
        <ele>124.396134</ele>
        <time>2026-08-16T08:16:22.000Z</time>
      </trkpt>
      <trkpt lat="22.786076" lon="110.352551">
        <ele>124.358273</ele>
        <time>2026-08-16T08:16:23.000Z</time>
      </trkpt>
      <trkpt lat="22.786105" lon="110.352562">
        <ele>124.313423</ele>
        <time>2026-08-16T08:16:24.000Z</time>
      </trkpt>
      <trkpt lat="22.786136" lon="110.352574">
        <ele>124.265373</ele>
        <time>2026-08-16T08:16:25.000Z</time>
      </trkpt>
      <trkpt lat="22.786168" lon="110.352588">
        <ele>124.215001</ele>
        <time>2026-08-16T08:16:26.000Z</time>
      </trkpt>
      <trkpt lat="22.786201" lon="110.352600">
        <ele>124.164192</ele>
        <time>2026-08-16T08:16:27.000Z</time>
      </trkpt>
      <trkpt lat="22.786238" lon="110.352610">
        <ele>124.108526</ele>
        <time>2026-08-16T08:16:28.000Z</time>
      </trkpt>
      <trkpt lat="22.786282" lon="110.352614">
        <ele>124.044069</ele>
        <time>2026-08-16T08:16:29.000Z</time>
      </trkpt>
      <trkpt lat="22.786326" lon="110.352618">
        <ele>123.979611</ele>
        <time>2026-08-16T08:16:30.000Z</time>
      </trkpt>
      <trkpt lat="22.786373" lon="110.352619">
        <ele>123.910985</ele>
        <time>2026-08-16T08:16:31.000Z</time>
      </trkpt>
      <trkpt lat="22.786421" lon="110.352618">
        <ele>123.840901</ele>
        <time>2026-08-16T08:16:32.000Z</time>
      </trkpt>
      <trkpt lat="22.786471" lon="110.352619">
        <ele>123.767897</ele>
        <time>2026-08-16T08:16:33.000Z</time>
      </trkpt>
      <trkpt lat="22.786525" lon="110.352616">
        <ele>123.688962</ele>
        <time>2026-08-16T08:16:34.000Z</time>
      </trkpt>
      <trkpt lat="22.786574" lon="110.352622">
        <ele>123.616976</ele>
        <time>2026-08-16T08:16:35.000Z</time>
      </trkpt>
      <trkpt lat="22.786622" lon="110.352627">
        <ele>123.546582</ele>
        <time>2026-08-16T08:16:36.000Z</time>
      </trkpt>
      <trkpt lat="22.786675" lon="110.352623">
        <ele>123.469024</ele>
        <time>2026-08-16T08:16:37.000Z</time>
      </trkpt>
      <trkpt lat="22.786722" lon="110.352622">
        <ele>123.400398</ele>
        <time>2026-08-16T08:16:38.000Z</time>
      </trkpt>
      <trkpt lat="22.786772" lon="110.352608">
        <ele>123.325014</ele>
        <time>2026-08-16T08:16:39.000Z</time>
      </trkpt>
      <trkpt lat="22.786828" lon="110.352606">
        <ele>123.243219</ele>
        <time>2026-08-16T08:16:40.000Z</time>
      </trkpt>
      <trkpt lat="22.786879" lon="110.352596">
        <ele>123.167561</ele>
        <time>2026-08-16T08:16:41.000Z</time>
      </trkpt>
      <trkpt lat="22.786931" lon="110.352588">
        <ele>123.090890</ele>
        <time>2026-08-16T08:16:42.000Z</time>
      </trkpt>
      <trkpt lat="22.786983" lon="110.352583">
        <ele>123.014681</ele>
        <time>2026-08-16T08:16:43.000Z</time>
      </trkpt>
      <trkpt lat="22.787037" lon="110.352572">
        <ele>122.934472</ele>
        <time>2026-08-16T08:16:44.000Z</time>
      </trkpt>
      <trkpt lat="22.787089" lon="110.352562">
        <ele>122.857377</ele>
        <time>2026-08-16T08:16:45.000Z</time>
      </trkpt>
      <trkpt lat="22.787148" lon="110.352550">
        <ele>122.769745</ele>
        <time>2026-08-16T08:16:46.000Z</time>
      </trkpt>
      <trkpt lat="22.787207" lon="110.352539">
        <ele>122.682352</ele>
        <time>2026-08-16T08:16:47.000Z</time>
      </trkpt>
      <trkpt lat="22.787258" lon="110.352539">
        <ele>122.607901</ele>
        <time>2026-08-16T08:16:48.000Z</time>
      </trkpt>
      <trkpt lat="22.787292" lon="110.352555">
        <ele>122.566633</ele>
        <time>2026-08-16T08:16:49.000Z</time>
      </trkpt>
      <trkpt lat="22.787318" lon="110.352593">
        <ele>122.520585</ele>
        <time>2026-08-16T08:16:50.000Z</time>
      </trkpt>
      <trkpt lat="22.787333" lon="110.352651">
        <ele>122.461967</ele>
        <time>2026-08-16T08:16:51.000Z</time>
      </trkpt>
      <trkpt lat="22.787352" lon="110.352709">
        <ele>122.402070</ele>
        <time>2026-08-16T08:16:52.000Z</time>
      </trkpt>
      <trkpt lat="22.787374" lon="110.352769">
        <ele>122.339236</ele>
        <time>2026-08-16T08:16:53.000Z</time>
      </trkpt>
      <trkpt lat="22.787392" lon="110.352837">
        <ele>122.270391</ele>
        <time>2026-08-16T08:16:54.000Z</time>
      </trkpt>
      <trkpt lat="22.787400" lon="110.352904">
        <ele>122.204649</ele>
        <time>2026-08-16T08:16:55.000Z</time>
      </trkpt>
      <trkpt lat="22.787417" lon="110.352980">
        <ele>122.128548</ele>
        <time>2026-08-16T08:16:56.000Z</time>
      </trkpt>
      <trkpt lat="22.787433" lon="110.353055">
        <ele>122.053637</ele>
        <time>2026-08-16T08:16:57.000Z</time>
      </trkpt>
      <trkpt lat="22.787449" lon="110.353128">
        <ele>121.980621</ele>
        <time>2026-08-16T08:16:58.000Z</time>
      </trkpt>
      <trkpt lat="22.787450" lon="110.353197">
        <ele>121.913469</ele>
        <time>2026-08-16T08:16:59.000Z</time>
      </trkpt>
      <trkpt lat="22.787464" lon="110.353275">
        <ele>121.836142</ele>
        <time>2026-08-16T08:17:00.000Z</time>
      </trkpt>
      <trkpt lat="22.787472" lon="110.353348">
        <ele>121.764606</ele>
        <time>2026-08-16T08:17:01.000Z</time>
      </trkpt>
      <trkpt lat="22.787482" lon="110.353419">
        <ele>121.694714</ele>
        <time>2026-08-16T08:17:02.000Z</time>
      </trkpt>
      <trkpt lat="22.787500" lon="110.353490">
        <ele>121.623059</ele>
        <time>2026-08-16T08:17:03.000Z</time>
      </trkpt>
      <trkpt lat="22.787516" lon="110.353563">
        <ele>121.550043</ele>
        <time>2026-08-16T08:17:04.000Z</time>
      </trkpt>
      <trkpt lat="22.787530" lon="110.353635">
        <ele>121.478439</ele>
        <time>2026-08-16T08:17:05.000Z</time>
      </trkpt>
      <trkpt lat="22.787533" lon="110.353703">
        <ele>121.412192</ele>
        <time>2026-08-16T08:17:06.000Z</time>
      </trkpt>
      <trkpt lat="22.787514" lon="110.353764">
        <ele>121.349537</ele>
        <time>2026-08-16T08:17:07.000Z</time>
      </trkpt>
      <trkpt lat="22.787518" lon="110.353829">
        <ele>121.286145</ele>
        <time>2026-08-16T08:17:08.000Z</time>
      </trkpt>
      <trkpt lat="22.787540" lon="110.353897">
        <ele>121.216018</ele>
        <time>2026-08-16T08:17:09.000Z</time>
      </trkpt>
      <trkpt lat="22.787550" lon="110.353967">
        <ele>121.147088</ele>
        <time>2026-08-16T08:17:10.000Z</time>
      </trkpt>
      <trkpt lat="22.787564" lon="110.354035">
        <ele>121.079288</ele>
        <time>2026-08-16T08:17:11.000Z</time>
      </trkpt>
      <trkpt lat="22.787579" lon="110.354100">
        <ele>121.014085</ele>
        <time>2026-08-16T08:17:12.000Z</time>
      </trkpt>
      <trkpt lat="22.787590" lon="110.354166">
        <ele>120.948819</ele>
        <time>2026-08-16T08:17:13.000Z</time>
      </trkpt>
      <trkpt lat="22.787615" lon="110.354230">
        <ele>120.881182</ele>
        <time>2026-08-16T08:17:14.000Z</time>
      </trkpt>
      <trkpt lat="22.787628" lon="110.354294">
        <ele>120.817410</ele>
        <time>2026-08-16T08:17:15.000Z</time>
      </trkpt>
      <trkpt lat="22.787645" lon="110.354358">
        <ele>120.752598</ele>
        <time>2026-08-16T08:17:16.000Z</time>
      </trkpt>
      <trkpt lat="22.787665" lon="110.354423">
        <ele>120.699249</ele>
        <time>2026-08-16T08:17:17.000Z</time>
      </trkpt>
      <trkpt lat="22.787685" lon="110.354488">
        <ele>120.688875</ele>
        <time>2026-08-16T08:17:18.000Z</time>
      </trkpt>
      <trkpt lat="22.787702" lon="110.354553">
        <ele>120.678646</ele>
        <time>2026-08-16T08:17:19.000Z</time>
      </trkpt>
      <trkpt lat="22.787701" lon="110.354612">
        <ele>120.669712</ele>
        <time>2026-08-16T08:17:20.000Z</time>
      </trkpt>
      <trkpt lat="22.787715" lon="110.354676">
        <ele>120.659754</ele>
        <time>2026-08-16T08:17:21.000Z</time>
      </trkpt>
      <trkpt lat="22.787729" lon="110.354741">
        <ele>120.649648</ele>
        <time>2026-08-16T08:17:22.000Z</time>
      </trkpt>
      <trkpt lat="22.787744" lon="110.354804">
        <ele>120.639797</ele>
        <time>2026-08-16T08:17:23.000Z</time>
      </trkpt>
      <trkpt lat="22.787761" lon="110.354868">
        <ele>120.629714</ele>
        <time>2026-08-16T08:17:24.000Z</time>
      </trkpt>
      <trkpt lat="22.787772" lon="110.354931">
        <ele>120.620007</ele>
        <time>2026-08-16T08:17:25.000Z</time>
      </trkpt>
      <trkpt lat="22.787784" lon="110.354993">
        <ele>120.610416</ele>
        <time>2026-08-16T08:17:26.000Z</time>
      </trkpt>
      <trkpt lat="22.787792" lon="110.355051">
        <ele>120.601537</ele>
        <time>2026-08-16T08:17:27.000Z</time>
      </trkpt>
      <trkpt lat="22.787802" lon="110.355112">
        <ele>120.592157</ele>
        <time>2026-08-16T08:17:28.000Z</time>
      </trkpt>
      <trkpt lat="22.787813" lon="110.355174">
        <ele>120.582598</ele>
        <time>2026-08-16T08:17:29.000Z</time>
      </trkpt>
      <trkpt lat="22.787824" lon="110.355237">
        <ele>120.572891</ele>
        <time>2026-08-16T08:17:30.000Z</time>
      </trkpt>
      <trkpt lat="22.787833" lon="110.355301">
        <ele>120.563090</ele>
        <time>2026-08-16T08:17:31.000Z</time>
      </trkpt>
      <trkpt lat="22.787844" lon="110.355363">
        <ele>120.553531</ele>
        <time>2026-08-16T08:17:32.000Z</time>
      </trkpt>
      <trkpt lat="22.787855" lon="110.355423">
        <ele>120.544269</ele>
        <time>2026-08-16T08:17:33.000Z</time>
      </trkpt>
      <trkpt lat="22.787870" lon="110.355484">
        <ele>120.534711</ele>
        <time>2026-08-16T08:17:34.000Z</time>
      </trkpt>
      <trkpt lat="22.787881" lon="110.355544">
        <ele>120.525450</ele>
        <time>2026-08-16T08:17:35.000Z</time>
      </trkpt>
      <trkpt lat="22.787893" lon="110.355606">
        <ele>120.515859</ele>
        <time>2026-08-16T08:17:36.000Z</time>
      </trkpt>
      <trkpt lat="22.787908" lon="110.355670">
        <ele>120.505861</ele>
        <time>2026-08-16T08:17:37.000Z</time>
      </trkpt>
      <trkpt lat="22.787917" lon="110.355733">
        <ele>120.496210</ele>
        <time>2026-08-16T08:17:38.000Z</time>
      </trkpt>
      <trkpt lat="22.787922" lon="110.355796">
        <ele>120.486636</ele>
        <time>2026-08-16T08:17:39.000Z</time>
      </trkpt>
      <trkpt lat="22.787930" lon="110.355856">
        <ele>120.477458</ele>
        <time>2026-08-16T08:17:40.000Z</time>
      </trkpt>
      <trkpt lat="22.787933" lon="110.355919">
        <ele>120.467908</ele>
        <time>2026-08-16T08:17:41.000Z</time>
      </trkpt>
      <trkpt lat="22.787946" lon="110.355983">
        <ele>120.457986</ele>
        <time>2026-08-16T08:17:42.000Z</time>
      </trkpt>
      <trkpt lat="22.787944" lon="110.356047">
        <ele>120.448291</ele>
        <time>2026-08-16T08:17:43.000Z</time>
      </trkpt>
      <trkpt lat="22.787948" lon="110.356110">
        <ele>120.438731</ele>
        <time>2026-08-16T08:17:44.000Z</time>
      </trkpt>
      <trkpt lat="22.787956" lon="110.356174">
        <ele>120.428953</ele>
        <time>2026-08-16T08:17:45.000Z</time>
      </trkpt>
      <trkpt lat="22.787961" lon="110.356238">
        <ele>120.419229</ele>
        <time>2026-08-16T08:17:46.000Z</time>
      </trkpt>
      <trkpt lat="22.787969" lon="110.356303">
        <ele>120.409301</ele>
        <time>2026-08-16T08:17:47.000Z</time>
      </trkpt>
      <trkpt lat="22.787980" lon="110.356369">
        <ele>120.416701</ele>
        <time>2026-08-16T08:17:48.000Z</time>
      </trkpt>
      <trkpt lat="22.787990" lon="110.356433">
        <ele>120.430837</ele>
        <time>2026-08-16T08:17:49.000Z</time>
      </trkpt>
      <trkpt lat="22.787995" lon="110.356497">
        <ele>120.444823</ele>
        <time>2026-08-16T08:17:50.000Z</time>
      </trkpt>
      <trkpt lat="22.788001" lon="110.356561">
        <ele>120.458832</ele>
        <time>2026-08-16T08:17:51.000Z</time>
      </trkpt>
      <trkpt lat="22.788015" lon="110.356626">
        <ele>120.473367</ele>
        <time>2026-08-16T08:17:52.000Z</time>
      </trkpt>
      <trkpt lat="22.788022" lon="110.356694">
        <ele>120.488267</ele>
        <time>2026-08-16T08:17:53.000Z</time>
      </trkpt>
      <trkpt lat="22.788026" lon="110.356762">
        <ele>120.503105</ele>
        <time>2026-08-16T08:17:54.000Z</time>
      </trkpt>
      <trkpt lat="22.788032" lon="110.356831">
        <ele>120.518197</ele>
        <time>2026-08-16T08:17:55.000Z</time>
      </trkpt>
      <trkpt lat="22.788043" lon="110.356895">
        <ele>120.532374</ele>
        <time>2026-08-16T08:17:56.000Z</time>
      </trkpt>
      <trkpt lat="22.788058" lon="110.356950">
        <ele>120.544864</ele>
        <time>2026-08-16T08:17:57.000Z</time>
      </trkpt>
      <trkpt lat="22.788061" lon="110.357001">
        <ele>120.555992</ele>
        <time>2026-08-16T08:17:58.000Z</time>
      </trkpt>
      <trkpt lat="22.788059" lon="110.357053">
        <ele>120.567325</ele>
        <time>2026-08-16T08:17:59.000Z</time>
      </trkpt>
      <trkpt lat="22.788059" lon="110.357093">
        <ele>120.576036</ele>
        <time>2026-08-16T08:18:00.000Z</time>
      </trkpt>
      <trkpt lat="22.788062" lon="110.357123">
        <ele>120.582607</ele>
        <time>2026-08-16T08:18:01.000Z</time>
      </trkpt>
      <trkpt lat="22.788078" lon="110.357134">
        <ele>120.587081</ele>
        <time>2026-08-16T08:18:02.000Z</time>
      </trkpt>
      <trkpt lat="22.788067" lon="110.357131">
        <ele>120.589760</ele>
        <time>2026-08-16T08:18:03.000Z</time>
      </trkpt>
      <trkpt lat="22.788061" lon="110.357132">
        <ele>120.591194</ele>
        <time>2026-08-16T08:18:04.000Z</time>
      </trkpt>
      <trkpt lat="22.788061" lon="110.357134">
        <ele>120.591629</ele>
        <time>2026-08-16T08:18:05.000Z</time>
      </trkpt>
      <trkpt lat="22.788062" lon="110.357127">
        <ele>120.593172</ele>
        <time>2026-08-16T08:18:06.000Z</time>
      </trkpt>
      <trkpt lat="22.788093" lon="110.357067">
        <ele>120.608149</ele>
        <time>2026-08-16T08:18:56.000Z</time>
      </trkpt>
      <trkpt lat="22.788093" lon="110.357047">
        <ele>120.612504</ele>
        <time>2026-08-16T08:18:57.000Z</time>
      </trkpt>
      <trkpt lat="22.788087" lon="110.357024">
        <ele>120.617710</ele>
        <time>2026-08-16T08:18:58.000Z</time>
      </trkpt>
      <trkpt lat="22.788080" lon="110.356997">
        <ele>120.623817</ele>
        <time>2026-08-16T08:18:59.000Z</time>
      </trkpt>
      <trkpt lat="22.788077" lon="110.356962">
        <ele>120.631472</ele>
        <time>2026-08-16T08:19:00.000Z</time>
      </trkpt>
      <trkpt lat="22.788074" lon="110.356928">
        <ele>120.638909</ele>
        <time>2026-08-16T08:19:01.000Z</time>
      </trkpt>
      <trkpt lat="22.788072" lon="110.356898">
        <ele>120.645459</ele>
        <time>2026-08-16T08:19:02.000Z</time>
      </trkpt>
      <trkpt lat="22.788070" lon="110.356862">
        <ele>120.653313</ele>
        <time>2026-08-16T08:19:03.000Z</time>
      </trkpt>
      <trkpt lat="22.788067" lon="110.356819">
        <ele>120.662703</ele>
        <time>2026-08-16T08:19:04.000Z</time>
      </trkpt>
      <trkpt lat="22.788065" lon="110.356781">
        <ele>120.670991</ele>
        <time>2026-08-16T08:19:05.000Z</time>
      </trkpt>
      <trkpt lat="22.788064" lon="110.356741">
        <ele>120.679705</ele>
        <time>2026-08-16T08:19:06.000Z</time>
      </trkpt>
      <trkpt lat="22.788057" lon="110.356700">
        <ele>120.688785</ele>
        <time>2026-08-16T08:19:07.000Z</time>
      </trkpt>
      <trkpt lat="22.788053" lon="110.356658">
        <ele>120.697980</ele>
        <time>2026-08-16T08:19:08.000Z</time>
      </trkpt>
      <trkpt lat="22.788053" lon="110.356611">
        <ele>120.708214</ele>
        <time>2026-08-16T08:19:09.000Z</time>
      </trkpt>
      <trkpt lat="22.788051" lon="110.356566">
        <ele>120.718025</ele>
        <time>2026-08-16T08:19:10.000Z</time>
      </trkpt>
      <trkpt lat="22.788056" lon="110.356528">
        <ele>120.726384</ele>
        <time>2026-08-16T08:19:11.000Z</time>
      </trkpt>
      <trkpt lat="22.788060" lon="110.356493">
        <ele>120.734064</ele>
        <time>2026-08-16T08:19:12.000Z</time>
      </trkpt>
      <trkpt lat="22.788075" lon="110.356462">
        <ele>120.741687</ele>
        <time>2026-08-16T08:19:13.000Z</time>
      </trkpt>
      <trkpt lat="22.788102" lon="110.356442">
        <ele>120.749410</ele>
        <time>2026-08-16T08:19:14.000Z</time>
      </trkpt>
      <trkpt lat="22.788136" lon="110.356433">
        <ele>120.757676</ele>
        <time>2026-08-16T08:19:15.000Z</time>
      </trkpt>
      <trkpt lat="22.788173" lon="110.356425">
        <ele>120.766587</ele>
        <time>2026-08-16T08:19:16.000Z</time>
      </trkpt>
      <trkpt lat="22.788210" lon="110.356423">
        <ele>120.775338</ele>
        <time>2026-08-16T08:19:17.000Z</time>
      </trkpt>
      <trkpt lat="22.788249" lon="110.356422">
        <ele>120.784552</ele>
        <time>2026-08-16T08:19:18.000Z</time>
      </trkpt>
      <trkpt lat="22.788284" lon="110.356422">
        <ele>120.792819</ele>
        <time>2026-08-16T08:19:19.000Z</time>
      </trkpt>
      <trkpt lat="22.788319" lon="110.356416">
        <ele>120.801188</ele>
        <time>2026-08-16T08:19:20.000Z</time>
      </trkpt>
      <trkpt lat="22.788349" lon="110.356403">
        <ele>120.808819</ele>
        <time>2026-08-16T08:19:21.000Z</time>
      </trkpt>
      <trkpt lat="22.788379" lon="110.356393">
        <ele>120.816231</ele>
        <time>2026-08-16T08:19:22.000Z</time>
      </trkpt>
      <trkpt lat="22.788410" lon="110.356386">
        <ele>120.823711</ele>
        <time>2026-08-16T08:19:23.000Z</time>
      </trkpt>
      <trkpt lat="22.788445" lon="110.356380">
        <ele>120.831001</ele>
        <time>2026-08-16T08:19:24.000Z</time>
      </trkpt>
      <trkpt lat="22.788482" lon="110.356372">
        <ele>120.829241</ele>
        <time>2026-08-16T08:19:25.000Z</time>
      </trkpt>
      <trkpt lat="22.788520" lon="110.356373">
        <ele>120.827467</ele>
        <time>2026-08-16T08:19:26.000Z</time>
      </trkpt>
      <trkpt lat="22.788558" lon="110.356379">
        <ele>120.825675</ele>
        <time>2026-08-16T08:19:27.000Z</time>
      </trkpt>
      <trkpt lat="22.788597" lon="110.356379">
        <ele>120.823855</ele>
        <time>2026-08-16T08:19:28.000Z</time>
      </trkpt>
      <trkpt lat="22.788629" lon="110.356377">
        <ele>120.822360</ele>
        <time>2026-08-16T08:19:29.000Z</time>
      </trkpt>
      <trkpt lat="22.788655" lon="110.356375">
        <ele>120.821144</ele>
        <time>2026-08-16T08:19:30.000Z</time>
      </trkpt>
      <trkpt lat="22.788679" lon="110.356368">
        <ele>120.819984</ele>
        <time>2026-08-16T08:19:31.000Z</time>
      </trkpt>
      <trkpt lat="22.788706" lon="110.356362">
        <ele>120.818698</ele>
        <time>2026-08-16T08:19:32.000Z</time>
      </trkpt>
      <trkpt lat="22.788734" lon="110.356360">
        <ele>120.817389</ele>
        <time>2026-08-16T08:19:33.000Z</time>
      </trkpt>
      <trkpt lat="22.788766" lon="110.356355">
        <ele>120.815880</ele>
        <time>2026-08-16T08:19:34.000Z</time>
      </trkpt>
      <trkpt lat="22.788798" lon="110.356344">
        <ele>120.814314</ele>
        <time>2026-08-16T08:19:35.000Z</time>
      </trkpt>
      <trkpt lat="22.788833" lon="110.356326">
        <ele>120.812506</ele>
        <time>2026-08-16T08:19:36.000Z</time>
      </trkpt>
      <trkpt lat="22.788863" lon="110.356313">
        <ele>120.810999</ele>
        <time>2026-08-16T08:19:37.000Z</time>
      </trkpt>
      <trkpt lat="22.788892" lon="110.356298">
        <ele>120.809500</ele>
        <time>2026-08-16T08:19:38.000Z</time>
      </trkpt>
      <trkpt lat="22.788912" lon="110.356281">
        <ele>120.808314</ele>
        <time>2026-08-16T08:19:39.000Z</time>
      </trkpt>
      <trkpt lat="22.788936" lon="110.356263">
        <ele>120.806953</ele>
        <time>2026-08-16T08:19:40.000Z</time>
      </trkpt>
      <trkpt lat="22.788962" lon="110.356246">
        <ele>120.805536</ele>
        <time>2026-08-16T08:19:41.000Z</time>
      </trkpt>
      <trkpt lat="22.788991" lon="110.356232">
        <ele>120.804055</ele>
        <time>2026-08-16T08:19:42.000Z</time>
      </trkpt>
      <trkpt lat="22.789021" lon="110.356218">
        <ele>120.802531</ele>
        <time>2026-08-16T08:19:43.000Z</time>
      </trkpt>
      <trkpt lat="22.789052" lon="110.356204">
        <ele>120.800964</ele>
        <time>2026-08-16T08:19:44.000Z</time>
      </trkpt>
      <trkpt lat="22.789084" lon="110.356191">
        <ele>120.799370</ele>
        <time>2026-08-16T08:19:45.000Z</time>
      </trkpt>
      <trkpt lat="22.789115" lon="110.356190">
        <ele>120.797923</ele>
        <time>2026-08-16T08:19:46.000Z</time>
      </trkpt>
      <trkpt lat="22.789136" lon="110.356193">
        <ele>120.796935</ele>
        <time>2026-08-16T08:19:47.000Z</time>
      </trkpt>
      <trkpt lat="22.789158" lon="110.356206">
        <ele>120.795766</ele>
        <time>2026-08-16T08:19:48.000Z</time>
      </trkpt>
      <trkpt lat="22.789177" lon="110.356210">
        <ele>120.794862</ele>
        <time>2026-08-16T08:19:49.000Z</time>
      </trkpt>
      <trkpt lat="22.789204" lon="110.356199">
        <ele>120.793517</ele>
        <time>2026-08-16T08:19:50.000Z</time>
      </trkpt>
      <trkpt lat="22.789230" lon="110.356203">
        <ele>120.792291</ele>
        <time>2026-08-16T08:19:51.000Z</time>
      </trkpt>
      <trkpt lat="22.789248" lon="110.356187">
        <ele>120.791205</ele>
        <time>2026-08-16T08:19:52.000Z</time>
      </trkpt>
      <trkpt lat="22.789266" lon="110.356174">
        <ele>120.790196</ele>
        <time>2026-08-16T08:19:53.000Z</time>
      </trkpt>
      <trkpt lat="22.789283" lon="110.356162">
        <ele>120.789250</ele>
        <time>2026-08-16T08:19:54.000Z</time>
      </trkpt>
      <trkpt lat="22.789302" lon="110.356162">
        <ele>120.788363</ele>
        <time>2026-08-16T08:19:55.000Z</time>
      </trkpt>
      <trkpt lat="22.789317" lon="110.356157">
        <ele>120.787631</ele>
        <time>2026-08-16T08:19:56.000Z</time>
      </trkpt>
      <trkpt lat="22.789339" lon="110.356157">
        <ele>120.786605</ele>
        <time>2026-08-16T08:19:57.000Z</time>
      </trkpt>
      <trkpt lat="22.789362" lon="110.356182">
        <ele>120.785085</ele>
        <time>2026-08-16T08:19:58.000Z</time>
      </trkpt>
      <trkpt lat="22.789386" lon="110.356202">
        <ele>120.783673</ele>
        <time>2026-08-16T08:19:59.000Z</time>
      </trkpt>
      <trkpt lat="22.789412" lon="110.356228">
        <ele>120.782023</ele>
        <time>2026-08-16T08:20:00.000Z</time>
      </trkpt>
      <trkpt lat="22.789439" lon="110.356259">
        <ele>120.780189</ele>
        <time>2026-08-16T08:20:01.000Z</time>
      </trkpt>
      <trkpt lat="22.789466" lon="110.356292">
        <ele>120.778291</ele>
        <time>2026-08-16T08:20:02.000Z</time>
      </trkpt>
      <trkpt lat="22.789496" lon="110.356326">
        <ele>120.776266</ele>
        <time>2026-08-16T08:20:03.000Z</time>
      </trkpt>
      <trkpt lat="22.789521" lon="110.356359">
        <ele>120.774429</ele>
        <time>2026-08-16T08:20:04.000Z</time>
      </trkpt>
      <trkpt lat="22.789550" lon="110.356392">
        <ele>120.772468</ele>
        <time>2026-08-16T08:20:05.000Z</time>
      </trkpt>
      <trkpt lat="22.789576" lon="110.356427">
        <ele>120.770534</ele>
        <time>2026-08-16T08:20:06.000Z</time>
      </trkpt>
      <trkpt lat="22.789598" lon="110.356468">
        <ele>120.768493</ele>
        <time>2026-08-16T08:20:07.000Z</time>
      </trkpt>
      <trkpt lat="22.789630" lon="110.356501">
        <ele>120.766433</ele>
        <time>2026-08-16T08:20:08.000Z</time>
      </trkpt>
      <trkpt lat="22.789664" lon="110.356533">
        <ele>120.764333</ele>
        <time>2026-08-16T08:20:09.000Z</time>
      </trkpt>
      <trkpt lat="22.789699" lon="110.356563">
        <ele>120.762251</ele>
        <time>2026-08-16T08:20:10.000Z</time>
      </trkpt>
      <trkpt lat="22.789733" lon="110.356597">
        <ele>120.760093</ele>
        <time>2026-08-16T08:20:11.000Z</time>
      </trkpt>
      <trkpt lat="22.789766" lon="110.356634">
        <ele>120.757879</ele>
        <time>2026-08-16T08:20:12.000Z</time>
      </trkpt>
      <trkpt lat="22.789801" lon="110.356657">
        <ele>120.755969</ele>
        <time>2026-08-16T08:20:13.000Z</time>
      </trkpt>
      <trkpt lat="22.789839" lon="110.356675">
        <ele>120.754034</ele>
        <time>2026-08-16T08:20:14.000Z</time>
      </trkpt>
      <trkpt lat="22.789873" lon="110.356701">
        <ele>120.752093</ele>
        <time>2026-08-16T08:20:15.000Z</time>
      </trkpt>
      <trkpt lat="22.789901" lon="110.356733">
        <ele>120.750195</ele>
        <time>2026-08-16T08:20:16.000Z</time>
      </trkpt>
      <trkpt lat="22.789949" lon="110.356751">
        <ele>120.747826</ele>
        <time>2026-08-16T08:20:17.000Z</time>
      </trkpt>
      <trkpt lat="22.789991" lon="110.356768">
        <ele>120.729392</ele>
        <time>2026-08-16T08:20:18.000Z</time>
      </trkpt>
      <trkpt lat="22.790032" lon="110.356788">
        <ele>120.704735</ele>
        <time>2026-08-16T08:20:19.000Z</time>
      </trkpt>
      <trkpt lat="22.790076" lon="110.356779">
        <ele>120.680176</ele>
        <time>2026-08-16T08:20:20.000Z</time>
      </trkpt>
      <trkpt lat="22.790130" lon="110.356754">
        <ele>120.647973</ele>
        <time>2026-08-16T08:20:21.000Z</time>
      </trkpt>
      <trkpt lat="22.790180" lon="110.356744">
        <ele>120.620086</ele>
        <time>2026-08-16T08:20:22.000Z</time>
      </trkpt>
      <trkpt lat="22.790233" lon="110.356756">
        <ele>120.590390</ele>
        <time>2026-08-16T08:20:23.000Z</time>
      </trkpt>
      <trkpt lat="22.790278" lon="110.356775">
        <ele>120.563904</ele>
        <time>2026-08-16T08:20:24.000Z</time>
      </trkpt>
      <trkpt lat="22.790315" lon="110.356805">
        <ele>120.538567</ele>
        <time>2026-08-16T08:20:25.000Z</time>
      </trkpt>
      <trkpt lat="22.790337" lon="110.356855">
        <ele>120.510552</ele>
        <time>2026-08-16T08:20:26.000Z</time>
      </trkpt>
      <trkpt lat="22.790343" lon="110.356908">
        <ele>120.483551</ele>
        <time>2026-08-16T08:20:27.000Z</time>
      </trkpt>
      <trkpt lat="22.790352" lon="110.356964">
        <ele>120.454806</ele>
        <time>2026-08-16T08:20:28.000Z</time>
      </trkpt>
      <trkpt lat="22.790353" lon="110.357022">
        <ele>120.425473</ele>
        <time>2026-08-16T08:20:29.000Z</time>
      </trkpt>
      <trkpt lat="22.790362" lon="110.357073">
        <ele>120.399216</ele>
        <time>2026-08-16T08:20:30.000Z</time>
      </trkpt>
      <trkpt lat="22.790376" lon="110.357127">
        <ele>120.370851</ele>
        <time>2026-08-16T08:20:31.000Z</time>
      </trkpt>
      <trkpt lat="22.790385" lon="110.357187">
        <ele>120.340112</ele>
        <time>2026-08-16T08:20:32.000Z</time>
      </trkpt>
      <trkpt lat="22.790396" lon="110.357244">
        <ele>120.310664</ele>
        <time>2026-08-16T08:20:33.000Z</time>
      </trkpt>
      <trkpt lat="22.790410" lon="110.357300">
        <ele>120.281324</ele>
        <time>2026-08-16T08:20:34.000Z</time>
      </trkpt>
      <trkpt lat="22.790420" lon="110.357360">
        <ele>120.250493</ele>
        <time>2026-08-16T08:20:35.000Z</time>
      </trkpt>
      <trkpt lat="22.790434" lon="110.357419">
        <ele>120.219686</ele>
        <time>2026-08-16T08:20:36.000Z</time>
      </trkpt>
      <trkpt lat="22.790448" lon="110.357474">
        <ele>120.190834</ele>
        <time>2026-08-16T08:20:37.000Z</time>
      </trkpt>
      <trkpt lat="22.790463" lon="110.357534">
        <ele>120.159399</ele>
        <time>2026-08-16T08:20:38.000Z</time>
      </trkpt>
      <trkpt lat="22.790479" lon="110.357584">
        <ele>120.132636</ele>
        <time>2026-08-16T08:20:39.000Z</time>
      </trkpt>
      <trkpt lat="22.790502" lon="110.357637">
        <ele>120.103015</ele>
        <time>2026-08-16T08:20:40.000Z</time>
      </trkpt>
      <trkpt lat="22.790523" lon="110.357694">
        <ele>120.071976</ele>
        <time>2026-08-16T08:20:41.000Z</time>
      </trkpt>
      <trkpt lat="22.790551" lon="110.357744">
        <ele>120.042394</ele>
        <time>2026-08-16T08:20:42.000Z</time>
      </trkpt>
      <trkpt lat="22.790577" lon="110.357797">
        <ele>120.012036</ele>
        <time>2026-08-16T08:20:43.000Z</time>
      </trkpt>
      <trkpt lat="22.790608" lon="110.357849">
        <ele>119.980723</ele>
        <time>2026-08-16T08:20:44.000Z</time>
      </trkpt>
      <trkpt lat="22.790634" lon="110.357906">
        <ele>119.948565</ele>
        <time>2026-08-16T08:20:45.000Z</time>
      </trkpt>
      <trkpt lat="22.790655" lon="110.357953">
        <ele>119.922155</ele>
        <time>2026-08-16T08:20:46.000Z</time>
      </trkpt>
      <trkpt lat="22.790683" lon="110.358011">
        <ele>119.889049</ele>
        <time>2026-08-16T08:20:47.000Z</time>
      </trkpt>
      <trkpt lat="22.790709" lon="110.358070">
        <ele>119.855982</ele>
        <time>2026-08-16T08:20:48.000Z</time>
      </trkpt>
      <trkpt lat="22.790735" lon="110.358130">
        <ele>119.822457</ele>
        <time>2026-08-16T08:20:49.000Z</time>
      </trkpt>
      <trkpt lat="22.790764" lon="110.358186">
        <ele>119.789979</ele>
        <time>2026-08-16T08:20:50.000Z</time>
      </trkpt>
      <trkpt lat="22.790790" lon="110.358240">
        <ele>119.760132</ele>
        <time>2026-08-16T08:20:51.000Z</time>
      </trkpt>
      <trkpt lat="22.790813" lon="110.358296">
        <ele>119.748286</ele>
        <time>2026-08-16T08:20:52.000Z</time>
      </trkpt>
      <trkpt lat="22.790836" lon="110.358349">
        <ele>119.736968</ele>
        <time>2026-08-16T08:20:53.000Z</time>
      </trkpt>
      <trkpt lat="22.790850" lon="110.358402">
        <ele>119.726316</ele>
        <time>2026-08-16T08:20:54.000Z</time>
      </trkpt>
      <trkpt lat="22.790866" lon="110.358459">
        <ele>119.714803</ele>
        <time>2026-08-16T08:20:55.000Z</time>
      </trkpt>
      <trkpt lat="22.790884" lon="110.358502">
        <ele>119.705678</ele>
        <time>2026-08-16T08:20:56.000Z</time>
      </trkpt>
      <trkpt lat="22.790907" lon="110.358538">
        <ele>119.697216</ele>
        <time>2026-08-16T08:20:57.000Z</time>
      </trkpt>
      <trkpt lat="22.790915" lon="110.358565">
        <ele>119.691736</ele>
        <time>2026-08-16T08:20:58.000Z</time>
      </trkpt>
      <trkpt lat="22.790926" lon="110.358583">
        <ele>119.687563</ele>
        <time>2026-08-16T08:20:59.000Z</time>
      </trkpt>
      <trkpt lat="22.790935" lon="110.358591">
        <ele>119.685125</ele>
        <time>2026-08-16T08:21:00.000Z</time>
      </trkpt>
      <trkpt lat="22.791092" lon="110.358650">
        <ele>119.650302</ele>
        <time>2026-08-16T08:24:09.000Z</time>
      </trkpt>
      <trkpt lat="22.791103" lon="110.358669">
        <ele>119.645967</ele>
        <time>2026-08-16T08:24:10.000Z</time>
      </trkpt>
      <trkpt lat="22.791112" lon="110.358687">
        <ele>119.642010</ele>
        <time>2026-08-16T08:24:11.000Z</time>
      </trkpt>
      <trkpt lat="22.791125" lon="110.358703">
        <ele>119.637890</ele>
        <time>2026-08-16T08:24:12.000Z</time>
      </trkpt>
      <trkpt lat="22.791140" lon="110.358722">
        <ele>119.633057</ele>
        <time>2026-08-16T08:24:13.000Z</time>
      </trkpt>
      <trkpt lat="22.791152" lon="110.358741">
        <ele>119.628607</ele>
        <time>2026-08-16T08:24:14.000Z</time>
      </trkpt>
      <trkpt lat="22.791165" lon="110.358764">
        <ele>119.623394</ele>
        <time>2026-08-16T08:24:15.000Z</time>
      </trkpt>
      <trkpt lat="22.791176" lon="110.358791">
        <ele>119.617690</ele>
        <time>2026-08-16T08:24:16.000Z</time>
      </trkpt>
      <trkpt lat="22.791188" lon="110.358824">
        <ele>119.610836</ele>
        <time>2026-08-16T08:24:17.000Z</time>
      </trkpt>
      <trkpt lat="22.791201" lon="110.358857">
        <ele>119.603902</ele>
        <time>2026-08-16T08:24:18.000Z</time>
      </trkpt>
      <trkpt lat="22.791213" lon="110.358895">
        <ele>119.596141</ele>
        <time>2026-08-16T08:24:19.000Z</time>
      </trkpt>
      <trkpt lat="22.791229" lon="110.358932">
        <ele>119.588245</ele>
        <time>2026-08-16T08:24:20.000Z</time>
      </trkpt>
      <trkpt lat="22.791250" lon="110.358970">
        <ele>119.579685</ele>
        <time>2026-08-16T08:24:21.000Z</time>
      </trkpt>
      <trkpt lat="22.791271" lon="110.359010">
        <ele>119.570791</ele>
        <time>2026-08-16T08:24:22.000Z</time>
      </trkpt>
      <trkpt lat="22.791297" lon="110.359051">
        <ele>119.561176</ele>
        <time>2026-08-16T08:24:23.000Z</time>
      </trkpt>
      <trkpt lat="22.791324" lon="110.359090">
        <ele>119.551752</ele>
        <time>2026-08-16T08:24:24.000Z</time>
      </trkpt>
      <trkpt lat="22.791349" lon="110.359127">
        <ele>119.542889</ele>
        <time>2026-08-16T08:24:25.000Z</time>
      </trkpt>
      <trkpt lat="22.791371" lon="110.359166">
        <ele>119.534055</ele>
        <time>2026-08-16T08:24:26.000Z</time>
      </trkpt>
      <trkpt lat="22.791393" lon="110.359210">
        <ele>119.524383</ele>
        <time>2026-08-16T08:24:27.000Z</time>
      </trkpt>
      <trkpt lat="22.791412" lon="110.359255">
        <ele>119.514820</ele>
        <time>2026-08-16T08:24:28.000Z</time>
      </trkpt>
      <trkpt lat="22.791433" lon="110.359299">
        <ele>119.505247</ele>
        <time>2026-08-16T08:24:29.000Z</time>
      </trkpt>
      <trkpt lat="22.791453" lon="110.359344">
        <ele>119.495595</ele>
        <time>2026-08-16T08:24:30.000Z</time>
      </trkpt>
      <trkpt lat="22.791475" lon="110.359390">
        <ele>119.485582</ele>
        <time>2026-08-16T08:24:31.000Z</time>
      </trkpt>
      <trkpt lat="22.791496" lon="110.359437">
        <ele>119.475490</ele>
        <time>2026-08-16T08:24:32.000Z</time>
      </trkpt>
      <trkpt lat="22.791517" lon="110.359486">
        <ele>119.465050</ele>
        <time>2026-08-16T08:24:33.000Z</time>
      </trkpt>
      <trkpt lat="22.791536" lon="110.359535">
        <ele>119.454779</ele>
        <time>2026-08-16T08:24:34.000Z</time>
      </trkpt>
      <trkpt lat="22.791557" lon="110.359584">
        <ele>119.444338</ele>
        <time>2026-08-16T08:24:35.000Z</time>
      </trkpt>
      <trkpt lat="22.791579" lon="110.359632">
        <ele>119.433981</ele>
        <time>2026-08-16T08:24:36.000Z</time>
      </trkpt>
      <trkpt lat="22.791602" lon="110.359681">
        <ele>119.423357</ele>
        <time>2026-08-16T08:24:37.000Z</time>
      </trkpt>
      <trkpt lat="22.791627" lon="110.359728">
        <ele>119.412873</ele>
        <time>2026-08-16T08:24:38.000Z</time>
      </trkpt>
      <trkpt lat="22.791652" lon="110.359774">
        <ele>119.402555</ele>
        <time>2026-08-16T08:24:39.000Z</time>
      </trkpt>
      <trkpt lat="22.791676" lon="110.359819">
        <ele>119.392511</ele>
        <time>2026-08-16T08:24:40.000Z</time>
      </trkpt>
      <trkpt lat="22.791696" lon="110.359867">
        <ele>119.382483</ele>
        <time>2026-08-16T08:24:41.000Z</time>
      </trkpt>
      <trkpt lat="22.791716" lon="110.359917">
        <ele>119.373052</ele>
        <time>2026-08-16T08:24:42.000Z</time>
      </trkpt>
      <trkpt lat="22.791738" lon="110.359966">
        <ele>119.363622</ele>
        <time>2026-08-16T08:24:43.000Z</time>
      </trkpt>
      <trkpt lat="22.791760" lon="110.360017">
        <ele>119.353880</ele>
        <time>2026-08-16T08:24:44.000Z</time>
      </trkpt>
      <trkpt lat="22.791784" lon="110.360070">
        <ele>119.343663</ele>
        <time>2026-08-16T08:24:45.000Z</time>
      </trkpt>
      <trkpt lat="22.791810" lon="110.360122">
        <ele>119.333427</ele>
        <time>2026-08-16T08:24:46.000Z</time>
      </trkpt>
      <trkpt lat="22.791839" lon="110.360174">
        <ele>119.322912</ele>
        <time>2026-08-16T08:24:47.000Z</time>
      </trkpt>
      <trkpt lat="22.791864" lon="110.360227">
        <ele>119.312611</ele>
        <time>2026-08-16T08:24:48.000Z</time>
      </trkpt>
      <trkpt lat="22.791888" lon="110.360280">
        <ele>119.302394</ele>
        <time>2026-08-16T08:24:49.000Z</time>
      </trkpt>
      <trkpt lat="22.791912" lon="110.360331">
        <ele>119.292487</ele>
        <time>2026-08-16T08:24:50.000Z</time>
      </trkpt>
      <trkpt lat="22.791935" lon="110.360385">
        <ele>119.282195</ele>
        <time>2026-08-16T08:24:51.000Z</time>
      </trkpt>
      <trkpt lat="22.791960" lon="110.360437">
        <ele>119.272047</ele>
        <time>2026-08-16T08:24:52.000Z</time>
      </trkpt>
      <trkpt lat="22.791985" lon="110.360487">
        <ele>119.262206</ele>
        <time>2026-08-16T08:24:53.000Z</time>
      </trkpt>
      <trkpt lat="22.792012" lon="110.360536">
        <ele>119.252329</ele>
        <time>2026-08-16T08:24:54.000Z</time>
      </trkpt>
      <trkpt lat="22.792038" lon="110.360586">
        <ele>119.242396</ele>
        <time>2026-08-16T08:24:55.000Z</time>
      </trkpt>
      <trkpt lat="22.792064" lon="110.360635">
        <ele>119.232614</ele>
        <time>2026-08-16T08:24:56.000Z</time>
      </trkpt>
      <trkpt lat="22.792087" lon="110.360684">
        <ele>119.223100</ele>
        <time>2026-08-16T08:24:57.000Z</time>
      </trkpt>
      <trkpt lat="22.792112" lon="110.360733">
        <ele>119.213410</ele>
        <time>2026-08-16T08:24:58.000Z</time>
      </trkpt>
      <trkpt lat="22.792137" lon="110.360784">
        <ele>119.203416</ele>
        <time>2026-08-16T08:24:59.000Z</time>
      </trkpt>
      <trkpt lat="22.792163" lon="110.360835">
        <ele>119.193332</ele>
        <time>2026-08-16T08:25:00.000Z</time>
      </trkpt>
      <trkpt lat="22.792189" lon="110.360885">
        <ele>119.183400</ele>
        <time>2026-08-16T08:25:01.000Z</time>
      </trkpt>
      <trkpt lat="22.792216" lon="110.360936">
        <ele>119.173224</ele>
        <time>2026-08-16T08:25:02.000Z</time>
      </trkpt>
      <trkpt lat="22.792242" lon="110.360987">
        <ele>119.163141</ele>
        <time>2026-08-16T08:25:03.000Z</time>
      </trkpt>
      <trkpt lat="22.792267" lon="110.361036">
        <ele>119.153451</ele>
        <time>2026-08-16T08:25:04.000Z</time>
      </trkpt>
      <trkpt lat="22.792291" lon="110.361086">
        <ele>119.143697</ele>
        <time>2026-08-16T08:25:05.000Z</time>
      </trkpt>
      <trkpt lat="22.792317" lon="110.361138">
        <ele>119.133462</ele>
        <time>2026-08-16T08:25:06.000Z</time>
      </trkpt>
      <trkpt lat="22.792344" lon="110.361190">
        <ele>119.123136</ele>
        <time>2026-08-16T08:25:07.000Z</time>
      </trkpt>
      <trkpt lat="22.792368" lon="110.361243">
        <ele>119.112919</ele>
        <time>2026-08-16T08:25:08.000Z</time>
      </trkpt>
      <trkpt lat="22.792393" lon="110.361296">
        <ele>119.102618</ele>
        <time>2026-08-16T08:25:09.000Z</time>
      </trkpt>
      <trkpt lat="22.792418" lon="110.361348">
        <ele>119.092471</ele>
        <time>2026-08-16T08:25:10.000Z</time>
      </trkpt>
      <trkpt lat="22.792444" lon="110.361401">
        <ele>119.082083</ele>
        <time>2026-08-16T08:25:11.000Z</time>
      </trkpt>
      <trkpt lat="22.792471" lon="110.361453">
        <ele>119.071757</ele>
        <time>2026-08-16T08:25:12.000Z</time>
      </trkpt>
      <trkpt lat="22.792496" lon="110.361506">
        <ele>119.061456</ele>
        <time>2026-08-16T08:25:13.000Z</time>
      </trkpt>
      <trkpt lat="22.792521" lon="110.361559">
        <ele>119.051155</ele>
        <time>2026-08-16T08:25:14.000Z</time>
      </trkpt>
      <trkpt lat="22.792547" lon="110.361612">
        <ele>119.049924</ele>
        <time>2026-08-16T08:25:15.000Z</time>
      </trkpt>
      <trkpt lat="22.792572" lon="110.361665">
        <ele>119.056994</ele>
        <time>2026-08-16T08:25:16.000Z</time>
      </trkpt>
      <trkpt lat="22.792597" lon="110.361717">
        <ele>119.063959</ele>
        <time>2026-08-16T08:25:17.000Z</time>
      </trkpt>
      <trkpt lat="22.792622" lon="110.361770">
        <ele>119.071029</ele>
        <time>2026-08-16T08:25:18.000Z</time>
      </trkpt>
      <trkpt lat="22.792649" lon="110.361821">
        <ele>119.078014</ele>
        <time>2026-08-16T08:25:19.000Z</time>
      </trkpt>
      <trkpt lat="22.792677" lon="110.361872">
        <ele>119.085063</ele>
        <time>2026-08-16T08:25:20.000Z</time>
      </trkpt>
      <trkpt lat="22.792704" lon="110.361923">
        <ele>119.092047</ele>
        <time>2026-08-16T08:25:21.000Z</time>
      </trkpt>
      <trkpt lat="22.792730" lon="110.361974">
        <ele>119.098968</ele>
        <time>2026-08-16T08:25:22.000Z</time>
      </trkpt>
      <trkpt lat="22.792754" lon="110.362027">
        <ele>119.105981</ele>
        <time>2026-08-16T08:25:23.000Z</time>
      </trkpt>
      <trkpt lat="22.792777" lon="110.362080">
        <ele>119.112937</ele>
        <time>2026-08-16T08:25:24.000Z</time>
      </trkpt>
      <trkpt lat="22.792801" lon="110.362133">
        <ele>119.119950</ele>
        <time>2026-08-16T08:25:25.000Z</time>
      </trkpt>
      <trkpt lat="22.792826" lon="110.362185">
        <ele>119.126915</ele>
        <time>2026-08-16T08:25:26.000Z</time>
      </trkpt>
      <trkpt lat="22.792851" lon="110.362236">
        <ele>119.133774</ele>
        <time>2026-08-16T08:25:27.000Z</time>
      </trkpt>
      <trkpt lat="22.792877" lon="110.362287">
        <ele>119.140695</ele>
        <time>2026-08-16T08:25:28.000Z</time>
      </trkpt>
      <trkpt lat="22.792902" lon="110.362338">
        <ele>119.147555</ele>
        <time>2026-08-16T08:25:29.000Z</time>
      </trkpt>
      <trkpt lat="22.792927" lon="110.362389">
        <ele>119.154414</ele>
        <time>2026-08-16T08:25:30.000Z</time>
      </trkpt>
      <trkpt lat="22.792952" lon="110.362440">
        <ele>119.161274</ele>
        <time>2026-08-16T08:25:31.000Z</time>
      </trkpt>
      <trkpt lat="22.792977" lon="110.362492">
        <ele>119.168239</ele>
        <time>2026-08-16T08:25:32.000Z</time>
      </trkpt>
      <trkpt lat="22.793002" lon="110.362544">
        <ele>119.175203</ele>
        <time>2026-08-16T08:25:33.000Z</time>
      </trkpt>
      <trkpt lat="22.793028" lon="110.362596">
        <ele>119.182229</ele>
        <time>2026-08-16T08:25:34.000Z</time>
      </trkpt>
      <trkpt lat="22.793053" lon="110.362648">
        <ele>119.189193</ele>
        <time>2026-08-16T08:25:35.000Z</time>
      </trkpt>
      <trkpt lat="22.793078" lon="110.362701">
        <ele>119.196264</ele>
        <time>2026-08-16T08:25:36.000Z</time>
      </trkpt>
      <trkpt lat="22.793105" lon="110.362755">
        <ele>119.203559</ele>
        <time>2026-08-16T08:25:37.000Z</time>
      </trkpt>
      <trkpt lat="22.793130" lon="110.362808">
        <ele>119.210629</ele>
        <time>2026-08-16T08:25:38.000Z</time>
      </trkpt>
      <trkpt lat="22.793155" lon="110.362861">
        <ele>119.217699</ele>
        <time>2026-08-16T08:25:39.000Z</time>
      </trkpt>
      <trkpt lat="22.793181" lon="110.362914">
        <ele>119.224829</ele>
        <time>2026-08-16T08:25:40.000Z</time>
      </trkpt>
      <trkpt lat="22.793206" lon="110.362967">
        <ele>119.231899</ele>
        <time>2026-08-16T08:25:41.000Z</time>
      </trkpt>
      <trkpt lat="22.793231" lon="110.363020">
        <ele>119.238970</ele>
        <time>2026-08-16T08:25:42.000Z</time>
      </trkpt>
      <trkpt lat="22.793256" lon="110.363074">
        <ele>119.246146</ele>
        <time>2026-08-16T08:25:43.000Z</time>
      </trkpt>
      <trkpt lat="22.793281" lon="110.363127">
        <ele>119.253216</ele>
        <time>2026-08-16T08:25:44.000Z</time>
      </trkpt>
      <trkpt lat="22.793308" lon="110.363180">
        <ele>119.260407</ele>
        <time>2026-08-16T08:25:45.000Z</time>
      </trkpt>
      <trkpt lat="22.793333" lon="110.363233">
        <ele>119.267477</ele>
        <time>2026-08-16T08:25:46.000Z</time>
      </trkpt>
      <trkpt lat="22.793357" lon="110.363286">
        <ele>119.274490</ele>
        <time>2026-08-16T08:25:47.000Z</time>
      </trkpt>
      <trkpt lat="22.793381" lon="110.363339">
        <ele>119.291550</ele>
        <time>2026-08-16T08:25:48.000Z</time>
      </trkpt>
      <trkpt lat="22.793407" lon="110.363392">
        <ele>119.318532</ele>
        <time>2026-08-16T08:25:49.000Z</time>
      </trkpt>
      <trkpt lat="22.793433" lon="110.363445">
        <ele>119.345514</ele>
        <time>2026-08-16T08:25:50.000Z</time>
      </trkpt>
      <trkpt lat="22.793459" lon="110.363497">
        <ele>119.372101</ele>
        <time>2026-08-16T08:25:51.000Z</time>
      </trkpt>
      <trkpt lat="22.793487" lon="110.363545">
        <ele>119.397629</ele>
        <time>2026-08-16T08:25:52.000Z</time>
      </trkpt>
      <trkpt lat="22.793513" lon="110.363593">
        <ele>119.422650</ele>
        <time>2026-08-16T08:25:53.000Z</time>
      </trkpt>
      <trkpt lat="22.793536" lon="110.363639">
        <ele>119.446168</ele>
        <time>2026-08-16T08:25:54.000Z</time>
      </trkpt>
      <trkpt lat="22.793558" lon="110.363684">
        <ele>119.469061</ele>
        <time>2026-08-16T08:25:55.000Z</time>
      </trkpt>
      <trkpt lat="22.793578" lon="110.363728">
        <ele>119.491109</ele>
        <time>2026-08-16T08:25:56.000Z</time>
      </trkpt>
      <trkpt lat="22.793598" lon="110.363772">
        <ele>119.513156</ele>
        <time>2026-08-16T08:25:57.000Z</time>
      </trkpt>
      <trkpt lat="22.793617" lon="110.363817">
        <ele>119.535401</ele>
        <time>2026-08-16T08:25:58.000Z</time>
      </trkpt>
      <trkpt lat="22.793637" lon="110.363864">
        <ele>119.558666</ele>
        <time>2026-08-16T08:25:59.000Z</time>
      </trkpt>
      <trkpt lat="22.793659" lon="110.363912">
        <ele>119.582757</ele>
        <time>2026-08-16T08:26:00.000Z</time>
      </trkpt>
      <trkpt lat="22.793678" lon="110.363959">
        <ele>119.605822</ele>
        <time>2026-08-16T08:26:01.000Z</time>
      </trkpt>
      <trkpt lat="22.793698" lon="110.364006">
        <ele>119.629087</ele>
        <time>2026-08-16T08:26:02.000Z</time>
      </trkpt>
      <trkpt lat="22.793718" lon="110.364055">
        <ele>119.653171</ele>
        <time>2026-08-16T08:26:03.000Z</time>
      </trkpt>
      <trkpt lat="22.793740" lon="110.364104">
        <ele>119.677666</ele>
        <time>2026-08-16T08:26:04.000Z</time>
      </trkpt>
      <trkpt lat="22.793761" lon="110.364152">
        <ele>119.701544</ele>
        <time>2026-08-16T08:26:05.000Z</time>
      </trkpt>
      <trkpt lat="22.793782" lon="110.364198">
        <ele>119.724614</ele>
        <time>2026-08-16T08:26:06.000Z</time>
      </trkpt>
      <trkpt lat="22.793805" lon="110.364245">
        <ele>119.748529</ele>
        <time>2026-08-16T08:26:07.000Z</time>
      </trkpt>
      <trkpt lat="22.793827" lon="110.364294">
        <ele>119.773024</ele>
        <time>2026-08-16T08:26:08.000Z</time>
      </trkpt>
      <trkpt lat="22.793852" lon="110.364343">
        <ele>119.798193</ele>
        <time>2026-08-16T08:26:09.000Z</time>
      </trkpt>
      <trkpt lat="22.793877" lon="110.364392">
        <ele>119.823363</ele>
        <time>2026-08-16T08:26:10.000Z</time>
      </trkpt>
      <trkpt lat="22.793902" lon="110.364441">
        <ele>119.848532</ele>
        <time>2026-08-16T08:26:11.000Z</time>
      </trkpt>
      <trkpt lat="22.793927" lon="110.364491">
        <ele>119.874096</ele>
        <time>2026-08-16T08:26:12.000Z</time>
      </trkpt>
      <trkpt lat="22.793951" lon="110.364542">
        <ele>119.899830</ele>
        <time>2026-08-16T08:26:13.000Z</time>
      </trkpt>
      <trkpt lat="22.793975" lon="110.364593">
        <ele>119.925565</ele>
        <time>2026-08-16T08:26:14.000Z</time>
      </trkpt>
      <trkpt lat="22.794001" lon="110.364644">
        <ele>119.951757</ele>
        <time>2026-08-16T08:26:15.000Z</time>
      </trkpt>
      <trkpt lat="22.794028" lon="110.364693">
        <ele>119.977413</ele>
        <time>2026-08-16T08:26:16.000Z</time>
      </trkpt>
      <trkpt lat="22.794054" lon="110.364745">
        <ele>120.003999</ele>
        <time>2026-08-16T08:26:17.000Z</time>
      </trkpt>
      <trkpt lat="22.794079" lon="110.364796">
        <ele>120.029958</ele>
        <time>2026-08-16T08:26:18.000Z</time>
      </trkpt>
      <trkpt lat="22.794103" lon="110.364846">
        <ele>120.055293</ele>
        <time>2026-08-16T08:26:19.000Z</time>
      </trkpt>
      <trkpt lat="22.794128" lon="110.364898">
        <ele>120.081651</ele>
        <time>2026-08-16T08:26:20.000Z</time>
      </trkpt>
      <trkpt lat="22.794155" lon="110.364952">
        <ele>120.109259</ele>
        <time>2026-08-16T08:26:21.000Z</time>
      </trkpt>
      <trkpt lat="22.794184" lon="110.365009">
        <ele>120.138519</ele>
        <time>2026-08-16T08:26:22.000Z</time>
      </trkpt>
      <trkpt lat="22.794214" lon="110.365067">
        <ele>120.125501</ele>
        <time>2026-08-16T08:26:23.000Z</time>
      </trkpt>
      <trkpt lat="22.794244" lon="110.365127">
        <ele>120.059920</ele>
        <time>2026-08-16T08:26:24.000Z</time>
      </trkpt>
      <trkpt lat="22.794276" lon="110.365192">
        <ele>119.989120</ele>
        <time>2026-08-16T08:26:25.000Z</time>
      </trkpt>
      <trkpt lat="22.794310" lon="110.365260">
        <ele>119.914794</ele>
        <time>2026-08-16T08:26:26.000Z</time>
      </trkpt>
      <trkpt lat="22.794342" lon="110.365326">
        <ele>119.843145</ele>
        <time>2026-08-16T08:26:27.000Z</time>
      </trkpt>
      <trkpt lat="22.794375" lon="110.365393">
        <ele>119.770159</ele>
        <time>2026-08-16T08:26:28.000Z</time>
      </trkpt>
      <trkpt lat="22.794405" lon="110.365455">
        <ele>119.702882</ele>
        <time>2026-08-16T08:26:29.000Z</time>
      </trkpt>
      <trkpt lat="22.794435" lon="110.365517">
        <ele>119.635605</ele>
        <time>2026-08-16T08:26:30.000Z</time>
      </trkpt>
      <trkpt lat="22.794466" lon="110.365582">
        <ele>119.565290</ele>
        <time>2026-08-16T08:26:31.000Z</time>
      </trkpt>
      <trkpt lat="22.794497" lon="110.365647">
        <ele>119.494975</ele>
        <time>2026-08-16T08:26:32.000Z</time>
      </trkpt>
      <trkpt lat="22.794528" lon="110.365712">
        <ele>119.424660</ele>
        <time>2026-08-16T08:26:33.000Z</time>
      </trkpt>
      <trkpt lat="22.794559" lon="110.365777">
        <ele>119.354345</ele>
        <time>2026-08-16T08:26:34.000Z</time>
      </trkpt>
      <trkpt lat="22.794590" lon="110.365839">
        <ele>119.286578</ele>
        <time>2026-08-16T08:26:35.000Z</time>
      </trkpt>
      <trkpt lat="22.794622" lon="110.365903">
        <ele>119.216624</ele>
        <time>2026-08-16T08:26:36.000Z</time>
      </trkpt>
      <trkpt lat="22.794655" lon="110.365968">
        <ele>119.145327</ele>
        <time>2026-08-16T08:26:37.000Z</time>
      </trkpt>
      <trkpt lat="22.794687" lon="110.366031">
        <ele>119.076217</ele>
        <time>2026-08-16T08:26:38.000Z</time>
      </trkpt>
      <trkpt lat="22.794717" lon="110.366095">
        <ele>119.007232</ele>
        <time>2026-08-16T08:26:39.000Z</time>
      </trkpt>
      <trkpt lat="22.794746" lon="110.366161">
        <ele>118.936985</ele>
        <time>2026-08-16T08:26:40.000Z</time>
      </trkpt>
      <trkpt lat="22.794776" lon="110.366227">
        <ele>118.866282</ele>
        <time>2026-08-16T08:26:41.000Z</time>
      </trkpt>
      <trkpt lat="22.794805" lon="110.366289">
        <ele>118.799483</ele>
        <time>2026-08-16T08:26:42.000Z</time>
      </trkpt>
      <trkpt lat="22.794836" lon="110.366351">
        <ele>118.731716</ele>
        <time>2026-08-16T08:26:43.000Z</time>
      </trkpt>
      <trkpt lat="22.794866" lon="110.366417">
        <ele>118.661013</ele>
        <time>2026-08-16T08:26:44.000Z</time>
      </trkpt>
      <trkpt lat="22.794897" lon="110.366484">
        <ele>118.588986</ele>
        <time>2026-08-16T08:26:45.000Z</time>
      </trkpt>
      <trkpt lat="22.794929" lon="110.366550">
        <ele>118.517338</ele>
        <time>2026-08-16T08:26:46.000Z</time>
      </trkpt>
      <trkpt lat="22.794961" lon="110.366615">
        <ele>118.446538</ele>
        <time>2026-08-16T08:26:47.000Z</time>
      </trkpt>
      <trkpt lat="22.794992" lon="110.366680">
        <ele>118.376223</ele>
        <time>2026-08-16T08:26:48.000Z</time>
      </trkpt>
      <trkpt lat="22.795021" lon="110.366745">
        <ele>118.306842</ele>
        <time>2026-08-16T08:26:49.000Z</time>
      </trkpt>
      <trkpt lat="22.795051" lon="110.366807">
        <ele>118.316075</ele>
        <time>2026-08-16T08:26:50.000Z</time>
      </trkpt>
      <trkpt lat="22.795081" lon="110.366867">
        <ele>118.374052</ele>
        <time>2026-08-16T08:26:51.000Z</time>
      </trkpt>
      <trkpt lat="22.795109" lon="110.366929">
        <ele>118.432693</ele>
        <time>2026-08-16T08:26:52.000Z</time>
      </trkpt>
      <trkpt lat="22.795138" lon="110.366991">
        <ele>118.491746</ele>
        <time>2026-08-16T08:26:53.000Z</time>
      </trkpt>
      <trkpt lat="22.795167" lon="110.367051">
        <ele>118.549289</ele>
        <time>2026-08-16T08:26:54.000Z</time>
      </trkpt>
      <trkpt lat="22.795194" lon="110.367112">
        <ele>118.606765</ele>
        <time>2026-08-16T08:26:55.000Z</time>
      </trkpt>
      <trkpt lat="22.795224" lon="110.367171">
        <ele>118.663996</ele>
        <time>2026-08-16T08:26:56.000Z</time>
      </trkpt>
      <trkpt lat="22.795253" lon="110.367231">
        <ele>118.721539</ele>
        <time>2026-08-16T08:26:57.000Z</time>
      </trkpt>
      <trkpt lat="22.795281" lon="110.367290">
        <ele>118.777903</ele>
        <time>2026-08-16T08:26:58.000Z</time>
      </trkpt>
      <trkpt lat="22.795309" lon="110.367348">
        <ele>118.833514</ele>
        <time>2026-08-16T08:26:59.000Z</time>
      </trkpt>
      <trkpt lat="22.795338" lon="110.367406">
        <ele>118.889558</ele>
        <time>2026-08-16T08:27:00.000Z</time>
      </trkpt>
      <trkpt lat="22.795365" lon="110.367465">
        <ele>118.945507</ele>
        <time>2026-08-16T08:27:01.000Z</time>
      </trkpt>
      <trkpt lat="22.795393" lon="110.367522">
        <ele>119.000366</ele>
        <time>2026-08-16T08:27:02.000Z</time>
      </trkpt>
      <trkpt lat="22.795418" lon="110.367579">
        <ele>119.053982</ele>
        <time>2026-08-16T08:27:03.000Z</time>
      </trkpt>
      <trkpt lat="22.795444" lon="110.367634">
        <ele>119.106482</ele>
        <time>2026-08-16T08:27:04.000Z</time>
      </trkpt>
      <trkpt lat="22.795471" lon="110.367689">
        <ele>119.159409</ele>
        <time>2026-08-16T08:27:05.000Z</time>
      </trkpt>
      <trkpt lat="22.795497" lon="110.367745">
        <ele>119.212667</ele>
        <time>2026-08-16T08:27:06.000Z</time>
      </trkpt>
      <trkpt lat="22.795522" lon="110.367802">
        <ele>119.266282</ele>
        <time>2026-08-16T08:27:07.000Z</time>
      </trkpt>
      <trkpt lat="22.795547" lon="110.367861">
        <ele>119.321436</ele>
        <time>2026-08-16T08:27:08.000Z</time>
      </trkpt>
      <trkpt lat="22.795573" lon="110.367919">
        <ele>119.376216</ele>
        <time>2026-08-16T08:27:09.000Z</time>
      </trkpt>
      <trkpt lat="22.795600" lon="110.367976">
        <ele>119.430648</ele>
        <time>2026-08-16T08:27:10.000Z</time>
      </trkpt>
      <trkpt lat="22.795626" lon="110.368031">
        <ele>119.483148</ele>
        <time>2026-08-16T08:27:11.000Z</time>
      </trkpt>
      <trkpt lat="22.795651" lon="110.368088">
        <ele>119.536764</ele>
        <time>2026-08-16T08:27:12.000Z</time>
      </trkpt>
      <trkpt lat="22.795677" lon="110.368144">
        <ele>119.590021</ele>
        <time>2026-08-16T08:27:13.000Z</time>
      </trkpt>
      <trkpt lat="22.795704" lon="110.368199">
        <ele>119.642948</ele>
        <time>2026-08-16T08:27:14.000Z</time>
      </trkpt>
      <trkpt lat="22.795731" lon="110.368254">
        <ele>119.695875</ele>
        <time>2026-08-16T08:27:15.000Z</time>
      </trkpt>
      <trkpt lat="22.795758" lon="110.368308">
        <ele>119.748054</ele>
        <time>2026-08-16T08:27:16.000Z</time>
      </trkpt>
      <trkpt lat="22.795785" lon="110.368361">
        <ele>119.799488</ele>
        <time>2026-08-16T08:27:17.000Z</time>
      </trkpt>
      <trkpt lat="22.795813" lon="110.368414">
        <ele>119.851373</ele>
        <time>2026-08-16T08:27:18.000Z</time>
      </trkpt>
      <trkpt lat="22.795840" lon="110.368466">
        <ele>119.902065</ele>
        <time>2026-08-16T08:27:19.000Z</time>
      </trkpt>
      <trkpt lat="22.795866" lon="110.368519">
        <ele>119.991190</ele>
        <time>2026-08-16T08:27:20.000Z</time>
      </trkpt>
      <trkpt lat="22.795891" lon="110.368571">
        <ele>120.162001</ele>
        <time>2026-08-16T08:27:21.000Z</time>
      </trkpt>
      <trkpt lat="22.795916" lon="110.368623">
        <ele>120.332811</ele>
        <time>2026-08-16T08:27:22.000Z</time>
      </trkpt>
      <trkpt lat="22.795940" lon="110.368674">
        <ele>120.499585</ele>
        <time>2026-08-16T08:27:23.000Z</time>
      </trkpt>
      <trkpt lat="22.795962" lon="110.368719">
        <ele>120.647939</ele>
        <time>2026-08-16T08:27:24.000Z</time>
      </trkpt>
      <trkpt lat="22.795983" lon="110.368758">
        <ele>120.779484</ele>
        <time>2026-08-16T08:27:25.000Z</time>
      </trkpt>
      <trkpt lat="22.796003" lon="110.368792">
        <ele>120.896953</ele>
        <time>2026-08-16T08:27:26.000Z</time>
      </trkpt>
      <trkpt lat="22.796022" lon="110.368822">
        <ele>121.002962</ele>
        <time>2026-08-16T08:27:27.000Z</time>
      </trkpt>
      <trkpt lat="22.796037" lon="110.368849">
        <ele>121.094776</ele>
        <time>2026-08-16T08:27:28.000Z</time>
      </trkpt>
      <trkpt lat="22.796049" lon="110.368876">
        <ele>121.182076</ele>
        <time>2026-08-16T08:27:29.000Z</time>
      </trkpt>
      <trkpt lat="22.796058" lon="110.368903">
        <ele>121.265697</ele>
        <time>2026-08-16T08:27:30.000Z</time>
      </trkpt>
      <trkpt lat="22.796072" lon="110.368924">
        <ele>121.341178</ele>
        <time>2026-08-16T08:27:31.000Z</time>
      </trkpt>
      <trkpt lat="22.796086" lon="110.368943">
        <ele>121.412021</ele>
        <time>2026-08-16T08:27:32.000Z</time>
      </trkpt>
      <trkpt lat="22.796099" lon="110.368965">
        <ele>121.488130</ele>
        <time>2026-08-16T08:27:33.000Z</time>
      </trkpt>
      <trkpt lat="22.796112" lon="110.368988">
        <ele>121.566706</ele>
        <time>2026-08-16T08:27:34.000Z</time>
      </trkpt>
      <trkpt lat="22.796118" lon="110.369009">
        <ele>121.630740</ele>
        <time>2026-08-16T08:27:35.000Z</time>
      </trkpt>
      <trkpt lat="22.796126" lon="110.369032">
        <ele>121.702338</ele>
        <time>2026-08-16T08:27:36.000Z</time>
      </trkpt>
      <trkpt lat="22.796142" lon="110.369055">
        <ele>121.786258</ele>
        <time>2026-08-16T08:27:37.000Z</time>
      </trkpt>
      <trkpt lat="22.796158" lon="110.369074">
        <ele>121.861209</ele>
        <time>2026-08-16T08:27:38.000Z</time>
      </trkpt>
      <trkpt lat="22.796176" lon="110.369093">
        <ele>121.940558</ele>
        <time>2026-08-16T08:27:39.000Z</time>
      </trkpt>
      <trkpt lat="22.796195" lon="110.369115">
        <ele>122.028359</ele>
        <time>2026-08-16T08:27:40.000Z</time>
      </trkpt>
      <trkpt lat="22.796213" lon="110.369137">
        <ele>122.114030</ele>
        <time>2026-08-16T08:27:41.000Z</time>
      </trkpt>
      <trkpt lat="22.796232" lon="110.369158">
        <ele>122.199729</ele>
        <time>2026-08-16T08:27:42.000Z</time>
      </trkpt>
      <trkpt lat="22.796249" lon="110.369181">
        <ele>122.285589</ele>
        <time>2026-08-16T08:27:43.000Z</time>
      </trkpt>
      <trkpt lat="22.796263" lon="110.369199">
        <ele>122.354181</ele>
        <time>2026-08-16T08:27:44.000Z</time>
      </trkpt>
      <trkpt lat="22.796274" lon="110.369218">
        <ele>122.419527</ele>
        <time>2026-08-16T08:27:45.000Z</time>
      </trkpt>
      <trkpt lat="22.796288" lon="110.369238">
        <ele>122.492667</ele>
        <time>2026-08-16T08:27:46.000Z</time>
      </trkpt>
      <trkpt lat="22.796304" lon="110.369263">
        <ele>122.581307</ele>
        <time>2026-08-16T08:27:47.000Z</time>
      </trkpt>
      <trkpt lat="22.796314" lon="110.369286">
        <ele>122.655371</ele>
        <time>2026-08-16T08:27:48.000Z</time>
      </trkpt>
      <trkpt lat="22.796328" lon="110.369303">
        <ele>122.721763</ele>
        <time>2026-08-16T08:27:49.000Z</time>
      </trkpt>
      <trkpt lat="22.796341" lon="110.369321">
        <ele>122.788361</ele>
        <time>2026-08-16T08:27:50.000Z</time>
      </trkpt>
      <trkpt lat="22.796349" lon="110.369342">
        <ele>122.854541</ele>
        <time>2026-08-16T08:27:51.000Z</time>
      </trkpt>
      <trkpt lat="22.796361" lon="110.369360">
        <ele>122.919239</ele>
        <time>2026-08-16T08:27:52.000Z</time>
      </trkpt>
      <trkpt lat="22.796375" lon="110.369383">
        <ele>122.999512</ele>
        <time>2026-08-16T08:27:53.000Z</time>
      </trkpt>
      <trkpt lat="22.796389" lon="110.369407">
        <ele>123.082231</ele>
        <time>2026-08-16T08:27:54.000Z</time>
      </trkpt>
      <trkpt lat="22.796401" lon="110.369431">
        <ele>123.161751</ele>
        <time>2026-08-16T08:27:55.000Z</time>
      </trkpt>
      <trkpt lat="22.796414" lon="110.369451">
        <ele>123.233025</ele>
        <time>2026-08-16T08:27:56.000Z</time>
      </trkpt>
      <trkpt lat="22.796434" lon="110.369471">
        <ele>123.318965</ele>
        <time>2026-08-16T08:27:57.000Z</time>
      </trkpt>
      <trkpt lat="22.796452" lon="110.369492">
        <ele>123.402481</ele>
        <time>2026-08-16T08:27:58.000Z</time>
      </trkpt>
      <trkpt lat="22.796471" lon="110.369515">
        <ele>123.492429</ele>
        <time>2026-08-16T08:27:59.000Z</time>
      </trkpt>
      <trkpt lat="22.796491" lon="110.369548">
        <ele>123.607453</ele>
        <time>2026-08-16T08:28:00.000Z</time>
      </trkpt>
      <trkpt lat="22.796519" lon="110.369580">
        <ele>123.735951</ele>
        <time>2026-08-16T08:28:01.000Z</time>
      </trkpt>
      <trkpt lat="22.796535" lon="110.369603">
        <ele>123.819871</ele>
        <time>2026-08-16T08:28:02.000Z</time>
      </trkpt>
      <trkpt lat="22.796548" lon="110.369622">
        <ele>123.888785</ele>
        <time>2026-08-16T08:28:03.000Z</time>
      </trkpt>
      <trkpt lat="22.796566" lon="110.369641">
        <ele>123.968134</ele>
        <time>2026-08-16T08:28:04.000Z</time>
      </trkpt>
      <trkpt lat="22.796586" lon="110.369665">
        <ele>124.062361</ele>
        <time>2026-08-16T08:28:05.000Z</time>
      </trkpt>
      <trkpt lat="22.796610" lon="110.369692">
        <ele>124.171600</ele>
        <time>2026-08-16T08:28:06.000Z</time>
      </trkpt>
      <trkpt lat="22.796637" lon="110.369728">
        <ele>124.306767</ele>
        <time>2026-08-16T08:28:07.000Z</time>
      </trkpt>
      <trkpt lat="22.796662" lon="110.369757">
        <ele>124.422407</ele>
        <time>2026-08-16T08:28:08.000Z</time>
      </trkpt>
      <trkpt lat="22.796686" lon="110.369788">
        <ele>124.540310</ele>
        <time>2026-08-16T08:28:09.000Z</time>
      </trkpt>
      <trkpt lat="22.796710" lon="110.369820">
        <ele>124.660459</ele>
        <time>2026-08-16T08:28:10.000Z</time>
      </trkpt>
      <trkpt lat="22.796734" lon="110.369854">
        <ele>124.785180</ele>
        <time>2026-08-16T08:28:11.000Z</time>
      </trkpt>
      <trkpt lat="22.796754" lon="110.369881">
        <ele>124.886059</ele>
        <time>2026-08-16T08:28:12.000Z</time>
      </trkpt>
      <trkpt lat="22.796776" lon="110.369916">
        <ele>125.009438</ele>
        <time>2026-08-16T08:28:13.000Z</time>
      </trkpt>
      <trkpt lat="22.796800" lon="110.369948">
        <ele>125.129586</ele>
        <time>2026-08-16T08:28:14.000Z</time>
      </trkpt>
      <trkpt lat="22.796818" lon="110.369979">
        <ele>125.236291</ele>
        <time>2026-08-16T08:28:15.000Z</time>
      </trkpt>
      <trkpt lat="22.796836" lon="110.370016">
        <ele>125.358139</ele>
        <time>2026-08-16T08:28:16.000Z</time>
      </trkpt>
      <trkpt lat="22.796857" lon="110.370054">
        <ele>125.487178</ele>
        <time>2026-08-16T08:28:17.000Z</time>
      </trkpt>
      <trkpt lat="22.796877" lon="110.370092">
        <ele>125.614621</ele>
        <time>2026-08-16T08:28:18.000Z</time>
      </trkpt>
      <trkpt lat="22.796905" lon="110.370129">
        <ele>125.617912</ele>
        <time>2026-08-16T08:28:19.000Z</time>
      </trkpt>
      <trkpt lat="22.796932" lon="110.370171">
        <ele>125.615756</ele>
        <time>2026-08-16T08:28:20.000Z</time>
      </trkpt>
      <trkpt lat="22.796967" lon="110.370215">
        <ele>125.613309</ele>
        <time>2026-08-16T08:28:21.000Z</time>
      </trkpt>
      <trkpt lat="22.797003" lon="110.370259">
        <ele>125.610831</ele>
        <time>2026-08-16T08:28:22.000Z</time>
      </trkpt>
      <trkpt lat="22.797039" lon="110.370303">
        <ele>125.608354</ele>
        <time>2026-08-16T08:28:23.000Z</time>
      </trkpt>
      <trkpt lat="22.797078" lon="110.370346">
        <ele>125.605814</ele>
        <time>2026-08-16T08:28:24.000Z</time>
      </trkpt>
      <trkpt lat="22.797115" lon="110.370388">
        <ele>125.603368</ele>
        <time>2026-08-16T08:28:25.000Z</time>
      </trkpt>
      <trkpt lat="22.797147" lon="110.370427">
        <ele>125.601169</ele>
        <time>2026-08-16T08:28:26.000Z</time>
      </trkpt>
      <trkpt lat="22.797187" lon="110.370476">
        <ele>125.598413</ele>
        <time>2026-08-16T08:28:27.000Z</time>
      </trkpt>
      <trkpt lat="22.797226" lon="110.370528">
        <ele>125.595590</ele>
        <time>2026-08-16T08:28:28.000Z</time>
      </trkpt>
      <trkpt lat="22.797271" lon="110.370575">
        <ele>125.592737</ele>
        <time>2026-08-16T08:28:29.000Z</time>
      </trkpt>
      <trkpt lat="22.797312" lon="110.370620">
        <ele>125.590073</ele>
        <time>2026-08-16T08:28:30.000Z</time>
      </trkpt>
      <trkpt lat="22.797343" lon="110.370658">
        <ele>125.587936</ele>
        <time>2026-08-16T08:28:31.000Z</time>
      </trkpt>
      <trkpt lat="22.797372" lon="110.370700">
        <ele>125.585726</ele>
        <time>2026-08-16T08:28:32.000Z</time>
      </trkpt>
      <trkpt lat="22.797405" lon="110.370743">
        <ele>125.583370</ele>
        <time>2026-08-16T08:28:33.000Z</time>
      </trkpt>
      <trkpt lat="22.797434" lon="110.370791">
        <ele>125.580953</ele>
        <time>2026-08-16T08:28:34.000Z</time>
      </trkpt>
      <trkpt lat="22.797463" lon="110.370839">
        <ele>125.578537</ele>
        <time>2026-08-16T08:28:35.000Z</time>
      </trkpt>
      <trkpt lat="22.797502" lon="110.370881">
        <ele>125.576027</ele>
        <time>2026-08-16T08:28:36.000Z</time>
      </trkpt>
      <trkpt lat="22.797533" lon="110.370922">
        <ele>125.573794</ele>
        <time>2026-08-16T08:28:37.000Z</time>
      </trkpt>
      <trkpt lat="22.797565" lon="110.370974">
        <ele>125.571161</ele>
        <time>2026-08-16T08:28:38.000Z</time>
      </trkpt>
      <trkpt lat="22.797595" lon="110.371022">
        <ele>125.568719</ele>
        <time>2026-08-16T08:28:39.000Z</time>
      </trkpt>
      <trkpt lat="22.797624" lon="110.371071">
        <ele>125.566267</ele>
        <time>2026-08-16T08:28:40.000Z</time>
      </trkpt>
      <trkpt lat="22.797652" lon="110.371118">
        <ele>125.563910</ele>
        <time>2026-08-16T08:28:41.000Z</time>
      </trkpt>
      <trkpt lat="22.797683" lon="110.371164">
        <ele>125.561511</ele>
        <time>2026-08-16T08:28:42.000Z</time>
      </trkpt>
      <trkpt lat="22.797715" lon="110.371209">
        <ele>125.559118</ele>
        <time>2026-08-16T08:28:43.000Z</time>
      </trkpt>
      <trkpt lat="22.797745" lon="110.371256">
        <ele>125.556711</ele>
        <time>2026-08-16T08:28:44.000Z</time>
      </trkpt>
      <trkpt lat="22.797775" lon="110.371304">
        <ele>125.554269</ele>
        <time>2026-08-16T08:28:45.000Z</time>
      </trkpt>
      <trkpt lat="22.797807" lon="110.371347">
        <ele>125.551942</ele>
        <time>2026-08-16T08:28:46.000Z</time>
      </trkpt>
      <trkpt lat="22.797837" lon="110.371386">
        <ele>125.549803</ele>
        <time>2026-08-16T08:28:47.000Z</time>
      </trkpt>
      <trkpt lat="22.797869" lon="110.371422">
        <ele>125.547697</ele>
        <time>2026-08-16T08:28:48.000Z</time>
      </trkpt>
      <trkpt lat="22.797900" lon="110.371462">
        <ele>125.545496</ele>
        <time>2026-08-16T08:28:49.000Z</time>
      </trkpt>
      <trkpt lat="22.797930" lon="110.371499">
        <ele>125.543421</ele>
        <time>2026-08-16T08:28:50.000Z</time>
      </trkpt>
      <trkpt lat="22.797958" lon="110.371536">
        <ele>125.541406</ele>
        <time>2026-08-16T08:28:51.000Z</time>
      </trkpt>
      <trkpt lat="22.797984" lon="110.371564">
        <ele>125.539732</ele>
        <time>2026-08-16T08:28:52.000Z</time>
      </trkpt>
      <trkpt lat="22.798016" lon="110.371597">
        <ele>125.537715</ele>
        <time>2026-08-16T08:28:53.000Z</time>
      </trkpt>
      <trkpt lat="22.798047" lon="110.371630">
        <ele>125.519037</ele>
        <time>2026-08-16T08:28:54.000Z</time>
      </trkpt>
      <trkpt lat="22.798078" lon="110.371668">
        <ele>125.498725</ele>
        <time>2026-08-16T08:28:55.000Z</time>
      </trkpt>
      <trkpt lat="22.798113" lon="110.371707">
        <ele>125.476937</ele>
        <time>2026-08-16T08:28:56.000Z</time>
      </trkpt>
      <trkpt lat="22.798145" lon="110.371746">
        <ele>125.456037</ele>
        <time>2026-08-16T08:28:57.000Z</time>
      </trkpt>
      <trkpt lat="22.798178" lon="110.371787">
        <ele>125.434250</ele>
        <time>2026-08-16T08:28:58.000Z</time>
      </trkpt>
      <trkpt lat="22.798209" lon="110.371829">
        <ele>125.412712</ele>
        <time>2026-08-16T08:28:59.000Z</time>
      </trkpt>
      <trkpt lat="22.798238" lon="110.371871">
        <ele>125.391707</ele>
        <time>2026-08-16T08:29:00.000Z</time>
      </trkpt>
      <trkpt lat="22.798268" lon="110.371911">
        <ele>125.371065</ele>
        <time>2026-08-16T08:29:01.000Z</time>
      </trkpt>
      <trkpt lat="22.798298" lon="110.371953">
        <ele>125.349796</ele>
        <time>2026-08-16T08:29:02.000Z</time>
      </trkpt>
      <trkpt lat="22.798336" lon="110.371993">
        <ele>125.326804</ele>
        <time>2026-08-16T08:29:03.000Z</time>
      </trkpt>
      <trkpt lat="22.798362" lon="110.372039">
        <ele>125.305204</ele>
        <time>2026-08-16T08:29:04.000Z</time>
      </trkpt>
      <trkpt lat="22.798390" lon="110.372088">
        <ele>125.282127</ele>
        <time>2026-08-16T08:29:05.000Z</time>
      </trkpt>
      <trkpt lat="22.798413" lon="110.372137">
        <ele>125.260116</ele>
        <time>2026-08-16T08:29:06.000Z</time>
      </trkpt>
      <trkpt lat="22.798439" lon="110.372184">
        <ele>125.238174</ele>
        <time>2026-08-16T08:29:07.000Z</time>
      </trkpt>
      <trkpt lat="22.798466" lon="110.372232">
        <ele>125.215665</ele>
        <time>2026-08-16T08:29:08.000Z</time>
      </trkpt>
      <trkpt lat="22.798491" lon="110.372285">
        <ele>125.191834</ele>
        <time>2026-08-16T08:29:09.000Z</time>
      </trkpt>
      <trkpt lat="22.798519" lon="110.372337">
        <ele>125.167727</ele>
        <time>2026-08-16T08:29:10.000Z</time>
      </trkpt>
      <trkpt lat="22.798548" lon="110.372387">
        <ele>125.144080</ele>
        <time>2026-08-16T08:29:11.000Z</time>
      </trkpt>
      <trkpt lat="22.798575" lon="110.372442">
        <ele>125.119137</ele>
        <time>2026-08-16T08:29:12.000Z</time>
      </trkpt>
      <trkpt lat="22.798606" lon="110.372506">
        <ele>125.090197</ele>
        <time>2026-08-16T08:29:13.000Z</time>
      </trkpt>
      <trkpt lat="22.798637" lon="110.372567">
        <ele>125.062314</ele>
        <time>2026-08-16T08:29:14.000Z</time>
      </trkpt>
      <trkpt lat="22.798665" lon="110.372621">
        <ele>125.037513</ele>
        <time>2026-08-16T08:29:15.000Z</time>
      </trkpt>
      <trkpt lat="22.798699" lon="110.372678">
        <ele>125.010336</ele>
        <time>2026-08-16T08:29:16.000Z</time>
      </trkpt>
      <trkpt lat="22.798730" lon="110.372735">
        <ele>124.983844</ele>
        <time>2026-08-16T08:29:17.000Z</time>
      </trkpt>
      <trkpt lat="22.798760" lon="110.372791">
        <ele>124.957917</ele>
        <time>2026-08-16T08:29:18.000Z</time>
      </trkpt>
      <trkpt lat="22.798790" lon="110.372851">
        <ele>124.930594</ele>
        <time>2026-08-16T08:29:19.000Z</time>
      </trkpt>
      <trkpt lat="22.798817" lon="110.372912">
        <ele>124.903507</ele>
        <time>2026-08-16T08:29:20.000Z</time>
      </trkpt>
      <trkpt lat="22.798845" lon="110.372973">
        <ele>124.876229</ele>
        <time>2026-08-16T08:29:21.000Z</time>
      </trkpt>
      <trkpt lat="22.798877" lon="110.373031">
        <ele>124.849171</ele>
        <time>2026-08-16T08:29:22.000Z</time>
      </trkpt>
      <trkpt lat="22.798909" lon="110.373091">
        <ele>124.821423</ele>
        <time>2026-08-16T08:29:23.000Z</time>
      </trkpt>
      <trkpt lat="22.798938" lon="110.373150">
        <ele>124.794658</ele>
        <time>2026-08-16T08:29:24.000Z</time>
      </trkpt>
      <trkpt lat="22.798966" lon="110.373208">
        <ele>124.768450</ele>
        <time>2026-08-16T08:29:25.000Z</time>
      </trkpt>
      <trkpt lat="22.798994" lon="110.373270">
        <ele>124.753289</ele>
        <time>2026-08-16T08:29:26.000Z</time>
      </trkpt>
      <trkpt lat="22.799024" lon="110.373328">
        <ele>124.747602</ele>
        <time>2026-08-16T08:29:27.000Z</time>
      </trkpt>
      <trkpt lat="22.799055" lon="110.373388">
        <ele>124.741720</ele>
        <time>2026-08-16T08:29:28.000Z</time>
      </trkpt>
      <trkpt lat="22.799086" lon="110.373449">
        <ele>124.735764</ele>
        <time>2026-08-16T08:29:29.000Z</time>
      </trkpt>
      <trkpt lat="22.799117" lon="110.373510">
        <ele>124.729807</ele>
        <time>2026-08-16T08:29:30.000Z</time>
      </trkpt>
      <trkpt lat="22.799148" lon="110.373569">
        <ele>124.724000</ele>
        <time>2026-08-16T08:29:31.000Z</time>
      </trkpt>
      <trkpt lat="22.799177" lon="110.373629">
        <ele>124.718207</ele>
        <time>2026-08-16T08:29:32.000Z</time>
      </trkpt>
      <trkpt lat="22.799210" lon="110.373691">
        <ele>124.712085</ele>
        <time>2026-08-16T08:29:33.000Z</time>
      </trkpt>
      <trkpt lat="22.799243" lon="110.373751">
        <ele>124.706110</ele>
        <time>2026-08-16T08:29:34.000Z</time>
      </trkpt>
      <trkpt lat="22.799275" lon="110.373813">
        <ele>124.700034</ele>
        <time>2026-08-16T08:29:35.000Z</time>
      </trkpt>
      <trkpt lat="22.799306" lon="110.373878">
        <ele>124.693776</ele>
        <time>2026-08-16T08:29:36.000Z</time>
      </trkpt>
      <trkpt lat="22.799338" lon="110.373943">
        <ele>124.687475</ele>
        <time>2026-08-16T08:29:37.000Z</time>
      </trkpt>
      <trkpt lat="22.799372" lon="110.374006">
        <ele>124.681232</ele>
        <time>2026-08-16T08:29:38.000Z</time>
      </trkpt>
      <trkpt lat="22.799404" lon="110.374069">
        <ele>124.675081</ele>
        <time>2026-08-16T08:29:39.000Z</time>
      </trkpt>
      <trkpt lat="22.799430" lon="110.374134">
        <ele>124.669022</ele>
        <time>2026-08-16T08:29:40.000Z</time>
      </trkpt>
      <trkpt lat="22.799458" lon="110.374194">
        <ele>124.663272</ele>
        <time>2026-08-16T08:29:41.000Z</time>
      </trkpt>
      <trkpt lat="22.799487" lon="110.374253">
        <ele>124.657554</ele>
        <time>2026-08-16T08:29:42.000Z</time>
      </trkpt>
      <trkpt lat="22.799518" lon="110.374312">
        <ele>124.651747</ele>
        <time>2026-08-16T08:29:43.000Z</time>
      </trkpt>
      <trkpt lat="22.799551" lon="110.374370">
        <ele>124.645918</ele>
        <time>2026-08-16T08:29:44.000Z</time>
      </trkpt>
      <trkpt lat="22.799582" lon="110.374427">
        <ele>124.640259</ele>
        <time>2026-08-16T08:29:45.000Z</time>
      </trkpt>
      <trkpt lat="22.799611" lon="110.374482">
        <ele>124.634841</ele>
        <time>2026-08-16T08:29:46.000Z</time>
      </trkpt>
      <trkpt lat="22.799637" lon="110.374536">
        <ele>124.629632</ele>
        <time>2026-08-16T08:29:47.000Z</time>
      </trkpt>
      <trkpt lat="22.799662" lon="110.374588">
        <ele>124.624616</ele>
        <time>2026-08-16T08:29:48.000Z</time>
      </trkpt>
      <trkpt lat="22.799687" lon="110.374640">
        <ele>124.619601</ele>
        <time>2026-08-16T08:29:49.000Z</time>
      </trkpt>
      <trkpt lat="22.799712" lon="110.374691">
        <ele>124.614662</ele>
        <time>2026-08-16T08:29:50.000Z</time>
      </trkpt>
      <trkpt lat="22.799737" lon="110.374739">
        <ele>124.609948</ele>
        <time>2026-08-16T08:29:51.000Z</time>
      </trkpt>
      <trkpt lat="22.799762" lon="110.374787">
        <ele>124.605233</ele>
        <time>2026-08-16T08:29:52.000Z</time>
      </trkpt>
      <trkpt lat="22.799785" lon="110.374835">
        <ele>124.600607</ele>
        <time>2026-08-16T08:29:53.000Z</time>
      </trkpt>
      <trkpt lat="22.799808" lon="110.374882">
        <ele>124.596057</ele>
        <time>2026-08-16T08:29:54.000Z</time>
      </trkpt>
      <trkpt lat="22.799832" lon="110.374929">
        <ele>124.591463</ele>
        <time>2026-08-16T08:29:55.000Z</time>
      </trkpt>
      <trkpt lat="22.799856" lon="110.374975">
        <ele>124.583638</ele>
        <time>2026-08-16T08:29:56.000Z</time>
      </trkpt>
      <trkpt lat="22.799879" lon="110.375021">
        <ele>124.574050</ele>
        <time>2026-08-16T08:29:57.000Z</time>
      </trkpt>
      <trkpt lat="22.799902" lon="110.375065">
        <ele>124.564783</ele>
        <time>2026-08-16T08:29:58.000Z</time>
      </trkpt>
      <trkpt lat="22.799925" lon="110.375110">
        <ele>124.555356</ele>
        <time>2026-08-16T08:29:59.000Z</time>
      </trkpt>
      <trkpt lat="22.799949" lon="110.375157">
        <ele>124.545512</ele>
        <time>2026-08-16T08:30:00.000Z</time>
      </trkpt>
      <trkpt lat="22.799973" lon="110.375204">
        <ele>124.535668</ele>
        <time>2026-08-16T08:30:01.000Z</time>
      </trkpt>
      <trkpt lat="22.799996" lon="110.375253">
        <ele>124.525594</ele>
        <time>2026-08-16T08:30:02.000Z</time>
      </trkpt>
      <trkpt lat="22.800020" lon="110.375303">
        <ele>124.515266</ele>
        <time>2026-08-16T08:30:03.000Z</time>
      </trkpt>
      <trkpt lat="22.800045" lon="110.375355">
        <ele>124.504521</ele>
        <time>2026-08-16T08:30:04.000Z</time>
      </trkpt>
      <trkpt lat="22.800072" lon="110.375406">
        <ele>124.493745</ele>
        <time>2026-08-16T08:30:05.000Z</time>
      </trkpt>
      <trkpt lat="22.800099" lon="110.375459">
        <ele>124.482651</ele>
        <time>2026-08-16T08:30:06.000Z</time>
      </trkpt>
      <trkpt lat="22.800129" lon="110.375513">
        <ele>124.471100</ele>
        <time>2026-08-16T08:30:07.000Z</time>
      </trkpt>
      <trkpt lat="22.800158" lon="110.375570">
        <ele>124.459171</ele>
        <time>2026-08-16T08:30:08.000Z</time>
      </trkpt>
      <trkpt lat="22.800189" lon="110.375630">
        <ele>124.446570</ele>
        <time>2026-08-16T08:30:09.000Z</time>
      </trkpt>
      <trkpt lat="22.800225" lon="110.375687">
        <ele>124.433911</ele>
        <time>2026-08-16T08:30:10.000Z</time>
      </trkpt>
      <trkpt lat="22.800264" lon="110.375739">
        <ele>124.421629</ele>
        <time>2026-08-16T08:30:11.000Z</time>
      </trkpt>
      <trkpt lat="22.800295" lon="110.375795">
        <ele>124.409661</ele>
        <time>2026-08-16T08:30:12.000Z</time>
      </trkpt>
      <trkpt lat="22.800323" lon="110.375856">
        <ele>124.397176</ele>
        <time>2026-08-16T08:30:13.000Z</time>
      </trkpt>
      <trkpt lat="22.800355" lon="110.375918">
        <ele>124.384157</ele>
        <time>2026-08-16T08:30:14.000Z</time>
      </trkpt>
      <trkpt lat="22.800388" lon="110.375978">
        <ele>124.371357</ele>
        <time>2026-08-16T08:30:15.000Z</time>
      </trkpt>
      <trkpt lat="22.800421" lon="110.376038">
        <ele>124.358556</ele>
        <time>2026-08-16T08:30:16.000Z</time>
      </trkpt>
      <trkpt lat="22.800450" lon="110.376102">
        <ele>124.345490</ele>
        <time>2026-08-16T08:30:17.000Z</time>
      </trkpt>
      <trkpt lat="22.800479" lon="110.376166">
        <ele>124.332425</ele>
        <time>2026-08-16T08:30:18.000Z</time>
      </trkpt>
      <trkpt lat="22.800508" lon="110.376230">
        <ele>124.319359</ele>
        <time>2026-08-16T08:30:19.000Z</time>
      </trkpt>
      <trkpt lat="22.800538" lon="110.376291">
        <ele>124.306692</ele>
        <time>2026-08-16T08:30:20.000Z</time>
      </trkpt>
      <trkpt lat="22.800564" lon="110.376352">
        <ele>124.294379</ele>
        <time>2026-08-16T08:30:21.000Z</time>
      </trkpt>
      <trkpt lat="22.800590" lon="110.376411">
        <ele>124.282398</ele>
        <time>2026-08-16T08:30:22.000Z</time>
      </trkpt>
      <trkpt lat="22.800613" lon="110.376471">
        <ele>124.270492</ele>
        <time>2026-08-16T08:30:23.000Z</time>
      </trkpt>
      <trkpt lat="22.800639" lon="110.376529">
        <ele>124.258676</ele>
        <time>2026-08-16T08:30:24.000Z</time>
      </trkpt>
      <trkpt lat="22.800666" lon="110.376586">
        <ele>124.246935</ele>
        <time>2026-08-16T08:30:25.000Z</time>
      </trkpt>
      <trkpt lat="22.800694" lon="110.376643">
        <ele>124.235101</ele>
        <time>2026-08-16T08:30:26.000Z</time>
      </trkpt>
      <trkpt lat="22.800725" lon="110.376699">
        <ele>124.112288</ele>
        <time>2026-08-16T08:30:27.000Z</time>
      </trkpt>
      <trkpt lat="22.800757" lon="110.376757">
        <ele>123.951185</ele>
        <time>2026-08-16T08:30:28.000Z</time>
      </trkpt>
      <trkpt lat="22.800784" lon="110.376814">
        <ele>123.798446</ele>
        <time>2026-08-16T08:30:29.000Z</time>
      </trkpt>
      <trkpt lat="22.800809" lon="110.376875">
        <ele>123.639339</ele>
        <time>2026-08-16T08:30:30.000Z</time>
      </trkpt>
      <trkpt lat="22.800834" lon="110.376934">
        <ele>123.484575</ele>
        <time>2026-08-16T08:30:31.000Z</time>
      </trkpt>
      <trkpt lat="22.800869" lon="110.376993">
        <ele>123.317356</ele>
        <time>2026-08-16T08:30:32.000Z</time>
      </trkpt>
      <trkpt lat="22.800901" lon="110.377052">
        <ele>123.154203</ele>
        <time>2026-08-16T08:30:33.000Z</time>
      </trkpt>
      <trkpt lat="22.800932" lon="110.377113">
        <ele>122.988188</ele>
        <time>2026-08-16T08:30:34.000Z</time>
      </trkpt>
      <trkpt lat="22.800960" lon="110.377173">
        <ele>122.827905</ele>
        <time>2026-08-16T08:30:35.000Z</time>
      </trkpt>
      <trkpt lat="22.800993" lon="110.377235">
        <ele>122.657273</ele>
        <time>2026-08-16T08:30:36.000Z</time>
      </trkpt>
      <trkpt lat="22.801025" lon="110.377300">
        <ele>122.481645</ele>
        <time>2026-08-16T08:30:37.000Z</time>
      </trkpt>
      <trkpt lat="22.801059" lon="110.377367">
        <ele>122.299362</ele>
        <time>2026-08-16T08:30:38.000Z</time>
      </trkpt>
      <trkpt lat="22.801095" lon="110.377434">
        <ele>122.114530</ele>
        <time>2026-08-16T08:30:39.000Z</time>
      </trkpt>
      <trkpt lat="22.801130" lon="110.377505">
        <ele>121.922635</ele>
        <time>2026-08-16T08:30:40.000Z</time>
      </trkpt>
      <trkpt lat="22.801163" lon="110.377579">
        <ele>121.726711</ele>
        <time>2026-08-16T08:30:41.000Z</time>
      </trkpt>
      <trkpt lat="22.801200" lon="110.377653">
        <ele>121.526069</ele>
        <time>2026-08-16T08:30:42.000Z</time>
      </trkpt>
      <trkpt lat="22.801238" lon="110.377730">
        <ele>121.317905</ele>
        <time>2026-08-16T08:30:43.000Z</time>
      </trkpt>
      <trkpt lat="22.801276" lon="110.377809">
        <ele>121.105527</ele>
        <time>2026-08-16T08:30:44.000Z</time>
      </trkpt>
      <trkpt lat="22.801317" lon="110.377889">
        <ele>120.887372</ele>
        <time>2026-08-16T08:30:45.000Z</time>
      </trkpt>
      <trkpt lat="22.801360" lon="110.377968">
        <ele>120.668713</ele>
        <time>2026-08-16T08:30:46.000Z</time>
      </trkpt>
      <trkpt lat="22.801405" lon="110.378051">
        <ele>120.439216</ele>
        <time>2026-08-16T08:30:47.000Z</time>
      </trkpt>
      <trkpt lat="22.801450" lon="110.378133">
        <ele>120.211770</ele>
        <time>2026-08-16T08:30:48.000Z</time>
      </trkpt>
      <trkpt lat="22.801493" lon="110.378216">
        <ele>119.984851</ele>
        <time>2026-08-16T08:30:49.000Z</time>
      </trkpt>
      <trkpt lat="22.801537" lon="110.378299">
        <ele>119.756654</ele>
        <time>2026-08-16T08:30:50.000Z</time>
      </trkpt>
      <trkpt lat="22.801579" lon="110.378380">
        <ele>119.574527</ele>
        <time>2026-08-16T08:30:51.000Z</time>
      </trkpt>
      <trkpt lat="22.801623" lon="110.378461">
        <ele>119.538327</ele>
        <time>2026-08-16T08:30:52.000Z</time>
      </trkpt>
      <trkpt lat="22.801666" lon="110.378541">
        <ele>119.502671</ele>
        <time>2026-08-16T08:30:53.000Z</time>
      </trkpt>
      <trkpt lat="22.801707" lon="110.378619">
        <ele>119.468099</ele>
        <time>2026-08-16T08:30:54.000Z</time>
      </trkpt>
      <trkpt lat="22.801747" lon="110.378699">
        <ele>119.433058</ele>
        <time>2026-08-16T08:30:55.000Z</time>
      </trkpt>
      <trkpt lat="22.801786" lon="110.378777">
        <ele>119.398892</ele>
        <time>2026-08-16T08:30:56.000Z</time>
      </trkpt>
      <trkpt lat="22.801826" lon="110.378853">
        <ele>119.365196</ele>
        <time>2026-08-16T08:30:57.000Z</time>
      </trkpt>
      <trkpt lat="22.801866" lon="110.378927">
        <ele>119.332167</ele>
        <time>2026-08-16T08:30:58.000Z</time>
      </trkpt>
      <trkpt lat="22.801906" lon="110.378992">
        <ele>119.302076</ele>
        <time>2026-08-16T08:30:59.000Z</time>
      </trkpt>
      <trkpt lat="22.801942" lon="110.379063">
        <ele>119.270876</ele>
        <time>2026-08-16T08:31:00.000Z</time>
      </trkpt>
      <trkpt lat="22.801973" lon="110.379137">
        <ele>119.239580</ele>
        <time>2026-08-16T08:31:01.000Z</time>
      </trkpt>
      <trkpt lat="22.802004" lon="110.379210">
        <ele>119.208633</ele>
        <time>2026-08-16T08:31:02.000Z</time>
      </trkpt>
      <trkpt lat="22.802033" lon="110.379281">
        <ele>119.178733</ele>
        <time>2026-08-16T08:31:03.000Z</time>
      </trkpt>
      <trkpt lat="22.802063" lon="110.379351">
        <ele>119.149010</ele>
        <time>2026-08-16T08:31:04.000Z</time>
      </trkpt>
      <trkpt lat="22.802095" lon="110.379422">
        <ele>119.118581</ele>
        <time>2026-08-16T08:31:05.000Z</time>
      </trkpt>
      <trkpt lat="22.802126" lon="110.379491">
        <ele>119.089026</ele>
        <time>2026-08-16T08:31:06.000Z</time>
      </trkpt>
      <trkpt lat="22.802159" lon="110.379560">
        <ele>119.059097</ele>
        <time>2026-08-16T08:31:07.000Z</time>
      </trkpt>
      <trkpt lat="22.802191" lon="110.379628">
        <ele>119.029700</ele>
        <time>2026-08-16T08:31:08.000Z</time>
      </trkpt>
      <trkpt lat="22.802225" lon="110.379698">
        <ele>118.999236</ele>
        <time>2026-08-16T08:31:09.000Z</time>
      </trkpt>
      <trkpt lat="22.802261" lon="110.379771">
        <ele>118.967360</ele>
        <time>2026-08-16T08:31:10.000Z</time>
      </trkpt>
      <trkpt lat="22.802296" lon="110.379845">
        <ele>118.935336</ele>
        <time>2026-08-16T08:31:11.000Z</time>
      </trkpt>
      <trkpt lat="22.802332" lon="110.379923">
        <ele>118.901750</ele>
        <time>2026-08-16T08:31:12.000Z</time>
      </trkpt>
      <trkpt lat="22.802369" lon="110.380000">
        <ele>118.868316</ele>
        <time>2026-08-16T08:31:13.000Z</time>
      </trkpt>
      <trkpt lat="22.802407" lon="110.380077">
        <ele>118.834688</ele>
        <time>2026-08-16T08:31:14.000Z</time>
      </trkpt>
      <trkpt lat="22.802444" lon="110.380154">
        <ele>118.851042</ele>
        <time>2026-08-16T08:31:15.000Z</time>
      </trkpt>
      <trkpt lat="22.802480" lon="110.380230">
        <ele>118.873455</ele>
        <time>2026-08-16T08:31:16.000Z</time>
      </trkpt>
      <trkpt lat="22.802517" lon="110.380305">
        <ele>118.895768</ele>
        <time>2026-08-16T08:31:17.000Z</time>
      </trkpt>
      <trkpt lat="22.802554" lon="110.380379">
        <ele>118.917851</ele>
        <time>2026-08-16T08:31:18.000Z</time>
      </trkpt>
      <trkpt lat="22.802591" lon="110.380452">
        <ele>118.939702</ele>
        <time>2026-08-16T08:31:19.000Z</time>
      </trkpt>
      <trkpt lat="22.802628" lon="110.380524">
        <ele>118.961325</ele>
        <time>2026-08-16T08:31:20.000Z</time>
      </trkpt>
      <trkpt lat="22.802665" lon="110.380595">
        <ele>118.982719</ele>
        <time>2026-08-16T08:31:21.000Z</time>
      </trkpt>
      <trkpt lat="22.802701" lon="110.380668">
        <ele>119.004435</ele>
        <time>2026-08-16T08:31:22.000Z</time>
      </trkpt>
      <trkpt lat="22.802740" lon="110.380743">
        <ele>119.027022</ele>
        <time>2026-08-16T08:31:23.000Z</time>
      </trkpt>
      <trkpt lat="22.802781" lon="110.380816">
        <ele>119.049444</ele>
        <time>2026-08-16T08:31:24.000Z</time>
      </trkpt>
      <trkpt lat="22.802816" lon="110.380890">
        <ele>119.071261</ele>
        <time>2026-08-16T08:31:25.000Z</time>
      </trkpt>
      <trkpt lat="22.802850" lon="110.380964">
        <ele>119.092949</ele>
        <time>2026-08-16T08:31:26.000Z</time>
      </trkpt>
      <trkpt lat="22.802886" lon="110.381033">
        <ele>119.113746</ele>
        <time>2026-08-16T08:31:27.000Z</time>
      </trkpt>
      <trkpt lat="22.802921" lon="110.381101">
        <ele>119.134175</ele>
        <time>2026-08-16T08:31:28.000Z</time>
      </trkpt>
      <trkpt lat="22.802957" lon="110.381169">
        <ele>119.154744</ele>
        <time>2026-08-16T08:31:29.000Z</time>
      </trkpt>
      <trkpt lat="22.802989" lon="110.381237">
        <ele>119.174770</ele>
        <time>2026-08-16T08:31:30.000Z</time>
      </trkpt>
      <trkpt lat="22.803023" lon="110.381303">
        <ele>119.194602</ele>
        <time>2026-08-16T08:31:31.000Z</time>
      </trkpt>
      <trkpt lat="22.803056" lon="110.381368">
        <ele>119.214067</ele>
        <time>2026-08-16T08:31:32.000Z</time>
      </trkpt>
      <trkpt lat="22.803087" lon="110.381433">
        <ele>119.233264</ele>
        <time>2026-08-16T08:31:33.000Z</time>
      </trkpt>
      <trkpt lat="22.803116" lon="110.381497">
        <ele>119.251970</ele>
        <time>2026-08-16T08:31:34.000Z</time>
      </trkpt>
      <trkpt lat="22.803146" lon="110.381559">
        <ele>119.270337</ele>
        <time>2026-08-16T08:31:35.000Z</time>
      </trkpt>
      <trkpt lat="22.803177" lon="110.381619">
        <ele>119.288379</ele>
        <time>2026-08-16T08:31:36.000Z</time>
      </trkpt>
      <trkpt lat="22.803207" lon="110.381680">
        <ele>119.306514</ele>
        <time>2026-08-16T08:31:37.000Z</time>
      </trkpt>
      <trkpt lat="22.803231" lon="110.381739">
        <ele>119.323430</ele>
        <time>2026-08-16T08:31:38.000Z</time>
      </trkpt>
      <trkpt lat="22.803266" lon="110.381795">
        <ele>119.341177</ele>
        <time>2026-08-16T08:31:39.000Z</time>
      </trkpt>
      <trkpt lat="22.803292" lon="110.381850">
        <ele>119.367428</ele>
        <time>2026-08-16T08:31:40.000Z</time>
      </trkpt>
      <trkpt lat="22.803313" lon="110.381907">
        <ele>119.394505</ele>
        <time>2026-08-16T08:31:41.000Z</time>
      </trkpt>
      <trkpt lat="22.803335" lon="110.381963">
        <ele>119.421358</ele>
        <time>2026-08-16T08:31:42.000Z</time>
      </trkpt>
      <trkpt lat="22.803359" lon="110.382015">
        <ele>119.447010</ele>
        <time>2026-08-16T08:31:43.000Z</time>
      </trkpt>
      <trkpt lat="22.803380" lon="110.382067">
        <ele>119.472052</ele>
        <time>2026-08-16T08:31:44.000Z</time>
      </trkpt>
      <trkpt lat="22.803405" lon="110.382120">
        <ele>119.498314</ele>
        <time>2026-08-16T08:31:45.000Z</time>
      </trkpt>
      <trkpt lat="22.803433" lon="110.382171">
        <ele>119.524499</ele>
        <time>2026-08-16T08:31:46.000Z</time>
      </trkpt>
      <trkpt lat="22.803459" lon="110.382221">
        <ele>119.549822</ele>
        <time>2026-08-16T08:31:47.000Z</time>
      </trkpt>
      <trkpt lat="22.803484" lon="110.382271">
        <ele>119.574913</ele>
        <time>2026-08-16T08:31:48.000Z</time>
      </trkpt>
      <trkpt lat="22.803508" lon="110.382322">
        <ele>119.600171</ele>
        <time>2026-08-16T08:31:49.000Z</time>
      </trkpt>
      <trkpt lat="22.803536" lon="110.382373">
        <ele>119.626356</ele>
        <time>2026-08-16T08:31:50.000Z</time>
      </trkpt>
      <trkpt lat="22.803565" lon="110.382425">
        <ele>119.653165</ele>
        <time>2026-08-16T08:31:51.000Z</time>
      </trkpt>
      <trkpt lat="22.803594" lon="110.382478">
        <ele>119.680352</ele>
        <time>2026-08-16T08:31:52.000Z</time>
      </trkpt>
      <trkpt lat="22.803622" lon="110.382531">
        <ele>119.707298</ele>
        <time>2026-08-16T08:31:53.000Z</time>
      </trkpt>
      <trkpt lat="22.803650" lon="110.382585">
        <ele>119.734628</ele>
        <time>2026-08-16T08:31:54.000Z</time>
      </trkpt>
      <trkpt lat="22.803678" lon="110.382638">
        <ele>119.761574</ele>
        <time>2026-08-16T08:31:55.000Z</time>
      </trkpt>
      <trkpt lat="22.803704" lon="110.382691">
        <ele>119.788058</ele>
        <time>2026-08-16T08:31:56.000Z</time>
      </trkpt>
      <trkpt lat="22.803732" lon="110.382744">
        <ele>119.815004</ele>
        <time>2026-08-16T08:31:57.000Z</time>
      </trkpt>
      <trkpt lat="22.803763" lon="110.382796">
        <ele>119.842320</ele>
        <time>2026-08-16T08:31:58.000Z</time>
      </trkpt>
      <trkpt lat="22.803792" lon="110.382849">
        <ele>119.869508</ele>
        <time>2026-08-16T08:31:59.000Z</time>
      </trkpt>
      <trkpt lat="22.803820" lon="110.382902">
        <ele>119.896454</ele>
        <time>2026-08-16T08:32:00.000Z</time>
      </trkpt>
      <trkpt lat="22.803848" lon="110.382956">
        <ele>119.923784</ele>
        <time>2026-08-16T08:32:01.000Z</time>
      </trkpt>
      <trkpt lat="22.803878" lon="110.383007">
        <ele>119.950470</ele>
        <time>2026-08-16T08:32:02.000Z</time>
      </trkpt>
      <trkpt lat="22.803905" lon="110.383058">
        <ele>119.976413</ele>
        <time>2026-08-16T08:32:03.000Z</time>
      </trkpt>
      <trkpt lat="22.803929" lon="110.383110">
        <ele>120.002065</ele>
        <time>2026-08-16T08:32:04.000Z</time>
      </trkpt>
      <trkpt lat="22.803955" lon="110.383164">
        <ele>120.028939</ele>
        <time>2026-08-16T08:32:05.000Z</time>
      </trkpt>
      <trkpt lat="22.803980" lon="110.383219">
        <ele>120.055989</ele>
        <time>2026-08-16T08:32:06.000Z</time>
      </trkpt>
      <trkpt lat="22.804003" lon="110.383275">
        <ele>120.083032</ele>
        <time>2026-08-16T08:32:07.000Z</time>
      </trkpt>
      <trkpt lat="22.804029" lon="110.383329">
        <ele>120.109906</ele>
        <time>2026-08-16T08:32:08.000Z</time>
      </trkpt>
      <trkpt lat="22.804054" lon="110.383385">
        <ele>120.137352</ele>
        <time>2026-08-16T08:32:09.000Z</time>
      </trkpt>
      <trkpt lat="22.804077" lon="110.383441">
        <ele>120.164396</ele>
        <time>2026-08-16T08:32:10.000Z</time>
      </trkpt>
      <trkpt lat="22.804104" lon="110.383496">
        <ele>120.191882</ele>
        <time>2026-08-16T08:32:11.000Z</time>
      </trkpt>
      <trkpt lat="22.804133" lon="110.383551">
        <ele>120.224385</ele>
        <time>2026-08-16T08:32:12.000Z</time>
      </trkpt>
      <trkpt lat="22.804159" lon="110.383604">
        <ele>120.258180</ele>
        <time>2026-08-16T08:32:13.000Z</time>
      </trkpt>
      <trkpt lat="22.804185" lon="110.383658">
        <ele>120.292474</ele>
        <time>2026-08-16T08:32:14.000Z</time>
      </trkpt>
      <trkpt lat="22.804211" lon="110.383711">
        <ele>120.326269</ele>
        <time>2026-08-16T08:32:15.000Z</time>
      </trkpt>
      <trkpt lat="22.804236" lon="110.383764">
        <ele>120.359782</ele>
        <time>2026-08-16T08:32:16.000Z</time>
      </trkpt>
      <trkpt lat="22.804261" lon="110.383818">
        <ele>120.393797</ele>
        <time>2026-08-16T08:32:17.000Z</time>
      </trkpt>
      <trkpt lat="22.804285" lon="110.383871">
        <ele>120.427036</ele>
        <time>2026-08-16T08:32:18.000Z</time>
      </trkpt>
      <trkpt lat="22.804309" lon="110.383920">
        <ele>120.458270</ele>
        <time>2026-08-16T08:32:19.000Z</time>
      </trkpt>
      <trkpt lat="22.804333" lon="110.383970">
        <ele>120.490002</ele>
        <time>2026-08-16T08:32:20.000Z</time>
      </trkpt>
      <trkpt lat="22.804359" lon="110.384020">
        <ele>120.522317</ele>
        <time>2026-08-16T08:32:21.000Z</time>
      </trkpt>
      <trkpt lat="22.804384" lon="110.384070">
        <ele>120.554336</ele>
        <time>2026-08-16T08:32:22.000Z</time>
      </trkpt>
      <trkpt lat="22.804408" lon="110.384119">
        <ele>120.585570</ele>
        <time>2026-08-16T08:32:23.000Z</time>
      </trkpt>
      <trkpt lat="22.804431" lon="110.384166">
        <ele>120.615523</ele>
        <time>2026-08-16T08:32:24.000Z</time>
      </trkpt>
      <trkpt lat="22.804453" lon="110.384211">
        <ele>120.644195</ele>
        <time>2026-08-16T08:32:25.000Z</time>
      </trkpt>
      <trkpt lat="22.804474" lon="110.384259">
        <ele>120.674103</ele>
        <time>2026-08-16T08:32:26.000Z</time>
      </trkpt>
      <trkpt lat="22.804496" lon="110.384303">
        <ele>120.702280</ele>
        <time>2026-08-16T08:32:27.000Z</time>
      </trkpt>
      <trkpt lat="22.804516" lon="110.384347">
        <ele>120.729895</ele>
        <time>2026-08-16T08:32:28.000Z</time>
      </trkpt>
      <trkpt lat="22.804540" lon="110.384391">
        <ele>120.758674</ele>
        <time>2026-08-16T08:32:29.000Z</time>
      </trkpt>
      <trkpt lat="22.804566" lon="110.384435">
        <ele>120.788093</ele>
        <time>2026-08-16T08:32:30.000Z</time>
      </trkpt>
      <trkpt lat="22.804591" lon="110.384479">
        <ele>120.817188</ele>
        <time>2026-08-16T08:32:31.000Z</time>
      </trkpt>
      <trkpt lat="22.804615" lon="110.384525">
        <ele>120.846941</ele>
        <time>2026-08-16T08:32:32.000Z</time>
      </trkpt>
      <trkpt lat="22.804636" lon="110.384573">
        <ele>120.876849</ele>
        <time>2026-08-16T08:32:33.000Z</time>
      </trkpt>
      <trkpt lat="22.804660" lon="110.384620">
        <ele>120.907093</ele>
        <time>2026-08-16T08:32:34.000Z</time>
      </trkpt>
      <trkpt lat="22.804684" lon="110.384670">
        <ele>120.938826</ele>
        <time>2026-08-16T08:32:35.000Z</time>
      </trkpt>
      <trkpt lat="22.804708" lon="110.384720">
        <ele>120.970558</ele>
        <time>2026-08-16T08:32:36.000Z</time>
      </trkpt>
      <trkpt lat="22.804732" lon="110.384772">
        <ele>121.003293</ele>
        <time>2026-08-16T08:32:37.000Z</time>
      </trkpt>
      <trkpt lat="22.804758" lon="110.384825">
        <ele>121.037088</ele>
        <time>2026-08-16T08:32:38.000Z</time>
      </trkpt>
      <trkpt lat="22.804783" lon="110.384876">
        <ele>121.069603</ele>
        <time>2026-08-16T08:32:39.000Z</time>
      </trkpt>
      <trkpt lat="22.804811" lon="110.384926">
        <ele>121.102534</ele>
        <time>2026-08-16T08:32:40.000Z</time>
      </trkpt>
      <trkpt lat="22.804839" lon="110.384979">
        <ele>121.136920</ele>
        <time>2026-08-16T08:32:41.000Z</time>
      </trkpt>
      <trkpt lat="22.804865" lon="110.385032">
        <ele>121.170715</ele>
        <time>2026-08-16T08:32:42.000Z</time>
      </trkpt>
      <trkpt lat="22.804888" lon="110.385085">
        <ele>121.203690</ele>
        <time>2026-08-16T08:32:43.000Z</time>
      </trkpt>
      <trkpt lat="22.804911" lon="110.385138">
        <ele>121.236664</ele>
        <time>2026-08-16T08:32:44.000Z</time>
      </trkpt>
      <trkpt lat="22.804934" lon="110.385193">
        <ele>121.270661</ele>
        <time>2026-08-16T08:32:45.000Z</time>
      </trkpt>
      <trkpt lat="22.804959" lon="110.385245">
        <ele>121.300522</ele>
        <time>2026-08-16T08:32:46.000Z</time>
      </trkpt>
      <trkpt lat="22.804986" lon="110.385300">
        <ele>121.280698</ele>
        <time>2026-08-16T08:32:47.000Z</time>
      </trkpt>
      <trkpt lat="22.805015" lon="110.385354">
        <ele>121.260816</ele>
        <time>2026-08-16T08:32:48.000Z</time>
      </trkpt>
      <trkpt lat="22.805043" lon="110.385408">
        <ele>121.241105</ele>
        <time>2026-08-16T08:32:49.000Z</time>
      </trkpt>
      <trkpt lat="22.805069" lon="110.385462">
        <ele>121.221723</ele>
        <time>2026-08-16T08:32:50.000Z</time>
      </trkpt>
      <trkpt lat="22.805098" lon="110.385517">
        <ele>121.201566</ele>
        <time>2026-08-16T08:32:51.000Z</time>
      </trkpt>
      <trkpt lat="22.805126" lon="110.385572">
        <ele>121.181577</ele>
        <time>2026-08-16T08:32:52.000Z</time>
      </trkpt>
      <trkpt lat="22.805155" lon="110.385628">
        <ele>121.161143</ele>
        <time>2026-08-16T08:32:53.000Z</time>
      </trkpt>
      <trkpt lat="22.805181" lon="110.385685">
        <ele>121.140910</ele>
        <time>2026-08-16T08:32:54.000Z</time>
      </trkpt>
      <trkpt lat="22.805209" lon="110.385740">
        <ele>121.120922</ele>
        <time>2026-08-16T08:32:55.000Z</time>
      </trkpt>
      <trkpt lat="22.805236" lon="110.385796">
        <ele>121.100816</ele>
        <time>2026-08-16T08:32:56.000Z</time>
      </trkpt>
      <trkpt lat="22.805263" lon="110.385853">
        <ele>121.080428</ele>
        <time>2026-08-16T08:32:57.000Z</time>
      </trkpt>
      <trkpt lat="22.805293" lon="110.385910">
        <ele>121.059547</ele>
        <time>2026-08-16T08:32:58.000Z</time>
      </trkpt>
      <trkpt lat="22.805323" lon="110.385968">
        <ele>121.038389</ele>
        <time>2026-08-16T08:32:59.000Z</time>
      </trkpt>
      <trkpt lat="22.805350" lon="110.386025">
        <ele>121.018001</ele>
        <time>2026-08-16T08:33:00.000Z</time>
      </trkpt>
      <trkpt lat="22.805378" lon="110.386082">
        <ele>120.997453</ele>
        <time>2026-08-16T08:33:01.000Z</time>
      </trkpt>
      <trkpt lat="22.805407" lon="110.386140">
        <ele>120.976462</ele>
        <time>2026-08-16T08:33:02.000Z</time>
      </trkpt>
      <trkpt lat="22.805434" lon="110.386200">
        <ele>120.955221</ele>
        <time>2026-08-16T08:33:03.000Z</time>
      </trkpt>
      <trkpt lat="22.805460" lon="110.386259">
        <ele>120.934416</ele>
        <time>2026-08-16T08:33:04.000Z</time>
      </trkpt>
      <trkpt lat="22.805486" lon="110.386317">
        <ele>120.913898</ele>
        <time>2026-08-16T08:33:05.000Z</time>
      </trkpt>
      <trkpt lat="22.805509" lon="110.386374">
        <ele>120.894103</ele>
        <time>2026-08-16T08:33:06.000Z</time>
      </trkpt>
      <trkpt lat="22.805532" lon="110.386431">
        <ele>120.874308</ele>
        <time>2026-08-16T08:33:07.000Z</time>
      </trkpt>
      <trkpt lat="22.805555" lon="110.386488">
        <ele>120.854513</ele>
        <time>2026-08-16T08:33:08.000Z</time>
      </trkpt>
      <trkpt lat="22.805576" lon="110.386545">
        <ele>120.834985</ele>
        <time>2026-08-16T08:33:09.000Z</time>
      </trkpt>
      <trkpt lat="22.805597" lon="110.386602">
        <ele>120.815456</ele>
        <time>2026-08-16T08:33:10.000Z</time>
      </trkpt>
      <trkpt lat="22.805618" lon="110.386661">
        <ele>120.795336</ele>
        <time>2026-08-16T08:33:11.000Z</time>
      </trkpt>
      <trkpt lat="22.805636" lon="110.386721">
        <ele>120.775262</ele>
        <time>2026-08-16T08:33:12.000Z</time>
      </trkpt>
      <trkpt lat="22.805654" lon="110.386782">
        <ele>120.754886</ele>
        <time>2026-08-16T08:33:13.000Z</time>
      </trkpt>
      <trkpt lat="22.805673" lon="110.386844">
        <ele>120.734100</ele>
        <time>2026-08-16T08:33:14.000Z</time>
      </trkpt>
      <trkpt lat="22.805691" lon="110.386907">
        <ele>120.713117</ele>
        <time>2026-08-16T08:33:15.000Z</time>
      </trkpt>
      <trkpt lat="22.805707" lon="110.386968">
        <ele>120.692940</ele>
        <time>2026-08-16T08:33:16.000Z</time>
      </trkpt>
      <trkpt lat="22.805724" lon="110.387031">
        <ele>120.694951</ele>
        <time>2026-08-16T08:33:17.000Z</time>
      </trkpt>
      <trkpt lat="22.805740" lon="110.387092">
        <ele>120.726894</ele>
        <time>2026-08-16T08:33:18.000Z</time>
      </trkpt>
      <trkpt lat="22.805753" lon="110.387155">
        <ele>120.759409</ele>
        <time>2026-08-16T08:33:19.000Z</time>
      </trkpt>
      <trkpt lat="22.805764" lon="110.387216">
        <ele>120.790715</ele>
        <time>2026-08-16T08:33:20.000Z</time>
      </trkpt>
      <trkpt lat="22.805771" lon="110.387277">
        <ele>120.821675</ele>
        <time>2026-08-16T08:33:21.000Z</time>
      </trkpt>
      <trkpt lat="22.805778" lon="110.387334">
        <ele>120.850637</ele>
        <time>2026-08-16T08:33:22.000Z</time>
      </trkpt>
      <trkpt lat="22.805787" lon="110.387388">
        <ele>120.878275</ele>
        <time>2026-08-16T08:33:23.000Z</time>
      </trkpt>
      <trkpt lat="22.805797" lon="110.387445">
        <ele>120.907499</ele>
        <time>2026-08-16T08:33:24.000Z</time>
      </trkpt>
      <trkpt lat="22.805807" lon="110.387502">
        <ele>120.936722</ele>
        <time>2026-08-16T08:33:25.000Z</time>
      </trkpt>
      <trkpt lat="22.805816" lon="110.387561">
        <ele>120.966842</ele>
        <time>2026-08-16T08:33:26.000Z</time>
      </trkpt>
      <trkpt lat="22.805825" lon="110.387619">
        <ele>120.996465</ele>
        <time>2026-08-16T08:33:27.000Z</time>
      </trkpt>
      <trkpt lat="22.805833" lon="110.387679">
        <ele>121.026999</ele>
        <time>2026-08-16T08:33:28.000Z</time>
      </trkpt>
      <trkpt lat="22.805842" lon="110.387738">
        <ele>121.057119</ele>
        <time>2026-08-16T08:33:29.000Z</time>
      </trkpt>
      <trkpt lat="22.805853" lon="110.387797">
        <ele>121.087436</ele>
        <time>2026-08-16T08:33:30.000Z</time>
      </trkpt>
      <trkpt lat="22.805864" lon="110.387856">
        <ele>121.117753</ele>
        <time>2026-08-16T08:33:31.000Z</time>
      </trkpt>
      <trkpt lat="22.805875" lon="110.387916">
        <ele>121.148564</ele>
        <time>2026-08-16T08:33:32.000Z</time>
      </trkpt>
      <trkpt lat="22.805886" lon="110.387976">
        <ele>121.179375</ele>
        <time>2026-08-16T08:33:33.000Z</time>
      </trkpt>
      <trkpt lat="22.805897" lon="110.388033">
        <ele>121.208706</ele>
        <time>2026-08-16T08:33:34.000Z</time>
      </trkpt>
      <trkpt lat="22.805908" lon="110.388091">
        <ele>121.238530</ele>
        <time>2026-08-16T08:33:35.000Z</time>
      </trkpt>
      <trkpt lat="22.805918" lon="110.388146">
        <ele>121.266765</ele>
        <time>2026-08-16T08:33:36.000Z</time>
      </trkpt>
      <trkpt lat="22.805928" lon="110.388200">
        <ele>121.294505</ele>
        <time>2026-08-16T08:33:37.000Z</time>
      </trkpt>
      <trkpt lat="22.805939" lon="110.388255">
        <ele>121.322851</ele>
        <time>2026-08-16T08:33:38.000Z</time>
      </trkpt>
      <trkpt lat="22.805954" lon="110.388309">
        <ele>121.351256</ele>
        <time>2026-08-16T08:33:39.000Z</time>
      </trkpt>
      <trkpt lat="22.805970" lon="110.388365">
        <ele>121.380784</ele>
        <time>2026-08-16T08:33:40.000Z</time>
      </trkpt>
      <trkpt lat="22.805983" lon="110.388422">
        <ele>121.410358</ele>
        <time>2026-08-16T08:33:41.000Z</time>
      </trkpt>
      <trkpt lat="22.805997" lon="110.388478">
        <ele>121.439582</ele>
        <time>2026-08-16T08:33:42.000Z</time>
      </trkpt>
      <trkpt lat="22.806009" lon="110.388535">
        <ele>121.469029</ele>
        <time>2026-08-16T08:33:43.000Z</time>
      </trkpt>
      <trkpt lat="22.806022" lon="110.388592">
        <ele>121.498603</ele>
        <time>2026-08-16T08:33:44.000Z</time>
      </trkpt>
      <trkpt lat="22.806036" lon="110.388649">
        <ele>121.528313</ele>
        <time>2026-08-16T08:33:45.000Z</time>
      </trkpt>
      <trkpt lat="22.806049" lon="110.388704">
        <ele>121.556910</ele>
        <time>2026-08-16T08:33:46.000Z</time>
      </trkpt>
      <trkpt lat="22.806058" lon="110.388761">
        <ele>121.586036</ele>
        <time>2026-08-16T08:33:47.000Z</time>
      </trkpt>
      <trkpt lat="22.806068" lon="110.388820">
        <ele>121.616250</ele>
        <time>2026-08-16T08:33:48.000Z</time>
      </trkpt>
      <trkpt lat="22.806081" lon="110.388875">
        <ele>121.644847</ele>
        <time>2026-08-16T08:33:49.000Z</time>
      </trkpt>
      <trkpt lat="22.806088" lon="110.388935">
        <ele>121.696727</ele>
        <time>2026-08-16T08:33:50.000Z</time>
      </trkpt>
      <trkpt lat="22.806093" lon="110.388993">
        <ele>121.779929</ele>
        <time>2026-08-16T08:33:51.000Z</time>
      </trkpt>
      <trkpt lat="22.806094" lon="110.389052">
        <ele>121.864213</ele>
        <time>2026-08-16T08:33:52.000Z</time>
      </trkpt>
      <trkpt lat="22.806092" lon="110.389109">
        <ele>121.945685</ele>
        <time>2026-08-16T08:33:53.000Z</time>
      </trkpt>
      <trkpt lat="22.806090" lon="110.389168">
        <ele>122.030011</ele>
        <time>2026-08-16T08:33:54.000Z</time>
      </trkpt>
      <trkpt lat="22.806087" lon="110.389225">
        <ele>122.111556</ele>
        <time>2026-08-16T08:33:55.000Z</time>
      </trkpt>
      <trkpt lat="22.806083" lon="110.389279">
        <ele>122.188933</ele>
        <time>2026-08-16T08:33:56.000Z</time>
      </trkpt>
      <trkpt lat="22.806075" lon="110.389335">
        <ele>122.269872</ele>
        <time>2026-08-16T08:33:57.000Z</time>
      </trkpt>
      <trkpt lat="22.806069" lon="110.389389">
        <ele>122.347559</ele>
        <time>2026-08-16T08:33:58.000Z</time>
      </trkpt>
      <trkpt lat="22.806066" lon="110.389442">
        <ele>122.423401</ele>
        <time>2026-08-16T08:33:59.000Z</time>
      </trkpt>
      <trkpt lat="22.806065" lon="110.389496">
        <ele>122.500544</ele>
        <time>2026-08-16T08:34:00.000Z</time>
      </trkpt>
      <trkpt lat="22.806070" lon="110.389544">
        <ele>122.569539</ele>
        <time>2026-08-16T08:34:01.000Z</time>
      </trkpt>
      <trkpt lat="22.806073" lon="110.389582">
        <ele>122.624013</ele>
        <time>2026-08-16T08:34:02.000Z</time>
      </trkpt>
      <trkpt lat="22.806072" lon="110.389617">
        <ele>122.674027</ele>
        <time>2026-08-16T08:34:03.000Z</time>
      </trkpt>
      <trkpt lat="22.806069" lon="110.389649">
        <ele>122.719968</ele>
        <time>2026-08-16T08:34:04.000Z</time>
      </trkpt>
      <trkpt lat="22.806070" lon="110.389680">
        <ele>122.764273</ele>
        <time>2026-08-16T08:34:05.000Z</time>
      </trkpt>
      <trkpt lat="22.806068" lon="110.389711">
        <ele>122.808658</ele>
        <time>2026-08-16T08:34:06.000Z</time>
      </trkpt>
      <trkpt lat="22.806073" lon="110.389743">
        <ele>122.855016</ele>
        <time>2026-08-16T08:34:07.000Z</time>
      </trkpt>
      <trkpt lat="22.806082" lon="110.389774">
        <ele>122.901437</ele>
        <time>2026-08-16T08:34:08.000Z</time>
      </trkpt>
      <trkpt lat="22.806089" lon="110.389804">
        <ele>122.945637</ele>
        <time>2026-08-16T08:34:09.000Z</time>
      </trkpt>
      <trkpt lat="22.806105" lon="110.389835">
        <ele>122.996382</ele>
        <time>2026-08-16T08:34:10.000Z</time>
      </trkpt>
      <trkpt lat="22.806127" lon="110.389869">
        <ele>123.055713</ele>
        <time>2026-08-16T08:34:11.000Z</time>
      </trkpt>
      <trkpt lat="22.806147" lon="110.389904">
        <ele>123.114530</ele>
        <time>2026-08-16T08:34:12.000Z</time>
      </trkpt>
      <trkpt lat="22.806169" lon="110.389939">
        <ele>123.175036</ele>
        <time>2026-08-16T08:34:13.000Z</time>
      </trkpt>
      <trkpt lat="22.806191" lon="110.389975">
        <ele>123.236727</ele>
        <time>2026-08-16T08:34:14.000Z</time>
      </trkpt>
      <trkpt lat="22.806213" lon="110.390018">
        <ele>123.306969</ele>
        <time>2026-08-16T08:34:15.000Z</time>
      </trkpt>
      <trkpt lat="22.806237" lon="110.390060">
        <ele>123.377548</ele>
        <time>2026-08-16T08:34:16.000Z</time>
      </trkpt>
      <trkpt lat="22.806259" lon="110.390102">
        <ele>123.446545</ele>
        <time>2026-08-16T08:34:17.000Z</time>
      </trkpt>
      <trkpt lat="22.806279" lon="110.390143">
        <ele>123.512799</ele>
        <time>2026-08-16T08:34:18.000Z</time>
      </trkpt>
      <trkpt lat="22.806301" lon="110.390186">
        <ele>123.583041</ele>
        <time>2026-08-16T08:34:19.000Z</time>
      </trkpt>
      <trkpt lat="22.806327" lon="110.390230">
        <ele>123.657689</ele>
        <time>2026-08-16T08:34:20.000Z</time>
      </trkpt>
      <trkpt lat="22.806354" lon="110.390272">
        <ele>123.730824</ele>
        <time>2026-08-16T08:34:21.000Z</time>
      </trkpt>
      <trkpt lat="22.806380" lon="110.390314">
        <ele>123.803084</ele>
        <time>2026-08-16T08:34:22.000Z</time>
      </trkpt>
      <trkpt lat="22.806403" lon="110.390356">
        <ele>123.872859</ele>
        <time>2026-08-16T08:34:23.000Z</time>
      </trkpt>
      <trkpt lat="22.806424" lon="110.390399">
        <ele>123.942363</ele>
        <time>2026-08-16T08:34:24.000Z</time>
      </trkpt>
      <trkpt lat="22.806449" lon="110.390436">
        <ele>124.007885</ele>
        <time>2026-08-16T08:34:25.000Z</time>
      </trkpt>
      <trkpt lat="22.806473" lon="110.390474">
        <ele>124.073677</ele>
        <time>2026-08-16T08:34:26.000Z</time>
      </trkpt>
      <trkpt lat="22.806498" lon="110.390515">
        <ele>124.143889</ele>
        <time>2026-08-16T08:34:27.000Z</time>
      </trkpt>
      <trkpt lat="22.806523" lon="110.390556">
        <ele>124.214101</ele>
        <time>2026-08-16T08:34:28.000Z</time>
      </trkpt>
      <trkpt lat="22.806550" lon="110.390597">
        <ele>124.286069</ele>
        <time>2026-08-16T08:34:29.000Z</time>
      </trkpt>
      <trkpt lat="22.806574" lon="110.390641">
        <ele>124.359092</ele>
        <time>2026-08-16T08:34:30.000Z</time>
      </trkpt>
      <trkpt lat="22.806602" lon="110.390682">
        <ele>124.431971</ele>
        <time>2026-08-16T08:34:31.000Z</time>
      </trkpt>
      <trkpt lat="22.806628" lon="110.390722">
        <ele>124.483390</ele>
        <time>2026-08-16T08:34:32.000Z</time>
      </trkpt>
      <trkpt lat="22.806653" lon="110.390766">
        <ele>124.530645</ele>
        <time>2026-08-16T08:34:33.000Z</time>
      </trkpt>
      <trkpt lat="22.806678" lon="110.390809">
        <ele>124.577124</ele>
        <time>2026-08-16T08:34:34.000Z</time>
      </trkpt>
      <trkpt lat="22.806703" lon="110.390853">
        <ele>124.624380</ele>
        <time>2026-08-16T08:34:35.000Z</time>
      </trkpt>
      <trkpt lat="22.806722" lon="110.390894">
        <ele>124.666335</ele>
        <time>2026-08-16T08:34:36.000Z</time>
      </trkpt>
      <trkpt lat="22.806746" lon="110.390936">
        <ele>124.711513</ele>
        <time>2026-08-16T08:34:37.000Z</time>
      </trkpt>
      <trkpt lat="22.806773" lon="110.390979">
        <ele>124.759080</ele>
        <time>2026-08-16T08:34:38.000Z</time>
      </trkpt>
      <trkpt lat="22.806801" lon="110.391019">
        <ele>124.805000</ele>
        <time>2026-08-16T08:34:39.000Z</time>
      </trkpt>
      <trkpt lat="22.806830" lon="110.391060">
        <ele>124.852248</ele>
        <time>2026-08-16T08:34:40.000Z</time>
      </trkpt>
      <trkpt lat="22.806852" lon="110.391102">
        <ele>124.896413</ele>
        <time>2026-08-16T08:34:41.000Z</time>
      </trkpt>
      <trkpt lat="22.806876" lon="110.391145">
        <ele>124.942371</ele>
        <time>2026-08-16T08:34:42.000Z</time>
      </trkpt>
      <trkpt lat="22.806904" lon="110.391188">
        <ele>124.990504</ele>
        <time>2026-08-16T08:34:43.000Z</time>
      </trkpt>
      <trkpt lat="22.806927" lon="110.391230">
        <ele>125.035167</ele>
        <time>2026-08-16T08:34:44.000Z</time>
      </trkpt>
      <trkpt lat="22.806950" lon="110.391268">
        <ele>125.076729</ele>
        <time>2026-08-16T08:34:45.000Z</time>
      </trkpt>
      <trkpt lat="22.806971" lon="110.391306">
        <ele>125.117236</ele>
        <time>2026-08-16T08:34:46.000Z</time>
      </trkpt>
      <trkpt lat="22.806993" lon="110.391343">
        <ele>125.157490</ele>
        <time>2026-08-16T08:34:47.000Z</time>
      </trkpt>
      <trkpt lat="22.807016" lon="110.391381">
        <ele>125.199052</ele>
        <time>2026-08-16T08:34:48.000Z</time>
      </trkpt>
      <trkpt lat="22.807038" lon="110.391422">
        <ele>125.242424</ele>
        <time>2026-08-16T08:34:49.000Z</time>
      </trkpt>
      <trkpt lat="22.807059" lon="110.391464">
        <ele>125.286108</ele>
        <time>2026-08-16T08:34:50.000Z</time>
      </trkpt>
      <trkpt lat="22.807081" lon="110.391508">
        <ele>125.331872</ele>
        <time>2026-08-16T08:34:51.000Z</time>
      </trkpt>
      <trkpt lat="22.807106" lon="110.391548">
        <ele>125.376056</ele>
        <time>2026-08-16T08:34:52.000Z</time>
      </trkpt>
      <trkpt lat="22.807131" lon="110.391588">
        <ele>125.420240</ele>
        <time>2026-08-16T08:34:53.000Z</time>
      </trkpt>
      <trkpt lat="22.807155" lon="110.391631">
        <ele>125.466197</ele>
        <time>2026-08-16T08:34:54.000Z</time>
      </trkpt>
      <trkpt lat="22.807180" lon="110.391673">
        <ele>125.511906</ele>
        <time>2026-08-16T08:34:55.000Z</time>
      </trkpt>
      <trkpt lat="22.807203" lon="110.391717">
        <ele>125.558151</ele>
        <time>2026-08-16T08:34:56.000Z</time>
      </trkpt>
      <trkpt lat="22.807226" lon="110.391761">
        <ele>125.604396</ele>
        <time>2026-08-16T08:34:57.000Z</time>
      </trkpt>
      <trkpt lat="22.807251" lon="110.391803">
        <ele>125.650105</ele>
        <time>2026-08-16T08:34:58.000Z</time>
      </trkpt>
      <trkpt lat="22.807284" lon="110.391844">
        <ele>125.699868</ele>
        <time>2026-08-16T08:34:59.000Z</time>
      </trkpt>
      <trkpt lat="22.807314" lon="110.391887">
        <ele>125.749171</ele>
        <time>2026-08-16T08:35:00.000Z</time>
      </trkpt>
      <trkpt lat="22.807343" lon="110.391932">
        <ele>125.799370</ele>
        <time>2026-08-16T08:35:01.000Z</time>
      </trkpt>
      <trkpt lat="22.807372" lon="110.391977">
        <ele>125.849568</ele>
        <time>2026-08-16T08:35:02.000Z</time>
      </trkpt>
      <trkpt lat="22.807399" lon="110.392021">
        <ele>125.897894</ele>
        <time>2026-08-16T08:35:03.000Z</time>
      </trkpt>
      <trkpt lat="22.807427" lon="110.392065">
        <ele>125.946776</ele>
        <time>2026-08-16T08:35:04.000Z</time>
      </trkpt>
      <trkpt lat="22.807452" lon="110.392110">
        <ele>125.994811</ele>
        <time>2026-08-16T08:35:05.000Z</time>
      </trkpt>
      <trkpt lat="22.807480" lon="110.392156">
        <ele>126.045209</ele>
        <time>2026-08-16T08:35:06.000Z</time>
      </trkpt>
      <trkpt lat="22.807505" lon="110.392202">
        <ele>126.094030</ele>
        <time>2026-08-16T08:35:07.000Z</time>
      </trkpt>
      <trkpt lat="22.807531" lon="110.392248">
        <ele>126.143362</ele>
        <time>2026-08-16T08:35:08.000Z</time>
      </trkpt>
      <trkpt lat="22.807557" lon="110.392293">
        <ele>126.191917</ele>
        <time>2026-08-16T08:35:09.000Z</time>
      </trkpt>
      <trkpt lat="22.807583" lon="110.392337">
        <ele>126.238702</ele>
        <time>2026-08-16T08:35:10.000Z</time>
      </trkpt>
      <trkpt lat="22.807610" lon="110.392383">
        <ele>126.279155</ele>
        <time>2026-08-16T08:35:11.000Z</time>
      </trkpt>
      <trkpt lat="22.807636" lon="110.392435">
        <ele>126.323037</ele>
        <time>2026-08-16T08:35:12.000Z</time>
      </trkpt>
      <trkpt lat="22.807663" lon="110.392482">
        <ele>126.364117</ele>
        <time>2026-08-16T08:35:13.000Z</time>
      </trkpt>
      <trkpt lat="22.807690" lon="110.392528">
        <ele>126.404570</ele>
        <time>2026-08-16T08:35:14.000Z</time>
      </trkpt>
      <trkpt lat="22.807715" lon="110.392574">
        <ele>126.444182</ele>
        <time>2026-08-16T08:35:15.000Z</time>
      </trkpt>
      <trkpt lat="22.807743" lon="110.392622">
        <ele>126.486318</ele>
        <time>2026-08-16T08:35:16.000Z</time>
      </trkpt>
      <trkpt lat="22.807770" lon="110.392667">
        <ele>126.526147</ele>
        <time>2026-08-16T08:35:17.000Z</time>
      </trkpt>
      <trkpt lat="22.807799" lon="110.392712">
        <ele>126.566876</ele>
        <time>2026-08-16T08:35:18.000Z</time>
      </trkpt>
      <trkpt lat="22.807827" lon="110.392759">
        <ele>126.608388</ele>
        <time>2026-08-16T08:35:19.000Z</time>
      </trkpt>
      <trkpt lat="22.807854" lon="110.392804">
        <ele>126.648217</ele>
        <time>2026-08-16T08:35:20.000Z</time>
      </trkpt>
      <trkpt lat="22.807883" lon="110.392850">
        <ele>126.689556</ele>
        <time>2026-08-16T08:35:21.000Z</time>
      </trkpt>
      <trkpt lat="22.807912" lon="110.392897">
        <ele>126.731510</ele>
        <time>2026-08-16T08:35:22.000Z</time>
      </trkpt>
      <trkpt lat="22.807939" lon="110.392945">
        <ele>126.773222</ele>
        <time>2026-08-16T08:35:23.000Z</time>
      </trkpt>
      <trkpt lat="22.807964" lon="110.392992">
        <ele>126.813474</ele>
        <time>2026-08-16T08:35:24.000Z</time>
      </trkpt>
      <trkpt lat="22.807991" lon="110.393037">
        <ele>126.853303</ele>
        <time>2026-08-16T08:35:25.000Z</time>
      </trkpt>
      <trkpt lat="22.808016" lon="110.393082">
        <ele>126.892277</ele>
        <time>2026-08-16T08:35:26.000Z</time>
      </trkpt>
      <trkpt lat="22.808040" lon="110.393128">
        <ele>126.931486</ele>
        <time>2026-08-16T08:35:27.000Z</time>
      </trkpt>
      <trkpt lat="22.808063" lon="110.393175">
        <ele>126.970959</ele>
        <time>2026-08-16T08:35:28.000Z</time>
      </trkpt>
      <trkpt lat="22.808088" lon="110.393222">
        <ele>127.011211</ele>
        <time>2026-08-16T08:35:29.000Z</time>
      </trkpt>
      <trkpt lat="22.808113" lon="110.393267">
        <ele>127.050185</ele>
        <time>2026-08-16T08:35:30.000Z</time>
      </trkpt>
      <trkpt lat="22.808139" lon="110.393312">
        <ele>127.089581</ele>
        <time>2026-08-16T08:35:31.000Z</time>
      </trkpt>
      <trkpt lat="22.808165" lon="110.393357">
        <ele>127.128977</ele>
        <time>2026-08-16T08:35:32.000Z</time>
      </trkpt>
      <trkpt lat="22.808192" lon="110.393403">
        <ele>127.169429</ele>
        <time>2026-08-16T08:35:33.000Z</time>
      </trkpt>
      <trkpt lat="22.808217" lon="110.393448">
        <ele>127.208404</ele>
        <time>2026-08-16T08:35:34.000Z</time>
      </trkpt>
      <trkpt lat="22.808243" lon="110.393493">
        <ele>127.247799</ele>
        <time>2026-08-16T08:35:35.000Z</time>
      </trkpt>
      <trkpt lat="22.808269" lon="110.393537">
        <ele>127.286568</ele>
        <time>2026-08-16T08:35:36.000Z</time>
      </trkpt>
      <trkpt lat="22.808296" lon="110.393581">
        <ele>127.325778</ele>
        <time>2026-08-16T08:35:37.000Z</time>
      </trkpt>
      <trkpt lat="22.808321" lon="110.393625">
        <ele>127.364118</ele>
        <time>2026-08-16T08:35:38.000Z</time>
      </trkpt>
      <trkpt lat="22.808346" lon="110.393671">
        <ele>127.403730</ele>
        <time>2026-08-16T08:35:39.000Z</time>
      </trkpt>
      <trkpt lat="22.808373" lon="110.393716">
        <ele>127.443559</ele>
        <time>2026-08-16T08:35:40.000Z</time>
      </trkpt>
      <trkpt lat="22.808397" lon="110.393760">
        <ele>127.481483</ele>
        <time>2026-08-16T08:35:41.000Z</time>
      </trkpt>
      <trkpt lat="22.808424" lon="110.393805">
        <ele>127.521312</ele>
        <time>2026-08-16T08:35:42.000Z</time>
      </trkpt>
      <trkpt lat="22.808450" lon="110.393849">
        <ele>127.560081</ele>
        <time>2026-08-16T08:35:43.000Z</time>
      </trkpt>
      <trkpt lat="22.808476" lon="110.393893">
        <ele>127.598851</ele>
        <time>2026-08-16T08:35:44.000Z</time>
      </trkpt>
      <trkpt lat="22.808504" lon="110.393938">
        <ele>127.639124</ele>
        <time>2026-08-16T08:35:45.000Z</time>
      </trkpt>
      <trkpt lat="22.808532" lon="110.393983">
        <ele>127.679397</ele>
        <time>2026-08-16T08:35:46.000Z</time>
      </trkpt>
      <trkpt lat="22.808560" lon="110.394028">
        <ele>127.724983</ele>
        <time>2026-08-16T08:35:47.000Z</time>
      </trkpt>
      <trkpt lat="22.808586" lon="110.394075">
        <ele>127.771346</ele>
        <time>2026-08-16T08:35:48.000Z</time>
      </trkpt>
      <trkpt lat="22.808613" lon="110.394121">
        <ele>127.817473</ele>
        <time>2026-08-16T08:35:49.000Z</time>
      </trkpt>
      <trkpt lat="22.808640" lon="110.394168">
        <ele>127.864315</ele>
        <time>2026-08-16T08:35:50.000Z</time>
      </trkpt>
      <trkpt lat="22.808666" lon="110.394214">
        <ele>127.909956</ele>
        <time>2026-08-16T08:35:51.000Z</time>
      </trkpt>
      <trkpt lat="22.808693" lon="110.394258">
        <ele>127.954665</ele>
        <time>2026-08-16T08:35:52.000Z</time>
      </trkpt>
      <trkpt lat="22.808719" lon="110.394295">
        <ele>127.994017</ele>
        <time>2026-08-16T08:35:53.000Z</time>
      </trkpt>
      <trkpt lat="22.808745" lon="110.394337">
        <ele>128.036810</ele>
        <time>2026-08-16T08:35:54.000Z</time>
      </trkpt>
      <trkpt lat="22.808771" lon="110.394383">
        <ele>128.082450</ele>
        <time>2026-08-16T08:35:55.000Z</time>
      </trkpt>
      <trkpt lat="22.808796" lon="110.394425">
        <ele>128.124738</ele>
        <time>2026-08-16T08:35:56.000Z</time>
      </trkpt>
      <trkpt lat="22.808822" lon="110.394470">
        <ele>128.169659</ele>
        <time>2026-08-16T08:35:57.000Z</time>
      </trkpt>
      <trkpt lat="22.808848" lon="110.394516">
        <ele>128.215300</ele>
        <time>2026-08-16T08:35:58.000Z</time>
      </trkpt>
      <trkpt lat="22.808875" lon="110.394562">
        <ele>128.261426</ele>
        <time>2026-08-16T08:35:59.000Z</time>
      </trkpt>
      <trkpt lat="22.808901" lon="110.394608">
        <ele>128.307067</ele>
        <time>2026-08-16T08:36:00.000Z</time>
      </trkpt>
      <trkpt lat="22.808928" lon="110.394653">
        <ele>128.352482</ele>
        <time>2026-08-16T08:36:01.000Z</time>
      </trkpt>
      <trkpt lat="22.808953" lon="110.394697">
        <ele>128.396201</ele>
        <time>2026-08-16T08:36:02.000Z</time>
      </trkpt>
      <trkpt lat="22.808978" lon="110.394744">
        <ele>128.442099</ele>
        <time>2026-08-16T08:36:03.000Z</time>
      </trkpt>
      <trkpt lat="22.809001" lon="110.394790">
        <ele>128.486362</ele>
        <time>2026-08-16T08:36:04.000Z</time>
      </trkpt>
      <trkpt lat="22.809025" lon="110.394835">
        <ele>128.530337</ele>
        <time>2026-08-16T08:36:05.000Z</time>
      </trkpt>
      <trkpt lat="22.809048" lon="110.394881">
        <ele>128.574600</ele>
        <time>2026-08-16T08:36:06.000Z</time>
      </trkpt>
      <trkpt lat="22.809076" lon="110.394928">
        <ele>128.621934</ele>
        <time>2026-08-16T08:36:07.000Z</time>
      </trkpt>
      <trkpt lat="22.809104" lon="110.394976">
        <ele>128.669981</ele>
        <time>2026-08-16T08:36:08.000Z</time>
      </trkpt>
      <trkpt lat="22.809133" lon="110.395025">
        <ele>128.719234</ele>
        <time>2026-08-16T08:36:09.000Z</time>
      </trkpt>
      <trkpt lat="22.809160" lon="110.395072">
        <ele>128.766076</ele>
        <time>2026-08-16T08:36:10.000Z</time>
      </trkpt>
      <trkpt lat="22.809189" lon="110.395122">
        <ele>128.816043</ele>
        <time>2026-08-16T08:36:11.000Z</time>
      </trkpt>
      <trkpt lat="22.809217" lon="110.395171">
        <ele>128.864806</ele>
        <time>2026-08-16T08:36:12.000Z</time>
      </trkpt>
      <trkpt lat="22.809244" lon="110.395221">
        <ele>128.913820</ele>
        <time>2026-08-16T08:36:13.000Z</time>
      </trkpt>
      <trkpt lat="22.809272" lon="110.395272">
        <ele>128.964029</ele>
        <time>2026-08-16T08:36:14.000Z</time>
      </trkpt>
      <trkpt lat="22.809300" lon="110.395323">
        <ele>129.014239</ele>
        <time>2026-08-16T08:36:15.000Z</time>
      </trkpt>
      <trkpt lat="22.809330" lon="110.395374">
        <ele>129.065411</ele>
        <time>2026-08-16T08:36:16.000Z</time>
      </trkpt>
      <trkpt lat="22.809362" lon="110.395425">
        <ele>129.117594</ele>
        <time>2026-08-16T08:36:17.000Z</time>
      </trkpt>
      <trkpt lat="22.809396" lon="110.395477">
        <ele>129.171518</ele>
        <time>2026-08-16T08:36:18.000Z</time>
      </trkpt>
      <trkpt lat="22.809427" lon="110.395529">
        <ele>129.223898</ele>
        <time>2026-08-16T08:36:19.000Z</time>
      </trkpt>
      <trkpt lat="22.809457" lon="110.395579">
        <ele>129.274359</ele>
        <time>2026-08-16T08:36:20.000Z</time>
      </trkpt>
      <trkpt lat="22.809485" lon="110.395629">
        <ele>129.323844</ele>
        <time>2026-08-16T08:36:21.000Z</time>
      </trkpt>
      <trkpt lat="22.809514" lon="110.395679">
        <ele>129.368392</ele>
        <time>2026-08-16T08:36:22.000Z</time>
      </trkpt>
      <trkpt lat="22.809541" lon="110.395729">
        <ele>129.411021</ele>
        <time>2026-08-16T08:36:23.000Z</time>
      </trkpt>
      <trkpt lat="22.809569" lon="110.395779">
        <ele>129.454059</ele>
        <time>2026-08-16T08:36:24.000Z</time>
      </trkpt>
      <trkpt lat="22.809598" lon="110.395828">
        <ele>129.496896</ele>
        <time>2026-08-16T08:36:25.000Z</time>
      </trkpt>
      <trkpt lat="22.809626" lon="110.395877">
        <ele>129.539307</ele>
        <time>2026-08-16T08:36:26.000Z</time>
      </trkpt>
      <trkpt lat="22.809654" lon="110.395925">
        <ele>129.581095</ele>
        <time>2026-08-16T08:36:27.000Z</time>
      </trkpt>
      <trkpt lat="22.809681" lon="110.395974">
        <ele>129.623091</ele>
        <time>2026-08-16T08:36:28.000Z</time>
      </trkpt>
      <trkpt lat="22.809710" lon="110.396022">
        <ele>129.665310</ele>
        <time>2026-08-16T08:36:29.000Z</time>
      </trkpt>
      <trkpt lat="22.809738" lon="110.396069">
        <ele>129.706478</ele>
        <time>2026-08-16T08:36:30.000Z</time>
      </trkpt>
      <trkpt lat="22.809766" lon="110.396117">
        <ele>129.748266</ele>
        <time>2026-08-16T08:36:31.000Z</time>
      </trkpt>
      <trkpt lat="22.809793" lon="110.396166">
        <ele>129.790262</ele>
        <time>2026-08-16T08:36:32.000Z</time>
      </trkpt>
      <trkpt lat="22.809821" lon="110.396215">
        <ele>129.832673</ele>
        <time>2026-08-16T08:36:33.000Z</time>
      </trkpt>
      <trkpt lat="22.809849" lon="110.396262">
        <ele>129.873840</ele>
        <time>2026-08-16T08:36:34.000Z</time>
      </trkpt>
      <trkpt lat="22.809877" lon="110.396310">
        <ele>129.915628</ele>
        <time>2026-08-16T08:36:35.000Z</time>
      </trkpt>
      <trkpt lat="22.809904" lon="110.396358">
        <ele>129.956994</ele>
        <time>2026-08-16T08:36:36.000Z</time>
      </trkpt>
      <trkpt lat="22.809932" lon="110.396405">
        <ele>129.998162</ele>
        <time>2026-08-16T08:36:37.000Z</time>
      </trkpt>
      <trkpt lat="22.809961" lon="110.396453">
        <ele>130.040381</ele>
        <time>2026-08-16T08:36:38.000Z</time>
      </trkpt>
      <trkpt lat="22.809989" lon="110.396500">
        <ele>130.081549</ele>
        <time>2026-08-16T08:36:39.000Z</time>
      </trkpt>
      <trkpt lat="22.810017" lon="110.396548">
        <ele>130.123336</ele>
        <time>2026-08-16T08:36:40.000Z</time>
      </trkpt>
      <trkpt lat="22.810045" lon="110.396595">
        <ele>130.164504</ele>
        <time>2026-08-16T08:36:41.000Z</time>
      </trkpt>
      <trkpt lat="22.810072" lon="110.396640">
        <ele>130.204003</ele>
        <time>2026-08-16T08:36:42.000Z</time>
      </trkpt>
      <trkpt lat="22.810099" lon="110.396686">
        <ele>130.244121</ele>
        <time>2026-08-16T08:36:43.000Z</time>
      </trkpt>
      <trkpt lat="22.810125" lon="110.396732">
        <ele>130.283815</ele>
        <time>2026-08-16T08:36:44.000Z</time>
      </trkpt>
      <trkpt lat="22.810151" lon="110.396780">
        <ele>130.324771</ele>
        <time>2026-08-16T08:36:45.000Z</time>
      </trkpt>
      <trkpt lat="22.810177" lon="110.396828">
        <ele>130.365728</ele>
        <time>2026-08-16T08:36:46.000Z</time>
      </trkpt>
      <trkpt lat="22.810202" lon="110.396877">
        <ele>130.406927</ele>
        <time>2026-08-16T08:36:47.000Z</time>
      </trkpt>
      <trkpt lat="22.810227" lon="110.396925">
        <ele>130.447485</ele>
        <time>2026-08-16T08:36:48.000Z</time>
      </trkpt>
      <trkpt lat="22.810252" lon="110.396972">
        <ele>130.487404</ele>
        <time>2026-08-16T08:36:49.000Z</time>
      </trkpt>
      <trkpt lat="22.810277" lon="110.397018">
        <ele>130.526687</ele>
        <time>2026-08-16T08:36:50.000Z</time>
      </trkpt>
      <trkpt lat="22.810300" lon="110.397064">
        <ele>130.565184</ele>
        <time>2026-08-16T08:36:51.000Z</time>
      </trkpt>
      <trkpt lat="22.810326" lon="110.397107">
        <ele>130.603015</ele>
        <time>2026-08-16T08:36:52.000Z</time>
      </trkpt>
      <trkpt lat="22.810352" lon="110.397150">
        <ele>130.640846</ele>
        <time>2026-08-16T08:36:53.000Z</time>
      </trkpt>
      <trkpt lat="22.810377" lon="110.397192">
        <ele>130.677625</ele>
        <time>2026-08-16T08:36:54.000Z</time>
      </trkpt>
      <trkpt lat="22.810403" lon="110.397231">
        <ele>130.713032</ele>
        <time>2026-08-16T08:36:55.000Z</time>
      </trkpt>
      <trkpt lat="22.810428" lon="110.397269">
        <ele>130.747376</ele>
        <time>2026-08-16T08:36:56.000Z</time>
      </trkpt>
      <trkpt lat="22.810451" lon="110.397306">
        <ele>130.806461</ele>
        <time>2026-08-16T08:36:57.000Z</time>
      </trkpt>
      <trkpt lat="22.810473" lon="110.397340">
        <ele>130.900862</ele>
        <time>2026-08-16T08:36:58.000Z</time>
      </trkpt>
      <trkpt lat="22.810494" lon="110.397376">
        <ele>130.997677</ele>
        <time>2026-08-16T08:36:59.000Z</time>
      </trkpt>
      <trkpt lat="22.810515" lon="110.397413">
        <ele>131.096419</ele>
        <time>2026-08-16T08:37:00.000Z</time>
      </trkpt>
      <trkpt lat="22.810536" lon="110.397452">
        <ele>131.199060</ele>
        <time>2026-08-16T08:37:01.000Z</time>
      </trkpt>
      <trkpt lat="22.810556" lon="110.397491">
        <ele>131.300479</ele>
        <time>2026-08-16T08:37:02.000Z</time>
      </trkpt>
      <trkpt lat="22.810577" lon="110.397529">
        <ele>131.401164</ele>
        <time>2026-08-16T08:37:03.000Z</time>
      </trkpt>
      <trkpt lat="22.810598" lon="110.397568">
        <ele>131.503805</ele>
        <time>2026-08-16T08:37:04.000Z</time>
      </trkpt>
      <trkpt lat="22.810620" lon="110.397606">
        <ele>131.605779</ele>
        <time>2026-08-16T08:37:05.000Z</time>
      </trkpt>
      <trkpt lat="22.810640" lon="110.397645">
        <ele>131.707198</ele>
        <time>2026-08-16T08:37:06.000Z</time>
      </trkpt>
      <trkpt lat="22.810660" lon="110.397685">
        <ele>131.810610</ele>
        <time>2026-08-16T08:37:07.000Z</time>
      </trkpt>
      <trkpt lat="22.810682" lon="110.397721">
        <ele>131.908765</ele>
        <time>2026-08-16T08:37:08.000Z</time>
      </trkpt>
      <trkpt lat="22.810704" lon="110.397756">
        <ele>132.005034</ele>
        <time>2026-08-16T08:37:09.000Z</time>
      </trkpt>
      <trkpt lat="22.810725" lon="110.397790">
        <ele>132.098040</ele>
        <time>2026-08-16T08:37:10.000Z</time>
      </trkpt>
      <trkpt lat="22.810746" lon="110.397821">
        <ele>132.185465</ele>
        <time>2026-08-16T08:37:11.000Z</time>
      </trkpt>
      <trkpt lat="22.810766" lon="110.397851">
        <ele>132.269601</ele>
        <time>2026-08-16T08:37:12.000Z</time>
      </trkpt>
      <trkpt lat="22.810787" lon="110.397878">
        <ele>132.349882</ele>
        <time>2026-08-16T08:37:13.000Z</time>
      </trkpt>
      <trkpt lat="22.810808" lon="110.397905">
        <ele>132.430163</ele>
        <time>2026-08-16T08:37:14.000Z</time>
      </trkpt>
      <trkpt lat="22.810829" lon="110.397933">
        <ele>132.512193</ele>
        <time>2026-08-16T08:37:15.000Z</time>
      </trkpt>
      <trkpt lat="22.810850" lon="110.397958">
        <ele>132.589056</ele>
        <time>2026-08-16T08:37:16.000Z</time>
      </trkpt>
      <trkpt lat="22.810870" lon="110.397982">
        <ele>132.662580</ele>
        <time>2026-08-16T08:37:17.000Z</time>
      </trkpt>
      <trkpt lat="22.810888" lon="110.398006">
        <ele>132.732892</ele>
        <time>2026-08-16T08:37:18.000Z</time>
      </trkpt>
      <trkpt lat="22.810905" lon="110.398028">
        <ele>132.798129</ele>
        <time>2026-08-16T08:37:19.000Z</time>
      </trkpt>
      <trkpt lat="22.810920" lon="110.398049">
        <ele>132.858502</ele>
        <time>2026-08-16T08:37:20.000Z</time>
      </trkpt>
      <trkpt lat="22.810936" lon="110.398070">
        <ele>132.920416</ele>
        <time>2026-08-16T08:37:21.000Z</time>
      </trkpt>
      <trkpt lat="22.810952" lon="110.398090">
        <ele>132.980596</ele>
        <time>2026-08-16T08:37:22.000Z</time>
      </trkpt>
      <trkpt lat="22.810967" lon="110.398109">
        <ele>133.037444</ele>
        <time>2026-08-16T08:37:23.000Z</time>
      </trkpt>
      <trkpt lat="22.810980" lon="110.398128">
        <ele>133.091216</ele>
        <time>2026-08-16T08:37:24.000Z</time>
      </trkpt>
      <trkpt lat="22.810994" lon="110.398146">
        <ele>133.144737</ele>
        <time>2026-08-16T08:37:25.000Z</time>
      </trkpt>
      <trkpt lat="22.811009" lon="110.398165">
        <ele>133.201585</ele>
        <time>2026-08-16T08:37:26.000Z</time>
      </trkpt>
      <trkpt lat="22.811024" lon="110.398184">
        <ele>133.258434</ele>
        <time>2026-08-16T08:37:27.000Z</time>
      </trkpt>
      <trkpt lat="22.811039" lon="110.398203">
        <ele>133.315283</ele>
        <time>2026-08-16T08:37:28.000Z</time>
      </trkpt>
      <trkpt lat="22.811057" lon="110.398223">
        <ele>133.378803</ele>
        <time>2026-08-16T08:37:29.000Z</time>
      </trkpt>
      <trkpt lat="22.811074" lon="110.398245">
        <ele>133.444041</ele>
        <time>2026-08-16T08:37:30.000Z</time>
      </trkpt>
      <trkpt lat="22.811087" lon="110.398269">
        <ele>133.507300</ele>
        <time>2026-08-16T08:37:31.000Z</time>
      </trkpt>
      <trkpt lat="22.811101" lon="110.398291">
        <ele>133.568051</ele>
        <time>2026-08-16T08:37:32.000Z</time>
      </trkpt>
      <trkpt lat="22.811117" lon="110.398314">
        <ele>133.633532</ele>
        <time>2026-08-16T08:37:33.000Z</time>
      </trkpt>
      <trkpt lat="22.811135" lon="110.398340">
        <ele>133.707425</ele>
        <time>2026-08-16T08:37:34.000Z</time>
      </trkpt>
      <trkpt lat="22.811152" lon="110.398365">
        <ele>133.778023</ele>
        <time>2026-08-16T08:37:35.000Z</time>
      </trkpt>
      <trkpt lat="22.811169" lon="110.398385">
        <ele>133.839847</ele>
        <time>2026-08-16T08:37:36.000Z</time>
      </trkpt>
      <trkpt lat="22.811186" lon="110.398406">
        <ele>133.903359</ele>
        <time>2026-08-16T08:37:37.000Z</time>
      </trkpt>
      <trkpt lat="22.811202" lon="110.398428">
        <ele>133.967041</ele>
        <time>2026-08-16T08:37:38.000Z</time>
      </trkpt>
      <trkpt lat="22.811211" lon="110.398449">
        <ele>134.019669</ele>
        <time>2026-08-16T08:37:39.000Z</time>
      </trkpt>
      <trkpt lat="22.811223" lon="110.398467">
        <ele>134.070151</ele>
        <time>2026-08-16T08:37:40.000Z</time>
      </trkpt>
      <trkpt lat="22.811234" lon="110.398487">
        <ele>134.123076</ele>
        <time>2026-08-16T08:37:41.000Z</time>
      </trkpt>
      <trkpt lat="22.811243" lon="110.398508">
        <ele>134.175704</ele>
        <time>2026-08-16T08:37:42.000Z</time>
      </trkpt>
      <trkpt lat="22.811252" lon="110.398528">
        <ele>134.226280</ele>
        <time>2026-08-16T08:37:43.000Z</time>
      </trkpt>
      <trkpt lat="22.811259" lon="110.398554">
        <ele>134.287833</ele>
        <time>2026-08-16T08:37:44.000Z</time>
      </trkpt>
      <trkpt lat="22.811267" lon="110.398583">
        <ele>134.356623</ele>
        <time>2026-08-16T08:37:45.000Z</time>
      </trkpt>
      <trkpt lat="22.811279" lon="110.398612">
        <ele>134.428861</ele>
        <time>2026-08-16T08:37:46.000Z</time>
      </trkpt>
      <trkpt lat="22.811292" lon="110.398641">
        <ele>134.502143</ele>
        <time>2026-08-16T08:37:47.000Z</time>
      </trkpt>
      <trkpt lat="22.811309" lon="110.398672">
        <ele>134.584114</ele>
        <time>2026-08-16T08:37:48.000Z</time>
      </trkpt>
      <trkpt lat="22.811324" lon="110.398703">
        <ele>134.663677</ele>
        <time>2026-08-16T08:37:49.000Z</time>
      </trkpt>
      <trkpt lat="22.811338" lon="110.398734">
        <ele>134.742124</ele>
        <time>2026-08-16T08:37:50.000Z</time>
      </trkpt>
      <trkpt lat="22.811354" lon="110.398765">
        <ele>134.822863</ele>
        <time>2026-08-16T08:37:51.000Z</time>
      </trkpt>
      <trkpt lat="22.811373" lon="110.398800">
        <ele>134.915167</ele>
        <time>2026-08-16T08:37:52.000Z</time>
      </trkpt>
      <trkpt lat="22.811393" lon="110.398835">
        <ele>135.008747</ele>
        <time>2026-08-16T08:37:53.000Z</time>
      </trkpt>
      <trkpt lat="22.811411" lon="110.398873">
        <ele>135.105836</ele>
        <time>2026-08-16T08:37:54.000Z</time>
      </trkpt>
      <trkpt lat="22.811429" lon="110.398912">
        <ele>135.198783</ele>
        <time>2026-08-16T08:37:55.000Z</time>
      </trkpt>
      <trkpt lat="22.811447" lon="110.398949">
        <ele>135.105386</ele>
        <time>2026-08-16T08:37:56.000Z</time>
      </trkpt>
      <trkpt lat="22.811468" lon="110.398989">
        <ele>135.002621</ele>
        <time>2026-08-16T08:37:57.000Z</time>
      </trkpt>
      <trkpt lat="22.811489" lon="110.399033">
        <ele>134.892009</ele>
        <time>2026-08-16T08:37:58.000Z</time>
      </trkpt>
      <trkpt lat="22.811511" lon="110.399076">
        <ele>134.782221</ele>
        <time>2026-08-16T08:37:59.000Z</time>
      </trkpt>
      <trkpt lat="22.811531" lon="110.399121">
        <ele>134.670694</ele>
        <time>2026-08-16T08:38:00.000Z</time>
      </trkpt>
      <trkpt lat="22.811553" lon="110.399165">
        <ele>134.558948</ele>
        <time>2026-08-16T08:38:01.000Z</time>
      </trkpt>
      <trkpt lat="22.811577" lon="110.399213">
        <ele>134.437044</ele>
        <time>2026-08-16T08:38:02.000Z</time>
      </trkpt>
      <trkpt lat="22.811603" lon="110.399262">
        <ele>134.310827</ele>
        <time>2026-08-16T08:38:03.000Z</time>
      </trkpt>
      <trkpt lat="22.811627" lon="110.399315">
        <ele>134.179003</ele>
        <time>2026-08-16T08:38:04.000Z</time>
      </trkpt>
      <trkpt lat="22.811653" lon="110.399372">
        <ele>134.037028</ele>
        <time>2026-08-16T08:38:05.000Z</time>
      </trkpt>
      <trkpt lat="22.811680" lon="110.399426">
        <ele>133.899885</ele>
        <time>2026-08-16T08:38:06.000Z</time>
      </trkpt>
      <trkpt lat="22.811709" lon="110.399481">
        <ele>133.758435</ele>
        <time>2026-08-16T08:38:07.000Z</time>
      </trkpt>
      <trkpt lat="22.811736" lon="110.399537">
        <ele>133.617351</ele>
        <time>2026-08-16T08:38:08.000Z</time>
      </trkpt>
      <trkpt lat="22.811764" lon="110.399595">
        <ele>133.471189</ele>
        <time>2026-08-16T08:38:09.000Z</time>
      </trkpt>
      <trkpt lat="22.811792" lon="110.399654">
        <ele>133.323045</ele>
        <time>2026-08-16T08:38:10.000Z</time>
      </trkpt>
      <trkpt lat="22.811820" lon="110.399712">
        <ele>133.176883</ele>
        <time>2026-08-16T08:38:11.000Z</time>
      </trkpt>
      <trkpt lat="22.811849" lon="110.399771">
        <ele>133.027616</ele>
        <time>2026-08-16T08:38:12.000Z</time>
      </trkpt>
      <trkpt lat="22.811877" lon="110.399834">
        <ele>132.871480</ele>
        <time>2026-08-16T08:38:13.000Z</time>
      </trkpt>
      <trkpt lat="22.811903" lon="110.399899">
        <ele>132.713300</ele>
        <time>2026-08-16T08:38:14.000Z</time>
      </trkpt>
      <trkpt lat="22.811929" lon="110.399961">
        <ele>132.561240</ele>
        <time>2026-08-16T08:38:15.000Z</time>
      </trkpt>
      <trkpt lat="22.811952" lon="110.400027">
        <ele>132.403724</ele>
        <time>2026-08-16T08:38:16.000Z</time>
      </trkpt>
      <trkpt lat="22.811975" lon="110.400095">
        <ele>132.242023</ele>
        <time>2026-08-16T08:38:17.000Z</time>
      </trkpt>
      <trkpt lat="22.811997" lon="110.400163">
        <ele>132.081141</ele>
        <time>2026-08-16T08:38:18.000Z</time>
      </trkpt>
      <trkpt lat="22.812014" lon="110.400228">
        <ele>131.930307</ele>
        <time>2026-08-16T08:38:19.000Z</time>
      </trkpt>
      <trkpt lat="22.812035" lon="110.400295">
        <ele>131.772325</ele>
        <time>2026-08-16T08:38:20.000Z</time>
      </trkpt>
      <trkpt lat="22.812054" lon="110.400362">
        <ele>131.615836</ele>
        <time>2026-08-16T08:38:21.000Z</time>
      </trkpt>
      <trkpt lat="22.812074" lon="110.400427">
        <ele>131.462859</ele>
        <time>2026-08-16T08:38:22.000Z</time>
      </trkpt>
      <trkpt lat="22.812095" lon="110.400492">
        <ele>131.309098</ele>
        <time>2026-08-16T08:38:23.000Z</time>
      </trkpt>
      <trkpt lat="22.812116" lon="110.400556">
        <ele>131.157442</ele>
        <time>2026-08-16T08:38:24.000Z</time>
      </trkpt>
      <trkpt lat="22.812134" lon="110.400620">
        <ele>131.008066</ele>
        <time>2026-08-16T08:38:25.000Z</time>
      </trkpt>
      <trkpt lat="22.812156" lon="110.400687">
        <ele>130.849288</ele>
        <time>2026-08-16T08:38:26.000Z</time>
      </trkpt>
      <trkpt lat="22.812178" lon="110.400757">
        <ele>130.781779</ele>
        <time>2026-08-16T08:38:27.000Z</time>
      </trkpt>
      <trkpt lat="22.812207" lon="110.400825">
        <ele>130.715508</ele>
        <time>2026-08-16T08:38:28.000Z</time>
      </trkpt>
      <trkpt lat="22.812233" lon="110.400893">
        <ele>130.650393</ele>
        <time>2026-08-16T08:38:29.000Z</time>
      </trkpt>
      <trkpt lat="22.812256" lon="110.400960">
        <ele>130.587156</ele>
        <time>2026-08-16T08:38:30.000Z</time>
      </trkpt>
      <trkpt lat="22.812282" lon="110.401027">
        <ele>130.522858</ele>
        <time>2026-08-16T08:38:31.000Z</time>
      </trkpt>
      <trkpt lat="22.812309" lon="110.401095">
        <ele>130.457370</ele>
        <time>2026-08-16T08:38:32.000Z</time>
      </trkpt>
      <trkpt lat="22.812337" lon="110.401163">
        <ele>130.391496</ele>
        <time>2026-08-16T08:38:33.000Z</time>
      </trkpt>
      <trkpt lat="22.812367" lon="110.401227">
        <ele>130.327989</ele>
        <time>2026-08-16T08:38:34.000Z</time>
      </trkpt>
      <trkpt lat="22.812398" lon="110.401292">
        <ele>130.263258</ele>
        <time>2026-08-16T08:38:35.000Z</time>
      </trkpt>
      <trkpt lat="22.812429" lon="110.401359">
        <ele>130.196950</ele>
        <time>2026-08-16T08:38:36.000Z</time>
      </trkpt>
      <trkpt lat="22.812451" lon="110.401419">
        <ele>130.139836</ele>
        <time>2026-08-16T08:38:37.000Z</time>
      </trkpt>
      <trkpt lat="22.812479" lon="110.401485">
        <ele>130.075574</ele>
        <time>2026-08-16T08:38:38.000Z</time>
      </trkpt>
      <trkpt lat="22.812512" lon="110.401549">
        <ele>130.010712</ele>
        <time>2026-08-16T08:38:39.000Z</time>
      </trkpt>
      <trkpt lat="22.812558" lon="110.401615">
        <ele>129.937527</ele>
        <time>2026-08-16T08:38:40.000Z</time>
      </trkpt>
      <trkpt lat="22.812595" lon="110.401684">
        <ele>129.866921</ele>
        <time>2026-08-16T08:38:41.000Z</time>
      </trkpt>
      <trkpt lat="22.812619" lon="110.401751">
        <ele>129.803343</ele>
        <time>2026-08-16T08:38:42.000Z</time>
      </trkpt>
      <trkpt lat="22.812632" lon="110.401814">
        <ele>129.746241</ele>
        <time>2026-08-16T08:38:43.000Z</time>
      </trkpt>
      <trkpt lat="22.812649" lon="110.401876">
        <ele>129.689028</ele>
        <time>2026-08-16T08:38:44.000Z</time>
      </trkpt>
      <trkpt lat="22.812659" lon="110.401936">
        <ele>129.635098</ele>
        <time>2026-08-16T08:38:45.000Z</time>
      </trkpt>
      <trkpt lat="22.812670" lon="110.402004">
        <ele>129.574033</ele>
        <time>2026-08-16T08:38:46.000Z</time>
      </trkpt>
      <trkpt lat="22.812682" lon="110.402072">
        <ele>129.512795</ele>
        <time>2026-08-16T08:38:47.000Z</time>
      </trkpt>
      <trkpt lat="22.812695" lon="110.402135">
        <ele>129.455693</ele>
        <time>2026-08-16T08:38:48.000Z</time>
      </trkpt>
      <trkpt lat="22.812707" lon="110.402198">
        <ele>129.398793</ele>
        <time>2026-08-16T08:38:49.000Z</time>
      </trkpt>
      <trkpt lat="22.812718" lon="110.402261">
        <ele>129.342079</ele>
        <time>2026-08-16T08:38:50.000Z</time>
      </trkpt>
      <trkpt lat="22.812728" lon="110.402321">
        <ele>129.288149</ele>
        <time>2026-08-16T08:38:51.000Z</time>
      </trkpt>
      <trkpt lat="22.812737" lon="110.402379">
        <ele>129.236127</ele>
        <time>2026-08-16T08:38:52.000Z</time>
      </trkpt>
      <trkpt lat="22.812746" lon="110.402438">
        <ele>129.183232</ele>
        <time>2026-08-16T08:38:53.000Z</time>
      </trkpt>
      <trkpt lat="22.812755" lon="110.402497">
        <ele>129.130338</ele>
        <time>2026-08-16T08:38:54.000Z</time>
      </trkpt>
      <trkpt lat="22.812765" lon="110.402558">
        <ele>129.113314</ele>
        <time>2026-08-16T08:38:55.000Z</time>
      </trkpt>
      <trkpt lat="22.812776" lon="110.402618">
        <ele>129.105247</ele>
        <time>2026-08-16T08:38:56.000Z</time>
      </trkpt>
      <trkpt lat="22.812789" lon="110.402678">
        <ele>129.097120</ele>
        <time>2026-08-16T08:38:57.000Z</time>
      </trkpt>
      <trkpt lat="22.812803" lon="110.402735">
        <ele>129.089341</ele>
        <time>2026-08-16T08:38:58.000Z</time>
      </trkpt>
      <trkpt lat="22.812816" lon="110.402793">
        <ele>129.081471</ele>
        <time>2026-08-16T08:38:59.000Z</time>
      </trkpt>
      <trkpt lat="22.812828" lon="110.402851">
        <ele>129.073633</ele>
        <time>2026-08-16T08:39:00.000Z</time>
      </trkpt>
      <trkpt lat="22.812839" lon="110.402909">
        <ele>129.065824</ele>
        <time>2026-08-16T08:39:01.000Z</time>
      </trkpt>
      <trkpt lat="22.812851" lon="110.402965">
        <ele>129.058243</ele>
        <time>2026-08-16T08:39:02.000Z</time>
      </trkpt>
      <trkpt lat="22.812862" lon="110.403021">
        <ele>129.050693</ele>
        <time>2026-08-16T08:39:03.000Z</time>
      </trkpt>
      <trkpt lat="22.812874" lon="110.403079">
        <ele>129.042855</ele>
        <time>2026-08-16T08:39:04.000Z</time>
      </trkpt>
      <trkpt lat="22.812886" lon="110.403139">
        <ele>129.034759</ele>
        <time>2026-08-16T08:39:05.000Z</time>
      </trkpt>
      <trkpt lat="22.812899" lon="110.403197">
        <ele>129.026889</ele>
        <time>2026-08-16T08:39:06.000Z</time>
      </trkpt>
      <trkpt lat="22.812911" lon="110.403254">
        <ele>129.019179</ele>
        <time>2026-08-16T08:39:07.000Z</time>
      </trkpt>
      <trkpt lat="22.812924" lon="110.403312">
        <ele>129.011308</ele>
        <time>2026-08-16T08:39:08.000Z</time>
      </trkpt>
      <trkpt lat="22.812935" lon="110.403370">
        <ele>129.003500</ele>
        <time>2026-08-16T08:39:09.000Z</time>
      </trkpt>
      <trkpt lat="22.812946" lon="110.403426">
        <ele>128.995950</ele>
        <time>2026-08-16T08:39:10.000Z</time>
      </trkpt>
      <trkpt lat="22.812959" lon="110.403483">
        <ele>128.988208</ele>
        <time>2026-08-16T08:39:11.000Z</time>
      </trkpt>
      <trkpt lat="22.812970" lon="110.403540">
        <ele>128.980529</ele>
        <time>2026-08-16T08:39:12.000Z</time>
      </trkpt>
      <trkpt lat="22.812980" lon="110.403598">
        <ele>128.972748</ele>
        <time>2026-08-16T08:39:13.000Z</time>
      </trkpt>
      <trkpt lat="22.812992" lon="110.403657">
        <ele>128.964781</ele>
        <time>2026-08-16T08:39:14.000Z</time>
      </trkpt>
      <trkpt lat="22.813005" lon="110.403716">
        <ele>128.956782</ele>
        <time>2026-08-16T08:39:15.000Z</time>
      </trkpt>
      <trkpt lat="22.813017" lon="110.403774">
        <ele>128.948944</ele>
        <time>2026-08-16T08:39:16.000Z</time>
      </trkpt>
      <trkpt lat="22.813028" lon="110.403831">
        <ele>128.941265</ele>
        <time>2026-08-16T08:39:17.000Z</time>
      </trkpt>
      <trkpt lat="22.813040" lon="110.403890">
        <ele>128.933298</ele>
        <time>2026-08-16T08:39:18.000Z</time>
      </trkpt>
      <trkpt lat="22.813052" lon="110.403949">
        <ele>128.925331</ele>
        <time>2026-08-16T08:39:19.000Z</time>
      </trkpt>
      <trkpt lat="22.813064" lon="110.404006">
        <ele>128.917622</ele>
        <time>2026-08-16T08:39:20.000Z</time>
      </trkpt>
      <trkpt lat="22.813075" lon="110.404064">
        <ele>128.909814</ele>
        <time>2026-08-16T08:39:21.000Z</time>
      </trkpt>
      <trkpt lat="22.813086" lon="110.404122">
        <ele>128.902006</ele>
        <time>2026-08-16T08:39:22.000Z</time>
      </trkpt>
      <trkpt lat="22.813100" lon="110.404180">
        <ele>128.894100</ele>
        <time>2026-08-16T08:39:23.000Z</time>
      </trkpt>
      <trkpt lat="22.813112" lon="110.404238">
        <ele>128.886262</ele>
        <time>2026-08-16T08:39:24.000Z</time>
      </trkpt>
      <trkpt lat="22.813121" lon="110.404296">
        <ele>128.878506</ele>
        <time>2026-08-16T08:39:25.000Z</time>
      </trkpt>
      <trkpt lat="22.813131" lon="110.404353">
        <ele>128.870855</ele>
        <time>2026-08-16T08:39:26.000Z</time>
      </trkpt>
      <trkpt lat="22.813142" lon="110.404413">
        <ele>128.862789</ele>
        <time>2026-08-16T08:39:27.000Z</time>
      </trkpt>
      <trkpt lat="22.813153" lon="110.404472">
        <ele>128.832410</ele>
        <time>2026-08-16T08:39:28.000Z</time>
      </trkpt>
      <trkpt lat="22.813163" lon="110.404531">
        <ele>128.801694</ele>
        <time>2026-08-16T08:39:29.000Z</time>
      </trkpt>
      <trkpt lat="22.813173" lon="110.404593">
        <ele>128.769467</ele>
        <time>2026-08-16T08:39:30.000Z</time>
      </trkpt>
      <trkpt lat="22.813185" lon="110.404654">
        <ele>128.737530</ele>
        <time>2026-08-16T08:39:31.000Z</time>
      </trkpt>
      <trkpt lat="22.813197" lon="110.404716">
        <ele>128.705093</ele>
        <time>2026-08-16T08:39:32.000Z</time>
      </trkpt>
      <trkpt lat="22.813209" lon="110.404778">
        <ele>128.672656</ele>
        <time>2026-08-16T08:39:33.000Z</time>
      </trkpt>
      <trkpt lat="22.813221" lon="110.404840">
        <ele>128.640218</ele>
        <time>2026-08-16T08:39:34.000Z</time>
      </trkpt>
      <trkpt lat="22.813233" lon="110.404900">
        <ele>128.608783</ele>
        <time>2026-08-16T08:39:35.000Z</time>
      </trkpt>
      <trkpt lat="22.813244" lon="110.404962">
        <ele>128.576455</ele>
        <time>2026-08-16T08:39:36.000Z</time>
      </trkpt>
      <trkpt lat="22.813256" lon="110.405025">
        <ele>128.543516</ele>
        <time>2026-08-16T08:39:37.000Z</time>
      </trkpt>
      <trkpt lat="22.813268" lon="110.405087">
        <ele>128.511079</ele>
        <time>2026-08-16T08:39:38.000Z</time>
      </trkpt>
      <trkpt lat="22.813280" lon="110.405150">
        <ele>128.478141</ele>
        <time>2026-08-16T08:39:39.000Z</time>
      </trkpt>
      <trkpt lat="22.813291" lon="110.405214">
        <ele>128.444807</ele>
        <time>2026-08-16T08:39:40.000Z</time>
      </trkpt>
      <trkpt lat="22.813303" lon="110.405277">
        <ele>128.411868</ele>
        <time>2026-08-16T08:39:41.000Z</time>
      </trkpt>
      <trkpt lat="22.813315" lon="110.405341">
        <ele>128.378428</ele>
        <time>2026-08-16T08:39:42.000Z</time>
      </trkpt>
      <trkpt lat="22.813329" lon="110.405405">
        <ele>128.344749</ele>
        <time>2026-08-16T08:39:43.000Z</time>
      </trkpt>
      <trkpt lat="22.813343" lon="110.405467">
        <ele>128.312065</ele>
        <time>2026-08-16T08:39:44.000Z</time>
      </trkpt>
      <trkpt lat="22.813358" lon="110.405528">
        <ele>128.279740</ele>
        <time>2026-08-16T08:39:45.000Z</time>
      </trkpt>
      <trkpt lat="22.813374" lon="110.405589">
        <ele>128.247267</ele>
        <time>2026-08-16T08:39:46.000Z</time>
      </trkpt>
      <trkpt lat="22.813391" lon="110.405650">
        <ele>128.214638</ele>
        <time>2026-08-16T08:39:47.000Z</time>
      </trkpt>
      <trkpt lat="22.813410" lon="110.405709">
        <ele>128.182638</ele>
        <time>2026-08-16T08:39:48.000Z</time>
      </trkpt>
      <trkpt lat="22.813429" lon="110.405765">
        <ele>128.152085</ele>
        <time>2026-08-16T08:39:49.000Z</time>
      </trkpt>
      <trkpt lat="22.813446" lon="110.405822">
        <ele>128.121410</ele>
        <time>2026-08-16T08:39:50.000Z</time>
      </trkpt>
      <trkpt lat="22.813463" lon="110.405880">
        <ele>128.090248</ele>
        <time>2026-08-16T08:39:51.000Z</time>
      </trkpt>
      <trkpt lat="22.813481" lon="110.405937">
        <ele>128.059398</ele>
        <time>2026-08-16T08:39:52.000Z</time>
      </trkpt>
      <trkpt lat="22.813500" lon="110.405996">
        <ele>128.027399</ele>
        <time>2026-08-16T08:39:53.000Z</time>
      </trkpt>
      <trkpt lat="22.813518" lon="110.406055">
        <ele>127.995578</ele>
        <time>2026-08-16T08:39:54.000Z</time>
      </trkpt>
      <trkpt lat="22.813536" lon="110.406115">
        <ele>127.963271</ele>
        <time>2026-08-16T08:39:55.000Z</time>
      </trkpt>
      <trkpt lat="22.813554" lon="110.406175">
        <ele>127.930964</ele>
        <time>2026-08-16T08:39:56.000Z</time>
      </trkpt>
      <trkpt lat="22.813571" lon="110.406237">
        <ele>127.897844</ele>
        <time>2026-08-16T08:39:57.000Z</time>
      </trkpt>
      <trkpt lat="22.813589" lon="110.406298">
        <ele>127.865050</ele>
        <time>2026-08-16T08:39:58.000Z</time>
      </trkpt>
      <trkpt lat="22.813609" lon="110.406361">
        <ele>127.819651</ele>
        <time>2026-08-16T08:39:59.000Z</time>
      </trkpt>
      <trkpt lat="22.813630" lon="110.406424">
        <ele>127.773483</ele>
        <time>2026-08-16T08:40:00.000Z</time>
      </trkpt>
      <trkpt lat="22.813650" lon="110.406490">
        <ele>127.725605</ele>
        <time>2026-08-16T08:40:01.000Z</time>
      </trkpt>
      <trkpt lat="22.813669" lon="110.406556">
        <ele>127.677954</ele>
        <time>2026-08-16T08:40:02.000Z</time>
      </trkpt>
      <trkpt lat="22.813687" lon="110.406622">
        <ele>127.630521</ele>
        <time>2026-08-16T08:40:03.000Z</time>
      </trkpt>
      <trkpt lat="22.813702" lon="110.406688">
        <ele>127.583675</ele>
        <time>2026-08-16T08:40:04.000Z</time>
      </trkpt>
      <trkpt lat="22.813715" lon="110.406753">
        <ele>127.537838</ele>
        <time>2026-08-16T08:40:05.000Z</time>
      </trkpt>
      <trkpt lat="22.813729" lon="110.406818">
        <ele>127.491837</ele>
        <time>2026-08-16T08:40:06.000Z</time>
      </trkpt>
      <trkpt lat="22.813742" lon="110.406883">
        <ele>127.446000</ele>
        <time>2026-08-16T08:40:07.000Z</time>
      </trkpt>
      <trkpt lat="22.813753" lon="110.406945">
        <ele>127.402488</ele>
        <time>2026-08-16T08:40:08.000Z</time>
      </trkpt>
      <trkpt lat="22.813767" lon="110.407009">
        <ele>127.357157</ele>
        <time>2026-08-16T08:40:09.000Z</time>
      </trkpt>
      <trkpt lat="22.813779" lon="110.407072">
        <ele>127.312824</ele>
        <time>2026-08-16T08:40:10.000Z</time>
      </trkpt>
      <trkpt lat="22.813791" lon="110.407134">
        <ele>127.269165</ele>
        <time>2026-08-16T08:40:11.000Z</time>
      </trkpt>
      <trkpt lat="22.813801" lon="110.407197">
        <ele>127.225109</ele>
        <time>2026-08-16T08:40:12.000Z</time>
      </trkpt>
      <trkpt lat="22.813813" lon="110.407260">
        <ele>127.180776</ele>
        <time>2026-08-16T08:40:13.000Z</time>
      </trkpt>
      <trkpt lat="22.813824" lon="110.407325">
        <ele>127.135232</ele>
        <time>2026-08-16T08:40:14.000Z</time>
      </trkpt>
      <trkpt lat="22.813835" lon="110.407391">
        <ele>127.089011</ele>
        <time>2026-08-16T08:40:15.000Z</time>
      </trkpt>
      <trkpt lat="22.813847" lon="110.407457">
        <ele>127.042650</ele>
        <time>2026-08-16T08:40:16.000Z</time>
      </trkpt>
      <trkpt lat="22.813860" lon="110.407522">
        <ele>126.996813</ele>
        <time>2026-08-16T08:40:17.000Z</time>
      </trkpt>
      <trkpt lat="22.813871" lon="110.407587">
        <ele>126.951270</ele>
        <time>2026-08-16T08:40:18.000Z</time>
      </trkpt>
      <trkpt lat="22.813880" lon="110.407653">
        <ele>126.905291</ele>
        <time>2026-08-16T08:40:19.000Z</time>
      </trkpt>
      <trkpt lat="22.813889" lon="110.407718">
        <ele>126.859994</ele>
        <time>2026-08-16T08:40:20.000Z</time>
      </trkpt>
      <trkpt lat="22.813901" lon="110.407783">
        <ele>126.814310</ele>
        <time>2026-08-16T08:40:21.000Z</time>
      </trkpt>
      <trkpt lat="22.813916" lon="110.407849">
        <ele>126.767464</ele>
        <time>2026-08-16T08:40:22.000Z</time>
      </trkpt>
      <trkpt lat="22.813934" lon="110.407915">
        <ele>126.720031</ele>
        <time>2026-08-16T08:40:23.000Z</time>
      </trkpt>
      <trkpt lat="22.813947" lon="110.407981">
        <ele>126.673520</ele>
        <time>2026-08-16T08:40:24.000Z</time>
      </trkpt>
      <trkpt lat="22.813957" lon="110.408048">
        <ele>126.626746</ele>
        <time>2026-08-16T08:40:25.000Z</time>
      </trkpt>
      <trkpt lat="22.813971" lon="110.408113">
        <ele>126.580744</ele>
        <time>2026-08-16T08:40:26.000Z</time>
      </trkpt>
      <trkpt lat="22.813986" lon="110.408178">
        <ele>126.534567</ele>
        <time>2026-08-16T08:40:27.000Z</time>
      </trkpt>
      <trkpt lat="22.813998" lon="110.408241">
        <ele>126.490382</ele>
        <time>2026-08-16T08:40:28.000Z</time>
      </trkpt>
      <trkpt lat="22.814011" lon="110.408306">
        <ele>126.444782</ele>
        <time>2026-08-16T08:40:29.000Z</time>
      </trkpt>
      <trkpt lat="22.814020" lon="110.408370">
        <ele>126.400398</ele>
        <time>2026-08-16T08:40:30.000Z</time>
      </trkpt>
      <trkpt lat="22.814030" lon="110.408436">
        <ele>126.354543</ele>
        <time>2026-08-16T08:40:31.000Z</time>
      </trkpt>
      <trkpt lat="22.814041" lon="110.408503">
        <ele>126.307886</ele>
        <time>2026-08-16T08:40:32.000Z</time>
      </trkpt>
      <trkpt lat="22.814054" lon="110.408567">
        <ele>126.262956</ele>
        <time>2026-08-16T08:40:33.000Z</time>
      </trkpt>
      <trkpt lat="22.814065" lon="110.408630">
        <ele>126.218997</ele>
        <time>2026-08-16T08:40:34.000Z</time>
      </trkpt>
      <trkpt lat="22.814074" lon="110.408692">
        <ele>126.175967</ele>
        <time>2026-08-16T08:40:35.000Z</time>
      </trkpt>
      <trkpt lat="22.814083" lon="110.408754">
        <ele>126.132938</ele>
        <time>2026-08-16T08:40:36.000Z</time>
      </trkpt>
      <trkpt lat="22.814093" lon="110.408815">
        <ele>126.090461</ele>
        <time>2026-08-16T08:40:37.000Z</time>
      </trkpt>
      <trkpt lat="22.814103" lon="110.408873">
        <ele>126.050008</ele>
        <time>2026-08-16T08:40:38.000Z</time>
      </trkpt>
      <trkpt lat="22.814111" lon="110.408932">
        <ele>126.009124</ele>
        <time>2026-08-16T08:40:39.000Z</time>
      </trkpt>
      <trkpt lat="22.814119" lon="110.408990">
        <ele>125.968918</ele>
        <time>2026-08-16T08:40:40.000Z</time>
      </trkpt>
      <trkpt lat="22.814128" lon="110.409045">
        <ele>125.930622</ele>
        <time>2026-08-16T08:40:41.000Z</time>
      </trkpt>
      <trkpt lat="22.814137" lon="110.409099">
        <ele>125.893000</ele>
        <time>2026-08-16T08:40:42.000Z</time>
      </trkpt>
      <trkpt lat="22.814147" lon="110.409154">
        <ele>125.854567</ele>
        <time>2026-08-16T08:40:43.000Z</time>
      </trkpt>
      <trkpt lat="22.814154" lon="110.409206">
        <ele>125.818539</ele>
        <time>2026-08-16T08:40:44.000Z</time>
      </trkpt>
      <trkpt lat="22.814163" lon="110.409259">
        <ele>125.781592</ele>
        <time>2026-08-16T08:40:45.000Z</time>
      </trkpt>
      <trkpt lat="22.814173" lon="110.409312">
        <ele>125.744503</ele>
        <time>2026-08-16T08:40:46.000Z</time>
      </trkpt>
      <trkpt lat="22.814181" lon="110.409366">
        <ele>125.707007</ele>
        <time>2026-08-16T08:40:47.000Z</time>
      </trkpt>
      <trkpt lat="22.814189" lon="110.409420">
        <ele>125.669511</ele>
        <time>2026-08-16T08:40:48.000Z</time>
      </trkpt>
      <trkpt lat="22.814200" lon="110.409477">
        <ele>125.629586</ele>
        <time>2026-08-16T08:40:49.000Z</time>
      </trkpt>
      <trkpt lat="22.814212" lon="110.409537">
        <ele>125.587494</ele>
        <time>2026-08-16T08:40:50.000Z</time>
      </trkpt>
      <trkpt lat="22.814224" lon="110.409597">
        <ele>125.545402</ele>
        <time>2026-08-16T08:40:51.000Z</time>
      </trkpt>
      <trkpt lat="22.814237" lon="110.409659">
        <ele>125.501811</ele>
        <time>2026-08-16T08:40:52.000Z</time>
      </trkpt>
      <trkpt lat="22.814251" lon="110.409723">
        <ele>125.456715</ele>
        <time>2026-08-16T08:40:53.000Z</time>
      </trkpt>
      <trkpt lat="22.814263" lon="110.409787">
        <ele>125.411940</ele>
        <time>2026-08-16T08:40:54.000Z</time>
      </trkpt>
      <trkpt lat="22.814274" lon="110.409852">
        <ele>125.366633</ele>
        <time>2026-08-16T08:40:55.000Z</time>
      </trkpt>
      <trkpt lat="22.814283" lon="110.409919">
        <ele>125.320214</ele>
        <time>2026-08-16T08:40:56.000Z</time>
      </trkpt>
      <trkpt lat="22.814293" lon="110.409985">
        <ele>125.274359</ele>
        <time>2026-08-16T08:40:57.000Z</time>
      </trkpt>
      <trkpt lat="22.814303" lon="110.410050">
        <ele>125.229180</ele>
        <time>2026-08-16T08:40:58.000Z</time>
      </trkpt>
      <trkpt lat="22.814313" lon="110.410114">
        <ele>125.184677</ele>
        <time>2026-08-16T08:40:59.000Z</time>
      </trkpt>
      <trkpt lat="22.814324" lon="110.410179">
        <ele>125.157076</ele>
        <time>2026-08-16T08:41:00.000Z</time>
      </trkpt>
      <trkpt lat="22.814338" lon="110.410246">
        <ele>125.129987</ele>
        <time>2026-08-16T08:41:01.000Z</time>
      </trkpt>
      <trkpt lat="22.814351" lon="110.410315">
        <ele>125.102216</ele>
        <time>2026-08-16T08:41:02.000Z</time>
      </trkpt>
      <trkpt lat="22.814361" lon="110.410384">
        <ele>125.074673</ele>
        <time>2026-08-16T08:41:03.000Z</time>
      </trkpt>
      <trkpt lat="22.814373" lon="110.410453">
        <ele>125.046985</ele>
        <time>2026-08-16T08:41:04.000Z</time>
      </trkpt>
      <trkpt lat="22.814384" lon="110.410520">
        <ele>125.020150</ele>
        <time>2026-08-16T08:41:05.000Z</time>
      </trkpt>
      <trkpt lat="22.814394" lon="110.410587">
        <ele>124.993386</ele>
        <time>2026-08-16T08:41:06.000Z</time>
      </trkpt>
      <trkpt lat="22.814402" lon="110.410653">
        <ele>124.967137</ele>
        <time>2026-08-16T08:41:07.000Z</time>
      </trkpt>
      <trkpt lat="22.814411" lon="110.410717">
        <ele>124.941608</ele>
        <time>2026-08-16T08:41:08.000Z</time>
      </trkpt>
      <trkpt lat="22.814419" lon="110.410781">
        <ele>124.916140</ele>
        <time>2026-08-16T08:41:09.000Z</time>
      </trkpt>
      <trkpt lat="22.814428" lon="110.410844">
        <ele>124.891001</ele>
        <time>2026-08-16T08:41:10.000Z</time>
      </trkpt>
      <trkpt lat="22.814435" lon="110.410906">
        <ele>124.866371</ele>
        <time>2026-08-16T08:41:11.000Z</time>
      </trkpt>
      <trkpt lat="22.814439" lon="110.410969">
        <ele>124.841470</ele>
        <time>2026-08-16T08:41:12.000Z</time>
      </trkpt>
      <trkpt lat="22.814443" lon="110.411029">
        <ele>124.817748</ele>
        <time>2026-08-16T08:41:13.000Z</time>
      </trkpt>
      <trkpt lat="22.814449" lon="110.411090">
        <ele>124.793558</ele>
        <time>2026-08-16T08:41:14.000Z</time>
      </trkpt>
      <trkpt lat="22.814455" lon="110.411150">
        <ele>124.769760</ele>
        <time>2026-08-16T08:41:15.000Z</time>
      </trkpt>
      <trkpt lat="22.814461" lon="110.411211">
        <ele>124.745570</ele>
        <time>2026-08-16T08:41:16.000Z</time>
      </trkpt>
      <trkpt lat="22.814469" lon="110.411272">
        <ele>124.721274</ele>
        <time>2026-08-16T08:41:17.000Z</time>
      </trkpt>
      <trkpt lat="22.814478" lon="110.411333">
        <ele>124.696914</ele>
        <time>2026-08-16T08:41:18.000Z</time>
      </trkpt>
      <trkpt lat="22.814488" lon="110.411393">
        <ele>124.672871</ele>
        <time>2026-08-16T08:41:19.000Z</time>
      </trkpt>
      <trkpt lat="22.814496" lon="110.411453">
        <ele>124.648966</ele>
        <time>2026-08-16T08:41:20.000Z</time>
      </trkpt>
      <trkpt lat="22.814505" lon="110.411512">
        <ele>124.625384</ele>
        <time>2026-08-16T08:41:21.000Z</time>
      </trkpt>
      <trkpt lat="22.814514" lon="110.411571">
        <ele>124.601803</ele>
        <time>2026-08-16T08:41:22.000Z</time>
      </trkpt>
      <trkpt lat="22.814521" lon="110.411630">
        <ele>124.578346</ele>
        <time>2026-08-16T08:41:23.000Z</time>
      </trkpt>
      <trkpt lat="22.814531" lon="110.411691">
        <ele>124.553915</ele>
        <time>2026-08-16T08:41:24.000Z</time>
      </trkpt>
      <trkpt lat="22.814540" lon="110.411751">
        <ele>124.529944</ele>
        <time>2026-08-16T08:41:25.000Z</time>
      </trkpt>
      <trkpt lat="22.814549" lon="110.411811">
        <ele>124.505974</ele>
        <time>2026-08-16T08:41:26.000Z</time>
      </trkpt>
      <trkpt lat="22.814557" lon="110.411868">
        <ele>124.483238</ele>
        <time>2026-08-16T08:41:27.000Z</time>
      </trkpt>
      <trkpt lat="22.814570" lon="110.411925">
        <ele>124.460084</ele>
        <time>2026-08-16T08:41:28.000Z</time>
      </trkpt>
      <trkpt lat="22.814577" lon="110.411982">
        <ele>124.437409</ele>
        <time>2026-08-16T08:41:29.000Z</time>
      </trkpt>
      <trkpt lat="22.814585" lon="110.412039">
        <ele>124.414674</ele>
        <time>2026-08-16T08:41:30.000Z</time>
      </trkpt>
      <trkpt lat="22.814592" lon="110.412096">
        <ele>124.397081</ele>
        <time>2026-08-16T08:41:31.000Z</time>
      </trkpt>
      <trkpt lat="22.814599" lon="110.412153">
        <ele>124.380284</ele>
        <time>2026-08-16T08:41:32.000Z</time>
      </trkpt>
      <trkpt lat="22.814607" lon="110.412210">
        <ele>124.363441</ele>
        <time>2026-08-16T08:41:33.000Z</time>
      </trkpt>
      <trkpt lat="22.814620" lon="110.412264">
        <ele>124.347138</ele>
        <time>2026-08-16T08:41:34.000Z</time>
      </trkpt>
      <trkpt lat="22.814633" lon="110.412316">
        <ele>124.331399</ele>
        <time>2026-08-16T08:41:35.000Z</time>
      </trkpt>
      <trkpt lat="22.814648" lon="110.412366">
        <ele>124.316040</ele>
        <time>2026-08-16T08:41:36.000Z</time>
      </trkpt>
      <trkpt lat="22.814664" lon="110.412417">
        <ele>124.300303</ele>
        <time>2026-08-16T08:41:37.000Z</time>
      </trkpt>
      <trkpt lat="22.814686" lon="110.412465">
        <ele>124.284644</ele>
        <time>2026-08-16T08:41:38.000Z</time>
      </trkpt>
      <trkpt lat="22.814712" lon="110.412512">
        <ele>124.268632</ele>
        <time>2026-08-16T08:41:39.000Z</time>
      </trkpt>
      <trkpt lat="22.814738" lon="110.412558">
        <ele>124.252869</ele>
        <time>2026-08-16T08:41:40.000Z</time>
      </trkpt>
      <trkpt lat="22.814763" lon="110.412602">
        <ele>124.237771</ele>
        <time>2026-08-16T08:41:41.000Z</time>
      </trkpt>
      <trkpt lat="22.814792" lon="110.412647">
        <ele>124.221732</ele>
        <time>2026-08-16T08:41:42.000Z</time>
      </trkpt>
      <trkpt lat="22.814823" lon="110.412694">
        <ele>124.204849</ele>
        <time>2026-08-16T08:41:43.000Z</time>
      </trkpt>
      <trkpt lat="22.814855" lon="110.412743">
        <ele>124.187308</ele>
        <time>2026-08-16T08:41:44.000Z</time>
      </trkpt>
      <trkpt lat="22.814889" lon="110.412792">
        <ele>124.169392</ele>
        <time>2026-08-16T08:41:45.000Z</time>
      </trkpt>
      <trkpt lat="22.814926" lon="110.412835">
        <ele>124.152209</ele>
        <time>2026-08-16T08:41:46.000Z</time>
      </trkpt>
      <trkpt lat="22.814964" lon="110.412874">
        <ele>124.135631</ele>
        <time>2026-08-16T08:41:47.000Z</time>
      </trkpt>
      <trkpt lat="22.814998" lon="110.412920">
        <ele>124.118408</ele>
        <time>2026-08-16T08:41:48.000Z</time>
      </trkpt>
      <trkpt lat="22.815033" lon="110.412967">
        <ele>124.100758</ele>
        <time>2026-08-16T08:41:49.000Z</time>
      </trkpt>
      <trkpt lat="22.815067" lon="110.413014">
        <ele>124.083305</ele>
        <time>2026-08-16T08:41:50.000Z</time>
      </trkpt>
      <trkpt lat="22.815101" lon="110.413062">
        <ele>124.065622</ele>
        <time>2026-08-16T08:41:51.000Z</time>
      </trkpt>
      <trkpt lat="22.815133" lon="110.413112">
        <ele>124.047841</ele>
        <time>2026-08-16T08:41:52.000Z</time>
      </trkpt>
      <trkpt lat="22.815161" lon="110.413159">
        <ele>124.031494</ele>
        <time>2026-08-16T08:41:53.000Z</time>
      </trkpt>
      <trkpt lat="22.815196" lon="110.413203">
        <ele>124.014517</ele>
        <time>2026-08-16T08:41:54.000Z</time>
      </trkpt>
      <trkpt lat="22.815232" lon="110.413247">
        <ele>123.997331</ele>
        <time>2026-08-16T08:41:55.000Z</time>
      </trkpt>
      <trkpt lat="22.815267" lon="110.413290">
        <ele>123.980574</ele>
        <time>2026-08-16T08:41:56.000Z</time>
      </trkpt>
      <trkpt lat="22.815302" lon="110.413337">
        <ele>123.962924</ele>
        <time>2026-08-16T08:41:57.000Z</time>
      </trkpt>
      <trkpt lat="22.815335" lon="110.413386">
        <ele>123.945197</ele>
        <time>2026-08-16T08:41:58.000Z</time>
      </trkpt>
      <trkpt lat="22.815372" lon="110.413433">
        <ele>123.927142</ele>
        <time>2026-08-16T08:41:59.000Z</time>
      </trkpt>
      <trkpt lat="22.815409" lon="110.413480">
        <ele>123.909087</ele>
        <time>2026-08-16T08:42:00.000Z</time>
      </trkpt>
      <trkpt lat="22.815448" lon="110.413528">
        <ele>123.890396</ele>
        <time>2026-08-16T08:42:01.000Z</time>
      </trkpt>
      <trkpt lat="22.815487" lon="110.413574">
        <ele>123.872139</ele>
        <time>2026-08-16T08:42:02.000Z</time>
      </trkpt>
      <trkpt lat="22.815524" lon="110.413620">
        <ele>123.854306</ele>
        <time>2026-08-16T08:42:03.000Z</time>
      </trkpt>
      <trkpt lat="22.815559" lon="110.413669">
        <ele>123.859726</ele>
        <time>2026-08-16T08:42:04.000Z</time>
      </trkpt>
      <trkpt lat="22.815598" lon="110.413716">
        <ele>123.921631</ele>
        <time>2026-08-16T08:42:05.000Z</time>
      </trkpt>
      <trkpt lat="22.815638" lon="110.413763">
        <ele>123.984252</ele>
        <time>2026-08-16T08:42:06.000Z</time>
      </trkpt>
      <trkpt lat="22.815675" lon="110.413810">
        <ele>124.044757</ele>
        <time>2026-08-16T08:42:07.000Z</time>
      </trkpt>
      <trkpt lat="22.815713" lon="110.413859">
        <ele>124.107442</ele>
        <time>2026-08-16T08:42:08.000Z</time>
      </trkpt>
      <trkpt lat="22.815753" lon="110.413909">
        <ele>124.172251</ele>
        <time>2026-08-16T08:42:09.000Z</time>
      </trkpt>
      <trkpt lat="22.815792" lon="110.413958">
        <ele>124.235625</ele>
        <time>2026-08-16T08:42:10.000Z</time>
      </trkpt>
      <trkpt lat="22.815826" lon="110.414004">
        <ele>124.293344</ele>
        <time>2026-08-16T08:42:11.000Z</time>
      </trkpt>
      <trkpt lat="22.815863" lon="110.414050">
        <ele>124.353108</ele>
        <time>2026-08-16T08:42:12.000Z</time>
      </trkpt>
      <trkpt lat="22.815899" lon="110.414096">
        <ele>124.412179</ele>
        <time>2026-08-16T08:42:13.000Z</time>
      </trkpt>
      <trkpt lat="22.815935" lon="110.414142">
        <ele>124.471249</ele>
        <time>2026-08-16T08:42:14.000Z</time>
      </trkpt>
      <trkpt lat="22.815972" lon="110.414189">
        <ele>124.531754</ele>
        <time>2026-08-16T08:42:15.000Z</time>
      </trkpt>
      <trkpt lat="22.816005" lon="110.414233">
        <ele>124.587283</ele>
        <time>2026-08-16T08:42:16.000Z</time>
      </trkpt>
      <trkpt lat="22.816039" lon="110.414278">
        <ele>124.644241</ele>
        <time>2026-08-16T08:42:17.000Z</time>
      </trkpt>
      <trkpt lat="22.816070" lon="110.414321">
        <ele>124.697680</ele>
        <time>2026-08-16T08:42:18.000Z</time>
      </trkpt>
      <trkpt lat="22.816103" lon="110.414363">
        <ele>124.751704</ele>
        <time>2026-08-16T08:42:19.000Z</time>
      </trkpt>
      <trkpt lat="22.816133" lon="110.414401">
        <ele>124.800681</ele>
        <time>2026-08-16T08:42:20.000Z</time>
      </trkpt>
      <trkpt lat="22.816159" lon="110.414434">
        <ele>124.843178</ele>
        <time>2026-08-16T08:42:21.000Z</time>
      </trkpt>
      <trkpt lat="22.816183" lon="110.414464">
        <ele>124.882063</ele>
        <time>2026-08-16T08:42:22.000Z</time>
      </trkpt>
      <trkpt lat="22.816207" lon="110.414491">
        <ele>124.918781</ele>
        <time>2026-08-16T08:42:23.000Z</time>
      </trkpt>
      <trkpt lat="22.816231" lon="110.414516">
        <ele>124.954116</ele>
        <time>2026-08-16T08:42:24.000Z</time>
      </trkpt>
      <trkpt lat="22.816259" lon="110.414543">
        <ele>124.993901</ele>
        <time>2026-08-16T08:42:25.000Z</time>
      </trkpt>
      <trkpt lat="22.816285" lon="110.414575">
        <ele>125.035658</ele>
        <time>2026-08-16T08:42:26.000Z</time>
      </trkpt>
      <trkpt lat="22.816310" lon="110.414607">
        <ele>125.076721</ele>
        <time>2026-08-16T08:42:27.000Z</time>
      </trkpt>
      <trkpt lat="22.816337" lon="110.414638">
        <ele>125.118471</ele>
        <time>2026-08-16T08:42:28.000Z</time>
      </trkpt>
      <trkpt lat="22.816363" lon="110.414669">
        <ele>125.159499</ele>
        <time>2026-08-16T08:42:29.000Z</time>
      </trkpt>
      <trkpt lat="22.816389" lon="110.414702">
        <ele>125.201996</ele>
        <time>2026-08-16T08:42:30.000Z</time>
      </trkpt>
      <trkpt lat="22.816415" lon="110.414734">
        <ele>125.243753</ele>
        <time>2026-08-16T08:42:31.000Z</time>
      </trkpt>
      <trkpt lat="22.816439" lon="110.414764">
        <ele>125.282639</ele>
        <time>2026-08-16T08:42:32.000Z</time>
      </trkpt>
      <trkpt lat="22.816467" lon="110.414798">
        <ele>125.327270</ele>
        <time>2026-08-16T08:42:33.000Z</time>
      </trkpt>
      <trkpt lat="22.816495" lon="110.414828">
        <ele>125.369063</ele>
        <time>2026-08-16T08:42:34.000Z</time>
      </trkpt>
      <trkpt lat="22.816520" lon="110.414860">
        <ele>125.410126</ele>
        <time>2026-08-16T08:42:35.000Z</time>
      </trkpt>
      <trkpt lat="22.816543" lon="110.414890">
        <ele>125.448324</ele>
        <time>2026-08-16T08:42:36.000Z</time>
      </trkpt>
      <trkpt lat="22.816560" lon="110.414924">
        <ele>125.486188</ele>
        <time>2026-08-16T08:42:37.000Z</time>
      </trkpt>
      <trkpt lat="22.816580" lon="110.414953">
        <ele>125.521642</ele>
        <time>2026-08-16T08:42:38.000Z</time>
      </trkpt>
      <trkpt lat="22.816605" lon="110.414983">
        <ele>125.561232</ele>
        <time>2026-08-16T08:42:39.000Z</time>
      </trkpt>
      <trkpt lat="22.816632" lon="110.415014">
        <ele>125.602982</ele>
        <time>2026-08-16T08:42:40.000Z</time>
      </trkpt>
      <trkpt lat="22.816661" lon="110.415045">
        <ele>125.646219</ele>
        <time>2026-08-16T08:42:41.000Z</time>
      </trkpt>
      <trkpt lat="22.816691" lon="110.415081">
        <ele>125.693726</ele>
        <time>2026-08-16T08:42:42.000Z</time>
      </trkpt>
      <trkpt lat="22.816722" lon="110.415117">
        <ele>125.741952</ele>
        <time>2026-08-16T08:42:43.000Z</time>
      </trkpt>
      <trkpt lat="22.816750" lon="110.415153">
        <ele>125.731976</ele>
        <time>2026-08-16T08:42:44.000Z</time>
      </trkpt>
      <trkpt lat="22.816782" lon="110.415187">
        <ele>125.706033</ele>
        <time>2026-08-16T08:42:45.000Z</time>
      </trkpt>
      <trkpt lat="22.816814" lon="110.415222">
        <ele>125.679713</ele>
        <time>2026-08-16T08:42:46.000Z</time>
      </trkpt>
      <trkpt lat="22.816847" lon="110.415255">
        <ele>125.653718</ele>
        <time>2026-08-16T08:42:47.000Z</time>
      </trkpt>
      <trkpt lat="22.816880" lon="110.415281">
        <ele>125.630095</ele>
        <time>2026-08-16T08:42:48.000Z</time>
      </trkpt>
      <trkpt lat="22.816909" lon="110.415312">
        <ele>125.606514</ele>
        <time>2026-08-16T08:42:49.000Z</time>
      </trkpt>
      <trkpt lat="22.816943" lon="110.415348">
        <ele>125.578996</ele>
        <time>2026-08-16T08:42:50.000Z</time>
      </trkpt>
      <trkpt lat="22.816971" lon="110.415385">
        <ele>125.553437</ele>
        <time>2026-08-16T08:42:51.000Z</time>
      </trkpt>
      <trkpt lat="22.817001" lon="110.415428">
        <ele>125.524645</ele>
        <time>2026-08-16T08:42:52.000Z</time>
      </trkpt>
      <trkpt lat="22.817032" lon="110.415471">
        <ele>125.495500</ele>
        <time>2026-08-16T08:42:53.000Z</time>
      </trkpt>
      <trkpt lat="22.817062" lon="110.415512">
        <ele>125.467552</ele>
        <time>2026-08-16T08:42:54.000Z</time>
      </trkpt>
      <trkpt lat="22.817087" lon="110.415560">
        <ele>125.438117</ele>
        <time>2026-08-16T08:42:55.000Z</time>
      </trkpt>
      <trkpt lat="22.817120" lon="110.415614">
        <ele>125.403526</ele>
        <time>2026-08-16T08:42:56.000Z</time>
      </trkpt>
      <trkpt lat="22.817161" lon="110.415658">
        <ele>125.370122</ele>
        <time>2026-08-16T08:42:57.000Z</time>
      </trkpt>
      <trkpt lat="22.817204" lon="110.415701">
        <ele>125.336249</ele>
        <time>2026-08-16T08:42:58.000Z</time>
      </trkpt>
      <trkpt lat="22.817243" lon="110.415751">
        <ele>125.301280</ele>
        <time>2026-08-16T08:42:59.000Z</time>
      </trkpt>
      <trkpt lat="22.817278" lon="110.415799">
        <ele>125.268604</ele>
        <time>2026-08-16T08:43:00.000Z</time>
      </trkpt>
      <trkpt lat="22.817316" lon="110.415845">
        <ele>125.235625</ele>
        <time>2026-08-16T08:43:01.000Z</time>
      </trkpt>
      <trkpt lat="22.817352" lon="110.415893">
        <ele>125.202587</ele>
        <time>2026-08-16T08:43:02.000Z</time>
      </trkpt>
      <trkpt lat="22.817390" lon="110.415939">
        <ele>125.169608</ele>
        <time>2026-08-16T08:43:03.000Z</time>
      </trkpt>
      <trkpt lat="22.817427" lon="110.415988">
        <ele>125.135790</ele>
        <time>2026-08-16T08:43:04.000Z</time>
      </trkpt>
      <trkpt lat="22.817469" lon="110.416030">
        <ele>125.102705</ele>
        <time>2026-08-16T08:43:05.000Z</time>
      </trkpt>
      <trkpt lat="22.817500" lon="110.416078">
        <ele>125.071414</ele>
        <time>2026-08-16T08:43:06.000Z</time>
      </trkpt>
      <trkpt lat="22.817532" lon="110.416122">
        <ele>125.041491</ele>
        <time>2026-08-16T08:43:07.000Z</time>
      </trkpt>
      <trkpt lat="22.817569" lon="110.416170">
        <ele>125.008084</ele>
        <time>2026-08-16T08:43:08.000Z</time>
      </trkpt>
      <trkpt lat="22.817609" lon="110.416212">
        <ele>124.975841</ele>
        <time>2026-08-16T08:43:09.000Z</time>
      </trkpt>
      <trkpt lat="22.817647" lon="110.416254">
        <ele>124.944421</ele>
        <time>2026-08-16T08:43:10.000Z</time>
      </trkpt>
      <trkpt lat="22.817681" lon="110.416308">
        <ele>124.909507</ele>
        <time>2026-08-16T08:43:11.000Z</time>
      </trkpt>
      <trkpt lat="22.817712" lon="110.416361">
        <ele>124.875994</ele>
        <time>2026-08-16T08:43:12.000Z</time>
      </trkpt>
      <trkpt lat="22.817753" lon="110.416407">
        <ele>124.841831</ele>
        <time>2026-08-16T08:43:13.000Z</time>
      </trkpt>
      <trkpt lat="22.817789" lon="110.416452">
        <ele>124.810019</ele>
        <time>2026-08-16T08:43:14.000Z</time>
      </trkpt>
      <trkpt lat="22.817827" lon="110.416498">
        <ele>124.777041</ele>
        <time>2026-08-16T08:43:15.000Z</time>
      </trkpt>
      <trkpt lat="22.817860" lon="110.416547">
        <ele>124.744641</ele>
        <time>2026-08-16T08:43:16.000Z</time>
      </trkpt>
      <trkpt lat="22.817897" lon="110.416596">
        <ele>124.710823</ele>
        <time>2026-08-16T08:43:17.000Z</time>
      </trkpt>
      <trkpt lat="22.817932" lon="110.416640">
        <ele>124.709215</ele>
        <time>2026-08-16T08:43:18.000Z</time>
      </trkpt>
      <trkpt lat="22.817972" lon="110.416683">
        <ele>124.708403</ele>
        <time>2026-08-16T08:43:19.000Z</time>
      </trkpt>
      <trkpt lat="22.818013" lon="110.416722">
        <ele>124.707617</ele>
        <time>2026-08-16T08:43:20.000Z</time>
      </trkpt>
      <trkpt lat="22.818043" lon="110.416768">
        <ele>124.706869</ele>
        <time>2026-08-16T08:43:21.000Z</time>
      </trkpt>
      <trkpt lat="22.818075" lon="110.416817">
        <ele>124.706071</ele>
        <time>2026-08-16T08:43:22.000Z</time>
      </trkpt>
      <trkpt lat="22.818107" lon="110.416863">
        <ele>124.705305</ele>
        <time>2026-08-16T08:43:23.000Z</time>
      </trkpt>
      <trkpt lat="22.818143" lon="110.416908">
        <ele>124.704514</ele>
        <time>2026-08-16T08:43:24.000Z</time>
      </trkpt>
      <trkpt lat="22.818177" lon="110.416952">
        <ele>124.703751</ele>
        <time>2026-08-16T08:43:25.000Z</time>
      </trkpt>
      <trkpt lat="22.818204" lon="110.417005">
        <ele>124.702947</ele>
        <time>2026-08-16T08:43:26.000Z</time>
      </trkpt>
      <trkpt lat="22.818235" lon="110.417046">
        <ele>124.702242</ele>
        <time>2026-08-16T08:43:27.000Z</time>
      </trkpt>
      <trkpt lat="22.818263" lon="110.417093">
        <ele>124.701499</ele>
        <time>2026-08-16T08:43:28.000Z</time>
      </trkpt>
      <trkpt lat="22.818290" lon="110.417140">
        <ele>124.700763</ele>
        <time>2026-08-16T08:43:29.000Z</time>
      </trkpt>
      <trkpt lat="22.818320" lon="110.417183">
        <ele>124.700047</ele>
        <time>2026-08-16T08:43:30.000Z</time>
      </trkpt>
      <trkpt lat="22.818347" lon="110.417230">
        <ele>124.699311</ele>
        <time>2026-08-16T08:43:31.000Z</time>
      </trkpt>
      <trkpt lat="22.818371" lon="110.417276">
        <ele>124.698609</ele>
        <time>2026-08-16T08:43:32.000Z</time>
      </trkpt>
      <trkpt lat="22.818400" lon="110.417322">
        <ele>124.697869</ele>
        <time>2026-08-16T08:43:33.000Z</time>
      </trkpt>
      <trkpt lat="22.818426" lon="110.417367">
        <ele>124.697163</ele>
        <time>2026-08-16T08:43:34.000Z</time>
      </trkpt>
      <trkpt lat="22.818448" lon="110.417416">
        <ele>124.696439</ele>
        <time>2026-08-16T08:43:35.000Z</time>
      </trkpt>
      <trkpt lat="22.818468" lon="110.417462">
        <ele>124.695764</ele>
        <time>2026-08-16T08:43:36.000Z</time>
      </trkpt>
      <trkpt lat="22.818498" lon="110.417513">
        <ele>124.694960</ele>
        <time>2026-08-16T08:43:37.000Z</time>
      </trkpt>
      <trkpt lat="22.818524" lon="110.417570">
        <ele>124.694115</ele>
        <time>2026-08-16T08:43:38.000Z</time>
      </trkpt>
      <trkpt lat="22.818549" lon="110.417624">
        <ele>124.693313</ele>
        <time>2026-08-16T08:43:39.000Z</time>
      </trkpt>
      <trkpt lat="22.818576" lon="110.417679">
        <ele>124.692485</ele>
        <time>2026-08-16T08:43:40.000Z</time>
      </trkpt>
      <trkpt lat="22.818602" lon="110.417735">
        <ele>124.691652</ele>
        <time>2026-08-16T08:43:41.000Z</time>
      </trkpt>
      <trkpt lat="22.818627" lon="110.417788">
        <ele>124.690861</ele>
        <time>2026-08-16T08:43:42.000Z</time>
      </trkpt>
      <trkpt lat="22.818654" lon="110.417843">
        <ele>124.690033</ele>
        <time>2026-08-16T08:43:43.000Z</time>
      </trkpt>
      <trkpt lat="22.818681" lon="110.417899">
        <ele>124.689194</ele>
        <time>2026-08-16T08:43:44.000Z</time>
      </trkpt>
      <trkpt lat="22.818706" lon="110.417953">
        <ele>124.688391</ele>
        <time>2026-08-16T08:43:45.000Z</time>
      </trkpt>
      <trkpt lat="22.818732" lon="110.418006">
        <ele>124.687593</ele>
        <time>2026-08-16T08:43:46.000Z</time>
      </trkpt>
      <trkpt lat="22.818756" lon="110.418059">
        <ele>124.686809</ele>
        <time>2026-08-16T08:43:47.000Z</time>
      </trkpt>
      <trkpt lat="22.818781" lon="110.418109">
        <ele>124.686053</ele>
        <time>2026-08-16T08:43:48.000Z</time>
      </trkpt>
      <trkpt lat="22.818807" lon="110.418155">
        <ele>124.685337</ele>
        <time>2026-08-16T08:43:49.000Z</time>
      </trkpt>
      <trkpt lat="22.818831" lon="110.418200">
        <ele>124.684646</ele>
        <time>2026-08-16T08:43:50.000Z</time>
      </trkpt>
      <trkpt lat="22.818855" lon="110.418241">
        <ele>124.681523</ele>
        <time>2026-08-16T08:43:51.000Z</time>
      </trkpt>
      <trkpt lat="22.818876" lon="110.418275">
        <ele>124.649788</ele>
        <time>2026-08-16T08:43:52.000Z</time>
      </trkpt>
      <trkpt lat="22.818890" lon="110.418301">
        <ele>124.626439</ele>
        <time>2026-08-16T08:43:53.000Z</time>
      </trkpt>
      <trkpt lat="22.818899" lon="110.418327">
        <ele>124.604904</ele>
        <time>2026-08-16T08:43:54.000Z</time>
      </trkpt>
      <trkpt lat="22.818903" lon="110.418350">
        <ele>124.586756</ele>
        <time>2026-08-16T08:43:55.000Z</time>
      </trkpt>
      <trkpt lat="22.818902" lon="110.418367">
        <ele>124.573547</ele>
        <time>2026-08-16T08:43:56.000Z</time>
      </trkpt>
      <trkpt lat="22.818901" lon="110.418376">
        <ele>124.566518</ele>
        <time>2026-08-16T08:43:57.000Z</time>
      </trkpt>
      <trkpt lat="22.818858" lon="110.418490">
        <ele>124.471008</ele>
        <time>2026-08-16T08:45:18.000Z</time>
      </trkpt>
      <trkpt lat="22.818839" lon="110.418494">
        <ele>124.454726</ele>
        <time>2026-08-16T08:45:19.000Z</time>
      </trkpt>
      <trkpt lat="22.818817" lon="110.418495">
        <ele>124.436203</ele>
        <time>2026-08-16T08:45:20.000Z</time>
      </trkpt>
      <trkpt lat="22.818794" lon="110.418495">
        <ele>124.416855</ele>
        <time>2026-08-16T08:45:21.000Z</time>
      </trkpt>
      <trkpt lat="22.818769" lon="110.418492">
        <ele>124.395695</ele>
        <time>2026-08-16T08:45:22.000Z</time>
      </trkpt>
      <trkpt lat="22.818743" lon="110.418488">
        <ele>124.373605</ele>
        <time>2026-08-16T08:45:23.000Z</time>
      </trkpt>
      <trkpt lat="22.818718" lon="110.418487">
        <ele>124.352559</ele>
        <time>2026-08-16T08:45:24.000Z</time>
      </trkpt>
      <trkpt lat="22.818688" lon="110.418483">
        <ele>124.327132</ele>
        <time>2026-08-16T08:45:25.000Z</time>
      </trkpt>
      <trkpt lat="22.818657" lon="110.418480">
        <ele>124.300951</ele>
        <time>2026-08-16T08:45:26.000Z</time>
      </trkpt>
      <trkpt lat="22.818621" lon="110.418480">
        <ele>124.270666</ele>
        <time>2026-08-16T08:45:27.000Z</time>
      </trkpt>
      <trkpt lat="22.818585" lon="110.418479">
        <ele>124.240372</ele>
        <time>2026-08-16T08:45:28.000Z</time>
      </trkpt>
      <trkpt lat="22.818548" lon="110.418479">
        <ele>124.209246</ele>
        <time>2026-08-16T08:45:29.000Z</time>
      </trkpt>
      <trkpt lat="22.818510" lon="110.418477">
        <ele>124.177242</ele>
        <time>2026-08-16T08:45:30.000Z</time>
      </trkpt>
      <trkpt lat="22.818470" lon="110.418476">
        <ele>124.143583</ele>
        <time>2026-08-16T08:45:31.000Z</time>
      </trkpt>
      <trkpt lat="22.818429" lon="110.418476">
        <ele>124.109093</ele>
        <time>2026-08-16T08:45:32.000Z</time>
      </trkpt>
      <trkpt lat="22.818387" lon="110.418477">
        <ele>124.073753</ele>
        <time>2026-08-16T08:45:33.000Z</time>
      </trkpt>
      <trkpt lat="22.818346" lon="110.418481">
        <ele>124.039123</ele>
        <time>2026-08-16T08:45:34.000Z</time>
      </trkpt>
      <trkpt lat="22.818305" lon="110.418490">
        <ele>124.003933</ele>
        <time>2026-08-16T08:45:35.000Z</time>
      </trkpt>
      <trkpt lat="22.818262" lon="110.418502">
        <ele>123.966583</ele>
        <time>2026-08-16T08:45:36.000Z</time>
      </trkpt>
      <trkpt lat="22.818219" lon="110.418520">
        <ele>123.927810</ele>
        <time>2026-08-16T08:45:37.000Z</time>
      </trkpt>
      <trkpt lat="22.818177" lon="110.418542">
        <ele>123.888576</ele>
        <time>2026-08-16T08:45:38.000Z</time>
      </trkpt>
      <trkpt lat="22.818133" lon="110.418565">
        <ele>123.847489</ele>
        <time>2026-08-16T08:45:39.000Z</time>
      </trkpt>
      <trkpt lat="22.818092" lon="110.418592">
        <ele>123.807142</ele>
        <time>2026-08-16T08:45:40.000Z</time>
      </trkpt>
      <trkpt lat="22.818050" lon="110.418618">
        <ele>123.766463</ele>
        <time>2026-08-16T08:45:41.000Z</time>
      </trkpt>
      <trkpt lat="22.818008" lon="110.418644">
        <ele>123.725784</ele>
        <time>2026-08-16T08:45:42.000Z</time>
      </trkpt>
      <trkpt lat="22.817967" lon="110.418674">
        <ele>123.684182</ele>
        <time>2026-08-16T08:45:43.000Z</time>
      </trkpt>
      <trkpt lat="22.817927" lon="110.418705">
        <ele>123.642829</ele>
        <time>2026-08-16T08:45:44.000Z</time>
      </trkpt>
      <trkpt lat="22.817887" lon="110.418739">
        <ele>123.600082</ele>
        <time>2026-08-16T08:45:45.000Z</time>
      </trkpt>
      <trkpt lat="22.817847" lon="110.418770">
        <ele>123.558728</ele>
        <time>2026-08-16T08:45:46.000Z</time>
      </trkpt>
      <trkpt lat="22.817808" lon="110.418802">
        <ele>123.517594</ele>
        <time>2026-08-16T08:45:47.000Z</time>
      </trkpt>
      <trkpt lat="22.817770" lon="110.418836">
        <ele>123.476158</ele>
        <time>2026-08-16T08:45:48.000Z</time>
      </trkpt>
      <trkpt lat="22.817731" lon="110.418874">
        <ele>123.432061</ele>
        <time>2026-08-16T08:45:49.000Z</time>
      </trkpt>
      <trkpt lat="22.817692" lon="110.418912">
        <ele>123.387963</ele>
        <time>2026-08-16T08:45:50.000Z</time>
      </trkpt>
      <trkpt lat="22.817653" lon="110.418949">
        <ele>123.344380</ele>
        <time>2026-08-16T08:45:51.000Z</time>
      </trkpt>
      <trkpt lat="22.817614" lon="110.418987">
        <ele>123.300283</ele>
        <time>2026-08-16T08:45:52.000Z</time>
      </trkpt>
      <trkpt lat="22.817573" lon="110.419024">
        <ele>123.255420</ele>
        <time>2026-08-16T08:45:53.000Z</time>
      </trkpt>
      <trkpt lat="22.817533" lon="110.419061">
        <ele>123.211200</ele>
        <time>2026-08-16T08:45:54.000Z</time>
      </trkpt>
      <trkpt lat="22.817494" lon="110.419098">
        <ele>123.170035</ele>
        <time>2026-08-16T08:45:55.000Z</time>
      </trkpt>
      <trkpt lat="22.817454" lon="110.419136">
        <ele>123.157618</ele>
        <time>2026-08-16T08:45:56.000Z</time>
      </trkpt>
      <trkpt lat="22.817414" lon="110.419173">
        <ele>123.145342</ele>
        <time>2026-08-16T08:45:57.000Z</time>
      </trkpt>
      <trkpt lat="22.817375" lon="110.419209">
        <ele>123.133383</ele>
        <time>2026-08-16T08:45:58.000Z</time>
      </trkpt>
      <trkpt lat="22.817336" lon="110.419246">
        <ele>123.121284</ele>
        <time>2026-08-16T08:45:59.000Z</time>
      </trkpt>
      <trkpt lat="22.817297" lon="110.419283">
        <ele>123.109184</ele>
        <time>2026-08-16T08:46:00.000Z</time>
      </trkpt>
      <trkpt lat="22.817256" lon="110.419320">
        <ele>123.096729</ele>
        <time>2026-08-16T08:46:01.000Z</time>
      </trkpt>
      <trkpt lat="22.817215" lon="110.419357">
        <ele>123.084275</ele>
        <time>2026-08-16T08:46:02.000Z</time>
      </trkpt>
      <trkpt lat="22.817174" lon="110.419394">
        <ele>123.071820</ele>
        <time>2026-08-16T08:46:03.000Z</time>
      </trkpt>
      <trkpt lat="22.817133" lon="110.419432">
        <ele>123.059226</ele>
        <time>2026-08-16T08:46:04.000Z</time>
      </trkpt>
      <trkpt lat="22.817092" lon="110.419468">
        <ele>123.046908</ele>
        <time>2026-08-16T08:46:05.000Z</time>
      </trkpt>
      <trkpt lat="22.817051" lon="110.419506">
        <ele>123.034315</ele>
        <time>2026-08-16T08:46:06.000Z</time>
      </trkpt>
      <trkpt lat="22.817011" lon="110.419542">
        <ele>123.022177</ele>
        <time>2026-08-16T08:46:07.000Z</time>
      </trkpt>
      <trkpt lat="22.816972" lon="110.419579">
        <ele>123.010078</ele>
        <time>2026-08-16T08:46:08.000Z</time>
      </trkpt>
      <trkpt lat="22.816933" lon="110.419615">
        <ele>122.998119</ele>
        <time>2026-08-16T08:46:09.000Z</time>
      </trkpt>
      <trkpt lat="22.816895" lon="110.419650">
        <ele>122.986477</ele>
        <time>2026-08-16T08:46:10.000Z</time>
      </trkpt>
      <trkpt lat="22.816854" lon="110.419686">
        <ele>122.974159</ele>
        <time>2026-08-16T08:46:11.000Z</time>
      </trkpt>
      <trkpt lat="22.816813" lon="110.419725">
        <ele>122.961425</ele>
        <time>2026-08-16T08:46:12.000Z</time>
      </trkpt>
      <trkpt lat="22.816775" lon="110.419767">
        <ele>122.948756</ele>
        <time>2026-08-16T08:46:13.000Z</time>
      </trkpt>
      <trkpt lat="22.816737" lon="110.419809">
        <ele>122.936087</ele>
        <time>2026-08-16T08:46:14.000Z</time>
      </trkpt>
      <trkpt lat="22.816698" lon="110.419851">
        <ele>122.923253</ele>
        <time>2026-08-16T08:46:15.000Z</time>
      </trkpt>
      <trkpt lat="22.816658" lon="110.419891">
        <ele>122.910549</ele>
        <time>2026-08-16T08:46:16.000Z</time>
      </trkpt>
      <trkpt lat="22.816616" lon="110.419929">
        <ele>122.897777</ele>
        <time>2026-08-16T08:46:17.000Z</time>
      </trkpt>
      <trkpt lat="22.816574" lon="110.419965">
        <ele>122.885276</ele>
        <time>2026-08-16T08:46:18.000Z</time>
      </trkpt>
      <trkpt lat="22.816530" lon="110.420000">
        <ele>122.872534</ele>
        <time>2026-08-16T08:46:19.000Z</time>
      </trkpt>
      <trkpt lat="22.816487" lon="110.420034">
        <ele>122.860108</ele>
        <time>2026-08-16T08:46:20.000Z</time>
      </trkpt>
      <trkpt lat="22.816445" lon="110.420068">
        <ele>122.847869</ele>
        <time>2026-08-16T08:46:21.000Z</time>
      </trkpt>
      <trkpt lat="22.816403" lon="110.420102">
        <ele>122.835631</ele>
        <time>2026-08-16T08:46:22.000Z</time>
      </trkpt>
      <trkpt lat="22.816363" lon="110.420137">
        <ele>122.823630</ele>
        <time>2026-08-16T08:46:23.000Z</time>
      </trkpt>
      <trkpt lat="22.816325" lon="110.420171">
        <ele>122.812126</ele>
        <time>2026-08-16T08:46:24.000Z</time>
      </trkpt>
      <trkpt lat="22.816286" lon="110.420207">
        <ele>122.800167</ele>
        <time>2026-08-16T08:46:25.000Z</time>
      </trkpt>
      <trkpt lat="22.816245" lon="110.420245">
        <ele>122.787574</ele>
        <time>2026-08-16T08:46:26.000Z</time>
      </trkpt>
      <trkpt lat="22.816203" lon="110.420285">
        <ele>122.774522</ele>
        <time>2026-08-16T08:46:27.000Z</time>
      </trkpt>
      <trkpt lat="22.816161" lon="110.420324">
        <ele>122.761611</ele>
        <time>2026-08-16T08:46:28.000Z</time>
      </trkpt>
      <trkpt lat="22.816121" lon="110.420363">
        <ele>122.751973</ele>
        <time>2026-08-16T08:46:29.000Z</time>
      </trkpt>
      <trkpt lat="22.816081" lon="110.420400">
        <ele>122.759010</ele>
        <time>2026-08-16T08:46:30.000Z</time>
      </trkpt>
      <trkpt lat="22.816038" lon="110.420438">
        <ele>122.766435</ele>
        <time>2026-08-16T08:46:31.000Z</time>
      </trkpt>
      <trkpt lat="22.815998" lon="110.420470">
        <ele>122.773088</ele>
        <time>2026-08-16T08:46:32.000Z</time>
      </trkpt>
      <trkpt lat="22.815959" lon="110.420506">
        <ele>122.779943</ele>
        <time>2026-08-16T08:46:33.000Z</time>
      </trkpt>
      <trkpt lat="22.815918" lon="110.420544">
        <ele>122.787162</ele>
        <time>2026-08-16T08:46:34.000Z</time>
      </trkpt>
      <trkpt lat="22.815875" lon="110.420576">
        <ele>122.794143</ele>
        <time>2026-08-16T08:46:35.000Z</time>
      </trkpt>
      <trkpt lat="22.815834" lon="110.420611">
        <ele>122.801127</ele>
        <time>2026-08-16T08:46:36.000Z</time>
      </trkpt>
      <trkpt lat="22.815794" lon="110.420645">
        <ele>122.807930</ele>
        <time>2026-08-16T08:46:37.000Z</time>
      </trkpt>
      <trkpt lat="22.815755" lon="110.420680">
        <ele>122.814706</ele>
        <time>2026-08-16T08:46:38.000Z</time>
      </trkpt>
      <trkpt lat="22.815719" lon="110.420712">
        <ele>122.820937</ele>
        <time>2026-08-16T08:46:39.000Z</time>
      </trkpt>
      <trkpt lat="22.815684" lon="110.420743">
        <ele>122.826985</ele>
        <time>2026-08-16T08:46:40.000Z</time>
      </trkpt>
      <trkpt lat="22.815649" lon="110.420769">
        <ele>122.832664</ele>
        <time>2026-08-16T08:46:41.000Z</time>
      </trkpt>
      <trkpt lat="22.815612" lon="110.420802">
        <ele>122.839076</ele>
        <time>2026-08-16T08:46:42.000Z</time>
      </trkpt>
      <trkpt lat="22.815572" lon="110.420840">
        <ele>122.846194</ele>
        <time>2026-08-16T08:46:43.000Z</time>
      </trkpt>
      <trkpt lat="22.815536" lon="110.420876">
        <ele>122.852749</ele>
        <time>2026-08-16T08:46:44.000Z</time>
      </trkpt>
      <trkpt lat="22.815502" lon="110.420915">
        <ele>122.859373</ele>
        <time>2026-08-16T08:46:45.000Z</time>
      </trkpt>
      <trkpt lat="22.815460" lon="110.420954">
        <ele>122.866774</ele>
        <time>2026-08-16T08:46:46.000Z</time>
      </trkpt>
      <trkpt lat="22.815422" lon="110.420995">
        <ele>122.873948</ele>
        <time>2026-08-16T08:46:47.000Z</time>
      </trkpt>
      <trkpt lat="22.815380" lon="110.421022">
        <ele>122.880484</ele>
        <time>2026-08-16T08:46:48.000Z</time>
      </trkpt>
      <trkpt lat="22.815340" lon="110.421054">
        <ele>122.887138</ele>
        <time>2026-08-16T08:46:49.000Z</time>
      </trkpt>
      <trkpt lat="22.815298" lon="110.421071">
        <ele>122.893139</ele>
        <time>2026-08-16T08:46:50.000Z</time>
      </trkpt>
      <trkpt lat="22.815259" lon="110.421094">
        <ele>122.899081</ele>
        <time>2026-08-16T08:46:51.000Z</time>
      </trkpt>
      <trkpt lat="22.815219" lon="110.421129">
        <ele>122.905961</ele>
        <time>2026-08-16T08:46:52.000Z</time>
      </trkpt>
      <trkpt lat="22.815180" lon="110.421163">
        <ele>122.912659</ele>
        <time>2026-08-16T08:46:53.000Z</time>
      </trkpt>
      <trkpt lat="22.815139" lon="110.421195">
        <ele>122.919421</ele>
        <time>2026-08-16T08:46:54.000Z</time>
      </trkpt>
      <trkpt lat="22.815099" lon="110.421230">
        <ele>122.926300</ele>
        <time>2026-08-16T08:46:55.000Z</time>
      </trkpt>
      <trkpt lat="22.815060" lon="110.421266">
        <ele>122.933155</ele>
        <time>2026-08-16T08:46:56.000Z</time>
      </trkpt>
      <trkpt lat="22.815023" lon="110.421303">
        <ele>122.939892</ele>
        <time>2026-08-16T08:46:57.000Z</time>
      </trkpt>
      <trkpt lat="22.814992" lon="110.421343">
        <ele>122.946341</ele>
        <time>2026-08-16T08:46:58.000Z</time>
      </trkpt>
      <trkpt lat="22.814960" lon="110.421373">
        <ele>122.952003</ele>
        <time>2026-08-16T08:46:59.000Z</time>
      </trkpt>
      <trkpt lat="22.814925" lon="110.421406">
        <ele>122.958210</ele>
        <time>2026-08-16T08:47:00.000Z</time>
      </trkpt>
      <trkpt lat="22.814883" lon="110.421441">
        <ele>122.965300</ele>
        <time>2026-08-16T08:47:01.000Z</time>
      </trkpt>
      <trkpt lat="22.814839" lon="110.421473">
        <ele>122.972392</ele>
        <time>2026-08-16T08:47:02.000Z</time>
      </trkpt>
      <trkpt lat="22.814790" lon="110.421504">
        <ele>122.979986</ele>
        <time>2026-08-16T08:47:03.000Z</time>
      </trkpt>
      <trkpt lat="22.814740" lon="110.421528">
        <ele>122.987305</ele>
        <time>2026-08-16T08:47:04.000Z</time>
      </trkpt>
      <trkpt lat="22.814688" lon="110.421547">
        <ele>122.981077</ele>
        <time>2026-08-16T08:47:05.000Z</time>
      </trkpt>
      <trkpt lat="22.814635" lon="110.421560">
        <ele>122.954909</ele>
        <time>2026-08-16T08:47:06.000Z</time>
      </trkpt>
      <trkpt lat="22.814583" lon="110.421562">
        <ele>122.929851</ele>
        <time>2026-08-16T08:47:07.000Z</time>
      </trkpt>
      <trkpt lat="22.814529" lon="110.421560">
        <ele>122.903830</ele>
        <time>2026-08-16T08:47:08.000Z</time>
      </trkpt>
      <trkpt lat="22.814476" lon="110.421551">
        <ele>122.877996</ele>
        <time>2026-08-16T08:47:09.000Z</time>
      </trkpt>
      <trkpt lat="22.814424" lon="110.421538">
        <ele>122.852297</ele>
        <time>2026-08-16T08:47:10.000Z</time>
      </trkpt>
      <trkpt lat="22.814370" lon="110.421525">
        <ele>122.825659</ele>
        <time>2026-08-16T08:47:11.000Z</time>
      </trkpt>
      <trkpt lat="22.814315" lon="110.421514">
        <ele>122.798726</ele>
        <time>2026-08-16T08:47:12.000Z</time>
      </trkpt>
      <trkpt lat="22.814261" lon="110.421501">
        <ele>122.772088</ele>
        <time>2026-08-16T08:47:13.000Z</time>
      </trkpt>
      <trkpt lat="22.814210" lon="110.421487">
        <ele>122.746753</ele>
        <time>2026-08-16T08:47:14.000Z</time>
      </trkpt>
      <trkpt lat="22.814158" lon="110.421473">
        <ele>122.720951</ele>
        <time>2026-08-16T08:47:15.000Z</time>
      </trkpt>
      <trkpt lat="22.814105" lon="110.421458">
        <ele>122.694573</ele>
        <time>2026-08-16T08:47:16.000Z</time>
      </trkpt>
      <trkpt lat="22.814052" lon="110.421442">
        <ele>122.668079</ele>
        <time>2026-08-16T08:47:17.000Z</time>
      </trkpt>
      <trkpt lat="22.813998" lon="110.421425">
        <ele>122.641001</ele>
        <time>2026-08-16T08:47:18.000Z</time>
      </trkpt>
      <trkpt lat="22.813946" lon="110.421406">
        <ele>122.614577</ele>
        <time>2026-08-16T08:47:19.000Z</time>
      </trkpt>
      <trkpt lat="22.813892" lon="110.421387">
        <ele>122.587238</ele>
        <time>2026-08-16T08:47:20.000Z</time>
      </trkpt>
      <trkpt lat="22.813838" lon="110.421368">
        <ele>122.559899</ele>
        <time>2026-08-16T08:47:21.000Z</time>
      </trkpt>
      <trkpt lat="22.813785" lon="110.421349">
        <ele>122.533017</ele>
        <time>2026-08-16T08:47:22.000Z</time>
      </trkpt>
      <trkpt lat="22.813733" lon="110.421330">
        <ele>122.506593</ele>
        <time>2026-08-16T08:47:23.000Z</time>
      </trkpt>
      <trkpt lat="22.813679" lon="110.421311">
        <ele>122.479254</ele>
        <time>2026-08-16T08:47:24.000Z</time>
      </trkpt>
      <trkpt lat="22.813624" lon="110.421293">
        <ele>122.451588</ele>
        <time>2026-08-16T08:47:25.000Z</time>
      </trkpt>
      <trkpt lat="22.813570" lon="110.421274">
        <ele>122.424249</ele>
        <time>2026-08-16T08:47:26.000Z</time>
      </trkpt>
      <trkpt lat="22.813516" lon="110.421255">
        <ele>122.396910</ele>
        <time>2026-08-16T08:47:27.000Z</time>
      </trkpt>
      <trkpt lat="22.813461" lon="110.421234">
        <ele>122.368830</ele>
        <time>2026-08-16T08:47:28.000Z</time>
      </trkpt>
      <trkpt lat="22.813406" lon="110.421213">
        <ele>122.340751</ele>
        <time>2026-08-16T08:47:29.000Z</time>
      </trkpt>
      <trkpt lat="22.813352" lon="110.421193">
        <ele>122.313272</ele>
        <time>2026-08-16T08:47:30.000Z</time>
      </trkpt>
      <trkpt lat="22.813298" lon="110.421175">
        <ele>122.286066</ele>
        <time>2026-08-16T08:47:31.000Z</time>
      </trkpt>
      <trkpt lat="22.813244" lon="110.421157">
        <ele>122.258861</ele>
        <time>2026-08-16T08:47:32.000Z</time>
      </trkpt>
      <trkpt lat="22.813191" lon="110.421140">
        <ele>122.232245</ele>
        <time>2026-08-16T08:47:33.000Z</time>
      </trkpt>
      <trkpt lat="22.813138" lon="110.421122">
        <ele>122.205499</ele>
        <time>2026-08-16T08:47:34.000Z</time>
      </trkpt>
      <trkpt lat="22.813085" lon="110.421101">
        <ele>122.178326</ele>
        <time>2026-08-16T08:47:35.000Z</time>
      </trkpt>
      <trkpt lat="22.813034" lon="110.421081">
        <ele>122.152210</ele>
        <time>2026-08-16T08:47:36.000Z</time>
      </trkpt>
      <trkpt lat="22.812983" lon="110.421060">
        <ele>122.125940</ele>
        <time>2026-08-16T08:47:37.000Z</time>
      </trkpt>
      <trkpt lat="22.812931" lon="110.421041">
        <ele>122.140962</ele>
        <time>2026-08-16T08:47:38.000Z</time>
      </trkpt>
      <trkpt lat="22.812881" lon="110.421022">
        <ele>122.156138</ele>
        <time>2026-08-16T08:47:39.000Z</time>
      </trkpt>
      <trkpt lat="22.812830" lon="110.421004">
        <ele>122.171501</ele>
        <time>2026-08-16T08:47:40.000Z</time>
      </trkpt>
      <trkpt lat="22.812780" lon="110.420984">
        <ele>122.186767</ele>
        <time>2026-08-16T08:47:41.000Z</time>
      </trkpt>
      <trkpt lat="22.812730" lon="110.420964">
        <ele>122.202033</ele>
        <time>2026-08-16T08:47:42.000Z</time>
      </trkpt>
      <trkpt lat="22.812678" lon="110.420945">
        <ele>122.217751</ele>
        <time>2026-08-16T08:47:43.000Z</time>
      </trkpt>
      <trkpt lat="22.812628" lon="110.420925">
        <ele>122.233016</ele>
        <time>2026-08-16T08:47:44.000Z</time>
      </trkpt>
      <trkpt lat="22.812578" lon="110.420905">
        <ele>122.248282</ele>
        <time>2026-08-16T08:47:45.000Z</time>
      </trkpt>
      <trkpt lat="22.812528" lon="110.420883">
        <ele>122.263738</ele>
        <time>2026-08-16T08:47:46.000Z</time>
      </trkpt>
      <trkpt lat="22.812480" lon="110.420861">
        <ele>122.278665</ele>
        <time>2026-08-16T08:47:47.000Z</time>
      </trkpt>
      <trkpt lat="22.812431" lon="110.420839">
        <ele>122.293856</ele>
        <time>2026-08-16T08:47:48.000Z</time>
      </trkpt>
      <trkpt lat="22.812383" lon="110.420817">
        <ele>122.308783</ele>
        <time>2026-08-16T08:47:49.000Z</time>
      </trkpt>
      <trkpt lat="22.812335" lon="110.420795">
        <ele>122.323710</ele>
        <time>2026-08-16T08:47:50.000Z</time>
      </trkpt>
      <trkpt lat="22.812288" lon="110.420772">
        <ele>122.338480</ele>
        <time>2026-08-16T08:47:51.000Z</time>
      </trkpt>
      <trkpt lat="22.812241" lon="110.420748">
        <ele>122.353360</ele>
        <time>2026-08-16T08:47:52.000Z</time>
      </trkpt>
      <trkpt lat="22.812195" lon="110.420724">
        <ele>122.367982</ele>
        <time>2026-08-16T08:47:53.000Z</time>
      </trkpt>
      <trkpt lat="22.812147" lon="110.420701">
        <ele>122.383014</ele>
        <time>2026-08-16T08:47:54.000Z</time>
      </trkpt>
      <trkpt lat="22.812100" lon="110.420677">
        <ele>122.397894</ele>
        <time>2026-08-16T08:47:55.000Z</time>
      </trkpt>
      <trkpt lat="22.812053" lon="110.420655">
        <ele>122.412558</ele>
        <time>2026-08-16T08:47:56.000Z</time>
      </trkpt>
      <trkpt lat="22.812007" lon="110.420633">
        <ele>122.426959</ele>
        <time>2026-08-16T08:47:57.000Z</time>
      </trkpt>
      <trkpt lat="22.811959" lon="110.420613">
        <ele>122.441688</ele>
        <time>2026-08-16T08:47:58.000Z</time>
      </trkpt>
      <trkpt lat="22.811911" lon="110.420597">
        <ele>122.456073</ele>
        <time>2026-08-16T08:47:59.000Z</time>
      </trkpt>
      <trkpt lat="22.811860" lon="110.420585">
        <ele>122.471022</ele>
        <time>2026-08-16T08:48:00.000Z</time>
      </trkpt>
      <trkpt lat="22.811809" lon="110.420579">
        <ele>122.485717</ele>
        <time>2026-08-16T08:48:01.000Z</time>
      </trkpt>
      <trkpt lat="22.811759" lon="110.420580">
        <ele>122.500042</ele>
        <time>2026-08-16T08:48:02.000Z</time>
      </trkpt>
      <trkpt lat="22.811709" lon="110.420585">
        <ele>122.514426</ele>
        <time>2026-08-16T08:48:03.000Z</time>
      </trkpt>
      <trkpt lat="22.811659" lon="110.420594">
        <ele>122.528945</ele>
        <time>2026-08-16T08:48:04.000Z</time>
      </trkpt>
      <trkpt lat="22.811611" lon="110.420607">
        <ele>122.543117</ele>
        <time>2026-08-16T08:48:05.000Z</time>
      </trkpt>
      <trkpt lat="22.811563" lon="110.420624">
        <ele>122.557581</ele>
        <time>2026-08-16T08:48:06.000Z</time>
      </trkpt>
      <trkpt lat="22.811516" lon="110.420647">
        <ele>122.572351</ele>
        <time>2026-08-16T08:48:07.000Z</time>
      </trkpt>
      <trkpt lat="22.811470" lon="110.420672">
        <ele>122.587090</ele>
        <time>2026-08-16T08:48:08.000Z</time>
      </trkpt>
      <trkpt lat="22.811429" lon="110.420698">
        <ele>122.600694</ele>
        <time>2026-08-16T08:48:09.000Z</time>
      </trkpt>
      <trkpt lat="22.811391" lon="110.420728">
        <ele>122.614157</ele>
        <time>2026-08-16T08:48:10.000Z</time>
      </trkpt>
      <trkpt lat="22.811360" lon="110.420757">
        <ele>122.625883</ele>
        <time>2026-08-16T08:48:11.000Z</time>
      </trkpt>
      <trkpt lat="22.811333" lon="110.420791">
        <ele>122.637733</ele>
        <time>2026-08-16T08:48:12.000Z</time>
      </trkpt>
      <trkpt lat="22.811306" lon="110.420827">
        <ele>122.622714</ele>
        <time>2026-08-16T08:48:13.000Z</time>
      </trkpt>
      <trkpt lat="22.811280" lon="110.420861">
        <ele>122.599964</ele>
        <time>2026-08-16T08:48:14.000Z</time>
      </trkpt>
      <trkpt lat="22.811254" lon="110.420898">
        <ele>122.576005</ele>
        <time>2026-08-16T08:48:15.000Z</time>
      </trkpt>
      <trkpt lat="22.811228" lon="110.420933">
        <ele>122.552856</ele>
        <time>2026-08-16T08:48:16.000Z</time>
      </trkpt>
      <trkpt lat="22.811203" lon="110.420968">
        <ele>122.530054</ele>
        <time>2026-08-16T08:48:17.000Z</time>
      </trkpt>
      <trkpt lat="22.811185" lon="110.421006">
        <ele>122.508052</ele>
        <time>2026-08-16T08:48:18.000Z</time>
      </trkpt>
      <trkpt lat="22.811162" lon="110.421043">
        <ele>122.485070</ele>
        <time>2026-08-16T08:48:19.000Z</time>
      </trkpt>
      <trkpt lat="22.811140" lon="110.421083">
        <ele>122.461082</ele>
        <time>2026-08-16T08:48:20.000Z</time>
      </trkpt>
      <trkpt lat="22.811128" lon="110.421115">
        <ele>122.443291</ele>
        <time>2026-08-16T08:48:21.000Z</time>
      </trkpt>
      <trkpt lat="22.811109" lon="110.421147">
        <ele>122.423689</ele>
        <time>2026-08-16T08:48:22.000Z</time>
      </trkpt>
      <trkpt lat="22.811082" lon="110.421179">
        <ele>122.401349</ele>
        <time>2026-08-16T08:48:23.000Z</time>
      </trkpt>
      <trkpt lat="22.811051" lon="110.421208">
        <ele>122.378480</ele>
        <time>2026-08-16T08:48:24.000Z</time>
      </trkpt>
      <trkpt lat="22.811017" lon="110.421237">
        <ele>122.354317</ele>
        <time>2026-08-16T08:48:25.000Z</time>
      </trkpt>
      <trkpt lat="22.810974" lon="110.421252">
        <ele>122.329082</ele>
        <time>2026-08-16T08:48:26.000Z</time>
      </trkpt>
      <trkpt lat="22.810936" lon="110.421267">
        <ele>122.306491</ele>
        <time>2026-08-16T08:48:27.000Z</time>
      </trkpt>
      <trkpt lat="22.810890" lon="110.421281">
        <ele>122.279800</ele>
        <time>2026-08-16T08:48:28.000Z</time>
      </trkpt>
      <trkpt lat="22.810857" lon="110.421300">
        <ele>122.258928</ele>
        <time>2026-08-16T08:48:29.000Z</time>
      </trkpt>
      <trkpt lat="22.810820" lon="110.421325">
        <ele>122.234575</ele>
        <time>2026-08-16T08:48:30.000Z</time>
      </trkpt>
      <trkpt lat="22.810784" lon="110.421343">
        <ele>122.212430</ele>
        <time>2026-08-16T08:48:31.000Z</time>
      </trkpt>
      <trkpt lat="22.810742" lon="110.421367">
        <ele>122.185909</ele>
        <time>2026-08-16T08:48:32.000Z</time>
      </trkpt>
      <trkpt lat="22.810703" lon="110.421391">
        <ele>122.160860</ele>
        <time>2026-08-16T08:48:33.000Z</time>
      </trkpt>
      <trkpt lat="22.810665" lon="110.421418">
        <ele>122.135482</ele>
        <time>2026-08-16T08:48:34.000Z</time>
      </trkpt>
      <trkpt lat="22.810631" lon="110.421448">
        <ele>122.110997</ele>
        <time>2026-08-16T08:48:35.000Z</time>
      </trkpt>
      <trkpt lat="22.810593" lon="110.421479">
        <ele>122.084435</ele>
        <time>2026-08-16T08:48:36.000Z</time>
      </trkpt>
      <trkpt lat="22.810550" lon="110.421510">
        <ele>122.055591</ele>
        <time>2026-08-16T08:48:37.000Z</time>
      </trkpt>
      <trkpt lat="22.810509" lon="110.421542">
        <ele>122.027373</ele>
        <time>2026-08-16T08:48:38.000Z</time>
      </trkpt>
      <trkpt lat="22.810459" lon="110.421571">
        <ele>121.995698</ele>
        <time>2026-08-16T08:48:39.000Z</time>
      </trkpt>
      <trkpt lat="22.810407" lon="110.421598">
        <ele>121.963490</ele>
        <time>2026-08-16T08:48:40.000Z</time>
      </trkpt>
      <trkpt lat="22.810361" lon="110.421630">
        <ele>121.932961</ele>
        <time>2026-08-16T08:48:41.000Z</time>
      </trkpt>
      <trkpt lat="22.810318" lon="110.421660">
        <ele>121.904399</ele>
        <time>2026-08-16T08:48:42.000Z</time>
      </trkpt>
      <trkpt lat="22.810275" lon="110.421711">
        <ele>121.868806</ele>
        <time>2026-08-16T08:48:43.000Z</time>
      </trkpt>
      <trkpt lat="22.810230" lon="110.421757">
        <ele>121.834263</ele>
        <time>2026-08-16T08:48:44.000Z</time>
      </trkpt>
      <trkpt lat="22.810188" lon="110.421805">
        <ele>121.800180</ele>
        <time>2026-08-16T08:48:45.000Z</time>
      </trkpt>
      <trkpt lat="22.810146" lon="110.421850">
        <ele>121.767201</ele>
        <time>2026-08-16T08:48:46.000Z</time>
      </trkpt>
      <trkpt lat="22.810096" lon="110.421888">
        <ele>121.733094</ele>
        <time>2026-08-16T08:48:47.000Z</time>
      </trkpt>
      <trkpt lat="22.810046" lon="110.421923">
        <ele>121.699850</ele>
        <time>2026-08-16T08:48:48.000Z</time>
      </trkpt>
      <trkpt lat="22.809992" lon="110.421958">
        <ele>121.664707</ele>
        <time>2026-08-16T08:48:49.000Z</time>
      </trkpt>
      <trkpt lat="22.809936" lon="110.421991">
        <ele>121.636309</ele>
        <time>2026-08-16T08:48:50.000Z</time>
      </trkpt>
      <trkpt lat="22.809883" lon="110.422022">
        <ele>121.638407</ele>
        <time>2026-08-16T08:48:51.000Z</time>
      </trkpt>
      <trkpt lat="22.809832" lon="110.422055">
        <ele>121.640477</ele>
        <time>2026-08-16T08:48:52.000Z</time>
      </trkpt>
      <trkpt lat="22.809779" lon="110.422082">
        <ele>121.642518</ele>
        <time>2026-08-16T08:48:53.000Z</time>
      </trkpt>
      <trkpt lat="22.809722" lon="110.422109">
        <ele>121.644686</ele>
        <time>2026-08-16T08:48:54.000Z</time>
      </trkpt>
      <trkpt lat="22.809666" lon="110.422135">
        <ele>121.646809</ele>
        <time>2026-08-16T08:48:55.000Z</time>
      </trkpt>
      <trkpt lat="22.809610" lon="110.422161">
        <ele>121.648933</ele>
        <time>2026-08-16T08:48:56.000Z</time>
      </trkpt>
      <trkpt lat="22.809556" lon="110.422186">
        <ele>121.650979</ele>
        <time>2026-08-16T08:48:57.000Z</time>
      </trkpt>
      <trkpt lat="22.809503" lon="110.422211">
        <ele>121.652994</ele>
        <time>2026-08-16T08:48:58.000Z</time>
      </trkpt>
      <trkpt lat="22.809448" lon="110.422236">
        <ele>121.655072</ele>
        <time>2026-08-16T08:48:59.000Z</time>
      </trkpt>
      <trkpt lat="22.809395" lon="110.422262">
        <ele>121.657100</ele>
        <time>2026-08-16T08:49:00.000Z</time>
      </trkpt>
      <trkpt lat="22.809342" lon="110.422287">
        <ele>121.659114</ele>
        <time>2026-08-16T08:49:01.000Z</time>
      </trkpt>
      <trkpt lat="22.809289" lon="110.422311">
        <ele>121.661116</ele>
        <time>2026-08-16T08:49:02.000Z</time>
      </trkpt>
      <trkpt lat="22.809237" lon="110.422336">
        <ele>121.663099</ele>
        <time>2026-08-16T08:49:03.000Z</time>
      </trkpt>
      <trkpt lat="22.809185" lon="110.422360">
        <ele>121.665069</ele>
        <time>2026-08-16T08:49:04.000Z</time>
      </trkpt>
      <trkpt lat="22.809134" lon="110.422387">
        <ele>121.667047</ele>
        <time>2026-08-16T08:49:05.000Z</time>
      </trkpt>
      <trkpt lat="22.809083" lon="110.422411">
        <ele>121.668984</ele>
        <time>2026-08-16T08:49:06.000Z</time>
      </trkpt>
      <trkpt lat="22.809032" lon="110.422436">
        <ele>121.670935</ele>
        <time>2026-08-16T08:49:07.000Z</time>
      </trkpt>
      <trkpt lat="22.808982" lon="110.422460">
        <ele>121.672841</ele>
        <time>2026-08-16T08:49:08.000Z</time>
      </trkpt>
      <trkpt lat="22.808932" lon="110.422484">
        <ele>121.674747</ele>
        <time>2026-08-16T08:49:09.000Z</time>
      </trkpt>
      <trkpt lat="22.808880" lon="110.422508">
        <ele>121.676717</ele>
        <time>2026-08-16T08:49:10.000Z</time>
      </trkpt>
      <trkpt lat="22.808828" lon="110.422533">
        <ele>121.678699</ele>
        <time>2026-08-16T08:49:11.000Z</time>
      </trkpt>
      <trkpt lat="22.808780" lon="110.422558">
        <ele>121.680555</ele>
        <time>2026-08-16T08:49:12.000Z</time>
      </trkpt>
      <trkpt lat="22.808733" lon="110.422582">
        <ele>121.682366</ele>
        <time>2026-08-16T08:49:13.000Z</time>
      </trkpt>
      <trkpt lat="22.808685" lon="110.422609">
        <ele>121.684250</ele>
        <time>2026-08-16T08:49:14.000Z</time>
      </trkpt>
      <trkpt lat="22.808637" lon="110.422636">
        <ele>121.686135</ele>
        <time>2026-08-16T08:49:15.000Z</time>
      </trkpt>
      <trkpt lat="22.808590" lon="110.422662">
        <ele>121.687974</ele>
        <time>2026-08-16T08:49:16.000Z</time>
      </trkpt>
      <trkpt lat="22.808547" lon="110.422692">
        <ele>121.689756</ele>
        <time>2026-08-16T08:49:17.000Z</time>
      </trkpt>
      <trkpt lat="22.808506" lon="110.422727">
        <ele>121.691575</ele>
        <time>2026-08-16T08:49:18.000Z</time>
      </trkpt>
      <trkpt lat="22.808466" lon="110.422764">
        <ele>121.693407</ele>
        <time>2026-08-16T08:49:19.000Z</time>
      </trkpt>
      <trkpt lat="22.808430" lon="110.422807">
        <ele>121.695273</ele>
        <time>2026-08-16T08:49:20.000Z</time>
      </trkpt>
      <trkpt lat="22.808398" lon="110.422852">
        <ele>121.697100</ele>
        <time>2026-08-16T08:49:21.000Z</time>
      </trkpt>
      <trkpt lat="22.808370" lon="110.422898">
        <ele>121.702300</ele>
        <time>2026-08-16T08:49:22.000Z</time>
      </trkpt>
      <trkpt lat="22.808344" lon="110.422946">
        <ele>121.725215</ele>
        <time>2026-08-16T08:49:23.000Z</time>
      </trkpt>
      <trkpt lat="22.808320" lon="110.422995">
        <ele>121.748052</ele>
        <time>2026-08-16T08:49:24.000Z</time>
      </trkpt>
      <trkpt lat="22.808298" lon="110.423044">
        <ele>121.770485</ele>
        <time>2026-08-16T08:49:25.000Z</time>
      </trkpt>
      <trkpt lat="22.808277" lon="110.423094">
        <ele>121.793099</ele>
        <time>2026-08-16T08:49:26.000Z</time>
      </trkpt>
      <trkpt lat="22.808257" lon="110.423145">
        <ele>121.815911</ele>
        <time>2026-08-16T08:49:27.000Z</time>
      </trkpt>
      <trkpt lat="22.808237" lon="110.423195">
        <ele>121.838344</ele>
        <time>2026-08-16T08:49:28.000Z</time>
      </trkpt>
      <trkpt lat="22.808216" lon="110.423241">
        <ele>121.859471</ele>
        <time>2026-08-16T08:49:29.000Z</time>
      </trkpt>
      <trkpt lat="22.808197" lon="110.423286">
        <ele>121.879843</ele>
        <time>2026-08-16T08:49:30.000Z</time>
      </trkpt>
      <trkpt lat="22.808180" lon="110.423331">
        <ele>121.899859</ele>
        <time>2026-08-16T08:49:31.000Z</time>
      </trkpt>
      <trkpt lat="22.808163" lon="110.423374">
        <ele>121.919116</ele>
        <time>2026-08-16T08:49:32.000Z</time>
      </trkpt>
      <trkpt lat="22.808147" lon="110.423417">
        <ele>121.938201</ele>
        <time>2026-08-16T08:49:33.000Z</time>
      </trkpt>
      <trkpt lat="22.808129" lon="110.423463">
        <ele>121.958769</ele>
        <time>2026-08-16T08:49:34.000Z</time>
      </trkpt>
      <trkpt lat="22.808110" lon="110.423507">
        <ele>121.978768</ele>
        <time>2026-08-16T08:49:35.000Z</time>
      </trkpt>
      <trkpt lat="22.808091" lon="110.423551">
        <ele>121.998766</ele>
        <time>2026-08-16T08:49:36.000Z</time>
      </trkpt>
      <trkpt lat="22.808076" lon="110.423595">
        <ele>122.018074</ele>
        <time>2026-08-16T08:49:37.000Z</time>
      </trkpt>
      <trkpt lat="22.808059" lon="110.423639">
        <ele>122.037710</ele>
        <time>2026-08-16T08:49:38.000Z</time>
      </trkpt>
      <trkpt lat="22.808039" lon="110.423682">
        <ele>122.057534</ele>
        <time>2026-08-16T08:49:39.000Z</time>
      </trkpt>
      <trkpt lat="22.808019" lon="110.423726">
        <ele>122.077725</ele>
        <time>2026-08-16T08:49:40.000Z</time>
      </trkpt>
      <trkpt lat="22.808002" lon="110.423771">
        <ele>122.097741</ele>
        <time>2026-08-16T08:49:41.000Z</time>
      </trkpt>
      <trkpt lat="22.807984" lon="110.423815">
        <ele>122.117554</ele>
        <time>2026-08-16T08:49:42.000Z</time>
      </trkpt>
      <trkpt lat="22.807963" lon="110.423857">
        <ele>122.137220</ele>
        <time>2026-08-16T08:49:43.000Z</time>
      </trkpt>
      <trkpt lat="22.807940" lon="110.423899">
        <ele>122.157327</ele>
        <time>2026-08-16T08:49:44.000Z</time>
      </trkpt>
      <trkpt lat="22.807919" lon="110.423943">
        <ele>122.177720</ele>
        <time>2026-08-16T08:49:45.000Z</time>
      </trkpt>
      <trkpt lat="22.807899" lon="110.423985">
        <ele>122.197177</ele>
        <time>2026-08-16T08:49:46.000Z</time>
      </trkpt>
      <trkpt lat="22.807884" lon="110.424025">
        <ele>122.214950</ele>
        <time>2026-08-16T08:49:47.000Z</time>
      </trkpt>
      <trkpt lat="22.807868" lon="110.424065">
        <ele>122.232897</ele>
        <time>2026-08-16T08:49:48.000Z</time>
      </trkpt>
      <trkpt lat="22.807851" lon="110.424101">
        <ele>122.249545</ele>
        <time>2026-08-16T08:49:49.000Z</time>
      </trkpt>
      <trkpt lat="22.807837" lon="110.424137">
        <ele>122.265626</ele>
        <time>2026-08-16T08:49:50.000Z</time>
      </trkpt>
      <trkpt lat="22.807824" lon="110.424174">
        <ele>122.281924</ele>
        <time>2026-08-16T08:49:51.000Z</time>
      </trkpt>
      <trkpt lat="22.807813" lon="110.424211">
        <ele>122.297925</ele>
        <time>2026-08-16T08:49:52.000Z</time>
      </trkpt>
      <trkpt lat="22.807801" lon="110.424250">
        <ele>122.314847</ele>
        <time>2026-08-16T08:49:53.000Z</time>
      </trkpt>
      <trkpt lat="22.807786" lon="110.424288">
        <ele>122.331861</ele>
        <time>2026-08-16T08:49:54.000Z</time>
      </trkpt>
      <trkpt lat="22.807766" lon="110.424326">
        <ele>122.349871</ele>
        <time>2026-08-16T08:49:55.000Z</time>
      </trkpt>
      <trkpt lat="22.807746" lon="110.424364">
        <ele>122.367881</ele>
        <time>2026-08-16T08:49:56.000Z</time>
      </trkpt>
      <trkpt lat="22.807726" lon="110.424403">
        <ele>122.386249</ele>
        <time>2026-08-16T08:49:57.000Z</time>
      </trkpt>
      <trkpt lat="22.807706" lon="110.424445">
        <ele>122.405706</ele>
        <time>2026-08-16T08:49:58.000Z</time>
      </trkpt>
      <trkpt lat="22.807687" lon="110.424487">
        <ele>122.424962</ele>
        <time>2026-08-16T08:49:59.000Z</time>
      </trkpt>
      <trkpt lat="22.807668" lon="110.424532">
        <ele>122.445334</ele>
        <time>2026-08-16T08:50:00.000Z</time>
      </trkpt>
      <trkpt lat="22.807647" lon="110.424576">
        <ele>122.465727</ele>
        <time>2026-08-16T08:50:01.000Z</time>
      </trkpt>
      <trkpt lat="22.807625" lon="110.424622">
        <ele>122.487056</ele>
        <time>2026-08-16T08:50:02.000Z</time>
      </trkpt>
      <trkpt lat="22.807600" lon="110.424667">
        <ele>122.505794</ele>
        <time>2026-08-16T08:50:03.000Z</time>
      </trkpt>
      <trkpt lat="22.807575" lon="110.424710">
        <ele>122.518110</ele>
        <time>2026-08-16T08:50:04.000Z</time>
      </trkpt>
      <trkpt lat="22.807549" lon="110.424754">
        <ele>122.530770</ele>
        <time>2026-08-16T08:50:05.000Z</time>
      </trkpt>
      <trkpt lat="22.807526" lon="110.424797">
        <ele>122.542813</ele>
        <time>2026-08-16T08:50:06.000Z</time>
      </trkpt>
      <trkpt lat="22.807502" lon="110.424839">
        <ele>122.554783</ele>
        <time>2026-08-16T08:50:07.000Z</time>
      </trkpt>
      <trkpt lat="22.807475" lon="110.424884">
        <ele>122.567790</ele>
        <time>2026-08-16T08:50:08.000Z</time>
      </trkpt>
      <trkpt lat="22.807445" lon="110.424925">
        <ele>122.580471</ele>
        <time>2026-08-16T08:50:09.000Z</time>
      </trkpt>
      <trkpt lat="22.807408" lon="110.424970">
        <ele>122.595078</ele>
        <time>2026-08-16T08:50:10.000Z</time>
      </trkpt>
      <trkpt lat="22.807367" lon="110.425015">
        <ele>122.610405</ele>
        <time>2026-08-16T08:50:11.000Z</time>
      </trkpt>
      <trkpt lat="22.807324" lon="110.425057">
        <ele>122.625610</ele>
        <time>2026-08-16T08:50:12.000Z</time>
      </trkpt>
      <trkpt lat="22.807281" lon="110.425097">
        <ele>122.640496</ele>
        <time>2026-08-16T08:50:13.000Z</time>
      </trkpt>
      <trkpt lat="22.807240" lon="110.425139">
        <ele>122.655315</ele>
        <time>2026-08-16T08:50:14.000Z</time>
      </trkpt>
      <trkpt lat="22.807204" lon="110.425185">
        <ele>122.669932</ele>
        <time>2026-08-16T08:50:15.000Z</time>
      </trkpt>
      <trkpt lat="22.807179" lon="110.425232">
        <ele>122.683077</ele>
        <time>2026-08-16T08:50:16.000Z</time>
      </trkpt>
      <trkpt lat="22.807158" lon="110.425282">
        <ele>122.696387</ele>
        <time>2026-08-16T08:50:17.000Z</time>
      </trkpt>
      <trkpt lat="22.807138" lon="110.425334">
        <ele>122.710036</ele>
        <time>2026-08-16T08:50:18.000Z</time>
      </trkpt>
      <trkpt lat="22.807122" lon="110.425385">
        <ele>122.723086</ele>
        <time>2026-08-16T08:50:19.000Z</time>
      </trkpt>
      <trkpt lat="22.807107" lon="110.425439">
        <ele>122.736748</ele>
        <time>2026-08-16T08:50:20.000Z</time>
      </trkpt>
      <trkpt lat="22.807092" lon="110.425495">
        <ele>122.750875</ele>
        <time>2026-08-16T08:50:21.000Z</time>
      </trkpt>
      <trkpt lat="22.807083" lon="110.425551">
        <ele>122.764645</ele>
        <time>2026-08-16T08:50:22.000Z</time>
      </trkpt>
      <trkpt lat="22.807075" lon="110.425609">
        <ele>122.778852</ele>
        <time>2026-08-16T08:50:23.000Z</time>
      </trkpt>
      <trkpt lat="22.807066" lon="110.425665">
        <ele>122.792622</ele>
        <time>2026-08-16T08:50:24.000Z</time>
      </trkpt>
      <trkpt lat="22.807055" lon="110.425717">
        <ele>122.805546</ele>
        <time>2026-08-16T08:50:25.000Z</time>
      </trkpt>
      <trkpt lat="22.807044" lon="110.425771">
        <ele>122.818943</ele>
        <time>2026-08-16T08:50:26.000Z</time>
      </trkpt>
      <trkpt lat="22.807030" lon="110.425822">
        <ele>122.831833</ele>
        <time>2026-08-16T08:50:27.000Z</time>
      </trkpt>
      <trkpt lat="22.807012" lon="110.425872">
        <ele>122.844836</ele>
        <time>2026-08-16T08:50:28.000Z</time>
      </trkpt>
      <trkpt lat="22.806991" lon="110.425915">
        <ele>122.856624</ele>
        <time>2026-08-16T08:50:29.000Z</time>
      </trkpt>
      <trkpt lat="22.806972" lon="110.425957">
        <ele>122.867958</ele>
        <time>2026-08-16T08:50:30.000Z</time>
      </trkpt>
      <trkpt lat="22.806949" lon="110.425997">
        <ele>122.879378</ele>
        <time>2026-08-16T08:50:31.000Z</time>
      </trkpt>
      <trkpt lat="22.806929" lon="110.426034">
        <ele>122.889768</ele>
        <time>2026-08-16T08:50:32.000Z</time>
      </trkpt>
      <trkpt lat="22.806911" lon="110.426064">
        <ele>122.898439</ele>
        <time>2026-08-16T08:50:33.000Z</time>
      </trkpt>
      <trkpt lat="22.806895" lon="110.426094">
        <ele>122.906835</ele>
        <time>2026-08-16T08:50:34.000Z</time>
      </trkpt>
      <trkpt lat="22.806883" lon="110.426126">
        <ele>122.915204</ele>
        <time>2026-08-16T08:50:35.000Z</time>
      </trkpt>
      <trkpt lat="22.806874" lon="110.426155">
        <ele>122.922617</ele>
        <time>2026-08-16T08:50:36.000Z</time>
      </trkpt>
      <trkpt lat="22.806861" lon="110.426183">
        <ele>122.930211</ele>
        <time>2026-08-16T08:50:37.000Z</time>
      </trkpt>
      <trkpt lat="22.806850" lon="110.426206">
        <ele>122.936488</ele>
        <time>2026-08-16T08:50:38.000Z</time>
      </trkpt>
      <trkpt lat="22.806835" lon="110.426230">
        <ele>122.943512</ele>
        <time>2026-08-16T08:50:39.000Z</time>
      </trkpt>
      <trkpt lat="22.806820" lon="110.426254">
        <ele>122.950536</ele>
        <time>2026-08-16T08:50:40.000Z</time>
      </trkpt>
      <trkpt lat="22.806803" lon="110.426279">
        <ele>122.958062</ele>
        <time>2026-08-16T08:50:41.000Z</time>
      </trkpt>
      <trkpt lat="22.806786" lon="110.426303">
        <ele>122.965394</ele>
        <time>2026-08-16T08:50:42.000Z</time>
      </trkpt>
      <trkpt lat="22.806769" lon="110.426327">
        <ele>122.972726</ele>
        <time>2026-08-16T08:50:43.000Z</time>
      </trkpt>
      <trkpt lat="22.806753" lon="110.426352">
        <ele>122.952928</ele>
        <time>2026-08-16T08:50:44.000Z</time>
      </trkpt>
      <trkpt lat="22.806733" lon="110.426374">
        <ele>122.925167</ele>
        <time>2026-08-16T08:50:45.000Z</time>
      </trkpt>
      <trkpt lat="22.806710" lon="110.426397">
        <ele>122.894678</ele>
        <time>2026-08-16T08:50:46.000Z</time>
      </trkpt>
      <trkpt lat="22.806683" lon="110.426416">
        <ele>122.863310</ele>
        <time>2026-08-16T08:50:47.000Z</time>
      </trkpt>
      <trkpt lat="22.806652" lon="110.426434">
        <ele>122.829039</ele>
        <time>2026-08-16T08:50:48.000Z</time>
      </trkpt>
      <trkpt lat="22.806618" lon="110.426446">
        <ele>122.794191</ele>
        <time>2026-08-16T08:50:49.000Z</time>
      </trkpt>
      <trkpt lat="22.806580" lon="110.426452">
        <ele>122.756763</ele>
        <time>2026-08-16T08:50:50.000Z</time>
      </trkpt>
      <trkpt lat="22.806536" lon="110.426454">
        <ele>122.713840</ele>
        <time>2026-08-16T08:50:51.000Z</time>
      </trkpt>
      <trkpt lat="22.806492" lon="110.426458">
        <ele>122.670804</ele>
        <time>2026-08-16T08:50:52.000Z</time>
      </trkpt>
      <trkpt lat="22.806446" lon="110.426463">
        <ele>122.625745</ele>
        <time>2026-08-16T08:50:53.000Z</time>
      </trkpt>
      <trkpt lat="22.806399" lon="110.426470">
        <ele>122.579506</ele>
        <time>2026-08-16T08:50:54.000Z</time>
      </trkpt>
      <trkpt lat="22.806350" lon="110.426476">
        <ele>122.531443</ele>
        <time>2026-08-16T08:50:55.000Z</time>
      </trkpt>
      <trkpt lat="22.806298" lon="110.426487">
        <ele>122.479806</ele>
        <time>2026-08-16T08:50:56.000Z</time>
      </trkpt>
      <trkpt lat="22.806248" lon="110.426494">
        <ele>122.430668</ele>
        <time>2026-08-16T08:50:57.000Z</time>
      </trkpt>
      <trkpt lat="22.806197" lon="110.426499">
        <ele>122.380758</ele>
        <time>2026-08-16T08:50:58.000Z</time>
      </trkpt>
      <trkpt lat="22.806145" lon="110.426507">
        <ele>122.329568</ele>
        <time>2026-08-16T08:50:59.000Z</time>
      </trkpt>
      <trkpt lat="22.806090" lon="110.426511">
        <ele>122.275840</ele>
        <time>2026-08-16T08:51:00.000Z</time>
      </trkpt>
      <trkpt lat="22.806037" lon="110.426520">
        <ele>122.223554</ele>
        <time>2026-08-16T08:51:01.000Z</time>
      </trkpt>
      <trkpt lat="22.805983" lon="110.426534">
        <ele>122.169439</ele>
        <time>2026-08-16T08:51:02.000Z</time>
      </trkpt>
      <trkpt lat="22.805929" lon="110.426547">
        <ele>122.115527</ele>
        <time>2026-08-16T08:51:03.000Z</time>
      </trkpt>
      <trkpt lat="22.805876" lon="110.426557">
        <ele>122.063094</ele>
        <time>2026-08-16T08:51:04.000Z</time>
      </trkpt>
      <trkpt lat="22.805820" lon="110.426568">
        <ele>122.007625</ele>
        <time>2026-08-16T08:51:05.000Z</time>
      </trkpt>
      <trkpt lat="22.805765" lon="110.426576">
        <ele>121.953538</ele>
        <time>2026-08-16T08:51:06.000Z</time>
      </trkpt>
      <trkpt lat="22.805709" lon="110.426582">
        <ele>121.898691</ele>
        <time>2026-08-16T08:51:07.000Z</time>
      </trkpt>
      <trkpt lat="22.805651" lon="110.426594">
        <ele>121.841141</ele>
        <time>2026-08-16T08:51:08.000Z</time>
      </trkpt>
      <trkpt lat="22.805596" lon="110.426608">
        <ele>121.786078</ele>
        <time>2026-08-16T08:51:09.000Z</time>
      </trkpt>
      <trkpt lat="22.805539" lon="110.426620">
        <ele>121.729486</ele>
        <time>2026-08-16T08:51:10.000Z</time>
      </trkpt>
      <trkpt lat="22.805482" lon="110.426631">
        <ele>121.673057</ele>
        <time>2026-08-16T08:51:11.000Z</time>
      </trkpt>
      <trkpt lat="22.805426" lon="110.426641">
        <ele>121.617741</ele>
        <time>2026-08-16T08:51:12.000Z</time>
      </trkpt>
      <trkpt lat="22.805371" lon="110.426653">
        <ele>121.563061</ele>
        <time>2026-08-16T08:51:13.000Z</time>
      </trkpt>
      <trkpt lat="22.805318" lon="110.426659">
        <ele>121.511123</ele>
        <time>2026-08-16T08:51:14.000Z</time>
      </trkpt>
      <trkpt lat="22.805264" lon="110.426665">
        <ele>121.458215</ele>
        <time>2026-08-16T08:51:15.000Z</time>
      </trkpt>
      <trkpt lat="22.805208" lon="110.426673">
        <ele>121.403162</ele>
        <time>2026-08-16T08:51:16.000Z</time>
      </trkpt>
      <trkpt lat="22.805153" lon="110.426682">
        <ele>121.348949</ele>
        <time>2026-08-16T08:51:17.000Z</time>
      </trkpt>
      <trkpt lat="22.805102" lon="110.426689">
        <ele>121.298845</ele>
        <time>2026-08-16T08:51:18.000Z</time>
      </trkpt>
      <trkpt lat="22.805048" lon="110.426697">
        <ele>121.245724</ele>
        <time>2026-08-16T08:51:19.000Z</time>
      </trkpt>
      <trkpt lat="22.804995" lon="110.426708">
        <ele>121.193344</ele>
        <time>2026-08-16T08:51:20.000Z</time>
      </trkpt>
      <trkpt lat="22.804941" lon="110.426717">
        <ele>121.140500</ele>
        <time>2026-08-16T08:51:21.000Z</time>
      </trkpt>
      <trkpt lat="22.804886" lon="110.426727">
        <ele>121.086560</ele>
        <time>2026-08-16T08:51:22.000Z</time>
      </trkpt>
      <trkpt lat="22.804831" lon="110.426735">
        <ele>121.032885</ele>
        <time>2026-08-16T08:51:23.000Z</time>
      </trkpt>
      <trkpt lat="22.804775" lon="110.426744">
        <ele>120.978129</ele>
        <time>2026-08-16T08:51:24.000Z</time>
      </trkpt>
      <trkpt lat="22.804718" lon="110.426753">
        <ele>120.922415</ele>
        <time>2026-08-16T08:51:25.000Z</time>
      </trkpt>
      <trkpt lat="22.804660" lon="110.426763">
        <ele>120.865611</ele>
        <time>2026-08-16T08:51:26.000Z</time>
      </trkpt>
      <trkpt lat="22.804603" lon="110.426772">
        <ele>120.809897</ele>
        <time>2026-08-16T08:51:27.000Z</time>
      </trkpt>
      <trkpt lat="22.804545" lon="110.426781">
        <ele>120.753226</ele>
        <time>2026-08-16T08:51:28.000Z</time>
      </trkpt>
      <trkpt lat="22.804489" lon="110.426792">
        <ele>120.698180</ele>
        <time>2026-08-16T08:51:29.000Z</time>
      </trkpt>
      <trkpt lat="22.804432" lon="110.426803">
        <ele>120.642181</ele>
        <time>2026-08-16T08:51:30.000Z</time>
      </trkpt>
      <trkpt lat="22.804375" lon="110.426814">
        <ele>120.586183</ele>
        <time>2026-08-16T08:51:31.000Z</time>
      </trkpt>
      <trkpt lat="22.804318" lon="110.426824">
        <ele>120.530334</ele>
        <time>2026-08-16T08:51:32.000Z</time>
      </trkpt>
      <trkpt lat="22.804261" lon="110.426834">
        <ele>120.474485</ele>
        <time>2026-08-16T08:51:33.000Z</time>
      </trkpt>
      <trkpt lat="22.804200" lon="110.426845">
        <ele>120.414674</ele>
        <time>2026-08-16T08:51:34.000Z</time>
      </trkpt>
      <trkpt lat="22.804142" lon="110.426852">
        <ele>120.358228</ele>
        <time>2026-08-16T08:51:35.000Z</time>
      </trkpt>
      <trkpt lat="22.804085" lon="110.426855">
        <ele>120.303030</ele>
        <time>2026-08-16T08:51:36.000Z</time>
      </trkpt>
      <trkpt lat="22.804030" lon="110.426858">
        <ele>120.249765</ele>
        <time>2026-08-16T08:51:37.000Z</time>
      </trkpt>
      <trkpt lat="22.803973" lon="110.426864">
        <ele>120.194373</ele>
        <time>2026-08-16T08:51:38.000Z</time>
      </trkpt>
      <trkpt lat="22.803915" lon="110.426871">
        <ele>120.137927</ele>
        <time>2026-08-16T08:51:39.000Z</time>
      </trkpt>
      <trkpt lat="22.803857" lon="110.426880">
        <ele>120.081256</ele>
        <time>2026-08-16T08:51:40.000Z</time>
      </trkpt>
      <trkpt lat="22.803797" lon="110.426890">
        <ele>120.022540</ele>
        <time>2026-08-16T08:51:41.000Z</time>
      </trkpt>
      <trkpt lat="22.803741" lon="110.426899">
        <ele>119.967784</ele>
        <time>2026-08-16T08:51:42.000Z</time>
      </trkpt>
      <trkpt lat="22.803684" lon="110.426908">
        <ele>119.912070</ele>
        <time>2026-08-16T08:51:43.000Z</time>
      </trkpt>
      <trkpt lat="22.803628" lon="110.426917">
        <ele>119.857313</ele>
        <time>2026-08-16T08:51:44.000Z</time>
      </trkpt>
      <trkpt lat="22.803572" lon="110.426925">
        <ele>119.802680</ele>
        <time>2026-08-16T08:51:45.000Z</time>
      </trkpt>
      <trkpt lat="22.803514" lon="110.426932">
        <ele>119.746234</ele>
        <time>2026-08-16T08:51:46.000Z</time>
      </trkpt>
      <trkpt lat="22.803459" lon="110.426937">
        <ele>119.692849</ele>
        <time>2026-08-16T08:51:47.000Z</time>
      </trkpt>
      <trkpt lat="22.803406" lon="110.426946">
        <ele>119.640961</ele>
        <time>2026-08-16T08:51:48.000Z</time>
      </trkpt>
      <trkpt lat="22.803354" lon="110.426957">
        <ele>119.589717</ele>
        <time>2026-08-16T08:51:49.000Z</time>
      </trkpt>
      <trkpt lat="22.803299" lon="110.426967">
        <ele>119.535777</ele>
        <time>2026-08-16T08:51:50.000Z</time>
      </trkpt>
      <trkpt lat="22.803245" lon="110.426977">
        <ele>119.482790</ele>
        <time>2026-08-16T08:51:51.000Z</time>
      </trkpt>
      <trkpt lat="22.803189" lon="110.426987">
        <ele>119.472374</ele>
        <time>2026-08-16T08:51:52.000Z</time>
      </trkpt>
      <trkpt lat="22.803134" lon="110.426998">
        <ele>119.463145</ele>
        <time>2026-08-16T08:51:53.000Z</time>
      </trkpt>
      <trkpt lat="22.803080" lon="110.427007">
        <ele>119.454130</ele>
        <time>2026-08-16T08:51:54.000Z</time>
      </trkpt>
      <trkpt lat="22.803021" lon="110.427015">
        <ele>119.444318</ele>
        <time>2026-08-16T08:51:55.000Z</time>
      </trkpt>
      <trkpt lat="22.802967" lon="110.427021">
        <ele>119.435360</ele>
        <time>2026-08-16T08:51:56.000Z</time>
      </trkpt>
      <trkpt lat="22.802911" lon="110.427027">
        <ele>119.426074</ele>
        <time>2026-08-16T08:51:57.000Z</time>
      </trkpt>
      <trkpt lat="22.802855" lon="110.427036">
        <ele>119.416732</ele>
        <time>2026-08-16T08:51:58.000Z</time>
      </trkpt>
      <trkpt lat="22.802803" lon="110.427044">
        <ele>119.408065</ele>
        <time>2026-08-16T08:51:59.000Z</time>
      </trkpt>
      <trkpt lat="22.802751" lon="110.427055">
        <ele>119.399322</ele>
        <time>2026-08-16T08:52:00.000Z</time>
      </trkpt>
      <trkpt lat="22.802697" lon="110.427065">
        <ele>119.390282</ele>
        <time>2026-08-16T08:52:01.000Z</time>
      </trkpt>
      <trkpt lat="22.802644" lon="110.427078">
        <ele>119.381315</ele>
        <time>2026-08-16T08:52:02.000Z</time>
      </trkpt>
      <trkpt lat="22.802585" lon="110.427086">
        <ele>119.371504</ele>
        <time>2026-08-16T08:52:03.000Z</time>
      </trkpt>
      <trkpt lat="22.802530" lon="110.427094">
        <ele>119.362346</ele>
        <time>2026-08-16T08:52:04.000Z</time>
      </trkpt>
      <trkpt lat="22.802473" lon="110.427103">
        <ele>119.352841</ele>
        <time>2026-08-16T08:52:05.000Z</time>
      </trkpt>
      <trkpt lat="22.802414" lon="110.427114">
        <ele>119.342962</ele>
        <time>2026-08-16T08:52:06.000Z</time>
      </trkpt>
      <trkpt lat="22.802356" lon="110.427123">
        <ele>119.333293</ele>
        <time>2026-08-16T08:52:07.000Z</time>
      </trkpt>
      <trkpt lat="22.802298" lon="110.427131">
        <ele>119.323645</ele>
        <time>2026-08-16T08:52:08.000Z</time>
      </trkpt>
      <trkpt lat="22.802241" lon="110.427141">
        <ele>119.314117</ele>
        <time>2026-08-16T08:52:09.000Z</time>
      </trkpt>
      <trkpt lat="22.802183" lon="110.427151">
        <ele>119.304425</ele>
        <time>2026-08-16T08:52:10.000Z</time>
      </trkpt>
      <trkpt lat="22.802127" lon="110.427161">
        <ele>119.295060</ele>
        <time>2026-08-16T08:52:11.000Z</time>
      </trkpt>
      <trkpt lat="22.802069" lon="110.427171">
        <ele>119.285369</ele>
        <time>2026-08-16T08:52:12.000Z</time>
      </trkpt>
      <trkpt lat="22.802013" lon="110.427178">
        <ele>119.276066</ele>
        <time>2026-08-16T08:52:13.000Z</time>
      </trkpt>
      <trkpt lat="22.801957" lon="110.427188">
        <ele>119.266701</ele>
        <time>2026-08-16T08:52:14.000Z</time>
      </trkpt>
      <trkpt lat="22.801901" lon="110.427198">
        <ele>119.257335</ele>
        <time>2026-08-16T08:52:15.000Z</time>
      </trkpt>
      <trkpt lat="22.801847" lon="110.427206">
        <ele>119.248342</ele>
        <time>2026-08-16T08:52:16.000Z</time>
      </trkpt>
      <trkpt lat="22.801795" lon="110.427214">
        <ele>119.239675</ele>
        <time>2026-08-16T08:52:17.000Z</time>
      </trkpt>
      <trkpt lat="22.801743" lon="110.427222">
        <ele>119.231008</ele>
        <time>2026-08-16T08:52:18.000Z</time>
      </trkpt>
      <trkpt lat="22.801690" lon="110.427229">
        <ele>119.222197</ele>
        <time>2026-08-16T08:52:19.000Z</time>
      </trkpt>
      <trkpt lat="22.801638" lon="110.427237">
        <ele>119.213530</ele>
        <time>2026-08-16T08:52:20.000Z</time>
      </trkpt>
      <trkpt lat="22.801584" lon="110.427245">
        <ele>119.204536</ele>
        <time>2026-08-16T08:52:21.000Z</time>
      </trkpt>
      <trkpt lat="22.801532" lon="110.427253">
        <ele>119.195869</ele>
        <time>2026-08-16T08:52:22.000Z</time>
      </trkpt>
      <trkpt lat="22.801479" lon="110.427261">
        <ele>119.187039</ele>
        <time>2026-08-16T08:52:23.000Z</time>
      </trkpt>
      <trkpt lat="22.801426" lon="110.427268">
        <ele>119.207808</ele>
        <time>2026-08-16T08:52:24.000Z</time>
      </trkpt>
      <trkpt lat="22.801373" lon="110.427275">
        <ele>119.239196</ele>
        <time>2026-08-16T08:52:25.000Z</time>
      </trkpt>
      <trkpt lat="22.801321" lon="110.427285">
        <ele>119.270244</ele>
        <time>2026-08-16T08:52:26.000Z</time>
      </trkpt>
      <trkpt lat="22.801268" lon="110.427294">
        <ele>119.301782</ele>
        <time>2026-08-16T08:52:27.000Z</time>
      </trkpt>
      <trkpt lat="22.801216" lon="110.427302">
        <ele>119.332659</ele>
        <time>2026-08-16T08:52:28.000Z</time>
      </trkpt>
      <trkpt lat="22.801166" lon="110.427312">
        <ele>119.362549</ele>
        <time>2026-08-16T08:52:29.000Z</time>
      </trkpt>
      <trkpt lat="22.801114" lon="110.427321">
        <ele>119.393506</ele>
        <time>2026-08-16T08:52:30.000Z</time>
      </trkpt>
      <trkpt lat="22.801062" lon="110.427327">
        <ele>119.424250</ele>
        <time>2026-08-16T08:52:31.000Z</time>
      </trkpt>
      <trkpt lat="22.801011" lon="110.427335">
        <ele>119.454544</ele>
        <time>2026-08-16T08:52:32.000Z</time>
      </trkpt>
      <trkpt lat="22.800959" lon="110.427345">
        <ele>119.485592</ele>
        <time>2026-08-16T08:52:33.000Z</time>
      </trkpt>
      <trkpt lat="22.800907" lon="110.427353">
        <ele>119.516468</ele>
        <time>2026-08-16T08:52:34.000Z</time>
      </trkpt>
      <trkpt lat="22.800855" lon="110.427362">
        <ele>119.547426</ele>
        <time>2026-08-16T08:52:35.000Z</time>
      </trkpt>
      <trkpt lat="22.800804" lon="110.427372">
        <ele>119.577895</ele>
        <time>2026-08-16T08:52:36.000Z</time>
      </trkpt>
      <trkpt lat="22.800754" lon="110.427383">
        <ele>119.607888</ele>
        <time>2026-08-16T08:52:37.000Z</time>
      </trkpt>
      <trkpt lat="22.800704" lon="110.427394">
        <ele>119.637881</ele>
        <time>2026-08-16T08:52:38.000Z</time>
      </trkpt>
      <trkpt lat="22.800657" lon="110.427402">
        <ele>119.665851</ele>
        <time>2026-08-16T08:52:39.000Z</time>
      </trkpt>
      <trkpt lat="22.800609" lon="110.427409">
        <ele>119.694324</ele>
        <time>2026-08-16T08:52:40.000Z</time>
      </trkpt>
      <trkpt lat="22.800560" lon="110.427416">
        <ele>119.723380</ele>
        <time>2026-08-16T08:52:41.000Z</time>
      </trkpt>
      <trkpt lat="22.800514" lon="110.427423">
        <ele>119.750688</ele>
        <time>2026-08-16T08:52:42.000Z</time>
      </trkpt>
      <trkpt lat="22.800468" lon="110.427430">
        <ele>119.777996</ele>
        <time>2026-08-16T08:52:43.000Z</time>
      </trkpt>
      <trkpt lat="22.800421" lon="110.427437">
        <ele>119.805886</ele>
        <time>2026-08-16T08:52:44.000Z</time>
      </trkpt>
      <trkpt lat="22.800374" lon="110.427443">
        <ele>119.833708</ele>
        <time>2026-08-16T08:52:45.000Z</time>
      </trkpt>
      <trkpt lat="22.800326" lon="110.427450">
        <ele>119.862181</ele>
        <time>2026-08-16T08:52:46.000Z</time>
      </trkpt>
      <trkpt lat="22.800280" lon="110.427456">
        <ele>119.889419</ele>
        <time>2026-08-16T08:52:47.000Z</time>
      </trkpt>
      <trkpt lat="22.800234" lon="110.427462">
        <ele>119.916658</ele>
        <time>2026-08-16T08:52:48.000Z</time>
      </trkpt>
      <trkpt lat="22.800188" lon="110.427471">
        <ele>119.944137</ele>
        <time>2026-08-16T08:52:49.000Z</time>
      </trkpt>
      <trkpt lat="22.800143" lon="110.427478">
        <ele>119.970863</ele>
        <time>2026-08-16T08:52:50.000Z</time>
      </trkpt>
      <trkpt lat="22.800096" lon="110.427485">
        <ele>119.998754</ele>
        <time>2026-08-16T08:52:51.000Z</time>
      </trkpt>
      <trkpt lat="22.800050" lon="110.427491">
        <ele>120.025992</ele>
        <time>2026-08-16T08:52:52.000Z</time>
      </trkpt>
      <trkpt lat="22.800003" lon="110.427497">
        <ele>120.053814</ele>
        <time>2026-08-16T08:52:53.000Z</time>
      </trkpt>
      <trkpt lat="22.799956" lon="110.427505">
        <ele>120.081783</ele>
        <time>2026-08-16T08:52:54.000Z</time>
      </trkpt>
      <trkpt lat="22.799908" lon="110.427513">
        <ele>120.110334</ele>
        <time>2026-08-16T08:52:55.000Z</time>
      </trkpt>
      <trkpt lat="22.799861" lon="110.427522">
        <ele>120.138392</ele>
        <time>2026-08-16T08:52:56.000Z</time>
      </trkpt>
      <trkpt lat="22.799814" lon="110.427530">
        <ele>120.166361</ele>
        <time>2026-08-16T08:52:57.000Z</time>
      </trkpt>
      <trkpt lat="22.799767" lon="110.427538">
        <ele>120.194331</ele>
        <time>2026-08-16T08:52:58.000Z</time>
      </trkpt>
      <trkpt lat="22.799721" lon="110.427546">
        <ele>120.221719</ele>
        <time>2026-08-16T08:52:59.000Z</time>
      </trkpt>
      <trkpt lat="22.799674" lon="110.427556">
        <ele>120.247065</ele>
        <time>2026-08-16T08:53:00.000Z</time>
      </trkpt>
      <trkpt lat="22.799628" lon="110.427564">
        <ele>120.264507</ele>
        <time>2026-08-16T08:53:01.000Z</time>
      </trkpt>
      <trkpt lat="22.799582" lon="110.427573">
        <ele>120.282007</ele>
        <time>2026-08-16T08:53:02.000Z</time>
      </trkpt>
      <trkpt lat="22.799535" lon="110.427584">
        <ele>120.300008</ele>
        <time>2026-08-16T08:53:03.000Z</time>
      </trkpt>
      <trkpt lat="22.799488" lon="110.427593">
        <ele>120.317877</ele>
        <time>2026-08-16T08:53:04.000Z</time>
      </trkpt>
      <trkpt lat="22.799443" lon="110.427598">
        <ele>120.334813</ele>
        <time>2026-08-16T08:53:05.000Z</time>
      </trkpt>
      <trkpt lat="22.799397" lon="110.427605">
        <ele>120.352204</ele>
        <time>2026-08-16T08:53:06.000Z</time>
      </trkpt>
      <trkpt lat="22.799353" lon="110.427612">
        <ele>120.368853</ele>
        <time>2026-08-16T08:53:07.000Z</time>
      </trkpt>
      <trkpt lat="22.799309" lon="110.427618">
        <ele>120.385456</ele>
        <time>2026-08-16T08:53:08.000Z</time>
      </trkpt>
      <trkpt lat="22.799265" lon="110.427624">
        <ele>120.402060</ele>
        <time>2026-08-16T08:53:09.000Z</time>
      </trkpt>
      <trkpt lat="22.799217" lon="110.427626">
        <ele>120.420044</ele>
        <time>2026-08-16T08:53:10.000Z</time>
      </trkpt>
      <trkpt lat="22.799173" lon="110.427628">
        <ele>120.436532</ele>
        <time>2026-08-16T08:53:11.000Z</time>
      </trkpt>
      <trkpt lat="22.799127" lon="110.427636">
        <ele>120.453974</ele>
        <time>2026-08-16T08:53:12.000Z</time>
      </trkpt>
      <trkpt lat="22.799082" lon="110.427644">
        <ele>120.471046</ele>
        <time>2026-08-16T08:53:13.000Z</time>
      </trkpt>
      <trkpt lat="22.799037" lon="110.427651">
        <ele>120.488067</ele>
        <time>2026-08-16T08:53:14.000Z</time>
      </trkpt>
      <trkpt lat="22.798991" lon="110.427659">
        <ele>120.505509</ele>
        <time>2026-08-16T08:53:15.000Z</time>
      </trkpt>
      <trkpt lat="22.798944" lon="110.427668">
        <ele>120.523377</ele>
        <time>2026-08-16T08:53:16.000Z</time>
      </trkpt>
      <trkpt lat="22.798898" lon="110.427677">
        <ele>120.540877</ele>
        <time>2026-08-16T08:53:17.000Z</time>
      </trkpt>
      <trkpt lat="22.798852" lon="110.427686">
        <ele>120.558378</ele>
        <time>2026-08-16T08:53:18.000Z</time>
      </trkpt>
      <trkpt lat="22.798808" lon="110.427695">
        <ele>120.575141</ele>
        <time>2026-08-16T08:53:19.000Z</time>
      </trkpt>
      <trkpt lat="22.798765" lon="110.427704">
        <ele>120.591537</ele>
        <time>2026-08-16T08:53:20.000Z</time>
      </trkpt>
      <trkpt lat="22.798724" lon="110.427713">
        <ele>120.607199</ele>
        <time>2026-08-16T08:53:21.000Z</time>
      </trkpt>
      <trkpt lat="22.798682" lon="110.427724">
        <ele>120.623375</ele>
        <time>2026-08-16T08:53:22.000Z</time>
      </trkpt>
      <trkpt lat="22.798643" lon="110.427735">
        <ele>120.638462</ele>
        <time>2026-08-16T08:53:23.000Z</time>
      </trkpt>
      <trkpt lat="22.798608" lon="110.427751">
        <ele>120.652682</ele>
        <time>2026-08-16T08:53:24.000Z</time>
      </trkpt>
      <trkpt lat="22.798574" lon="110.427770">
        <ele>120.667001</ele>
        <time>2026-08-16T08:53:25.000Z</time>
      </trkpt>
      <trkpt lat="22.798542" lon="110.427792">
        <ele>120.681186</ele>
        <time>2026-08-16T08:53:26.000Z</time>
      </trkpt>
      <trkpt lat="22.798511" lon="110.427816">
        <ele>120.695445</ele>
        <time>2026-08-16T08:53:27.000Z</time>
      </trkpt>
      <trkpt lat="22.798482" lon="110.427841">
        <ele>120.709313</ele>
        <time>2026-08-16T08:53:28.000Z</time>
      </trkpt>
      <trkpt lat="22.798459" lon="110.427875">
        <ele>120.723869</ele>
        <time>2026-08-16T08:53:29.000Z</time>
      </trkpt>
      <trkpt lat="22.798446" lon="110.427915">
        <ele>120.738507</ele>
        <time>2026-08-16T08:53:30.000Z</time>
      </trkpt>
      <trkpt lat="22.798442" lon="110.427959">
        <ele>120.753767</ele>
        <time>2026-08-16T08:53:31.000Z</time>
      </trkpt>
      <trkpt lat="22.798443" lon="110.428006">
        <ele>120.769994</ele>
        <time>2026-08-16T08:53:32.000Z</time>
      </trkpt>
      <trkpt lat="22.798443" lon="110.428053">
        <ele>120.786215</ele>
        <time>2026-08-16T08:53:33.000Z</time>
      </trkpt>
      <trkpt lat="22.798444" lon="110.428099">
        <ele>120.802097</ele>
        <time>2026-08-16T08:53:34.000Z</time>
      </trkpt>
      <trkpt lat="22.798445" lon="110.428148">
        <ele>120.819013</ele>
        <time>2026-08-16T08:53:35.000Z</time>
      </trkpt>
      <trkpt lat="22.798443" lon="110.428198">
        <ele>120.836286</ele>
        <time>2026-08-16T08:53:36.000Z</time>
      </trkpt>
      <trkpt lat="22.798441" lon="110.428250">
        <ele>120.854250</ele>
        <time>2026-08-16T08:53:37.000Z</time>
      </trkpt>
      <trkpt lat="22.798439" lon="110.428303">
        <ele>120.872558</ele>
        <time>2026-08-16T08:53:38.000Z</time>
      </trkpt>
      <trkpt lat="22.798437" lon="110.428357">
        <ele>120.891210</ele>
        <time>2026-08-16T08:53:39.000Z</time>
      </trkpt>
      <trkpt lat="22.798432" lon="110.428411">
        <ele>120.909942</ele>
        <time>2026-08-16T08:53:40.000Z</time>
      </trkpt>
      <trkpt lat="22.798423" lon="110.428465">
        <ele>120.983467</ele>
        <time>2026-08-16T08:53:41.000Z</time>
      </trkpt>
      <trkpt lat="22.798416" lon="110.428519">
        <ele>121.079270</ele>
        <time>2026-08-16T08:53:42.000Z</time>
      </trkpt>
      <trkpt lat="22.798407" lon="110.428572">
        <ele>121.173949</ele>
        <time>2026-08-16T08:53:43.000Z</time>
      </trkpt>
      <trkpt lat="22.798396" lon="110.428625">
        <ele>121.269392</ele>
        <time>2026-08-16T08:53:44.000Z</time>
      </trkpt>
      <trkpt lat="22.798386" lon="110.428680">
        <ele>121.367880</ele>
        <time>2026-08-16T08:53:45.000Z</time>
      </trkpt>
      <trkpt lat="22.798379" lon="110.428733">
        <ele>121.461944</ele>
        <time>2026-08-16T08:53:46.000Z</time>
      </trkpt>
      <trkpt lat="22.798372" lon="110.428785">
        <ele>121.554268</ele>
        <time>2026-08-16T08:53:47.000Z</time>
      </trkpt>
      <trkpt lat="22.798364" lon="110.428833">
        <ele>121.639964</ele>
        <time>2026-08-16T08:53:48.000Z</time>
      </trkpt>
      <trkpt lat="22.798356" lon="110.428879">
        <ele>121.722204</ele>
        <time>2026-08-16T08:53:49.000Z</time>
      </trkpt>
      <trkpt lat="22.798349" lon="110.428922">
        <ele>121.798917</ele>
        <time>2026-08-16T08:53:50.000Z</time>
      </trkpt>
      <trkpt lat="22.798346" lon="110.428960">
        <ele>121.865922</ele>
        <time>2026-08-16T08:53:51.000Z</time>
      </trkpt>
      <trkpt lat="22.798341" lon="110.428996">
        <ele>121.929882</ele>
        <time>2026-08-16T08:53:52.000Z</time>
      </trkpt>
      <trkpt lat="22.798339" lon="110.429028">
        <ele>121.986230</ele>
        <time>2026-08-16T08:53:53.000Z</time>
      </trkpt>
      <trkpt lat="22.798337" lon="110.429060">
        <ele>122.042578</ele>
        <time>2026-08-16T08:53:54.000Z</time>
      </trkpt>
      <trkpt lat="22.798334" lon="110.429092">
        <ele>122.099087</ele>
        <time>2026-08-16T08:53:55.000Z</time>
      </trkpt>
      <trkpt lat="22.798326" lon="110.429126">
        <ele>122.160735</ele>
        <time>2026-08-16T08:53:56.000Z</time>
      </trkpt>
      <trkpt lat="22.798317" lon="110.429161">
        <ele>122.224571</ele>
        <time>2026-08-16T08:53:57.000Z</time>
      </trkpt>
      <trkpt lat="22.798309" lon="110.429197">
        <ele>122.289629</ele>
        <time>2026-08-16T08:53:58.000Z</time>
      </trkpt>
      <trkpt lat="22.798307" lon="110.429231">
        <ele>122.349484</ele>
        <time>2026-08-16T08:53:59.000Z</time>
      </trkpt>
      <trkpt lat="22.798304" lon="110.429266">
        <ele>122.411238</ele>
        <time>2026-08-16T08:54:00.000Z</time>
      </trkpt>
      <trkpt lat="22.798303" lon="110.429302">
        <ele>122.474513</ele>
        <time>2026-08-16T08:54:01.000Z</time>
      </trkpt>
      <trkpt lat="22.798302" lon="110.429338">
        <ele>122.537789</ele>
        <time>2026-08-16T08:54:02.000Z</time>
      </trkpt>
      <trkpt lat="22.798299" lon="110.429375">
        <ele>122.603043</ele>
        <time>2026-08-16T08:54:03.000Z</time>
      </trkpt>
      <trkpt lat="22.798293" lon="110.429410">
        <ele>122.665586</ele>
        <time>2026-08-16T08:54:04.000Z</time>
      </trkpt>
      <trkpt lat="22.798289" lon="110.429445">
        <ele>122.727547</ele>
        <time>2026-08-16T08:54:05.000Z</time>
      </trkpt>
      <trkpt lat="22.798285" lon="110.429481">
        <ele>122.791251</ele>
        <time>2026-08-16T08:54:06.000Z</time>
      </trkpt>
      <trkpt lat="22.798281" lon="110.429515">
        <ele>122.851468</ele>
        <time>2026-08-16T08:54:07.000Z</time>
      </trkpt>
      <trkpt lat="22.798279" lon="110.429548">
        <ele>122.909569</ele>
        <time>2026-08-16T08:54:08.000Z</time>
      </trkpt>
      <trkpt lat="22.798275" lon="110.429578">
        <ele>122.962823</ele>
        <time>2026-08-16T08:54:09.000Z</time>
      </trkpt>
      <trkpt lat="22.798271" lon="110.429609">
        <ele>123.017816</ele>
        <time>2026-08-16T08:54:10.000Z</time>
      </trkpt>
      <trkpt lat="22.798270" lon="110.429640">
        <ele>123.072311</ele>
        <time>2026-08-16T08:54:11.000Z</time>
      </trkpt>
      <trkpt lat="22.798268" lon="110.429673">
        <ele>123.130412</ele>
        <time>2026-08-16T08:54:12.000Z</time>
      </trkpt>
      <trkpt lat="22.798267" lon="110.429706">
        <ele>123.188420</ele>
        <time>2026-08-16T08:54:13.000Z</time>
      </trkpt>
      <trkpt lat="22.798270" lon="110.429739">
        <ele>123.246677</ele>
        <time>2026-08-16T08:54:14.000Z</time>
      </trkpt>
      <trkpt lat="22.798270" lon="110.429772">
        <ele>123.304652</ele>
        <time>2026-08-16T08:54:15.000Z</time>
      </trkpt>
      <trkpt lat="22.798270" lon="110.429803">
        <ele>123.359115</ele>
        <time>2026-08-16T08:54:16.000Z</time>
      </trkpt>
      <trkpt lat="22.798270" lon="110.429837">
        <ele>123.418847</ele>
        <time>2026-08-16T08:54:17.000Z</time>
      </trkpt>
      <trkpt lat="22.798271" lon="110.429870">
        <ele>123.476855</ele>
        <time>2026-08-16T08:54:18.000Z</time>
      </trkpt>
      <trkpt lat="22.798272" lon="110.429903">
        <ele>123.534862</ele>
        <time>2026-08-16T08:54:19.000Z</time>
      </trkpt>
      <trkpt lat="22.798272" lon="110.429936">
        <ele>123.592838</ele>
        <time>2026-08-16T08:54:20.000Z</time>
      </trkpt>
      <trkpt lat="22.798274" lon="110.429973">
        <ele>123.657953</ele>
        <time>2026-08-16T08:54:21.000Z</time>
      </trkpt>
      <trkpt lat="22.798275" lon="110.430010">
        <ele>123.722984</ele>
        <time>2026-08-16T08:54:22.000Z</time>
      </trkpt>
      <trkpt lat="22.798277" lon="110.430046">
        <ele>123.786345</ele>
        <time>2026-08-16T08:54:23.000Z</time>
      </trkpt>
      <trkpt lat="22.798280" lon="110.430083">
        <ele>123.851599</ele>
        <time>2026-08-16T08:54:24.000Z</time>
      </trkpt>
      <trkpt lat="22.798280" lon="110.430120">
        <ele>123.916602</ele>
        <time>2026-08-16T08:54:25.000Z</time>
      </trkpt>
      <trkpt lat="22.798280" lon="110.430157">
        <ele>123.981606</ele>
        <time>2026-08-16T08:54:26.000Z</time>
      </trkpt>
      <trkpt lat="22.798282" lon="110.430192">
        <ele>124.043213</ele>
        <time>2026-08-16T08:54:27.000Z</time>
      </trkpt>
      <trkpt lat="22.798283" lon="110.430230">
        <ele>124.110000</ele>
        <time>2026-08-16T08:54:28.000Z</time>
      </trkpt>
      <trkpt lat="22.798284" lon="110.430270">
        <ele>124.180300</ele>
        <time>2026-08-16T08:54:29.000Z</time>
      </trkpt>
      <trkpt lat="22.798284" lon="110.430309">
        <ele>124.248817</ele>
        <time>2026-08-16T08:54:30.000Z</time>
      </trkpt>
      <trkpt lat="22.798286" lon="110.430346">
        <ele>124.313932</ele>
        <time>2026-08-16T08:54:31.000Z</time>
      </trkpt>
      <trkpt lat="22.798286" lon="110.430382">
        <ele>124.342121</ele>
        <time>2026-08-16T08:54:32.000Z</time>
      </trkpt>
      <trkpt lat="22.798287" lon="110.430416">
        <ele>124.340103</ele>
        <time>2026-08-16T08:54:33.000Z</time>
      </trkpt>
      <trkpt lat="22.798288" lon="110.430451">
        <ele>124.338026</ele>
        <time>2026-08-16T08:54:34.000Z</time>
      </trkpt>
      <trkpt lat="22.798286" lon="110.430487">
        <ele>124.335887</ele>
        <time>2026-08-16T08:54:35.000Z</time>
      </trkpt>
      <trkpt lat="22.798287" lon="110.430523">
        <ele>124.333751</ele>
        <time>2026-08-16T08:54:36.000Z</time>
      </trkpt>
      <trkpt lat="22.798286" lon="110.430561">
        <ele>124.331496</ele>
        <time>2026-08-16T08:54:37.000Z</time>
      </trkpt>
      <trkpt lat="22.798284" lon="110.430599">
        <ele>124.329239</ele>
        <time>2026-08-16T08:54:38.000Z</time>
      </trkpt>
      <trkpt lat="22.798283" lon="110.430637">
        <ele>124.326984</ele>
        <time>2026-08-16T08:54:39.000Z</time>
      </trkpt>
      <trkpt lat="22.798280" lon="110.430674">
        <ele>124.324781</ele>
        <time>2026-08-16T08:54:40.000Z</time>
      </trkpt>
      <trkpt lat="22.798275" lon="110.430712">
        <ele>124.322505</ele>
        <time>2026-08-16T08:54:41.000Z</time>
      </trkpt>
      <trkpt lat="22.798274" lon="110.430751">
        <ele>124.320191</ele>
        <time>2026-08-16T08:54:42.000Z</time>
      </trkpt>
      <trkpt lat="22.798274" lon="110.430790">
        <ele>124.317878</ele>
        <time>2026-08-16T08:54:43.000Z</time>
      </trkpt>
      <trkpt lat="22.798271" lon="110.430831">
        <ele>124.315438</ele>
        <time>2026-08-16T08:54:44.000Z</time>
      </trkpt>
      <trkpt lat="22.798271" lon="110.430874">
        <ele>124.312888</ele>
        <time>2026-08-16T08:54:45.000Z</time>
      </trkpt>
      <trkpt lat="22.798267" lon="110.430920">
        <ele>124.310148</ele>
        <time>2026-08-16T08:54:46.000Z</time>
      </trkpt>
      <trkpt lat="22.798261" lon="110.430963">
        <ele>124.307568</ele>
        <time>2026-08-16T08:54:47.000Z</time>
      </trkpt>
      <trkpt lat="22.798256" lon="110.431002">
        <ele>124.305233</ele>
        <time>2026-08-16T08:54:48.000Z</time>
      </trkpt>
      <trkpt lat="22.798249" lon="110.431046">
        <ele>124.302585</ele>
        <time>2026-08-16T08:54:49.000Z</time>
      </trkpt>
      <trkpt lat="22.798245" lon="110.431089">
        <ele>124.300021</ele>
        <time>2026-08-16T08:54:50.000Z</time>
      </trkpt>
      <trkpt lat="22.798239" lon="110.431131">
        <ele>124.297501</ele>
        <time>2026-08-16T08:54:51.000Z</time>
      </trkpt>
      <trkpt lat="22.798233" lon="110.431176">
        <ele>124.294804</ele>
        <time>2026-08-16T08:54:52.000Z</time>
      </trkpt>
      <trkpt lat="22.798226" lon="110.431220">
        <ele>124.292156</ele>
        <time>2026-08-16T08:54:53.000Z</time>
      </trkpt>
      <trkpt lat="22.798218" lon="110.431262">
        <ele>124.289612</ele>
        <time>2026-08-16T08:54:54.000Z</time>
      </trkpt>
      <trkpt lat="22.798210" lon="110.431305">
        <ele>124.287010</ele>
        <time>2026-08-16T08:54:55.000Z</time>
      </trkpt>
      <trkpt lat="22.798203" lon="110.431354">
        <ele>124.284069</ele>
        <time>2026-08-16T08:54:56.000Z</time>
      </trkpt>
      <trkpt lat="22.798193" lon="110.431401">
        <ele>124.281209</ele>
        <time>2026-08-16T08:54:57.000Z</time>
      </trkpt>
      <trkpt lat="22.798180" lon="110.431446">
        <ele>124.278412</ele>
        <time>2026-08-16T08:54:58.000Z</time>
      </trkpt>
      <trkpt lat="22.798163" lon="110.431490">
        <ele>124.275582</ele>
        <time>2026-08-16T08:54:59.000Z</time>
      </trkpt>
      <trkpt lat="22.798140" lon="110.431537">
        <ele>124.272426</ele>
        <time>2026-08-16T08:55:00.000Z</time>
      </trkpt>
      <trkpt lat="22.798127" lon="110.431582">
        <ele>124.269629</ele>
        <time>2026-08-16T08:55:01.000Z</time>
      </trkpt>
      <trkpt lat="22.798111" lon="110.431630">
        <ele>124.266602</ele>
        <time>2026-08-16T08:55:02.000Z</time>
      </trkpt>
      <trkpt lat="22.798096" lon="110.431675">
        <ele>124.263764</ele>
        <time>2026-08-16T08:55:03.000Z</time>
      </trkpt>
      <trkpt lat="22.798078" lon="110.431722">
        <ele>124.260745</ele>
        <time>2026-08-16T08:55:04.000Z</time>
      </trkpt>
      <trkpt lat="22.798059" lon="110.431766">
        <ele>124.257864</ele>
        <time>2026-08-16T08:55:05.000Z</time>
      </trkpt>
      <trkpt lat="22.798035" lon="110.431809">
        <ele>124.254882</ele>
        <time>2026-08-16T08:55:06.000Z</time>
      </trkpt>
      <trkpt lat="22.798005" lon="110.431851">
        <ele>124.251731</ele>
        <time>2026-08-16T08:55:07.000Z</time>
      </trkpt>
      <trkpt lat="22.797981" lon="110.431894">
        <ele>124.248750</ele>
        <time>2026-08-16T08:55:08.000Z</time>
      </trkpt>
      <trkpt lat="22.797949" lon="110.431940">
        <ele>124.245332</ele>
        <time>2026-08-16T08:55:09.000Z</time>
      </trkpt>
      <trkpt lat="22.797918" lon="110.431983">
        <ele>124.242094</ele>
        <time>2026-08-16T08:55:10.000Z</time>
      </trkpt>
      <trkpt lat="22.797882" lon="110.432021">
        <ele>124.238863</ele>
        <time>2026-08-16T08:55:11.000Z</time>
      </trkpt>
      <trkpt lat="22.797848" lon="110.432046">
        <ele>124.236220</ele>
        <time>2026-08-16T08:55:12.000Z</time>
      </trkpt>
      <trkpt lat="22.797807" lon="110.432067">
        <ele>124.233303</ele>
        <time>2026-08-16T08:55:13.000Z</time>
      </trkpt>
      <trkpt lat="22.797763" lon="110.432092">
        <ele>124.230107</ele>
        <time>2026-08-16T08:55:14.000Z</time>
      </trkpt>
      <trkpt lat="22.797717" lon="110.432117">
        <ele>124.228535</ele>
        <time>2026-08-16T08:55:15.000Z</time>
      </trkpt>
      <trkpt lat="22.797673" lon="110.432141">
        <ele>124.232704</ele>
        <time>2026-08-16T08:55:16.000Z</time>
      </trkpt>
      <trkpt lat="22.797625" lon="110.432165">
        <ele>124.237178</ele>
        <time>2026-08-16T08:55:17.000Z</time>
      </trkpt>
      <trkpt lat="22.797574" lon="110.432189">
        <ele>124.241884</ele>
        <time>2026-08-16T08:55:18.000Z</time>
      </trkpt>
      <trkpt lat="22.797533" lon="110.432215">
        <ele>124.245904</ele>
        <time>2026-08-16T08:55:19.000Z</time>
      </trkpt>
      <trkpt lat="22.797492" lon="110.432241">
        <ele>124.249925</ele>
        <time>2026-08-16T08:55:20.000Z</time>
      </trkpt>
      <trkpt lat="22.797453" lon="110.432263">
        <ele>124.253646</ele>
        <time>2026-08-16T08:55:21.000Z</time>
      </trkpt>
      <trkpt lat="22.797416" lon="110.432287">
        <ele>124.257295</ele>
        <time>2026-08-16T08:55:22.000Z</time>
      </trkpt>
      <trkpt lat="22.797381" lon="110.432316">
        <ele>124.261023</ele>
        <time>2026-08-16T08:55:23.000Z</time>
      </trkpt>
      <trkpt lat="22.797343" lon="110.432343">
        <ele>124.264868</ele>
        <time>2026-08-16T08:55:24.000Z</time>
      </trkpt>
      <trkpt lat="22.797303" lon="110.432363">
        <ele>124.268597</ele>
        <time>2026-08-16T08:55:25.000Z</time>
      </trkpt>
      <trkpt lat="22.797263" lon="110.432377">
        <ele>124.272155</ele>
        <time>2026-08-16T08:55:26.000Z</time>
      </trkpt>
      <trkpt lat="22.797221" lon="110.432382">
        <ele>124.275731</ele>
        <time>2026-08-16T08:55:27.000Z</time>
      </trkpt>
      <trkpt lat="22.797175" lon="110.432381">
        <ele>124.279626</ele>
        <time>2026-08-16T08:55:28.000Z</time>
      </trkpt>
      <trkpt lat="22.797129" lon="110.432376">
        <ele>124.283539</ele>
        <time>2026-08-16T08:55:29.000Z</time>
      </trkpt>
      <trkpt lat="22.797083" lon="110.432370">
        <ele>124.287461</ele>
        <time>2026-08-16T08:55:30.000Z</time>
      </trkpt>
      <trkpt lat="22.797039" lon="110.432364">
        <ele>124.291215</ele>
        <time>2026-08-16T08:55:31.000Z</time>
      </trkpt>
      <trkpt lat="22.796993" lon="110.432364">
        <ele>124.295109</ele>
        <time>2026-08-16T08:55:32.000Z</time>
      </trkpt>
      <trkpt lat="22.796949" lon="110.432368">
        <ele>124.298847</ele>
        <time>2026-08-16T08:55:33.000Z</time>
      </trkpt>
      <trkpt lat="22.796905" lon="110.432382">
        <ele>124.302728</ele>
        <time>2026-08-16T08:55:34.000Z</time>
      </trkpt>
      <trkpt lat="22.796864" lon="110.432404">
        <ele>124.306600</ele>
        <time>2026-08-16T08:55:35.000Z</time>
      </trkpt>
      <trkpt lat="22.796830" lon="110.432437">
        <ele>124.310462</ele>
        <time>2026-08-16T08:55:36.000Z</time>
      </trkpt>
      <trkpt lat="22.796799" lon="110.432477">
        <ele>124.314540</ele>
        <time>2026-08-16T08:55:37.000Z</time>
      </trkpt>
      <trkpt lat="22.796775" lon="110.432520">
        <ele>124.318463</ele>
        <time>2026-08-16T08:55:38.000Z</time>
      </trkpt>
      <trkpt lat="22.796754" lon="110.432564">
        <ele>124.322329</ele>
        <time>2026-08-16T08:55:39.000Z</time>
      </trkpt>
      <trkpt lat="22.796736" lon="110.432612">
        <ele>124.326373</ele>
        <time>2026-08-16T08:55:40.000Z</time>
      </trkpt>
      <trkpt lat="22.796723" lon="110.432658">
        <ele>124.330128</ele>
        <time>2026-08-16T08:55:41.000Z</time>
      </trkpt>
      <trkpt lat="22.796712" lon="110.432703">
        <ele>124.333761</ele>
        <time>2026-08-16T08:55:42.000Z</time>
      </trkpt>
      <trkpt lat="22.796698" lon="110.432749">
        <ele>124.337541</ele>
        <time>2026-08-16T08:55:43.000Z</time>
      </trkpt>
      <trkpt lat="22.796684" lon="110.432796">
        <ele>124.341396</ele>
        <time>2026-08-16T08:55:44.000Z</time>
      </trkpt>
      <trkpt lat="22.796672" lon="110.432843">
        <ele>124.345201</ele>
        <time>2026-08-16T08:55:45.000Z</time>
      </trkpt>
      <trkpt lat="22.796656" lon="110.432888">
        <ele>124.348965</ele>
        <time>2026-08-16T08:55:46.000Z</time>
      </trkpt>
      <trkpt lat="22.796640" lon="110.432932">
        <ele>124.352656</ele>
        <time>2026-08-16T08:55:47.000Z</time>
      </trkpt>
      <trkpt lat="22.796622" lon="110.432974">
        <ele>124.356271</ele>
        <time>2026-08-16T08:55:48.000Z</time>
      </trkpt>
      <trkpt lat="22.796600" lon="110.433018">
        <ele>124.360177</ele>
        <time>2026-08-16T08:55:49.000Z</time>
      </trkpt>
      <trkpt lat="22.796579" lon="110.433064">
        <ele>124.364183</ele>
        <time>2026-08-16T08:55:50.000Z</time>
      </trkpt>
      <trkpt lat="22.796556" lon="110.433110">
        <ele>124.368266</ele>
        <time>2026-08-16T08:55:51.000Z</time>
      </trkpt>
      <trkpt lat="22.796532" lon="110.433155">
        <ele>124.372323</ele>
        <time>2026-08-16T08:55:52.000Z</time>
      </trkpt>
      <trkpt lat="22.796509" lon="110.433202">
        <ele>124.376476</ele>
        <time>2026-08-16T08:55:53.000Z</time>
      </trkpt>
      <trkpt lat="22.796486" lon="110.433250">
        <ele>124.348896</ele>
        <time>2026-08-16T08:55:54.000Z</time>
      </trkpt>
      <trkpt lat="22.796468" lon="110.433297">
        <ele>124.211783</ele>
        <time>2026-08-16T08:55:55.000Z</time>
      </trkpt>
      <trkpt lat="22.796453" lon="110.433344">
        <ele>124.077788</ele>
        <time>2026-08-16T08:55:56.000Z</time>
      </trkpt>
      <trkpt lat="22.796440" lon="110.433393">
        <ele>123.940421</ele>
        <time>2026-08-16T08:55:57.000Z</time>
      </trkpt>
      <trkpt lat="22.796428" lon="110.433440">
        <ele>123.809033</ele>
        <time>2026-08-16T08:55:58.000Z</time>
      </trkpt>
      <trkpt lat="22.796414" lon="110.433485">
        <ele>123.681082</ele>
        <time>2026-08-16T08:55:59.000Z</time>
      </trkpt>
      <trkpt lat="22.796401" lon="110.433531">
        <ele>123.551462</ele>
        <time>2026-08-16T08:56:00.000Z</time>
      </trkpt>
      <trkpt lat="22.796389" lon="110.433575">
        <ele>123.427844</ele>
        <time>2026-08-16T08:56:01.000Z</time>
      </trkpt>
      <trkpt lat="22.796378" lon="110.433620">
        <ele>123.302421</ele>
        <time>2026-08-16T08:56:02.000Z</time>
      </trkpt>
      <trkpt lat="22.796365" lon="110.433667">
        <ele>123.170223</ele>
        <time>2026-08-16T08:56:03.000Z</time>
      </trkpt>
      <trkpt lat="22.796351" lon="110.433713">
        <ele>123.039717</ele>
        <time>2026-08-16T08:56:04.000Z</time>
      </trkpt>
      <trkpt lat="22.796332" lon="110.433760">
        <ele>122.901456</ele>
        <time>2026-08-16T08:56:05.000Z</time>
      </trkpt>
      <trkpt lat="22.796316" lon="110.433811">
        <ele>122.756320</ele>
        <time>2026-08-16T08:56:06.000Z</time>
      </trkpt>
      <trkpt lat="22.796302" lon="110.433863">
        <ele>122.610376</ele>
        <time>2026-08-16T08:56:07.000Z</time>
      </trkpt>
      <trkpt lat="22.796285" lon="110.433920">
        <ele>122.448977</ele>
        <time>2026-08-16T08:56:08.000Z</time>
      </trkpt>
      <trkpt lat="22.796264" lon="110.433981">
        <ele>122.273553</ele>
        <time>2026-08-16T08:56:09.000Z</time>
      </trkpt>
      <trkpt lat="22.796243" lon="110.434048">
        <ele>122.082903</ele>
        <time>2026-08-16T08:56:10.000Z</time>
      </trkpt>
      <trkpt lat="22.796219" lon="110.434115">
        <ele>121.889252</ele>
        <time>2026-08-16T08:56:11.000Z</time>
      </trkpt>
      <trkpt lat="22.796195" lon="110.434182">
        <ele>121.695601</ele>
        <time>2026-08-16T08:56:12.000Z</time>
      </trkpt>
      <trkpt lat="22.796171" lon="110.434253">
        <ele>121.491868</ele>
        <time>2026-08-16T08:56:13.000Z</time>
      </trkpt>
      <trkpt lat="22.796147" lon="110.434327">
        <ele>121.280529</ele>
        <time>2026-08-16T08:56:14.000Z</time>
      </trkpt>
      <trkpt lat="22.796131" lon="110.434396">
        <ele>121.088847</ele>
        <time>2026-08-16T08:56:15.000Z</time>
      </trkpt>
      <trkpt lat="22.796108" lon="110.434470">
        <ele>120.878459</ele>
        <time>2026-08-16T08:56:16.000Z</time>
      </trkpt>
      <trkpt lat="22.796081" lon="110.434548">
        <ele>120.653995</ele>
        <time>2026-08-16T08:56:17.000Z</time>
      </trkpt>
      <trkpt lat="22.796060" lon="110.434621">
        <ele>120.447975</ele>
        <time>2026-08-16T08:56:18.000Z</time>
      </trkpt>
      <trkpt lat="22.796042" lon="110.434690">
        <ele>120.254784</ele>
        <time>2026-08-16T08:56:19.000Z</time>
      </trkpt>
      <trkpt lat="22.796031" lon="110.434752">
        <ele>120.084685</ele>
        <time>2026-08-16T08:56:20.000Z</time>
      </trkpt>
      <trkpt lat="22.796011" lon="110.434818">
        <ele>119.897516</ele>
        <time>2026-08-16T08:56:21.000Z</time>
      </trkpt>
      <trkpt lat="22.795990" lon="110.434886">
        <ele>119.704312</ele>
        <time>2026-08-16T08:56:22.000Z</time>
      </trkpt>
      <trkpt lat="22.795984" lon="110.434971">
        <ele>119.474645</ele>
        <time>2026-08-16T08:56:23.000Z</time>
      </trkpt>
      <trkpt lat="22.795987" lon="110.435050">
        <ele>119.261632</ele>
        <time>2026-08-16T08:56:24.000Z</time>
      </trkpt>
      <trkpt lat="22.795991" lon="110.435130">
        <ele>119.120391</ele>
        <time>2026-08-16T08:56:25.000Z</time>
      </trkpt>
      <trkpt lat="22.795995" lon="110.435210">
        <ele>119.111657</ele>
        <time>2026-08-16T08:56:26.000Z</time>
      </trkpt>
      <trkpt lat="22.796001" lon="110.435289">
        <ele>119.103015</ele>
        <time>2026-08-16T08:56:27.000Z</time>
      </trkpt>
      <trkpt lat="22.796006" lon="110.435368">
        <ele>119.094382</ele>
        <time>2026-08-16T08:56:28.000Z</time>
      </trkpt>
      <trkpt lat="22.796010" lon="110.435443">
        <ele>119.086191</ele>
        <time>2026-08-16T08:56:29.000Z</time>
      </trkpt>
      <trkpt lat="22.796012" lon="110.435519">
        <ele>119.077902</ele>
        <time>2026-08-16T08:56:30.000Z</time>
      </trkpt>
      <trkpt lat="22.796015" lon="110.435593">
        <ele>119.069826</ele>
        <time>2026-08-16T08:56:31.000Z</time>
      </trkpt>
      <trkpt lat="22.796018" lon="110.435664">
        <ele>119.062077</ele>
        <time>2026-08-16T08:56:32.000Z</time>
      </trkpt>
      <trkpt lat="22.796022" lon="110.435734">
        <ele>119.054431</ele>
        <time>2026-08-16T08:56:33.000Z</time>
      </trkpt>
      <trkpt lat="22.796025" lon="110.435804">
        <ele>119.046791</ele>
        <time>2026-08-16T08:56:34.000Z</time>
      </trkpt>
      <trkpt lat="22.796027" lon="110.435875">
        <ele>119.039047</ele>
        <time>2026-08-16T08:56:35.000Z</time>
      </trkpt>
      <trkpt lat="22.796032" lon="110.435940">
        <ele>119.031936</ele>
        <time>2026-08-16T08:56:36.000Z</time>
      </trkpt>
      <trkpt lat="22.796034" lon="110.436003">
        <ele>119.025063</ele>
        <time>2026-08-16T08:56:37.000Z</time>
      </trkpt>
      <trkpt lat="22.796036" lon="110.436066">
        <ele>119.018191</ele>
        <time>2026-08-16T08:56:38.000Z</time>
      </trkpt>
      <trkpt lat="22.796041" lon="110.436131">
        <ele>119.011079</ele>
        <time>2026-08-16T08:56:39.000Z</time>
      </trkpt>
      <trkpt lat="22.796044" lon="110.436198">
        <ele>119.003766</ele>
        <time>2026-08-16T08:56:40.000Z</time>
      </trkpt>
      <trkpt lat="22.796047" lon="110.436262">
        <ele>118.996780</ele>
        <time>2026-08-16T08:56:41.000Z</time>
      </trkpt>
      <trkpt lat="22.796048" lon="110.436326">
        <ele>118.989801</ele>
        <time>2026-08-16T08:56:42.000Z</time>
      </trkpt>
      <trkpt lat="22.796048" lon="110.436388">
        <ele>118.983042</ele>
        <time>2026-08-16T08:56:43.000Z</time>
      </trkpt>
      <trkpt lat="22.796050" lon="110.436448">
        <ele>118.976496</ele>
        <time>2026-08-16T08:56:44.000Z</time>
      </trkpt>
      <trkpt lat="22.796054" lon="110.436506">
        <ele>118.970155</ele>
        <time>2026-08-16T08:56:45.000Z</time>
      </trkpt>
      <trkpt lat="22.796058" lon="110.436565">
        <ele>118.963705</ele>
        <time>2026-08-16T08:56:46.000Z</time>
      </trkpt>
      <trkpt lat="22.796061" lon="110.436624">
        <ele>118.957263</ele>
        <time>2026-08-16T08:56:47.000Z</time>
      </trkpt>
      <trkpt lat="22.796063" lon="110.436680">
        <ele>118.951153</ele>
        <time>2026-08-16T08:56:48.000Z</time>
      </trkpt>
      <trkpt lat="22.796065" lon="110.436735">
        <ele>118.945152</ele>
        <time>2026-08-16T08:56:49.000Z</time>
      </trkpt>
      <trkpt lat="22.796065" lon="110.436788">
        <ele>118.939374</ele>
        <time>2026-08-16T08:56:50.000Z</time>
      </trkpt>
      <trkpt lat="22.796066" lon="110.436841">
        <ele>118.933594</ele>
        <time>2026-08-16T08:56:51.000Z</time>
      </trkpt>
      <trkpt lat="22.796067" lon="110.436893">
        <ele>118.927924</ele>
        <time>2026-08-16T08:56:52.000Z</time>
      </trkpt>
      <trkpt lat="22.796068" lon="110.436946">
        <ele>118.922144</ele>
        <time>2026-08-16T08:56:53.000Z</time>
      </trkpt>
      <trkpt lat="22.796070" lon="110.436998">
        <ele>118.916470</ele>
        <time>2026-08-16T08:56:54.000Z</time>
      </trkpt>
      <trkpt lat="22.796070" lon="110.437050">
        <ele>118.911103</ele>
        <time>2026-08-16T08:56:55.000Z</time>
      </trkpt>
      <trkpt lat="22.796069" lon="110.437102">
        <ele>118.968659</ele>
        <time>2026-08-16T08:56:56.000Z</time>
      </trkpt>
      <trkpt lat="22.796069" lon="110.437153">
        <ele>119.025096</ele>
        <time>2026-08-16T08:56:57.000Z</time>
      </trkpt>
      <trkpt lat="22.796070" lon="110.437207">
        <ele>119.084865</ele>
        <time>2026-08-16T08:56:58.000Z</time>
      </trkpt>
      <trkpt lat="22.796071" lon="110.437260">
        <ele>119.143527</ele>
        <time>2026-08-16T08:56:59.000Z</time>
      </trkpt>
      <trkpt lat="22.796073" lon="110.437312">
        <ele>119.201121</ele>
        <time>2026-08-16T08:57:00.000Z</time>
      </trkpt>
      <trkpt lat="22.796073" lon="110.437361">
        <ele>119.255344</ele>
        <time>2026-08-16T08:57:01.000Z</time>
      </trkpt>
      <trkpt lat="22.796071" lon="110.437409">
        <ele>119.308516</ele>
        <time>2026-08-16T08:57:02.000Z</time>
      </trkpt>
      <trkpt lat="22.796070" lon="110.437456">
        <ele>119.360540</ele>
        <time>2026-08-16T08:57:03.000Z</time>
      </trkpt>
      <trkpt lat="22.796070" lon="110.437501">
        <ele>119.410337</ele>
        <time>2026-08-16T08:57:04.000Z</time>
      </trkpt>
      <trkpt lat="22.796070" lon="110.437548">
        <ele>119.462348</ele>
        <time>2026-08-16T08:57:05.000Z</time>
      </trkpt>
      <trkpt lat="22.796070" lon="110.437595">
        <ele>119.514358</ele>
        <time>2026-08-16T08:57:06.000Z</time>
      </trkpt>
      <trkpt lat="22.796070" lon="110.437644">
        <ele>119.568582</ele>
        <time>2026-08-16T08:57:07.000Z</time>
      </trkpt>
      <trkpt lat="22.796071" lon="110.437692">
        <ele>119.621713</ele>
        <time>2026-08-16T08:57:08.000Z</time>
      </trkpt>
      <trkpt lat="22.796070" lon="110.437741">
        <ele>119.675950</ele>
        <time>2026-08-16T08:57:09.000Z</time>
      </trkpt>
      <trkpt lat="22.796070" lon="110.437789">
        <ele>119.729067</ele>
        <time>2026-08-16T08:57:10.000Z</time>
      </trkpt>
      <trkpt lat="22.796070" lon="110.437835">
        <ele>119.779971</ele>
        <time>2026-08-16T08:57:11.000Z</time>
      </trkpt>
      <trkpt lat="22.796070" lon="110.437884">
        <ele>119.834194</ele>
        <time>2026-08-16T08:57:12.000Z</time>
      </trkpt>
      <trkpt lat="22.796070" lon="110.437931">
        <ele>119.886205</ele>
        <time>2026-08-16T08:57:13.000Z</time>
      </trkpt>
      <trkpt lat="22.796069" lon="110.437978">
        <ele>119.938229</ele>
        <time>2026-08-16T08:57:14.000Z</time>
      </trkpt>
      <trkpt lat="22.796066" lon="110.438027">
        <ele>119.992572</ele>
        <time>2026-08-16T08:57:15.000Z</time>
      </trkpt>
      <trkpt lat="22.796063" lon="110.438076">
        <ele>120.046916</ele>
        <time>2026-08-16T08:57:16.000Z</time>
      </trkpt>
      <trkpt lat="22.796061" lon="110.438127">
        <ele>120.103404</ele>
        <time>2026-08-16T08:57:17.000Z</time>
      </trkpt>
      <trkpt lat="22.796059" lon="110.438179">
        <ele>120.160997</ele>
        <time>2026-08-16T08:57:18.000Z</time>
      </trkpt>
      <trkpt lat="22.796056" lon="110.438234">
        <ele>120.221967</ele>
        <time>2026-08-16T08:57:19.000Z</time>
      </trkpt>
      <trkpt lat="22.796054" lon="110.438287">
        <ele>120.280666</ele>
        <time>2026-08-16T08:57:20.000Z</time>
      </trkpt>
      <trkpt lat="22.796054" lon="110.438337">
        <ele>120.335997</ele>
        <time>2026-08-16T08:57:21.000Z</time>
      </trkpt>
      <trkpt lat="22.796053" lon="110.438386">
        <ele>120.390234</ele>
        <time>2026-08-16T08:57:22.000Z</time>
      </trkpt>
      <trkpt lat="22.796051" lon="110.438434">
        <ele>120.443405</ele>
        <time>2026-08-16T08:57:23.000Z</time>
      </trkpt>
      <trkpt lat="22.796048" lon="110.438481">
        <ele>120.495540</ele>
        <time>2026-08-16T08:57:24.000Z</time>
      </trkpt>
      <trkpt lat="22.796046" lon="110.438527">
        <ele>120.546500</ele>
        <time>2026-08-16T08:57:25.000Z</time>
      </trkpt>
      <trkpt lat="22.796045" lon="110.438573">
        <ele>120.597418</ele>
        <time>2026-08-16T08:57:26.000Z</time>
      </trkpt>
      <trkpt lat="22.796044" lon="110.438621">
        <ele>120.650549</ele>
        <time>2026-08-16T08:57:27.000Z</time>
      </trkpt>
      <trkpt lat="22.796044" lon="110.438668">
        <ele>120.702560</ele>
        <time>2026-08-16T08:57:28.000Z</time>
      </trkpt>
      <trkpt lat="22.796043" lon="110.438716">
        <ele>120.755690</ele>
        <time>2026-08-16T08:57:29.000Z</time>
      </trkpt>
      <trkpt lat="22.796044" lon="110.438765">
        <ele>120.809927</ele>
        <time>2026-08-16T08:57:30.000Z</time>
      </trkpt>
      <trkpt lat="22.796045" lon="110.438812">
        <ele>120.861952</ele>
        <time>2026-08-16T08:57:31.000Z</time>
      </trkpt>
      <trkpt lat="22.796046" lon="110.438859">
        <ele>120.913976</ele>
        <time>2026-08-16T08:57:32.000Z</time>
      </trkpt>
      <trkpt lat="22.796044" lon="110.438905">
        <ele>120.964937</ele>
        <time>2026-08-16T08:57:33.000Z</time>
      </trkpt>
      <trkpt lat="22.796043" lon="110.438951">
        <ele>121.015855</ele>
        <time>2026-08-16T08:57:34.000Z</time>
      </trkpt>
      <trkpt lat="22.796043" lon="110.438997">
        <ele>121.066759</ele>
        <time>2026-08-16T08:57:35.000Z</time>
      </trkpt>
      <trkpt lat="22.796043" lon="110.439043">
        <ele>121.152889</ele>
        <time>2026-08-16T08:57:36.000Z</time>
      </trkpt>
      <trkpt lat="22.796045" lon="110.439090">
        <ele>121.243325</ele>
        <time>2026-08-16T08:57:37.000Z</time>
      </trkpt>
      <trkpt lat="22.796046" lon="110.439136">
        <ele>121.331767</ele>
        <time>2026-08-16T08:57:38.000Z</time>
      </trkpt>
      <trkpt lat="22.796048" lon="110.439181">
        <ele>121.418362</ele>
        <time>2026-08-16T08:57:39.000Z</time>
      </trkpt>
      <trkpt lat="22.796053" lon="110.439222">
        <ele>121.497855</ele>
        <time>2026-08-16T08:57:40.000Z</time>
      </trkpt>
      <trkpt lat="22.796059" lon="110.439262">
        <ele>121.575751</ele>
        <time>2026-08-16T08:57:41.000Z</time>
      </trkpt>
      <trkpt lat="22.796065" lon="110.439301">
        <ele>121.651750</ele>
        <time>2026-08-16T08:57:42.000Z</time>
      </trkpt>
      <trkpt lat="22.796071" lon="110.439340">
        <ele>121.727749</ele>
        <time>2026-08-16T08:57:43.000Z</time>
      </trkpt>
      <trkpt lat="22.796077" lon="110.439377">
        <ele>121.799958</ele>
        <time>2026-08-16T08:57:44.000Z</time>
      </trkpt>
      <trkpt lat="22.796083" lon="110.439413">
        <ele>121.870276</ele>
        <time>2026-08-16T08:57:45.000Z</time>
      </trkpt>
      <trkpt lat="22.796088" lon="110.439447">
        <ele>121.936454</ele>
        <time>2026-08-16T08:57:46.000Z</time>
      </trkpt>
      <trkpt lat="22.796092" lon="110.439481">
        <ele>122.002336</ele>
        <time>2026-08-16T08:57:47.000Z</time>
      </trkpt>
      <trkpt lat="22.796096" lon="110.439513">
        <ele>122.064406</ele>
        <time>2026-08-16T08:57:48.000Z</time>
      </trkpt>
      <trkpt lat="22.796099" lon="110.439545">
        <ele>122.126231</ele>
        <time>2026-08-16T08:57:49.000Z</time>
      </trkpt>
      <trkpt lat="22.796102" lon="110.439575">
        <ele>122.184233</ele>
        <time>2026-08-16T08:57:50.000Z</time>
      </trkpt>
      <trkpt lat="22.796101" lon="110.439604">
        <ele>122.240013</ele>
        <time>2026-08-16T08:57:51.000Z</time>
      </trkpt>
      <trkpt lat="22.796102" lon="110.439634">
        <ele>122.297714</ele>
        <time>2026-08-16T08:57:52.000Z</time>
      </trkpt>
      <trkpt lat="22.796106" lon="110.439668">
        <ele>122.363596</ele>
        <time>2026-08-16T08:57:53.000Z</time>
      </trkpt>
      <trkpt lat="22.796111" lon="110.439703">
        <ele>122.431672</ele>
        <time>2026-08-16T08:57:54.000Z</time>
      </trkpt>
      <trkpt lat="22.796116" lon="110.439738">
        <ele>122.499749</ele>
        <time>2026-08-16T08:57:55.000Z</time>
      </trkpt>
      <trkpt lat="22.796122" lon="110.439774">
        <ele>122.570067</ele>
        <time>2026-08-16T08:57:56.000Z</time>
      </trkpt>
      <trkpt lat="22.796127" lon="110.439809">
        <ele>122.638144</ele>
        <time>2026-08-16T08:57:57.000Z</time>
      </trkpt>
      <trkpt lat="22.796128" lon="110.439845">
        <ele>122.707371</ele>
        <time>2026-08-16T08:57:58.000Z</time>
      </trkpt>
      <trkpt lat="22.796132" lon="110.439884">
        <ele>122.782796</ele>
        <time>2026-08-16T08:57:59.000Z</time>
      </trkpt>
      <trkpt lat="22.796137" lon="110.439922">
        <ele>122.856576</ele>
        <time>2026-08-16T08:58:00.000Z</time>
      </trkpt>
      <trkpt lat="22.796140" lon="110.439960">
        <ele>122.929884</ele>
        <time>2026-08-16T08:58:01.000Z</time>
      </trkpt>
      <trkpt lat="22.796141" lon="110.439995">
        <ele>122.997190</ele>
        <time>2026-08-16T08:58:02.000Z</time>
      </trkpt>
      <trkpt lat="22.796144" lon="110.440033">
        <ele>123.070497</ele>
        <time>2026-08-16T08:58:03.000Z</time>
      </trkpt>
      <trkpt lat="22.796148" lon="110.440072">
        <ele>123.145922</ele>
        <time>2026-08-16T08:58:04.000Z</time>
      </trkpt>
      <trkpt lat="22.796155" lon="110.440109">
        <ele>123.218522</ele>
        <time>2026-08-16T08:58:05.000Z</time>
      </trkpt>
      <trkpt lat="22.796162" lon="110.440144">
        <ele>123.287361</ele>
        <time>2026-08-16T08:58:06.000Z</time>
      </trkpt>
      <trkpt lat="22.796171" lon="110.440182">
        <ele>123.362773</ele>
        <time>2026-08-16T08:58:07.000Z</time>
      </trkpt>
      <trkpt lat="22.796178" lon="110.440219">
        <ele>123.435373</ele>
        <time>2026-08-16T08:58:08.000Z</time>
      </trkpt>
      <trkpt lat="22.796185" lon="110.440256">
        <ele>123.507973</ele>
        <time>2026-08-16T08:58:09.000Z</time>
      </trkpt>
      <trkpt lat="22.796191" lon="110.440296">
        <ele>123.585869</ele>
        <time>2026-08-16T08:58:10.000Z</time>
      </trkpt>
      <trkpt lat="22.796196" lon="110.440334">
        <ele>123.659649</ele>
        <time>2026-08-16T08:58:11.000Z</time>
      </trkpt>
      <trkpt lat="22.796200" lon="110.440371">
        <ele>123.731254</ele>
        <time>2026-08-16T08:58:12.000Z</time>
      </trkpt>
      <trkpt lat="22.796205" lon="110.440409">
        <ele>123.805035</ele>
        <time>2026-08-16T08:58:13.000Z</time>
      </trkpt>
      <trkpt lat="22.796210" lon="110.440446">
        <ele>123.876913</ele>
        <time>2026-08-16T08:58:14.000Z</time>
      </trkpt>
      <trkpt lat="22.796215" lon="110.440484">
        <ele>123.950693</ele>
        <time>2026-08-16T08:58:15.000Z</time>
      </trkpt>
      <trkpt lat="22.796219" lon="110.440522">
        <ele>124.024208</ele>
        <time>2026-08-16T08:58:16.000Z</time>
      </trkpt>
      <trkpt lat="22.796223" lon="110.440562">
        <ele>124.101543</ele>
        <time>2026-08-16T08:58:17.000Z</time>
      </trkpt>
      <trkpt lat="22.796227" lon="110.440604">
        <ele>124.182701</ele>
        <time>2026-08-16T08:58:18.000Z</time>
      </trkpt>
      <trkpt lat="22.796231" lon="110.440645">
        <ele>124.261948</ele>
        <time>2026-08-16T08:58:19.000Z</time>
      </trkpt>
      <trkpt lat="22.796235" lon="110.440687">
        <ele>124.343106</ele>
        <time>2026-08-16T08:58:20.000Z</time>
      </trkpt>
      <trkpt lat="22.796238" lon="110.440730">
        <ele>124.425993</ele>
        <time>2026-08-16T08:58:21.000Z</time>
      </trkpt>
      <trkpt lat="22.796240" lon="110.440772">
        <ele>124.506829</ele>
        <time>2026-08-16T08:58:22.000Z</time>
      </trkpt>
      <trkpt lat="22.796242" lon="110.440811">
        <ele>124.581907</ele>
        <time>2026-08-16T08:58:23.000Z</time>
      </trkpt>
      <trkpt lat="22.796239" lon="110.440850">
        <ele>124.657130</ele>
        <time>2026-08-16T08:58:24.000Z</time>
      </trkpt>
      <trkpt lat="22.796236" lon="110.440891">
        <ele>124.736184</ele>
        <time>2026-08-16T08:58:25.000Z</time>
      </trkpt>
      <trkpt lat="22.796236" lon="110.440933">
        <ele>124.816913</ele>
        <time>2026-08-16T08:58:26.000Z</time>
      </trkpt>
      <trkpt lat="22.796236" lon="110.440976">
        <ele>124.726572</ele>
        <time>2026-08-16T08:58:27.000Z</time>
      </trkpt>
      <trkpt lat="22.796234" lon="110.441021">
        <ele>124.624947</ele>
        <time>2026-08-16T08:58:28.000Z</time>
      </trkpt>
      <trkpt lat="22.796232" lon="110.441068">
        <ele>124.518815</ele>
        <time>2026-08-16T08:58:29.000Z</time>
      </trkpt>
      <trkpt lat="22.796226" lon="110.441112">
        <ele>124.418484</ele>
        <time>2026-08-16T08:58:30.000Z</time>
      </trkpt>
      <trkpt lat="22.796225" lon="110.441157">
        <ele>124.316947</ele>
        <time>2026-08-16T08:58:31.000Z</time>
      </trkpt>
      <trkpt lat="22.796223" lon="110.441202">
        <ele>124.215322</ele>
        <time>2026-08-16T08:58:32.000Z</time>
      </trkpt>
      <trkpt lat="22.796218" lon="110.441252">
        <ele>124.101875</ele>
        <time>2026-08-16T08:58:33.000Z</time>
      </trkpt>
      <trkpt lat="22.796210" lon="110.441305">
        <ele>123.980730</ele>
        <time>2026-08-16T08:58:34.000Z</time>
      </trkpt>
      <trkpt lat="22.796200" lon="110.441357">
        <ele>123.860908</ele>
        <time>2026-08-16T08:58:35.000Z</time>
      </trkpt>
      <trkpt lat="22.796187" lon="110.441414">
        <ele>123.728456</ele>
        <time>2026-08-16T08:58:36.000Z</time>
      </trkpt>
      <trkpt lat="22.796170" lon="110.441473">
        <ele>123.589019</ele>
        <time>2026-08-16T08:58:37.000Z</time>
      </trkpt>
      <trkpt lat="22.796151" lon="110.441539">
        <ele>123.433052</ele>
        <time>2026-08-16T08:58:38.000Z</time>
      </trkpt>
      <trkpt lat="22.796128" lon="110.441606">
        <ele>123.271781</ele>
        <time>2026-08-16T08:58:39.000Z</time>
      </trkpt>
      <trkpt lat="22.796104" lon="110.441668">
        <ele>123.120098</ele>
        <time>2026-08-16T08:58:40.000Z</time>
      </trkpt>
      <trkpt lat="22.796083" lon="110.441732">
        <ele>122.966860</ele>
        <time>2026-08-16T08:58:41.000Z</time>
      </trkpt>
      <trkpt lat="22.796063" lon="110.441799">
        <ele>122.808002</ele>
        <time>2026-08-16T08:58:42.000Z</time>
      </trkpt>
      <trkpt lat="22.796044" lon="110.441866">
        <ele>122.649880</ele>
        <time>2026-08-16T08:58:43.000Z</time>
      </trkpt>
      <trkpt lat="22.796027" lon="110.441932">
        <ele>122.495301</ele>
        <time>2026-08-16T08:58:44.000Z</time>
      </trkpt>
      <trkpt lat="22.796007" lon="110.441996">
        <ele>122.342866</ele>
        <time>2026-08-16T08:58:45.000Z</time>
      </trkpt>
      <trkpt lat="22.795985" lon="110.442058">
        <ele>122.193009</ele>
        <time>2026-08-16T08:58:46.000Z</time>
      </trkpt>
      <trkpt lat="22.795965" lon="110.442114">
        <ele>122.057541</ele>
        <time>2026-08-16T08:58:47.000Z</time>
      </trkpt>
      <trkpt lat="22.795945" lon="110.442164">
        <ele>121.934596</ele>
        <time>2026-08-16T08:58:48.000Z</time>
      </trkpt>
      <trkpt lat="22.795926" lon="110.442207">
        <ele>121.827034</ele>
        <time>2026-08-16T08:58:49.000Z</time>
      </trkpt>
      <trkpt lat="22.795901" lon="110.442240">
        <ele>121.730686</ele>
        <time>2026-08-16T08:58:50.000Z</time>
      </trkpt>
      <trkpt lat="22.795868" lon="110.442273">
        <ele>121.620863</ele>
        <time>2026-08-16T08:58:51.000Z</time>
      </trkpt>
      <trkpt lat="22.795833" lon="110.442298">
        <ele>121.518324</ele>
        <time>2026-08-16T08:58:52.000Z</time>
      </trkpt>
      <trkpt lat="22.795789" lon="110.442320">
        <ele>121.399776</ele>
        <time>2026-08-16T08:58:53.000Z</time>
      </trkpt>
      <trkpt lat="22.795745" lon="110.442331">
        <ele>121.289293</ele>
        <time>2026-08-16T08:58:54.000Z</time>
      </trkpt>
      <trkpt lat="22.795695" lon="110.442332">
        <ele>121.166930</ele>
        <time>2026-08-16T08:58:55.000Z</time>
      </trkpt>
      <trkpt lat="22.795641" lon="110.442329">
        <ele>121.034627</ele>
        <time>2026-08-16T08:58:56.000Z</time>
      </trkpt>
      <trkpt lat="22.795583" lon="110.442324">
        <ele>120.892263</ele>
        <time>2026-08-16T08:58:57.000Z</time>
      </trkpt>
      <trkpt lat="22.795520" lon="110.442323">
        <ele>120.738096</ele>
        <time>2026-08-16T08:58:58.000Z</time>
      </trkpt>
      <trkpt lat="22.795459" lon="110.442320">
        <ele>120.588685</ele>
        <time>2026-08-16T08:58:59.000Z</time>
      </trkpt>
      <trkpt lat="22.795399" lon="110.442318">
        <ele>120.441805</ele>
        <time>2026-08-16T08:59:00.000Z</time>
      </trkpt>
      <trkpt lat="22.795346" lon="110.442316">
        <ele>120.356281</ele>
        <time>2026-08-16T08:59:01.000Z</time>
      </trkpt>
      <trkpt lat="22.795301" lon="110.442315">
        <ele>120.291709</ele>
        <time>2026-08-16T08:59:02.000Z</time>
      </trkpt>
      <trkpt lat="22.795265" lon="110.442316">
        <ele>120.240045</ele>
        <time>2026-08-16T08:59:03.000Z</time>
      </trkpt>
      <trkpt lat="22.795239" lon="110.442321">
        <ele>120.202163</ele>
        <time>2026-08-16T08:59:04.000Z</time>
      </trkpt>
      <trkpt lat="22.795220" lon="110.442322">
        <ele>120.174873</ele>
        <time>2026-08-16T08:59:05.000Z</time>
      </trkpt>
      <trkpt lat="22.795203" lon="110.442327">
        <ele>120.149604</ele>
        <time>2026-08-16T08:59:06.000Z</time>
      </trkpt>
      <trkpt lat="22.795186" lon="110.442338">
        <ele>120.121205</ele>
        <time>2026-08-16T08:59:07.000Z</time>
      </trkpt>
      <trkpt lat="22.795172" lon="110.442344">
        <ele>120.099609</ele>
        <time>2026-08-16T08:59:08.000Z</time>
      </trkpt>
      <trkpt lat="22.795161" lon="110.442340">
        <ele>120.082965</ele>
        <time>2026-08-16T08:59:09.000Z</time>
      </trkpt>
      <trkpt lat="22.795149" lon="110.442340">
        <ele>120.065750</ele>
        <time>2026-08-16T08:59:10.000Z</time>
      </trkpt>
      <trkpt lat="22.795124" lon="110.442344">
        <ele>120.029496</ele>
        <time>2026-08-16T08:59:11.000Z</time>
      </trkpt>
      <trkpt lat="22.795102" lon="110.442349">
        <ele>119.997248</ele>
        <time>2026-08-16T08:59:12.000Z</time>
      </trkpt>
      <trkpt lat="22.795075" lon="110.442350">
        <ele>119.958491</ele>
        <time>2026-08-16T08:59:13.000Z</time>
      </trkpt>
      <trkpt lat="22.795048" lon="110.442350">
        <ele>119.919755</ele>
        <time>2026-08-16T08:59:14.000Z</time>
      </trkpt>
      <trkpt lat="22.795026" lon="110.442346">
        <ele>119.887753</ele>
        <time>2026-08-16T08:59:15.000Z</time>
      </trkpt>
      <trkpt lat="22.794999" lon="110.442341">
        <ele>119.848457</ele>
        <time>2026-08-16T08:59:16.000Z</time>
      </trkpt>
      <trkpt lat="22.794970" lon="110.442331">
        <ele>119.804801</ele>
        <time>2026-08-16T08:59:17.000Z</time>
      </trkpt>
      <trkpt lat="22.794942" lon="110.442316">
        <ele>119.760000</ele>
        <time>2026-08-16T08:59:18.000Z</time>
      </trkpt>
      <trkpt lat="22.794912" lon="110.442306">
        <ele>119.714974</ele>
        <time>2026-08-16T08:59:19.000Z</time>
      </trkpt>
      <trkpt lat="22.794874" lon="110.442294">
        <ele>119.658195</ele>
        <time>2026-08-16T08:59:20.000Z</time>
      </trkpt>
      <trkpt lat="22.794846" lon="110.442265">
        <ele>119.602655</ele>
        <time>2026-08-16T08:59:21.000Z</time>
      </trkpt>
      <trkpt lat="22.794814" lon="110.442240">
        <ele>119.546078</ele>
        <time>2026-08-16T08:59:22.000Z</time>
      </trkpt>
      <trkpt lat="22.794781" lon="110.442221">
        <ele>119.492480</ele>
        <time>2026-08-16T08:59:23.000Z</time>
      </trkpt>
      <trkpt lat="22.794734" lon="110.442226">
        <ele>119.424728</ele>
        <time>2026-08-16T08:59:24.000Z</time>
      </trkpt>
      <trkpt lat="22.794694" lon="110.442221">
        <ele>119.366963</ele>
        <time>2026-08-16T08:59:25.000Z</time>
      </trkpt>
      <trkpt lat="22.794653" lon="110.442220">
        <ele>119.308128</ele>
        <time>2026-08-16T08:59:26.000Z</time>
      </trkpt>
      <trkpt lat="22.794610" lon="110.442222">
        <ele>119.246382</ele>
        <time>2026-08-16T08:59:27.000Z</time>
      </trkpt>
      <trkpt lat="22.794563" lon="110.442227">
        <ele>119.178631</ele>
        <time>2026-08-16T08:59:28.000Z</time>
      </trkpt>
      <trkpt lat="22.794519" lon="110.442225">
        <ele>119.115451</ele>
        <time>2026-08-16T08:59:29.000Z</time>
      </trkpt>
      <trkpt lat="22.794476" lon="110.442219">
        <ele>119.053254</ele>
        <time>2026-08-16T08:59:30.000Z</time>
      </trkpt>
      <trkpt lat="22.794440" lon="110.442200">
        <ele>118.995818</ele>
        <time>2026-08-16T08:59:31.000Z</time>
      </trkpt>
      <trkpt lat="22.794407" lon="110.442175">
        <ele>118.938071</ele>
        <time>2026-08-16T08:59:32.000Z</time>
      </trkpt>
      <trkpt lat="22.794374" lon="110.442153">
        <ele>118.882502</ele>
        <time>2026-08-16T08:59:33.000Z</time>
      </trkpt>
      <trkpt lat="22.794332" lon="110.442145">
        <ele>118.821325</ele>
        <time>2026-08-16T08:59:34.000Z</time>
      </trkpt>
      <trkpt lat="22.794280" lon="110.442147">
        <ele>118.746677</ele>
        <time>2026-08-16T08:59:35.000Z</time>
      </trkpt>
      <trkpt lat="22.794230" lon="110.442146">
        <ele>118.674933</ele>
        <time>2026-08-16T08:59:36.000Z</time>
      </trkpt>
      <trkpt lat="22.794182" lon="110.442131">
        <ele>118.603270</ele>
        <time>2026-08-16T08:59:37.000Z</time>
      </trkpt>
      <trkpt lat="22.794135" lon="110.442118">
        <ele>118.533684</ele>
        <time>2026-08-16T08:59:38.000Z</time>
      </trkpt>
      <trkpt lat="22.794088" lon="110.442122">
        <ele>118.466049</ele>
        <time>2026-08-16T08:59:39.000Z</time>
      </trkpt>
      <trkpt lat="22.794036" lon="110.442129">
        <ele>118.390876</ele>
        <time>2026-08-16T08:59:40.000Z</time>
      </trkpt>
      <trkpt lat="22.793980" lon="110.442142">
        <ele>118.308717</ele>
        <time>2026-08-16T08:59:41.000Z</time>
      </trkpt>
      <trkpt lat="22.793928" lon="110.442160">
        <ele>118.230409</ele>
        <time>2026-08-16T08:59:42.000Z</time>
      </trkpt>
      <trkpt lat="22.793877" lon="110.442185">
        <ele>118.150118</ele>
        <time>2026-08-16T08:59:43.000Z</time>
      </trkpt>
      <trkpt lat="22.793835" lon="110.442217">
        <ele>118.076485</ele>
        <time>2026-08-16T08:59:44.000Z</time>
      </trkpt>
      <trkpt lat="22.793799" lon="110.442255">
        <ele>118.004420</ele>
        <time>2026-08-16T08:59:45.000Z</time>
      </trkpt>
      <trkpt lat="22.793767" lon="110.442298">
        <ele>117.931331</ele>
        <time>2026-08-16T08:59:46.000Z</time>
      </trkpt>
      <trkpt lat="22.793739" lon="110.442341">
        <ele>117.861703</ele>
        <time>2026-08-16T08:59:47.000Z</time>
      </trkpt>
      <trkpt lat="22.793709" lon="110.442385">
        <ele>117.857823</ele>
        <time>2026-08-16T08:59:48.000Z</time>
      </trkpt>
      <trkpt lat="22.793683" lon="110.442428">
        <ele>117.884391</ele>
        <time>2026-08-16T08:59:49.000Z</time>
      </trkpt>
      <trkpt lat="22.793654" lon="110.442473">
        <ele>117.912757</ele>
        <time>2026-08-16T08:59:50.000Z</time>
      </trkpt>
      <trkpt lat="22.793624" lon="110.442512">
        <ele>117.938998</ele>
        <time>2026-08-16T08:59:51.000Z</time>
      </trkpt>
      <trkpt lat="22.793593" lon="110.442551">
        <ele>117.965603</ele>
        <time>2026-08-16T08:59:52.000Z</time>
      </trkpt>
      <trkpt lat="22.793567" lon="110.442585">
        <ele>117.988425</ele>
        <time>2026-08-16T08:59:53.000Z</time>
      </trkpt>
      <trkpt lat="22.793545" lon="110.442622">
        <ele>118.011171</ele>
        <time>2026-08-16T08:59:54.000Z</time>
      </trkpt>
      <trkpt lat="22.793524" lon="110.442657">
        <ele>118.032746</ele>
        <time>2026-08-16T08:59:55.000Z</time>
      </trkpt>
      <trkpt lat="22.793502" lon="110.442690">
        <ele>118.053786</ele>
        <time>2026-08-16T08:59:56.000Z</time>
      </trkpt>
      <trkpt lat="22.793481" lon="110.442725">
        <ele>118.075361</ele>
        <time>2026-08-16T08:59:57.000Z</time>
      </trkpt>
      <trkpt lat="22.793466" lon="110.442755">
        <ele>118.092993</ele>
        <time>2026-08-16T08:59:58.000Z</time>
      </trkpt>
      <trkpt lat="22.793454" lon="110.442789">
        <ele>118.111802</ele>
        <time>2026-08-16T08:59:59.000Z</time>
      </trkpt>
      <trkpt lat="22.793450" lon="110.442822">
        <ele>118.128998</ele>
        <time>2026-08-16T09:00:00.000Z</time>
      </trkpt>
      <trkpt lat="22.793458" lon="110.442852">
        <ele>118.145132</ele>
        <time>2026-08-16T09:00:01.000Z</time>
      </trkpt>
      <trkpt lat="22.793471" lon="110.442881">
        <ele>118.161792</ele>
        <time>2026-08-16T09:00:02.000Z</time>
      </trkpt>
      <trkpt lat="22.793492" lon="110.442906">
        <ele>118.179266</ele>
        <time>2026-08-16T09:00:03.000Z</time>
      </trkpt>
      <trkpt lat="22.793515" lon="110.442928">
        <ele>118.196451</ele>
        <time>2026-08-16T09:00:04.000Z</time>
      </trkpt>
      <trkpt lat="22.793539" lon="110.442950">
        <ele>118.214060</ele>
        <time>2026-08-16T09:00:05.000Z</time>
      </trkpt>
      <trkpt lat="22.793567" lon="110.442973">
        <ele>118.233743</ele>
        <time>2026-08-16T09:00:06.000Z</time>
      </trkpt>
      <trkpt lat="22.793593" lon="110.442994">
        <ele>118.251909</ele>
        <time>2026-08-16T09:00:07.000Z</time>
      </trkpt>
      <trkpt lat="22.793619" lon="110.443018">
        <ele>118.271041</ele>
        <time>2026-08-16T09:00:08.000Z</time>
      </trkpt>
      <trkpt lat="22.793647" lon="110.443041">
        <ele>118.290724</ele>
        <time>2026-08-16T09:00:09.000Z</time>
      </trkpt>
      <trkpt lat="22.793674" lon="110.443065">
        <ele>118.310286</ele>
        <time>2026-08-16T09:00:10.000Z</time>
      </trkpt>
      <trkpt lat="22.793706" lon="110.443088">
        <ele>118.331799</ele>
        <time>2026-08-16T09:00:11.000Z</time>
      </trkpt>
      <trkpt lat="22.793731" lon="110.443112">
        <ele>118.350508</ele>
        <time>2026-08-16T09:00:12.000Z</time>
      </trkpt>
      <trkpt lat="22.793758" lon="110.443133">
        <ele>118.369127</ele>
        <time>2026-08-16T09:00:13.000Z</time>
      </trkpt>
      <trkpt lat="22.793786" lon="110.443150">
        <ele>118.387109</ele>
        <time>2026-08-16T09:00:14.000Z</time>
      </trkpt>
      <trkpt lat="22.793813" lon="110.443169">
        <ele>118.405145</ele>
        <time>2026-08-16T09:00:15.000Z</time>
      </trkpt>
      <trkpt lat="22.793841" lon="110.443190">
        <ele>118.424222</ele>
        <time>2026-08-16T09:00:16.000Z</time>
      </trkpt>
      <trkpt lat="22.793870" lon="110.443208">
        <ele>118.442946</ele>
        <time>2026-08-16T09:00:17.000Z</time>
      </trkpt>
      <trkpt lat="22.793899" lon="110.443226">
        <ele>118.461670</ele>
        <time>2026-08-16T09:00:18.000Z</time>
      </trkpt>
      <trkpt lat="22.793923" lon="110.443250">
        <ele>118.479963</ele>
        <time>2026-08-16T09:00:19.000Z</time>
      </trkpt>
      <trkpt lat="22.793946" lon="110.443276">
        <ele>118.498580</ele>
        <time>2026-08-16T09:00:20.000Z</time>
      </trkpt>
      <trkpt lat="22.793973" lon="110.443298">
        <ele>118.517504</ele>
        <time>2026-08-16T09:00:21.000Z</time>
      </trkpt>
      <trkpt lat="22.794001" lon="110.443318">
        <ele>118.536292</ele>
        <time>2026-08-16T09:00:22.000Z</time>
      </trkpt>
      <trkpt lat="22.794029" lon="110.443339">
        <ele>118.555369</ele>
        <time>2026-08-16T09:00:23.000Z</time>
      </trkpt>
      <trkpt lat="22.794055" lon="110.443364">
        <ele>118.574840</ele>
        <time>2026-08-16T09:00:24.000Z</time>
      </trkpt>
      <trkpt lat="22.794083" lon="110.443386">
        <ele>118.594215</ele>
        <time>2026-08-16T09:00:25.000Z</time>
      </trkpt>
      <trkpt lat="22.794109" lon="110.443409">
        <ele>118.613017</ele>
        <time>2026-08-16T09:00:26.000Z</time>
      </trkpt>
      <trkpt lat="22.794137" lon="110.443430">
        <ele>118.632094</ele>
        <time>2026-08-16T09:00:27.000Z</time>
      </trkpt>
      <trkpt lat="22.794168" lon="110.443447">
        <ele>118.651560</ele>
        <time>2026-08-16T09:00:28.000Z</time>
      </trkpt>
      <trkpt lat="22.794197" lon="110.443468">
        <ele>118.671100</ele>
        <time>2026-08-16T09:00:29.000Z</time>
      </trkpt>
      <trkpt lat="22.794224" lon="110.443491">
        <ele>118.690339</ele>
        <time>2026-08-16T09:00:30.000Z</time>
      </trkpt>
      <trkpt lat="22.794254" lon="110.443512">
        <ele>118.710348</ele>
        <time>2026-08-16T09:00:31.000Z</time>
      </trkpt>
      <trkpt lat="22.794285" lon="110.443533">
        <ele>118.730830</ele>
        <time>2026-08-16T09:00:32.000Z</time>
      </trkpt>
      <trkpt lat="22.794311" lon="110.443555">
        <ele>118.749310</ele>
        <time>2026-08-16T09:00:33.000Z</time>
      </trkpt>
      <trkpt lat="22.794337" lon="110.443577">
        <ele>118.767789</ele>
        <time>2026-08-16T09:00:34.000Z</time>
      </trkpt>
      <trkpt lat="22.794363" lon="110.443598">
        <ele>118.785955</ele>
        <time>2026-08-16T09:00:35.000Z</time>
      </trkpt>
      <trkpt lat="22.794392" lon="110.443621">
        <ele>118.806088</ele>
        <time>2026-08-16T09:00:36.000Z</time>
      </trkpt>
      <trkpt lat="22.794422" lon="110.443645">
        <ele>118.826978</ele>
        <time>2026-08-16T09:00:37.000Z</time>
      </trkpt>
      <trkpt lat="22.794450" lon="110.443672">
        <ele>118.840825</ele>
        <time>2026-08-16T09:00:38.000Z</time>
      </trkpt>
      <trkpt lat="22.794481" lon="110.443700">
        <ele>118.749997</ele>
        <time>2026-08-16T09:00:39.000Z</time>
      </trkpt>
      <trkpt lat="22.794512" lon="110.443730">
        <ele>118.656458</ele>
        <time>2026-08-16T09:00:40.000Z</time>
      </trkpt>
      <trkpt lat="22.794542" lon="110.443764">
        <ele>118.558768</ele>
        <time>2026-08-16T09:00:41.000Z</time>
      </trkpt>
      <trkpt lat="22.794573" lon="110.443799">
        <ele>118.458021</ele>
        <time>2026-08-16T09:00:42.000Z</time>
      </trkpt>
      <trkpt lat="22.794608" lon="110.443831">
        <ele>118.354957</ele>
        <time>2026-08-16T09:00:43.000Z</time>
      </trkpt>
      <trkpt lat="22.794643" lon="110.443866">
        <ele>118.247774</ele>
        <time>2026-08-16T09:00:44.000Z</time>
      </trkpt>
      <trkpt lat="22.794680" lon="110.443898">
        <ele>118.141228</ele>
        <time>2026-08-16T09:00:45.000Z</time>
      </trkpt>
      <trkpt lat="22.794714" lon="110.443927">
        <ele>118.043842</ele>
        <time>2026-08-16T09:00:46.000Z</time>
      </trkpt>
      <trkpt lat="22.794742" lon="110.443959">
        <ele>117.952264</ele>
        <time>2026-08-16T09:00:47.000Z</time>
      </trkpt>
      <trkpt lat="22.794775" lon="110.443992">
        <ele>117.851206</ele>
        <time>2026-08-16T09:00:48.000Z</time>
      </trkpt>
      <trkpt lat="22.794801" lon="110.444032">
        <ele>117.749615</ele>
        <time>2026-08-16T09:00:49.000Z</time>
      </trkpt>
      <trkpt lat="22.794832" lon="110.444080">
        <ele>117.627965</ele>
        <time>2026-08-16T09:00:50.000Z</time>
      </trkpt>
      <trkpt lat="22.794863" lon="110.444128">
        <ele>117.506315</ele>
        <time>2026-08-16T09:00:51.000Z</time>
      </trkpt>
      <trkpt lat="22.794895" lon="110.444177">
        <ele>117.381671</ele>
        <time>2026-08-16T09:00:52.000Z</time>
      </trkpt>
      <trkpt lat="22.794925" lon="110.444228">
        <ele>117.256095</ele>
        <time>2026-08-16T09:00:53.000Z</time>
      </trkpt>
      <trkpt lat="22.794954" lon="110.444281">
        <ele>117.128165</ele>
        <time>2026-08-16T09:00:54.000Z</time>
      </trkpt>
      <trkpt lat="22.794980" lon="110.444337">
        <ele>116.998016</ele>
        <time>2026-08-16T09:00:55.000Z</time>
      </trkpt>
      <trkpt lat="22.795003" lon="110.444393">
        <ele>116.870763</ele>
        <time>2026-08-16T09:00:56.000Z</time>
      </trkpt>
      <trkpt lat="22.795027" lon="110.444453">
        <ele>116.735002</ele>
        <time>2026-08-16T09:00:57.000Z</time>
      </trkpt>
      <trkpt lat="22.795052" lon="110.444512">
        <ele>116.600219</ele>
        <time>2026-08-16T09:00:58.000Z</time>
      </trkpt>
      <trkpt lat="22.795087" lon="110.444564">
        <ele>116.466575</ele>
        <time>2026-08-16T09:00:59.000Z</time>
      </trkpt>
      <trkpt lat="22.795112" lon="110.444627">
        <ele>116.324206</ele>
        <time>2026-08-16T09:01:00.000Z</time>
      </trkpt>
      <trkpt lat="22.795130" lon="110.444697">
        <ele>116.173360</ele>
        <time>2026-08-16T09:01:01.000Z</time>
      </trkpt>
      <trkpt lat="22.795149" lon="110.444765">
        <ele>116.025871</ele>
        <time>2026-08-16T09:01:02.000Z</time>
      </trkpt>
      <trkpt lat="22.795166" lon="110.444833">
        <ele>115.879625</ele>
        <time>2026-08-16T09:01:03.000Z</time>
      </trkpt>
      <trkpt lat="22.795178" lon="110.444900">
        <ele>115.737953</ele>
        <time>2026-08-16T09:01:04.000Z</time>
      </trkpt>
      <trkpt lat="22.795192" lon="110.444965">
        <ele>115.599399</ele>
        <time>2026-08-16T09:01:05.000Z</time>
      </trkpt>
      <trkpt lat="22.795212" lon="110.445030">
        <ele>115.457161</ele>
        <time>2026-08-16T09:01:06.000Z</time>
      </trkpt>
      <trkpt lat="22.795232" lon="110.445094">
        <ele>115.316891</ele>
        <time>2026-08-16T09:01:07.000Z</time>
      </trkpt>
      <trkpt lat="22.795254" lon="110.445155">
        <ele>115.180929</ele>
        <time>2026-08-16T09:01:08.000Z</time>
      </trkpt>
      <trkpt lat="22.795279" lon="110.445212">
        <ele>115.049906</ele>
        <time>2026-08-16T09:01:09.000Z</time>
      </trkpt>
      <trkpt lat="22.795307" lon="110.445264">
        <ele>114.924907</ele>
        <time>2026-08-16T09:01:10.000Z</time>
      </trkpt>
      <trkpt lat="22.795334" lon="110.445314">
        <ele>114.804628</ele>
        <time>2026-08-16T09:01:11.000Z</time>
      </trkpt>
      <trkpt lat="22.795364" lon="110.445361">
        <ele>114.809413</ele>
        <time>2026-08-16T09:01:12.000Z</time>
      </trkpt>
      <trkpt lat="22.795395" lon="110.445403">
        <ele>114.822133</ele>
        <time>2026-08-16T09:01:13.000Z</time>
      </trkpt>
      <trkpt lat="22.795421" lon="110.445443">
        <ele>114.833704</ele>
        <time>2026-08-16T09:01:14.000Z</time>
      </trkpt>
      <trkpt lat="22.795446" lon="110.445489">
        <ele>114.846328</ele>
        <time>2026-08-16T09:01:15.000Z</time>
      </trkpt>
      <trkpt lat="22.795470" lon="110.445539">
        <ele>114.859655</ele>
        <time>2026-08-16T09:01:16.000Z</time>
      </trkpt>
      <trkpt lat="22.795492" lon="110.445591">
        <ele>114.873182</ele>
        <time>2026-08-16T09:01:17.000Z</time>
      </trkpt>
      <trkpt lat="22.795509" lon="110.445643">
        <ele>114.886226</ele>
        <time>2026-08-16T09:01:18.000Z</time>
      </trkpt>
      <trkpt lat="22.795528" lon="110.445693">
        <ele>114.899011</ele>
        <time>2026-08-16T09:01:19.000Z</time>
      </trkpt>
      <trkpt lat="22.795545" lon="110.445742">
        <ele>114.911389</ele>
        <time>2026-08-16T09:01:20.000Z</time>
      </trkpt>
      <trkpt lat="22.795562" lon="110.445790">
        <ele>114.923546</ele>
        <time>2026-08-16T09:01:21.000Z</time>
      </trkpt>
      <trkpt lat="22.795581" lon="110.445836">
        <ele>114.935463</ele>
        <time>2026-08-16T09:01:22.000Z</time>
      </trkpt>
      <trkpt lat="22.795598" lon="110.445884">
        <ele>114.947619</ele>
        <time>2026-08-16T09:01:23.000Z</time>
      </trkpt>
      <trkpt lat="22.795611" lon="110.445928">
        <ele>114.958543</ele>
        <time>2026-08-16T09:01:24.000Z</time>
      </trkpt>
      <trkpt lat="22.795623" lon="110.445972">
        <ele>114.969391</ele>
        <time>2026-08-16T09:01:25.000Z</time>
      </trkpt>
      <trkpt lat="22.795634" lon="110.446015">
        <ele>114.979941</ele>
        <time>2026-08-16T09:01:26.000Z</time>
      </trkpt>
      <trkpt lat="22.795642" lon="110.446064">
        <ele>114.991706</ele>
        <time>2026-08-16T09:01:27.000Z</time>
      </trkpt>
      <trkpt lat="22.795649" lon="110.446113">
        <ele>115.003428</ele>
        <time>2026-08-16T09:01:28.000Z</time>
      </trkpt>
      <trkpt lat="22.795659" lon="110.446160">
        <ele>115.014832</ele>
        <time>2026-08-16T09:01:29.000Z</time>
      </trkpt>
      <trkpt lat="22.795670" lon="110.446207">
        <ele>115.026296</ele>
        <time>2026-08-16T09:01:30.000Z</time>
      </trkpt>
      <trkpt lat="22.795684" lon="110.446252">
        <ele>115.037524</ele>
        <time>2026-08-16T09:01:31.000Z</time>
      </trkpt>
      <trkpt lat="22.795697" lon="110.446299">
        <ele>115.049125</ele>
        <time>2026-08-16T09:01:32.000Z</time>
      </trkpt>
      <trkpt lat="22.795707" lon="110.446345">
        <ele>115.060299</ele>
        <time>2026-08-16T09:01:33.000Z</time>
      </trkpt>
      <trkpt lat="22.795720" lon="110.446392">
        <ele>115.071900</ele>
        <time>2026-08-16T09:01:34.000Z</time>
      </trkpt>
      <trkpt lat="22.795734" lon="110.446441">
        <ele>115.084028</ele>
        <time>2026-08-16T09:01:35.000Z</time>
      </trkpt>
      <trkpt lat="22.795747" lon="110.446490">
        <ele>115.096083</ele>
        <time>2026-08-16T09:01:36.000Z</time>
      </trkpt>
      <trkpt lat="22.795760" lon="110.446539">
        <ele>115.108137</ele>
        <time>2026-08-16T09:01:37.000Z</time>
      </trkpt>
      <trkpt lat="22.795774" lon="110.446587">
        <ele>115.120040</ele>
        <time>2026-08-16T09:01:38.000Z</time>
      </trkpt>
      <trkpt lat="22.795788" lon="110.446632">
        <ele>115.131268</ele>
        <time>2026-08-16T09:01:39.000Z</time>
      </trkpt>
      <trkpt lat="22.795800" lon="110.446679">
        <ele>115.142798</ele>
        <time>2026-08-16T09:01:40.000Z</time>
      </trkpt>
      <trkpt lat="22.795810" lon="110.446726">
        <ele>115.154202</ele>
        <time>2026-08-16T09:01:41.000Z</time>
      </trkpt>
      <trkpt lat="22.795818" lon="110.446774">
        <ele>115.165734</ele>
        <time>2026-08-16T09:01:42.000Z</time>
      </trkpt>
      <trkpt lat="22.795826" lon="110.446822">
        <ele>115.177266</ele>
        <time>2026-08-16T09:01:43.000Z</time>
      </trkpt>
      <trkpt lat="22.795835" lon="110.446871">
        <ele>115.189078</ele>
        <time>2026-08-16T09:01:44.000Z</time>
      </trkpt>
      <trkpt lat="22.795846" lon="110.446918">
        <ele>115.200542</ele>
        <time>2026-08-16T09:01:45.000Z</time>
      </trkpt>
      <trkpt lat="22.795857" lon="110.446968">
        <ele>115.212695</ele>
        <time>2026-08-16T09:01:46.000Z</time>
      </trkpt>
      <trkpt lat="22.795869" lon="110.447015">
        <ele>115.224225</ele>
        <time>2026-08-16T09:01:47.000Z</time>
      </trkpt>
      <trkpt lat="22.795878" lon="110.447062">
        <ele>115.235573</ele>
        <time>2026-08-16T09:01:48.000Z</time>
      </trkpt>
      <trkpt lat="22.795888" lon="110.447111">
        <ele>115.247438</ele>
        <time>2026-08-16T09:01:49.000Z</time>
      </trkpt>
      <trkpt lat="22.795899" lon="110.447159">
        <ele>115.260468</ele>
        <time>2026-08-16T09:01:50.000Z</time>
      </trkpt>
      <trkpt lat="22.795908" lon="110.447207">
        <ele>115.286347</ele>
        <time>2026-08-16T09:01:51.000Z</time>
      </trkpt>
      <trkpt lat="22.795916" lon="110.447253">
        <ele>115.311079</ele>
        <time>2026-08-16T09:01:52.000Z</time>
      </trkpt>
      <trkpt lat="22.795924" lon="110.447299">
        <ele>115.335811</ele>
        <time>2026-08-16T09:01:53.000Z</time>
      </trkpt>
      <trkpt lat="22.795932" lon="110.447343">
        <ele>115.359505</ele>
        <time>2026-08-16T09:01:54.000Z</time>
      </trkpt>
      <trkpt lat="22.795940" lon="110.447388">
        <ele>115.383718</ele>
        <time>2026-08-16T09:01:55.000Z</time>
      </trkpt>
      <trkpt lat="22.795946" lon="110.447432">
        <ele>115.407218</ele>
        <time>2026-08-16T09:01:56.000Z</time>
      </trkpt>
      <trkpt lat="22.795955" lon="110.447476">
        <ele>115.431030</ele>
        <time>2026-08-16T09:01:57.000Z</time>
      </trkpt>
      <trkpt lat="22.795965" lon="110.447519">
        <ele>115.454460</ele>
        <time>2026-08-16T09:01:58.000Z</time>
      </trkpt>
      <trkpt lat="22.795975" lon="110.447565">
        <ele>115.479430</ele>
        <time>2026-08-16T09:01:59.000Z</time>
      </trkpt>
      <trkpt lat="22.795986" lon="110.447608">
        <ele>115.503006</ele>
        <time>2026-08-16T09:02:00.000Z</time>
      </trkpt>
      <trkpt lat="22.795997" lon="110.447652">
        <ele>115.527093</ele>
        <time>2026-08-16T09:02:01.000Z</time>
      </trkpt>
      <trkpt lat="22.796007" lon="110.447696">
        <ele>115.551035</ele>
        <time>2026-08-16T09:02:02.000Z</time>
      </trkpt>
      <trkpt lat="22.796019" lon="110.447742">
        <ele>115.576293</ele>
        <time>2026-08-16T09:02:03.000Z</time>
      </trkpt>
      <trkpt lat="22.796029" lon="110.447788">
        <ele>115.601262</ele>
        <time>2026-08-16T09:02:04.000Z</time>
      </trkpt>
      <trkpt lat="22.796039" lon="110.447833">
        <ele>115.625718</ele>
        <time>2026-08-16T09:02:05.000Z</time>
      </trkpt>
      <trkpt lat="22.796050" lon="110.447879">
        <ele>115.650826</ele>
        <time>2026-08-16T09:02:06.000Z</time>
      </trkpt>
      <trkpt lat="22.796061" lon="110.447925">
        <ele>115.675933</ele>
        <time>2026-08-16T09:02:07.000Z</time>
      </trkpt>
      <trkpt lat="22.796071" lon="110.447971">
        <ele>115.700903</ele>
        <time>2026-08-16T09:02:08.000Z</time>
      </trkpt>
      <trkpt lat="22.796079" lon="110.448017">
        <ele>115.725635</ele>
        <time>2026-08-16T09:02:09.000Z</time>
      </trkpt>
      <trkpt lat="22.796089" lon="110.448062">
        <ele>115.750091</ele>
        <time>2026-08-16T09:02:10.000Z</time>
      </trkpt>
      <trkpt lat="22.796100" lon="110.448108">
        <ele>115.775199</ele>
        <time>2026-08-16T09:02:11.000Z</time>
      </trkpt>
      <trkpt lat="22.796110" lon="110.448156">
        <ele>115.801198</ele>
        <time>2026-08-16T09:02:12.000Z</time>
      </trkpt>
      <trkpt lat="22.796121" lon="110.448203">
        <ele>115.826817</ele>
        <time>2026-08-16T09:02:13.000Z</time>
      </trkpt>
      <trkpt lat="22.796129" lon="110.448250">
        <ele>115.852068</ele>
        <time>2026-08-16T09:02:14.000Z</time>
      </trkpt>
      <trkpt lat="22.796138" lon="110.448301">
        <ele>115.879503</ele>
        <time>2026-08-16T09:02:15.000Z</time>
      </trkpt>
      <trkpt lat="22.796148" lon="110.448350">
        <ele>115.906018</ele>
        <time>2026-08-16T09:02:16.000Z</time>
      </trkpt>
      <trkpt lat="22.796160" lon="110.448398">
        <ele>115.932293</ele>
        <time>2026-08-16T09:02:17.000Z</time>
      </trkpt>
      <trkpt lat="22.796171" lon="110.448447">
        <ele>115.958938</ele>
        <time>2026-08-16T09:02:18.000Z</time>
      </trkpt>
      <trkpt lat="22.796182" lon="110.448496">
        <ele>115.985583</ele>
        <time>2026-08-16T09:02:19.000Z</time>
      </trkpt>
      <trkpt lat="22.796192" lon="110.448545">
        <ele>116.012098</ele>
        <time>2026-08-16T09:02:20.000Z</time>
      </trkpt>
      <trkpt lat="22.796204" lon="110.448592">
        <ele>116.037864</ele>
        <time>2026-08-16T09:02:21.000Z</time>
      </trkpt>
      <trkpt lat="22.796216" lon="110.448638">
        <ele>116.063122</ele>
        <time>2026-08-16T09:02:22.000Z</time>
      </trkpt>
      <trkpt lat="22.796226" lon="110.448686">
        <ele>116.089121</ele>
        <time>2026-08-16T09:02:23.000Z</time>
      </trkpt>
      <trkpt lat="22.796238" lon="110.448734">
        <ele>116.115397</ele>
        <time>2026-08-16T09:02:24.000Z</time>
      </trkpt>
      <trkpt lat="22.796249" lon="110.448782">
        <ele>116.141528</ele>
        <time>2026-08-16T09:02:25.000Z</time>
      </trkpt>
      <trkpt lat="22.796259" lon="110.448830">
        <ele>116.167528</ele>
        <time>2026-08-16T09:02:26.000Z</time>
      </trkpt>
      <trkpt lat="22.796269" lon="110.448878">
        <ele>116.193527</ele>
        <time>2026-08-16T09:02:27.000Z</time>
      </trkpt>
      <trkpt lat="22.796278" lon="110.448927">
        <ele>116.219924</ele>
        <time>2026-08-16T09:02:28.000Z</time>
      </trkpt>
      <trkpt lat="22.796288" lon="110.448976">
        <ele>116.246439</ele>
        <time>2026-08-16T09:02:29.000Z</time>
      </trkpt>
      <trkpt lat="22.796296" lon="110.449023">
        <ele>116.271690</ele>
        <time>2026-08-16T09:02:30.000Z</time>
      </trkpt>
      <trkpt lat="22.796307" lon="110.449072">
        <ele>116.294409</ele>
        <time>2026-08-16T09:02:31.000Z</time>
      </trkpt>
      <trkpt lat="22.796322" lon="110.449121">
        <ele>116.310404</ele>
        <time>2026-08-16T09:02:32.000Z</time>
      </trkpt>
      <trkpt lat="22.796336" lon="110.449169">
        <ele>116.326001</ele>
        <time>2026-08-16T09:02:33.000Z</time>
      </trkpt>
      <trkpt lat="22.796349" lon="110.449217">
        <ele>116.341500</ele>
        <time>2026-08-16T09:02:34.000Z</time>
      </trkpt>
      <trkpt lat="22.796360" lon="110.449264">
        <ele>116.356522</ele>
        <time>2026-08-16T09:02:35.000Z</time>
      </trkpt>
      <trkpt lat="22.796371" lon="110.449313">
        <ele>116.372146</ele>
        <time>2026-08-16T09:02:36.000Z</time>
      </trkpt>
      <trkpt lat="22.796384" lon="110.449361">
        <ele>116.387645</ele>
        <time>2026-08-16T09:02:37.000Z</time>
      </trkpt>
      <trkpt lat="22.796396" lon="110.449410">
        <ele>116.403351</ele>
        <time>2026-08-16T09:02:38.000Z</time>
      </trkpt>
      <trkpt lat="22.796411" lon="110.449451">
        <ele>116.417017</ele>
        <time>2026-08-16T09:02:39.000Z</time>
      </trkpt>
      <trkpt lat="22.796420" lon="110.449496">
        <ele>116.431282</ele>
        <time>2026-08-16T09:02:40.000Z</time>
      </trkpt>
      <trkpt lat="22.796432" lon="110.449543">
        <ele>116.446390</ele>
        <time>2026-08-16T09:02:41.000Z</time>
      </trkpt>
      <trkpt lat="22.796442" lon="110.449595">
        <ele>116.462847</ele>
        <time>2026-08-16T09:02:42.000Z</time>
      </trkpt>
      <trkpt lat="22.796452" lon="110.449643">
        <ele>116.478092</ele>
        <time>2026-08-16T09:02:43.000Z</time>
      </trkpt>
      <trkpt lat="22.796463" lon="110.449691">
        <ele>116.493415</ele>
        <time>2026-08-16T09:02:44.000Z</time>
      </trkpt>
      <trkpt lat="22.796474" lon="110.449737">
        <ele>116.508137</ele>
        <time>2026-08-16T09:02:45.000Z</time>
      </trkpt>
      <trkpt lat="22.796485" lon="110.449784">
        <ele>116.523159</ele>
        <time>2026-08-16T09:02:46.000Z</time>
      </trkpt>
      <trkpt lat="22.796495" lon="110.449834">
        <ele>116.539009</ele>
        <time>2026-08-16T09:02:47.000Z</time>
      </trkpt>
      <trkpt lat="22.796506" lon="110.449887">
        <ele>116.555840</ele>
        <time>2026-08-16T09:02:48.000Z</time>
      </trkpt>
      <trkpt lat="22.796520" lon="110.449937">
        <ele>116.572028</ele>
        <time>2026-08-16T09:02:49.000Z</time>
      </trkpt>
      <trkpt lat="22.796533" lon="110.449984">
        <ele>116.587230</ele>
        <time>2026-08-16T09:02:50.000Z</time>
      </trkpt>
      <trkpt lat="22.796544" lon="110.450031">
        <ele>116.602252</ele>
        <time>2026-08-16T09:02:51.000Z</time>
      </trkpt>
      <trkpt lat="22.796554" lon="110.450076">
        <ele>116.616592</ele>
        <time>2026-08-16T09:02:52.000Z</time>
      </trkpt>
      <trkpt lat="22.796564" lon="110.450125">
        <ele>116.632140</ele>
        <time>2026-08-16T09:02:53.000Z</time>
      </trkpt>
      <trkpt lat="22.796573" lon="110.450170">
        <ele>116.646405</ele>
        <time>2026-08-16T09:02:54.000Z</time>
      </trkpt>
      <trkpt lat="22.796582" lon="110.450217">
        <ele>116.661276</ele>
        <time>2026-08-16T09:02:55.000Z</time>
      </trkpt>
      <trkpt lat="22.796586" lon="110.450267">
        <ele>116.676825</ele>
        <time>2026-08-16T09:02:56.000Z</time>
      </trkpt>
      <trkpt lat="22.796591" lon="110.450316">
        <ele>116.692097</ele>
        <time>2026-08-16T09:02:57.000Z</time>
      </trkpt>
      <trkpt lat="22.796597" lon="110.450366">
        <ele>116.707718</ele>
        <time>2026-08-16T09:02:58.000Z</time>
      </trkpt>
      <trkpt lat="22.796604" lon="110.450412">
        <ele>116.722161</ele>
        <time>2026-08-16T09:02:59.000Z</time>
      </trkpt>
      <trkpt lat="22.796608" lon="110.450457">
        <ele>116.736167</ele>
        <time>2026-08-16T09:03:00.000Z</time>
      </trkpt>
      <trkpt lat="22.796613" lon="110.450504">
        <ele>116.750824</ele>
        <time>2026-08-16T09:03:01.000Z</time>
      </trkpt>
      <trkpt lat="22.796616" lon="110.450553">
        <ele>116.766037</ele>
        <time>2026-08-16T09:03:02.000Z</time>
      </trkpt>
      <trkpt lat="22.796619" lon="110.450599">
        <ele>116.780324</ele>
        <time>2026-08-16T09:03:03.000Z</time>
      </trkpt>
      <trkpt lat="22.796618" lon="110.450647">
        <ele>116.795198</ele>
        <time>2026-08-16T09:03:04.000Z</time>
      </trkpt>
      <trkpt lat="22.796617" lon="110.450696">
        <ele>116.810381</ele>
        <time>2026-08-16T09:03:05.000Z</time>
      </trkpt>
      <trkpt lat="22.796617" lon="110.450743">
        <ele>116.824942</ele>
        <time>2026-08-16T09:03:06.000Z</time>
      </trkpt>
      <trkpt lat="22.796615" lon="110.450790">
        <ele>116.839518</ele>
        <time>2026-08-16T09:03:07.000Z</time>
      </trkpt>
      <trkpt lat="22.796613" lon="110.450841">
        <ele>116.855332</ele>
        <time>2026-08-16T09:03:08.000Z</time>
      </trkpt>
      <trkpt lat="22.796609" lon="110.450894">
        <ele>116.871806</ele>
        <time>2026-08-16T09:03:09.000Z</time>
      </trkpt>
      <trkpt lat="22.796606" lon="110.450946">
        <ele>116.887947</ele>
        <time>2026-08-16T09:03:10.000Z</time>
      </trkpt>
      <trkpt lat="22.796603" lon="110.451000">
        <ele>116.945495</ele>
        <time>2026-08-16T09:03:11.000Z</time>
      </trkpt>
      <trkpt lat="22.796599" lon="110.451054">
        <ele>117.022149</ele>
        <time>2026-08-16T09:03:12.000Z</time>
      </trkpt>
      <trkpt lat="22.796595" lon="110.451106">
        <ele>117.095983</ele>
        <time>2026-08-16T09:03:13.000Z</time>
      </trkpt>
      <trkpt lat="22.796591" lon="110.451159">
        <ele>117.171228</ele>
        <time>2026-08-16T09:03:14.000Z</time>
      </trkpt>
      <trkpt lat="22.796585" lon="110.451212">
        <ele>117.246784</ele>
        <time>2026-08-16T09:03:15.000Z</time>
      </trkpt>
      <trkpt lat="22.796581" lon="110.451263">
        <ele>117.319208</ele>
        <time>2026-08-16T09:03:16.000Z</time>
      </trkpt>
      <trkpt lat="22.796579" lon="110.451315">
        <ele>117.392851</ele>
        <time>2026-08-16T09:03:17.000Z</time>
      </trkpt>
      <trkpt lat="22.796576" lon="110.451367">
        <ele>117.466573</ele>
        <time>2026-08-16T09:03:18.000Z</time>
      </trkpt>
      <trkpt lat="22.796572" lon="110.451419">
        <ele>117.540407</ele>
        <time>2026-08-16T09:03:19.000Z</time>
      </trkpt>
      <trkpt lat="22.796566" lon="110.451470">
        <ele>117.613156</ele>
        <time>2026-08-16T09:03:20.000Z</time>
      </trkpt>
      <trkpt lat="22.796559" lon="110.451520">
        <ele>117.684715</ele>
        <time>2026-08-16T09:03:21.000Z</time>
      </trkpt>
      <trkpt lat="22.796553" lon="110.451567">
        <ele>117.751853</ele>
        <time>2026-08-16T09:03:22.000Z</time>
      </trkpt>
      <trkpt lat="22.796545" lon="110.451616">
        <ele>117.822266</ele>
        <time>2026-08-16T09:03:23.000Z</time>
      </trkpt>
      <trkpt lat="22.796539" lon="110.451671">
        <ele>117.900632</ele>
        <time>2026-08-16T09:03:24.000Z</time>
      </trkpt>
      <trkpt lat="22.796533" lon="110.451722">
        <ele>117.973381</ele>
        <time>2026-08-16T09:03:25.000Z</time>
      </trkpt>
      <trkpt lat="22.796531" lon="110.451769">
        <ele>118.039955</ele>
        <time>2026-08-16T09:03:26.000Z</time>
      </trkpt>
      <trkpt lat="22.796527" lon="110.451817">
        <ele>118.108150</ele>
        <time>2026-08-16T09:03:27.000Z</time>
      </trkpt>
      <trkpt lat="22.796524" lon="110.451864">
        <ele>118.174813</ele>
        <time>2026-08-16T09:03:28.000Z</time>
      </trkpt>
      <trkpt lat="22.796520" lon="110.451910">
        <ele>118.240191</ele>
        <time>2026-08-16T09:03:29.000Z</time>
      </trkpt>
      <trkpt lat="22.796517" lon="110.451956">
        <ele>118.305442</ele>
        <time>2026-08-16T09:03:30.000Z</time>
      </trkpt>
      <trkpt lat="22.796515" lon="110.452001">
        <ele>118.369189</ele>
        <time>2026-08-16T09:03:31.000Z</time>
      </trkpt>
      <trkpt lat="22.796511" lon="110.452045">
        <ele>118.431750</ele>
        <time>2026-08-16T09:03:32.000Z</time>
      </trkpt>
      <trkpt lat="22.796508" lon="110.452087">
        <ele>118.491357</ele>
        <time>2026-08-16T09:03:33.000Z</time>
      </trkpt>
      <trkpt lat="22.796505" lon="110.452129">
        <ele>118.550964</ele>
        <time>2026-08-16T09:03:34.000Z</time>
      </trkpt>
      <trkpt lat="22.796503" lon="110.452172">
        <ele>118.611885</ele>
        <time>2026-08-16T09:03:35.000Z</time>
      </trkpt>
      <trkpt lat="22.796501" lon="110.452214">
        <ele>118.671393</ele>
        <time>2026-08-16T09:03:36.000Z</time>
      </trkpt>
      <trkpt lat="22.796498" lon="110.452254">
        <ele>118.728178</ele>
        <time>2026-08-16T09:03:37.000Z</time>
      </trkpt>
      <trkpt lat="22.796496" lon="110.452294">
        <ele>118.784860</ele>
        <time>2026-08-16T09:03:38.000Z</time>
      </trkpt>
      <trkpt lat="22.796491" lon="110.452333">
        <ele>118.840575</ele>
        <time>2026-08-16T09:03:39.000Z</time>
      </trkpt>
      <trkpt lat="22.796489" lon="110.452371">
        <ele>118.894432</ele>
        <time>2026-08-16T09:03:40.000Z</time>
      </trkpt>
      <trkpt lat="22.796489" lon="110.452410">
        <ele>118.949615</ele>
        <time>2026-08-16T09:03:41.000Z</time>
      </trkpt>
      <trkpt lat="22.796487" lon="110.452446">
        <ele>119.000647</ele>
        <time>2026-08-16T09:03:42.000Z</time>
      </trkpt>
      <trkpt lat="22.796486" lon="110.452481">
        <ele>119.050194</ele>
        <time>2026-08-16T09:03:43.000Z</time>
      </trkpt>
      <trkpt lat="22.796485" lon="110.452517">
        <ele>119.101156</ele>
        <time>2026-08-16T09:03:44.000Z</time>
      </trkpt>
      <trkpt lat="22.796485" lon="110.452551">
        <ele>119.149265</ele>
        <time>2026-08-16T09:03:45.000Z</time>
      </trkpt>
      <trkpt lat="22.796484" lon="110.452586">
        <ele>119.198813</ele>
        <time>2026-08-16T09:03:46.000Z</time>
      </trkpt>
      <trkpt lat="22.796483" lon="110.452621">
        <ele>119.248361</ele>
        <time>2026-08-16T09:03:47.000Z</time>
      </trkpt>
      <trkpt lat="22.796483" lon="110.452655">
        <ele>119.296470</ele>
        <time>2026-08-16T09:03:48.000Z</time>
      </trkpt>
      <trkpt lat="22.796482" lon="110.452690">
        <ele>119.346017</ele>
        <time>2026-08-16T09:03:49.000Z</time>
      </trkpt>
      <trkpt lat="22.796483" lon="110.452726">
        <ele>119.396980</ele>
        <time>2026-08-16T09:03:50.000Z</time>
      </trkpt>
      <trkpt lat="22.796483" lon="110.452759">
        <ele>119.443674</ele>
        <time>2026-08-16T09:03:51.000Z</time>
      </trkpt>
      <trkpt lat="22.796481" lon="110.452790">
        <ele>119.487645</ele>
        <time>2026-08-16T09:03:52.000Z</time>
      </trkpt>
      <trkpt lat="22.796480" lon="110.452821">
        <ele>119.531536</ele>
        <time>2026-08-16T09:03:53.000Z</time>
      </trkpt>
      <trkpt lat="22.796480" lon="110.452850">
        <ele>119.572570</ele>
        <time>2026-08-16T09:03:54.000Z</time>
      </trkpt>
      <trkpt lat="22.796476" lon="110.452879">
        <ele>119.614061</ele>
        <time>2026-08-16T09:03:55.000Z</time>
      </trkpt>
      <trkpt lat="22.796478" lon="110.452906">
        <ele>119.652388</ele>
        <time>2026-08-16T09:03:56.000Z</time>
      </trkpt>
      <trkpt lat="22.796479" lon="110.452934">
        <ele>119.651662</ele>
        <time>2026-08-16T09:03:57.000Z</time>
      </trkpt>
      <trkpt lat="22.796480" lon="110.452966">
        <ele>119.648952</ele>
        <time>2026-08-16T09:03:58.000Z</time>
      </trkpt>
      <trkpt lat="22.796482" lon="110.452996">
        <ele>119.646405</ele>
        <time>2026-08-16T09:03:59.000Z</time>
      </trkpt>
      <trkpt lat="22.796483" lon="110.453026">
        <ele>119.643863</ele>
        <time>2026-08-16T09:04:00.000Z</time>
      </trkpt>
      <trkpt lat="22.796484" lon="110.453056">
        <ele>119.641321</ele>
        <time>2026-08-16T09:04:01.000Z</time>
      </trkpt>
      <trkpt lat="22.796485" lon="110.453087">
        <ele>119.638695</ele>
        <time>2026-08-16T09:04:02.000Z</time>
      </trkpt>
      <trkpt lat="22.796487" lon="110.453120">
        <ele>119.635895</ele>
        <time>2026-08-16T09:04:03.000Z</time>
      </trkpt>
      <trkpt lat="22.796488" lon="110.453152">
        <ele>119.633184</ele>
        <time>2026-08-16T09:04:04.000Z</time>
      </trkpt>
      <trkpt lat="22.796489" lon="110.453185">
        <ele>119.630389</ele>
        <time>2026-08-16T09:04:05.000Z</time>
      </trkpt>
      <trkpt lat="22.796488" lon="110.453219">
        <ele>119.627508</ele>
        <time>2026-08-16T09:04:06.000Z</time>
      </trkpt>
      <trkpt lat="22.796487" lon="110.453253">
        <ele>119.624628</ele>
        <time>2026-08-16T09:04:07.000Z</time>
      </trkpt>
      <trkpt lat="22.796488" lon="110.453288">
        <ele>119.621664</ele>
        <time>2026-08-16T09:04:08.000Z</time>
      </trkpt>
      <trkpt lat="22.796490" lon="110.453325">
        <ele>119.618525</ele>
        <time>2026-08-16T09:04:09.000Z</time>
      </trkpt>
      <trkpt lat="22.796490" lon="110.453364">
        <ele>119.615223</ele>
        <time>2026-08-16T09:04:10.000Z</time>
      </trkpt>
      <trkpt lat="22.796490" lon="110.453404">
        <ele>119.611837</ele>
        <time>2026-08-16T09:04:11.000Z</time>
      </trkpt>
      <trkpt lat="22.796492" lon="110.453445">
        <ele>119.608360</ele>
        <time>2026-08-16T09:04:12.000Z</time>
      </trkpt>
      <trkpt lat="22.796497" lon="110.453488">
        <ele>119.604691</ele>
        <time>2026-08-16T09:04:13.000Z</time>
      </trkpt>
      <trkpt lat="22.796499" lon="110.453533">
        <ele>119.600876</ele>
        <time>2026-08-16T09:04:14.000Z</time>
      </trkpt>
      <trkpt lat="22.796499" lon="110.453581">
        <ele>119.596812</ele>
        <time>2026-08-16T09:04:15.000Z</time>
      </trkpt>
      <trkpt lat="22.796499" lon="110.453628">
        <ele>119.592833</ele>
        <time>2026-08-16T09:04:16.000Z</time>
      </trkpt>
      <trkpt lat="22.796498" lon="110.453677">
        <ele>119.588683</ele>
        <time>2026-08-16T09:04:17.000Z</time>
      </trkpt>
      <trkpt lat="22.796496" lon="110.453729">
        <ele>119.584277</ele>
        <time>2026-08-16T09:04:18.000Z</time>
      </trkpt>
      <trkpt lat="22.796496" lon="110.453778">
        <ele>119.580128</ele>
        <time>2026-08-16T09:04:19.000Z</time>
      </trkpt>
      <trkpt lat="22.796496" lon="110.453829">
        <ele>119.575810</ele>
        <time>2026-08-16T09:04:20.000Z</time>
      </trkpt>
      <trkpt lat="22.796494" lon="110.453881">
        <ele>119.571403</ele>
        <time>2026-08-16T09:04:21.000Z</time>
      </trkpt>
      <trkpt lat="22.796496" lon="110.453933">
        <ele>119.566997</ele>
        <time>2026-08-16T09:04:22.000Z</time>
      </trkpt>
      <trkpt lat="22.796497" lon="110.453986">
        <ele>119.562508</ele>
        <time>2026-08-16T09:04:23.000Z</time>
      </trkpt>
      <trkpt lat="22.796500" lon="110.454039">
        <ele>119.558013</ele>
        <time>2026-08-16T09:04:24.000Z</time>
      </trkpt>
      <trkpt lat="22.796499" lon="110.454089">
        <ele>119.553778</ele>
        <time>2026-08-16T09:04:25.000Z</time>
      </trkpt>
      <trkpt lat="22.796501" lon="110.454136">
        <ele>119.549795</ele>
        <time>2026-08-16T09:04:26.000Z</time>
      </trkpt>
      <trkpt lat="22.796503" lon="110.454185">
        <ele>119.545642</ele>
        <time>2026-08-16T09:04:27.000Z</time>
      </trkpt>
      <trkpt lat="22.796503" lon="110.454237">
        <ele>119.541239</ele>
        <time>2026-08-16T09:04:28.000Z</time>
      </trkpt>
      <trkpt lat="22.796507" lon="110.454287">
        <ele>119.536990</ele>
        <time>2026-08-16T09:04:29.000Z</time>
      </trkpt>
      <trkpt lat="22.796510" lon="110.454338">
        <ele>119.532663</ele>
        <time>2026-08-16T09:04:30.000Z</time>
      </trkpt>
      <trkpt lat="22.796515" lon="110.454383">
        <ele>119.528825</ele>
        <time>2026-08-16T09:04:31.000Z</time>
      </trkpt>
      <trkpt lat="22.796517" lon="110.454428">
        <ele>119.525011</ele>
        <time>2026-08-16T09:04:32.000Z</time>
      </trkpt>
      <trkpt lat="22.796522" lon="110.454475">
        <ele>119.521005</ele>
        <time>2026-08-16T09:04:33.000Z</time>
      </trkpt>
      <trkpt lat="22.796525" lon="110.454527">
        <ele>119.516594</ele>
        <time>2026-08-16T09:04:34.000Z</time>
      </trkpt>
      <trkpt lat="22.796530" lon="110.454581">
        <ele>119.511999</ele>
        <time>2026-08-16T09:04:35.000Z</time>
      </trkpt>
      <trkpt lat="22.796533" lon="110.454641">
        <ele>119.506911</ele>
        <time>2026-08-16T09:04:36.000Z</time>
      </trkpt>
      <trkpt lat="22.796537" lon="110.454697">
        <ele>119.502155</ele>
        <time>2026-08-16T09:04:37.000Z</time>
      </trkpt>
      <trkpt lat="22.796543" lon="110.454757">
        <ele>119.497046</ele>
        <time>2026-08-16T09:04:38.000Z</time>
      </trkpt>
      <trkpt lat="22.796547" lon="110.454812">
        <ele>119.492374</ele>
        <time>2026-08-16T09:04:39.000Z</time>
      </trkpt>
      <trkpt lat="22.796551" lon="110.454866">
        <ele>119.490806</ele>
        <time>2026-08-16T09:04:40.000Z</time>
      </trkpt>
      <trkpt lat="22.796559" lon="110.454924">
        <ele>119.501396</ele>
        <time>2026-08-16T09:04:41.000Z</time>
      </trkpt>
      <trkpt lat="22.796563" lon="110.454982">
        <ele>119.511898</ele>
        <time>2026-08-16T09:04:42.000Z</time>
      </trkpt>
      <trkpt lat="22.796566" lon="110.455041">
        <ele>119.522567</ele>
        <time>2026-08-16T09:04:43.000Z</time>
      </trkpt>
      <trkpt lat="22.796570" lon="110.455099">
        <ele>119.533070</ele>
        <time>2026-08-16T09:04:44.000Z</time>
      </trkpt>
      <trkpt lat="22.796573" lon="110.455157">
        <ele>119.543559</ele>
        <time>2026-08-16T09:04:45.000Z</time>
      </trkpt>
      <trkpt lat="22.796574" lon="110.455214">
        <ele>119.553853</ele>
        <time>2026-08-16T09:04:46.000Z</time>
      </trkpt>
      <trkpt lat="22.796579" lon="110.455271">
        <ele>119.564192</ele>
        <time>2026-08-16T09:04:47.000Z</time>
      </trkpt>
      <trkpt lat="22.796583" lon="110.455328">
        <ele>119.574514</ele>
        <time>2026-08-16T09:04:48.000Z</time>
      </trkpt>
      <trkpt lat="22.796580" lon="110.455384">
        <ele>119.584643</ele>
        <time>2026-08-16T09:04:49.000Z</time>
      </trkpt>
      <trkpt lat="22.796577" lon="110.455441">
        <ele>119.594952</ele>
        <time>2026-08-16T09:04:50.000Z</time>
      </trkpt>
      <trkpt lat="22.796578" lon="110.455497">
        <ele>119.605066</ele>
        <time>2026-08-16T09:04:51.000Z</time>
      </trkpt>
      <trkpt lat="22.796580" lon="110.455551">
        <ele>119.614824</ele>
        <time>2026-08-16T09:04:52.000Z</time>
      </trkpt>
      <trkpt lat="22.796581" lon="110.455605">
        <ele>119.624577</ele>
        <time>2026-08-16T09:04:53.000Z</time>
      </trkpt>
      <trkpt lat="22.796579" lon="110.455661">
        <ele>119.634696</ele>
        <time>2026-08-16T09:04:54.000Z</time>
      </trkpt>
      <trkpt lat="22.796574" lon="110.455717">
        <ele>119.644855</ele>
        <time>2026-08-16T09:04:55.000Z</time>
      </trkpt>
      <trkpt lat="22.796563" lon="110.455774">
        <ele>119.655370</ele>
        <time>2026-08-16T09:04:56.000Z</time>
      </trkpt>
      <trkpt lat="22.796554" lon="110.455832">
        <ele>119.665991</ele>
        <time>2026-08-16T09:04:57.000Z</time>
      </trkpt>
      <trkpt lat="22.796548" lon="110.455890">
        <ele>119.676529</ele>
        <time>2026-08-16T09:04:58.000Z</time>
      </trkpt>
      <trkpt lat="22.796544" lon="110.455947">
        <ele>119.686851</ele>
        <time>2026-08-16T09:04:59.000Z</time>
      </trkpt>
      <trkpt lat="22.796537" lon="110.456003">
        <ele>119.697056</ele>
        <time>2026-08-16T09:05:00.000Z</time>
      </trkpt>
      <trkpt lat="22.796531" lon="110.456055">
        <ele>119.706518</ele>
        <time>2026-08-16T09:05:01.000Z</time>
      </trkpt>
      <trkpt lat="22.796520" lon="110.456111">
        <ele>119.716857</ele>
        <time>2026-08-16T09:05:02.000Z</time>
      </trkpt>
      <trkpt lat="22.796510" lon="110.456164">
        <ele>119.726625</ele>
        <time>2026-08-16T09:05:03.000Z</time>
      </trkpt>
      <trkpt lat="22.796496" lon="110.456216">
        <ele>119.736407</ele>
        <time>2026-08-16T09:05:04.000Z</time>
      </trkpt>
      <trkpt lat="22.796479" lon="110.456267">
        <ele>119.746200</ele>
        <time>2026-08-16T09:05:05.000Z</time>
      </trkpt>
      <trkpt lat="22.796469" lon="110.456322">
        <ele>119.756322</ele>
        <time>2026-08-16T09:05:06.000Z</time>
      </trkpt>
      <trkpt lat="22.796458" lon="110.456374">
        <ele>119.765956</ele>
        <time>2026-08-16T09:05:07.000Z</time>
      </trkpt>
      <trkpt lat="22.796442" lon="110.456428">
        <ele>119.776197</ele>
        <time>2026-08-16T09:05:08.000Z</time>
      </trkpt>
      <trkpt lat="22.796428" lon="110.456479">
        <ele>119.785806</ele>
        <time>2026-08-16T09:05:09.000Z</time>
      </trkpt>
      <trkpt lat="22.796416" lon="110.456530">
        <ele>119.795310</ele>
        <time>2026-08-16T09:05:10.000Z</time>
      </trkpt>
      <trkpt lat="22.796406" lon="110.456579">
        <ele>119.804372</ele>
        <time>2026-08-16T09:05:11.000Z</time>
      </trkpt>
      <trkpt lat="22.796395" lon="110.456629">
        <ele>119.813654</ele>
        <time>2026-08-16T09:05:12.000Z</time>
      </trkpt>
      <trkpt lat="22.796387" lon="110.456680">
        <ele>119.822995</ele>
        <time>2026-08-16T09:05:13.000Z</time>
      </trkpt>
      <trkpt lat="22.796378" lon="110.456731">
        <ele>119.832371</ele>
        <time>2026-08-16T09:05:14.000Z</time>
      </trkpt>
      <trkpt lat="22.796377" lon="110.456784">
        <ele>119.841834</ele>
        <time>2026-08-16T09:05:15.000Z</time>
      </trkpt>
      <trkpt lat="22.796379" lon="110.456835">
        <ele>119.849929</ele>
        <time>2026-08-16T09:05:16.000Z</time>
      </trkpt>
      <trkpt lat="22.796386" lon="110.456881">
        <ele>119.857322</ele>
        <time>2026-08-16T09:05:17.000Z</time>
      </trkpt>
      <trkpt lat="22.796393" lon="110.456928">
        <ele>119.864872</ele>
        <time>2026-08-16T09:05:18.000Z</time>
      </trkpt>
      <trkpt lat="22.796405" lon="110.456974">
        <ele>119.872453</ele>
        <time>2026-08-16T09:05:19.000Z</time>
      </trkpt>
      <trkpt lat="22.796420" lon="110.457022">
        <ele>119.880490</ele>
        <time>2026-08-16T09:05:20.000Z</time>
      </trkpt>
      <trkpt lat="22.796435" lon="110.457068">
        <ele>119.888227</ele>
        <time>2026-08-16T09:05:21.000Z</time>
      </trkpt>
      <trkpt lat="22.796456" lon="110.457112">
        <ele>119.896084</ele>
        <time>2026-08-16T09:05:22.000Z</time>
      </trkpt>
      <trkpt lat="22.796476" lon="110.457155">
        <ele>119.903722</ele>
        <time>2026-08-16T09:05:23.000Z</time>
      </trkpt>
      <trkpt lat="22.796503" lon="110.457198">
        <ele>119.911972</ele>
        <time>2026-08-16T09:05:24.000Z</time>
      </trkpt>
      <trkpt lat="22.796530" lon="110.457241">
        <ele>119.920222</ele>
        <time>2026-08-16T09:05:25.000Z</time>
      </trkpt>
      <trkpt lat="22.796561" lon="110.457280">
        <ele>119.928388</ele>
        <time>2026-08-16T09:05:26.000Z</time>
      </trkpt>
      <trkpt lat="22.796588" lon="110.457318">
        <ele>119.935996</ele>
        <time>2026-08-16T09:05:27.000Z</time>
      </trkpt>
      <trkpt lat="22.796618" lon="110.457356">
        <ele>119.943930</ele>
        <time>2026-08-16T09:05:28.000Z</time>
      </trkpt>
      <trkpt lat="22.796650" lon="110.457393">
        <ele>119.951975</ele>
        <time>2026-08-16T09:05:29.000Z</time>
      </trkpt>
      <trkpt lat="22.796691" lon="110.457432">
        <ele>119.961355</ele>
        <time>2026-08-16T09:05:30.000Z</time>
      </trkpt>
      <trkpt lat="22.796729" lon="110.457470">
        <ele>119.970245</ele>
        <time>2026-08-16T09:05:31.000Z</time>
      </trkpt>
      <trkpt lat="22.796765" lon="110.457505">
        <ele>119.978561</ele>
        <time>2026-08-16T09:05:32.000Z</time>
      </trkpt>
      <trkpt lat="22.796800" lon="110.457541">
        <ele>119.986857</ele>
        <time>2026-08-16T09:05:33.000Z</time>
      </trkpt>
      <trkpt lat="22.796837" lon="110.457575">
        <ele>119.995199</ele>
        <time>2026-08-16T09:05:34.000Z</time>
      </trkpt>
      <trkpt lat="22.796873" lon="110.457604">
        <ele>120.002912</ele>
        <time>2026-08-16T09:05:35.000Z</time>
      </trkpt>
      <trkpt lat="22.796908" lon="110.457628">
        <ele>120.010034</ele>
        <time>2026-08-16T09:05:36.000Z</time>
      </trkpt>
      <trkpt lat="22.796940" lon="110.457645">
        <ele>120.016164</ele>
        <time>2026-08-16T09:05:37.000Z</time>
      </trkpt>
      <trkpt lat="22.796968" lon="110.457672">
        <ele>120.022608</ele>
        <time>2026-08-16T09:05:38.000Z</time>
      </trkpt>
      <trkpt lat="22.796995" lon="110.457700">
        <ele>120.029033</ele>
        <time>2026-08-16T09:05:39.000Z</time>
      </trkpt>
      <trkpt lat="22.797028" lon="110.457721">
        <ele>120.035614</ele>
        <time>2026-08-16T09:05:40.000Z</time>
      </trkpt>
      <trkpt lat="22.797064" lon="110.457742">
        <ele>120.042645</ele>
        <time>2026-08-16T09:05:41.000Z</time>
      </trkpt>
      <trkpt lat="22.797104" lon="110.457760">
        <ele>120.050094</ele>
        <time>2026-08-16T09:05:42.000Z</time>
      </trkpt>
      <trkpt lat="22.797144" lon="110.457774">
        <ele>120.057324</ele>
        <time>2026-08-16T09:05:43.000Z</time>
      </trkpt>
      <trkpt lat="22.797184" lon="110.457788">
        <ele>120.064554</ele>
        <time>2026-08-16T09:05:44.000Z</time>
      </trkpt>
      <trkpt lat="22.797226" lon="110.457803">
        <ele>120.072160</ele>
        <time>2026-08-16T09:05:45.000Z</time>
      </trkpt>
      <trkpt lat="22.797271" lon="110.457814">
        <ele>120.080095</ele>
        <time>2026-08-16T09:05:46.000Z</time>
      </trkpt>
      <trkpt lat="22.797317" lon="110.457821">
        <ele>120.088085</ele>
        <time>2026-08-16T09:05:47.000Z</time>
      </trkpt>
      <trkpt lat="22.797366" lon="110.457828">
        <ele>120.096586</ele>
        <time>2026-08-16T09:05:48.000Z</time>
      </trkpt>
      <trkpt lat="22.797411" lon="110.457838">
        <ele>120.104488</ele>
        <time>2026-08-16T09:05:49.000Z</time>
      </trkpt>
      <trkpt lat="22.797453" lon="110.457854">
        <ele>120.112145</ele>
        <time>2026-08-16T09:05:50.000Z</time>
      </trkpt>
      <trkpt lat="22.797496" lon="110.457866">
        <ele>120.119782</ele>
        <time>2026-08-16T09:05:51.000Z</time>
      </trkpt>
      <trkpt lat="22.797541" lon="110.457882">
        <ele>120.127928</ele>
        <time>2026-08-16T09:05:52.000Z</time>
      </trkpt>
      <trkpt lat="22.797581" lon="110.457898">
        <ele>120.135261</ele>
        <time>2026-08-16T09:05:53.000Z</time>
      </trkpt>
      <trkpt lat="22.797621" lon="110.457915">
        <ele>120.142651</ele>
        <time>2026-08-16T09:05:54.000Z</time>
      </trkpt>
      <trkpt lat="22.797657" lon="110.457943">
        <ele>120.150271</ele>
        <time>2026-08-16T09:05:55.000Z</time>
      </trkpt>
      <trkpt lat="22.797698" lon="110.457972">
        <ele>120.238543</ele>
        <time>2026-08-16T09:05:56.000Z</time>
      </trkpt>
      <trkpt lat="22.797738" lon="110.458006">
        <ele>120.331842</ele>
        <time>2026-08-16T09:05:57.000Z</time>
      </trkpt>
      <trkpt lat="22.797776" lon="110.458043">
        <ele>120.425591</ele>
        <time>2026-08-16T09:05:58.000Z</time>
      </trkpt>
      <trkpt lat="22.797810" lon="110.458085">
        <ele>120.520195</ele>
        <time>2026-08-16T09:05:59.000Z</time>
      </trkpt>
      <trkpt lat="22.797844" lon="110.458125">
        <ele>120.612281</ele>
        <time>2026-08-16T09:06:00.000Z</time>
      </trkpt>
      <trkpt lat="22.797878" lon="110.458168">
        <ele>120.708163</ele>
        <time>2026-08-16T09:06:01.000Z</time>
      </trkpt>
      <trkpt lat="22.797905" lon="110.458216">
        <ele>120.803333</ele>
        <time>2026-08-16T09:06:02.000Z</time>
      </trkpt>
      <trkpt lat="22.797931" lon="110.458264">
        <ele>120.897560</ele>
        <time>2026-08-16T09:06:03.000Z</time>
      </trkpt>
      <trkpt lat="22.797959" lon="110.458312">
        <ele>120.993699</ele>
        <time>2026-08-16T09:06:04.000Z</time>
      </trkpt>
      <trkpt lat="22.797988" lon="110.458359">
        <ele>121.089422</ele>
        <time>2026-08-16T09:06:05.000Z</time>
      </trkpt>
      <trkpt lat="22.798016" lon="110.458407">
        <ele>121.185561</ele>
        <time>2026-08-16T09:06:06.000Z</time>
      </trkpt>
      <trkpt lat="22.798043" lon="110.458453">
        <ele>121.277858</ele>
        <time>2026-08-16T09:06:07.000Z</time>
      </trkpt>
      <trkpt lat="22.798071" lon="110.458500">
        <ele>121.372572</ele>
        <time>2026-08-16T09:06:08.000Z</time>
      </trkpt>
      <trkpt lat="22.798097" lon="110.458547">
        <ele>121.465343</ele>
        <time>2026-08-16T09:06:09.000Z</time>
      </trkpt>
      <trkpt lat="22.798121" lon="110.458593">
        <ele>121.554803</ele>
        <time>2026-08-16T09:06:10.000Z</time>
      </trkpt>
      <trkpt lat="22.798145" lon="110.458637">
        <ele>121.641333</ele>
        <time>2026-08-16T09:06:11.000Z</time>
      </trkpt>
      <trkpt lat="22.798167" lon="110.458680">
        <ele>121.724569</ele>
        <time>2026-08-16T09:06:12.000Z</time>
      </trkpt>
      <trkpt lat="22.798189" lon="110.458724">
        <ele>121.809288</ele>
        <time>2026-08-16T09:06:13.000Z</time>
      </trkpt>
      <trkpt lat="22.798212" lon="110.458768">
        <ele>121.894897</ele>
        <time>2026-08-16T09:06:14.000Z</time>
      </trkpt>
      <trkpt lat="22.798234" lon="110.458810">
        <ele>121.976657</ele>
        <time>2026-08-16T09:06:15.000Z</time>
      </trkpt>
      <trkpt lat="22.798254" lon="110.458852">
        <ele>122.056666</ele>
        <time>2026-08-16T09:06:16.000Z</time>
      </trkpt>
      <trkpt lat="22.798273" lon="110.458892">
        <ele>122.132825</ele>
        <time>2026-08-16T09:06:17.000Z</time>
      </trkpt>
      <trkpt lat="22.798290" lon="110.458930">
        <ele>122.204314</ele>
        <time>2026-08-16T09:06:18.000Z</time>
      </trkpt>
      <trkpt lat="22.798304" lon="110.458968">
        <ele>122.273576</ele>
        <time>2026-08-16T09:06:19.000Z</time>
      </trkpt>
      <trkpt lat="22.798317" lon="110.459002">
        <ele>122.335875</ele>
        <time>2026-08-16T09:06:20.000Z</time>
      </trkpt>
      <trkpt lat="22.798328" lon="110.459035">
        <ele>122.395267</ele>
        <time>2026-08-16T09:06:21.000Z</time>
      </trkpt>
      <trkpt lat="22.798337" lon="110.459066">
        <ele>122.450275</ele>
        <time>2026-08-16T09:06:22.000Z</time>
      </trkpt>
      <trkpt lat="22.798346" lon="110.459095">
        <ele>122.502065</ele>
        <time>2026-08-16T09:06:23.000Z</time>
      </trkpt>
      <trkpt lat="22.798352" lon="110.459123">
        <ele>122.550719</ele>
        <time>2026-08-16T09:06:24.000Z</time>
      </trkpt>
      <trkpt lat="22.798354" lon="110.459151">
        <ele>122.598251</ele>
        <time>2026-08-16T09:06:25.000Z</time>
      </trkpt>
      <trkpt lat="22.798356" lon="110.459179">
        <ele>122.645784</ele>
        <time>2026-08-16T09:06:26.000Z</time>
      </trkpt>
      <trkpt lat="22.798358" lon="110.459206">
        <ele>122.691629</ele>
        <time>2026-08-16T09:06:27.000Z</time>
      </trkpt>
      <trkpt lat="22.798364" lon="110.459230">
        <ele>122.733717</ele>
        <time>2026-08-16T09:06:28.000Z</time>
      </trkpt>
      <trkpt lat="22.798368" lon="110.459254">
        <ele>122.774996</ele>
        <time>2026-08-16T09:06:29.000Z</time>
      </trkpt>
      <trkpt lat="22.798370" lon="110.459282">
        <ele>122.822528</ele>
        <time>2026-08-16T09:06:30.000Z</time>
      </trkpt>
      <trkpt lat="22.798371" lon="110.459310">
        <ele>122.869954</ele>
        <time>2026-08-16T09:06:31.000Z</time>
      </trkpt>
      <trkpt lat="22.798374" lon="110.459337">
        <ele>122.915983</ele>
        <time>2026-08-16T09:06:32.000Z</time>
      </trkpt>
      <trkpt lat="22.798375" lon="110.459362">
        <ele>122.958336</ele>
        <time>2026-08-16T09:06:33.000Z</time>
      </trkpt>
      <trkpt lat="22.798376" lon="110.459389">
        <ele>123.004070</ele>
        <time>2026-08-16T09:06:34.000Z</time>
      </trkpt>
      <trkpt lat="22.798377" lon="110.459416">
        <ele>123.049805</ele>
        <time>2026-08-16T09:06:35.000Z</time>
      </trkpt>
      <trkpt lat="22.798378" lon="110.459446">
        <ele>123.100614</ele>
        <time>2026-08-16T09:06:36.000Z</time>
      </trkpt>
      <trkpt lat="22.798379" lon="110.459475">
        <ele>123.149731</ele>
        <time>2026-08-16T09:06:37.000Z</time>
      </trkpt>
      <trkpt lat="22.798377" lon="110.459504">
        <ele>123.198951</ele>
        <time>2026-08-16T09:06:38.000Z</time>
      </trkpt>
      <trkpt lat="22.798377" lon="110.459532">
        <ele>123.246342</ele>
        <time>2026-08-16T09:06:39.000Z</time>
      </trkpt>
      <trkpt lat="22.798376" lon="110.459560">
        <ele>123.293768</ele>
        <time>2026-08-16T09:06:40.000Z</time>
      </trkpt>
      <trkpt lat="22.798375" lon="110.459588">
        <ele>123.341194</ele>
        <time>2026-08-16T09:06:41.000Z</time>
      </trkpt>
      <trkpt lat="22.798375" lon="110.459614">
        <ele>123.385199</ele>
        <time>2026-08-16T09:06:42.000Z</time>
      </trkpt>
      <trkpt lat="22.798374" lon="110.459642">
        <ele>123.432625</ele>
        <time>2026-08-16T09:06:43.000Z</time>
      </trkpt>
      <trkpt lat="22.798372" lon="110.459669">
        <ele>123.430545</ele>
        <time>2026-08-16T09:06:44.000Z</time>
      </trkpt>
      <trkpt lat="22.798372" lon="110.459697">
        <ele>123.389943</ele>
        <time>2026-08-16T09:06:45.000Z</time>
      </trkpt>
      <trkpt lat="22.798374" lon="110.459728">
        <ele>123.344881</ele>
        <time>2026-08-16T09:06:46.000Z</time>
      </trkpt>
      <trkpt lat="22.798379" lon="110.459754">
        <ele>123.306368</ele>
        <time>2026-08-16T09:06:47.000Z</time>
      </trkpt>
      <trkpt lat="22.798382" lon="110.459779">
        <ele>123.269810</ele>
        <time>2026-08-16T09:06:48.000Z</time>
      </trkpt>
      <trkpt lat="22.798386" lon="110.459805">
        <ele>123.231587</ele>
        <time>2026-08-16T09:06:49.000Z</time>
      </trkpt>
      <trkpt lat="22.798389" lon="110.459834">
        <ele>123.189271</ele>
        <time>2026-08-16T09:06:50.000Z</time>
      </trkpt>
      <trkpt lat="22.798397" lon="110.459865">
        <ele>123.142591</ele>
        <time>2026-08-16T09:06:51.000Z</time>
      </trkpt>
      <trkpt lat="22.798403" lon="110.459897">
        <ele>123.095239</ele>
        <time>2026-08-16T09:06:52.000Z</time>
      </trkpt>
      <trkpt lat="22.798408" lon="110.459931">
        <ele>123.045313</ele>
        <time>2026-08-16T09:06:53.000Z</time>
      </trkpt>
      <trkpt lat="22.798416" lon="110.459963">
        <ele>122.997235</ele>
        <time>2026-08-16T09:06:54.000Z</time>
      </trkpt>
      <trkpt lat="22.798430" lon="110.459997">
        <ele>122.943238</ele>
        <time>2026-08-16T09:06:55.000Z</time>
      </trkpt>
      <trkpt lat="22.798450" lon="110.460032">
        <ele>122.883527</ele>
        <time>2026-08-16T09:06:56.000Z</time>
      </trkpt>
      <trkpt lat="22.798472" lon="110.460067">
        <ele>122.822099</ele>
        <time>2026-08-16T09:06:57.000Z</time>
      </trkpt>
      <trkpt lat="22.798496" lon="110.460101">
        <ele>122.760004</ele>
        <time>2026-08-16T09:06:58.000Z</time>
      </trkpt>
      <trkpt lat="22.798524" lon="110.460133">
        <ele>122.696028</ele>
        <time>2026-08-16T09:06:59.000Z</time>
      </trkpt>
      <trkpt lat="22.798556" lon="110.460164">
        <ele>122.628543</ele>
        <time>2026-08-16T09:07:00.000Z</time>
      </trkpt>
      <trkpt lat="22.798595" lon="110.460193">
        <ele>122.554168</ele>
        <time>2026-08-16T09:07:01.000Z</time>
      </trkpt>
      <trkpt lat="22.798633" lon="110.460224">
        <ele>122.479379</ele>
        <time>2026-08-16T09:07:02.000Z</time>
      </trkpt>
      <trkpt lat="22.798674" lon="110.460258">
        <ele>122.398201</ele>
        <time>2026-08-16T09:07:03.000Z</time>
      </trkpt>
      <trkpt lat="22.798717" lon="110.460291">
        <ele>122.315348</ele>
        <time>2026-08-16T09:07:04.000Z</time>
      </trkpt>
      <trkpt lat="22.798758" lon="110.460325">
        <ele>122.234170</ele>
        <time>2026-08-16T09:07:05.000Z</time>
      </trkpt>
      <trkpt lat="22.798801" lon="110.460362">
        <ele>122.147837</ele>
        <time>2026-08-16T09:07:06.000Z</time>
      </trkpt>
      <trkpt lat="22.798843" lon="110.460403">
        <ele>122.058961</ele>
        <time>2026-08-16T09:07:07.000Z</time>
      </trkpt>
      <trkpt lat="22.798882" lon="110.460451">
        <ele>121.966182</ele>
        <time>2026-08-16T09:07:08.000Z</time>
      </trkpt>
      <trkpt lat="22.798927" lon="110.460501">
        <ele>121.864856</ele>
        <time>2026-08-16T09:07:09.000Z</time>
      </trkpt>
      <trkpt lat="22.798969" lon="110.460554">
        <ele>121.763511</ele>
        <time>2026-08-16T09:07:10.000Z</time>
      </trkpt>
      <trkpt lat="22.799009" lon="110.460611">
        <ele>121.659634</ele>
        <time>2026-08-16T09:07:11.000Z</time>
      </trkpt>
      <trkpt lat="22.799051" lon="110.460669">
        <ele>121.552686</ele>
        <time>2026-08-16T09:07:12.000Z</time>
      </trkpt>
      <trkpt lat="22.799094" lon="110.460729">
        <ele>121.442485</ele>
        <time>2026-08-16T09:07:13.000Z</time>
      </trkpt>
      <trkpt lat="22.799139" lon="110.460790">
        <ele>121.329196</ele>
        <time>2026-08-16T09:07:14.000Z</time>
      </trkpt>
      <trkpt lat="22.799184" lon="110.460855">
        <ele>121.211323</ele>
        <time>2026-08-16T09:07:15.000Z</time>
      </trkpt>
      <trkpt lat="22.799230" lon="110.460917">
        <ele>121.095919</ele>
        <time>2026-08-16T09:07:16.000Z</time>
      </trkpt>
      <trkpt lat="22.799276" lon="110.460980">
        <ele>120.979382</ele>
        <time>2026-08-16T09:07:17.000Z</time>
      </trkpt>
      <trkpt lat="22.799321" lon="110.461043">
        <ele>120.863815</ele>
        <time>2026-08-16T09:07:18.000Z</time>
      </trkpt>
      <trkpt lat="22.799366" lon="110.461107">
        <ele>120.747098</ele>
        <time>2026-08-16T09:07:19.000Z</time>
      </trkpt>
      <trkpt lat="22.799410" lon="110.461171">
        <ele>120.631329</ele>
        <time>2026-08-16T09:07:20.000Z</time>
      </trkpt>
      <trkpt lat="22.799451" lon="110.461235">
        <ele>120.637876</ele>
        <time>2026-08-16T09:07:21.000Z</time>
      </trkpt>
      <trkpt lat="22.799492" lon="110.461294">
        <ele>120.652552</ele>
        <time>2026-08-16T09:07:22.000Z</time>
      </trkpt>
      <trkpt lat="22.799531" lon="110.461351">
        <ele>120.666651</ele>
        <time>2026-08-16T09:07:23.000Z</time>
      </trkpt>
      <trkpt lat="22.799568" lon="110.461406">
        <ele>120.680176</ele>
        <time>2026-08-16T09:07:24.000Z</time>
      </trkpt>
      <trkpt lat="22.799605" lon="110.461457">
        <ele>120.693067</ele>
        <time>2026-08-16T09:07:25.000Z</time>
      </trkpt>
      <trkpt lat="22.799644" lon="110.461509">
        <ele>120.706383</ele>
        <time>2026-08-16T09:07:26.000Z</time>
      </trkpt>
      <trkpt lat="22.799673" lon="110.461562">
        <ele>120.718625</ele>
        <time>2026-08-16T09:07:27.000Z</time>
      </trkpt>
      <trkpt lat="22.799701" lon="110.461613">
        <ele>120.730416</ele>
        <time>2026-08-16T09:07:28.000Z</time>
      </trkpt>
      <trkpt lat="22.799730" lon="110.461659">
        <ele>120.741485</ele>
        <time>2026-08-16T09:07:29.000Z</time>
      </trkpt>
      <trkpt lat="22.799758" lon="110.461710">
        <ele>120.753276</ele>
        <time>2026-08-16T09:07:30.000Z</time>
      </trkpt>
      <trkpt lat="22.799782" lon="110.461764">
        <ele>120.765183</ele>
        <time>2026-08-16T09:07:31.000Z</time>
      </trkpt>
      <trkpt lat="22.799805" lon="110.461816">
        <ele>120.776640</ele>
        <time>2026-08-16T09:07:32.000Z</time>
      </trkpt>
      <trkpt lat="22.799823" lon="110.461870">
        <ele>120.788045</ele>
        <time>2026-08-16T09:07:33.000Z</time>
      </trkpt>
      <trkpt lat="22.799838" lon="110.461923">
        <ele>120.799058</ele>
        <time>2026-08-16T09:07:34.000Z</time>
      </trkpt>
      <trkpt lat="22.799851" lon="110.461974">
        <ele>120.809568</ele>
        <time>2026-08-16T09:07:35.000Z</time>
      </trkpt>
      <trkpt lat="22.799862" lon="110.462029">
        <ele>120.820747</ele>
        <time>2026-08-16T09:07:36.000Z</time>
      </trkpt>
      <trkpt lat="22.799867" lon="110.462079">
        <ele>120.830737</ele>
        <time>2026-08-16T09:07:37.000Z</time>
      </trkpt>
      <trkpt lat="22.799874" lon="110.462134">
        <ele>120.841766</ele>
        <time>2026-08-16T09:07:38.000Z</time>
      </trkpt>
      <trkpt lat="22.799884" lon="110.462189">
        <ele>120.852901</ele>
        <time>2026-08-16T09:07:39.000Z</time>
      </trkpt>
      <trkpt lat="22.799895" lon="110.462243">
        <ele>120.863886</ele>
        <time>2026-08-16T09:07:40.000Z</time>
      </trkpt>
      <trkpt lat="22.799906" lon="110.462297">
        <ele>120.874871</ele>
        <time>2026-08-16T09:07:41.000Z</time>
      </trkpt>
      <trkpt lat="22.799917" lon="110.462354">
        <ele>120.886438</ele>
        <time>2026-08-16T09:07:42.000Z</time>
      </trkpt>
      <trkpt lat="22.799928" lon="110.462410">
        <ele>120.897811</ele>
        <time>2026-08-16T09:07:43.000Z</time>
      </trkpt>
      <trkpt lat="22.799939" lon="110.462465">
        <ele>120.908990</ele>
        <time>2026-08-16T09:07:44.000Z</time>
      </trkpt>
      <trkpt lat="22.799951" lon="110.462521">
        <ele>120.920410</ele>
        <time>2026-08-16T09:07:45.000Z</time>
      </trkpt>
      <trkpt lat="22.799963" lon="110.462577">
        <ele>120.931830</ele>
        <time>2026-08-16T09:07:46.000Z</time>
      </trkpt>
      <trkpt lat="22.799974" lon="110.462632">
        <ele>120.943009</ele>
        <time>2026-08-16T09:07:47.000Z</time>
      </trkpt>
      <trkpt lat="22.799984" lon="110.462688">
        <ele>120.954339</ele>
        <time>2026-08-16T09:07:48.000Z</time>
      </trkpt>
      <trkpt lat="22.799995" lon="110.462743">
        <ele>120.965518</ele>
        <time>2026-08-16T09:07:49.000Z</time>
      </trkpt>
      <trkpt lat="22.800007" lon="110.462797">
        <ele>120.976552</ele>
        <time>2026-08-16T09:07:50.000Z</time>
      </trkpt>
      <trkpt lat="22.800017" lon="110.462851">
        <ele>120.987492</ele>
        <time>2026-08-16T09:07:51.000Z</time>
      </trkpt>
      <trkpt lat="22.800026" lon="110.462905">
        <ele>120.998392</ele>
        <time>2026-08-16T09:07:52.000Z</time>
      </trkpt>
      <trkpt lat="22.800034" lon="110.462959">
        <ele>121.009256</ele>
        <time>2026-08-16T09:07:53.000Z</time>
      </trkpt>
      <trkpt lat="22.800042" lon="110.463011">
        <ele>121.022542</ele>
        <time>2026-08-16T09:07:54.000Z</time>
      </trkpt>
      <trkpt lat="22.800051" lon="110.463063">
        <ele>121.036448</ele>
        <time>2026-08-16T09:07:55.000Z</time>
      </trkpt>
      <trkpt lat="22.800060" lon="110.463114">
        <ele>121.050097</ele>
        <time>2026-08-16T09:07:56.000Z</time>
      </trkpt>
      <trkpt lat="22.800072" lon="110.463166">
        <ele>121.064186</ele>
        <time>2026-08-16T09:07:57.000Z</time>
      </trkpt>
      <trkpt lat="22.800083" lon="110.463218">
        <ele>121.078209</ele>
        <time>2026-08-16T09:07:58.000Z</time>
      </trkpt>
      <trkpt lat="22.800097" lon="110.463270">
        <ele>121.092448</ele>
        <time>2026-08-16T09:07:59.000Z</time>
      </trkpt>
      <trkpt lat="22.800109" lon="110.463323">
        <ele>121.106793</ele>
        <time>2026-08-16T09:08:00.000Z</time>
      </trkpt>
      <trkpt lat="22.800124" lon="110.463375">
        <ele>121.121114</ele>
        <time>2026-08-16T09:08:01.000Z</time>
      </trkpt>
      <trkpt lat="22.800140" lon="110.463424">
        <ele>121.134777</ele>
        <time>2026-08-16T09:08:02.000Z</time>
      </trkpt>
      <trkpt lat="22.800158" lon="110.463474">
        <ele>121.148886</ele>
        <time>2026-08-16T09:08:03.000Z</time>
      </trkpt>
      <trkpt lat="22.800178" lon="110.463524">
        <ele>121.163212</ele>
        <time>2026-08-16T09:08:04.000Z</time>
      </trkpt>
      <trkpt lat="22.800199" lon="110.463573">
        <ele>121.177415</ele>
        <time>2026-08-16T09:08:05.000Z</time>
      </trkpt>
      <trkpt lat="22.800219" lon="110.463620">
        <ele>121.191021</ele>
        <time>2026-08-16T09:08:06.000Z</time>
      </trkpt>
      <trkpt lat="22.800240" lon="110.463667">
        <ele>121.204749</ele>
        <time>2026-08-16T09:08:07.000Z</time>
      </trkpt>
      <trkpt lat="22.800263" lon="110.463711">
        <ele>121.218044</ele>
        <time>2026-08-16T09:08:08.000Z</time>
      </trkpt>
      <trkpt lat="22.800287" lon="110.463756">
        <ele>121.231709</ele>
        <time>2026-08-16T09:08:09.000Z</time>
      </trkpt>
      <trkpt lat="22.800313" lon="110.463802">
        <ele>121.245891</ele>
        <time>2026-08-16T09:08:10.000Z</time>
      </trkpt>
      <trkpt lat="22.800340" lon="110.463849">
        <ele>121.260447</ele>
        <time>2026-08-16T09:08:11.000Z</time>
      </trkpt>
      <trkpt lat="22.800368" lon="110.463893">
        <ele>121.274500</ele>
        <time>2026-08-16T09:08:12.000Z</time>
      </trkpt>
      <trkpt lat="22.800398" lon="110.463936">
        <ele>121.288674</ele>
        <time>2026-08-16T09:08:13.000Z</time>
      </trkpt>
      <trkpt lat="22.800429" lon="110.463979">
        <ele>121.303022</ele>
        <time>2026-08-16T09:08:14.000Z</time>
      </trkpt>
      <trkpt lat="22.800462" lon="110.464021">
        <ele>121.317527</ele>
        <time>2026-08-16T09:08:15.000Z</time>
      </trkpt>
      <trkpt lat="22.800495" lon="110.464064">
        <ele>121.332233</ele>
        <time>2026-08-16T09:08:16.000Z</time>
      </trkpt>
      <trkpt lat="22.800527" lon="110.464105">
        <ele>121.346353</ele>
        <time>2026-08-16T09:08:17.000Z</time>
      </trkpt>
      <trkpt lat="22.800559" lon="110.464146">
        <ele>121.360473</ele>
        <time>2026-08-16T09:08:18.000Z</time>
      </trkpt>
      <trkpt lat="22.800593" lon="110.464187">
        <ele>121.374968</ele>
        <time>2026-08-16T09:08:19.000Z</time>
      </trkpt>
      <trkpt lat="22.800628" lon="110.464229">
        <ele>121.389849</ele>
        <time>2026-08-16T09:08:20.000Z</time>
      </trkpt>
      <trkpt lat="22.800661" lon="110.464271">
        <ele>121.404354</ele>
        <time>2026-08-16T09:08:21.000Z</time>
      </trkpt>
      <trkpt lat="22.800694" lon="110.464311">
        <ele>121.418463</ele>
        <time>2026-08-16T09:08:22.000Z</time>
      </trkpt>
      <trkpt lat="22.800728" lon="110.464352">
        <ele>121.432958</ele>
        <time>2026-08-16T09:08:23.000Z</time>
      </trkpt>
      <trkpt lat="22.800764" lon="110.464394">
        <ele>121.448032</ele>
        <time>2026-08-16T09:08:24.000Z</time>
      </trkpt>
      <trkpt lat="22.800799" lon="110.464435">
        <ele>121.462720</ele>
        <time>2026-08-16T09:08:25.000Z</time>
      </trkpt>
      <trkpt lat="22.800835" lon="110.464474">
        <ele>121.477226</ele>
        <time>2026-08-16T09:08:26.000Z</time>
      </trkpt>
      <trkpt lat="22.800872" lon="110.464514">
        <ele>121.492120</ele>
        <time>2026-08-16T09:08:27.000Z</time>
      </trkpt>
      <trkpt lat="22.800908" lon="110.464556">
        <ele>121.507194</ele>
        <time>2026-08-16T09:08:28.000Z</time>
      </trkpt>
      <trkpt lat="22.800942" lon="110.464599">
        <ele>121.522084</ele>
        <time>2026-08-16T09:08:29.000Z</time>
      </trkpt>
      <trkpt lat="22.800977" lon="110.464640">
        <ele>121.560401</ele>
        <time>2026-08-16T09:08:30.000Z</time>
      </trkpt>
      <trkpt lat="22.801011" lon="110.464680">
        <ele>121.600860</ele>
        <time>2026-08-16T09:08:31.000Z</time>
      </trkpt>
      <trkpt lat="22.801047" lon="110.464723">
        <ele>121.644053</ele>
        <time>2026-08-16T09:08:32.000Z</time>
      </trkpt>
      <trkpt lat="22.801080" lon="110.464766">
        <ele>121.685658</ele>
        <time>2026-08-16T09:08:33.000Z</time>
      </trkpt>
      <trkpt lat="22.801115" lon="110.464808">
        <ele>121.727759</ele>
        <time>2026-08-16T09:08:34.000Z</time>
      </trkpt>
      <trkpt lat="22.801147" lon="110.464851">
        <ele>121.768852</ele>
        <time>2026-08-16T09:08:35.000Z</time>
      </trkpt>
      <trkpt lat="22.801180" lon="110.464897">
        <ele>121.812195</ele>
        <time>2026-08-16T09:08:36.000Z</time>
      </trkpt>
      <trkpt lat="22.801212" lon="110.464941">
        <ele>121.853870</ele>
        <time>2026-08-16T09:08:37.000Z</time>
      </trkpt>
      <trkpt lat="22.801246" lon="110.464984">
        <ele>121.895996</ele>
        <time>2026-08-16T09:08:38.000Z</time>
      </trkpt>
      <trkpt lat="22.801279" lon="110.465029">
        <ele>121.938754</ele>
        <time>2026-08-16T09:08:39.000Z</time>
      </trkpt>
      <trkpt lat="22.801311" lon="110.465073">
        <ele>121.980429</ele>
        <time>2026-08-16T09:08:40.000Z</time>
      </trkpt>
      <trkpt lat="22.801344" lon="110.465114">
        <ele>122.020902</ele>
        <time>2026-08-16T09:08:41.000Z</time>
      </trkpt>
      <trkpt lat="22.801379" lon="110.465157">
        <ele>122.063557</ele>
        <time>2026-08-16T09:08:42.000Z</time>
      </trkpt>
      <trkpt lat="22.801413" lon="110.465199">
        <ele>122.105121</ele>
        <time>2026-08-16T09:08:43.000Z</time>
      </trkpt>
      <trkpt lat="22.801447" lon="110.465238">
        <ele>122.145036</ele>
        <time>2026-08-16T09:08:44.000Z</time>
      </trkpt>
      <trkpt lat="22.801481" lon="110.465275">
        <ele>122.183884</ele>
        <time>2026-08-16T09:08:45.000Z</time>
      </trkpt>
      <trkpt lat="22.801513" lon="110.465313">
        <ele>122.222156</ele>
        <time>2026-08-16T09:08:46.000Z</time>
      </trkpt>
      <trkpt lat="22.801542" lon="110.465351">
        <ele>122.258839</ele>
        <time>2026-08-16T09:08:47.000Z</time>
      </trkpt>
      <trkpt lat="22.801569" lon="110.465390">
        <ele>122.295107</ele>
        <time>2026-08-16T09:08:48.000Z</time>
      </trkpt>
      <trkpt lat="22.801593" lon="110.465428">
        <ele>122.329360</ele>
        <time>2026-08-16T09:08:49.000Z</time>
      </trkpt>
      <trkpt lat="22.801615" lon="110.465464">
        <ele>122.361477</ele>
        <time>2026-08-16T09:08:50.000Z</time>
      </trkpt>
      <trkpt lat="22.801635" lon="110.465497">
        <ele>122.390844</ele>
        <time>2026-08-16T09:08:51.000Z</time>
      </trkpt>
      <trkpt lat="22.801655" lon="110.465530">
        <ele>122.420211</ele>
        <time>2026-08-16T09:08:52.000Z</time>
      </trkpt>
      <trkpt lat="22.801675" lon="110.465564">
        <ele>122.450202</ele>
        <time>2026-08-16T09:08:53.000Z</time>
      </trkpt>
      <trkpt lat="22.801696" lon="110.465599">
        <ele>122.481256</ele>
        <time>2026-08-16T09:08:54.000Z</time>
      </trkpt>
      <trkpt lat="22.801718" lon="110.465636">
        <ele>122.513996</ele>
        <time>2026-08-16T09:08:55.000Z</time>
      </trkpt>
      <trkpt lat="22.801738" lon="110.465675">
        <ele>122.547181</ele>
        <time>2026-08-16T09:08:56.000Z</time>
      </trkpt>
      <trkpt lat="22.801761" lon="110.465714">
        <ele>122.581608</ele>
        <time>2026-08-16T09:08:57.000Z</time>
      </trkpt>
      <trkpt lat="22.801783" lon="110.465751">
        <ele>122.614348</ele>
        <time>2026-08-16T09:08:58.000Z</time>
      </trkpt>
      <trkpt lat="22.801800" lon="110.465788">
        <ele>122.645090</ele>
        <time>2026-08-16T09:08:59.000Z</time>
      </trkpt>
      <trkpt lat="22.801805" lon="110.465828">
        <ele>122.675106</ele>
        <time>2026-08-16T09:09:00.000Z</time>
      </trkpt>
      <trkpt lat="22.801820" lon="110.465868">
        <ele>122.707217</ele>
        <time>2026-08-16T09:09:01.000Z</time>
      </trkpt>
      <trkpt lat="22.801842" lon="110.465901">
        <ele>122.737500</ele>
        <time>2026-08-16T09:09:02.000Z</time>
      </trkpt>
      <trkpt lat="22.801870" lon="110.465919">
        <ele>122.763754</ele>
        <time>2026-08-16T09:09:03.000Z</time>
      </trkpt>
      <trkpt lat="22.801893" lon="110.465918">
        <ele>122.782322</ele>
        <time>2026-08-16T09:09:04.000Z</time>
      </trkpt>
      <trkpt lat="22.801909" lon="110.465908">
        <ele>122.797217</ele>
        <time>2026-08-16T09:09:05.000Z</time>
      </trkpt>
      <trkpt lat="22.801913" lon="110.465894">
        <ele>122.808116</ele>
        <time>2026-08-16T09:09:06.000Z</time>
      </trkpt>
      <trkpt lat="22.801910" lon="110.465883">
        <ele>122.816646</ele>
        <time>2026-08-16T09:09:07.000Z</time>
      </trkpt>
      <trkpt lat="22.801909" lon="110.465875">
        <ele>122.822649</ele>
        <time>2026-08-16T09:09:08.000Z</time>
      </trkpt>
      <trkpt lat="22.801911" lon="110.465870">
        <ele>122.826702</ele>
        <time>2026-08-16T09:09:09.000Z</time>
      </trkpt>
      <trkpt lat="22.801914" lon="110.465867">
        <ele>122.829993</ele>
        <time>2026-08-16T09:09:10.000Z</time>
      </trkpt>
      <trkpt lat="22.801892" lon="110.465870">
        <ele>122.847879</ele>
        <time>2026-08-16T09:10:29.000Z</time>
      </trkpt>
      <trkpt lat="22.801885" lon="110.465898">
        <ele>122.869452</ele>
        <time>2026-08-16T09:10:30.000Z</time>
      </trkpt>
      <trkpt lat="22.801884" lon="110.465933">
        <ele>122.895490</ele>
        <time>2026-08-16T09:10:31.000Z</time>
      </trkpt>
      <trkpt lat="22.801890" lon="110.465972">
        <ele>122.924892</ele>
        <time>2026-08-16T09:10:32.000Z</time>
      </trkpt>
      <trkpt lat="22.801898" lon="110.466014">
        <ele>122.956783</ele>
        <time>2026-08-16T09:10:33.000Z</time>
      </trkpt>
      <trkpt lat="22.801900" lon="110.466047">
        <ele>122.978158</ele>
        <time>2026-08-16T09:10:34.000Z</time>
      </trkpt>
      <trkpt lat="22.801901" lon="110.466080">
        <ele>122.990864</ele>
        <time>2026-08-16T09:10:35.000Z</time>
      </trkpt>
      <trkpt lat="22.801894" lon="110.466117">
        <ele>123.005399</ele>
        <time>2026-08-16T09:10:36.000Z</time>
      </trkpt>
      <trkpt lat="22.801899" lon="110.466154">
        <ele>123.019789</ele>
        <time>2026-08-16T09:10:37.000Z</time>
      </trkpt>
      <trkpt lat="22.801904" lon="110.466193">
        <ele>123.034942</ele>
        <time>2026-08-16T09:10:38.000Z</time>
      </trkpt>
      <trkpt lat="22.801912" lon="110.466236">
        <ele>123.051822</ele>
        <time>2026-08-16T09:10:39.000Z</time>
      </trkpt>
      <trkpt lat="22.801929" lon="110.466284">
        <ele>123.071610</ele>
        <time>2026-08-16T09:10:40.000Z</time>
      </trkpt>
      <trkpt lat="22.801939" lon="110.466332">
        <ele>123.090547</ele>
        <time>2026-08-16T09:10:41.000Z</time>
      </trkpt>
      <trkpt lat="22.801956" lon="110.466373">
        <ele>123.107847</ele>
        <time>2026-08-16T09:10:42.000Z</time>
      </trkpt>
      <trkpt lat="22.801974" lon="110.466413">
        <ele>123.124976</ele>
        <time>2026-08-16T09:10:43.000Z</time>
      </trkpt>
      <trkpt lat="22.801995" lon="110.466458">
        <ele>123.144385</ele>
        <time>2026-08-16T09:10:44.000Z</time>
      </trkpt>
      <trkpt lat="22.802012" lon="110.466502">
        <ele>123.162744</ele>
        <time>2026-08-16T09:10:45.000Z</time>
      </trkpt>
      <trkpt lat="22.802030" lon="110.466552">
        <ele>123.183400</ele>
        <time>2026-08-16T09:10:46.000Z</time>
      </trkpt>
      <trkpt lat="22.802049" lon="110.466602">
        <ele>123.204211</ele>
        <time>2026-08-16T09:10:47.000Z</time>
      </trkpt>
      <trkpt lat="22.802054" lon="110.466659">
        <ele>123.226245</ele>
        <time>2026-08-16T09:10:48.000Z</time>
      </trkpt>
      <trkpt lat="22.802067" lon="110.466706">
        <ele>123.245128</ele>
        <time>2026-08-16T09:10:49.000Z</time>
      </trkpt>
      <trkpt lat="22.802082" lon="110.466756">
        <ele>123.265362</ele>
        <time>2026-08-16T09:10:50.000Z</time>
      </trkpt>
      <trkpt lat="22.802100" lon="110.466807">
        <ele>123.286377</ele>
        <time>2026-08-16T09:10:51.000Z</time>
      </trkpt>
      <trkpt lat="22.802119" lon="110.466856">
        <ele>123.306833</ele>
        <time>2026-08-16T09:10:52.000Z</time>
      </trkpt>
      <trkpt lat="22.802132" lon="110.466911">
        <ele>123.328682</ele>
        <time>2026-08-16T09:10:53.000Z</time>
      </trkpt>
      <trkpt lat="22.802147" lon="110.466961">
        <ele>123.348917</ele>
        <time>2026-08-16T09:10:54.000Z</time>
      </trkpt>
      <trkpt lat="22.802161" lon="110.467009">
        <ele>123.368290</ele>
        <time>2026-08-16T09:10:55.000Z</time>
      </trkpt>
      <trkpt lat="22.802175" lon="110.467058">
        <ele>123.388031</ele>
        <time>2026-08-16T09:10:56.000Z</time>
      </trkpt>
      <trkpt lat="22.802191" lon="110.467104">
        <ele>123.406951</ele>
        <time>2026-08-16T09:10:57.000Z</time>
      </trkpt>
      <trkpt lat="22.802206" lon="110.467150">
        <ele>123.425727</ele>
        <time>2026-08-16T09:10:58.000Z</time>
      </trkpt>
      <trkpt lat="22.802219" lon="110.467196">
        <ele>123.444242</ele>
        <time>2026-08-16T09:10:59.000Z</time>
      </trkpt>
      <trkpt lat="22.802232" lon="110.467239">
        <ele>123.461656</ele>
        <time>2026-08-16T09:11:00.000Z</time>
      </trkpt>
      <trkpt lat="22.802245" lon="110.467282">
        <ele>123.479070</ele>
        <time>2026-08-16T09:11:01.000Z</time>
      </trkpt>
      <trkpt lat="22.802258" lon="110.467322">
        <ele>123.495392</ele>
        <time>2026-08-16T09:11:02.000Z</time>
      </trkpt>
      <trkpt lat="22.802271" lon="110.467361">
        <ele>123.511350</ele>
        <time>2026-08-16T09:11:03.000Z</time>
      </trkpt>
      <trkpt lat="22.802283" lon="110.467401">
        <ele>123.527538</ele>
        <time>2026-08-16T09:11:04.000Z</time>
      </trkpt>
      <trkpt lat="22.802293" lon="110.467439">
        <ele>123.542745</ele>
        <time>2026-08-16T09:11:05.000Z</time>
      </trkpt>
      <trkpt lat="22.802304" lon="110.467479">
        <ele>123.558808</ele>
        <time>2026-08-16T09:11:06.000Z</time>
      </trkpt>
      <trkpt lat="22.802315" lon="110.467518">
        <ele>123.574502</ele>
        <time>2026-08-16T09:11:07.000Z</time>
      </trkpt>
      <trkpt lat="22.802328" lon="110.467557">
        <ele>123.590461</ele>
        <time>2026-08-16T09:11:08.000Z</time>
      </trkpt>
      <trkpt lat="22.802342" lon="110.467597">
        <ele>123.606926</ele>
        <time>2026-08-16T09:11:09.000Z</time>
      </trkpt>
      <trkpt lat="22.802353" lon="110.467642">
        <ele>123.624841</ele>
        <time>2026-08-16T09:11:10.000Z</time>
      </trkpt>
      <trkpt lat="22.802365" lon="110.467683">
        <ele>123.641395</ele>
        <time>2026-08-16T09:11:11.000Z</time>
      </trkpt>
      <trkpt lat="22.802377" lon="110.467724">
        <ele>123.657948</ele>
        <time>2026-08-16T09:11:12.000Z</time>
      </trkpt>
      <trkpt lat="22.802389" lon="110.467768">
        <ele>123.675606</ele>
        <time>2026-08-16T09:11:13.000Z</time>
      </trkpt>
      <trkpt lat="22.802400" lon="110.467810">
        <ele>123.692407</ele>
        <time>2026-08-16T09:11:14.000Z</time>
      </trkpt>
      <trkpt lat="22.802412" lon="110.467853">
        <ele>123.709696</ele>
        <time>2026-08-16T09:11:15.000Z</time>
      </trkpt>
      <trkpt lat="22.802426" lon="110.467894">
        <ele>123.725689</ele>
        <time>2026-08-16T09:11:16.000Z</time>
      </trkpt>
      <trkpt lat="22.802438" lon="110.467935">
        <ele>123.728288</ele>
        <time>2026-08-16T09:11:17.000Z</time>
      </trkpt>
      <trkpt lat="22.802453" lon="110.467975">
        <ele>123.730897</ele>
        <time>2026-08-16T09:11:18.000Z</time>
      </trkpt>
      <trkpt lat="22.802466" lon="110.468016">
        <ele>123.733517</ele>
        <time>2026-08-16T09:11:19.000Z</time>
      </trkpt>
      <trkpt lat="22.802480" lon="110.468058">
        <ele>123.736216</ele>
        <time>2026-08-16T09:11:20.000Z</time>
      </trkpt>
      <trkpt lat="22.802494" lon="110.468102">
        <ele>123.739029</ele>
        <time>2026-08-16T09:11:21.000Z</time>
      </trkpt>
      <trkpt lat="22.802508" lon="110.468145">
        <ele>123.741784</ele>
        <time>2026-08-16T09:11:22.000Z</time>
      </trkpt>
      <trkpt lat="22.802521" lon="110.468188">
        <ele>123.744519</ele>
        <time>2026-08-16T09:11:23.000Z</time>
      </trkpt>
      <trkpt lat="22.802538" lon="110.468230">
        <ele>123.747290</ele>
        <time>2026-08-16T09:11:24.000Z</time>
      </trkpt>
      <trkpt lat="22.802556" lon="110.468272">
        <ele>123.750089</ele>
        <time>2026-08-16T09:11:25.000Z</time>
      </trkpt>
      <trkpt lat="22.802576" lon="110.468313">
        <ele>123.752892</ele>
        <time>2026-08-16T09:11:26.000Z</time>
      </trkpt>
      <trkpt lat="22.802595" lon="110.468355">
        <ele>123.755719</ele>
        <time>2026-08-16T09:11:27.000Z</time>
      </trkpt>
      <trkpt lat="22.802616" lon="110.468396">
        <ele>123.758553</ele>
        <time>2026-08-16T09:11:28.000Z</time>
      </trkpt>
      <trkpt lat="22.802637" lon="110.468437">
        <ele>123.761387</ele>
        <time>2026-08-16T09:11:29.000Z</time>
      </trkpt>
      <trkpt lat="22.802661" lon="110.468478">
        <ele>123.764322</ele>
        <time>2026-08-16T09:11:30.000Z</time>
      </trkpt>
      <trkpt lat="22.802685" lon="110.468518">
        <ele>123.767206</ele>
        <time>2026-08-16T09:11:31.000Z</time>
      </trkpt>
      <trkpt lat="22.802711" lon="110.468557">
        <ele>123.770114</ele>
        <time>2026-08-16T09:11:32.000Z</time>
      </trkpt>
      <trkpt lat="22.802736" lon="110.468596">
        <ele>123.772984</ele>
        <time>2026-08-16T09:11:33.000Z</time>
      </trkpt>
      <trkpt lat="22.802765" lon="110.468634">
        <ele>123.775965</ele>
        <time>2026-08-16T09:11:34.000Z</time>
      </trkpt>
      <trkpt lat="22.802795" lon="110.468673">
        <ele>123.779034</ele>
        <time>2026-08-16T09:11:35.000Z</time>
      </trkpt>
      <trkpt lat="22.802824" lon="110.468710">
        <ele>123.781969</ele>
        <time>2026-08-16T09:11:36.000Z</time>
      </trkpt>
      <trkpt lat="22.802851" lon="110.468746">
        <ele>123.784773</ele>
        <time>2026-08-16T09:11:37.000Z</time>
      </trkpt>
      <trkpt lat="22.802879" lon="110.468782">
        <ele>123.787619</ele>
        <time>2026-08-16T09:11:38.000Z</time>
      </trkpt>
      <trkpt lat="22.802908" lon="110.468817">
        <ele>123.790463</ele>
        <time>2026-08-16T09:11:39.000Z</time>
      </trkpt>
      <trkpt lat="22.802941" lon="110.468851">
        <ele>123.793446</ele>
        <time>2026-08-16T09:11:40.000Z</time>
      </trkpt>
      <trkpt lat="22.802976" lon="110.468884">
        <ele>123.796486</ele>
        <time>2026-08-16T09:11:41.000Z</time>
      </trkpt>
      <trkpt lat="22.803011" lon="110.468919">
        <ele>123.799606</ele>
        <time>2026-08-16T09:11:42.000Z</time>
      </trkpt>
      <trkpt lat="22.803048" lon="110.468952">
        <ele>123.802746</ele>
        <time>2026-08-16T09:11:43.000Z</time>
      </trkpt>
      <trkpt lat="22.803084" lon="110.468986">
        <ele>123.805874</ele>
        <time>2026-08-16T09:11:44.000Z</time>
      </trkpt>
      <trkpt lat="22.803122" lon="110.469020">
        <ele>123.809103</ele>
        <time>2026-08-16T09:11:45.000Z</time>
      </trkpt>
      <trkpt lat="22.803159" lon="110.469055">
        <ele>123.812321</ele>
        <time>2026-08-16T09:11:46.000Z</time>
      </trkpt>
      <trkpt lat="22.803198" lon="110.469092">
        <ele>123.815717</ele>
        <time>2026-08-16T09:11:47.000Z</time>
      </trkpt>
      <trkpt lat="22.803236" lon="110.469127">
        <ele>123.818985</ele>
        <time>2026-08-16T09:11:48.000Z</time>
      </trkpt>
      <trkpt lat="22.803275" lon="110.469163">
        <ele>123.822341</ele>
        <time>2026-08-16T09:11:49.000Z</time>
      </trkpt>
      <trkpt lat="22.803313" lon="110.469203">
        <ele>123.825812</ele>
        <time>2026-08-16T09:11:50.000Z</time>
      </trkpt>
      <trkpt lat="22.803352" lon="110.469242">
        <ele>123.829289</ele>
        <time>2026-08-16T09:11:51.000Z</time>
      </trkpt>
      <trkpt lat="22.803389" lon="110.469282">
        <ele>123.832713</ele>
        <time>2026-08-16T09:11:52.000Z</time>
      </trkpt>
      <trkpt lat="22.803426" lon="110.469319">
        <ele>123.836011</ele>
        <time>2026-08-16T09:11:53.000Z</time>
      </trkpt>
      <trkpt lat="22.803464" lon="110.469356">
        <ele>123.839358</ele>
        <time>2026-08-16T09:11:54.000Z</time>
      </trkpt>
      <trkpt lat="22.803502" lon="110.469392">
        <ele>123.842665</ele>
        <time>2026-08-16T09:11:55.000Z</time>
      </trkpt>
      <trkpt lat="22.803545" lon="110.469426">
        <ele>123.839530</ele>
        <time>2026-08-16T09:11:56.000Z</time>
      </trkpt>
      <trkpt lat="22.803579" lon="110.469459">
        <ele>123.835245</ele>
        <time>2026-08-16T09:11:57.000Z</time>
      </trkpt>
      <trkpt lat="22.803618" lon="110.469494">
        <ele>123.830492</ele>
        <time>2026-08-16T09:11:58.000Z</time>
      </trkpt>
      <trkpt lat="22.803655" lon="110.469529">
        <ele>123.825881</ele>
        <time>2026-08-16T09:11:59.000Z</time>
      </trkpt>
      <trkpt lat="22.803694" lon="110.469566">
        <ele>123.821015</ele>
        <time>2026-08-16T09:12:00.000Z</time>
      </trkpt>
      <trkpt lat="22.803735" lon="110.469602">
        <ele>123.816062</ele>
        <time>2026-08-16T09:12:01.000Z</time>
      </trkpt>
      <trkpt lat="22.803777" lon="110.469639">
        <ele>123.810980</ele>
        <time>2026-08-16T09:12:02.000Z</time>
      </trkpt>
      <trkpt lat="22.803817" lon="110.469677">
        <ele>123.805987</ele>
        <time>2026-08-16T09:12:03.000Z</time>
      </trkpt>
      <trkpt lat="22.803858" lon="110.469715">
        <ele>123.800922</ele>
        <time>2026-08-16T09:12:04.000Z</time>
      </trkpt>
      <trkpt lat="22.803900" lon="110.469752">
        <ele>123.795841</ele>
        <time>2026-08-16T09:12:05.000Z</time>
      </trkpt>
      <trkpt lat="22.803941" lon="110.469791">
        <ele>123.790720</ele>
        <time>2026-08-16T09:12:06.000Z</time>
      </trkpt>
      <trkpt lat="22.803982" lon="110.469829">
        <ele>123.785655</ele>
        <time>2026-08-16T09:12:07.000Z</time>
      </trkpt>
      <trkpt lat="22.804024" lon="110.469867">
        <ele>123.780519</ele>
        <time>2026-08-16T09:12:08.000Z</time>
      </trkpt>
      <trkpt lat="22.804066" lon="110.469906">
        <ele>123.775327</ele>
        <time>2026-08-16T09:12:09.000Z</time>
      </trkpt>
      <trkpt lat="22.804108" lon="110.469944">
        <ele>123.770190</ele>
        <time>2026-08-16T09:12:10.000Z</time>
      </trkpt>
      <trkpt lat="22.804149" lon="110.469983">
        <ele>123.765069</ele>
        <time>2026-08-16T09:12:11.000Z</time>
      </trkpt>
      <trkpt lat="22.804192" lon="110.470020">
        <ele>123.759914</ele>
        <time>2026-08-16T09:12:12.000Z</time>
      </trkpt>
      <trkpt lat="22.804235" lon="110.470057">
        <ele>123.754760</ele>
        <time>2026-08-16T09:12:13.000Z</time>
      </trkpt>
      <trkpt lat="22.804277" lon="110.470094">
        <ele>123.749679</ele>
        <time>2026-08-16T09:12:14.000Z</time>
      </trkpt>
      <trkpt lat="22.804320" lon="110.470130">
        <ele>123.744577</ele>
        <time>2026-08-16T09:12:15.000Z</time>
      </trkpt>
      <trkpt lat="22.804362" lon="110.470166">
        <ele>123.739550</ele>
        <time>2026-08-16T09:12:16.000Z</time>
      </trkpt>
      <trkpt lat="22.804405" lon="110.470205">
        <ele>123.734286</ele>
        <time>2026-08-16T09:12:17.000Z</time>
      </trkpt>
      <trkpt lat="22.804447" lon="110.470243">
        <ele>123.729150</ele>
        <time>2026-08-16T09:12:18.000Z</time>
      </trkpt>
      <trkpt lat="22.804490" lon="110.470280">
        <ele>123.723996</ele>
        <time>2026-08-16T09:12:19.000Z</time>
      </trkpt>
      <trkpt lat="22.804531" lon="110.470318">
        <ele>123.718931</ele>
        <time>2026-08-16T09:12:20.000Z</time>
      </trkpt>
      <trkpt lat="22.804574" lon="110.470356">
        <ele>123.713722</ele>
        <time>2026-08-16T09:12:21.000Z</time>
      </trkpt>
      <trkpt lat="22.804615" lon="110.470393">
        <ele>123.708713</ele>
        <time>2026-08-16T09:12:22.000Z</time>
      </trkpt>
      <trkpt lat="22.804657" lon="110.470430">
        <ele>123.703632</ele>
        <time>2026-08-16T09:12:23.000Z</time>
      </trkpt>
      <trkpt lat="22.804697" lon="110.470468">
        <ele>123.698639</ele>
        <time>2026-08-16T09:12:24.000Z</time>
      </trkpt>
      <trkpt lat="22.804738" lon="110.470506">
        <ele>123.693574</ele>
        <time>2026-08-16T09:12:25.000Z</time>
      </trkpt>
      <trkpt lat="22.804779" lon="110.470543">
        <ele>123.688565</ele>
        <time>2026-08-16T09:12:26.000Z</time>
      </trkpt>
      <trkpt lat="22.804819" lon="110.470579">
        <ele>123.683684</ele>
        <time>2026-08-16T09:12:27.000Z</time>
      </trkpt>
      <trkpt lat="22.804860" lon="110.470615">
        <ele>123.678730</ele>
        <time>2026-08-16T09:12:28.000Z</time>
      </trkpt>
      <trkpt lat="22.804901" lon="110.470653">
        <ele>123.676220</ele>
        <time>2026-08-16T09:12:29.000Z</time>
      </trkpt>
      <trkpt lat="22.804945" lon="110.470692">
        <ele>123.687025</ele>
        <time>2026-08-16T09:12:30.000Z</time>
      </trkpt>
      <trkpt lat="22.804986" lon="110.470730">
        <ele>123.697280</ele>
        <time>2026-08-16T09:12:31.000Z</time>
      </trkpt>
      <trkpt lat="22.805030" lon="110.470767">
        <ele>123.707867</ele>
        <time>2026-08-16T09:12:32.000Z</time>
      </trkpt>
      <trkpt lat="22.805072" lon="110.470804">
        <ele>123.718156</ele>
        <time>2026-08-16T09:12:33.000Z</time>
      </trkpt>
      <trkpt lat="22.805114" lon="110.470841">
        <ele>123.728445</ele>
        <time>2026-08-16T09:12:34.000Z</time>
      </trkpt>
      <trkpt lat="22.805155" lon="110.470881">
        <ele>123.738931</ele>
        <time>2026-08-16T09:12:35.000Z</time>
      </trkpt>
      <trkpt lat="22.805198" lon="110.470919">
        <ele>123.749479</ele>
        <time>2026-08-16T09:12:36.000Z</time>
      </trkpt>
      <trkpt lat="22.805238" lon="110.470957">
        <ele>123.759590</ele>
        <time>2026-08-16T09:12:37.000Z</time>
      </trkpt>
      <trkpt lat="22.805278" lon="110.470994">
        <ele>123.769586</ele>
        <time>2026-08-16T09:12:38.000Z</time>
      </trkpt>
      <trkpt lat="22.805316" lon="110.471032">
        <ele>123.779415</ele>
        <time>2026-08-16T09:12:39.000Z</time>
      </trkpt>
      <trkpt lat="22.805354" lon="110.471071">
        <ele>123.789363</ele>
        <time>2026-08-16T09:12:40.000Z</time>
      </trkpt>
      <trkpt lat="22.805395" lon="110.471108">
        <ele>123.799505</ele>
        <time>2026-08-16T09:12:41.000Z</time>
      </trkpt>
      <trkpt lat="22.805436" lon="110.471147">
        <ele>123.809875</ele>
        <time>2026-08-16T09:12:42.000Z</time>
      </trkpt>
      <trkpt lat="22.805476" lon="110.471184">
        <ele>123.819871</ele>
        <time>2026-08-16T09:12:43.000Z</time>
      </trkpt>
      <trkpt lat="22.805515" lon="110.471223">
        <ele>123.829958</ele>
        <time>2026-08-16T09:12:44.000Z</time>
      </trkpt>
      <trkpt lat="22.805556" lon="110.471259">
        <ele>123.839989</ele>
        <time>2026-08-16T09:12:45.000Z</time>
      </trkpt>
      <trkpt lat="22.805597" lon="110.471295">
        <ele>123.850020</ele>
        <time>2026-08-16T09:12:46.000Z</time>
      </trkpt>
      <trkpt lat="22.805636" lon="110.471330">
        <ele>123.859646</ele>
        <time>2026-08-16T09:12:47.000Z</time>
      </trkpt>
      <trkpt lat="22.805676" lon="110.471366">
        <ele>123.869530</ele>
        <time>2026-08-16T09:12:48.000Z</time>
      </trkpt>
      <trkpt lat="22.805714" lon="110.471403">
        <ele>123.879240</ele>
        <time>2026-08-16T09:12:49.000Z</time>
      </trkpt>
      <trkpt lat="22.805751" lon="110.471439">
        <ele>123.888692</ele>
        <time>2026-08-16T09:12:50.000Z</time>
      </trkpt>
      <trkpt lat="22.805787" lon="110.471474">
        <ele>123.897885</ele>
        <time>2026-08-16T09:12:51.000Z</time>
      </trkpt>
      <trkpt lat="22.805824" lon="110.471508">
        <ele>123.907106</ele>
        <time>2026-08-16T09:12:52.000Z</time>
      </trkpt>
      <trkpt lat="22.805862" lon="110.471541">
        <ele>123.916363</ele>
        <time>2026-08-16T09:12:53.000Z</time>
      </trkpt>
      <trkpt lat="22.805897" lon="110.471577">
        <ele>123.925535</ele>
        <time>2026-08-16T09:12:54.000Z</time>
      </trkpt>
      <trkpt lat="22.805933" lon="110.471609">
        <ele>123.934386</ele>
        <time>2026-08-16T09:12:55.000Z</time>
      </trkpt>
      <trkpt lat="22.805969" lon="110.471641">
        <ele>123.943237</ele>
        <time>2026-08-16T09:12:56.000Z</time>
      </trkpt>
      <trkpt lat="22.806003" lon="110.471674">
        <ele>123.951913</ele>
        <time>2026-08-16T09:12:57.000Z</time>
      </trkpt>
      <trkpt lat="22.806038" lon="110.471706">
        <ele>123.960617</ele>
        <time>2026-08-16T09:12:58.000Z</time>
      </trkpt>
      <trkpt lat="22.806072" lon="110.471740">
        <ele>123.969411</ele>
        <time>2026-08-16T09:12:59.000Z</time>
      </trkpt>
      <trkpt lat="22.806107" lon="110.471771">
        <ele>123.978004</ele>
        <time>2026-08-16T09:13:00.000Z</time>
      </trkpt>
      <trkpt lat="22.806142" lon="110.471803">
        <ele>123.986708</ele>
        <time>2026-08-16T09:13:01.000Z</time>
      </trkpt>
      <trkpt lat="22.806178" lon="110.471833">
        <ele>123.995341</ele>
        <time>2026-08-16T09:13:02.000Z</time>
      </trkpt>
      <trkpt lat="22.806215" lon="110.471863">
        <ele>124.004125</ele>
        <time>2026-08-16T09:13:03.000Z</time>
      </trkpt>
      <trkpt lat="22.806253" lon="110.471893">
        <ele>124.013063</ele>
        <time>2026-08-16T09:13:04.000Z</time>
      </trkpt>
      <trkpt lat="22.806288" lon="110.471927">
        <ele>124.008222</ele>
        <time>2026-08-16T09:13:05.000Z</time>
      </trkpt>
      <trkpt lat="22.806323" lon="110.471962">
        <ele>123.994360</ele>
        <time>2026-08-16T09:13:06.000Z</time>
      </trkpt>
      <trkpt lat="22.806359" lon="110.471998">
        <ele>123.980101</ele>
        <time>2026-08-16T09:13:07.000Z</time>
      </trkpt>
      <trkpt lat="22.806396" lon="110.472034">
        <ele>123.965628</ele>
        <time>2026-08-16T09:13:08.000Z</time>
      </trkpt>
      <trkpt lat="22.806436" lon="110.472069">
        <ele>123.950662</ele>
        <time>2026-08-16T09:13:09.000Z</time>
      </trkpt>
      <trkpt lat="22.806476" lon="110.472105">
        <ele>123.935527</ele>
        <time>2026-08-16T09:13:10.000Z</time>
      </trkpt>
      <trkpt lat="22.806514" lon="110.472141">
        <ele>123.920835</ele>
        <time>2026-08-16T09:13:11.000Z</time>
      </trkpt>
      <trkpt lat="22.806551" lon="110.472178">
        <ele>123.906180</ele>
        <time>2026-08-16T09:13:12.000Z</time>
      </trkpt>
      <trkpt lat="22.806589" lon="110.472213">
        <ele>123.891663</ele>
        <time>2026-08-16T09:13:13.000Z</time>
      </trkpt>
      <trkpt lat="22.806627" lon="110.472249">
        <ele>123.876971</ele>
        <time>2026-08-16T09:13:14.000Z</time>
      </trkpt>
      <trkpt lat="22.806666" lon="110.472284">
        <ele>123.862231</ele>
        <time>2026-08-16T09:13:15.000Z</time>
      </trkpt>
      <trkpt lat="22.806705" lon="110.472319">
        <ele>123.847491</ele>
        <time>2026-08-16T09:13:16.000Z</time>
      </trkpt>
      <trkpt lat="22.806742" lon="110.472355">
        <ele>123.833018</ele>
        <time>2026-08-16T09:13:17.000Z</time>
      </trkpt>
      <trkpt lat="22.806780" lon="110.472392">
        <ele>123.818148</ele>
        <time>2026-08-16T09:13:18.000Z</time>
      </trkpt>
      <trkpt lat="22.806818" lon="110.472428">
        <ele>123.803456</ele>
        <time>2026-08-16T09:13:19.000Z</time>
      </trkpt>
      <trkpt lat="22.806856" lon="110.472464">
        <ele>123.788764</ele>
        <time>2026-08-16T09:13:20.000Z</time>
      </trkpt>
      <trkpt lat="22.806893" lon="110.472500">
        <ele>123.774290</ele>
        <time>2026-08-16T09:13:21.000Z</time>
      </trkpt>
      <trkpt lat="22.806930" lon="110.472537">
        <ele>123.759636</ele>
        <time>2026-08-16T09:13:22.000Z</time>
      </trkpt>
      <trkpt lat="22.806966" lon="110.472575">
        <ele>123.745008</ele>
        <time>2026-08-16T09:13:23.000Z</time>
      </trkpt>
      <trkpt lat="22.807003" lon="110.472611">
        <ele>123.730534</ele>
        <time>2026-08-16T09:13:24.000Z</time>
      </trkpt>
      <trkpt lat="22.807040" lon="110.472647">
        <ele>123.716060</ele>
        <time>2026-08-16T09:13:25.000Z</time>
      </trkpt>
      <trkpt lat="22.807078" lon="110.472683">
        <ele>123.701368</ele>
        <time>2026-08-16T09:13:26.000Z</time>
      </trkpt>
      <trkpt lat="22.807116" lon="110.472719">
        <ele>123.686676</ele>
        <time>2026-08-16T09:13:27.000Z</time>
      </trkpt>
      <trkpt lat="22.807153" lon="110.472753">
        <ele>123.672555</ele>
        <time>2026-08-16T09:13:28.000Z</time>
      </trkpt>
      <trkpt lat="22.807189" lon="110.472788">
        <ele>123.658478</ele>
        <time>2026-08-16T09:13:29.000Z</time>
      </trkpt>
      <trkpt lat="22.807226" lon="110.472823">
        <ele>123.644182</ele>
        <time>2026-08-16T09:13:30.000Z</time>
      </trkpt>
      <trkpt lat="22.807264" lon="110.472856">
        <ele>123.630006</ele>
        <time>2026-08-16T09:13:31.000Z</time>
      </trkpt>
      <trkpt lat="22.807300" lon="110.472890">
        <ele>123.616106</ele>
        <time>2026-08-16T09:13:32.000Z</time>
      </trkpt>
      <trkpt lat="22.807336" lon="110.472924">
        <ele>123.602206</ele>
        <time>2026-08-16T09:13:33.000Z</time>
      </trkpt>
      <trkpt lat="22.807370" lon="110.472957">
        <ele>123.588921</ele>
        <time>2026-08-16T09:13:34.000Z</time>
      </trkpt>
      <trkpt lat="22.807404" lon="110.472989">
        <ele>123.575812</ele>
        <time>2026-08-16T09:13:35.000Z</time>
      </trkpt>
      <trkpt lat="22.807439" lon="110.473021">
        <ele>123.562483</ele>
        <time>2026-08-16T09:13:36.000Z</time>
      </trkpt>
      <trkpt lat="22.807476" lon="110.473051">
        <ele>123.549031</ele>
        <time>2026-08-16T09:13:37.000Z</time>
      </trkpt>
      <trkpt lat="22.807511" lon="110.473082">
        <ele>123.535873</ele>
        <time>2026-08-16T09:13:38.000Z</time>
      </trkpt>
      <trkpt lat="22.807546" lon="110.473114">
        <ele>123.522543</ele>
        <time>2026-08-16T09:13:39.000Z</time>
      </trkpt>
      <trkpt lat="22.807582" lon="110.473146">
        <ele>123.508989</ele>
        <time>2026-08-16T09:13:40.000Z</time>
      </trkpt>
      <trkpt lat="22.807619" lon="110.473179">
        <ele>123.495040</ele>
        <time>2026-08-16T09:13:41.000Z</time>
      </trkpt>
      <trkpt lat="22.807656" lon="110.473213">
        <ele>123.478047</ele>
        <time>2026-08-16T09:13:42.000Z</time>
      </trkpt>
      <trkpt lat="22.807693" lon="110.473248">
        <ele>123.460285</ele>
        <time>2026-08-16T09:13:43.000Z</time>
      </trkpt>
      <trkpt lat="22.807734" lon="110.473283">
        <ele>123.441409</ele>
        <time>2026-08-16T09:13:44.000Z</time>
      </trkpt>
      <trkpt lat="22.807776" lon="110.473322">
        <ele>123.421406</ele>
        <time>2026-08-16T09:13:45.000Z</time>
      </trkpt>
      <trkpt lat="22.807817" lon="110.473360">
        <ele>123.401895</ele>
        <time>2026-08-16T09:13:46.000Z</time>
      </trkpt>
      <trkpt lat="22.807857" lon="110.473399">
        <ele>123.382436</ele>
        <time>2026-08-16T09:13:47.000Z</time>
      </trkpt>
      <trkpt lat="22.807900" lon="110.473437">
        <ele>123.362369</ele>
        <time>2026-08-16T09:13:48.000Z</time>
      </trkpt>
      <trkpt lat="22.807943" lon="110.473476">
        <ele>123.342090</ele>
        <time>2026-08-16T09:13:49.000Z</time>
      </trkpt>
      <trkpt lat="22.807985" lon="110.473514">
        <ele>123.322302</ele>
        <time>2026-08-16T09:13:50.000Z</time>
      </trkpt>
      <trkpt lat="22.808028" lon="110.473553">
        <ele>123.302023</ele>
        <time>2026-08-16T09:13:51.000Z</time>
      </trkpt>
      <trkpt lat="22.808071" lon="110.473591">
        <ele>123.281956</ele>
        <time>2026-08-16T09:13:52.000Z</time>
      </trkpt>
      <trkpt lat="22.808114" lon="110.473628">
        <ele>123.262098</ele>
        <time>2026-08-16T09:13:53.000Z</time>
      </trkpt>
      <trkpt lat="22.808157" lon="110.473667">
        <ele>123.241819</ele>
        <time>2026-08-16T09:13:54.000Z</time>
      </trkpt>
      <trkpt lat="22.808199" lon="110.473705">
        <ele>123.222031</ele>
        <time>2026-08-16T09:13:55.000Z</time>
      </trkpt>
      <trkpt lat="22.808241" lon="110.473742">
        <ele>123.202455</ele>
        <time>2026-08-16T09:13:56.000Z</time>
      </trkpt>
      <trkpt lat="22.808283" lon="110.473779">
        <ele>123.182879</ele>
        <time>2026-08-16T09:13:57.000Z</time>
      </trkpt>
      <trkpt lat="22.808324" lon="110.473816">
        <ele>123.163583</ele>
        <time>2026-08-16T09:13:58.000Z</time>
      </trkpt>
      <trkpt lat="22.808364" lon="110.473853">
        <ele>123.144564</ele>
        <time>2026-08-16T09:13:59.000Z</time>
      </trkpt>
      <trkpt lat="22.808405" lon="110.473891">
        <ele>123.125053</ele>
        <time>2026-08-16T09:14:00.000Z</time>
      </trkpt>
      <trkpt lat="22.808445" lon="110.473929">
        <ele>123.105815</ele>
        <time>2026-08-16T09:14:01.000Z</time>
      </trkpt>
      <trkpt lat="22.808487" lon="110.473966">
        <ele>123.086239</ele>
        <time>2026-08-16T09:14:02.000Z</time>
      </trkpt>
      <trkpt lat="22.808527" lon="110.474003">
        <ele>123.067220</ele>
        <time>2026-08-16T09:14:03.000Z</time>
      </trkpt>
      <trkpt lat="22.808566" lon="110.474041">
        <ele>123.048253</ele>
        <time>2026-08-16T09:14:04.000Z</time>
      </trkpt>
      <trkpt lat="22.808606" lon="110.474078">
        <ele>123.029233</ele>
        <time>2026-08-16T09:14:05.000Z</time>
      </trkpt>
      <trkpt lat="22.808646" lon="110.474114">
        <ele>123.010429</ele>
        <time>2026-08-16T09:14:06.000Z</time>
      </trkpt>
      <trkpt lat="22.808687" lon="110.474152">
        <ele>122.990918</ele>
        <time>2026-08-16T09:14:07.000Z</time>
      </trkpt>
      <trkpt lat="22.808728" lon="110.474191">
        <ele>122.971188</ele>
        <time>2026-08-16T09:14:08.000Z</time>
      </trkpt>
      <trkpt lat="22.808768" lon="110.474228">
        <ele>122.952169</ele>
        <time>2026-08-16T09:14:09.000Z</time>
      </trkpt>
      <trkpt lat="22.808808" lon="110.474266">
        <ele>122.932931</ele>
        <time>2026-08-16T09:14:10.000Z</time>
      </trkpt>
      <trkpt lat="22.808849" lon="110.474303">
        <ele>122.913635</ele>
        <time>2026-08-16T09:14:11.000Z</time>
      </trkpt>
      <trkpt lat="22.808890" lon="110.474341">
        <ele>122.894124</ele>
        <time>2026-08-16T09:14:12.000Z</time>
      </trkpt>
      <trkpt lat="22.808931" lon="110.474378">
        <ele>122.874828</ele>
        <time>2026-08-16T09:14:13.000Z</time>
      </trkpt>
      <trkpt lat="22.808973" lon="110.474414">
        <ele>122.855460</ele>
        <time>2026-08-16T09:14:14.000Z</time>
      </trkpt>
      <trkpt lat="22.809014" lon="110.474451">
        <ele>122.845671</ele>
        <time>2026-08-16T09:14:15.000Z</time>
      </trkpt>
      <trkpt lat="22.809055" lon="110.474488">
        <ele>122.857860</ele>
        <time>2026-08-16T09:14:16.000Z</time>
      </trkpt>
      <trkpt lat="22.809095" lon="110.474525">
        <ele>122.869875</ele>
        <time>2026-08-16T09:14:17.000Z</time>
      </trkpt>
      <trkpt lat="22.809140" lon="110.474560">
        <ele>122.882530</ele>
        <time>2026-08-16T09:14:18.000Z</time>
      </trkpt>
      <trkpt lat="22.809184" lon="110.474594">
        <ele>122.894877</ele>
        <time>2026-08-16T09:14:19.000Z</time>
      </trkpt>
      <trkpt lat="22.809226" lon="110.474631">
        <ele>122.907243</ele>
        <time>2026-08-16T09:14:20.000Z</time>
      </trkpt>
      <trkpt lat="22.809268" lon="110.474669">
        <ele>122.919743</ele>
        <time>2026-08-16T09:14:21.000Z</time>
      </trkpt>
      <trkpt lat="22.809308" lon="110.474707">
        <ele>122.931895</ele>
        <time>2026-08-16T09:14:22.000Z</time>
      </trkpt>
      <trkpt lat="22.809347" lon="110.474745">
        <ele>122.943876</ele>
        <time>2026-08-16T09:14:23.000Z</time>
      </trkpt>
      <trkpt lat="22.809387" lon="110.474781">
        <ele>122.955755</ele>
        <time>2026-08-16T09:14:24.000Z</time>
      </trkpt>
      <trkpt lat="22.809427" lon="110.474815">
        <ele>122.967369</ele>
        <time>2026-08-16T09:14:25.000Z</time>
      </trkpt>
      <trkpt lat="22.809465" lon="110.474850">
        <ele>122.978763</ele>
        <time>2026-08-16T09:14:26.000Z</time>
      </trkpt>
      <trkpt lat="22.809502" lon="110.474884">
        <ele>122.989845</ele>
        <time>2026-08-16T09:14:27.000Z</time>
      </trkpt>
      <trkpt lat="22.809540" lon="110.474918">
        <ele>123.001103</ele>
        <time>2026-08-16T09:14:28.000Z</time>
      </trkpt>
      <trkpt lat="22.809578" lon="110.474953">
        <ele>123.012497</ele>
        <time>2026-08-16T09:14:29.000Z</time>
      </trkpt>
      <trkpt lat="22.809613" lon="110.474986">
        <ele>123.023095</ele>
        <time>2026-08-16T09:14:30.000Z</time>
      </trkpt>
      <trkpt lat="22.809648" lon="110.475018">
        <ele>123.033557</ele>
        <time>2026-08-16T09:14:31.000Z</time>
      </trkpt>
      <trkpt lat="22.809683" lon="110.475049">
        <ele>123.043884</ele>
        <time>2026-08-16T09:14:32.000Z</time>
      </trkpt>
      <trkpt lat="22.809719" lon="110.475079">
        <ele>123.054259</ele>
        <time>2026-08-16T09:14:33.000Z</time>
      </trkpt>
      <trkpt lat="22.809756" lon="110.475110">
        <ele>123.064944</ele>
        <time>2026-08-16T09:14:34.000Z</time>
      </trkpt>
      <trkpt lat="22.809794" lon="110.475142">
        <ele>123.075939</ele>
        <time>2026-08-16T09:14:35.000Z</time>
      </trkpt>
      <trkpt lat="22.809832" lon="110.475174">
        <ele>123.086934</ele>
        <time>2026-08-16T09:14:36.000Z</time>
      </trkpt>
      <trkpt lat="22.809869" lon="110.475205">
        <ele>123.097619</ele>
        <time>2026-08-16T09:14:37.000Z</time>
      </trkpt>
      <trkpt lat="22.809906" lon="110.475237">
        <ele>123.108434</ele>
        <time>2026-08-16T09:14:38.000Z</time>
      </trkpt>
      <trkpt lat="22.809943" lon="110.475266">
        <ele>123.118867</ele>
        <time>2026-08-16T09:14:39.000Z</time>
      </trkpt>
      <trkpt lat="22.809980" lon="110.475297">
        <ele>123.129552</ele>
        <time>2026-08-16T09:14:40.000Z</time>
      </trkpt>
      <trkpt lat="22.810017" lon="110.475327">
        <ele>123.140110</ele>
        <time>2026-08-16T09:14:41.000Z</time>
      </trkpt>
      <trkpt lat="22.810053" lon="110.475357">
        <ele>123.150485</ele>
        <time>2026-08-16T09:14:42.000Z</time>
      </trkpt>
      <trkpt lat="22.810090" lon="110.475387">
        <ele>123.161043</ele>
        <time>2026-08-16T09:14:43.000Z</time>
      </trkpt>
      <trkpt lat="22.810127" lon="110.475415">
        <ele>123.171354</ele>
        <time>2026-08-16T09:14:44.000Z</time>
      </trkpt>
      <trkpt lat="22.810164" lon="110.475444">
        <ele>123.181786</ele>
        <time>2026-08-16T09:14:45.000Z</time>
      </trkpt>
      <trkpt lat="22.810200" lon="110.475472">
        <ele>123.191911</ele>
        <time>2026-08-16T09:14:46.000Z</time>
      </trkpt>
      <trkpt lat="22.810238" lon="110.475503">
        <ele>123.202777</ele>
        <time>2026-08-16T09:14:47.000Z</time>
      </trkpt>
      <trkpt lat="22.810274" lon="110.475533">
        <ele>123.213153</ele>
        <time>2026-08-16T09:14:48.000Z</time>
      </trkpt>
      <trkpt lat="22.810310" lon="110.475564">
        <ele>123.223658</ele>
        <time>2026-08-16T09:14:49.000Z</time>
      </trkpt>
      <trkpt lat="22.810348" lon="110.475594">
        <ele>123.234399</ele>
        <time>2026-08-16T09:14:50.000Z</time>
      </trkpt>
      <trkpt lat="22.810387" lon="110.475624">
        <ele>123.245327</ele>
        <time>2026-08-16T09:14:51.000Z</time>
      </trkpt>
      <trkpt lat="22.810426" lon="110.475652">
        <ele>123.258573</ele>
        <time>2026-08-16T09:14:52.000Z</time>
      </trkpt>
      <trkpt lat="22.810465" lon="110.475680">
        <ele>123.278584</ele>
        <time>2026-08-16T09:14:53.000Z</time>
      </trkpt>
      <trkpt lat="22.810501" lon="110.475711">
        <ele>123.298251</ele>
        <time>2026-08-16T09:14:54.000Z</time>
      </trkpt>
      <trkpt lat="22.810539" lon="110.475740">
        <ele>123.318131</ele>
        <time>2026-08-16T09:14:55.000Z</time>
      </trkpt>
      <trkpt lat="22.810576" lon="110.475769">
        <ele>123.337662</ele>
        <time>2026-08-16T09:14:56.000Z</time>
      </trkpt>
      <trkpt lat="22.810614" lon="110.475797">
        <ele>123.357318</ele>
        <time>2026-08-16T09:14:57.000Z</time>
      </trkpt>
      <trkpt lat="22.810655" lon="110.475824">
        <ele>123.377840</ele>
        <time>2026-08-16T09:14:58.000Z</time>
      </trkpt>
      <trkpt lat="22.810696" lon="110.475851">
        <ele>123.398363</ele>
        <time>2026-08-16T09:14:59.000Z</time>
      </trkpt>
      <trkpt lat="22.810735" lon="110.475879">
        <ele>123.418374</ele>
        <time>2026-08-16T09:15:00.000Z</time>
      </trkpt>
      <trkpt lat="22.810776" lon="110.475906">
        <ele>123.438896</ele>
        <time>2026-08-16T09:15:01.000Z</time>
      </trkpt>
      <trkpt lat="22.810816" lon="110.475931">
        <ele>123.458649</ele>
        <time>2026-08-16T09:15:02.000Z</time>
      </trkpt>
      <trkpt lat="22.810854" lon="110.475958">
        <ele>123.478086</ele>
        <time>2026-08-16T09:15:03.000Z</time>
      </trkpt>
      <trkpt lat="22.810891" lon="110.475986">
        <ele>123.497389</ele>
        <time>2026-08-16T09:15:04.000Z</time>
      </trkpt>
      <trkpt lat="22.810932" lon="110.476014">
        <ele>123.518119</ele>
        <time>2026-08-16T09:15:05.000Z</time>
      </trkpt>
      <trkpt lat="22.810973" lon="110.476040">
        <ele>123.538439</ele>
        <time>2026-08-16T09:15:06.000Z</time>
      </trkpt>
      <trkpt lat="22.811013" lon="110.476067">
        <ele>123.558597</ele>
        <time>2026-08-16T09:15:07.000Z</time>
      </trkpt>
      <trkpt lat="22.811050" lon="110.476091">
        <ele>123.577043</ele>
        <time>2026-08-16T09:15:08.000Z</time>
      </trkpt>
      <trkpt lat="22.811089" lon="110.476115">
        <ele>123.596229</ele>
        <time>2026-08-16T09:15:09.000Z</time>
      </trkpt>
      <trkpt lat="22.811129" lon="110.476139">
        <ele>123.615787</ele>
        <time>2026-08-16T09:15:10.000Z</time>
      </trkpt>
      <trkpt lat="22.811168" lon="110.476163">
        <ele>123.634973</ele>
        <time>2026-08-16T09:15:11.000Z</time>
      </trkpt>
      <trkpt lat="22.811205" lon="110.476187">
        <ele>123.653419</ele>
        <time>2026-08-16T09:15:12.000Z</time>
      </trkpt>
      <trkpt lat="22.811244" lon="110.476211">
        <ele>123.672604</ele>
        <time>2026-08-16T09:15:13.000Z</time>
      </trkpt>
      <trkpt lat="22.811282" lon="110.476235">
        <ele>123.691419</ele>
        <time>2026-08-16T09:15:14.000Z</time>
      </trkpt>
      <trkpt lat="22.811322" lon="110.476258">
        <ele>123.710789</ele>
        <time>2026-08-16T09:15:15.000Z</time>
      </trkpt>
      <trkpt lat="22.811362" lon="110.476282">
        <ele>123.730348</ele>
        <time>2026-08-16T09:15:16.000Z</time>
      </trkpt>
      <trkpt lat="22.811403" lon="110.476306">
        <ele>123.750282</ele>
        <time>2026-08-16T09:15:17.000Z</time>
      </trkpt>
      <trkpt lat="22.811444" lon="110.476331">
        <ele>123.770407</ele>
        <time>2026-08-16T09:15:18.000Z</time>
      </trkpt>
      <trkpt lat="22.811484" lon="110.476357">
        <ele>123.790359</ele>
        <time>2026-08-16T09:15:19.000Z</time>
      </trkpt>
      <trkpt lat="22.811524" lon="110.476384">
        <ele>123.810517</ele>
        <time>2026-08-16T09:15:20.000Z</time>
      </trkpt>
      <trkpt lat="22.811566" lon="110.476411">
        <ele>123.831407</ele>
        <time>2026-08-16T09:15:21.000Z</time>
      </trkpt>
      <trkpt lat="22.811606" lon="110.476439">
        <ele>123.851776</ele>
        <time>2026-08-16T09:15:22.000Z</time>
      </trkpt>
      <trkpt lat="22.811649" lon="110.476465">
        <ele>123.872840</ele>
        <time>2026-08-16T09:15:23.000Z</time>
      </trkpt>
      <trkpt lat="22.811693" lon="110.476490">
        <ele>123.894093</ele>
        <time>2026-08-16T09:15:24.000Z</time>
      </trkpt>
      <trkpt lat="22.811735" lon="110.476515">
        <ele>123.914591</ele>
        <time>2026-08-16T09:15:25.000Z</time>
      </trkpt>
      <trkpt lat="22.811775" lon="110.476540">
        <ele>123.934344</ele>
        <time>2026-08-16T09:15:26.000Z</time>
      </trkpt>
      <trkpt lat="22.811815" lon="110.476566">
        <ele>123.954296</ele>
        <time>2026-08-16T09:15:27.000Z</time>
      </trkpt>
      <trkpt lat="22.811856" lon="110.476591">
        <ele>123.974421</ele>
        <time>2026-08-16T09:15:28.000Z</time>
      </trkpt>
      <trkpt lat="22.811899" lon="110.476617">
        <ele>123.995485</ele>
        <time>2026-08-16T09:15:29.000Z</time>
      </trkpt>
      <trkpt lat="22.811940" lon="110.476642">
        <ele>124.015609</ele>
        <time>2026-08-16T09:15:30.000Z</time>
      </trkpt>
      <trkpt lat="22.811983" lon="110.476666">
        <ele>124.034651</ele>
        <time>2026-08-16T09:15:31.000Z</time>
      </trkpt>
      <trkpt lat="22.812024" lon="110.476691">
        <ele>124.052335</ele>
        <time>2026-08-16T09:15:32.000Z</time>
      </trkpt>
      <trkpt lat="22.812066" lon="110.476716">
        <ele>124.070348</ele>
        <time>2026-08-16T09:15:33.000Z</time>
      </trkpt>
      <trkpt lat="22.812109" lon="110.476741">
        <ele>124.088691</ele>
        <time>2026-08-16T09:15:34.000Z</time>
      </trkpt>
      <trkpt lat="22.812150" lon="110.476767">
        <ele>124.106547</ele>
        <time>2026-08-16T09:15:35.000Z</time>
      </trkpt>
      <trkpt lat="22.812190" lon="110.476793">
        <ele>124.124080</ele>
        <time>2026-08-16T09:15:36.000Z</time>
      </trkpt>
      <trkpt lat="22.812232" lon="110.476818">
        <ele>124.142093</ele>
        <time>2026-08-16T09:15:37.000Z</time>
      </trkpt>
      <trkpt lat="22.812274" lon="110.476843">
        <ele>124.160106</ele>
        <time>2026-08-16T09:15:38.000Z</time>
      </trkpt>
      <trkpt lat="22.812314" lon="110.476868">
        <ele>124.177463</ele>
        <time>2026-08-16T09:15:39.000Z</time>
      </trkpt>
      <trkpt lat="22.812354" lon="110.476894">
        <ele>124.194996</ele>
        <time>2026-08-16T09:15:40.000Z</time>
      </trkpt>
      <trkpt lat="22.812397" lon="110.476918">
        <ele>124.213178</ele>
        <time>2026-08-16T09:15:41.000Z</time>
      </trkpt>
      <trkpt lat="22.812441" lon="110.476940">
        <ele>124.231394</ele>
        <time>2026-08-16T09:15:42.000Z</time>
      </trkpt>
      <trkpt lat="22.812483" lon="110.476962">
        <ele>124.248930</ele>
        <time>2026-08-16T09:15:43.000Z</time>
      </trkpt>
      <trkpt lat="22.812523" lon="110.476987">
        <ele>124.266288</ele>
        <time>2026-08-16T09:15:44.000Z</time>
      </trkpt>
      <trkpt lat="22.812562" lon="110.477012">
        <ele>124.283320</ele>
        <time>2026-08-16T09:15:45.000Z</time>
      </trkpt>
      <trkpt lat="22.812600" lon="110.477043">
        <ele>124.301197</ele>
        <time>2026-08-16T09:15:46.000Z</time>
      </trkpt>
      <trkpt lat="22.812638" lon="110.477071">
        <ele>124.318469</ele>
        <time>2026-08-16T09:15:47.000Z</time>
      </trkpt>
      <trkpt lat="22.812677" lon="110.477101">
        <ele>124.336445</ele>
        <time>2026-08-16T09:15:48.000Z</time>
      </trkpt>
      <trkpt lat="22.812714" lon="110.477132">
        <ele>124.354023</ele>
        <time>2026-08-16T09:15:49.000Z</time>
      </trkpt>
      <trkpt lat="22.812754" lon="110.477162">
        <ele>124.372307</ele>
        <time>2026-08-16T09:15:50.000Z</time>
      </trkpt>
      <trkpt lat="22.812794" lon="110.477192">
        <ele>124.390591</ele>
        <time>2026-08-16T09:15:51.000Z</time>
      </trkpt>
      <trkpt lat="22.812836" lon="110.477222">
        <ele>124.409498</ele>
        <time>2026-08-16T09:15:52.000Z</time>
      </trkpt>
      <trkpt lat="22.812876" lon="110.477250">
        <ele>124.427397</ele>
        <time>2026-08-16T09:15:53.000Z</time>
      </trkpt>
      <trkpt lat="22.812917" lon="110.477277">
        <ele>124.445431</ele>
        <time>2026-08-16T09:15:54.000Z</time>
      </trkpt>
      <trkpt lat="22.812959" lon="110.477303">
        <ele>124.463613</ele>
        <time>2026-08-16T09:15:55.000Z</time>
      </trkpt>
      <trkpt lat="22.813001" lon="110.477325">
        <ele>124.481149</ele>
        <time>2026-08-16T09:15:56.000Z</time>
      </trkpt>
      <trkpt lat="22.813044" lon="110.477350">
        <ele>124.499492</ele>
        <time>2026-08-16T09:15:57.000Z</time>
      </trkpt>
      <trkpt lat="22.813085" lon="110.477375">
        <ele>124.517176</ele>
        <time>2026-08-16T09:15:58.000Z</time>
      </trkpt>
      <trkpt lat="22.813125" lon="110.477401">
        <ele>124.534709</ele>
        <time>2026-08-16T09:15:59.000Z</time>
      </trkpt>
      <trkpt lat="22.813164" lon="110.477427">
        <ele>124.551921</ele>
        <time>2026-08-16T09:16:00.000Z</time>
      </trkpt>
      <trkpt lat="22.813204" lon="110.477453">
        <ele>124.569453</ele>
        <time>2026-08-16T09:16:01.000Z</time>
      </trkpt>
      <trkpt lat="22.813244" lon="110.477481">
        <ele>124.587352</ele>
        <time>2026-08-16T09:16:02.000Z</time>
      </trkpt>
      <trkpt lat="22.813283" lon="110.477510">
        <ele>124.605130</ele>
        <time>2026-08-16T09:16:03.000Z</time>
      </trkpt>
      <trkpt lat="22.813323" lon="110.477537">
        <ele>124.622844</ele>
        <time>2026-08-16T09:16:04.000Z</time>
      </trkpt>
      <trkpt lat="22.813363" lon="110.477563">
        <ele>124.640376</ele>
        <time>2026-08-16T09:16:05.000Z</time>
      </trkpt>
      <trkpt lat="22.813403" lon="110.477589">
        <ele>124.657909</ele>
        <time>2026-08-16T09:16:06.000Z</time>
      </trkpt>
      <trkpt lat="22.813443" lon="110.477616">
        <ele>124.675623</ele>
        <time>2026-08-16T09:16:07.000Z</time>
      </trkpt>
      <trkpt lat="22.813484" lon="110.477642">
        <ele>124.693479</ele>
        <time>2026-08-16T09:16:08.000Z</time>
      </trkpt>
      <trkpt lat="22.813525" lon="110.477668">
        <ele>124.717794</ele>
        <time>2026-08-16T09:16:09.000Z</time>
      </trkpt>
      <trkpt lat="22.813568" lon="110.477693">
        <ele>124.745726</ele>
        <time>2026-08-16T09:16:10.000Z</time>
      </trkpt>
      <trkpt lat="22.813607" lon="110.477720">
        <ele>124.772214</ele>
        <time>2026-08-16T09:16:11.000Z</time>
      </trkpt>
      <trkpt lat="22.813649" lon="110.477746">
        <ele>124.799901</ele>
        <time>2026-08-16T09:16:12.000Z</time>
      </trkpt>
      <trkpt lat="22.813690" lon="110.477770">
        <ele>124.826574</ele>
        <time>2026-08-16T09:16:13.000Z</time>
      </trkpt>
      <trkpt lat="22.813731" lon="110.477794">
        <ele>124.853248</ele>
        <time>2026-08-16T09:16:14.000Z</time>
      </trkpt>
      <trkpt lat="22.813772" lon="110.477819">
        <ele>124.880176</ele>
        <time>2026-08-16T09:16:15.000Z</time>
      </trkpt>
      <trkpt lat="22.813813" lon="110.477846">
        <ele>124.907637</ele>
        <time>2026-08-16T09:16:16.000Z</time>
      </trkpt>
      <trkpt lat="22.813855" lon="110.477873">
        <ele>124.935588</ele>
        <time>2026-08-16T09:16:17.000Z</time>
      </trkpt>
      <trkpt lat="22.813894" lon="110.477902">
        <ele>124.962659</ele>
        <time>2026-08-16T09:16:18.000Z</time>
      </trkpt>
      <trkpt lat="22.813935" lon="110.477927">
        <ele>124.989588</ele>
        <time>2026-08-16T09:16:19.000Z</time>
      </trkpt>
      <trkpt lat="22.813975" lon="110.477955">
        <ele>125.016843</ele>
        <time>2026-08-16T09:16:20.000Z</time>
      </trkpt>
      <trkpt lat="22.814014" lon="110.477985">
        <ele>125.044216</ele>
        <time>2026-08-16T09:16:21.000Z</time>
      </trkpt>
      <trkpt lat="22.814052" lon="110.478017">
        <ele>125.071758</ele>
        <time>2026-08-16T09:16:22.000Z</time>
      </trkpt>
      <trkpt lat="22.814090" lon="110.478049">
        <ele>125.099300</ele>
        <time>2026-08-16T09:16:23.000Z</time>
      </trkpt>
      <trkpt lat="22.814127" lon="110.478084">
        <ele>125.127406</ele>
        <time>2026-08-16T09:16:24.000Z</time>
      </trkpt>
      <trkpt lat="22.814167" lon="110.478119">
        <ele>125.156829</ele>
        <time>2026-08-16T09:16:25.000Z</time>
      </trkpt>
      <trkpt lat="22.814204" lon="110.478151">
        <ele>125.183921</ele>
        <time>2026-08-16T09:16:26.000Z</time>
      </trkpt>
      <trkpt lat="22.814239" lon="110.478187">
        <ele>125.211535</ele>
        <time>2026-08-16T09:16:27.000Z</time>
      </trkpt>
      <trkpt lat="22.814275" lon="110.478221">
        <ele>125.238863</ele>
        <time>2026-08-16T09:16:28.000Z</time>
      </trkpt>
      <trkpt lat="22.814312" lon="110.478256">
        <ele>125.266969</ele>
        <time>2026-08-16T09:16:29.000Z</time>
      </trkpt>
      <trkpt lat="22.814349" lon="110.478289">
        <ele>125.294393</ele>
        <time>2026-08-16T09:16:30.000Z</time>
      </trkpt>
      <trkpt lat="22.814385" lon="110.478323">
        <ele>125.321721</ele>
        <time>2026-08-16T09:16:31.000Z</time>
      </trkpt>
      <trkpt lat="22.814423" lon="110.478356">
        <ele>125.349589</ele>
        <time>2026-08-16T09:16:32.000Z</time>
      </trkpt>
      <trkpt lat="22.814463" lon="110.478389">
        <ele>125.378361</ele>
        <time>2026-08-16T09:16:33.000Z</time>
      </trkpt>
      <trkpt lat="22.814504" lon="110.478423">
        <ele>125.407908</ele>
        <time>2026-08-16T09:16:34.000Z</time>
      </trkpt>
      <trkpt lat="22.814544" lon="110.478455">
        <ele>125.436363</ele>
        <time>2026-08-16T09:16:35.000Z</time>
      </trkpt>
      <trkpt lat="22.814582" lon="110.478491">
        <ele>125.465248</ele>
        <time>2026-08-16T09:16:36.000Z</time>
      </trkpt>
      <trkpt lat="22.814619" lon="110.478527">
        <ele>125.493704</ele>
        <time>2026-08-16T09:16:37.000Z</time>
      </trkpt>
      <trkpt lat="22.814657" lon="110.478563">
        <ele>125.522588</ele>
        <time>2026-08-16T09:16:38.000Z</time>
      </trkpt>
      <trkpt lat="22.814696" lon="110.478597">
        <ele>125.551234</ele>
        <time>2026-08-16T09:16:39.000Z</time>
      </trkpt>
      <trkpt lat="22.814735" lon="110.478631">
        <ele>125.579879</ele>
        <time>2026-08-16T09:16:40.000Z</time>
      </trkpt>
      <trkpt lat="22.814773" lon="110.478664">
        <ele>125.607748</ele>
        <time>2026-08-16T09:16:41.000Z</time>
      </trkpt>
      <trkpt lat="22.814810" lon="110.478698">
        <ele>125.635510</ele>
        <time>2026-08-16T09:16:42.000Z</time>
      </trkpt>
      <trkpt lat="22.814846" lon="110.478730">
        <ele>125.662157</ele>
        <time>2026-08-16T09:16:43.000Z</time>
      </trkpt>
      <trkpt lat="22.814882" lon="110.478762">
        <ele>125.688804</ele>
        <time>2026-08-16T09:16:44.000Z</time>
      </trkpt>
      <trkpt lat="22.814916" lon="110.478798">
        <ele>125.716005</ele>
        <time>2026-08-16T09:16:45.000Z</time>
      </trkpt>
      <trkpt lat="22.814949" lon="110.478831">
        <ele>125.752493</ele>
        <time>2026-08-16T09:16:46.000Z</time>
      </trkpt>
      <trkpt lat="22.814984" lon="110.478861">
        <ele>125.799371</ele>
        <time>2026-08-16T09:16:47.000Z</time>
      </trkpt>
      <trkpt lat="22.815021" lon="110.478893">
        <ele>125.849100</ele>
        <time>2026-08-16T09:16:48.000Z</time>
      </trkpt>
      <trkpt lat="22.815058" lon="110.478923">
        <ele>125.897644</ele>
        <time>2026-08-16T09:16:49.000Z</time>
      </trkpt>
      <trkpt lat="22.815096" lon="110.478954">
        <ele>125.947611</ele>
        <time>2026-08-16T09:16:50.000Z</time>
      </trkpt>
      <trkpt lat="22.815132" lon="110.478994">
        <ele>126.001766</ele>
        <time>2026-08-16T09:16:51.000Z</time>
      </trkpt>
      <trkpt lat="22.815169" lon="110.479024">
        <ele>126.050311</ele>
        <time>2026-08-16T09:16:52.000Z</time>
      </trkpt>
      <trkpt lat="22.815205" lon="110.479058">
        <ele>126.100473</ele>
        <time>2026-08-16T09:16:53.000Z</time>
      </trkpt>
      <trkpt lat="22.815243" lon="110.479088">
        <ele>126.149863</ele>
        <time>2026-08-16T09:16:54.000Z</time>
      </trkpt>
      <trkpt lat="22.815281" lon="110.479119">
        <ele>126.199829</ele>
        <time>2026-08-16T09:16:55.000Z</time>
      </trkpt>
      <trkpt lat="22.815317" lon="110.479150">
        <ele>126.248133</ele>
        <time>2026-08-16T09:16:56.000Z</time>
      </trkpt>
      <trkpt lat="22.815354" lon="110.479177">
        <ele>126.294995</ele>
        <time>2026-08-16T09:16:57.000Z</time>
      </trkpt>
      <trkpt lat="22.815392" lon="110.479205">
        <ele>126.343271</ele>
        <time>2026-08-16T09:16:58.000Z</time>
      </trkpt>
      <trkpt lat="22.815429" lon="110.479235">
        <ele>126.391816</ele>
        <time>2026-08-16T09:16:59.000Z</time>
      </trkpt>
      <trkpt lat="22.815466" lon="110.479262">
        <ele>126.438678</ele>
        <time>2026-08-16T09:17:00.000Z</time>
      </trkpt>
      <trkpt lat="22.815505" lon="110.479289">
        <ele>126.487299</ele>
        <time>2026-08-16T09:17:01.000Z</time>
      </trkpt>
      <trkpt lat="22.815544" lon="110.479316">
        <ele>126.535920</ele>
        <time>2026-08-16T09:17:02.000Z</time>
      </trkpt>
      <trkpt lat="22.815582" lon="110.479342">
        <ele>126.583134</ele>
        <time>2026-08-16T09:17:03.000Z</time>
      </trkpt>
      <trkpt lat="22.815622" lon="110.479362">
        <ele>126.629422</ele>
        <time>2026-08-16T09:17:04.000Z</time>
      </trkpt>
      <trkpt lat="22.815658" lon="110.479393">
        <ele>126.677725</ele>
        <time>2026-08-16T09:17:05.000Z</time>
      </trkpt>
      <trkpt lat="22.815693" lon="110.479424">
        <ele>126.725209</ele>
        <time>2026-08-16T09:17:06.000Z</time>
      </trkpt>
      <trkpt lat="22.815731" lon="110.479453">
        <ele>126.774036</ele>
        <time>2026-08-16T09:17:07.000Z</time>
      </trkpt>
      <trkpt lat="22.815769" lon="110.479479">
        <ele>126.821250</ele>
        <time>2026-08-16T09:17:08.000Z</time>
      </trkpt>
      <trkpt lat="22.815808" lon="110.479505">
        <ele>126.869357</ele>
        <time>2026-08-16T09:17:09.000Z</time>
      </trkpt>
      <trkpt lat="22.815845" lon="110.479538">
        <ele>126.919695</ele>
        <time>2026-08-16T09:17:10.000Z</time>
      </trkpt>
      <trkpt lat="22.815881" lon="110.479570">
        <ele>126.968606</ele>
        <time>2026-08-16T09:17:11.000Z</time>
      </trkpt>
      <trkpt lat="22.815916" lon="110.479599">
        <ele>127.014889</ele>
        <time>2026-08-16T09:17:12.000Z</time>
      </trkpt>
      <trkpt lat="22.815950" lon="110.479627">
        <ele>127.059750</ele>
        <time>2026-08-16T09:17:13.000Z</time>
      </trkpt>
      <trkpt lat="22.815984" lon="110.479652">
        <ele>127.102915</ele>
        <time>2026-08-16T09:17:14.000Z</time>
      </trkpt>
      <trkpt lat="22.816021" lon="110.479679">
        <ele>127.149778</ele>
        <time>2026-08-16T09:17:15.000Z</time>
      </trkpt>
      <trkpt lat="22.816056" lon="110.479710">
        <ele>127.197262</ele>
        <time>2026-08-16T09:17:16.000Z</time>
      </trkpt>
      <trkpt lat="22.816089" lon="110.479735">
        <ele>127.239562</ele>
        <time>2026-08-16T09:17:17.000Z</time>
      </trkpt>
      <trkpt lat="22.816119" lon="110.479757">
        <ele>127.277617</ele>
        <time>2026-08-16T09:17:18.000Z</time>
      </trkpt>
      <trkpt lat="22.816153" lon="110.479776">
        <ele>127.317811</ele>
        <time>2026-08-16T09:17:19.000Z</time>
      </trkpt>
      <trkpt lat="22.816187" lon="110.479798">
        <ele>127.359415</ele>
        <time>2026-08-16T09:17:20.000Z</time>
      </trkpt>
      <trkpt lat="22.816226" lon="110.479819">
        <ele>127.405173</ele>
        <time>2026-08-16T09:17:21.000Z</time>
      </trkpt>
      <trkpt lat="22.816265" lon="110.479835">
        <ele>127.448992</ele>
        <time>2026-08-16T09:17:22.000Z</time>
      </trkpt>
      <trkpt lat="22.816304" lon="110.479858">
        <ele>127.495643</ele>
        <time>2026-08-16T09:17:23.000Z</time>
      </trkpt>
      <trkpt lat="22.816341" lon="110.479888">
        <ele>127.544187</ele>
        <time>2026-08-16T09:17:24.000Z</time>
      </trkpt>
      <trkpt lat="22.816376" lon="110.479915">
        <ele>127.589321</ele>
        <time>2026-08-16T09:17:25.000Z</time>
      </trkpt>
      <trkpt lat="22.816413" lon="110.479940">
        <ele>127.622363</ele>
        <time>2026-08-16T09:17:26.000Z</time>
      </trkpt>
      <trkpt lat="22.816453" lon="110.479965">
        <ele>127.632372</ele>
        <time>2026-08-16T09:17:27.000Z</time>
      </trkpt>
      <trkpt lat="22.816492" lon="110.479989">
        <ele>127.642094</ele>
        <time>2026-08-16T09:17:28.000Z</time>
      </trkpt>
      <trkpt lat="22.816533" lon="110.480012">
        <ele>127.652102</ele>
        <time>2026-08-16T09:17:29.000Z</time>
      </trkpt>
      <trkpt lat="22.816572" lon="110.480034">
        <ele>127.661633</ele>
        <time>2026-08-16T09:17:30.000Z</time>
      </trkpt>
      <trkpt lat="22.816612" lon="110.480061">
        <ele>127.671847</ele>
        <time>2026-08-16T09:17:31.000Z</time>
      </trkpt>
      <trkpt lat="22.816651" lon="110.480089">
        <ele>127.681987</ele>
        <time>2026-08-16T09:17:32.000Z</time>
      </trkpt>
      <trkpt lat="22.816694" lon="110.480114">
        <ele>127.692565</ele>
        <time>2026-08-16T09:17:33.000Z</time>
      </trkpt>
      <trkpt lat="22.816737" lon="110.480136">
        <ele>127.702874</ele>
        <time>2026-08-16T09:17:34.000Z</time>
      </trkpt>
      <trkpt lat="22.816781" lon="110.480155">
        <ele>127.713142</ele>
        <time>2026-08-16T09:17:35.000Z</time>
      </trkpt>
      <trkpt lat="22.816824" lon="110.480173">
        <ele>127.723135</ele>
        <time>2026-08-16T09:17:36.000Z</time>
      </trkpt>
      <trkpt lat="22.816864" lon="110.480194">
        <ele>127.732770</ele>
        <time>2026-08-16T09:17:37.000Z</time>
      </trkpt>
      <trkpt lat="22.816905" lon="110.480214">
        <ele>127.742517</ele>
        <time>2026-08-16T09:17:38.000Z</time>
      </trkpt>
      <trkpt lat="22.816945" lon="110.480235">
        <ele>127.752152</ele>
        <time>2026-08-16T09:17:39.000Z</time>
      </trkpt>
      <trkpt lat="22.816986" lon="110.480256">
        <ele>127.761983</ele>
        <time>2026-08-16T09:17:40.000Z</time>
      </trkpt>
      <trkpt lat="22.817030" lon="110.480275">
        <ele>127.772251</ele>
        <time>2026-08-16T09:17:41.000Z</time>
      </trkpt>
      <trkpt lat="22.817073" lon="110.480294">
        <ele>127.782319</ele>
        <time>2026-08-16T09:17:42.000Z</time>
      </trkpt>
      <trkpt lat="22.817115" lon="110.480312">
        <ele>127.792110</ele>
        <time>2026-08-16T09:17:43.000Z</time>
      </trkpt>
      <trkpt lat="22.817159" lon="110.480330">
        <ele>127.802306</ele>
        <time>2026-08-16T09:17:44.000Z</time>
      </trkpt>
      <trkpt lat="22.817202" lon="110.480349">
        <ele>127.812373</ele>
        <time>2026-08-16T09:17:45.000Z</time>
      </trkpt>
      <trkpt lat="22.817246" lon="110.480369">
        <ele>127.822717</ele>
        <time>2026-08-16T09:17:46.000Z</time>
      </trkpt>
      <trkpt lat="22.817290" lon="110.480389">
        <ele>127.833061</ele>
        <time>2026-08-16T09:17:47.000Z</time>
      </trkpt>
      <trkpt lat="22.817331" lon="110.480410">
        <ele>127.842891</ele>
        <time>2026-08-16T09:17:48.000Z</time>
      </trkpt>
      <trkpt lat="22.817372" lon="110.480431">
        <ele>127.852722</ele>
        <time>2026-08-16T09:17:49.000Z</time>
      </trkpt>
      <trkpt lat="22.817413" lon="110.480453">
        <ele>127.862640</ele>
        <time>2026-08-16T09:17:50.000Z</time>
      </trkpt>
      <trkpt lat="22.817458" lon="110.480471">
        <ele>127.873039</ele>
        <time>2026-08-16T09:17:51.000Z</time>
      </trkpt>
      <trkpt lat="22.817506" lon="110.480487">
        <ele>127.883927</ele>
        <time>2026-08-16T09:17:52.000Z</time>
      </trkpt>
      <trkpt lat="22.817557" lon="110.480501">
        <ele>127.895333</ele>
        <time>2026-08-16T09:17:53.000Z</time>
      </trkpt>
      <trkpt lat="22.817605" lon="110.480519">
        <ele>127.906345</ele>
        <time>2026-08-16T09:17:54.000Z</time>
      </trkpt>
      <trkpt lat="22.817652" lon="110.480539">
        <ele>127.917292</ele>
        <time>2026-08-16T09:17:55.000Z</time>
      </trkpt>
      <trkpt lat="22.817699" lon="110.480559">
        <ele>127.928238</ele>
        <time>2026-08-16T09:17:56.000Z</time>
      </trkpt>
      <trkpt lat="22.817746" lon="110.480577">
        <ele>127.939045</ele>
        <time>2026-08-16T09:17:57.000Z</time>
      </trkpt>
      <trkpt lat="22.817792" lon="110.480595">
        <ele>127.949648</ele>
        <time>2026-08-16T09:17:58.000Z</time>
      </trkpt>
      <trkpt lat="22.817837" lon="110.480616">
        <ele>127.960270</ele>
        <time>2026-08-16T09:17:59.000Z</time>
      </trkpt>
      <trkpt lat="22.817883" lon="110.480636">
        <ele>127.971015</ele>
        <time>2026-08-16T09:18:00.000Z</time>
      </trkpt>
      <trkpt lat="22.817930" lon="110.480657">
        <ele>127.982036</ele>
        <time>2026-08-16T09:18:01.000Z</time>
      </trkpt>
      <trkpt lat="22.817976" lon="110.480679">
        <ele>127.992936</ele>
        <time>2026-08-16T09:18:02.000Z</time>
      </trkpt>
      <trkpt lat="22.818019" lon="110.480701">
        <ele>128.003244</ele>
        <time>2026-08-16T09:18:03.000Z</time>
      </trkpt>
      <trkpt lat="22.818064" lon="110.480723">
        <ele>128.016309</ele>
        <time>2026-08-16T09:18:04.000Z</time>
      </trkpt>
      <trkpt lat="22.818110" lon="110.480745">
        <ele>128.032452</ele>
        <time>2026-08-16T09:18:05.000Z</time>
      </trkpt>
      <trkpt lat="22.818157" lon="110.480768">
        <ele>128.049009</ele>
        <time>2026-08-16T09:18:06.000Z</time>
      </trkpt>
      <trkpt lat="22.818203" lon="110.480790">
        <ele>128.065152</ele>
        <time>2026-08-16T09:18:07.000Z</time>
      </trkpt>
      <trkpt lat="22.818249" lon="110.480814">
        <ele>128.081543</ele>
        <time>2026-08-16T09:18:08.000Z</time>
      </trkpt>
      <trkpt lat="22.818294" lon="110.480838">
        <ele>128.097645</ele>
        <time>2026-08-16T09:18:09.000Z</time>
      </trkpt>
      <trkpt lat="22.818342" lon="110.480862">
        <ele>128.114616</ele>
        <time>2026-08-16T09:18:10.000Z</time>
      </trkpt>
      <trkpt lat="22.818395" lon="110.480884">
        <ele>128.132839</ele>
        <time>2026-08-16T09:18:11.000Z</time>
      </trkpt>
      <trkpt lat="22.818443" lon="110.480903">
        <ele>128.149246</ele>
        <time>2026-08-16T09:18:12.000Z</time>
      </trkpt>
      <trkpt lat="22.818491" lon="110.480923">
        <ele>128.165758</ele>
        <time>2026-08-16T09:18:13.000Z</time>
      </trkpt>
      <trkpt lat="22.818542" lon="110.480941">
        <ele>128.182979</ele>
        <time>2026-08-16T09:18:14.000Z</time>
      </trkpt>
      <trkpt lat="22.818592" lon="110.480957">
        <ele>128.199719</ele>
        <time>2026-08-16T09:18:15.000Z</time>
      </trkpt>
      <trkpt lat="22.818639" lon="110.480975">
        <ele>128.215724</ele>
        <time>2026-08-16T09:18:16.000Z</time>
      </trkpt>
      <trkpt lat="22.818686" lon="110.480992">
        <ele>128.231633</ele>
        <time>2026-08-16T09:18:17.000Z</time>
      </trkpt>
      <trkpt lat="22.818732" lon="110.481013">
        <ele>128.247659</ele>
        <time>2026-08-16T09:18:18.000Z</time>
      </trkpt>
      <trkpt lat="22.818778" lon="110.481035">
        <ele>128.263802</ele>
        <time>2026-08-16T09:18:19.000Z</time>
      </trkpt>
      <trkpt lat="22.818824" lon="110.481058">
        <ele>128.280067</ele>
        <time>2026-08-16T09:18:20.000Z</time>
      </trkpt>
      <trkpt lat="22.818868" lon="110.481081">
        <ele>128.295751</ele>
        <time>2026-08-16T09:18:21.000Z</time>
      </trkpt>
      <trkpt lat="22.818911" lon="110.481105">
        <ele>128.311279</ele>
        <time>2026-08-16T09:18:22.000Z</time>
      </trkpt>
      <trkpt lat="22.818957" lon="110.481126">
        <ele>128.327305</ele>
        <time>2026-08-16T09:18:23.000Z</time>
      </trkpt>
      <trkpt lat="22.819003" lon="110.481147">
        <ele>128.343330</ele>
        <time>2026-08-16T09:18:24.000Z</time>
      </trkpt>
      <trkpt lat="22.819047" lon="110.481168">
        <ele>128.358766</ele>
        <time>2026-08-16T09:18:25.000Z</time>
      </trkpt>
      <trkpt lat="22.819091" lon="110.481187">
        <ele>128.373974</ele>
        <time>2026-08-16T09:18:26.000Z</time>
      </trkpt>
      <trkpt lat="22.819136" lon="110.481205">
        <ele>128.389375</ele>
        <time>2026-08-16T09:18:27.000Z</time>
      </trkpt>
      <trkpt lat="22.819180" lon="110.481223">
        <ele>128.404475</ele>
        <time>2026-08-16T09:18:28.000Z</time>
      </trkpt>
      <trkpt lat="22.819225" lon="110.481242">
        <ele>128.419981</ele>
        <time>2026-08-16T09:18:29.000Z</time>
      </trkpt>
      <trkpt lat="22.819270" lon="110.481260">
        <ele>128.435382</ele>
        <time>2026-08-16T09:18:30.000Z</time>
      </trkpt>
      <trkpt lat="22.819314" lon="110.481277">
        <ele>128.450380</ele>
        <time>2026-08-16T09:18:31.000Z</time>
      </trkpt>
      <trkpt lat="22.819359" lon="110.481295">
        <ele>128.465781</ele>
        <time>2026-08-16T09:18:32.000Z</time>
      </trkpt>
      <trkpt lat="22.819403" lon="110.481312">
        <ele>128.480780</ele>
        <time>2026-08-16T09:18:33.000Z</time>
      </trkpt>
      <trkpt lat="22.819448" lon="110.481332">
        <ele>128.496396</ele>
        <time>2026-08-16T09:18:34.000Z</time>
      </trkpt>
      <trkpt lat="22.819492" lon="110.481351">
        <ele>128.511603</ele>
        <time>2026-08-16T09:18:35.000Z</time>
      </trkpt>
      <trkpt lat="22.819537" lon="110.481370">
        <ele>128.527109</ele>
        <time>2026-08-16T09:18:36.000Z</time>
      </trkpt>
      <trkpt lat="22.819581" lon="110.481390">
        <ele>128.542428</ele>
        <time>2026-08-16T09:18:37.000Z</time>
      </trkpt>
      <trkpt lat="22.819623" lon="110.481411">
        <ele>128.557278</ele>
        <time>2026-08-16T09:18:38.000Z</time>
      </trkpt>
      <trkpt lat="22.819666" lon="110.481433">
        <ele>128.572545</ele>
        <time>2026-08-16T09:18:39.000Z</time>
      </trkpt>
      <trkpt lat="22.819710" lon="110.481454">
        <ele>128.589899</ele>
        <time>2026-08-16T09:18:40.000Z</time>
      </trkpt>
      <trkpt lat="22.819754" lon="110.481475">
        <ele>128.626918</ele>
        <time>2026-08-16T09:18:41.000Z</time>
      </trkpt>
      <trkpt lat="22.819798" lon="110.481496">
        <ele>128.663937</ele>
        <time>2026-08-16T09:18:42.000Z</time>
      </trkpt>
      <trkpt lat="22.819842" lon="110.481515">
        <ele>128.700407</ele>
        <time>2026-08-16T09:18:43.000Z</time>
      </trkpt>
      <trkpt lat="22.819887" lon="110.481534">
        <ele>128.737594</ele>
        <time>2026-08-16T09:18:44.000Z</time>
      </trkpt>
      <trkpt lat="22.819932" lon="110.481554">
        <ele>128.775045</ele>
        <time>2026-08-16T09:18:45.000Z</time>
      </trkpt>
      <trkpt lat="22.819977" lon="110.481574">
        <ele>128.812495</ele>
        <time>2026-08-16T09:18:46.000Z</time>
      </trkpt>
      <trkpt lat="22.820022" lon="110.481594">
        <ele>128.849945</ele>
        <time>2026-08-16T09:18:47.000Z</time>
      </trkpt>
      <trkpt lat="22.820069" lon="110.481616">
        <ele>128.889366</ele>
        <time>2026-08-16T09:18:48.000Z</time>
      </trkpt>
      <trkpt lat="22.820115" lon="110.481637">
        <ele>128.927799</ele>
        <time>2026-08-16T09:18:49.000Z</time>
      </trkpt>
      <trkpt lat="22.820160" lon="110.481655">
        <ele>128.964735</ele>
        <time>2026-08-16T09:18:50.000Z</time>
      </trkpt>
      <trkpt lat="22.820207" lon="110.481672">
        <ele>129.002889</ele>
        <time>2026-08-16T09:18:51.000Z</time>
      </trkpt>
      <trkpt lat="22.820252" lon="110.481693">
        <ele>129.040614</ele>
        <time>2026-08-16T09:18:52.000Z</time>
      </trkpt>
      <trkpt lat="22.820293" lon="110.481715">
        <ele>129.075839</ele>
        <time>2026-08-16T09:18:53.000Z</time>
      </trkpt>
      <trkpt lat="22.820336" lon="110.481738">
        <ele>129.112760</ele>
        <time>2026-08-16T09:18:54.000Z</time>
      </trkpt>
      <trkpt lat="22.820379" lon="110.481758">
        <ele>129.148790</ele>
        <time>2026-08-16T09:18:55.000Z</time>
      </trkpt>
      <trkpt lat="22.820422" lon="110.481776">
        <ele>129.184284</ele>
        <time>2026-08-16T09:18:56.000Z</time>
      </trkpt>
      <trkpt lat="22.820466" lon="110.481792">
        <ele>129.220022</ele>
        <time>2026-08-16T09:18:57.000Z</time>
      </trkpt>
      <trkpt lat="22.820510" lon="110.481810">
        <ele>129.256236</ele>
        <time>2026-08-16T09:18:58.000Z</time>
      </trkpt>
      <trkpt lat="22.820554" lon="110.481827">
        <ele>129.292206</ele>
        <time>2026-08-16T09:18:59.000Z</time>
      </trkpt>
      <trkpt lat="22.820597" lon="110.481846">
        <ele>129.327962</ele>
        <time>2026-08-16T09:19:00.000Z</time>
      </trkpt>
      <trkpt lat="22.820640" lon="110.481865">
        <ele>129.363718</ele>
        <time>2026-08-16T09:19:01.000Z</time>
      </trkpt>
      <trkpt lat="22.820683" lon="110.481885">
        <ele>129.399747</ele>
        <time>2026-08-16T09:19:02.000Z</time>
      </trkpt>
      <trkpt lat="22.820726" lon="110.481905">
        <ele>129.435777</ele>
        <time>2026-08-16T09:19:03.000Z</time>
      </trkpt>
      <trkpt lat="22.820769" lon="110.481918">
        <ele>129.470154</ele>
        <time>2026-08-16T09:19:04.000Z</time>
      </trkpt>
      <trkpt lat="22.820810" lon="110.481935">
        <ele>129.503956</ele>
        <time>2026-08-16T09:19:05.000Z</time>
      </trkpt>
      <trkpt lat="22.820852" lon="110.481953">
        <ele>129.538733</ele>
        <time>2026-08-16T09:19:06.000Z</time>
      </trkpt>
      <trkpt lat="22.820894" lon="110.481969">
        <ele>129.573014</ele>
        <time>2026-08-16T09:19:07.000Z</time>
      </trkpt>
      <trkpt lat="22.820934" lon="110.481987">
        <ele>129.606363</ele>
        <time>2026-08-16T09:19:08.000Z</time>
      </trkpt>
      <trkpt lat="22.820977" lon="110.482006">
        <ele>129.642119</ele>
        <time>2026-08-16T09:19:09.000Z</time>
      </trkpt>
      <trkpt lat="22.821017" lon="110.482026">
        <ele>129.676037</ele>
        <time>2026-08-16T09:19:10.000Z</time>
      </trkpt>
      <trkpt lat="22.821056" lon="110.482045">
        <ele>129.708961</ele>
        <time>2026-08-16T09:19:11.000Z</time>
      </trkpt>
      <trkpt lat="22.821097" lon="110.482066">
        <ele>129.743878</ele>
        <time>2026-08-16T09:19:12.000Z</time>
      </trkpt>
      <trkpt lat="22.821139" lon="110.482084">
        <ele>129.778655</ele>
        <time>2026-08-16T09:19:13.000Z</time>
      </trkpt>
      <trkpt lat="22.821183" lon="110.482102">
        <ele>129.814868</ele>
        <time>2026-08-16T09:19:14.000Z</time>
      </trkpt>
      <trkpt lat="22.821229" lon="110.482117">
        <ele>129.851859</ele>
        <time>2026-08-16T09:19:15.000Z</time>
      </trkpt>
      <trkpt lat="22.821271" lon="110.482133">
        <ele>129.886140</ele>
        <time>2026-08-16T09:19:16.000Z</time>
      </trkpt>
      <trkpt lat="22.821312" lon="110.482153">
        <ele>129.920759</ele>
        <time>2026-08-16T09:19:17.000Z</time>
      </trkpt>
      <trkpt lat="22.821353" lon="110.482178">
        <ele>129.956979</ele>
        <time>2026-08-16T09:19:18.000Z</time>
      </trkpt>
      <trkpt lat="22.821395" lon="110.482202">
        <ele>130.024950</ele>
        <time>2026-08-16T09:19:19.000Z</time>
      </trkpt>
      <trkpt lat="22.821440" lon="110.482223">
        <ele>130.117120</ele>
        <time>2026-08-16T09:19:20.000Z</time>
      </trkpt>
      <trkpt lat="22.821484" lon="110.482247">
        <ele>130.209783</ele>
        <time>2026-08-16T09:19:21.000Z</time>
      </trkpt>
      <trkpt lat="22.821528" lon="110.482271">
        <ele>130.302446</ele>
        <time>2026-08-16T09:19:22.000Z</time>
      </trkpt>
      <trkpt lat="22.821570" lon="110.482295">
        <ele>130.391762</ele>
        <time>2026-08-16T09:19:23.000Z</time>
      </trkpt>
      <trkpt lat="22.821612" lon="110.482321">
        <ele>130.482747</ele>
        <time>2026-08-16T09:19:24.000Z</time>
      </trkpt>
      <trkpt lat="22.821654" lon="110.482347">
        <ele>130.573732</ele>
        <time>2026-08-16T09:19:25.000Z</time>
      </trkpt>
      <trkpt lat="22.821694" lon="110.482378">
        <ele>130.666224</ele>
        <time>2026-08-16T09:19:26.000Z</time>
      </trkpt>
      <trkpt lat="22.821735" lon="110.482408">
        <ele>130.759273</ele>
        <time>2026-08-16T09:19:27.000Z</time>
      </trkpt>
      <trkpt lat="22.821776" lon="110.482437">
        <ele>130.851363</ele>
        <time>2026-08-16T09:19:28.000Z</time>
      </trkpt>
      <trkpt lat="22.821817" lon="110.482465">
        <ele>130.942518</ele>
        <time>2026-08-16T09:19:29.000Z</time>
      </trkpt>
      <trkpt lat="22.821857" lon="110.482491">
        <ele>131.030254</ele>
        <time>2026-08-16T09:19:30.000Z</time>
      </trkpt>
      <trkpt lat="22.821896" lon="110.482517">
        <ele>131.116381</ele>
        <time>2026-08-16T09:19:31.000Z</time>
      </trkpt>
      <trkpt lat="22.821934" lon="110.482541">
        <ele>131.199113</ele>
        <time>2026-08-16T09:19:32.000Z</time>
      </trkpt>
      <trkpt lat="22.821971" lon="110.482565">
        <ele>131.280224</ele>
        <time>2026-08-16T09:19:33.000Z</time>
      </trkpt>
      <trkpt lat="22.822010" lon="110.482587">
        <ele>131.362931</ele>
        <time>2026-08-16T09:19:34.000Z</time>
      </trkpt>
      <trkpt lat="22.822049" lon="110.482612">
        <ele>131.448163</ele>
        <time>2026-08-16T09:19:35.000Z</time>
      </trkpt>
      <trkpt lat="22.822083" lon="110.482638">
        <ele>131.526430</ele>
        <time>2026-08-16T09:19:36.000Z</time>
      </trkpt>
      <trkpt lat="22.822117" lon="110.482665">
        <ele>131.605709</ele>
        <time>2026-08-16T09:19:37.000Z</time>
      </trkpt>
      <trkpt lat="22.822150" lon="110.482692">
        <ele>131.683478</ele>
        <time>2026-08-16T09:19:38.000Z</time>
      </trkpt>
      <trkpt lat="22.822183" lon="110.482720">
        <ele>131.762302</ele>
        <time>2026-08-16T09:19:39.000Z</time>
      </trkpt>
      <trkpt lat="22.822217" lon="110.482747">
        <ele>131.841581</ele>
        <time>2026-08-16T09:19:40.000Z</time>
      </trkpt>
      <trkpt lat="22.822251" lon="110.482773">
        <ele>131.919848</ele>
        <time>2026-08-16T09:19:41.000Z</time>
      </trkpt>
      <trkpt lat="22.822284" lon="110.482800">
        <ele>131.997617</ele>
        <time>2026-08-16T09:19:42.000Z</time>
      </trkpt>
      <trkpt lat="22.822315" lon="110.482828">
        <ele>132.073512</ele>
        <time>2026-08-16T09:19:43.000Z</time>
      </trkpt>
      <trkpt lat="22.822348" lon="110.482855">
        <ele>132.151281</ele>
        <time>2026-08-16T09:19:44.000Z</time>
      </trkpt>
      <trkpt lat="22.822380" lon="110.482882">
        <ele>132.227555</ele>
        <time>2026-08-16T09:19:45.000Z</time>
      </trkpt>
      <trkpt lat="22.822410" lon="110.482910">
        <ele>132.302015</ele>
        <time>2026-08-16T09:19:46.000Z</time>
      </trkpt>
      <trkpt lat="22.822439" lon="110.482938">
        <ele>132.375058</ele>
        <time>2026-08-16T09:19:47.000Z</time>
      </trkpt>
      <trkpt lat="22.822468" lon="110.482964">
        <ele>132.445843</ele>
        <time>2026-08-16T09:19:48.000Z</time>
      </trkpt>
      <trkpt lat="22.822497" lon="110.482989">
        <ele>132.515537</ele>
        <time>2026-08-16T09:19:49.000Z</time>
      </trkpt>
      <trkpt lat="22.822526" lon="110.483014">
        <ele>132.585230</ele>
        <time>2026-08-16T09:19:50.000Z</time>
      </trkpt>
      <trkpt lat="22.822556" lon="110.483039">
        <ele>132.656406</ele>
        <time>2026-08-16T09:19:51.000Z</time>
      </trkpt>
      <trkpt lat="22.822586" lon="110.483065">
        <ele>132.728651</ele>
        <time>2026-08-16T09:19:52.000Z</time>
      </trkpt>
      <trkpt lat="22.822615" lon="110.483092">
        <ele>132.800553</ele>
        <time>2026-08-16T09:19:53.000Z</time>
      </trkpt>
      <trkpt lat="22.822644" lon="110.483121">
        <ele>132.874761</ele>
        <time>2026-08-16T09:19:54.000Z</time>
      </trkpt>
      <trkpt lat="22.822671" lon="110.483149">
        <ele>132.945038</ele>
        <time>2026-08-16T09:19:55.000Z</time>
      </trkpt>
      <trkpt lat="22.822698" lon="110.483179">
        <ele>133.017755</ele>
        <time>2026-08-16T09:19:56.000Z</time>
      </trkpt>
      <trkpt lat="22.822725" lon="110.483208">
        <ele>133.089241</ele>
        <time>2026-08-16T09:19:57.000Z</time>
      </trkpt>
      <trkpt lat="22.822751" lon="110.483237">
        <ele>133.159402</ele>
        <time>2026-08-16T09:19:58.000Z</time>
      </trkpt>
      <trkpt lat="22.822778" lon="110.483266">
        <ele>133.230888</ele>
        <time>2026-08-16T09:19:59.000Z</time>
      </trkpt>
      <trkpt lat="22.822802" lon="110.483298">
        <ele>133.302435</ele>
        <time>2026-08-16T09:20:00.000Z</time>
      </trkpt>
      <trkpt lat="22.822827" lon="110.483331">
        <ele>133.383467</ele>
        <time>2026-08-16T09:20:01.000Z</time>
      </trkpt>
      <trkpt lat="22.822854" lon="110.483362">
        <ele>133.482522</ele>
        <time>2026-08-16T09:20:02.000Z</time>
      </trkpt>
      <trkpt lat="22.822881" lon="110.483389">
        <ele>133.575046</ele>
        <time>2026-08-16T09:20:03.000Z</time>
      </trkpt>
      <trkpt lat="22.822906" lon="110.483416">
        <ele>133.663930</ele>
        <time>2026-08-16T09:20:04.000Z</time>
      </trkpt>
      <trkpt lat="22.822931" lon="110.483444">
        <ele>133.754467</ele>
        <time>2026-08-16T09:20:05.000Z</time>
      </trkpt>
      <trkpt lat="22.822953" lon="110.483470">
        <ele>133.836437</ele>
        <time>2026-08-16T09:20:06.000Z</time>
      </trkpt>
      <trkpt lat="22.822977" lon="110.483500">
        <ele>133.928695</ele>
        <time>2026-08-16T09:20:07.000Z</time>
      </trkpt>
      <trkpt lat="22.823001" lon="110.483526">
        <ele>134.014155</ele>
        <time>2026-08-16T09:20:08.000Z</time>
      </trkpt>
      <trkpt lat="22.823025" lon="110.483551">
        <ele>134.097990</ele>
        <time>2026-08-16T09:20:09.000Z</time>
      </trkpt>
      <trkpt lat="22.823049" lon="110.483576">
        <ele>134.181824</ele>
        <time>2026-08-16T09:20:10.000Z</time>
      </trkpt>
      <trkpt lat="22.823073" lon="110.483600">
        <ele>134.264067</ele>
        <time>2026-08-16T09:20:11.000Z</time>
      </trkpt>
      <trkpt lat="22.823095" lon="110.483624">
        <ele>134.342679</ele>
        <time>2026-08-16T09:20:12.000Z</time>
      </trkpt>
      <trkpt lat="22.823113" lon="110.483647">
        <ele>134.412754</ele>
        <time>2026-08-16T09:20:13.000Z</time>
      </trkpt>
      <trkpt lat="22.823134" lon="110.483669">
        <ele>134.486310</ele>
        <time>2026-08-16T09:20:14.000Z</time>
      </trkpt>
      <trkpt lat="22.823156" lon="110.483691">
        <ele>134.561700</ele>
        <time>2026-08-16T09:20:15.000Z</time>
      </trkpt>
      <trkpt lat="22.823175" lon="110.483718">
        <ele>134.640593</ele>
        <time>2026-08-16T09:20:16.000Z</time>
      </trkpt>
      <trkpt lat="22.823194" lon="110.483744">
        <ele>134.717653</ele>
        <time>2026-08-16T09:20:17.000Z</time>
      </trkpt>
      <trkpt lat="22.823210" lon="110.483769">
        <ele>134.788339</ele>
        <time>2026-08-16T09:20:18.000Z</time>
      </trkpt>
      <trkpt lat="22.823225" lon="110.483794">
        <ele>134.857619</ele>
        <time>2026-08-16T09:20:19.000Z</time>
      </trkpt>
      <trkpt lat="22.823240" lon="110.483818">
        <ele>134.924964</ele>
        <time>2026-08-16T09:20:20.000Z</time>
      </trkpt>
      <trkpt lat="22.823255" lon="110.483841">
        <ele>134.990400</ele>
        <time>2026-08-16T09:20:21.000Z</time>
      </trkpt>
      <trkpt lat="22.823270" lon="110.483864">
        <ele>135.055836</ele>
        <time>2026-08-16T09:20:22.000Z</time>
      </trkpt>
      <trkpt lat="22.823283" lon="110.483891">
        <ele>135.126583</ele>
        <time>2026-08-16T09:20:23.000Z</time>
      </trkpt>
      <trkpt lat="22.823296" lon="110.483916">
        <ele>135.193247</ele>
        <time>2026-08-16T09:20:24.000Z</time>
      </trkpt>
      <trkpt lat="22.823312" lon="110.483941">
        <ele>135.263933</ele>
        <time>2026-08-16T09:20:25.000Z</time>
      </trkpt>
      <trkpt lat="22.823327" lon="110.483965">
        <ele>135.331278</ele>
        <time>2026-08-16T09:20:26.000Z</time>
      </trkpt>
      <trkpt lat="22.823342" lon="110.483989">
        <ele>135.398624</ele>
        <time>2026-08-16T09:20:27.000Z</time>
      </trkpt>
      <trkpt lat="22.823354" lon="110.484013">
        <ele>135.462036</ele>
        <time>2026-08-16T09:20:28.000Z</time>
      </trkpt>
      <trkpt lat="22.823365" lon="110.484038">
        <ele>135.526374</ele>
        <time>2026-08-16T09:20:29.000Z</time>
      </trkpt>
      <trkpt lat="22.823377" lon="110.484062">
        <ele>135.589786</ele>
        <time>2026-08-16T09:20:30.000Z</time>
      </trkpt>
      <trkpt lat="22.823389" lon="110.484085">
        <ele>135.651167</ele>
        <time>2026-08-16T09:20:31.000Z</time>
      </trkpt>
      <trkpt lat="22.823401" lon="110.484109">
        <ele>135.714579</ele>
        <time>2026-08-16T09:20:32.000Z</time>
      </trkpt>
      <trkpt lat="22.823409" lon="110.484130">
        <ele>135.767352</ele>
        <time>2026-08-16T09:20:33.000Z</time>
      </trkpt>
      <trkpt lat="22.823417" lon="110.484152">
        <ele>135.822279</ele>
        <time>2026-08-16T09:20:34.000Z</time>
      </trkpt>
      <trkpt lat="22.823429" lon="110.484174">
        <ele>135.881650</ele>
        <time>2026-08-16T09:20:35.000Z</time>
      </trkpt>
      <trkpt lat="22.823441" lon="110.484196">
        <ele>135.941020</ele>
        <time>2026-08-16T09:20:36.000Z</time>
      </trkpt>
      <trkpt lat="22.823452" lon="110.484220">
        <ele>136.003271</ele>
        <time>2026-08-16T09:20:37.000Z</time>
      </trkpt>
      <trkpt lat="22.823465" lon="110.484244">
        <ele>136.067922</ele>
        <time>2026-08-16T09:20:38.000Z</time>
      </trkpt>
      <trkpt lat="22.823477" lon="110.484268">
        <ele>136.131334</ele>
        <time>2026-08-16T09:20:39.000Z</time>
      </trkpt>
      <trkpt lat="22.823490" lon="110.484294">
        <ele>136.200031</ele>
        <time>2026-08-16T09:20:40.000Z</time>
      </trkpt>
      <trkpt lat="22.823501" lon="110.484318">
        <ele>136.262281</ele>
        <time>2026-08-16T09:20:41.000Z</time>
      </trkpt>
      <trkpt lat="22.823513" lon="110.484343">
        <ele>136.327744</ele>
        <time>2026-08-16T09:20:42.000Z</time>
      </trkpt>
      <trkpt lat="22.823524" lon="110.484366">
        <ele>136.387923</ele>
        <time>2026-08-16T09:20:43.000Z</time>
      </trkpt>
      <trkpt lat="22.823534" lon="110.484388">
        <ele>136.444893</ele>
        <time>2026-08-16T09:20:44.000Z</time>
      </trkpt>
      <trkpt lat="22.823545" lon="110.484412">
        <ele>136.507143</ele>
        <time>2026-08-16T09:20:45.000Z</time>
      </trkpt>
      <trkpt lat="22.823555" lon="110.484438">
        <ele>136.572573</ele>
        <time>2026-08-16T09:20:46.000Z</time>
      </trkpt>
      <trkpt lat="22.823565" lon="110.484465">
        <ele>136.640152</ele>
        <time>2026-08-16T09:20:47.000Z</time>
      </trkpt>
      <trkpt lat="22.823573" lon="110.484490">
        <ele>136.701614</ele>
        <time>2026-08-16T09:20:48.000Z</time>
      </trkpt>
      <trkpt lat="22.823582" lon="110.484516">
        <ele>136.766115</ele>
        <time>2026-08-16T09:20:49.000Z</time>
      </trkpt>
      <trkpt lat="22.823592" lon="110.484542">
        <ele>136.831546</ele>
        <time>2026-08-16T09:20:50.000Z</time>
      </trkpt>
      <trkpt lat="22.823603" lon="110.484565">
        <ele>136.891725</ele>
        <time>2026-08-16T09:20:51.000Z</time>
      </trkpt>
      <trkpt lat="22.823614" lon="110.484589">
        <ele>136.953975</ele>
        <time>2026-08-16T09:20:52.000Z</time>
      </trkpt>
      <trkpt lat="22.823624" lon="110.484613">
        <ele>137.015145</ele>
        <time>2026-08-16T09:20:53.000Z</time>
      </trkpt>
      <trkpt lat="22.823634" lon="110.484636">
        <ele>137.074206</ele>
        <time>2026-08-16T09:20:54.000Z</time>
      </trkpt>
      <trkpt lat="22.823644" lon="110.484659">
        <ele>137.133267</ele>
        <time>2026-08-16T09:20:55.000Z</time>
      </trkpt>
      <trkpt lat="22.823654" lon="110.484682">
        <ele>137.192328</ele>
        <time>2026-08-16T09:20:56.000Z</time>
      </trkpt>
      <trkpt lat="22.823664" lon="110.484708">
        <ele>137.257759</ele>
        <time>2026-08-16T09:20:57.000Z</time>
      </trkpt>
      <trkpt lat="22.823676" lon="110.484735">
        <ele>137.327374</ele>
        <time>2026-08-16T09:20:58.000Z</time>
      </trkpt>
      <trkpt lat="22.823690" lon="110.484760">
        <ele>137.395312</ele>
        <time>2026-08-16T09:20:59.000Z</time>
      </trkpt>
      <trkpt lat="22.823703" lon="110.484786">
        <ele>137.464009</ele>
        <time>2026-08-16T09:21:00.000Z</time>
      </trkpt>
      <trkpt lat="22.823715" lon="110.484813">
        <ele>137.533624</ele>
        <time>2026-08-16T09:21:01.000Z</time>
      </trkpt>
      <trkpt lat="22.823728" lon="110.484841">
        <ele>137.606437</ele>
        <time>2026-08-16T09:21:02.000Z</time>
      </trkpt>
      <trkpt lat="22.823741" lon="110.484868">
        <ele>137.677184</ele>
        <time>2026-08-16T09:21:03.000Z</time>
      </trkpt>
      <trkpt lat="22.823752" lon="110.484895">
        <ele>137.745743</ele>
        <time>2026-08-16T09:21:04.000Z</time>
      </trkpt>
      <trkpt lat="22.823762" lon="110.484921">
        <ele>137.811173</ele>
        <time>2026-08-16T09:21:05.000Z</time>
      </trkpt>
      <trkpt lat="22.823776" lon="110.484948">
        <ele>137.883121</ele>
        <time>2026-08-16T09:21:06.000Z</time>
      </trkpt>
      <trkpt lat="22.823792" lon="110.484976">
        <ele>137.754352</ele>
        <time>2026-08-16T09:21:07.000Z</time>
      </trkpt>
      <trkpt lat="22.823811" lon="110.485004">
        <ele>137.603235</ele>
        <time>2026-08-16T09:21:08.000Z</time>
      </trkpt>
      <trkpt lat="22.823832" lon="110.485026">
        <ele>137.465583</ele>
        <time>2026-08-16T09:21:09.000Z</time>
      </trkpt>
      <trkpt lat="22.823853" lon="110.485047">
        <ele>137.330914</ele>
        <time>2026-08-16T09:21:10.000Z</time>
      </trkpt>
      <trkpt lat="22.823872" lon="110.485070">
        <ele>137.196678</ele>
        <time>2026-08-16T09:21:11.000Z</time>
      </trkpt>
      <trkpt lat="22.823887" lon="110.485089">
        <ele>137.087949</ele>
        <time>2026-08-16T09:21:12.000Z</time>
      </trkpt>
      <trkpt lat="22.823897" lon="110.485105">
        <ele>137.003930</ele>
        <time>2026-08-16T09:21:13.000Z</time>
      </trkpt>
      <trkpt lat="22.823902" lon="110.485115">
        <ele>136.954485</ele>
        <time>2026-08-16T09:21:14.000Z</time>
      </trkpt>
      <trkpt lat="22.823908" lon="110.485118">
        <ele>136.923333</ele>
        <time>2026-08-16T09:21:15.000Z</time>
      </trkpt>
      <trkpt lat="22.823913" lon="110.485110">
        <ele>136.881323</ele>
        <time>2026-08-16T09:21:18.000Z</time>
      </trkpt>
      <trkpt lat="22.823912" lon="110.485107">
        <ele>136.867458</ele>
        <time>2026-08-16T09:21:19.000Z</time>
      </trkpt>
      <trkpt lat="22.823904" lon="110.485177">
        <ele>136.560895</ele>
        <time>2026-08-16T09:21:59.000Z</time>
      </trkpt>
      <trkpt lat="22.823911" lon="110.485203">
        <ele>136.443172</ele>
        <time>2026-08-16T09:22:00.000Z</time>
      </trkpt>
      <trkpt lat="22.823922" lon="110.485234">
        <ele>136.298801</ele>
        <time>2026-08-16T09:22:01.000Z</time>
      </trkpt>
      <trkpt lat="22.823934" lon="110.485269">
        <ele>136.136501</ele>
        <time>2026-08-16T09:22:02.000Z</time>
      </trkpt>
      <trkpt lat="22.823947" lon="110.485306">
        <ele>135.964404</ele>
        <time>2026-08-16T09:22:03.000Z</time>
      </trkpt>
      <trkpt lat="22.823965" lon="110.485350">
        <ele>135.755182</ele>
        <time>2026-08-16T09:22:04.000Z</time>
      </trkpt>
      <trkpt lat="22.823980" lon="110.485396">
        <ele>135.543114</ele>
        <time>2026-08-16T09:22:05.000Z</time>
      </trkpt>
      <trkpt lat="22.823997" lon="110.485447">
        <ele>135.307408</ele>
        <time>2026-08-16T09:22:06.000Z</time>
      </trkpt>
      <trkpt lat="22.824019" lon="110.485498">
        <ele>135.062678</ele>
        <time>2026-08-16T09:22:07.000Z</time>
      </trkpt>
      <trkpt lat="22.824044" lon="110.485552">
        <ele>134.800041</ele>
        <time>2026-08-16T09:22:08.000Z</time>
      </trkpt>
      <trkpt lat="22.824064" lon="110.485610">
        <ele>134.530899</ele>
        <time>2026-08-16T09:22:09.000Z</time>
      </trkpt>
      <trkpt lat="22.824086" lon="110.485668">
        <ele>134.258308</ele>
        <time>2026-08-16T09:22:10.000Z</time>
      </trkpt>
      <trkpt lat="22.824111" lon="110.485728">
        <ele>133.972129</ele>
        <time>2026-08-16T09:22:11.000Z</time>
      </trkpt>
      <trkpt lat="22.824139" lon="110.485791">
        <ele>133.668149</ele>
        <time>2026-08-16T09:22:12.000Z</time>
      </trkpt>
      <trkpt lat="22.824166" lon="110.485857">
        <ele>133.354316</ele>
        <time>2026-08-16T09:22:13.000Z</time>
      </trkpt>
      <trkpt lat="22.824196" lon="110.485924">
        <ele>133.030580</ele>
        <time>2026-08-16T09:22:14.000Z</time>
      </trkpt>
      <trkpt lat="22.824228" lon="110.485994">
        <ele>132.690983</ele>
        <time>2026-08-16T09:22:15.000Z</time>
      </trkpt>
      <trkpt lat="22.824262" lon="110.486068">
        <ele>132.331620</ele>
        <time>2026-08-16T09:22:16.000Z</time>
      </trkpt>
      <trkpt lat="22.824294" lon="110.486144">
        <ele>131.968477</ele>
        <time>2026-08-16T09:22:17.000Z</time>
      </trkpt>
      <trkpt lat="22.824328" lon="110.486224">
        <ele>131.585600</ele>
        <time>2026-08-16T09:22:18.000Z</time>
      </trkpt>
      <trkpt lat="22.824362" lon="110.486308">
        <ele>131.186869</ele>
        <time>2026-08-16T09:22:19.000Z</time>
      </trkpt>
      <trkpt lat="22.824396" lon="110.486391">
        <ele>130.792114</ele>
        <time>2026-08-16T09:22:20.000Z</time>
      </trkpt>
      <trkpt lat="22.824430" lon="110.486476">
        <ele>130.389400</ele>
        <time>2026-08-16T09:22:21.000Z</time>
      </trkpt>
      <trkpt lat="22.824462" lon="110.486565">
        <ele>129.974201</ele>
        <time>2026-08-16T09:22:22.000Z</time>
      </trkpt>
      <trkpt lat="22.824490" lon="110.486657">
        <ele>129.553119</ele>
        <time>2026-08-16T09:22:23.000Z</time>
      </trkpt>
      <trkpt lat="22.824516" lon="110.486752">
        <ele>129.319769</ele>
        <time>2026-08-16T09:22:24.000Z</time>
      </trkpt>
      <trkpt lat="22.824537" lon="110.486849">
        <ele>129.187221</ele>
        <time>2026-08-16T09:22:25.000Z</time>
      </trkpt>
      <trkpt lat="22.824557" lon="110.486950">
        <ele>129.049798</ele>
        <time>2026-08-16T09:22:26.000Z</time>
      </trkpt>
      <trkpt lat="22.824574" lon="110.487053">
        <ele>128.910600</ele>
        <time>2026-08-16T09:22:27.000Z</time>
      </trkpt>
      <trkpt lat="22.824586" lon="110.487155">
        <ele>128.773812</ele>
        <time>2026-08-16T09:22:28.000Z</time>
      </trkpt>
      <trkpt lat="22.824596" lon="110.487257">
        <ele>128.637359</ele>
        <time>2026-08-16T09:22:29.000Z</time>
      </trkpt>
      <trkpt lat="22.824601" lon="110.487356">
        <ele>128.505464</ele>
        <time>2026-08-16T09:22:30.000Z</time>
      </trkpt>
      <trkpt lat="22.824598" lon="110.487452">
        <ele>128.377685</ele>
        <time>2026-08-16T09:22:31.000Z</time>
      </trkpt>
      <trkpt lat="22.824592" lon="110.487545">
        <ele>128.253667</ele>
        <time>2026-08-16T09:22:32.000Z</time>
      </trkpt>
      <trkpt lat="22.824584" lon="110.487636">
        <ele>128.132063</ele>
        <time>2026-08-16T09:22:33.000Z</time>
      </trkpt>
      <trkpt lat="22.824576" lon="110.487723">
        <ele>128.015755</ele>
        <time>2026-08-16T09:22:34.000Z</time>
      </trkpt>
      <trkpt lat="22.824570" lon="110.487808">
        <ele>127.902351</ele>
        <time>2026-08-16T09:22:35.000Z</time>
      </trkpt>
      <trkpt lat="22.824564" lon="110.487892">
        <ele>127.790273</ele>
        <time>2026-08-16T09:22:36.000Z</time>
      </trkpt>
      <trkpt lat="22.824560" lon="110.487975">
        <ele>127.679710</ele>
        <time>2026-08-16T09:22:37.000Z</time>
      </trkpt>
      <trkpt lat="22.824554" lon="110.488055">
        <ele>127.572937</ele>
        <time>2026-08-16T09:22:38.000Z</time>
      </trkpt>
      <trkpt lat="22.824550" lon="110.488133">
        <ele>127.469015</ele>
        <time>2026-08-16T09:22:39.000Z</time>
      </trkpt>
      <trkpt lat="22.824544" lon="110.488207">
        <ele>127.370195</ele>
        <time>2026-08-16T09:22:40.000Z</time>
      </trkpt>
      <trkpt lat="22.824537" lon="110.488278">
        <ele>127.275207</ele>
        <time>2026-08-16T09:22:41.000Z</time>
      </trkpt>
      <trkpt lat="22.824530" lon="110.488349">
        <ele>127.180219</ele>
        <time>2026-08-16T09:22:42.000Z</time>
      </trkpt>
      <trkpt lat="22.824526" lon="110.488419">
        <ele>127.086921</ele>
        <time>2026-08-16T09:22:43.000Z</time>
      </trkpt>
      <trkpt lat="22.824523" lon="110.488489">
        <ele>126.993702</ele>
        <time>2026-08-16T09:22:44.000Z</time>
      </trkpt>
      <trkpt lat="22.824518" lon="110.488556">
        <ele>126.904282</ele>
        <time>2026-08-16T09:22:45.000Z</time>
      </trkpt>
      <trkpt lat="22.824513" lon="110.488623">
        <ele>126.814862</ele>
        <time>2026-08-16T09:22:46.000Z</time>
      </trkpt>
      <trkpt lat="22.824508" lon="110.488688">
        <ele>126.743036</ele>
        <time>2026-08-16T09:22:47.000Z</time>
      </trkpt>
      <trkpt lat="22.824503" lon="110.488754">
        <ele>126.670844</ele>
        <time>2026-08-16T09:22:48.000Z</time>
      </trkpt>
      <trkpt lat="22.824498" lon="110.488822">
        <ele>126.596479</ele>
        <time>2026-08-16T09:22:49.000Z</time>
      </trkpt>
      <trkpt lat="22.824494" lon="110.488889">
        <ele>126.523287</ele>
        <time>2026-08-16T09:22:50.000Z</time>
      </trkpt>
      <trkpt lat="22.824490" lon="110.488956">
        <ele>126.450095</ele>
        <time>2026-08-16T09:22:51.000Z</time>
      </trkpt>
      <trkpt lat="22.824485" lon="110.489023">
        <ele>126.376817</ele>
        <time>2026-08-16T09:22:52.000Z</time>
      </trkpt>
      <trkpt lat="22.824480" lon="110.489091">
        <ele>126.302453</ele>
        <time>2026-08-16T09:22:53.000Z</time>
      </trkpt>
      <trkpt lat="22.824476" lon="110.489160">
        <ele>126.227085</ele>
        <time>2026-08-16T09:22:54.000Z</time>
      </trkpt>
      <trkpt lat="22.824471" lon="110.489229">
        <ele>126.151633</ele>
        <time>2026-08-16T09:22:55.000Z</time>
      </trkpt>
      <trkpt lat="22.824465" lon="110.489298">
        <ele>126.076080</ele>
        <time>2026-08-16T09:22:56.000Z</time>
      </trkpt>
      <trkpt lat="22.824461" lon="110.489366">
        <ele>126.001800</ele>
        <time>2026-08-16T09:22:57.000Z</time>
      </trkpt>
      <trkpt lat="22.824456" lon="110.489434">
        <ele>125.927435</ele>
        <time>2026-08-16T09:22:58.000Z</time>
      </trkpt>
      <trkpt lat="22.824449" lon="110.489503">
        <ele>125.851762</ele>
        <time>2026-08-16T09:22:59.000Z</time>
      </trkpt>
      <trkpt lat="22.824443" lon="110.489571">
        <ele>125.777294</ele>
        <time>2026-08-16T09:23:00.000Z</time>
      </trkpt>
      <trkpt lat="22.824438" lon="110.489640">
        <ele>125.701842</ele>
        <time>2026-08-16T09:23:01.000Z</time>
      </trkpt>
      <trkpt lat="22.824432" lon="110.489708">
        <ele>125.627374</ele>
        <time>2026-08-16T09:23:02.000Z</time>
      </trkpt>
      <trkpt lat="22.824426" lon="110.489776">
        <ele>125.552906</ele>
        <time>2026-08-16T09:23:03.000Z</time>
      </trkpt>
      <trkpt lat="22.824420" lon="110.489845">
        <ele>125.477353</ele>
        <time>2026-08-16T09:23:04.000Z</time>
      </trkpt>
      <trkpt lat="22.824415" lon="110.489914">
        <ele>125.401901</ele>
        <time>2026-08-16T09:23:05.000Z</time>
      </trkpt>
      <trkpt lat="22.824409" lon="110.489984">
        <ele>125.325262</ele>
        <time>2026-08-16T09:23:06.000Z</time>
      </trkpt>
      <trkpt lat="22.824404" lon="110.490054">
        <ele>125.248724</ele>
        <time>2026-08-16T09:23:07.000Z</time>
      </trkpt>
      <trkpt lat="22.824399" lon="110.490124">
        <ele>125.172186</ele>
        <time>2026-08-16T09:23:08.000Z</time>
      </trkpt>
      <trkpt lat="22.824395" lon="110.490196">
        <ele>125.093554</ele>
        <time>2026-08-16T09:23:09.000Z</time>
      </trkpt>
      <trkpt lat="22.824389" lon="110.490267">
        <ele>125.015829</ele>
        <time>2026-08-16T09:23:10.000Z</time>
      </trkpt>
      <trkpt lat="22.824386" lon="110.490340">
        <ele>124.936170</ele>
        <time>2026-08-16T09:23:11.000Z</time>
      </trkpt>
      <trkpt lat="22.824379" lon="110.490413">
        <ele>124.856161</ele>
        <time>2026-08-16T09:23:12.000Z</time>
      </trkpt>
      <trkpt lat="22.824373" lon="110.490487">
        <ele>124.775179</ele>
        <time>2026-08-16T09:23:13.000Z</time>
      </trkpt>
      <trkpt lat="22.824365" lon="110.490562">
        <ele>124.692874</ele>
        <time>2026-08-16T09:23:14.000Z</time>
      </trkpt>
      <trkpt lat="22.824357" lon="110.490635">
        <ele>124.571411</ele>
        <time>2026-08-16T09:23:15.000Z</time>
      </trkpt>
      <trkpt lat="22.824351" lon="110.490697">
        <ele>124.463783</ele>
        <time>2026-08-16T09:23:16.000Z</time>
      </trkpt>
      <trkpt lat="22.824345" lon="110.490746">
        <ele>124.378444</ele>
        <time>2026-08-16T09:23:17.000Z</time>
      </trkpt>
      <trkpt lat="22.824344" lon="110.490782">
        <ele>124.316263</ele>
        <time>2026-08-16T09:23:18.000Z</time>
      </trkpt>
      <trkpt lat="22.824353" lon="110.490807">
        <ele>124.269927</ele>
        <time>2026-08-16T09:23:19.000Z</time>
      </trkpt>
      <trkpt lat="22.824375" lon="110.490812">
        <ele>124.227824</ele>
        <time>2026-08-16T09:23:20.000Z</time>
      </trkpt>
      <trkpt lat="22.824398" lon="110.490803">
        <ele>124.182026</ele>
        <time>2026-08-16T09:23:21.000Z</time>
      </trkpt>
      <trkpt lat="22.824412" lon="110.490787">
        <ele>124.143937</ele>
        <time>2026-08-16T09:23:22.000Z</time>
      </trkpt>
      <trkpt lat="22.824418" lon="110.490770">
        <ele>124.112510</ele>
        <time>2026-08-16T09:23:23.000Z</time>
      </trkpt>
      <trkpt lat="22.824420" lon="110.490752">
        <ele>124.081209</ele>
        <time>2026-08-16T09:23:24.000Z</time>
      </trkpt>
      <trkpt lat="22.824422" lon="110.490731">
        <ele>124.044760</ele>
        <time>2026-08-16T09:23:25.000Z</time>
      </trkpt>
      <trkpt lat="22.824425" lon="110.490713">
        <ele>124.013180</ele>
        <time>2026-08-16T09:23:26.000Z</time>
      </trkpt>
      <trkpt lat="22.824430" lon="110.490696">
        <ele>123.982373</ele>
        <time>2026-08-16T09:23:27.000Z</time>
      </trkpt>
      <trkpt lat="22.824434" lon="110.490681">
        <ele>123.955414</ele>
        <time>2026-08-16T09:23:28.000Z</time>
      </trkpt>
      <trkpt lat="22.824437" lon="110.490666">
        <ele>123.928914</ele>
        <time>2026-08-16T09:23:29.000Z</time>
      </trkpt>
      <trkpt lat="22.824439" lon="110.490650">
        <ele>123.901038</ele>
        <time>2026-08-16T09:23:30.000Z</time>
      </trkpt>
      <trkpt lat="22.824437" lon="110.490630">
        <ele>123.866307</ele>
        <time>2026-08-16T09:23:31.000Z</time>
      </trkpt>
      <trkpt lat="22.824432" lon="110.490613">
        <ele>123.835499</ele>
        <time>2026-08-16T09:23:32.000Z</time>
      </trkpt>
      <trkpt lat="22.824415" lon="110.490598">
        <ele>123.794455</ele>
        <time>2026-08-16T09:23:33.000Z</time>
      </trkpt>
      <trkpt lat="22.824397" lon="110.490591">
        <ele>123.758639</ele>
        <time>2026-08-16T09:23:34.000Z</time>
      </trkpt>
      <trkpt lat="22.824384" lon="110.490594">
        <ele>123.733743</ele>
        <time>2026-08-16T09:23:35.000Z</time>
      </trkpt>
      <trkpt lat="22.824374" lon="110.490599">
        <ele>123.713119</ele>
        <time>2026-08-16T09:23:36.000Z</time>
      </trkpt>
      <trkpt lat="22.824365" lon="110.490604">
        <ele>123.694179</ele>
        <time>2026-08-16T09:23:37.000Z</time>
      </trkpt>
      <trkpt lat="22.824359" lon="110.490607">
        <ele>123.681805</ele>
        <time>2026-08-16T09:23:38.000Z</time>
      </trkpt>
      <trkpt lat="22.824353" lon="110.490676">
        <ele>123.562151</ele>
        <time>2026-08-16T09:24:14.000Z</time>
      </trkpt>
      <trkpt lat="22.824349" lon="110.490700">
        <ele>123.520044</ele>
        <time>2026-08-16T09:24:15.000Z</time>
      </trkpt>
      <trkpt lat="22.824347" lon="110.490728">
        <ele>123.471558</ele>
        <time>2026-08-16T09:24:16.000Z</time>
      </trkpt>
      <trkpt lat="22.824345" lon="110.490758">
        <ele>123.419630</ele>
        <time>2026-08-16T09:24:17.000Z</time>
      </trkpt>
      <trkpt lat="22.824341" lon="110.490789">
        <ele>123.365588</ele>
        <time>2026-08-16T09:24:18.000Z</time>
      </trkpt>
      <trkpt lat="22.824336" lon="110.490822">
        <ele>123.307851</ele>
        <time>2026-08-16T09:24:19.000Z</time>
      </trkpt>
      <trkpt lat="22.824333" lon="110.490856">
        <ele>123.248883</ele>
        <time>2026-08-16T09:24:20.000Z</time>
      </trkpt>
      <trkpt lat="22.824328" lon="110.490889">
        <ele>123.191146</ele>
        <time>2026-08-16T09:24:21.000Z</time>
      </trkpt>
      <trkpt lat="22.824325" lon="110.490926">
        <ele>123.127020</ele>
        <time>2026-08-16T09:24:22.000Z</time>
      </trkpt>
      <trkpt lat="22.824318" lon="110.490966">
        <ele>123.056729</ele>
        <time>2026-08-16T09:24:23.000Z</time>
      </trkpt>
      <trkpt lat="22.824313" lon="110.491006">
        <ele>122.987039</ele>
        <time>2026-08-16T09:24:24.000Z</time>
      </trkpt>
      <trkpt lat="22.824308" lon="110.491049">
        <ele>122.912213</ele>
        <time>2026-08-16T09:24:25.000Z</time>
      </trkpt>
      <trkpt lat="22.824302" lon="110.491094">
        <ele>122.833714</ele>
        <time>2026-08-16T09:24:26.000Z</time>
      </trkpt>
      <trkpt lat="22.824294" lon="110.491143">
        <ele>122.747801</ele>
        <time>2026-08-16T09:24:27.000Z</time>
      </trkpt>
      <trkpt lat="22.824289" lon="110.491192">
        <ele>122.662688</ele>
        <time>2026-08-16T09:24:28.000Z</time>
      </trkpt>
      <trkpt lat="22.824283" lon="110.491244">
        <ele>122.572212</ele>
        <time>2026-08-16T09:24:29.000Z</time>
      </trkpt>
      <trkpt lat="22.824276" lon="110.491299">
        <ele>122.476357</ele>
        <time>2026-08-16T09:24:30.000Z</time>
      </trkpt>
      <trkpt lat="22.824268" lon="110.491356">
        <ele>122.376815</ele>
        <time>2026-08-16T09:24:31.000Z</time>
      </trkpt>
      <trkpt lat="22.824261" lon="110.491413">
        <ele>122.277537</ele>
        <time>2026-08-16T09:24:32.000Z</time>
      </trkpt>
      <trkpt lat="22.824255" lon="110.491473">
        <ele>122.173343</ele>
        <time>2026-08-16T09:24:33.000Z</time>
      </trkpt>
      <trkpt lat="22.824247" lon="110.491535">
        <ele>122.065259</ele>
        <time>2026-08-16T09:24:34.000Z</time>
      </trkpt>
      <trkpt lat="22.824240" lon="110.491598">
        <ele>121.955705</ele>
        <time>2026-08-16T09:24:35.000Z</time>
      </trkpt>
      <trkpt lat="22.824233" lon="110.491660">
        <ele>121.847865</ele>
        <time>2026-08-16T09:24:36.000Z</time>
      </trkpt>
      <trkpt lat="22.824226" lon="110.491723">
        <ele>121.738312</ele>
        <time>2026-08-16T09:24:37.000Z</time>
      </trkpt>
      <trkpt lat="22.824219" lon="110.491787">
        <ele>121.627044</ele>
        <time>2026-08-16T09:24:38.000Z</time>
      </trkpt>
      <trkpt lat="22.824212" lon="110.491852">
        <ele>121.514061</ele>
        <time>2026-08-16T09:24:39.000Z</time>
      </trkpt>
      <trkpt lat="22.824206" lon="110.491919">
        <ele>121.397844</ele>
        <time>2026-08-16T09:24:40.000Z</time>
      </trkpt>
      <trkpt lat="22.824201" lon="110.491985">
        <ele>121.300198</ele>
        <time>2026-08-16T09:24:41.000Z</time>
      </trkpt>
      <trkpt lat="22.824194" lon="110.492052">
        <ele>121.246547</ele>
        <time>2026-08-16T09:24:42.000Z</time>
      </trkpt>
      <trkpt lat="22.824187" lon="110.492118">
        <ele>121.193686</ele>
        <time>2026-08-16T09:24:43.000Z</time>
      </trkpt>
      <trkpt lat="22.824181" lon="110.492185">
        <ele>121.140125</ele>
        <time>2026-08-16T09:24:44.000Z</time>
      </trkpt>
      <trkpt lat="22.824177" lon="110.492250">
        <ele>121.088291</ele>
        <time>2026-08-16T09:24:45.000Z</time>
      </trkpt>
      <trkpt lat="22.824171" lon="110.492317">
        <ele>121.034731</ele>
        <time>2026-08-16T09:24:46.000Z</time>
      </trkpt>
      <trkpt lat="22.824166" lon="110.492385">
        <ele>120.980453</ele>
        <time>2026-08-16T09:24:47.000Z</time>
      </trkpt>
      <trkpt lat="22.824162" lon="110.492451">
        <ele>120.927826</ele>
        <time>2026-08-16T09:24:48.000Z</time>
      </trkpt>
      <trkpt lat="22.824160" lon="110.492518">
        <ele>120.874488</ele>
        <time>2026-08-16T09:24:49.000Z</time>
      </trkpt>
      <trkpt lat="22.824160" lon="110.492583">
        <ele>120.822769</ele>
        <time>2026-08-16T09:24:50.000Z</time>
      </trkpt>
      <trkpt lat="22.824162" lon="110.492648">
        <ele>120.771022</ele>
        <time>2026-08-16T09:24:51.000Z</time>
      </trkpt>
      <trkpt lat="22.824165" lon="110.492713">
        <ele>120.719239</ele>
        <time>2026-08-16T09:24:52.000Z</time>
      </trkpt>
      <trkpt lat="22.824168" lon="110.492777">
        <ele>120.668250</ele>
        <time>2026-08-16T09:24:53.000Z</time>
      </trkpt>
      <trkpt lat="22.824173" lon="110.492841">
        <ele>120.617144</ele>
        <time>2026-08-16T09:24:54.000Z</time>
      </trkpt>
      <trkpt lat="22.824176" lon="110.492904">
        <ele>120.566950</ele>
        <time>2026-08-16T09:24:55.000Z</time>
      </trkpt>
      <trkpt lat="22.824180" lon="110.492965">
        <ele>120.518292</ele>
        <time>2026-08-16T09:24:56.000Z</time>
      </trkpt>
      <trkpt lat="22.824188" lon="110.493024">
        <ele>120.470842</ele>
        <time>2026-08-16T09:24:57.000Z</time>
      </trkpt>
      <trkpt lat="22.824197" lon="110.493082">
        <ele>120.424044</ele>
        <time>2026-08-16T09:24:58.000Z</time>
      </trkpt>
      <trkpt lat="22.824206" lon="110.493139">
        <ele>120.378030</ele>
        <time>2026-08-16T09:24:59.000Z</time>
      </trkpt>
      <trkpt lat="22.824216" lon="110.493196">
        <ele>120.331863</ele>
        <time>2026-08-16T09:25:00.000Z</time>
      </trkpt>
      <trkpt lat="22.824226" lon="110.493250">
        <ele>120.288038</ele>
        <time>2026-08-16T09:25:01.000Z</time>
      </trkpt>
      <trkpt lat="22.824238" lon="110.493305">
        <ele>120.243067</ele>
        <time>2026-08-16T09:25:02.000Z</time>
      </trkpt>
      <trkpt lat="22.824251" lon="110.493362">
        <ele>120.196346</ele>
        <time>2026-08-16T09:25:03.000Z</time>
      </trkpt>
      <trkpt lat="22.824265" lon="110.493417">
        <ele>120.150946</ele>
        <time>2026-08-16T09:25:04.000Z</time>
      </trkpt>
      <trkpt lat="22.824278" lon="110.493473">
        <ele>120.104997</ele>
        <time>2026-08-16T09:25:05.000Z</time>
      </trkpt>
      <trkpt lat="22.824291" lon="110.493529">
        <ele>120.059048</ele>
        <time>2026-08-16T09:25:06.000Z</time>
      </trkpt>
      <trkpt lat="22.824307" lon="110.493585">
        <ele>120.012398</ele>
        <time>2026-08-16T09:25:07.000Z</time>
      </trkpt>
      <trkpt lat="22.824327" lon="110.493641">
        <ele>119.964613</ele>
        <time>2026-08-16T09:25:08.000Z</time>
      </trkpt>
      <trkpt lat="22.824351" lon="110.493697">
        <ele>119.915474</ele>
        <time>2026-08-16T09:25:09.000Z</time>
      </trkpt>
      <trkpt lat="22.824379" lon="110.493750">
        <ele>119.866868</ele>
        <time>2026-08-16T09:25:10.000Z</time>
      </trkpt>
      <trkpt lat="22.824408" lon="110.493804">
        <ele>119.817140</ele>
        <time>2026-08-16T09:25:11.000Z</time>
      </trkpt>
      <trkpt lat="22.824436" lon="110.493860">
        <ele>119.766449</ele>
        <time>2026-08-16T09:25:12.000Z</time>
      </trkpt>
      <trkpt lat="22.824461" lon="110.493918">
        <ele>119.682775</ele>
        <time>2026-08-16T09:25:13.000Z</time>
      </trkpt>
      <trkpt lat="22.824482" lon="110.493978">
        <ele>119.595576</ele>
        <time>2026-08-16T09:25:14.000Z</time>
      </trkpt>
      <trkpt lat="22.824503" lon="110.494040">
        <ele>119.505832</ele>
        <time>2026-08-16T09:25:15.000Z</time>
      </trkpt>
      <trkpt lat="22.824523" lon="110.494099">
        <ele>119.420422</ele>
        <time>2026-08-16T09:25:16.000Z</time>
      </trkpt>
      <trkpt lat="22.824543" lon="110.494159">
        <ele>119.333735</ele>
        <time>2026-08-16T09:25:17.000Z</time>
      </trkpt>
      <trkpt lat="22.824565" lon="110.494217">
        <ele>119.248521</ele>
        <time>2026-08-16T09:25:18.000Z</time>
      </trkpt>
      <trkpt lat="22.824590" lon="110.494274">
        <ele>119.162757</ele>
        <time>2026-08-16T09:25:19.000Z</time>
      </trkpt>
      <trkpt lat="22.824616" lon="110.494330">
        <ele>119.077564</ele>
        <time>2026-08-16T09:25:20.000Z</time>
      </trkpt>
      <trkpt lat="22.824642" lon="110.494387">
        <ele>118.991156</ele>
        <time>2026-08-16T09:25:21.000Z</time>
      </trkpt>
      <trkpt lat="22.824668" lon="110.494443">
        <ele>118.905963</ele>
        <time>2026-08-16T09:25:22.000Z</time>
      </trkpt>
      <trkpt lat="22.824696" lon="110.494499">
        <ele>118.819405</ele>
        <time>2026-08-16T09:25:23.000Z</time>
      </trkpt>
      <trkpt lat="22.824724" lon="110.494553">
        <ele>118.735224</ele>
        <time>2026-08-16T09:25:24.000Z</time>
      </trkpt>
      <trkpt lat="22.824752" lon="110.494606">
        <ele>118.652226</ele>
        <time>2026-08-16T09:25:25.000Z</time>
      </trkpt>
      <trkpt lat="22.824781" lon="110.494661">
        <ele>118.566136</ele>
        <time>2026-08-16T09:25:26.000Z</time>
      </trkpt>
      <trkpt lat="22.824809" lon="110.494715">
        <ele>118.481956</ele>
        <time>2026-08-16T09:25:27.000Z</time>
      </trkpt>
      <trkpt lat="22.824836" lon="110.494770">
        <ele>118.397292</ele>
        <time>2026-08-16T09:25:28.000Z</time>
      </trkpt>
      <trkpt lat="22.824864" lon="110.494825">
        <ele>118.311925</ele>
        <time>2026-08-16T09:25:29.000Z</time>
      </trkpt>
      <trkpt lat="22.824891" lon="110.494879">
        <ele>118.228457</ele>
        <time>2026-08-16T09:25:30.000Z</time>
      </trkpt>
      <trkpt lat="22.824919" lon="110.494933">
        <ele>118.144277</ele>
        <time>2026-08-16T09:25:31.000Z</time>
      </trkpt>
      <trkpt lat="22.824946" lon="110.494989">
        <ele>118.058412</ele>
        <time>2026-08-16T09:25:32.000Z</time>
      </trkpt>
      <trkpt lat="22.824974" lon="110.495046">
        <ele>117.970656</ele>
        <time>2026-08-16T09:25:33.000Z</time>
      </trkpt>
      <trkpt lat="22.825002" lon="110.495105">
        <ele>117.880494</ele>
        <time>2026-08-16T09:25:34.000Z</time>
      </trkpt>
      <trkpt lat="22.825029" lon="110.495164">
        <ele>117.790997</ele>
        <time>2026-08-16T09:25:35.000Z</time>
      </trkpt>
      <trkpt lat="22.825057" lon="110.495223">
        <ele>117.700835</ele>
        <time>2026-08-16T09:25:36.000Z</time>
      </trkpt>
      <trkpt lat="22.825086" lon="110.495283">
        <ele>117.608787</ele>
        <time>2026-08-16T09:25:37.000Z</time>
      </trkpt>
      <trkpt lat="22.825115" lon="110.495344">
        <ele>117.515534</ele>
        <time>2026-08-16T09:25:38.000Z</time>
      </trkpt>
      <trkpt lat="22.825144" lon="110.495404">
        <ele>117.423486</ele>
        <time>2026-08-16T09:25:39.000Z</time>
      </trkpt>
      <trkpt lat="22.825172" lon="110.495464">
        <ele>117.332114</ele>
        <time>2026-08-16T09:25:40.000Z</time>
      </trkpt>
      <trkpt lat="22.825201" lon="110.495523">
        <ele>117.241267</ele>
        <time>2026-08-16T09:25:41.000Z</time>
      </trkpt>
      <trkpt lat="22.825232" lon="110.495581">
        <ele>117.150175</ele>
        <time>2026-08-16T09:25:42.000Z</time>
      </trkpt>
      <trkpt lat="22.825263" lon="110.495640">
        <ele>117.084897</ele>
        <time>2026-08-16T09:25:43.000Z</time>
      </trkpt>
      <trkpt lat="22.825294" lon="110.495699">
        <ele>117.040059</ele>
        <time>2026-08-16T09:25:44.000Z</time>
      </trkpt>
      <trkpt lat="22.825324" lon="110.495758">
        <ele>116.995571</ele>
        <time>2026-08-16T09:25:45.000Z</time>
      </trkpt>
      <trkpt lat="22.825353" lon="110.495819">
        <ele>116.950255</ele>
        <time>2026-08-16T09:25:46.000Z</time>
      </trkpt>
      <trkpt lat="22.825382" lon="110.495880">
        <ele>116.904940</ele>
        <time>2026-08-16T09:25:47.000Z</time>
      </trkpt>
      <trkpt lat="22.825411" lon="110.495942">
        <ele>116.859036</ele>
        <time>2026-08-16T09:25:48.000Z</time>
      </trkpt>
      <trkpt lat="22.825441" lon="110.496003">
        <ele>116.813388</ele>
        <time>2026-08-16T09:25:49.000Z</time>
      </trkpt>
      <trkpt lat="22.825471" lon="110.496065">
        <ele>116.767156</ele>
        <time>2026-08-16T09:25:50.000Z</time>
      </trkpt>
      <trkpt lat="22.825501" lon="110.496125">
        <ele>116.722089</ele>
        <time>2026-08-16T09:25:51.000Z</time>
      </trkpt>
      <trkpt lat="22.825531" lon="110.496186">
        <ele>116.676441</ele>
        <time>2026-08-16T09:25:52.000Z</time>
      </trkpt>
      <trkpt lat="22.825559" lon="110.496246">
        <ele>116.632039</ele>
        <time>2026-08-16T09:25:53.000Z</time>
      </trkpt>
      <trkpt lat="22.825588" lon="110.496305">
        <ele>116.587893</ele>
        <time>2026-08-16T09:25:54.000Z</time>
      </trkpt>
      <trkpt lat="22.825618" lon="110.496364">
        <ele>116.543405</ele>
        <time>2026-08-16T09:25:55.000Z</time>
      </trkpt>
      <trkpt lat="22.825648" lon="110.496421">
        <ele>116.500069</ele>
        <time>2026-08-16T09:25:56.000Z</time>
      </trkpt>
      <trkpt lat="22.825677" lon="110.496479">
        <ele>116.456504</ele>
        <time>2026-08-16T09:25:57.000Z</time>
      </trkpt>
      <trkpt lat="22.825703" lon="110.496538">
        <ele>116.413328</ele>
        <time>2026-08-16T09:25:58.000Z</time>
      </trkpt>
      <trkpt lat="22.825727" lon="110.496597">
        <ele>116.370749</ele>
        <time>2026-08-16T09:25:59.000Z</time>
      </trkpt>
      <trkpt lat="22.825747" lon="110.496656">
        <ele>116.329245</ele>
        <time>2026-08-16T09:26:00.000Z</time>
      </trkpt>
      <trkpt lat="22.825767" lon="110.496715">
        <ele>116.287741</ele>
        <time>2026-08-16T09:26:01.000Z</time>
      </trkpt>
      <trkpt lat="22.825791" lon="110.496773">
        <ele>116.245766</ele>
        <time>2026-08-16T09:26:02.000Z</time>
      </trkpt>
      <trkpt lat="22.825818" lon="110.496829">
        <ele>116.204041</ele>
        <time>2026-08-16T09:26:03.000Z</time>
      </trkpt>
      <trkpt lat="22.825849" lon="110.496882">
        <ele>116.162597</ele>
        <time>2026-08-16T09:26:04.000Z</time>
      </trkpt>
      <trkpt lat="22.825880" lon="110.496933">
        <ele>116.122263</ele>
        <time>2026-08-16T09:26:05.000Z</time>
      </trkpt>
      <trkpt lat="22.825911" lon="110.496985">
        <ele>116.081376</ele>
        <time>2026-08-16T09:26:06.000Z</time>
      </trkpt>
      <trkpt lat="22.825940" lon="110.497038">
        <ele>116.040682</ele>
        <time>2026-08-16T09:26:07.000Z</time>
      </trkpt>
      <trkpt lat="22.825965" lon="110.497091">
        <ele>116.001374</ele>
        <time>2026-08-16T09:26:08.000Z</time>
      </trkpt>
      <trkpt lat="22.825989" lon="110.497144">
        <ele>115.962388</ele>
        <time>2026-08-16T09:26:09.000Z</time>
      </trkpt>
      <trkpt lat="22.826011" lon="110.497198">
        <ele>115.923408</ele>
        <time>2026-08-16T09:26:10.000Z</time>
      </trkpt>
      <trkpt lat="22.826033" lon="110.497251">
        <ele>115.885031</ele>
        <time>2026-08-16T09:26:11.000Z</time>
      </trkpt>
      <trkpt lat="22.826055" lon="110.497303">
        <ele>115.847256</ele>
        <time>2026-08-16T09:26:12.000Z</time>
      </trkpt>
      <trkpt lat="22.826078" lon="110.497351">
        <ele>115.820164</ele>
        <time>2026-08-16T09:26:13.000Z</time>
      </trkpt>
      <trkpt lat="22.826103" lon="110.497398">
        <ele>115.813847</ele>
        <time>2026-08-16T09:26:14.000Z</time>
      </trkpt>
      <trkpt lat="22.826127" lon="110.497445">
        <ele>115.807592</ele>
        <time>2026-08-16T09:26:15.000Z</time>
      </trkpt>
      <trkpt lat="22.826150" lon="110.497491">
        <ele>115.801500</ele>
        <time>2026-08-16T09:26:16.000Z</time>
      </trkpt>
      <trkpt lat="22.826173" lon="110.497536">
        <ele>115.795510</ele>
        <time>2026-08-16T09:26:17.000Z</time>
      </trkpt>
      <trkpt lat="22.826196" lon="110.497580">
        <ele>115.789621</ele>
        <time>2026-08-16T09:26:18.000Z</time>
      </trkpt>
      <trkpt lat="22.826222" lon="110.497624">
        <ele>115.783537</ele>
        <time>2026-08-16T09:26:19.000Z</time>
      </trkpt>
      <trkpt lat="22.826248" lon="110.497669">
        <ele>115.777355</ele>
        <time>2026-08-16T09:26:20.000Z</time>
      </trkpt>
      <trkpt lat="22.826273" lon="110.497714">
        <ele>115.771238</ele>
        <time>2026-08-16T09:26:21.000Z</time>
      </trkpt>
      <trkpt lat="22.826297" lon="110.497761">
        <ele>115.764983</ele>
        <time>2026-08-16T09:26:22.000Z</time>
      </trkpt>
      <trkpt lat="22.826320" lon="110.497807">
        <ele>115.758891</ele>
        <time>2026-08-16T09:26:23.000Z</time>
      </trkpt>
      <trkpt lat="22.826342" lon="110.497852">
        <ele>115.752961</ele>
        <time>2026-08-16T09:26:24.000Z</time>
      </trkpt>
      <trkpt lat="22.826363" lon="110.497897">
        <ele>115.747090</ele>
        <time>2026-08-16T09:26:25.000Z</time>
      </trkpt>
      <trkpt lat="22.826386" lon="110.497940">
        <ele>115.741302</ele>
        <time>2026-08-16T09:26:26.000Z</time>
      </trkpt>
      <trkpt lat="22.826409" lon="110.497983">
        <ele>115.735515</ele>
        <time>2026-08-16T09:26:27.000Z</time>
      </trkpt>
      <trkpt lat="22.826431" lon="110.498026">
        <ele>115.729790</ele>
        <time>2026-08-16T09:26:28.000Z</time>
      </trkpt>
      <trkpt lat="22.826454" lon="110.498068">
        <ele>115.724103</ele>
        <time>2026-08-16T09:26:29.000Z</time>
      </trkpt>
      <trkpt lat="22.826479" lon="110.498109">
        <ele>115.718380</ele>
        <time>2026-08-16T09:26:30.000Z</time>
      </trkpt>
      <trkpt lat="22.826501" lon="110.498151">
        <ele>115.712756</ele>
        <time>2026-08-16T09:26:31.000Z</time>
      </trkpt>
      <trkpt lat="22.826523" lon="110.498194">
        <ele>115.707031</ele>
        <time>2026-08-16T09:26:32.000Z</time>
      </trkpt>
      <trkpt lat="22.826544" lon="110.498238">
        <ele>115.701263</ele>
        <time>2026-08-16T09:26:33.000Z</time>
      </trkpt>
      <trkpt lat="22.826567" lon="110.498281">
        <ele>115.695476</ele>
        <time>2026-08-16T09:26:34.000Z</time>
      </trkpt>
      <trkpt lat="22.826590" lon="110.498322">
        <ele>115.689888</ele>
        <time>2026-08-16T09:26:35.000Z</time>
      </trkpt>
      <trkpt lat="22.826616" lon="110.498365">
        <ele>115.683902</ele>
        <time>2026-08-16T09:26:36.000Z</time>
      </trkpt>
      <trkpt lat="22.826640" lon="110.498410">
        <ele>115.677850</ele>
        <time>2026-08-16T09:26:37.000Z</time>
      </trkpt>
      <trkpt lat="22.826662" lon="110.498458">
        <ele>115.671609</ele>
        <time>2026-08-16T09:26:38.000Z</time>
      </trkpt>
      <trkpt lat="22.826685" lon="110.498506">
        <ele>115.665312</ele>
        <time>2026-08-16T09:26:39.000Z</time>
      </trkpt>
      <trkpt lat="22.826709" lon="110.498554">
        <ele>115.658955</ele>
        <time>2026-08-16T09:26:40.000Z</time>
      </trkpt>
      <trkpt lat="22.826734" lon="110.498605">
        <ele>115.652230</ele>
        <time>2026-08-16T09:26:41.000Z</time>
      </trkpt>
      <trkpt lat="22.826759" lon="110.498656">
        <ele>115.645506</ele>
        <time>2026-08-16T09:26:42.000Z</time>
      </trkpt>
      <trkpt lat="22.826784" lon="110.498710">
        <ele>115.638471</ele>
        <time>2026-08-16T09:26:43.000Z</time>
      </trkpt>
      <trkpt lat="22.826809" lon="110.498764">
        <ele>115.631437</ele>
        <time>2026-08-16T09:26:44.000Z</time>
      </trkpt>
      <trkpt lat="22.826834" lon="110.498818">
        <ele>115.624402</ele>
        <time>2026-08-16T09:26:45.000Z</time>
      </trkpt>
      <trkpt lat="22.826861" lon="110.498871">
        <ele>115.617353</ele>
        <time>2026-08-16T09:26:46.000Z</time>
      </trkpt>
      <trkpt lat="22.826887" lon="110.498924">
        <ele>115.610364</ele>
        <time>2026-08-16T09:26:47.000Z</time>
      </trkpt>
      <trkpt lat="22.826913" lon="110.498977">
        <ele>115.603375</ele>
        <time>2026-08-16T09:26:48.000Z</time>
      </trkpt>
      <trkpt lat="22.826941" lon="110.499027">
        <ele>115.596564</ele>
        <time>2026-08-16T09:26:49.000Z</time>
      </trkpt>
      <trkpt lat="22.826969" lon="110.499078">
        <ele>115.539727</ele>
        <time>2026-08-16T09:26:50.000Z</time>
      </trkpt>
      <trkpt lat="22.826996" lon="110.499129">
        <ele>115.466970</ele>
        <time>2026-08-16T09:26:51.000Z</time>
      </trkpt>
      <trkpt lat="22.827023" lon="110.499180">
        <ele>115.394213</ele>
        <time>2026-08-16T09:26:52.000Z</time>
      </trkpt>
      <trkpt lat="22.827050" lon="110.499230">
        <ele>115.322527</ele>
        <time>2026-08-16T09:26:53.000Z</time>
      </trkpt>
      <trkpt lat="22.827078" lon="110.499279">
        <ele>115.251206</ele>
        <time>2026-08-16T09:26:54.000Z</time>
      </trkpt>
      <trkpt lat="22.827105" lon="110.499328">
        <ele>115.180584</ele>
        <time>2026-08-16T09:26:55.000Z</time>
      </trkpt>
      <trkpt lat="22.827133" lon="110.499376">
        <ele>115.110312</ele>
        <time>2026-08-16T09:26:56.000Z</time>
      </trkpt>
      <trkpt lat="22.827164" lon="110.499426">
        <ele>115.035767</ele>
        <time>2026-08-16T09:26:57.000Z</time>
      </trkpt>
      <trkpt lat="22.827196" lon="110.499476">
        <ele>114.960465</ele>
        <time>2026-08-16T09:26:58.000Z</time>
      </trkpt>
      <trkpt lat="22.827227" lon="110.499528">
        <ele>114.883855</ele>
        <time>2026-08-16T09:26:59.000Z</time>
      </trkpt>
      <trkpt lat="22.827259" lon="110.499581">
        <ele>114.805476</ele>
        <time>2026-08-16T09:27:00.000Z</time>
      </trkpt>
      <trkpt lat="22.827290" lon="110.499636">
        <ele>114.725724</ele>
        <time>2026-08-16T09:27:01.000Z</time>
      </trkpt>
      <trkpt lat="22.827325" lon="110.499688">
        <ele>114.646070</ele>
        <time>2026-08-16T09:27:02.000Z</time>
      </trkpt>
      <trkpt lat="22.827362" lon="110.499739">
        <ele>114.565780</ele>
        <time>2026-08-16T09:27:03.000Z</time>
      </trkpt>
      <trkpt lat="22.827402" lon="110.499791">
        <ele>114.481993</ele>
        <time>2026-08-16T09:27:04.000Z</time>
      </trkpt>
      <trkpt lat="22.827441" lon="110.499845">
        <ele>114.397127</ele>
        <time>2026-08-16T09:27:05.000Z</time>
      </trkpt>
      <trkpt lat="22.827480" lon="110.499901">
        <ele>114.310300</ele>
        <time>2026-08-16T09:27:06.000Z</time>
      </trkpt>
      <trkpt lat="22.827521" lon="110.499958">
        <ele>114.220856</ele>
        <time>2026-08-16T09:27:07.000Z</time>
      </trkpt>
      <trkpt lat="22.827562" lon="110.500017">
        <ele>114.129449</ele>
        <time>2026-08-16T09:27:08.000Z</time>
      </trkpt>
      <trkpt lat="22.827603" lon="110.500076">
        <ele>114.038043</ele>
        <time>2026-08-16T09:27:09.000Z</time>
      </trkpt>
      <trkpt lat="22.827644" lon="110.500136">
        <ele>113.945645</ele>
        <time>2026-08-16T09:27:10.000Z</time>
      </trkpt>
      <trkpt lat="22.827685" lon="110.500196">
        <ele>113.853248</ele>
        <time>2026-08-16T09:27:11.000Z</time>
      </trkpt>
      <trkpt lat="22.827725" lon="110.500256">
        <ele>113.761644</ele>
        <time>2026-08-16T09:27:12.000Z</time>
      </trkpt>
      <trkpt lat="22.827764" lon="110.500314">
        <ele>113.672830</ele>
        <time>2026-08-16T09:27:13.000Z</time>
      </trkpt>
      <trkpt lat="22.827803" lon="110.500370">
        <ele>113.586003</ele>
        <time>2026-08-16T09:27:14.000Z</time>
      </trkpt>
      <trkpt lat="22.827843" lon="110.500426">
        <ele>113.498360</ele>
        <time>2026-08-16T09:27:15.000Z</time>
      </trkpt>
      <trkpt lat="22.827882" lon="110.500484">
        <ele>113.409546</ele>
        <time>2026-08-16T09:27:16.000Z</time>
      </trkpt>
      <trkpt lat="22.827918" lon="110.500541">
        <ele>113.324068</ele>
        <time>2026-08-16T09:27:17.000Z</time>
      </trkpt>
      <trkpt lat="22.827953" lon="110.500598">
        <ele>113.239341</ele>
        <time>2026-08-16T09:27:18.000Z</time>
      </trkpt>
      <trkpt lat="22.827991" lon="110.500652">
        <ele>113.203559</ele>
        <time>2026-08-16T09:27:19.000Z</time>
      </trkpt>
      <trkpt lat="22.828030" lon="110.500704">
        <ele>113.277897</ele>
        <time>2026-08-16T09:27:20.000Z</time>
      </trkpt>
      <trkpt lat="22.828069" lon="110.500755">
        <ele>113.351377</ele>
        <time>2026-08-16T09:27:21.000Z</time>
      </trkpt>
      <trkpt lat="22.828110" lon="110.500804">
        <ele>113.424761</ele>
        <time>2026-08-16T09:27:22.000Z</time>
      </trkpt>
      <trkpt lat="22.828150" lon="110.500854">
        <ele>113.498175</ele>
        <time>2026-08-16T09:27:23.000Z</time>
      </trkpt>
      <trkpt lat="22.828186" lon="110.500905">
        <ele>113.569405</ele>
        <time>2026-08-16T09:27:24.000Z</time>
      </trkpt>
      <trkpt lat="22.828219" lon="110.500953">
        <ele>113.635805</ele>
        <time>2026-08-16T09:27:25.000Z</time>
      </trkpt>
      <trkpt lat="22.828253" lon="110.501002">
        <ele>113.703814</ele>
        <time>2026-08-16T09:27:26.000Z</time>
      </trkpt>
      <trkpt lat="22.828291" lon="110.501052">
        <ele>113.775674</ele>
        <time>2026-08-16T09:27:27.000Z</time>
      </trkpt>
      <trkpt lat="22.828329" lon="110.501101">
        <ele>113.846681</ele>
        <time>2026-08-16T09:27:28.000Z</time>
      </trkpt>
      <trkpt lat="22.828366" lon="110.501146">
        <ele>113.913549</ele>
        <time>2026-08-16T09:27:29.000Z</time>
      </trkpt>
      <trkpt lat="22.828400" lon="110.501189">
        <ele>113.976370</ele>
        <time>2026-08-16T09:27:30.000Z</time>
      </trkpt>
      <trkpt lat="22.828435" lon="110.501233">
        <ele>114.040817</ele>
        <time>2026-08-16T09:27:31.000Z</time>
      </trkpt>
      <trkpt lat="22.828468" lon="110.501280">
        <ele>114.106331</ele>
        <time>2026-08-16T09:27:32.000Z</time>
      </trkpt>
      <trkpt lat="22.828501" lon="110.501327">
        <ele>114.171846</ele>
        <time>2026-08-16T09:27:33.000Z</time>
      </trkpt>
      <trkpt lat="22.828533" lon="110.501374">
        <ele>114.236639</ele>
        <time>2026-08-16T09:27:34.000Z</time>
      </trkpt>
      <trkpt lat="22.828563" lon="110.501420">
        <ele>114.299123</ele>
        <time>2026-08-16T09:27:35.000Z</time>
      </trkpt>
      <trkpt lat="22.828594" lon="110.501466">
        <ele>114.362310</ele>
        <time>2026-08-16T09:27:36.000Z</time>
      </trkpt>
      <trkpt lat="22.828626" lon="110.501511">
        <ele>114.425333</ele>
        <time>2026-08-16T09:27:37.000Z</time>
      </trkpt>
      <trkpt lat="22.828656" lon="110.501560">
        <ele>114.490561</ele>
        <time>2026-08-16T09:27:38.000Z</time>
      </trkpt>
      <trkpt lat="22.828686" lon="110.501605">
        <ele>114.552143</ele>
        <time>2026-08-16T09:27:39.000Z</time>
      </trkpt>
      <trkpt lat="22.828719" lon="110.501649">
        <ele>114.615044</ele>
        <time>2026-08-16T09:27:40.000Z</time>
      </trkpt>
      <trkpt lat="22.828750" lon="110.501696">
        <ele>114.679129</ele>
        <time>2026-08-16T09:27:41.000Z</time>
      </trkpt>
      <trkpt lat="22.828780" lon="110.501742">
        <ele>114.741613</ele>
        <time>2026-08-16T09:27:42.000Z</time>
      </trkpt>
      <trkpt lat="22.828804" lon="110.501791">
        <ele>114.803142</ele>
        <time>2026-08-16T09:27:43.000Z</time>
      </trkpt>
      <trkpt lat="22.828828" lon="110.501838">
        <ele>114.862721</ele>
        <time>2026-08-16T09:27:44.000Z</time>
      </trkpt>
      <trkpt lat="22.828849" lon="110.501882">
        <ele>114.917663</ele>
        <time>2026-08-16T09:27:45.000Z</time>
      </trkpt>
      <trkpt lat="22.828866" lon="110.501922">
        <ele>114.966504</ele>
        <time>2026-08-16T09:27:46.000Z</time>
      </trkpt>
      <trkpt lat="22.828885" lon="110.501957">
        <ele>115.011545</ele>
        <time>2026-08-16T09:27:47.000Z</time>
      </trkpt>
      <trkpt lat="22.828903" lon="110.501990">
        <ele>115.054064</ele>
        <time>2026-08-16T09:27:48.000Z</time>
      </trkpt>
      <trkpt lat="22.828924" lon="110.502018">
        <ele>115.094092</ele>
        <time>2026-08-16T09:27:49.000Z</time>
      </trkpt>
      <trkpt lat="22.828943" lon="110.502047">
        <ele>115.133544</ele>
        <time>2026-08-16T09:27:50.000Z</time>
      </trkpt>
      <trkpt lat="22.828957" lon="110.502074">
        <ele>115.167895</ele>
        <time>2026-08-16T09:27:51.000Z</time>
      </trkpt>
      <trkpt lat="22.828972" lon="110.502099">
        <ele>115.200972</ele>
        <time>2026-08-16T09:27:52.000Z</time>
      </trkpt>
      <trkpt lat="22.828988" lon="110.502124">
        <ele>115.234721</ele>
        <time>2026-08-16T09:27:53.000Z</time>
      </trkpt>
      <trkpt lat="22.829001" lon="110.502150">
        <ele>115.267520</ele>
        <time>2026-08-16T09:27:54.000Z</time>
      </trkpt>
      <trkpt lat="22.829013" lon="110.502174">
        <ele>115.297795</ele>
        <time>2026-08-16T09:27:55.000Z</time>
      </trkpt>
      <trkpt lat="22.829021" lon="110.502195">
        <ele>115.322991</ele>
        <time>2026-08-16T09:27:56.000Z</time>
      </trkpt>
      <trkpt lat="22.829033" lon="110.502218">
        <ele>115.357581</ele>
        <time>2026-08-16T09:27:57.000Z</time>
      </trkpt>
      <trkpt lat="22.829046" lon="110.502241">
        <ele>115.408137</ele>
        <time>2026-08-16T09:27:58.000Z</time>
      </trkpt>
      <trkpt lat="22.829059" lon="110.502263">
        <ele>115.457106</ele>
        <time>2026-08-16T09:27:59.000Z</time>
      </trkpt>
      <trkpt lat="22.829074" lon="110.502286">
        <ele>115.509902</ele>
        <time>2026-08-16T09:28:00.000Z</time>
      </trkpt>
      <trkpt lat="22.829088" lon="110.502310">
        <ele>115.563124</ele>
        <time>2026-08-16T09:28:01.000Z</time>
      </trkpt>
      <trkpt lat="22.829102" lon="110.502335">
        <ele>115.617938</ele>
        <time>2026-08-16T09:28:02.000Z</time>
      </trkpt>
      <trkpt lat="22.829114" lon="110.502358">
        <ele>115.667462</ele>
        <time>2026-08-16T09:28:03.000Z</time>
      </trkpt>
      <trkpt lat="22.829125" lon="110.502382">
        <ele>115.717687</ele>
        <time>2026-08-16T09:28:04.000Z</time>
      </trkpt>
      <trkpt lat="22.829134" lon="110.502405">
        <ele>115.764508</ele>
        <time>2026-08-16T09:28:05.000Z</time>
      </trkpt>
      <trkpt lat="22.829146" lon="110.502430">
        <ele>115.817326</ele>
        <time>2026-08-16T09:28:06.000Z</time>
      </trkpt>
      <trkpt lat="22.829158" lon="110.502454">
        <ele>115.868489</ele>
        <time>2026-08-16T09:28:07.000Z</time>
      </trkpt>
      <trkpt lat="22.829172" lon="110.502477">
        <ele>115.920137</ele>
        <time>2026-08-16T09:28:08.000Z</time>
      </trkpt>
      <trkpt lat="22.829184" lon="110.502504">
        <ele>115.976305</ele>
        <time>2026-08-16T09:28:09.000Z</time>
      </trkpt>
      <trkpt lat="22.829196" lon="110.502529">
        <ele>116.029122</ele>
        <time>2026-08-16T09:28:10.000Z</time>
      </trkpt>
      <trkpt lat="22.829207" lon="110.502554">
        <ele>116.081032</ele>
        <time>2026-08-16T09:28:11.000Z</time>
      </trkpt>
      <trkpt lat="22.829219" lon="110.502581">
        <ele>116.137200</ele>
        <time>2026-08-16T09:28:12.000Z</time>
      </trkpt>
      <trkpt lat="22.829233" lon="110.502606">
        <ele>116.192014</ele>
        <time>2026-08-16T09:28:13.000Z</time>
      </trkpt>
      <trkpt lat="22.829246" lon="110.502630">
        <ele>116.244177</ele>
        <time>2026-08-16T09:28:14.000Z</time>
      </trkpt>
      <trkpt lat="22.829261" lon="110.502652">
        <ele>116.295455</ele>
        <time>2026-08-16T09:28:15.000Z</time>
      </trkpt>
      <trkpt lat="22.829274" lon="110.502677">
        <ele>116.349242</ele>
        <time>2026-08-16T09:28:16.000Z</time>
      </trkpt>
      <trkpt lat="22.829287" lon="110.502702">
        <ele>116.403028</ele>
        <time>2026-08-16T09:28:17.000Z</time>
      </trkpt>
      <trkpt lat="22.829299" lon="110.502726">
        <ele>116.454191</ele>
        <time>2026-08-16T09:28:18.000Z</time>
      </trkpt>
      <trkpt lat="22.829312" lon="110.502749">
        <ele>116.504748</ele>
        <time>2026-08-16T09:28:19.000Z</time>
      </trkpt>
      <trkpt lat="22.829324" lon="110.502773">
        <ele>116.555910</ele>
        <time>2026-08-16T09:28:20.000Z</time>
      </trkpt>
      <trkpt lat="22.829336" lon="110.502798">
        <ele>116.608728</ele>
        <time>2026-08-16T09:28:21.000Z</time>
      </trkpt>
      <trkpt lat="22.829349" lon="110.502822">
        <ele>116.660891</ele>
        <time>2026-08-16T09:28:22.000Z</time>
      </trkpt>
      <trkpt lat="22.829362" lon="110.502846">
        <ele>116.713053</ele>
        <time>2026-08-16T09:28:23.000Z</time>
      </trkpt>
      <trkpt lat="22.829375" lon="110.502870">
        <ele>116.765216</ele>
        <time>2026-08-16T09:28:24.000Z</time>
      </trkpt>
      <trkpt lat="22.829385" lon="110.502895">
        <ele>116.816283</ele>
        <time>2026-08-16T09:28:25.000Z</time>
      </trkpt>
      <trkpt lat="22.829397" lon="110.502919">
        <ele>116.867446</ele>
        <time>2026-08-16T09:28:26.000Z</time>
      </trkpt>
      <trkpt lat="22.829409" lon="110.502942">
        <ele>116.916969</ele>
        <time>2026-08-16T09:28:27.000Z</time>
      </trkpt>
      <trkpt lat="22.829422" lon="110.502966">
        <ele>116.969132</ele>
        <time>2026-08-16T09:28:28.000Z</time>
      </trkpt>
      <trkpt lat="22.829432" lon="110.502990">
        <ele>117.018486</ele>
        <time>2026-08-16T09:28:29.000Z</time>
      </trkpt>
      <trkpt lat="22.829442" lon="110.503016">
        <ele>117.071276</ele>
        <time>2026-08-16T09:28:30.000Z</time>
      </trkpt>
      <trkpt lat="22.829453" lon="110.503042">
        <ele>117.124883</ele>
        <time>2026-08-16T09:28:31.000Z</time>
      </trkpt>
      <trkpt lat="22.829465" lon="110.503066">
        <ele>117.176046</ele>
        <time>2026-08-16T09:28:32.000Z</time>
      </trkpt>
      <trkpt lat="22.829475" lon="110.503091">
        <ele>117.227112</ele>
        <time>2026-08-16T09:28:33.000Z</time>
      </trkpt>
      <trkpt lat="22.829486" lon="110.503118">
        <ele>117.282428</ele>
        <time>2026-08-16T09:28:34.000Z</time>
      </trkpt>
      <trkpt lat="22.829498" lon="110.503142">
        <ele>117.333590</ele>
        <time>2026-08-16T09:28:35.000Z</time>
      </trkpt>
      <trkpt lat="22.829511" lon="110.503165">
        <ele>117.384147</ele>
        <time>2026-08-16T09:28:36.000Z</time>
      </trkpt>
      <trkpt lat="22.829524" lon="110.503188">
        <ele>117.434703</ele>
        <time>2026-08-16T09:28:37.000Z</time>
      </trkpt>
      <trkpt lat="22.829539" lon="110.503208">
        <ele>117.483019</ele>
        <time>2026-08-16T09:28:38.000Z</time>
      </trkpt>
      <trkpt lat="22.829554" lon="110.503228">
        <ele>117.531335</ele>
        <time>2026-08-16T09:28:39.000Z</time>
      </trkpt>
      <trkpt lat="22.829567" lon="110.503247">
        <ele>117.575676</ele>
        <time>2026-08-16T09:28:40.000Z</time>
      </trkpt>
      <trkpt lat="22.829580" lon="110.503266">
        <ele>117.620016</ele>
        <time>2026-08-16T09:28:41.000Z</time>
      </trkpt>
      <trkpt lat="22.829590" lon="110.503285">
        <ele>117.661014</ele>
        <time>2026-08-16T09:28:42.000Z</time>
      </trkpt>
      <trkpt lat="22.829598" lon="110.503304">
        <ele>117.700156</ele>
        <time>2026-08-16T09:28:43.000Z</time>
      </trkpt>
      <trkpt lat="22.829606" lon="110.503325">
        <ele>117.742734</ele>
        <time>2026-08-16T09:28:44.000Z</time>
      </trkpt>
      <trkpt lat="22.829614" lon="110.503341">
        <ele>117.776843</ele>
        <time>2026-08-16T09:28:45.000Z</time>
      </trkpt>
      <trkpt lat="22.829619" lon="110.503353">
        <ele>117.801520</ele>
        <time>2026-08-16T09:28:46.000Z</time>
      </trkpt>
      <trkpt lat="22.829623" lon="110.503362">
        <ele>117.820242</ele>
        <time>2026-08-16T09:28:47.000Z</time>
      </trkpt>
      <trkpt lat="22.829629" lon="110.503370">
        <ele>117.839569</ele>
        <time>2026-08-16T09:28:48.000Z</time>
      </trkpt>
      <trkpt lat="22.829634" lon="110.503378">
        <ele>117.857681</ele>
        <time>2026-08-16T09:28:49.000Z</time>
      </trkpt>
      <trkpt lat="22.829640" lon="110.503387">
        <ele>117.878494</ele>
        <time>2026-08-16T09:28:50.000Z</time>
      </trkpt>
      <trkpt lat="22.829646" lon="110.503400">
        <ele>117.905737</ele>
        <time>2026-08-16T09:28:51.000Z</time>
      </trkpt>
      <trkpt lat="22.829653" lon="110.503419">
        <ele>117.944079</ele>
        <time>2026-08-16T09:28:52.000Z</time>
      </trkpt>
      <trkpt lat="22.829662" lon="110.503442">
        <ele>117.990900</ele>
        <time>2026-08-16T09:28:53.000Z</time>
      </trkpt>
      <trkpt lat="22.829675" lon="110.503466">
        <ele>118.043062</ele>
        <time>2026-08-16T09:28:54.000Z</time>
      </trkpt>
      <trkpt lat="22.829689" lon="110.503489">
        <ele>118.094710</ele>
        <time>2026-08-16T09:28:55.000Z</time>
      </trkpt>
      <trkpt lat="22.829704" lon="110.503511">
        <ele>118.145988</ele>
        <time>2026-08-16T09:28:56.000Z</time>
      </trkpt>
      <trkpt lat="22.829721" lon="110.503533">
        <ele>118.199783</ele>
        <time>2026-08-16T09:28:57.000Z</time>
      </trkpt>
      <trkpt lat="22.829739" lon="110.503555">
        <ele>118.254907</ele>
        <time>2026-08-16T09:28:58.000Z</time>
      </trkpt>
      <trkpt lat="22.829759" lon="110.503577">
        <ele>118.312810</ele>
        <time>2026-08-16T09:28:59.000Z</time>
      </trkpt>
      <trkpt lat="22.829781" lon="110.503597">
        <ele>118.371162</ele>
        <time>2026-08-16T09:29:00.000Z</time>
      </trkpt>
      <trkpt lat="22.829803" lon="110.503621">
        <ele>118.434589</ele>
        <time>2026-08-16T09:29:01.000Z</time>
      </trkpt>
      <trkpt lat="22.829825" lon="110.503646">
        <ele>118.499358</ele>
        <time>2026-08-16T09:29:02.000Z</time>
      </trkpt>
      <trkpt lat="22.829849" lon="110.503670">
        <ele>118.565715</ele>
        <time>2026-08-16T09:29:03.000Z</time>
      </trkpt>
      <trkpt lat="22.829874" lon="110.503697">
        <ele>118.637429</ele>
        <time>2026-08-16T09:29:04.000Z</time>
      </trkpt>
      <trkpt lat="22.829895" lon="110.503725">
        <ele>118.705072</ele>
        <time>2026-08-16T09:29:05.000Z</time>
      </trkpt>
      <trkpt lat="22.829916" lon="110.503757">
        <ele>118.778680</ele>
        <time>2026-08-16T09:29:06.000Z</time>
      </trkpt>
      <trkpt lat="22.829936" lon="110.503792">
        <ele>118.855845</ele>
        <time>2026-08-16T09:29:07.000Z</time>
      </trkpt>
      <trkpt lat="22.829957" lon="110.503826">
        <ele>118.932537</ele>
        <time>2026-08-16T09:29:08.000Z</time>
      </trkpt>
      <trkpt lat="22.829978" lon="110.503859">
        <ele>118.993848</ele>
        <time>2026-08-16T09:29:09.000Z</time>
      </trkpt>
      <trkpt lat="22.829999" lon="110.503893">
        <ele>118.901556</ele>
        <time>2026-08-16T09:29:10.000Z</time>
      </trkpt>
      <trkpt lat="22.830024" lon="110.503926">
        <ele>118.805230</ele>
        <time>2026-08-16T09:29:11.000Z</time>
      </trkpt>
      <trkpt lat="22.830052" lon="110.503958">
        <ele>118.705732</ele>
        <time>2026-08-16T09:29:12.000Z</time>
      </trkpt>
      <trkpt lat="22.830081" lon="110.503989">
        <ele>118.606130</ele>
        <time>2026-08-16T09:29:13.000Z</time>
      </trkpt>
      <trkpt lat="22.830110" lon="110.504019">
        <ele>118.508096</ele>
        <time>2026-08-16T09:29:14.000Z</time>
      </trkpt>
      <trkpt lat="22.830138" lon="110.504051">
        <ele>118.408598</ele>
        <time>2026-08-16T09:29:15.000Z</time>
      </trkpt>
      <trkpt lat="22.830166" lon="110.504085">
        <ele>118.305782</ele>
        <time>2026-08-16T09:29:16.000Z</time>
      </trkpt>
      <trkpt lat="22.830195" lon="110.504119">
        <ele>118.201321</ele>
        <time>2026-08-16T09:29:17.000Z</time>
      </trkpt>
      <trkpt lat="22.830224" lon="110.504153">
        <ele>118.096859</ele>
        <time>2026-08-16T09:29:18.000Z</time>
      </trkpt>
      <trkpt lat="22.830253" lon="110.504187">
        <ele>117.992397</ele>
        <time>2026-08-16T09:29:19.000Z</time>
      </trkpt>
      <trkpt lat="22.830280" lon="110.504222">
        <ele>117.889477</ele>
        <time>2026-08-16T09:29:20.000Z</time>
      </trkpt>
      <trkpt lat="22.830310" lon="110.504260">
        <ele>117.776650</ele>
        <time>2026-08-16T09:29:21.000Z</time>
      </trkpt>
      <trkpt lat="22.830341" lon="110.504301">
        <ele>117.657067</ele>
        <time>2026-08-16T09:29:22.000Z</time>
      </trkpt>
      <trkpt lat="22.830375" lon="110.504347">
        <ele>117.524104</ele>
        <time>2026-08-16T09:29:23.000Z</time>
      </trkpt>
      <trkpt lat="22.830413" lon="110.504397">
        <ele>117.377968</ele>
        <time>2026-08-16T09:29:24.000Z</time>
      </trkpt>
      <trkpt lat="22.830454" lon="110.504448">
        <ele>117.225364</ele>
        <time>2026-08-16T09:29:25.000Z</time>
      </trkpt>
      <trkpt lat="22.830496" lon="110.504498">
        <ele>117.072815</ele>
        <time>2026-08-16T09:29:26.000Z</time>
      </trkpt>
      <trkpt lat="22.830540" lon="110.504550">
        <ele>116.913635</ele>
        <time>2026-08-16T09:29:27.000Z</time>
      </trkpt>
      <trkpt lat="22.830585" lon="110.504601">
        <ele>116.754427</ele>
        <time>2026-08-16T09:29:28.000Z</time>
      </trkpt>
      <trkpt lat="22.830630" lon="110.504653">
        <ele>116.593583</ele>
        <time>2026-08-16T09:29:29.000Z</time>
      </trkpt>
      <trkpt lat="22.830674" lon="110.504707">
        <ele>116.431053</ele>
        <time>2026-08-16T09:29:30.000Z</time>
      </trkpt>
      <trkpt lat="22.830715" lon="110.504762">
        <ele>116.271542</ele>
        <time>2026-08-16T09:29:31.000Z</time>
      </trkpt>
      <trkpt lat="22.830755" lon="110.504820">
        <ele>116.108193</ele>
        <time>2026-08-16T09:29:32.000Z</time>
      </trkpt>
      <trkpt lat="22.830794" lon="110.504879">
        <ele>115.944471</ele>
        <time>2026-08-16T09:29:33.000Z</time>
      </trkpt>
      <trkpt lat="22.830833" lon="110.504937">
        <ele>115.782577</ele>
        <time>2026-08-16T09:29:34.000Z</time>
      </trkpt>
      <trkpt lat="22.830874" lon="110.504994">
        <ele>115.619535</ele>
        <time>2026-08-16T09:29:35.000Z</time>
      </trkpt>
      <trkpt lat="22.830915" lon="110.505051">
        <ele>115.456492</ele>
        <time>2026-08-16T09:29:36.000Z</time>
      </trkpt>
      <trkpt lat="22.830955" lon="110.505107">
        <ele>115.296732</ele>
        <time>2026-08-16T09:29:37.000Z</time>
      </trkpt>
      <trkpt lat="22.830997" lon="110.505162">
        <ele>115.135671</ele>
        <time>2026-08-16T09:29:38.000Z</time>
      </trkpt>
      <trkpt lat="22.831040" lon="110.505216">
        <ele>114.974751</ele>
        <time>2026-08-16T09:29:39.000Z</time>
      </trkpt>
      <trkpt lat="22.831084" lon="110.505272">
        <ele>114.808815</ele>
        <time>2026-08-16T09:29:40.000Z</time>
      </trkpt>
      <trkpt lat="22.831128" lon="110.505327">
        <ele>114.644589</ele>
        <time>2026-08-16T09:29:41.000Z</time>
      </trkpt>
      <trkpt lat="22.831174" lon="110.505381">
        <ele>114.553175</ele>
        <time>2026-08-16T09:29:42.000Z</time>
      </trkpt>
      <trkpt lat="22.831222" lon="110.505432">
        <ele>114.489024</ele>
        <time>2026-08-16T09:29:43.000Z</time>
      </trkpt>
      <trkpt lat="22.831269" lon="110.505486">
        <ele>114.423658</ele>
        <time>2026-08-16T09:29:44.000Z</time>
      </trkpt>
      <trkpt lat="22.831314" lon="110.505538">
        <ele>114.360883</ele>
        <time>2026-08-16T09:29:45.000Z</time>
      </trkpt>
      <trkpt lat="22.831360" lon="110.505590">
        <ele>114.297450</ele>
        <time>2026-08-16T09:29:46.000Z</time>
      </trkpt>
      <trkpt lat="22.831405" lon="110.505642">
        <ele>114.234675</ele>
        <time>2026-08-16T09:29:47.000Z</time>
      </trkpt>
      <trkpt lat="22.831451" lon="110.505693">
        <ele>114.171874</ele>
        <time>2026-08-16T09:29:48.000Z</time>
      </trkpt>
      <trkpt lat="22.831497" lon="110.505741">
        <ele>114.110933</ele>
        <time>2026-08-16T09:29:49.000Z</time>
      </trkpt>
      <trkpt lat="22.831546" lon="110.505788">
        <ele>114.048481</ele>
        <time>2026-08-16T09:29:50.000Z</time>
      </trkpt>
      <trkpt lat="22.831594" lon="110.505836">
        <ele>113.986149</ele>
        <time>2026-08-16T09:29:51.000Z</time>
      </trkpt>
      <trkpt lat="22.831641" lon="110.505887">
        <ele>113.922677</ele>
        <time>2026-08-16T09:29:52.000Z</time>
      </trkpt>
      <trkpt lat="22.831690" lon="110.505936">
        <ele>113.859046</ele>
        <time>2026-08-16T09:29:53.000Z</time>
      </trkpt>
      <trkpt lat="22.831740" lon="110.505983">
        <ele>113.795876</ele>
        <time>2026-08-16T09:29:54.000Z</time>
      </trkpt>
      <trkpt lat="22.831793" lon="110.506027">
        <ele>113.732152</ele>
        <time>2026-08-16T09:29:55.000Z</time>
      </trkpt>
      <trkpt lat="22.831846" lon="110.506073">
        <ele>113.667344</ele>
        <time>2026-08-16T09:29:56.000Z</time>
      </trkpt>
      <trkpt lat="22.831898" lon="110.506119">
        <ele>113.603278</ele>
        <time>2026-08-16T09:29:57.000Z</time>
      </trkpt>
      <trkpt lat="22.831949" lon="110.506162">
        <ele>113.541604</ele>
        <time>2026-08-16T09:29:58.000Z</time>
      </trkpt>
      <trkpt lat="22.832000" lon="110.506207">
        <ele>113.478835</ele>
        <time>2026-08-16T09:29:59.000Z</time>
      </trkpt>
      <trkpt lat="22.832051" lon="110.506249">
        <ele>113.417697</ele>
        <time>2026-08-16T09:30:00.000Z</time>
      </trkpt>
      <trkpt lat="22.832101" lon="110.506292">
        <ele>113.356774</ele>
        <time>2026-08-16T09:30:01.000Z</time>
      </trkpt>
      <trkpt lat="22.832149" lon="110.506336">
        <ele>113.296772</ele>
        <time>2026-08-16T09:30:02.000Z</time>
      </trkpt>
      <trkpt lat="22.832196" lon="110.506382">
        <ele>113.236331</ele>
        <time>2026-08-16T09:30:03.000Z</time>
      </trkpt>
      <trkpt lat="22.832246" lon="110.506423">
        <ele>113.176486</ele>
        <time>2026-08-16T09:30:04.000Z</time>
      </trkpt>
      <trkpt lat="22.832295" lon="110.506466">
        <ele>113.116308</ele>
        <time>2026-08-16T09:30:05.000Z</time>
      </trkpt>
      <trkpt lat="22.832345" lon="110.506509">
        <ele>113.055385</ele>
        <time>2026-08-16T09:30:06.000Z</time>
      </trkpt>
      <trkpt lat="22.832394" lon="110.506551">
        <ele>112.995758</ele>
        <time>2026-08-16T09:30:07.000Z</time>
      </trkpt>
      <trkpt lat="22.832442" lon="110.506594">
        <ele>112.936320</ele>
        <time>2026-08-16T09:30:08.000Z</time>
      </trkpt>
      <trkpt lat="22.832489" lon="110.506636">
        <ele>112.887545</ele>
        <time>2026-08-16T09:30:09.000Z</time>
      </trkpt>
      <trkpt lat="22.832534" lon="110.506678">
        <ele>112.934536</ele>
        <time>2026-08-16T09:30:10.000Z</time>
      </trkpt>
      <trkpt lat="22.832581" lon="110.506719">
        <ele>112.982279</ele>
        <time>2026-08-16T09:30:11.000Z</time>
      </trkpt>
      <trkpt lat="22.832628" lon="110.506757">
        <ele>113.028681</ele>
        <time>2026-08-16T09:30:12.000Z</time>
      </trkpt>
      <trkpt lat="22.832673" lon="110.506798">
        <ele>113.075200</ele>
        <time>2026-08-16T09:30:13.000Z</time>
      </trkpt>
      <trkpt lat="22.832718" lon="110.506837">
        <ele>113.120794</ele>
        <time>2026-08-16T09:30:14.000Z</time>
      </trkpt>
      <trkpt lat="22.832764" lon="110.506874">
        <ele>113.166126</ele>
        <time>2026-08-16T09:30:15.000Z</time>
      </trkpt>
      <trkpt lat="22.832808" lon="110.506911">
        <ele>113.210196</ele>
        <time>2026-08-16T09:30:16.000Z</time>
      </trkpt>
      <trkpt lat="22.832850" lon="110.506950">
        <ele>113.253959</ele>
        <time>2026-08-16T09:30:17.000Z</time>
      </trkpt>
      <trkpt lat="22.832890" lon="110.506989">
        <ele>113.296533</ele>
        <time>2026-08-16T09:30:18.000Z</time>
      </trkpt>
      <trkpt lat="22.832931" lon="110.507027">
        <ele>113.339220</ele>
        <time>2026-08-16T09:30:19.000Z</time>
      </trkpt>
      <trkpt lat="22.832974" lon="110.507063">
        <ele>113.382218</ele>
        <time>2026-08-16T09:30:20.000Z</time>
      </trkpt>
      <trkpt lat="22.833016" lon="110.507099">
        <ele>113.424591</ele>
        <time>2026-08-16T09:30:21.000Z</time>
      </trkpt>
      <trkpt lat="22.833055" lon="110.507137">
        <ele>113.466087</ele>
        <time>2026-08-16T09:30:22.000Z</time>
      </trkpt>
      <trkpt lat="22.833093" lon="110.507174">
        <ele>113.506507</ele>
        <time>2026-08-16T09:30:23.000Z</time>
      </trkpt>
      <trkpt lat="22.833132" lon="110.507209">
        <ele>113.546575</ele>
        <time>2026-08-16T09:30:24.000Z</time>
      </trkpt>
      <trkpt lat="22.833171" lon="110.507244">
        <ele>113.586642</ele>
        <time>2026-08-16T09:30:25.000Z</time>
      </trkpt>
      <trkpt lat="22.833211" lon="110.507278">
        <ele>113.626868</ele>
        <time>2026-08-16T09:30:26.000Z</time>
      </trkpt>
      <trkpt lat="22.833250" lon="110.507311">
        <ele>113.666022</ele>
        <time>2026-08-16T09:30:27.000Z</time>
      </trkpt>
      <trkpt lat="22.833288" lon="110.507346">
        <ele>113.705482</ele>
        <time>2026-08-16T09:30:28.000Z</time>
      </trkpt>
      <trkpt lat="22.833324" lon="110.507379">
        <ele>113.742791</ele>
        <time>2026-08-16T09:30:29.000Z</time>
      </trkpt>
      <trkpt lat="22.833361" lon="110.507413">
        <ele>113.781176</ele>
        <time>2026-08-16T09:30:30.000Z</time>
      </trkpt>
      <trkpt lat="22.833397" lon="110.507449">
        <ele>113.819934</ele>
        <time>2026-08-16T09:30:31.000Z</time>
      </trkpt>
      <trkpt lat="22.833434" lon="110.507483">
        <ele>113.858319</ele>
        <time>2026-08-16T09:30:32.000Z</time>
      </trkpt>
      <trkpt lat="22.833472" lon="110.507516">
        <ele>113.896851</ele>
        <time>2026-08-16T09:30:33.000Z</time>
      </trkpt>
      <trkpt lat="22.833510" lon="110.507548">
        <ele>113.934931</ele>
        <time>2026-08-16T09:30:34.000Z</time>
      </trkpt>
      <trkpt lat="22.833548" lon="110.507579">
        <ele>113.972569</ele>
        <time>2026-08-16T09:30:35.000Z</time>
      </trkpt>
      <trkpt lat="22.833586" lon="110.507611">
        <ele>114.010649</ele>
        <time>2026-08-16T09:30:36.000Z</time>
      </trkpt>
      <trkpt lat="22.833621" lon="110.507642">
        <ele>114.046417</ele>
        <time>2026-08-16T09:30:37.000Z</time>
      </trkpt>
      <trkpt lat="22.833656" lon="110.507674">
        <ele>114.082651</ele>
        <time>2026-08-16T09:30:38.000Z</time>
      </trkpt>
      <trkpt lat="22.833689" lon="110.507707">
        <ele>114.118178</ele>
        <time>2026-08-16T09:30:39.000Z</time>
      </trkpt>
      <trkpt lat="22.833724" lon="110.507740">
        <ele>114.154886</ele>
        <time>2026-08-16T09:30:40.000Z</time>
      </trkpt>
      <trkpt lat="22.833760" lon="110.507770">
        <ele>114.190822</ele>
        <time>2026-08-16T09:30:41.000Z</time>
      </trkpt>
      <trkpt lat="22.833796" lon="110.507798">
        <ele>114.225887</ele>
        <time>2026-08-16T09:30:42.000Z</time>
      </trkpt>
      <trkpt lat="22.833833" lon="110.507827">
        <ele>114.262022</ele>
        <time>2026-08-16T09:30:43.000Z</time>
      </trkpt>
      <trkpt lat="22.833871" lon="110.507857">
        <ele>114.299225</ele>
        <time>2026-08-16T09:30:44.000Z</time>
      </trkpt>
      <trkpt lat="22.833909" lon="110.507885">
        <ele>114.266286</ele>
        <time>2026-08-16T09:30:45.000Z</time>
      </trkpt>
      <trkpt lat="22.833944" lon="110.507914">
        <ele>114.215996</ele>
        <time>2026-08-16T09:30:46.000Z</time>
      </trkpt>
      <trkpt lat="22.833980" lon="110.507944">
        <ele>114.164160</ele>
        <time>2026-08-16T09:30:47.000Z</time>
      </trkpt>
      <trkpt lat="22.834014" lon="110.507973">
        <ele>114.114773</ele>
        <time>2026-08-16T09:30:48.000Z</time>
      </trkpt>
      <trkpt lat="22.834047" lon="110.508003">
        <ele>114.065609</ele>
        <time>2026-08-16T09:30:49.000Z</time>
      </trkpt>
      <trkpt lat="22.834080" lon="110.508034">
        <ele>114.015763</ele>
        <time>2026-08-16T09:30:50.000Z</time>
      </trkpt>
      <trkpt lat="22.834112" lon="110.508067">
        <ele>113.965348</ele>
        <time>2026-08-16T09:30:51.000Z</time>
      </trkpt>
      <trkpt lat="22.834145" lon="110.508097">
        <ele>113.916184</ele>
        <time>2026-08-16T09:30:52.000Z</time>
      </trkpt>
      <trkpt lat="22.834180" lon="110.508126">
        <ele>113.865894</ele>
        <time>2026-08-16T09:30:53.000Z</time>
      </trkpt>
      <trkpt lat="22.834219" lon="110.508151">
        <ele>113.814166</ele>
        <time>2026-08-16T09:30:54.000Z</time>
      </trkpt>
      <trkpt lat="22.834252" lon="110.508178">
        <ele>113.766968</ele>
        <time>2026-08-16T09:30:55.000Z</time>
      </trkpt>
      <trkpt lat="22.834288" lon="110.508205">
        <ele>113.716992</ele>
        <time>2026-08-16T09:30:56.000Z</time>
      </trkpt>
      <trkpt lat="22.834323" lon="110.508232">
        <ele>113.667951</ele>
        <time>2026-08-16T09:30:57.000Z</time>
      </trkpt>
      <trkpt lat="22.834357" lon="110.508263">
        <ele>113.617236</ele>
        <time>2026-08-16T09:30:58.000Z</time>
      </trkpt>
      <trkpt lat="22.834389" lon="110.508296">
        <ele>113.566821</ele>
        <time>2026-08-16T09:30:59.000Z</time>
      </trkpt>
      <trkpt lat="22.834419" lon="110.508330">
        <ele>113.517282</ele>
        <time>2026-08-16T09:31:00.000Z</time>
      </trkpt>
      <trkpt lat="22.834446" lon="110.508366">
        <ele>113.468433</ele>
        <time>2026-08-16T09:31:01.000Z</time>
      </trkpt>
      <trkpt lat="22.834476" lon="110.508401">
        <ele>113.418128</ele>
        <time>2026-08-16T09:31:02.000Z</time>
      </trkpt>
      <trkpt lat="22.834505" lon="110.508437">
        <ele>113.367806</ele>
        <time>2026-08-16T09:31:03.000Z</time>
      </trkpt>
      <trkpt lat="22.834538" lon="110.508473">
        <ele>113.314367</ele>
        <time>2026-08-16T09:31:04.000Z</time>
      </trkpt>
      <trkpt lat="22.834572" lon="110.508508">
        <ele>113.260846</ele>
        <time>2026-08-16T09:31:05.000Z</time>
      </trkpt>
      <trkpt lat="22.834605" lon="110.508547">
        <ele>113.205124</ele>
        <time>2026-08-16T09:31:06.000Z</time>
      </trkpt>
      <trkpt lat="22.834638" lon="110.508586">
        <ele>113.149402</ele>
        <time>2026-08-16T09:31:07.000Z</time>
      </trkpt>
      <trkpt lat="22.834674" lon="110.508625">
        <ele>113.091309</ele>
        <time>2026-08-16T09:31:08.000Z</time>
      </trkpt>
      <trkpt lat="22.834710" lon="110.508666">
        <ele>113.031709</ele>
        <time>2026-08-16T09:31:09.000Z</time>
      </trkpt>
      <trkpt lat="22.834749" lon="110.508706">
        <ele>112.970424</ele>
        <time>2026-08-16T09:31:10.000Z</time>
      </trkpt>
      <trkpt lat="22.834788" lon="110.508745">
        <ele>112.909858</ele>
        <time>2026-08-16T09:31:11.000Z</time>
      </trkpt>
      <trkpt lat="22.834823" lon="110.508786">
        <ele>112.851040</ele>
        <time>2026-08-16T09:31:12.000Z</time>
      </trkpt>
      <trkpt lat="22.834857" lon="110.508829">
        <ele>112.791411</ele>
        <time>2026-08-16T09:31:13.000Z</time>
      </trkpt>
      <trkpt lat="22.834892" lon="110.508874">
        <ele>112.729439</ele>
        <time>2026-08-16T09:31:14.000Z</time>
      </trkpt>
      <trkpt lat="22.834928" lon="110.508919">
        <ele>112.666724</ele>
        <time>2026-08-16T09:31:15.000Z</time>
      </trkpt>
      <trkpt lat="22.834963" lon="110.508964">
        <ele>112.604752</ele>
        <time>2026-08-16T09:31:16.000Z</time>
      </trkpt>
      <trkpt lat="22.834997" lon="110.509010">
        <ele>112.542693</ele>
        <time>2026-08-16T09:31:17.000Z</time>
      </trkpt>
      <trkpt lat="22.835032" lon="110.509056">
        <ele>112.479912</ele>
        <time>2026-08-16T09:31:18.000Z</time>
      </trkpt>
      <trkpt lat="22.835067" lon="110.509104">
        <ele>112.415495</ele>
        <time>2026-08-16T09:31:19.000Z</time>
      </trkpt>
      <trkpt lat="22.835103" lon="110.509149">
        <ele>112.352780</ele>
        <time>2026-08-16T09:31:20.000Z</time>
      </trkpt>
      <trkpt lat="22.835142" lon="110.509189">
        <ele>112.291496</ele>
        <time>2026-08-16T09:31:21.000Z</time>
      </trkpt>
      <trkpt lat="22.835180" lon="110.509233">
        <ele>112.216524</ele>
        <time>2026-08-16T09:31:22.000Z</time>
      </trkpt>
      <trkpt lat="22.835219" lon="110.509278">
        <ele>112.121817</ele>
        <time>2026-08-16T09:31:23.000Z</time>
      </trkpt>
      <trkpt lat="22.835254" lon="110.509327">
        <ele>112.026769</ele>
        <time>2026-08-16T09:31:24.000Z</time>
      </trkpt>
      <trkpt lat="22.835287" lon="110.509384">
        <ele>111.923564</ele>
        <time>2026-08-16T09:31:25.000Z</time>
      </trkpt>
      <trkpt lat="22.835323" lon="110.509434">
        <ele>111.826285</ele>
        <time>2026-08-16T09:31:26.000Z</time>
      </trkpt>
      <trkpt lat="22.835357" lon="110.509483">
        <ele>111.732247</ele>
        <time>2026-08-16T09:31:27.000Z</time>
      </trkpt>
      <trkpt lat="22.835394" lon="110.509531">
        <ele>111.636306</ele>
        <time>2026-08-16T09:31:28.000Z</time>
      </trkpt>
      <trkpt lat="22.835434" lon="110.509579">
        <ele>111.537090</ele>
        <time>2026-08-16T09:31:29.000Z</time>
      </trkpt>
      <trkpt lat="22.835472" lon="110.509630">
        <ele>111.436540</ele>
        <time>2026-08-16T09:31:30.000Z</time>
      </trkpt>
      <trkpt lat="22.835507" lon="110.509680">
        <ele>111.340275</ele>
        <time>2026-08-16T09:31:31.000Z</time>
      </trkpt>
      <trkpt lat="22.835547" lon="110.509726">
        <ele>111.243311</ele>
        <time>2026-08-16T09:31:32.000Z</time>
      </trkpt>
      <trkpt lat="22.835585" lon="110.509778">
        <ele>111.141565</ele>
        <time>2026-08-16T09:31:33.000Z</time>
      </trkpt>
      <trkpt lat="22.835620" lon="110.509830">
        <ele>111.042841</ele>
        <time>2026-08-16T09:31:34.000Z</time>
      </trkpt>
      <trkpt lat="22.835655" lon="110.509881">
        <ele>110.945351</ele>
        <time>2026-08-16T09:31:35.000Z</time>
      </trkpt>
      <trkpt lat="22.835693" lon="110.509931">
        <ele>110.845989</ele>
        <time>2026-08-16T09:31:36.000Z</time>
      </trkpt>
      <trkpt lat="22.835725" lon="110.509983">
        <ele>110.750124</ele>
        <time>2026-08-16T09:31:37.000Z</time>
      </trkpt>
      <trkpt lat="22.835756" lon="110.510036">
        <ele>110.653882</ele>
        <time>2026-08-16T09:31:38.000Z</time>
      </trkpt>
      <trkpt lat="22.835788" lon="110.510088">
        <ele>110.558017</ele>
        <time>2026-08-16T09:31:39.000Z</time>
      </trkpt>
      <trkpt lat="22.835820" lon="110.510142">
        <ele>110.459588</ele>
        <time>2026-08-16T09:31:40.000Z</time>
      </trkpt>
      <trkpt lat="22.835855" lon="110.510196">
        <ele>110.358372</ele>
        <time>2026-08-16T09:31:41.000Z</time>
      </trkpt>
      <trkpt lat="22.835890" lon="110.510246">
        <ele>110.262108</ele>
        <time>2026-08-16T09:31:42.000Z</time>
      </trkpt>
      <trkpt lat="22.835923" lon="110.510294">
        <ele>110.170295</ele>
        <time>2026-08-16T09:31:43.000Z</time>
      </trkpt>
      <trkpt lat="22.835956" lon="110.510341">
        <ele>110.079706</ele>
        <time>2026-08-16T09:31:44.000Z</time>
      </trkpt>
      <trkpt lat="22.835990" lon="110.510388">
        <ele>109.988099</ele>
        <time>2026-08-16T09:31:45.000Z</time>
      </trkpt>
      <trkpt lat="22.836021" lon="110.510437">
        <ele>109.896976</ele>
        <time>2026-08-16T09:31:46.000Z</time>
      </trkpt>
      <trkpt lat="22.836052" lon="110.510488">
        <ele>109.803308</ele>
        <time>2026-08-16T09:31:47.000Z</time>
      </trkpt>
      <trkpt lat="22.836083" lon="110.510537">
        <ele>109.712185</ele>
        <time>2026-08-16T09:31:48.000Z</time>
      </trkpt>
      <trkpt lat="22.836113" lon="110.510587">
        <ele>109.620712</ele>
        <time>2026-08-16T09:31:49.000Z</time>
      </trkpt>
      <trkpt lat="22.836146" lon="110.510636">
        <ele>109.527665</ele>
        <time>2026-08-16T09:31:50.000Z</time>
      </trkpt>
      <trkpt lat="22.836182" lon="110.510684">
        <ele>109.432784</ele>
        <time>2026-08-16T09:31:51.000Z</time>
      </trkpt>
      <trkpt lat="22.836214" lon="110.510732">
        <ele>109.341956</ele>
        <time>2026-08-16T09:31:52.000Z</time>
      </trkpt>
      <trkpt lat="22.836246" lon="110.510779">
        <ele>109.260863</ele>
        <time>2026-08-16T09:31:53.000Z</time>
      </trkpt>
      <trkpt lat="22.836279" lon="110.510826">
        <ele>109.258860</ele>
        <time>2026-08-16T09:31:54.000Z</time>
      </trkpt>
      <trkpt lat="22.836311" lon="110.510872">
        <ele>109.256907</ele>
        <time>2026-08-16T09:31:55.000Z</time>
      </trkpt>
      <trkpt lat="22.836342" lon="110.510920">
        <ele>109.254921</ele>
        <time>2026-08-16T09:31:56.000Z</time>
      </trkpt>
      <trkpt lat="22.836375" lon="110.510967">
        <ele>109.252919</ele>
        <time>2026-08-16T09:31:57.000Z</time>
      </trkpt>
      <trkpt lat="22.836405" lon="110.511014">
        <ele>109.250982</ele>
        <time>2026-08-16T09:31:58.000Z</time>
      </trkpt>
      <trkpt lat="22.836435" lon="110.511062">
        <ele>109.249016</ele>
        <time>2026-08-16T09:31:59.000Z</time>
      </trkpt>
      <trkpt lat="22.836466" lon="110.511111">
        <ele>109.247002</ele>
        <time>2026-08-16T09:32:00.000Z</time>
      </trkpt>
      <trkpt lat="22.836496" lon="110.511158">
        <ele>109.245065</ele>
        <time>2026-08-16T09:32:01.000Z</time>
      </trkpt>
      <trkpt lat="22.836525" lon="110.511205">
        <ele>109.243148</ele>
        <time>2026-08-16T09:32:02.000Z</time>
      </trkpt>
      <trkpt lat="22.836556" lon="110.511253">
        <ele>109.241162</ele>
        <time>2026-08-16T09:32:03.000Z</time>
      </trkpt>
      <trkpt lat="22.836586" lon="110.511300">
        <ele>109.239225</ele>
        <time>2026-08-16T09:32:04.000Z</time>
      </trkpt>
      <trkpt lat="22.836619" lon="110.511345">
        <ele>109.237276</ele>
        <time>2026-08-16T09:32:05.000Z</time>
      </trkpt>
      <trkpt lat="22.836652" lon="110.511390">
        <ele>109.235327</ele>
        <time>2026-08-16T09:32:06.000Z</time>
      </trkpt>
      <trkpt lat="22.836681" lon="110.511438">
        <ele>109.233382</ele>
        <time>2026-08-16T09:32:07.000Z</time>
      </trkpt>
      <trkpt lat="22.836711" lon="110.511484">
        <ele>109.231472</ele>
        <time>2026-08-16T09:32:08.000Z</time>
      </trkpt>
      <trkpt lat="22.836740" lon="110.511530">
        <ele>109.229584</ele>
        <time>2026-08-16T09:32:09.000Z</time>
      </trkpt>
      <trkpt lat="22.836771" lon="110.511577">
        <ele>109.227625</ele>
        <time>2026-08-16T09:32:10.000Z</time>
      </trkpt>
      <trkpt lat="22.836800" lon="110.511622">
        <ele>109.225765</ele>
        <time>2026-08-16T09:32:11.000Z</time>
      </trkpt>
      <trkpt lat="22.836829" lon="110.511668">
        <ele>109.223876</ele>
        <time>2026-08-16T09:32:12.000Z</time>
      </trkpt>
      <trkpt lat="22.836858" lon="110.511713">
        <ele>109.222015</ele>
        <time>2026-08-16T09:32:13.000Z</time>
      </trkpt>
      <trkpt lat="22.836888" lon="110.511758">
        <ele>109.220133</ele>
        <time>2026-08-16T09:32:14.000Z</time>
      </trkpt>
      <trkpt lat="22.836918" lon="110.511803">
        <ele>109.218251</ele>
        <time>2026-08-16T09:32:15.000Z</time>
      </trkpt>
      <trkpt lat="22.836949" lon="110.511847">
        <ele>109.216374</ele>
        <time>2026-08-16T09:32:16.000Z</time>
      </trkpt>
      <trkpt lat="22.836977" lon="110.511893">
        <ele>109.214506</ele>
        <time>2026-08-16T09:32:17.000Z</time>
      </trkpt>
      <trkpt lat="22.837005" lon="110.511938">
        <ele>109.212666</ele>
        <time>2026-08-16T09:32:18.000Z</time>
      </trkpt>
      <trkpt lat="22.837035" lon="110.511983">
        <ele>109.210784</ele>
        <time>2026-08-16T09:32:19.000Z</time>
      </trkpt>
      <trkpt lat="22.837065" lon="110.512028">
        <ele>109.208902</ele>
        <time>2026-08-16T09:32:20.000Z</time>
      </trkpt>
      <trkpt lat="22.837096" lon="110.512073">
        <ele>109.206998</ele>
        <time>2026-08-16T09:32:21.000Z</time>
      </trkpt>
      <trkpt lat="22.837126" lon="110.512118">
        <ele>109.205116</ele>
        <time>2026-08-16T09:32:22.000Z</time>
      </trkpt>
      <trkpt lat="22.837156" lon="110.512164">
        <ele>109.203207</ele>
        <time>2026-08-16T09:32:23.000Z</time>
      </trkpt>
      <trkpt lat="22.837185" lon="110.512208">
        <ele>109.201374</ele>
        <time>2026-08-16T09:32:24.000Z</time>
      </trkpt>
      <trkpt lat="22.837214" lon="110.512249">
        <ele>109.199622</ele>
        <time>2026-08-16T09:32:25.000Z</time>
      </trkpt>
      <trkpt lat="22.837244" lon="110.512292">
        <ele>109.197795</ele>
        <time>2026-08-16T09:32:26.000Z</time>
      </trkpt>
      <trkpt lat="22.837275" lon="110.512336">
        <ele>109.195918</ele>
        <time>2026-08-16T09:32:27.000Z</time>
      </trkpt>
      <trkpt lat="22.837305" lon="110.512379">
        <ele>109.214210</ele>
        <time>2026-08-16T09:32:28.000Z</time>
      </trkpt>
      <trkpt lat="22.837333" lon="110.512423">
        <ele>109.256329</ele>
        <time>2026-08-16T09:32:29.000Z</time>
      </trkpt>
      <trkpt lat="22.837359" lon="110.512468">
        <ele>109.298165</ele>
        <time>2026-08-16T09:32:30.000Z</time>
      </trkpt>
      <trkpt lat="22.837382" lon="110.512511">
        <ele>109.337328</ele>
        <time>2026-08-16T09:32:31.000Z</time>
      </trkpt>
      <trkpt lat="22.837405" lon="110.512556">
        <ele>109.377861</ele>
        <time>2026-08-16T09:32:32.000Z</time>
      </trkpt>
      <trkpt lat="22.837429" lon="110.512599">
        <ele>109.417459</ele>
        <time>2026-08-16T09:32:33.000Z</time>
      </trkpt>
      <trkpt lat="22.837454" lon="110.512637">
        <ele>109.454236</ele>
        <time>2026-08-16T09:32:34.000Z</time>
      </trkpt>
      <trkpt lat="22.837476" lon="110.512676">
        <ele>109.490254</ele>
        <time>2026-08-16T09:32:35.000Z</time>
      </trkpt>
      <trkpt lat="22.837499" lon="110.512719">
        <ele>109.529417</ele>
        <time>2026-08-16T09:32:36.000Z</time>
      </trkpt>
      <trkpt lat="22.837527" lon="110.512760">
        <ele>109.569613</ele>
        <time>2026-08-16T09:32:37.000Z</time>
      </trkpt>
      <trkpt lat="22.837552" lon="110.512801">
        <ele>109.608338</ele>
        <time>2026-08-16T09:32:38.000Z</time>
      </trkpt>
      <trkpt lat="22.837576" lon="110.512842">
        <ele>109.646597</ele>
        <time>2026-08-16T09:32:39.000Z</time>
      </trkpt>
      <trkpt lat="22.837599" lon="110.512884">
        <ele>109.685080</ele>
        <time>2026-08-16T09:32:40.000Z</time>
      </trkpt>
      <trkpt lat="22.837627" lon="110.512926">
        <ele>109.725912</ele>
        <time>2026-08-16T09:32:41.000Z</time>
      </trkpt>
      <trkpt lat="22.837651" lon="110.512965">
        <ele>109.762852</ele>
        <time>2026-08-16T09:32:42.000Z</time>
      </trkpt>
      <trkpt lat="22.837670" lon="110.513003">
        <ele>109.796906</ele>
        <time>2026-08-16T09:32:43.000Z</time>
      </trkpt>
      <trkpt lat="22.837687" lon="110.513044">
        <ele>109.832320</ele>
        <time>2026-08-16T09:32:44.000Z</time>
      </trkpt>
      <trkpt lat="22.837704" lon="110.513084">
        <ele>109.867016</ele>
        <time>2026-08-16T09:32:45.000Z</time>
      </trkpt>
      <trkpt lat="22.837724" lon="110.513124">
        <ele>109.902863</ele>
        <time>2026-08-16T09:32:46.000Z</time>
      </trkpt>
      <trkpt lat="22.837745" lon="110.513163">
        <ele>109.938442</ele>
        <time>2026-08-16T09:32:47.000Z</time>
      </trkpt>
      <trkpt lat="22.837765" lon="110.513203">
        <ele>109.974289</ele>
        <time>2026-08-16T09:32:48.000Z</time>
      </trkpt>
      <trkpt lat="22.837783" lon="110.513243">
        <ele>110.009352</ele>
        <time>2026-08-16T09:32:49.000Z</time>
      </trkpt>
      <trkpt lat="22.837801" lon="110.513281">
        <ele>110.043007</ele>
        <time>2026-08-16T09:32:50.000Z</time>
      </trkpt>
      <trkpt lat="22.837817" lon="110.513320">
        <ele>110.076634</ele>
        <time>2026-08-16T09:32:51.000Z</time>
      </trkpt>
      <trkpt lat="22.837833" lon="110.513360">
        <ele>110.110981</ele>
        <time>2026-08-16T09:32:52.000Z</time>
      </trkpt>
      <trkpt lat="22.837850" lon="110.513400">
        <ele>110.145678</ele>
        <time>2026-08-16T09:32:53.000Z</time>
      </trkpt>
      <trkpt lat="22.837867" lon="110.513437">
        <ele>110.178244</ele>
        <time>2026-08-16T09:32:54.000Z</time>
      </trkpt>
      <trkpt lat="22.837883" lon="110.513477">
        <ele>110.212592</ele>
        <time>2026-08-16T09:32:55.000Z</time>
      </trkpt>
      <trkpt lat="22.837896" lon="110.513519">
        <ele>110.247491</ele>
        <time>2026-08-16T09:32:56.000Z</time>
      </trkpt>
      <trkpt lat="22.837909" lon="110.513559">
        <ele>110.280901</ele>
        <time>2026-08-16T09:32:57.000Z</time>
      </trkpt>
      <trkpt lat="22.837920" lon="110.513599">
        <ele>110.313782</ele>
        <time>2026-08-16T09:32:58.000Z</time>
      </trkpt>
      <trkpt lat="22.837931" lon="110.513640">
        <ele>110.347418</ele>
        <time>2026-08-16T09:32:59.000Z</time>
      </trkpt>
      <trkpt lat="22.837940" lon="110.513682">
        <ele>110.381384</ele>
        <time>2026-08-16T09:33:00.000Z</time>
      </trkpt>
      <trkpt lat="22.837951" lon="110.513727">
        <ele>110.418056</ele>
        <time>2026-08-16T09:33:01.000Z</time>
      </trkpt>
      <trkpt lat="22.837963" lon="110.513771">
        <ele>110.454201</ele>
        <time>2026-08-16T09:33:02.000Z</time>
      </trkpt>
      <trkpt lat="22.837976" lon="110.513817">
        <ele>110.492100</ele>
        <time>2026-08-16T09:33:03.000Z</time>
      </trkpt>
      <trkpt lat="22.837992" lon="110.513860">
        <ele>110.528628</ele>
        <time>2026-08-16T09:33:04.000Z</time>
      </trkpt>
      <trkpt lat="22.838008" lon="110.513907">
        <ele>110.568095</ele>
        <time>2026-08-16T09:33:05.000Z</time>
      </trkpt>
      <trkpt lat="22.838027" lon="110.513955">
        <ele>110.609244</ele>
        <time>2026-08-16T09:33:06.000Z</time>
      </trkpt>
      <trkpt lat="22.838047" lon="110.514004">
        <ele>110.651457</ele>
        <time>2026-08-16T09:33:07.000Z</time>
      </trkpt>
      <trkpt lat="22.838070" lon="110.514053">
        <ele>110.694772</ele>
        <time>2026-08-16T09:33:08.000Z</time>
      </trkpt>
      <trkpt lat="22.838090" lon="110.514106">
        <ele>110.723444</ele>
        <time>2026-08-16T09:33:09.000Z</time>
      </trkpt>
      <trkpt lat="22.838111" lon="110.514162">
        <ele>110.668835</ele>
        <time>2026-08-16T09:33:10.000Z</time>
      </trkpt>
      <trkpt lat="22.838130" lon="110.514219">
        <ele>110.614086</ele>
        <time>2026-08-16T09:33:11.000Z</time>
      </trkpt>
      <trkpt lat="22.838149" lon="110.514279">
        <ele>110.556782</ele>
        <time>2026-08-16T09:33:12.000Z</time>
      </trkpt>
      <trkpt lat="22.838168" lon="110.514340">
        <ele>110.498622</ele>
        <time>2026-08-16T09:33:13.000Z</time>
      </trkpt>
      <trkpt lat="22.838185" lon="110.514400">
        <ele>110.441925</ele>
        <time>2026-08-16T09:33:14.000Z</time>
      </trkpt>
      <trkpt lat="22.838198" lon="110.514463">
        <ele>110.383612</ele>
        <time>2026-08-16T09:33:15.000Z</time>
      </trkpt>
      <trkpt lat="22.838212" lon="110.514526">
        <ele>110.325077</ele>
        <time>2026-08-16T09:33:16.000Z</time>
      </trkpt>
      <trkpt lat="22.838227" lon="110.514588">
        <ele>110.267178</ele>
        <time>2026-08-16T09:33:17.000Z</time>
      </trkpt>
      <trkpt lat="22.838245" lon="110.514650">
        <ele>110.208464</ele>
        <time>2026-08-16T09:33:18.000Z</time>
      </trkpt>
      <trkpt lat="22.838266" lon="110.514713">
        <ele>110.147952</ele>
        <time>2026-08-16T09:33:19.000Z</time>
      </trkpt>
      <trkpt lat="22.838288" lon="110.514772">
        <ele>110.090464</ele>
        <time>2026-08-16T09:33:20.000Z</time>
      </trkpt>
      <trkpt lat="22.838307" lon="110.514829">
        <ele>110.035716</ele>
        <time>2026-08-16T09:33:21.000Z</time>
      </trkpt>
      <trkpt lat="22.838329" lon="110.514888">
        <ele>109.978228</ele>
        <time>2026-08-16T09:33:22.000Z</time>
      </trkpt>
      <trkpt lat="22.838348" lon="110.514947">
        <ele>109.921777</ele>
        <time>2026-08-16T09:33:23.000Z</time>
      </trkpt>
      <trkpt lat="22.838365" lon="110.515006">
        <ele>109.865942</ele>
        <time>2026-08-16T09:33:24.000Z</time>
      </trkpt>
      <trkpt lat="22.838382" lon="110.515065">
        <ele>109.810107</ele>
        <time>2026-08-16T09:33:25.000Z</time>
      </trkpt>
      <trkpt lat="22.838398" lon="110.515125">
        <ele>109.753689</ele>
        <time>2026-08-16T09:33:26.000Z</time>
      </trkpt>
      <trkpt lat="22.838412" lon="110.515183">
        <ele>109.699534</ele>
        <time>2026-08-16T09:33:27.000Z</time>
      </trkpt>
      <trkpt lat="22.838428" lon="110.515241">
        <ele>109.644850</ele>
        <time>2026-08-16T09:33:28.000Z</time>
      </trkpt>
      <trkpt lat="22.838447" lon="110.515299">
        <ele>109.589251</ele>
        <time>2026-08-16T09:33:29.000Z</time>
      </trkpt>
      <trkpt lat="22.838466" lon="110.515356">
        <ele>109.534502</ele>
        <time>2026-08-16T09:33:30.000Z</time>
      </trkpt>
      <trkpt lat="22.838485" lon="110.515413">
        <ele>109.479754</ele>
        <time>2026-08-16T09:33:31.000Z</time>
      </trkpt>
      <trkpt lat="22.838504" lon="110.515467">
        <ele>109.427545</ele>
        <time>2026-08-16T09:33:32.000Z</time>
      </trkpt>
      <trkpt lat="22.838523" lon="110.515523">
        <ele>109.373645</ele>
        <time>2026-08-16T09:33:33.000Z</time>
      </trkpt>
      <trkpt lat="22.838540" lon="110.515580">
        <ele>109.319531</ele>
        <time>2026-08-16T09:33:34.000Z</time>
      </trkpt>
      <trkpt lat="22.838556" lon="110.515637">
        <ele>109.265711</ele>
        <time>2026-08-16T09:33:35.000Z</time>
      </trkpt>
      <trkpt lat="22.838573" lon="110.515693">
        <ele>109.212457</ele>
        <time>2026-08-16T09:33:36.000Z</time>
      </trkpt>
      <trkpt lat="22.838591" lon="110.515751">
        <ele>109.157178</ele>
        <time>2026-08-16T09:33:37.000Z</time>
      </trkpt>
      <trkpt lat="22.838609" lon="110.515810">
        <ele>109.101043</ele>
        <time>2026-08-16T09:33:38.000Z</time>
      </trkpt>
      <trkpt lat="22.838628" lon="110.515870">
        <ele>109.043739</ele>
        <time>2026-08-16T09:33:39.000Z</time>
      </trkpt>
      <trkpt lat="22.838645" lon="110.515929">
        <ele>108.987904</ele>
        <time>2026-08-16T09:33:40.000Z</time>
      </trkpt>
      <trkpt lat="22.838666" lon="110.515988">
        <ele>108.962722</ele>
        <time>2026-08-16T09:33:41.000Z</time>
      </trkpt>
      <trkpt lat="22.838687" lon="110.516045">
        <ele>108.953110</ele>
        <time>2026-08-16T09:33:42.000Z</time>
      </trkpt>
      <trkpt lat="22.838705" lon="110.516104">
        <ele>108.943378</ele>
        <time>2026-08-16T09:33:43.000Z</time>
      </trkpt>
      <trkpt lat="22.838722" lon="110.516165">
        <ele>108.933399</ele>
        <time>2026-08-16T09:33:44.000Z</time>
      </trkpt>
      <trkpt lat="22.838740" lon="110.516227">
        <ele>108.923221</ele>
        <time>2026-08-16T09:33:45.000Z</time>
      </trkpt>
      <trkpt lat="22.838758" lon="110.516288">
        <ele>108.913191</ele>
        <time>2026-08-16T09:33:46.000Z</time>
      </trkpt>
      <trkpt lat="22.838772" lon="110.516350">
        <ele>108.903196</ele>
        <time>2026-08-16T09:33:47.000Z</time>
      </trkpt>
      <trkpt lat="22.838789" lon="110.516410">
        <ele>108.893367</ele>
        <time>2026-08-16T09:33:48.000Z</time>
      </trkpt>
      <trkpt lat="22.838808" lon="110.516469">
        <ele>108.883580</ele>
        <time>2026-08-16T09:33:49.000Z</time>
      </trkpt>
      <trkpt lat="22.838824" lon="110.516532">
        <ele>108.873348</ele>
        <time>2026-08-16T09:33:50.000Z</time>
      </trkpt>
      <trkpt lat="22.838839" lon="110.516593">
        <ele>108.863462</ele>
        <time>2026-08-16T09:33:51.000Z</time>
      </trkpt>
      <trkpt lat="22.838858" lon="110.516651">
        <ele>108.853823</ele>
        <time>2026-08-16T09:33:52.000Z</time>
      </trkpt>
      <trkpt lat="22.838874" lon="110.516711">
        <ele>108.844043</ele>
        <time>2026-08-16T09:33:53.000Z</time>
      </trkpt>
      <trkpt lat="22.838890" lon="110.516772">
        <ele>108.834112</ele>
        <time>2026-08-16T09:33:54.000Z</time>
      </trkpt>
      <trkpt lat="22.838906" lon="110.516833">
        <ele>108.824181</ele>
        <time>2026-08-16T09:33:55.000Z</time>
      </trkpt>
      <trkpt lat="22.838921" lon="110.516894">
        <ele>108.814295</ele>
        <time>2026-08-16T09:33:56.000Z</time>
      </trkpt>
      <trkpt lat="22.838936" lon="110.516954">
        <ele>108.804560</ele>
        <time>2026-08-16T09:33:57.000Z</time>
      </trkpt>
      <trkpt lat="22.838953" lon="110.517014">
        <ele>108.794731</ele>
        <time>2026-08-16T09:33:58.000Z</time>
      </trkpt>
      <trkpt lat="22.838968" lon="110.517074">
        <ele>108.784996</ele>
        <time>2026-08-16T09:33:59.000Z</time>
      </trkpt>
      <trkpt lat="22.838981" lon="110.517131">
        <ele>108.775802</ele>
        <time>2026-08-16T09:34:00.000Z</time>
      </trkpt>
      <trkpt lat="22.838997" lon="110.517186">
        <ele>108.766771</ele>
        <time>2026-08-16T09:34:01.000Z</time>
      </trkpt>
      <trkpt lat="22.839018" lon="110.517242">
        <ele>108.757304</ele>
        <time>2026-08-16T09:34:02.000Z</time>
      </trkpt>
      <trkpt lat="22.839037" lon="110.517295">
        <ele>108.748399</ele>
        <time>2026-08-16T09:34:03.000Z</time>
      </trkpt>
      <trkpt lat="22.839057" lon="110.517349">
        <ele>108.739286</ele>
        <time>2026-08-16T09:34:04.000Z</time>
      </trkpt>
      <trkpt lat="22.839075" lon="110.517404">
        <ele>108.730147</ele>
        <time>2026-08-16T09:34:05.000Z</time>
      </trkpt>
      <trkpt lat="22.839093" lon="110.517460">
        <ele>108.720860</ele>
        <time>2026-08-16T09:34:06.000Z</time>
      </trkpt>
      <trkpt lat="22.839108" lon="110.517516">
        <ele>108.711728</ele>
        <time>2026-08-16T09:34:07.000Z</time>
      </trkpt>
      <trkpt lat="22.839125" lon="110.517572">
        <ele>108.702496</ele>
        <time>2026-08-16T09:34:08.000Z</time>
      </trkpt>
      <trkpt lat="22.839139" lon="110.517629">
        <ele>108.693259</ele>
        <time>2026-08-16T09:34:09.000Z</time>
      </trkpt>
      <trkpt lat="22.839151" lon="110.517684">
        <ele>108.684409</ele>
        <time>2026-08-16T09:34:10.000Z</time>
      </trkpt>
      <trkpt lat="22.839167" lon="110.517739">
        <ele>108.675378</ele>
        <time>2026-08-16T09:34:11.000Z</time>
      </trkpt>
      <trkpt lat="22.839186" lon="110.517793">
        <ele>108.666327</ele>
        <time>2026-08-16T09:34:12.000Z</time>
      </trkpt>
      <trkpt lat="22.839203" lon="110.517847">
        <ele>108.686954</ele>
        <time>2026-08-16T09:34:13.000Z</time>
      </trkpt>
      <trkpt lat="22.839221" lon="110.517902">
        <ele>108.719838</ele>
        <time>2026-08-16T09:34:14.000Z</time>
      </trkpt>
      <trkpt lat="22.839239" lon="110.517956">
        <ele>108.752193</ele>
        <time>2026-08-16T09:34:15.000Z</time>
      </trkpt>
      <trkpt lat="22.839256" lon="110.518011">
        <ele>108.784878</ele>
        <time>2026-08-16T09:34:16.000Z</time>
      </trkpt>
      <trkpt lat="22.839273" lon="110.518065">
        <ele>108.817029</ele>
        <time>2026-08-16T09:34:17.000Z</time>
      </trkpt>
      <trkpt lat="22.839287" lon="110.518121">
        <ele>108.849721</ele>
        <time>2026-08-16T09:34:18.000Z</time>
      </trkpt>
      <trkpt lat="22.839298" lon="110.518178">
        <ele>108.882533</ele>
        <time>2026-08-16T09:34:19.000Z</time>
      </trkpt>
      <trkpt lat="22.839314" lon="110.518236">
        <ele>108.916645</ele>
        <time>2026-08-16T09:34:20.000Z</time>
      </trkpt>
      <trkpt lat="22.839330" lon="110.518291">
        <ele>108.949141</ele>
        <time>2026-08-16T09:34:21.000Z</time>
      </trkpt>
      <trkpt lat="22.839348" lon="110.518346">
        <ele>108.982025</ele>
        <time>2026-08-16T09:34:22.000Z</time>
      </trkpt>
      <trkpt lat="22.839367" lon="110.518401">
        <ele>109.015119</ele>
        <time>2026-08-16T09:34:23.000Z</time>
      </trkpt>
      <trkpt lat="22.839382" lon="110.518459">
        <ele>109.049060</ele>
        <time>2026-08-16T09:34:24.000Z</time>
      </trkpt>
      <trkpt lat="22.839399" lon="110.518512">
        <ele>109.080679</ele>
        <time>2026-08-16T09:34:25.000Z</time>
      </trkpt>
      <trkpt lat="22.839415" lon="110.518567">
        <ele>109.113175</ele>
        <time>2026-08-16T09:34:26.000Z</time>
      </trkpt>
      <trkpt lat="22.839430" lon="110.518620">
        <ele>109.144413</ele>
        <time>2026-08-16T09:34:27.000Z</time>
      </trkpt>
      <trkpt lat="22.839445" lon="110.518674">
        <ele>109.176190</ele>
        <time>2026-08-16T09:34:28.000Z</time>
      </trkpt>
      <trkpt lat="22.839457" lon="110.518727">
        <ele>109.206940</ele>
        <time>2026-08-16T09:34:29.000Z</time>
      </trkpt>
      <trkpt lat="22.839469" lon="110.518781">
        <ele>109.238237</ele>
        <time>2026-08-16T09:34:30.000Z</time>
      </trkpt>
      <trkpt lat="22.839486" lon="110.518832">
        <ele>109.268794</ele>
        <time>2026-08-16T09:34:31.000Z</time>
      </trkpt>
      <trkpt lat="22.839501" lon="110.518884">
        <ele>109.299493</ele>
        <time>2026-08-16T09:34:32.000Z</time>
      </trkpt>
      <trkpt lat="22.839519" lon="110.518936">
        <ele>109.330790</ele>
        <time>2026-08-16T09:34:33.000Z</time>
      </trkpt>
      <trkpt lat="22.839539" lon="110.518986">
        <ele>109.361501</ele>
        <time>2026-08-16T09:34:34.000Z</time>
      </trkpt>
      <trkpt lat="22.839564" lon="110.519034">
        <ele>109.392565</ele>
        <time>2026-08-16T09:34:35.000Z</time>
      </trkpt>
      <trkpt lat="22.839583" lon="110.519084">
        <ele>109.423038</ele>
        <time>2026-08-16T09:34:36.000Z</time>
      </trkpt>
      <trkpt lat="22.839599" lon="110.519131">
        <ele>109.451268</ele>
        <time>2026-08-16T09:34:37.000Z</time>
      </trkpt>
      <trkpt lat="22.839617" lon="110.519179">
        <ele>109.480465</ele>
        <time>2026-08-16T09:34:38.000Z</time>
      </trkpt>
      <trkpt lat="22.839634" lon="110.519222">
        <ele>109.506828</ele>
        <time>2026-08-16T09:34:39.000Z</time>
      </trkpt>
      <trkpt lat="22.839657" lon="110.519264">
        <ele>109.534354</ele>
        <time>2026-08-16T09:34:40.000Z</time>
      </trkpt>
      <trkpt lat="22.839679" lon="110.519311">
        <ele>109.564055</ele>
        <time>2026-08-16T09:34:41.000Z</time>
      </trkpt>
      <trkpt lat="22.839698" lon="110.519362">
        <ele>109.595049</ele>
        <time>2026-08-16T09:34:42.000Z</time>
      </trkpt>
      <trkpt lat="22.839719" lon="110.519415">
        <ele>109.627554</ele>
        <time>2026-08-16T09:34:43.000Z</time>
      </trkpt>
      <trkpt lat="22.839737" lon="110.519465">
        <ele>109.657798</ele>
        <time>2026-08-16T09:34:44.000Z</time>
      </trkpt>
      <trkpt lat="22.839753" lon="110.519516">
        <ele>109.688152</ele>
        <time>2026-08-16T09:34:45.000Z</time>
      </trkpt>
      <trkpt lat="22.839770" lon="110.519569">
        <ele>109.719771</ele>
        <time>2026-08-16T09:34:46.000Z</time>
      </trkpt>
      <trkpt lat="22.839782" lon="110.519619">
        <ele>109.748882</ele>
        <time>2026-08-16T09:34:47.000Z</time>
      </trkpt>
      <trkpt lat="22.839796" lon="110.519670">
        <ele>109.758266</ele>
        <time>2026-08-16T09:34:48.000Z</time>
      </trkpt>
      <trkpt lat="22.839812" lon="110.519721">
        <ele>109.748079</ele>
        <time>2026-08-16T09:34:49.000Z</time>
      </trkpt>
      <trkpt lat="22.839829" lon="110.519770">
        <ele>109.738179</ele>
        <time>2026-08-16T09:34:50.000Z</time>
      </trkpt>
      <trkpt lat="22.839845" lon="110.519817">
        <ele>109.728705</ele>
        <time>2026-08-16T09:34:51.000Z</time>
      </trkpt>
      <trkpt lat="22.839862" lon="110.519863">
        <ele>109.719334</ele>
        <time>2026-08-16T09:34:52.000Z</time>
      </trkpt>
      <trkpt lat="22.839880" lon="110.519908">
        <ele>109.710058</ele>
        <time>2026-08-16T09:34:53.000Z</time>
      </trkpt>
      <trkpt lat="22.839893" lon="110.519956">
        <ele>109.700598</ele>
        <time>2026-08-16T09:34:54.000Z</time>
      </trkpt>
      <trkpt lat="22.839906" lon="110.520003">
        <ele>109.691319</ele>
        <time>2026-08-16T09:34:55.000Z</time>
      </trkpt>
      <trkpt lat="22.839920" lon="110.520050">
        <ele>109.681979</ele>
        <time>2026-08-16T09:34:56.000Z</time>
      </trkpt>
      <trkpt lat="22.839933" lon="110.520098">
        <ele>109.672519</ele>
        <time>2026-08-16T09:34:57.000Z</time>
      </trkpt>
      <trkpt lat="22.839947" lon="110.520147">
        <ele>109.662818</ele>
        <time>2026-08-16T09:34:58.000Z</time>
      </trkpt>
      <trkpt lat="22.839960" lon="110.520196">
        <ele>109.653177</ele>
        <time>2026-08-16T09:34:59.000Z</time>
      </trkpt>
      <trkpt lat="22.839975" lon="110.520245">
        <ele>109.643414</ele>
        <time>2026-08-16T09:35:00.000Z</time>
      </trkpt>
      <trkpt lat="22.839993" lon="110.520292">
        <ele>109.633789</ele>
        <time>2026-08-16T09:35:01.000Z</time>
      </trkpt>
      <trkpt lat="22.840008" lon="110.520340">
        <ele>109.624206</ele>
        <time>2026-08-16T09:35:02.000Z</time>
      </trkpt>
      <trkpt lat="22.840021" lon="110.520392">
        <ele>109.614018</ele>
        <time>2026-08-16T09:35:03.000Z</time>
      </trkpt>
      <trkpt lat="22.840036" lon="110.520442">
        <ele>109.604075</ele>
        <time>2026-08-16T09:35:04.000Z</time>
      </trkpt>
      <trkpt lat="22.840051" lon="110.520493">
        <ele>109.593952</ele>
        <time>2026-08-16T09:35:05.000Z</time>
      </trkpt>
      <trkpt lat="22.840064" lon="110.520547">
        <ele>109.583399</ele>
        <time>2026-08-16T09:35:06.000Z</time>
      </trkpt>
      <trkpt lat="22.840079" lon="110.520599">
        <ele>109.573096</ele>
        <time>2026-08-16T09:35:07.000Z</time>
      </trkpt>
      <trkpt lat="22.840094" lon="110.520653">
        <ele>109.562431</ele>
        <time>2026-08-16T09:35:08.000Z</time>
      </trkpt>
      <trkpt lat="22.840111" lon="110.520705">
        <ele>109.551998</ele>
        <time>2026-08-16T09:35:09.000Z</time>
      </trkpt>
      <trkpt lat="22.840127" lon="110.520758">
        <ele>109.541452</ele>
        <time>2026-08-16T09:35:10.000Z</time>
      </trkpt>
      <trkpt lat="22.840144" lon="110.520810">
        <ele>109.531019</ele>
        <time>2026-08-16T09:35:11.000Z</time>
      </trkpt>
      <trkpt lat="22.840159" lon="110.520863">
        <ele>109.520536</ele>
        <time>2026-08-16T09:35:12.000Z</time>
      </trkpt>
      <trkpt lat="22.840170" lon="110.520922">
        <ele>109.509154</ele>
        <time>2026-08-16T09:35:13.000Z</time>
      </trkpt>
      <trkpt lat="22.840183" lon="110.520981">
        <ele>109.497683</ele>
        <time>2026-08-16T09:35:14.000Z</time>
      </trkpt>
      <trkpt lat="22.840198" lon="110.521037">
        <ele>109.486656</ele>
        <time>2026-08-16T09:35:15.000Z</time>
      </trkpt>
      <trkpt lat="22.840214" lon="110.521092">
        <ele>109.475750</ele>
        <time>2026-08-16T09:35:16.000Z</time>
      </trkpt>
      <trkpt lat="22.840232" lon="110.521149">
        <ele>109.464357</ele>
        <time>2026-08-16T09:35:17.000Z</time>
      </trkpt>
      <trkpt lat="22.840249" lon="110.521205">
        <ele>109.453208</ele>
        <time>2026-08-16T09:35:18.000Z</time>
      </trkpt>
      <trkpt lat="22.840267" lon="110.521258">
        <ele>109.442528</ele>
        <time>2026-08-16T09:35:19.000Z</time>
      </trkpt>
      <trkpt lat="22.840284" lon="110.521315">
        <ele>109.431199</ele>
        <time>2026-08-16T09:35:20.000Z</time>
      </trkpt>
      <trkpt lat="22.840303" lon="110.521373">
        <ele>109.419560</ele>
        <time>2026-08-16T09:35:21.000Z</time>
      </trkpt>
      <trkpt lat="22.840321" lon="110.521429">
        <ele>109.408345</ele>
        <time>2026-08-16T09:35:22.000Z</time>
      </trkpt>
      <trkpt lat="22.840336" lon="110.521486">
        <ele>109.397136</ele>
        <time>2026-08-16T09:35:23.000Z</time>
      </trkpt>
      <trkpt lat="22.840351" lon="110.521543">
        <ele>109.360408</ele>
        <time>2026-08-16T09:35:24.000Z</time>
      </trkpt>
      <trkpt lat="22.840370" lon="110.521603">
        <ele>109.312290</ele>
        <time>2026-08-16T09:35:25.000Z</time>
      </trkpt>
      <trkpt lat="22.840385" lon="110.521656">
        <ele>109.270239</ele>
        <time>2026-08-16T09:35:26.000Z</time>
      </trkpt>
      <trkpt lat="22.840404" lon="110.521709">
        <ele>109.227107</ele>
        <time>2026-08-16T09:35:27.000Z</time>
      </trkpt>
      <trkpt lat="22.840425" lon="110.521764">
        <ele>109.181953</ele>
        <time>2026-08-16T09:35:28.000Z</time>
      </trkpt>
      <trkpt lat="22.840444" lon="110.521819">
        <ele>109.137404</ele>
        <time>2026-08-16T09:35:29.000Z</time>
      </trkpt>
      <trkpt lat="22.840462" lon="110.521875">
        <ele>109.092422</ele>
        <time>2026-08-16T09:35:30.000Z</time>
      </trkpt>
      <trkpt lat="22.840480" lon="110.521935">
        <ele>109.044564</ele>
        <time>2026-08-16T09:35:31.000Z</time>
      </trkpt>
      <trkpt lat="22.840496" lon="110.521993">
        <ele>108.998645</ele>
        <time>2026-08-16T09:35:32.000Z</time>
      </trkpt>
      <trkpt lat="22.840513" lon="110.522048">
        <ele>108.954647</ele>
        <time>2026-08-16T09:35:33.000Z</time>
      </trkpt>
      <trkpt lat="22.840533" lon="110.522104">
        <ele>108.909096</ele>
        <time>2026-08-16T09:35:34.000Z</time>
      </trkpt>
      <trkpt lat="22.840550" lon="110.522160">
        <ele>108.864378</ele>
        <time>2026-08-16T09:35:35.000Z</time>
      </trkpt>
      <trkpt lat="22.840565" lon="110.522215">
        <ele>108.820875</ele>
        <time>2026-08-16T09:35:36.000Z</time>
      </trkpt>
      <trkpt lat="22.840582" lon="110.522272">
        <ele>108.775435</ele>
        <time>2026-08-16T09:35:37.000Z</time>
      </trkpt>
      <trkpt lat="22.840599" lon="110.522331">
        <ele>108.728551</ele>
        <time>2026-08-16T09:35:38.000Z</time>
      </trkpt>
      <trkpt lat="22.840621" lon="110.522388">
        <ele>108.681681</ele>
        <time>2026-08-16T09:35:39.000Z</time>
      </trkpt>
      <trkpt lat="22.840643" lon="110.522449">
        <ele>108.631999</ele>
        <time>2026-08-16T09:35:40.000Z</time>
      </trkpt>
      <trkpt lat="22.840663" lon="110.522508">
        <ele>108.584319</ele>
        <time>2026-08-16T09:35:41.000Z</time>
      </trkpt>
      <trkpt lat="22.840682" lon="110.522569">
        <ele>108.535483</ele>
        <time>2026-08-16T09:35:42.000Z</time>
      </trkpt>
      <trkpt lat="22.840702" lon="110.522630">
        <ele>108.486376</ele>
        <time>2026-08-16T09:35:43.000Z</time>
      </trkpt>
      <trkpt lat="22.840715" lon="110.522688">
        <ele>108.441104</ele>
        <time>2026-08-16T09:35:44.000Z</time>
      </trkpt>
      <trkpt lat="22.840736" lon="110.522747">
        <ele>108.393134</ele>
        <time>2026-08-16T09:35:45.000Z</time>
      </trkpt>
      <trkpt lat="22.840752" lon="110.522808">
        <ele>108.345031</ele>
        <time>2026-08-16T09:35:46.000Z</time>
      </trkpt>
      <trkpt lat="22.840768" lon="110.522868">
        <ele>108.297657</ele>
        <time>2026-08-16T09:35:47.000Z</time>
      </trkpt>
      <trkpt lat="22.840786" lon="110.522928">
        <ele>108.249800</ele>
        <time>2026-08-16T09:35:48.000Z</time>
      </trkpt>
      <trkpt lat="22.840793" lon="110.522997">
        <ele>108.197151</ele>
        <time>2026-08-16T09:35:49.000Z</time>
      </trkpt>
      <trkpt lat="22.840803" lon="110.523064">
        <ele>108.145672</ele>
        <time>2026-08-16T09:35:50.000Z</time>
      </trkpt>
      <trkpt lat="22.840823" lon="110.523120">
        <ele>108.100122</ele>
        <time>2026-08-16T09:35:51.000Z</time>
      </trkpt>
      <trkpt lat="22.840842" lon="110.523176">
        <ele>108.054861</ele>
        <time>2026-08-16T09:35:52.000Z</time>
      </trkpt>
      <trkpt lat="22.840862" lon="110.523230">
        <ele>108.010721</ele>
        <time>2026-08-16T09:35:53.000Z</time>
      </trkpt>
      <trkpt lat="22.840879" lon="110.523288">
        <ele>107.964560</ele>
        <time>2026-08-16T09:35:54.000Z</time>
      </trkpt>
      <trkpt lat="22.840893" lon="110.523348">
        <ele>107.917617</ele>
        <time>2026-08-16T09:35:55.000Z</time>
      </trkpt>
      <trkpt lat="22.840930" lon="110.523402">
        <ele>107.892106</ele>
        <time>2026-08-16T09:35:56.000Z</time>
      </trkpt>
      <trkpt lat="22.840950" lon="110.523459">
        <ele>107.870668</ele>
        <time>2026-08-16T09:35:57.000Z</time>
      </trkpt>
      <trkpt lat="22.840968" lon="110.523520">
        <ele>107.848154</ele>
        <time>2026-08-16T09:35:58.000Z</time>
      </trkpt>
      <trkpt lat="22.840983" lon="110.523578">
        <ele>107.826980</ele>
        <time>2026-08-16T09:35:59.000Z</time>
      </trkpt>
      <trkpt lat="22.841000" lon="110.523638">
        <ele>107.804916</ele>
        <time>2026-08-16T09:36:00.000Z</time>
      </trkpt>
      <trkpt lat="22.841027" lon="110.523694">
        <ele>107.782702</ele>
        <time>2026-08-16T09:36:01.000Z</time>
      </trkpt>
      <trkpt lat="22.841046" lon="110.523742">
        <ele>107.764340</ele>
        <time>2026-08-16T09:36:02.000Z</time>
      </trkpt>
      <trkpt lat="22.841056" lon="110.523789">
        <ele>107.747385</ele>
        <time>2026-08-16T09:36:03.000Z</time>
      </trkpt>
      <trkpt lat="22.841066" lon="110.523840">
        <ele>107.729058</ele>
        <time>2026-08-16T09:36:04.000Z</time>
      </trkpt>
      <trkpt lat="22.841078" lon="110.523895">
        <ele>107.709191</ele>
        <time>2026-08-16T09:36:05.000Z</time>
      </trkpt>
      <trkpt lat="22.841087" lon="110.523952">
        <ele>107.688864</ele>
        <time>2026-08-16T09:36:06.000Z</time>
      </trkpt>
      <trkpt lat="22.841099" lon="110.524010">
        <ele>107.667970</ele>
        <time>2026-08-16T09:36:07.000Z</time>
      </trkpt>
      <trkpt lat="22.841113" lon="110.524067">
        <ele>107.647236</ele>
        <time>2026-08-16T09:36:08.000Z</time>
      </trkpt>
      <trkpt lat="22.841129" lon="110.524115">
        <ele>107.629295</ele>
        <time>2026-08-16T09:36:09.000Z</time>
      </trkpt>
      <trkpt lat="22.841141" lon="110.524158">
        <ele>107.613503</ele>
        <time>2026-08-16T09:36:10.000Z</time>
      </trkpt>
      <trkpt lat="22.841152" lon="110.524201">
        <ele>107.597817</ele>
        <time>2026-08-16T09:36:11.000Z</time>
      </trkpt>
      <trkpt lat="22.841160" lon="110.524251">
        <ele>107.579980</ele>
        <time>2026-08-16T09:36:12.000Z</time>
      </trkpt>
      <trkpt lat="22.841174" lon="110.524315">
        <ele>107.556859</ele>
        <time>2026-08-16T09:36:13.000Z</time>
      </trkpt>
      <trkpt lat="22.841193" lon="110.524373">
        <ele>107.535223</ele>
        <time>2026-08-16T09:36:14.000Z</time>
      </trkpt>
      <trkpt lat="22.841220" lon="110.524432">
        <ele>107.512069</ele>
        <time>2026-08-16T09:36:15.000Z</time>
      </trkpt>
      <trkpt lat="22.841252" lon="110.524491">
        <ele>107.488006</ele>
        <time>2026-08-16T09:36:16.000Z</time>
      </trkpt>
      <trkpt lat="22.841272" lon="110.524548">
        <ele>107.466568</ele>
        <time>2026-08-16T09:36:17.000Z</time>
      </trkpt>
      <trkpt lat="22.841297" lon="110.524605">
        <ele>107.444380</ele>
        <time>2026-08-16T09:36:18.000Z</time>
      </trkpt>
      <trkpt lat="22.841322" lon="110.524663">
        <ele>107.421874</ele>
        <time>2026-08-16T09:36:19.000Z</time>
      </trkpt>
      <trkpt lat="22.841355" lon="110.524720">
        <ele>107.398213</ele>
        <time>2026-08-16T09:36:20.000Z</time>
      </trkpt>
      <trkpt lat="22.841380" lon="110.524777">
        <ele>107.376025</ele>
        <time>2026-08-16T09:36:21.000Z</time>
      </trkpt>
      <trkpt lat="22.841407" lon="110.524833">
        <ele>107.353810</ele>
        <time>2026-08-16T09:36:22.000Z</time>
      </trkpt>
      <trkpt lat="22.841426" lon="110.524892">
        <ele>107.331843</ele>
        <time>2026-08-16T09:36:23.000Z</time>
      </trkpt>
      <trkpt lat="22.841451" lon="110.524947">
        <ele>107.310287</ele>
        <time>2026-08-16T09:36:24.000Z</time>
      </trkpt>
      <trkpt lat="22.841478" lon="110.524998">
        <ele>107.289614</ele>
        <time>2026-08-16T09:36:25.000Z</time>
      </trkpt>
      <trkpt lat="22.841499" lon="110.525048">
        <ele>107.270300</ele>
        <time>2026-08-16T09:36:26.000Z</time>
      </trkpt>
      <trkpt lat="22.841526" lon="110.525105">
        <ele>107.247774</ele>
        <time>2026-08-16T09:36:27.000Z</time>
      </trkpt>
      <trkpt lat="22.841561" lon="110.525159">
        <ele>107.232242</ele>
        <time>2026-08-16T09:36:28.000Z</time>
      </trkpt>
      <trkpt lat="22.841598" lon="110.525217">
        <ele>107.260587</ele>
        <time>2026-08-16T09:36:29.000Z</time>
      </trkpt>
      <trkpt lat="22.841632" lon="110.525265">
        <ele>107.284914</ele>
        <time>2026-08-16T09:36:30.000Z</time>
      </trkpt>
      <trkpt lat="22.841665" lon="110.525318">
        <ele>107.310616</ele>
        <time>2026-08-16T09:36:31.000Z</time>
      </trkpt>
      <trkpt lat="22.841710" lon="110.525368">
        <ele>107.338698</ele>
        <time>2026-08-16T09:36:32.000Z</time>
      </trkpt>
      <trkpt lat="22.841750" lon="110.525423">
        <ele>107.366852</ele>
        <time>2026-08-16T09:36:33.000Z</time>
      </trkpt>
      <trkpt lat="22.841788" lon="110.525479">
        <ele>107.394796</ele>
        <time>2026-08-16T09:36:34.000Z</time>
      </trkpt>
      <trkpt lat="22.841822" lon="110.525532">
        <ele>107.420745</ele>
        <time>2026-08-16T09:36:35.000Z</time>
      </trkpt>
      <trkpt lat="22.841866" lon="110.525586">
        <ele>107.449708</ele>
        <time>2026-08-16T09:36:36.000Z</time>
      </trkpt>
      <trkpt lat="22.841917" lon="110.525638">
        <ele>107.480222</ele>
        <time>2026-08-16T09:36:37.000Z</time>
      </trkpt>
      <trkpt lat="22.841967" lon="110.525689">
        <ele>107.510143</ele>
        <time>2026-08-16T09:36:38.000Z</time>
      </trkpt>
      <trkpt lat="22.842016" lon="110.525739">
        <ele>107.539471</ele>
        <time>2026-08-16T09:36:39.000Z</time>
      </trkpt>
      <trkpt lat="22.842061" lon="110.525788">
        <ele>107.567267</ele>
        <time>2026-08-16T09:36:40.000Z</time>
      </trkpt>
      <trkpt lat="22.842105" lon="110.525836">
        <ele>107.594472</ele>
        <time>2026-08-16T09:36:41.000Z</time>
      </trkpt>
      <trkpt lat="22.842145" lon="110.525885">
        <ele>107.620775</ele>
        <time>2026-08-16T09:36:42.000Z</time>
      </trkpt>
      <trkpt lat="22.842185" lon="110.525930">
        <ele>107.645897</ele>
        <time>2026-08-16T09:36:43.000Z</time>
      </trkpt>
      <trkpt lat="22.842227" lon="110.525977">
        <ele>107.672204</ele>
        <time>2026-08-16T09:36:44.000Z</time>
      </trkpt>
      <trkpt lat="22.842263" lon="110.526019">
        <ele>107.695252</ele>
        <time>2026-08-16T09:36:45.000Z</time>
      </trkpt>
      <trkpt lat="22.842297" lon="110.526062">
        <ele>107.718019</ele>
        <time>2026-08-16T09:36:46.000Z</time>
      </trkpt>
      <trkpt lat="22.842337" lon="110.526107">
        <ele>107.743141</ele>
        <time>2026-08-16T09:36:47.000Z</time>
      </trkpt>
      <trkpt lat="22.842382" lon="110.526150">
        <ele>107.769286</ele>
        <time>2026-08-16T09:36:48.000Z</time>
      </trkpt>
      <trkpt lat="22.842422" lon="110.526194">
        <ele>107.794121</ele>
        <time>2026-08-16T09:36:49.000Z</time>
      </trkpt>
      <trkpt lat="22.842462" lon="110.526237">
        <ele>107.818671</ele>
        <time>2026-08-16T09:36:50.000Z</time>
      </trkpt>
      <trkpt lat="22.842500" lon="110.526278">
        <ele>107.842036</ele>
        <time>2026-08-16T09:36:51.000Z</time>
      </trkpt>
      <trkpt lat="22.842535" lon="110.526321">
        <ele>107.865089</ele>
        <time>2026-08-16T09:36:52.000Z</time>
      </trkpt>
      <trkpt lat="22.842572" lon="110.526360">
        <ele>107.887581</ele>
        <time>2026-08-16T09:36:53.000Z</time>
      </trkpt>
      <trkpt lat="22.842609" lon="110.526398">
        <ele>107.909794</ele>
        <time>2026-08-16T09:36:54.000Z</time>
      </trkpt>
      <trkpt lat="22.842647" lon="110.526436">
        <ele>107.932325</ele>
        <time>2026-08-16T09:36:55.000Z</time>
      </trkpt>
      <trkpt lat="22.842686" lon="110.526472">
        <ele>107.954651</ele>
        <time>2026-08-16T09:36:56.000Z</time>
      </trkpt>
      <trkpt lat="22.842720" lon="110.526510">
        <ele>107.975933</ele>
        <time>2026-08-16T09:36:57.000Z</time>
      </trkpt>
      <trkpt lat="22.842758" lon="110.526547">
        <ele>107.998194</ele>
        <time>2026-08-16T09:36:58.000Z</time>
      </trkpt>
      <trkpt lat="22.842794" lon="110.526581">
        <ele>108.029964</ele>
        <time>2026-08-16T09:36:59.000Z</time>
      </trkpt>
      <trkpt lat="22.842826" lon="110.526616">
        <ele>108.082626</ele>
        <time>2026-08-16T09:37:00.000Z</time>
      </trkpt>
      <trkpt lat="22.842865" lon="110.526652">
        <ele>108.141973</ele>
        <time>2026-08-16T09:37:01.000Z</time>
      </trkpt>
      <trkpt lat="22.842900" lon="110.526685">
        <ele>108.195714</ele>
        <time>2026-08-16T09:37:02.000Z</time>
      </trkpt>
      <trkpt lat="22.842935" lon="110.526718">
        <ele>108.249456</ele>
        <time>2026-08-16T09:37:03.000Z</time>
      </trkpt>
      <trkpt lat="22.842972" lon="110.526751">
        <ele>108.304968</ele>
        <time>2026-08-16T09:37:04.000Z</time>
      </trkpt>
      <trkpt lat="22.843008" lon="110.526783">
        <ele>108.358907</ele>
        <time>2026-08-16T09:37:05.000Z</time>
      </trkpt>
      <trkpt lat="22.843040" lon="110.526817">
        <ele>108.410816</ele>
        <time>2026-08-16T09:37:06.000Z</time>
      </trkpt>
      <trkpt lat="22.843073" lon="110.526849">
        <ele>108.462112</ele>
        <time>2026-08-16T09:37:07.000Z</time>
      </trkpt>
      <trkpt lat="22.843105" lon="110.526877">
        <ele>108.509759</ele>
        <time>2026-08-16T09:37:08.000Z</time>
      </trkpt>
      <trkpt lat="22.843136" lon="110.526910">
        <ele>108.560092</ele>
        <time>2026-08-16T09:37:09.000Z</time>
      </trkpt>
      <trkpt lat="22.843170" lon="110.526942">
        <ele>108.612259</ele>
        <time>2026-08-16T09:37:10.000Z</time>
      </trkpt>
      <trkpt lat="22.843208" lon="110.526965">
        <ele>108.662691</ele>
        <time>2026-08-16T09:37:11.000Z</time>
      </trkpt>
      <trkpt lat="22.843245" lon="110.526987">
        <ele>108.711592</ele>
        <time>2026-08-16T09:37:12.000Z</time>
      </trkpt>
      <trkpt lat="22.843288" lon="110.527009">
        <ele>108.766694</ele>
        <time>2026-08-16T09:37:13.000Z</time>
      </trkpt>
      <trkpt lat="22.843325" lon="110.527038">
        <ele>108.819596</ele>
        <time>2026-08-16T09:37:14.000Z</time>
      </trkpt>
      <trkpt lat="22.843364" lon="110.527063">
        <ele>108.872098</ele>
        <time>2026-08-16T09:37:15.000Z</time>
      </trkpt>
      <trkpt lat="22.843402" lon="110.527089">
        <ele>108.924166</ele>
        <time>2026-08-16T09:37:16.000Z</time>
      </trkpt>
      <trkpt lat="22.843434" lon="110.527123">
        <ele>108.976076</ele>
        <time>2026-08-16T09:37:17.000Z</time>
      </trkpt>
      <trkpt lat="22.843470" lon="110.527152">
        <ele>109.028043</ele>
        <time>2026-08-16T09:37:18.000Z</time>
      </trkpt>
      <trkpt lat="22.843509" lon="110.527176">
        <ele>109.080009</ele>
        <time>2026-08-16T09:37:19.000Z</time>
      </trkpt>
      <trkpt lat="22.843535" lon="110.527204">
        <ele>109.122466</ele>
        <time>2026-08-16T09:37:20.000Z</time>
      </trkpt>
      <trkpt lat="22.843566" lon="110.527229">
        <ele>109.167234</ele>
        <time>2026-08-16T09:37:21.000Z</time>
      </trkpt>
      <trkpt lat="22.843602" lon="110.527253">
        <ele>109.216205</ele>
        <time>2026-08-16T09:37:22.000Z</time>
      </trkpt>
      <trkpt lat="22.843636" lon="110.527281">
        <ele>109.265677</ele>
        <time>2026-08-16T09:37:23.000Z</time>
      </trkpt>
      <trkpt lat="22.843667" lon="110.527313">
        <ele>109.315269</ele>
        <time>2026-08-16T09:37:24.000Z</time>
      </trkpt>
      <trkpt lat="22.843702" lon="110.527342">
        <ele>109.366310</ele>
        <time>2026-08-16T09:37:25.000Z</time>
      </trkpt>
      <trkpt lat="22.843737" lon="110.527374">
        <ele>109.419357</ele>
        <time>2026-08-16T09:37:26.000Z</time>
      </trkpt>
      <trkpt lat="22.843773" lon="110.527406">
        <ele>109.473296</ele>
        <time>2026-08-16T09:37:27.000Z</time>
      </trkpt>
      <trkpt lat="22.843810" lon="110.527436">
        <ele>109.526830</ele>
        <time>2026-08-16T09:37:28.000Z</time>
      </trkpt>
      <trkpt lat="22.843846" lon="110.527463">
        <ele>109.577553</ele>
        <time>2026-08-16T09:37:29.000Z</time>
      </trkpt>
      <trkpt lat="22.843881" lon="110.527492">
        <ele>109.628594</ele>
        <time>2026-08-16T09:37:30.000Z</time>
      </trkpt>
      <trkpt lat="22.843915" lon="110.527520">
        <ele>109.678066</ele>
        <time>2026-08-16T09:37:31.000Z</time>
      </trkpt>
      <trkpt lat="22.843951" lon="110.527546">
        <ele>109.728189</ele>
        <time>2026-08-16T09:37:32.000Z</time>
      </trkpt>
      <trkpt lat="22.843988" lon="110.527566">
        <ele>109.776100</ele>
        <time>2026-08-16T09:37:33.000Z</time>
      </trkpt>
      <trkpt lat="22.844022" lon="110.527595">
        <ele>109.826225</ele>
        <time>2026-08-16T09:37:34.000Z</time>
      </trkpt>
      <trkpt lat="22.844062" lon="110.527612">
        <ele>109.876017</ele>
        <time>2026-08-16T09:37:35.000Z</time>
      </trkpt>
      <trkpt lat="22.844099" lon="110.527641">
        <ele>109.928919</ele>
        <time>2026-08-16T09:37:36.000Z</time>
      </trkpt>
      <trkpt lat="22.844139" lon="110.527666">
        <ele>109.982421</ele>
        <time>2026-08-16T09:37:37.000Z</time>
      </trkpt>
      <trkpt lat="22.844170" lon="110.527704">
        <ele>110.036629</ele>
        <time>2026-08-16T09:37:38.000Z</time>
      </trkpt>
      <trkpt lat="22.844209" lon="110.527731">
        <ele>110.090249</ele>
        <time>2026-08-16T09:37:39.000Z</time>
      </trkpt>
      <trkpt lat="22.844245" lon="110.527761">
        <ele>110.082252</ele>
        <time>2026-08-16T09:37:40.000Z</time>
      </trkpt>
      <trkpt lat="22.844280" lon="110.527791">
        <ele>110.065452</ele>
        <time>2026-08-16T09:37:41.000Z</time>
      </trkpt>
      <trkpt lat="22.844316" lon="110.527820">
        <ele>110.048564</ele>
        <time>2026-08-16T09:37:42.000Z</time>
      </trkpt>
      <trkpt lat="22.844346" lon="110.527849">
        <ele>110.033430</ele>
        <time>2026-08-16T09:37:43.000Z</time>
      </trkpt>
      <trkpt lat="22.844381" lon="110.527875">
        <ele>110.017453</ele>
        <time>2026-08-16T09:37:44.000Z</time>
      </trkpt>
      <trkpt lat="22.844415" lon="110.527905">
        <ele>110.000947</ele>
        <time>2026-08-16T09:37:45.000Z</time>
      </trkpt>
      <trkpt lat="22.844451" lon="110.527934">
        <ele>109.984059</ele>
        <time>2026-08-16T09:37:46.000Z</time>
      </trkpt>
      <trkpt lat="22.844486" lon="110.527962">
        <ele>109.967681</ele>
        <time>2026-08-16T09:37:47.000Z</time>
      </trkpt>
      <trkpt lat="22.844519" lon="110.527992">
        <ele>109.951465</ele>
        <time>2026-08-16T09:37:48.000Z</time>
      </trkpt>
      <trkpt lat="22.844553" lon="110.528021">
        <ele>109.935176</ele>
        <time>2026-08-16T09:37:49.000Z</time>
      </trkpt>
      <trkpt lat="22.844585" lon="110.528053">
        <ele>109.918784</ele>
        <time>2026-08-16T09:37:50.000Z</time>
      </trkpt>
      <trkpt lat="22.844621" lon="110.528081">
        <ele>109.902101</ele>
        <time>2026-08-16T09:37:51.000Z</time>
      </trkpt>
      <trkpt lat="22.844657" lon="110.528101">
        <ele>109.886867</ele>
        <time>2026-08-16T09:37:52.000Z</time>
      </trkpt>
      <trkpt lat="22.844695" lon="110.528120">
        <ele>109.871108</ele>
        <time>2026-08-16T09:37:53.000Z</time>
      </trkpt>
      <trkpt lat="22.844731" lon="110.528146">
        <ele>109.854819</ele>
        <time>2026-08-16T09:37:54.000Z</time>
      </trkpt>
      <trkpt lat="22.844766" lon="110.528174">
        <ele>109.838440</ele>
        <time>2026-08-16T09:37:55.000Z</time>
      </trkpt>
      <trkpt lat="22.844803" lon="110.528200">
        <ele>109.821836</ele>
        <time>2026-08-16T09:37:56.000Z</time>
      </trkpt>
      <trkpt lat="22.844843" lon="110.528226">
        <ele>109.804273</ele>
        <time>2026-08-16T09:37:57.000Z</time>
      </trkpt>
      <trkpt lat="22.844880" lon="110.528252">
        <ele>109.787670</ele>
        <time>2026-08-16T09:37:58.000Z</time>
      </trkpt>
      <trkpt lat="22.844915" lon="110.528280">
        <ele>109.771291</ele>
        <time>2026-08-16T09:37:59.000Z</time>
      </trkpt>
      <trkpt lat="22.844953" lon="110.528306">
        <ele>109.754370</ele>
        <time>2026-08-16T09:38:00.000Z</time>
      </trkpt>
      <trkpt lat="22.844990" lon="110.528335">
        <ele>109.737178</ele>
        <time>2026-08-16T09:38:01.000Z</time>
      </trkpt>
      <trkpt lat="22.845029" lon="110.528363">
        <ele>109.719564</ele>
        <time>2026-08-16T09:38:02.000Z</time>
      </trkpt>
      <trkpt lat="22.845067" lon="110.528395">
        <ele>109.701446</ele>
        <time>2026-08-16T09:38:03.000Z</time>
      </trkpt>
      <trkpt lat="22.845104" lon="110.528427">
        <ele>109.683624</ele>
        <time>2026-08-16T09:38:04.000Z</time>
      </trkpt>
      <trkpt lat="22.845143" lon="110.528458">
        <ele>109.665415</ele>
        <time>2026-08-16T09:38:05.000Z</time>
      </trkpt>
      <trkpt lat="22.845181" lon="110.528490">
        <ele>109.647297</ele>
        <time>2026-08-16T09:38:06.000Z</time>
      </trkpt>
      <trkpt lat="22.845220" lon="110.528519">
        <ele>109.629489</ele>
        <time>2026-08-16T09:38:07.000Z</time>
      </trkpt>
      <trkpt lat="22.845260" lon="110.528548">
        <ele>109.611369</ele>
        <time>2026-08-16T09:38:08.000Z</time>
      </trkpt>
      <trkpt lat="22.845299" lon="110.528579">
        <ele>109.593160</ele>
        <time>2026-08-16T09:38:09.000Z</time>
      </trkpt>
      <trkpt lat="22.845337" lon="110.528610">
        <ele>109.575253</ele>
        <time>2026-08-16T09:38:10.000Z</time>
      </trkpt>
      <trkpt lat="22.845378" lon="110.528642">
        <ele>109.556229</ele>
        <time>2026-08-16T09:38:11.000Z</time>
      </trkpt>
      <trkpt lat="22.845416" lon="110.528675">
        <ele>109.537897</ele>
        <time>2026-08-16T09:38:12.000Z</time>
      </trkpt>
      <trkpt lat="22.845462" lon="110.528704">
        <ele>109.517858</ele>
        <time>2026-08-16T09:38:13.000Z</time>
      </trkpt>
      <trkpt lat="22.845509" lon="110.528738">
        <ele>109.496582</ele>
        <time>2026-08-16T09:38:14.000Z</time>
      </trkpt>
      <trkpt lat="22.845553" lon="110.528777">
        <ele>109.475182</ele>
        <time>2026-08-16T09:38:15.000Z</time>
      </trkpt>
      <trkpt lat="22.845598" lon="110.528815">
        <ele>109.453705</ele>
        <time>2026-08-16T09:38:16.000Z</time>
      </trkpt>
      <trkpt lat="22.845639" lon="110.528854">
        <ele>109.433168</ele>
        <time>2026-08-16T09:38:17.000Z</time>
      </trkpt>
      <trkpt lat="22.845680" lon="110.528892">
        <ele>109.399585</ele>
        <time>2026-08-16T09:38:18.000Z</time>
      </trkpt>
      <trkpt lat="22.845719" lon="110.528929">
        <ele>109.341831</ele>
        <time>2026-08-16T09:38:19.000Z</time>
      </trkpt>
      <trkpt lat="22.845758" lon="110.528970">
        <ele>109.281292</ele>
        <time>2026-08-16T09:38:20.000Z</time>
      </trkpt>
      <trkpt lat="22.845799" lon="110.529012">
        <ele>109.218433</ele>
        <time>2026-08-16T09:38:21.000Z</time>
      </trkpt>
      <trkpt lat="22.845839" lon="110.529056">
        <ele>109.154933</ele>
        <time>2026-08-16T09:38:22.000Z</time>
      </trkpt>
      <trkpt lat="22.845876" lon="110.529099">
        <ele>109.094491</ele>
        <time>2026-08-16T09:38:23.000Z</time>
      </trkpt>
      <trkpt lat="22.845918" lon="110.529143">
        <ele>109.029406</ele>
        <time>2026-08-16T09:38:24.000Z</time>
      </trkpt>
      <trkpt lat="22.845958" lon="110.529185">
        <ele>108.967352</ele>
        <time>2026-08-16T09:38:25.000Z</time>
      </trkpt>
      <trkpt lat="22.845998" lon="110.529230">
        <ele>108.903117</ele>
        <time>2026-08-16T09:38:26.000Z</time>
      </trkpt>
      <trkpt lat="22.846038" lon="110.529272">
        <ele>108.841063</ele>
        <time>2026-08-16T09:38:27.000Z</time>
      </trkpt>
      <trkpt lat="22.846079" lon="110.529314">
        <ele>108.778204</ele>
        <time>2026-08-16T09:38:28.000Z</time>
      </trkpt>
      <trkpt lat="22.846126" lon="110.529347">
        <ele>108.715793</ele>
        <time>2026-08-16T09:38:29.000Z</time>
      </trkpt>
      <trkpt lat="22.846173" lon="110.529383">
        <ele>108.651656</ele>
        <time>2026-08-16T09:38:30.000Z</time>
      </trkpt>
      <trkpt lat="22.846215" lon="110.529422">
        <ele>108.590028</ele>
        <time>2026-08-16T09:38:31.000Z</time>
      </trkpt>
      <trkpt lat="22.846259" lon="110.529460">
        <ele>108.527334</ele>
        <time>2026-08-16T09:38:32.000Z</time>
      </trkpt>
      <trkpt lat="22.846304" lon="110.529495">
        <ele>108.465610</ele>
        <time>2026-08-16T09:38:33.000Z</time>
      </trkpt>
      <trkpt lat="22.846341" lon="110.529539">
        <ele>108.404413</ele>
        <time>2026-08-16T09:38:34.000Z</time>
      </trkpt>
      <trkpt lat="22.846385" lon="110.529579">
        <ele>108.340419</ele>
        <time>2026-08-16T09:38:35.000Z</time>
      </trkpt>
      <trkpt lat="22.846427" lon="110.529617">
        <ele>108.279454</ele>
        <time>2026-08-16T09:38:36.000Z</time>
      </trkpt>
      <trkpt lat="22.846467" lon="110.529662">
        <ele>108.215219</ele>
        <time>2026-08-16T09:38:37.000Z</time>
      </trkpt>
      <trkpt lat="22.846527" lon="110.529695">
        <ele>108.140226</ele>
        <time>2026-08-16T09:38:38.000Z</time>
      </trkpt>
      <trkpt lat="22.846566" lon="110.529736">
        <ele>108.079688</ele>
        <time>2026-08-16T09:38:39.000Z</time>
      </trkpt>
      <trkpt lat="22.846609" lon="110.529776">
        <ele>108.016546</ele>
        <time>2026-08-16T09:38:40.000Z</time>
      </trkpt>
      <trkpt lat="22.846651" lon="110.529815">
        <ele>107.954918</ele>
        <time>2026-08-16T09:38:41.000Z</time>
      </trkpt>
      <trkpt lat="22.846693" lon="110.529858">
        <ele>107.890542</ele>
        <time>2026-08-16T09:38:42.000Z</time>
      </trkpt>
      <trkpt lat="22.846733" lon="110.529898">
        <ele>107.829900</ele>
        <time>2026-08-16T09:38:43.000Z</time>
      </trkpt>
      <trkpt lat="22.846772" lon="110.529939">
        <ele>107.769362</ele>
        <time>2026-08-16T09:38:44.000Z</time>
      </trkpt>
      <trkpt lat="22.846813" lon="110.529981">
        <ele>107.706502</ele>
        <time>2026-08-16T09:38:45.000Z</time>
      </trkpt>
      <trkpt lat="22.846854" lon="110.530022">
        <ele>107.644344</ele>
        <time>2026-08-16T09:38:46.000Z</time>
      </trkpt>
      <trkpt lat="22.846895" lon="110.530062">
        <ele>107.582877</ele>
        <time>2026-08-16T09:38:47.000Z</time>
      </trkpt>
      <trkpt lat="22.846940" lon="110.530101">
        <ele>107.518671</ele>
        <time>2026-08-16T09:38:48.000Z</time>
      </trkpt>
      <trkpt lat="22.846983" lon="110.530143">
        <ele>107.454172</ele>
        <time>2026-08-16T09:38:49.000Z</time>
      </trkpt>
      <trkpt lat="22.847027" lon="110.530186">
        <ele>107.415488</ele>
        <time>2026-08-16T09:38:50.000Z</time>
      </trkpt>
      <trkpt lat="22.847071" lon="110.530231">
        <ele>107.418291</ele>
        <time>2026-08-16T09:38:51.000Z</time>
      </trkpt>
      <trkpt lat="22.847121" lon="110.530273">
        <ele>107.421224</ele>
        <time>2026-08-16T09:38:52.000Z</time>
      </trkpt>
      <trkpt lat="22.847169" lon="110.530314">
        <ele>107.424057</ele>
        <time>2026-08-16T09:38:53.000Z</time>
      </trkpt>
      <trkpt lat="22.847218" lon="110.530355">
        <ele>107.426926</ele>
        <time>2026-08-16T09:38:54.000Z</time>
      </trkpt>
      <trkpt lat="22.847261" lon="110.530397">
        <ele>107.429609</ele>
        <time>2026-08-16T09:38:55.000Z</time>
      </trkpt>
      <trkpt lat="22.847303" lon="110.530441">
        <ele>107.432316</ele>
        <time>2026-08-16T09:38:56.000Z</time>
      </trkpt>
      <trkpt lat="22.847345" lon="110.530486">
        <ele>107.435053</ele>
        <time>2026-08-16T09:38:57.000Z</time>
      </trkpt>
      <trkpt lat="22.847386" lon="110.530531">
        <ele>107.437758</ele>
        <time>2026-08-16T09:38:58.000Z</time>
      </trkpt>
      <trkpt lat="22.847428" lon="110.530567">
        <ele>107.440240</ele>
        <time>2026-08-16T09:38:59.000Z</time>
      </trkpt>
      <trkpt lat="22.847465" lon="110.530609">
        <ele>107.442723</ele>
        <time>2026-08-16T09:39:00.000Z</time>
      </trkpt>
      <trkpt lat="22.847503" lon="110.530654">
        <ele>107.445331</ele>
        <time>2026-08-16T09:39:01.000Z</time>
      </trkpt>
      <trkpt lat="22.847540" lon="110.530698">
        <ele>107.447877</ele>
        <time>2026-08-16T09:39:02.000Z</time>
      </trkpt>
      <trkpt lat="22.847579" lon="110.530738">
        <ele>107.450365</ele>
        <time>2026-08-16T09:39:03.000Z</time>
      </trkpt>
      <trkpt lat="22.847616" lon="110.530780">
        <ele>107.452848</ele>
        <time>2026-08-16T09:39:04.000Z</time>
      </trkpt>
      <trkpt lat="22.847656" lon="110.530821">
        <ele>107.455400</ele>
        <time>2026-08-16T09:39:05.000Z</time>
      </trkpt>
      <trkpt lat="22.847699" lon="110.530858">
        <ele>107.457945</ele>
        <time>2026-08-16T09:39:06.000Z</time>
      </trkpt>
      <trkpt lat="22.847739" lon="110.530895">
        <ele>107.460382</ele>
        <time>2026-08-16T09:39:07.000Z</time>
      </trkpt>
      <trkpt lat="22.847779" lon="110.530934">
        <ele>107.462876</ele>
        <time>2026-08-16T09:39:08.000Z</time>
      </trkpt>
      <trkpt lat="22.847822" lon="110.530969">
        <ele>107.465369</ele>
        <time>2026-08-16T09:39:09.000Z</time>
      </trkpt>
      <trkpt lat="22.847863" lon="110.531006">
        <ele>107.467842</ele>
        <time>2026-08-16T09:39:10.000Z</time>
      </trkpt>
      <trkpt lat="22.847908" lon="110.531041">
        <ele>107.470409</ele>
        <time>2026-08-16T09:39:11.000Z</time>
      </trkpt>
      <trkpt lat="22.847946" lon="110.531083">
        <ele>107.472925</ele>
        <time>2026-08-16T09:39:12.000Z</time>
      </trkpt>
      <trkpt lat="22.847992" lon="110.531121">
        <ele>107.475606</ele>
        <time>2026-08-16T09:39:13.000Z</time>
      </trkpt>
      <trkpt lat="22.848028" lon="110.531156">
        <ele>107.477847</ele>
        <time>2026-08-16T09:39:14.000Z</time>
      </trkpt>
      <trkpt lat="22.848070" lon="110.531201">
        <ele>107.480584</ele>
        <time>2026-08-16T09:39:15.000Z</time>
      </trkpt>
      <trkpt lat="22.848114" lon="110.531236">
        <ele>107.483114</ele>
        <time>2026-08-16T09:39:16.000Z</time>
      </trkpt>
      <trkpt lat="22.848158" lon="110.531272">
        <ele>107.485670</ele>
        <time>2026-08-16T09:39:17.000Z</time>
      </trkpt>
      <trkpt lat="22.848192" lon="110.531314">
        <ele>107.488059</ele>
        <time>2026-08-16T09:39:18.000Z</time>
      </trkpt>
      <trkpt lat="22.848230" lon="110.531355">
        <ele>107.490544</ele>
        <time>2026-08-16T09:39:19.000Z</time>
      </trkpt>
      <trkpt lat="22.848269" lon="110.531399">
        <ele>107.493153</ele>
        <time>2026-08-16T09:39:20.000Z</time>
      </trkpt>
      <trkpt lat="22.848312" lon="110.531440">
        <ele>107.495807</ele>
        <time>2026-08-16T09:39:21.000Z</time>
      </trkpt>
      <trkpt lat="22.848352" lon="110.531481">
        <ele>107.485501</ele>
        <time>2026-08-16T09:39:22.000Z</time>
      </trkpt>
      <trkpt lat="22.848391" lon="110.531521">
        <ele>107.430071</ele>
        <time>2026-08-16T09:39:23.000Z</time>
      </trkpt>
      <trkpt lat="22.848430" lon="110.531556">
        <ele>107.377796</ele>
        <time>2026-08-16T09:39:24.000Z</time>
      </trkpt>
      <trkpt lat="22.848467" lon="110.531593">
        <ele>107.325825</ele>
        <time>2026-08-16T09:39:25.000Z</time>
      </trkpt>
      <trkpt lat="22.848506" lon="110.531635">
        <ele>107.269071</ele>
        <time>2026-08-16T09:39:26.000Z</time>
      </trkpt>
      <trkpt lat="22.848543" lon="110.531676">
        <ele>107.214448</ele>
        <time>2026-08-16T09:39:27.000Z</time>
      </trkpt>
      <trkpt lat="22.848582" lon="110.531718">
        <ele>107.157693</ele>
        <time>2026-08-16T09:39:28.000Z</time>
      </trkpt>
      <trkpt lat="22.848620" lon="110.531757">
        <ele>107.103668</ele>
        <time>2026-08-16T09:39:29.000Z</time>
      </trkpt>
      <trkpt lat="22.848655" lon="110.531804">
        <ele>107.046149</ele>
        <time>2026-08-16T09:39:30.000Z</time>
      </trkpt>
      <trkpt lat="22.848690" lon="110.531850">
        <ele>106.989367</ele>
        <time>2026-08-16T09:39:31.000Z</time>
      </trkpt>
      <trkpt lat="22.848738" lon="110.531884">
        <ele>106.930159</ele>
        <time>2026-08-16T09:39:32.000Z</time>
      </trkpt>
      <trkpt lat="22.848777" lon="110.531925">
        <ele>106.874071</ele>
        <time>2026-08-16T09:39:33.000Z</time>
      </trkpt>
      <trkpt lat="22.848818" lon="110.531964">
        <ele>106.817754</ele>
        <time>2026-08-16T09:39:34.000Z</time>
      </trkpt>
      <trkpt lat="22.848861" lon="110.532004">
        <ele>106.759253</ele>
        <time>2026-08-16T09:39:35.000Z</time>
      </trkpt>
      <trkpt lat="22.848904" lon="110.532050">
        <ele>106.696883</ele>
        <time>2026-08-16T09:39:36.000Z</time>
      </trkpt>
      <trkpt lat="22.848946" lon="110.532100">
        <ele>106.632485</ele>
        <time>2026-08-16T09:39:37.000Z</time>
      </trkpt>
      <trkpt lat="22.848988" lon="110.532150">
        <ele>106.568086</ele>
        <time>2026-08-16T09:39:38.000Z</time>
      </trkpt>
      <trkpt lat="22.849027" lon="110.532200">
        <ele>106.505733</ele>
        <time>2026-08-16T09:39:39.000Z</time>
      </trkpt>
      <trkpt lat="22.849071" lon="110.532249">
        <ele>106.440611</ele>
        <time>2026-08-16T09:39:40.000Z</time>
      </trkpt>
      <trkpt lat="22.849114" lon="110.532299">
        <ele>106.375512</ele>
        <time>2026-08-16T09:39:41.000Z</time>
      </trkpt>
      <trkpt lat="22.849155" lon="110.532352">
        <ele>106.309644</ele>
        <time>2026-08-16T09:39:42.000Z</time>
      </trkpt>
      <trkpt lat="22.849205" lon="110.532401">
        <ele>106.240054</ele>
        <time>2026-08-16T09:39:43.000Z</time>
      </trkpt>
      <trkpt lat="22.849249" lon="110.532451">
        <ele>106.174247</ele>
        <time>2026-08-16T09:39:44.000Z</time>
      </trkpt>
      <trkpt lat="22.849293" lon="110.532501">
        <ele>106.108439</ele>
        <time>2026-08-16T09:39:45.000Z</time>
      </trkpt>
      <trkpt lat="22.849338" lon="110.532549">
        <ele>106.043262</ele>
        <time>2026-08-16T09:39:46.000Z</time>
      </trkpt>
      <trkpt lat="22.849381" lon="110.532600">
        <ele>105.977464</ele>
        <time>2026-08-16T09:39:47.000Z</time>
      </trkpt>
      <trkpt lat="22.849417" lon="110.532652">
        <ele>105.915556</ele>
        <time>2026-08-16T09:39:48.000Z</time>
      </trkpt>
      <trkpt lat="22.849457" lon="110.532705">
        <ele>105.850347</ele>
        <time>2026-08-16T09:39:49.000Z</time>
      </trkpt>
      <trkpt lat="22.849499" lon="110.532756">
        <ele>105.785242</ele>
        <time>2026-08-16T09:39:50.000Z</time>
      </trkpt>
      <trkpt lat="22.849537" lon="110.532809">
        <ele>105.721323</ele>
        <time>2026-08-16T09:39:51.000Z</time>
      </trkpt>
      <trkpt lat="22.849578" lon="110.532862">
        <ele>105.655455</ele>
        <time>2026-08-16T09:39:52.000Z</time>
      </trkpt>
      <trkpt lat="22.849621" lon="110.532914">
        <ele>105.608549</ele>
        <time>2026-08-16T09:39:53.000Z</time>
      </trkpt>
      <trkpt lat="22.849663" lon="110.532970">
        <ele>105.566228</ele>
        <time>2026-08-16T09:39:54.000Z</time>
      </trkpt>
      <trkpt lat="22.849707" lon="110.533022">
        <ele>105.524849</ele>
        <time>2026-08-16T09:39:55.000Z</time>
      </trkpt>
      <trkpt lat="22.849753" lon="110.533074">
        <ele>105.482599</ele>
        <time>2026-08-16T09:39:56.000Z</time>
      </trkpt>
      <trkpt lat="22.849798" lon="110.533126">
        <ele>105.440787</ele>
        <time>2026-08-16T09:39:57.000Z</time>
      </trkpt>
      <trkpt lat="22.849835" lon="110.533177">
        <ele>105.402741</ele>
        <time>2026-08-16T09:39:58.000Z</time>
      </trkpt>
      <trkpt lat="22.849876" lon="110.533226">
        <ele>105.363948</ele>
        <time>2026-08-16T09:39:59.000Z</time>
      </trkpt>
      <trkpt lat="22.849913" lon="110.533274">
        <ele>105.327268</ele>
        <time>2026-08-16T09:40:00.000Z</time>
      </trkpt>
      <trkpt lat="22.849956" lon="110.533323">
        <ele>105.287607</ele>
        <time>2026-08-16T09:40:01.000Z</time>
      </trkpt>
      <trkpt lat="22.849998" lon="110.533373">
        <ele>105.247952</ele>
        <time>2026-08-16T09:40:02.000Z</time>
      </trkpt>
      <trkpt lat="22.850036" lon="110.533424">
        <ele>105.209510</ele>
        <time>2026-08-16T09:40:03.000Z</time>
      </trkpt>
      <trkpt lat="22.850077" lon="110.533473">
        <ele>105.170716</ele>
        <time>2026-08-16T09:40:04.000Z</time>
      </trkpt>
      <trkpt lat="22.850117" lon="110.533524">
        <ele>105.131462</ele>
        <time>2026-08-16T09:40:05.000Z</time>
      </trkpt>
      <trkpt lat="22.850154" lon="110.533571">
        <ele>105.095229</ele>
        <time>2026-08-16T09:40:06.000Z</time>
      </trkpt>
      <trkpt lat="22.850194" lon="110.533617">
        <ele>105.058158</ele>
        <time>2026-08-16T09:40:07.000Z</time>
      </trkpt>
      <trkpt lat="22.850232" lon="110.533661">
        <ele>105.022812</ele>
        <time>2026-08-16T09:40:08.000Z</time>
      </trkpt>
      <trkpt lat="22.850270" lon="110.533706">
        <ele>104.987037</ele>
        <time>2026-08-16T09:40:09.000Z</time>
      </trkpt>
      <trkpt lat="22.850309" lon="110.533751">
        <ele>104.950828</ele>
        <time>2026-08-16T09:40:10.000Z</time>
      </trkpt>
      <trkpt lat="22.850348" lon="110.533795">
        <ele>104.915044</ele>
        <time>2026-08-16T09:40:11.000Z</time>
      </trkpt>
      <trkpt lat="22.850384" lon="110.533837">
        <ele>104.881424</ele>
        <time>2026-08-16T09:40:12.000Z</time>
      </trkpt>
      <trkpt lat="22.850418" lon="110.533877">
        <ele>104.849527</ele>
        <time>2026-08-16T09:40:13.000Z</time>
      </trkpt>
      <trkpt lat="22.850453" lon="110.533916">
        <ele>104.817619</ele>
        <time>2026-08-16T09:40:14.000Z</time>
      </trkpt>
      <trkpt lat="22.850487" lon="110.533959">
        <ele>104.784409</ele>
        <time>2026-08-16T09:40:15.000Z</time>
      </trkpt>
      <trkpt lat="22.850520" lon="110.534005">
        <ele>104.750239</ele>
        <time>2026-08-16T09:40:16.000Z</time>
      </trkpt>
      <trkpt lat="22.850556" lon="110.534047">
        <ele>104.716619</ele>
        <time>2026-08-16T09:40:17.000Z</time>
      </trkpt>
      <trkpt lat="22.850588" lon="110.534091">
        <ele>104.683764</ele>
        <time>2026-08-16T09:40:18.000Z</time>
      </trkpt>
      <trkpt lat="22.850620" lon="110.534135">
        <ele>104.650910</ele>
        <time>2026-08-16T09:40:19.000Z</time>
      </trkpt>
      <trkpt lat="22.850654" lon="110.534179">
        <ele>104.617253</ele>
        <time>2026-08-16T09:40:20.000Z</time>
      </trkpt>
      <trkpt lat="22.850689" lon="110.534222">
        <ele>104.583625</ele>
        <time>2026-08-16T09:40:21.000Z</time>
      </trkpt>
      <trkpt lat="22.850722" lon="110.534264">
        <ele>104.551274</ele>
        <time>2026-08-16T09:40:22.000Z</time>
      </trkpt>
      <trkpt lat="22.850756" lon="110.534306">
        <ele>104.518506</ele>
        <time>2026-08-16T09:40:23.000Z</time>
      </trkpt>
      <trkpt lat="22.850791" lon="110.534347">
        <ele>104.520427</ele>
        <time>2026-08-16T09:40:24.000Z</time>
      </trkpt>
      <trkpt lat="22.850829" lon="110.534387">
        <ele>104.601547</ele>
        <time>2026-08-16T09:40:25.000Z</time>
      </trkpt>
      <trkpt lat="22.850864" lon="110.534428">
        <ele>104.680462</ele>
        <time>2026-08-16T09:40:26.000Z</time>
      </trkpt>
      <trkpt lat="22.850900" lon="110.534466">
        <ele>104.757416</ele>
        <time>2026-08-16T09:40:27.000Z</time>
      </trkpt>
      <trkpt lat="22.850935" lon="110.534503">
        <ele>104.832286</ele>
        <time>2026-08-16T09:40:28.000Z</time>
      </trkpt>
      <trkpt lat="22.850967" lon="110.534540">
        <ele>104.903936</ele>
        <time>2026-08-16T09:40:29.000Z</time>
      </trkpt>
      <trkpt lat="22.850999" lon="110.534579">
        <ele>104.977670</ele>
        <time>2026-08-16T09:40:30.000Z</time>
      </trkpt>
      <trkpt lat="22.851029" lon="110.534622">
        <ele>105.053825</ele>
        <time>2026-08-16T09:40:31.000Z</time>
      </trkpt>
      <trkpt lat="22.851064" lon="110.534664">
        <ele>105.133782</ele>
        <time>2026-08-16T09:40:32.000Z</time>
      </trkpt>
      <trkpt lat="22.851096" lon="110.534705">
        <ele>105.209649</ele>
        <time>2026-08-16T09:40:33.000Z</time>
      </trkpt>
      <trkpt lat="22.851128" lon="110.534746">
        <ele>105.285515</ele>
        <time>2026-08-16T09:40:34.000Z</time>
      </trkpt>
      <trkpt lat="22.851162" lon="110.534787">
        <ele>105.363398</ele>
        <time>2026-08-16T09:40:35.000Z</time>
      </trkpt>
      <trkpt lat="22.851192" lon="110.534830">
        <ele>105.439553</ele>
        <time>2026-08-16T09:40:36.000Z</time>
      </trkpt>
      <trkpt lat="22.851222" lon="110.534871">
        <ele>105.513475</ele>
        <time>2026-08-16T09:40:37.000Z</time>
      </trkpt>
      <trkpt lat="22.851252" lon="110.534916">
        <ele>105.591900</ele>
        <time>2026-08-16T09:40:38.000Z</time>
      </trkpt>
      <trkpt lat="22.851278" lon="110.534961">
        <ele>105.666897</ele>
        <time>2026-08-16T09:40:39.000Z</time>
      </trkpt>
      <trkpt lat="22.851308" lon="110.535002">
        <ele>105.740820</ele>
        <time>2026-08-16T09:40:40.000Z</time>
      </trkpt>
      <trkpt lat="22.851336" lon="110.535046">
        <ele>105.816323</ele>
        <time>2026-08-16T09:40:41.000Z</time>
      </trkpt>
      <trkpt lat="22.851363" lon="110.535091">
        <ele>105.892145</ele>
        <time>2026-08-16T09:40:42.000Z</time>
      </trkpt>
      <trkpt lat="22.851394" lon="110.535132">
        <ele>105.967030</ele>
        <time>2026-08-16T09:40:43.000Z</time>
      </trkpt>
      <trkpt lat="22.851423" lon="110.535172">
        <ele>106.038895</ele>
        <time>2026-08-16T09:40:44.000Z</time>
      </trkpt>
      <trkpt lat="22.851452" lon="110.535211">
        <ele>106.109656</ele>
        <time>2026-08-16T09:40:45.000Z</time>
      </trkpt>
      <trkpt lat="22.851480" lon="110.535251">
        <ele>106.180583</ele>
        <time>2026-08-16T09:40:46.000Z</time>
      </trkpt>
      <trkpt lat="22.851506" lon="110.535292">
        <ele>106.250859</ele>
        <time>2026-08-16T09:40:47.000Z</time>
      </trkpt>
      <trkpt lat="22.851533" lon="110.535332">
        <ele>106.320870</ele>
        <time>2026-08-16T09:40:48.000Z</time>
      </trkpt>
      <trkpt lat="22.851561" lon="110.535370">
        <ele>106.389571</ele>
        <time>2026-08-16T09:40:49.000Z</time>
      </trkpt>
      <trkpt lat="22.851587" lon="110.535411">
        <ele>106.459846</ele>
        <time>2026-08-16T09:40:50.000Z</time>
      </trkpt>
      <trkpt lat="22.851612" lon="110.535450">
        <ele>106.526928</ele>
        <time>2026-08-16T09:40:51.000Z</time>
      </trkpt>
      <trkpt lat="22.851637" lon="110.535485">
        <ele>106.589456</ele>
        <time>2026-08-16T09:40:52.000Z</time>
      </trkpt>
      <trkpt lat="22.851663" lon="110.535519">
        <ele>106.651841</ele>
        <time>2026-08-16T09:40:53.000Z</time>
      </trkpt>
      <trkpt lat="22.851688" lon="110.535556">
        <ele>106.716624</ele>
        <time>2026-08-16T09:40:54.000Z</time>
      </trkpt>
      <trkpt lat="22.851711" lon="110.535593">
        <ele>106.779644</ele>
        <time>2026-08-16T09:40:55.000Z</time>
      </trkpt>
      <trkpt lat="22.851729" lon="110.535629">
        <ele>106.837477</ele>
        <time>2026-08-16T09:40:56.000Z</time>
      </trkpt>
      <trkpt lat="22.851748" lon="110.535664">
        <ele>106.894835</ele>
        <time>2026-08-16T09:40:57.000Z</time>
      </trkpt>
      <trkpt lat="22.851773" lon="110.535695">
        <ele>106.953002</ele>
        <time>2026-08-16T09:40:58.000Z</time>
      </trkpt>
      <trkpt lat="22.851793" lon="110.535722">
        <ele>107.001916</ele>
        <time>2026-08-16T09:40:59.000Z</time>
      </trkpt>
      <trkpt lat="22.851818" lon="110.535751">
        <ele>107.057988</ele>
        <time>2026-08-16T09:41:00.000Z</time>
      </trkpt>
      <trkpt lat="22.851841" lon="110.535781">
        <ele>107.113092</ele>
        <time>2026-08-16T09:41:01.000Z</time>
      </trkpt>
      <trkpt lat="22.851862" lon="110.535815">
        <ele>107.170886</ele>
        <time>2026-08-16T09:41:02.000Z</time>
      </trkpt>
      <trkpt lat="22.851882" lon="110.535847">
        <ele>107.225482</ele>
        <time>2026-08-16T09:41:03.000Z</time>
      </trkpt>
      <trkpt lat="22.851899" lon="110.535879">
        <ele>107.277106</ele>
        <time>2026-08-16T09:41:04.000Z</time>
      </trkpt>
      <trkpt lat="22.851920" lon="110.535910">
        <ele>107.330309</ele>
        <time>2026-08-16T09:41:05.000Z</time>
      </trkpt>
      <trkpt lat="22.851948" lon="110.535938">
        <ele>107.387445</ele>
        <time>2026-08-16T09:41:06.000Z</time>
      </trkpt>
      <trkpt lat="22.851972" lon="110.535968">
        <ele>107.442380</ele>
        <time>2026-08-16T09:41:07.000Z</time>
      </trkpt>
      <trkpt lat="22.851993" lon="110.536005">
        <ele>107.502470</ele>
        <time>2026-08-16T09:41:08.000Z</time>
      </trkpt>
      <trkpt lat="22.852010" lon="110.536040">
        <ele>107.557179</ele>
        <time>2026-08-16T09:41:09.000Z</time>
      </trkpt>
      <trkpt lat="22.852030" lon="110.536075">
        <ele>107.614127</ele>
        <time>2026-08-16T09:41:10.000Z</time>
      </trkpt>
      <trkpt lat="22.852051" lon="110.536110">
        <ele>107.671880</ele>
        <time>2026-08-16T09:41:11.000Z</time>
      </trkpt>
      <trkpt lat="22.852071" lon="110.536143">
        <ele>107.726497</ele>
        <time>2026-08-16T09:41:12.000Z</time>
      </trkpt>
      <trkpt lat="22.852092" lon="110.536177">
        <ele>107.783096</ele>
        <time>2026-08-16T09:41:13.000Z</time>
      </trkpt>
      <trkpt lat="22.852114" lon="110.536208">
        <ele>107.837202</ele>
        <time>2026-08-16T09:41:14.000Z</time>
      </trkpt>
      <trkpt lat="22.852132" lon="110.536239">
        <ele>107.887869</ele>
        <time>2026-08-16T09:41:15.000Z</time>
      </trkpt>
      <trkpt lat="22.852154" lon="110.536267">
        <ele>107.938751</ele>
        <time>2026-08-16T09:41:16.000Z</time>
      </trkpt>
      <trkpt lat="22.852174" lon="110.536293">
        <ele>107.985583</ele>
        <time>2026-08-16T09:41:17.000Z</time>
      </trkpt>
      <trkpt lat="22.852194" lon="110.536324">
        <ele>108.037912</ele>
        <time>2026-08-16T09:41:18.000Z</time>
      </trkpt>
      <trkpt lat="22.852210" lon="110.536359">
        <ele>108.091938</ele>
        <time>2026-08-16T09:41:19.000Z</time>
      </trkpt>
      <trkpt lat="22.852226" lon="110.536397">
        <ele>108.149710</ele>
        <time>2026-08-16T09:41:20.000Z</time>
      </trkpt>
      <trkpt lat="22.852245" lon="110.536427">
        <ele>108.200047</ele>
        <time>2026-08-16T09:41:21.000Z</time>
      </trkpt>
      <trkpt lat="22.852269" lon="110.536456">
        <ele>108.253946</ele>
        <time>2026-08-16T09:41:22.000Z</time>
      </trkpt>
      <trkpt lat="22.852284" lon="110.536492">
        <ele>108.308579</ele>
        <time>2026-08-16T09:41:23.000Z</time>
      </trkpt>
      <trkpt lat="22.852307" lon="110.536523">
        <ele>108.363613</ele>
        <time>2026-08-16T09:41:24.000Z</time>
      </trkpt>
      <trkpt lat="22.852326" lon="110.536560">
        <ele>108.422184</ele>
        <time>2026-08-16T09:41:25.000Z</time>
      </trkpt>
      <trkpt lat="22.852347" lon="110.536593">
        <ele>108.477640</ele>
        <time>2026-08-16T09:41:26.000Z</time>
      </trkpt>
      <trkpt lat="22.852375" lon="110.536621">
        <ele>108.534775</ele>
        <time>2026-08-16T09:41:27.000Z</time>
      </trkpt>
      <trkpt lat="22.852395" lon="110.536659">
        <ele>108.595288</ele>
        <time>2026-08-16T09:41:28.000Z</time>
      </trkpt>
      <trkpt lat="22.852414" lon="110.536694">
        <ele>108.651460</ele>
        <time>2026-08-16T09:41:29.000Z</time>
      </trkpt>
      <trkpt lat="22.852433" lon="110.536727">
        <ele>108.705267</ele>
        <time>2026-08-16T09:41:30.000Z</time>
      </trkpt>
      <trkpt lat="22.852457" lon="110.536751">
        <ele>108.754240</ele>
        <time>2026-08-16T09:41:31.000Z</time>
      </trkpt>
      <trkpt lat="22.852481" lon="110.536780">
        <ele>108.808139</ele>
        <time>2026-08-16T09:41:32.000Z</time>
      </trkpt>
      <trkpt lat="22.852507" lon="110.536808">
        <ele>108.863106</ele>
        <time>2026-08-16T09:41:33.000Z</time>
      </trkpt>
      <trkpt lat="22.852528" lon="110.536839">
        <ele>108.916309</ele>
        <time>2026-08-16T09:41:34.000Z</time>
      </trkpt>
      <trkpt lat="22.852546" lon="110.536873">
        <ele>108.970530</ele>
        <time>2026-08-16T09:41:35.000Z</time>
      </trkpt>
      <trkpt lat="22.852567" lon="110.536901">
        <ele>109.020452</ele>
        <time>2026-08-16T09:41:36.000Z</time>
      </trkpt>
      <trkpt lat="22.852586" lon="110.536937">
        <ele>109.077819</ele>
        <time>2026-08-16T09:41:37.000Z</time>
      </trkpt>
      <trkpt lat="22.852608" lon="110.536970">
        <ele>109.134141</ele>
        <time>2026-08-16T09:41:38.000Z</time>
      </trkpt>
      <trkpt lat="22.852632" lon="110.537004">
        <ele>109.193364</ele>
        <time>2026-08-16T09:41:39.000Z</time>
      </trkpt>
      <trkpt lat="22.852656" lon="110.537038">
        <ele>109.252588</ele>
        <time>2026-08-16T09:41:40.000Z</time>
      </trkpt>
      <trkpt lat="22.852683" lon="110.537072">
        <ele>109.314652</ele>
        <time>2026-08-16T09:41:41.000Z</time>
      </trkpt>
      <trkpt lat="22.852712" lon="110.537104">
        <ele>109.376714</ele>
        <time>2026-08-16T09:41:42.000Z</time>
      </trkpt>
      <trkpt lat="22.852739" lon="110.537140">
        <ele>109.440898</ele>
        <time>2026-08-16T09:41:43.000Z</time>
      </trkpt>
      <trkpt lat="22.852764" lon="110.537172">
        <ele>109.498910</ele>
        <time>2026-08-16T09:41:44.000Z</time>
      </trkpt>
      <trkpt lat="22.852795" lon="110.537209">
        <ele>109.568059</ele>
        <time>2026-08-16T09:41:45.000Z</time>
      </trkpt>
      <trkpt lat="22.852824" lon="110.537245">
        <ele>109.634179</ele>
        <time>2026-08-16T09:41:46.000Z</time>
      </trkpt>
      <trkpt lat="22.852850" lon="110.537281">
        <ele>109.697427</ele>
        <time>2026-08-16T09:41:47.000Z</time>
      </trkpt>
      <trkpt lat="22.852877" lon="110.537319">
        <ele>109.763779</ele>
        <time>2026-08-16T09:41:48.000Z</time>
      </trkpt>
      <trkpt lat="22.852906" lon="110.537358">
        <ele>109.833076</ele>
        <time>2026-08-16T09:41:49.000Z</time>
      </trkpt>
      <trkpt lat="22.852924" lon="110.537391">
        <ele>109.886103</ele>
        <time>2026-08-16T09:41:50.000Z</time>
      </trkpt>
      <trkpt lat="22.852960" lon="110.537416">
        <ele>109.950238</ele>
        <time>2026-08-16T09:41:51.000Z</time>
      </trkpt>
      <trkpt lat="22.853001" lon="110.537443">
        <ele>110.003108</ele>
        <time>2026-08-16T09:41:52.000Z</time>
      </trkpt>
      <trkpt lat="22.853036" lon="110.537472">
        <ele>110.051480</ele>
        <time>2026-08-16T09:41:53.000Z</time>
      </trkpt>
      <trkpt lat="22.853068" lon="110.537506">
        <ele>110.100675</ele>
        <time>2026-08-16T09:41:54.000Z</time>
      </trkpt>
      <trkpt lat="22.853100" lon="110.537542">
        <ele>110.151307</ele>
        <time>2026-08-16T09:41:55.000Z</time>
      </trkpt>
      <trkpt lat="22.853130" lon="110.537575">
        <ele>110.198231</ele>
        <time>2026-08-16T09:41:56.000Z</time>
      </trkpt>
      <trkpt lat="22.853160" lon="110.537608">
        <ele>110.245155</ele>
        <time>2026-08-16T09:41:57.000Z</time>
      </trkpt>
      <trkpt lat="22.853192" lon="110.537643">
        <ele>110.295063</ele>
        <time>2026-08-16T09:41:58.000Z</time>
      </trkpt>
      <trkpt lat="22.853220" lon="110.537678">
        <ele>110.341981</ele>
        <time>2026-08-16T09:41:59.000Z</time>
      </trkpt>
      <trkpt lat="22.853253" lon="110.537701">
        <ele>110.385063</ele>
        <time>2026-08-16T09:42:00.000Z</time>
      </trkpt>
      <trkpt lat="22.853286" lon="110.537727">
        <ele>110.429860</ele>
        <time>2026-08-16T09:42:01.000Z</time>
      </trkpt>
      <trkpt lat="22.853310" lon="110.537770">
        <ele>110.480748</ele>
        <time>2026-08-16T09:42:02.000Z</time>
      </trkpt>
      <trkpt lat="22.853335" lon="110.537804">
        <ele>110.524778</ele>
        <time>2026-08-16T09:42:03.000Z</time>
      </trkpt>
      <trkpt lat="22.853355" lon="110.537823">
        <ele>110.553977</ele>
        <time>2026-08-16T09:42:04.000Z</time>
      </trkpt>
      <trkpt lat="22.853374" lon="110.537838">
        <ele>110.579787</ele>
        <time>2026-08-16T09:42:05.000Z</time>
      </trkpt>
      <trkpt lat="22.853387" lon="110.537862">
        <ele>110.607967</ele>
        <time>2026-08-16T09:42:06.000Z</time>
      </trkpt>
      <trkpt lat="22.853397" lon="110.537886">
        <ele>110.634630</ele>
        <time>2026-08-16T09:42:07.000Z</time>
      </trkpt>
      <trkpt lat="22.853393" lon="110.537908">
        <ele>110.657329</ele>
        <time>2026-08-16T09:42:08.000Z</time>
      </trkpt>
      <trkpt lat="22.853373" lon="110.537932">
        <ele>110.690083</ele>
        <time>2026-08-16T09:42:09.000Z</time>
      </trkpt>
      <trkpt lat="22.853349" lon="110.537957">
        <ele>110.726627</ele>
        <time>2026-08-16T09:42:10.000Z</time>
      </trkpt>
      <trkpt lat="22.853327" lon="110.537986">
        <ele>110.764650</ele>
        <time>2026-08-16T09:42:11.000Z</time>
      </trkpt>
      <trkpt lat="22.853302" lon="110.538020">
        <ele>110.808681</ele>
        <time>2026-08-16T09:42:12.000Z</time>
      </trkpt>
      <trkpt lat="22.853275" lon="110.538050">
        <ele>110.851129</ele>
        <time>2026-08-16T09:42:13.000Z</time>
      </trkpt>
      <trkpt lat="22.853251" lon="110.538086">
        <ele>110.896107</ele>
        <time>2026-08-16T09:42:14.000Z</time>
      </trkpt>
      <trkpt lat="22.853225" lon="110.538121">
        <ele>110.941614</ele>
        <time>2026-08-16T09:42:15.000Z</time>
      </trkpt>
      <trkpt lat="22.853201" lon="110.538149">
        <ele>110.980323</ele>
        <time>2026-08-16T09:42:16.000Z</time>
      </trkpt>
      <trkpt lat="22.853188" lon="110.538188">
        <ele>111.022304</ele>
        <time>2026-08-16T09:42:17.000Z</time>
      </trkpt>
      <trkpt lat="22.853163" lon="110.538226">
        <ele>111.069567</ele>
        <time>2026-08-16T09:42:18.000Z</time>
      </trkpt>
      <trkpt lat="22.853138" lon="110.538264">
        <ele>111.116830</ele>
        <time>2026-08-16T09:42:19.000Z</time>
      </trkpt>
      <trkpt lat="22.853113" lon="110.538299">
        <ele>111.161656</ele>
        <time>2026-08-16T09:42:20.000Z</time>
      </trkpt>
      <trkpt lat="22.853090" lon="110.538339">
        <ele>111.209382</ele>
        <time>2026-08-16T09:42:21.000Z</time>
      </trkpt>
      <trkpt lat="22.853063" lon="110.538377">
        <ele>111.257954</ele>
        <time>2026-08-16T09:42:22.000Z</time>
      </trkpt>
      <trkpt lat="22.853038" lon="110.538414">
        <ele>111.304397</ele>
        <time>2026-08-16T09:42:23.000Z</time>
      </trkpt>
      <trkpt lat="22.853012" lon="110.538449">
        <ele>111.349905</ele>
        <time>2026-08-16T09:42:24.000Z</time>
      </trkpt>
      <trkpt lat="22.852988" lon="110.538481">
        <ele>111.391669</ele>
        <time>2026-08-16T09:42:25.000Z</time>
      </trkpt>
      <trkpt lat="22.852968" lon="110.538514">
        <ele>111.431651</ele>
        <time>2026-08-16T09:42:26.000Z</time>
      </trkpt>
      <trkpt lat="22.852945" lon="110.538548">
        <ele>111.474346</ele>
        <time>2026-08-16T09:42:27.000Z</time>
      </trkpt>
      <trkpt lat="22.852922" lon="110.538585">
        <ele>111.519524</ele>
        <time>2026-08-16T09:42:28.000Z</time>
      </trkpt>
      <trkpt lat="22.852900" lon="110.538621">
        <ele>111.563250</ele>
        <time>2026-08-16T09:42:29.000Z</time>
      </trkpt>
      <trkpt lat="22.852876" lon="110.538656">
        <ele>111.607412</ele>
        <time>2026-08-16T09:42:30.000Z</time>
      </trkpt>
      <trkpt lat="22.852852" lon="110.538695">
        <ele>111.654884</ele>
        <time>2026-08-16T09:42:31.000Z</time>
      </trkpt>
      <trkpt lat="22.852829" lon="110.538731">
        <ele>111.699227</ele>
        <time>2026-08-16T09:42:32.000Z</time>
      </trkpt>
      <trkpt lat="22.852804" lon="110.538765">
        <ele>111.743257</ele>
        <time>2026-08-16T09:42:33.000Z</time>
      </trkpt>
      <trkpt lat="22.852777" lon="110.538799">
        <ele>111.788690</ele>
        <time>2026-08-16T09:42:34.000Z</time>
      </trkpt>
      <trkpt lat="22.852752" lon="110.538831">
        <ele>111.831157</ele>
        <time>2026-08-16T09:42:35.000Z</time>
      </trkpt>
      <trkpt lat="22.852727" lon="110.538868">
        <ele>111.877600</ele>
        <time>2026-08-16T09:42:36.000Z</time>
      </trkpt>
      <trkpt lat="22.852701" lon="110.538901">
        <ele>111.921550</ele>
        <time>2026-08-16T09:42:37.000Z</time>
      </trkpt>
      <trkpt lat="22.852677" lon="110.538936">
        <ele>112.003016</ele>
        <time>2026-08-16T09:42:38.000Z</time>
      </trkpt>
      <trkpt lat="22.852652" lon="110.538969">
        <ele>112.087630</ele>
        <time>2026-08-16T09:42:39.000Z</time>
      </trkpt>
      <trkpt lat="22.852626" lon="110.539002">
        <ele>112.173625</ele>
        <time>2026-08-16T09:42:40.000Z</time>
      </trkpt>
      <trkpt lat="22.852600" lon="110.539034">
        <ele>112.258124</ele>
        <time>2026-08-16T09:42:41.000Z</time>
      </trkpt>
      <trkpt lat="22.852575" lon="110.539066">
        <ele>112.341218</ele>
        <time>2026-08-16T09:42:42.000Z</time>
      </trkpt>
      <trkpt lat="22.852549" lon="110.539097">
        <ele>112.424242</ele>
        <time>2026-08-16T09:42:43.000Z</time>
      </trkpt>
      <trkpt lat="22.852522" lon="110.539129">
        <ele>112.510178</ele>
        <time>2026-08-16T09:42:44.000Z</time>
      </trkpt>
      <trkpt lat="22.852494" lon="110.539159">
        <ele>112.594751</ele>
        <time>2026-08-16T09:42:45.000Z</time>
      </trkpt>
      <trkpt lat="22.852466" lon="110.539186">
        <ele>112.675261</ele>
        <time>2026-08-16T09:42:46.000Z</time>
      </trkpt>
      <trkpt lat="22.852438" lon="110.539215">
        <ele>112.758455</ele>
        <time>2026-08-16T09:42:47.000Z</time>
      </trkpt>
      <trkpt lat="22.852410" lon="110.539242">
        <ele>112.838964</ele>
        <time>2026-08-16T09:42:48.000Z</time>
      </trkpt>
      <trkpt lat="22.852381" lon="110.539269">
        <ele>112.921093</ele>
        <time>2026-08-16T09:42:49.000Z</time>
      </trkpt>
      <trkpt lat="22.852351" lon="110.539296">
        <ele>113.004865</ele>
        <time>2026-08-16T09:42:50.000Z</time>
      </trkpt>
      <trkpt lat="22.852322" lon="110.539322">
        <ele>113.085718</ele>
        <time>2026-08-16T09:42:51.000Z</time>
      </trkpt>
      <trkpt lat="22.852292" lon="110.539347">
        <ele>113.167018</ele>
        <time>2026-08-16T09:42:52.000Z</time>
      </trkpt>
      <trkpt lat="22.852262" lon="110.539372">
        <ele>113.248318</ele>
        <time>2026-08-16T09:42:53.000Z</time>
      </trkpt>
      <trkpt lat="22.852231" lon="110.539399">
        <ele>113.333755</ele>
        <time>2026-08-16T09:42:54.000Z</time>
      </trkpt>
      <trkpt lat="22.852202" lon="110.539427">
        <ele>113.417187</ele>
        <time>2026-08-16T09:42:55.000Z</time>
      </trkpt>
      <trkpt lat="22.852172" lon="110.539455">
        <ele>113.502237</ele>
        <time>2026-08-16T09:42:56.000Z</time>
      </trkpt>
      <trkpt lat="22.852143" lon="110.539480">
        <ele>113.581843</ele>
        <time>2026-08-16T09:42:57.000Z</time>
      </trkpt>
      <trkpt lat="22.852116" lon="110.539503">
        <ele>113.655621</ele>
        <time>2026-08-16T09:42:58.000Z</time>
      </trkpt>
      <trkpt lat="22.852089" lon="110.539526">
        <ele>113.729398</ele>
        <time>2026-08-16T09:42:59.000Z</time>
      </trkpt>
      <trkpt lat="22.852061" lon="110.539548">
        <ele>113.803700</ele>
        <time>2026-08-16T09:43:00.000Z</time>
      </trkpt>
      <trkpt lat="22.852034" lon="110.539571">
        <ele>113.877477</ele>
        <time>2026-08-16T09:43:01.000Z</time>
      </trkpt>
      <trkpt lat="22.852004" lon="110.539591">
        <ele>113.953154</ele>
        <time>2026-08-16T09:43:02.000Z</time>
      </trkpt>
      <trkpt lat="22.851974" lon="110.539611">
        <ele>114.028832</ele>
        <time>2026-08-16T09:43:03.000Z</time>
      </trkpt>
      <trkpt lat="22.851946" lon="110.539632">
        <ele>114.101989</ele>
        <time>2026-08-16T09:43:04.000Z</time>
      </trkpt>
      <trkpt lat="22.851919" lon="110.539654">
        <ele>114.174560</ele>
        <time>2026-08-16T09:43:05.000Z</time>
      </trkpt>
      <trkpt lat="22.851893" lon="110.539679">
        <ele>114.249225</ele>
        <time>2026-08-16T09:43:06.000Z</time>
      </trkpt>
      <trkpt lat="22.851866" lon="110.539701">
        <ele>114.321796</ele>
        <time>2026-08-16T09:43:07.000Z</time>
      </trkpt>
      <trkpt lat="22.851837" lon="110.539722">
        <ele>114.396732</ele>
        <time>2026-08-16T09:43:08.000Z</time>
      </trkpt>
      <trkpt lat="22.851808" lon="110.539744">
        <ele>114.472785</ele>
        <time>2026-08-16T09:43:09.000Z</time>
      </trkpt>
      <trkpt lat="22.851779" lon="110.539764">
        <ele>114.546639</ele>
        <time>2026-08-16T09:43:10.000Z</time>
      </trkpt>
      <trkpt lat="22.851750" lon="110.539785">
        <ele>114.621574</ele>
        <time>2026-08-16T09:43:11.000Z</time>
      </trkpt>
      <trkpt lat="22.851721" lon="110.539808">
        <ele>114.698779</ele>
        <time>2026-08-16T09:43:12.000Z</time>
      </trkpt>
      <trkpt lat="22.851692" lon="110.539831">
        <ele>114.775984</ele>
        <time>2026-08-16T09:43:13.000Z</time>
      </trkpt>
      <trkpt lat="22.851663" lon="110.539853">
        <ele>114.852036</ele>
        <time>2026-08-16T09:43:14.000Z</time>
      </trkpt>
      <trkpt lat="22.851634" lon="110.539873">
        <ele>114.925891</ele>
        <time>2026-08-16T09:43:15.000Z</time>
      </trkpt>
      <trkpt lat="22.851604" lon="110.539894">
        <ele>115.002623</ele>
        <time>2026-08-16T09:43:16.000Z</time>
      </trkpt>
      <trkpt lat="22.851574" lon="110.539914">
        <ele>115.078301</ele>
        <time>2026-08-16T09:43:17.000Z</time>
      </trkpt>
      <trkpt lat="22.851544" lon="110.539934">
        <ele>115.153978</ele>
        <time>2026-08-16T09:43:18.000Z</time>
      </trkpt>
      <trkpt lat="22.851515" lon="110.539951">
        <ele>115.224823</ele>
        <time>2026-08-16T09:43:19.000Z</time>
      </trkpt>
      <trkpt lat="22.851486" lon="110.539969">
        <ele>115.296630</ele>
        <time>2026-08-16T09:43:20.000Z</time>
      </trkpt>
      <trkpt lat="22.851458" lon="110.539988">
        <ele>115.367610</ele>
        <time>2026-08-16T09:43:21.000Z</time>
      </trkpt>
      <trkpt lat="22.851429" lon="110.540009">
        <ele>115.442546</ele>
        <time>2026-08-16T09:43:22.000Z</time>
      </trkpt>
      <trkpt lat="22.851400" lon="110.540029">
        <ele>115.516400</ele>
        <time>2026-08-16T09:43:23.000Z</time>
      </trkpt>
      <trkpt lat="22.851369" lon="110.540050">
        <ele>115.594948</ele>
        <time>2026-08-16T09:43:24.000Z</time>
      </trkpt>
      <trkpt lat="22.851340" lon="110.540071">
        <ele>115.669883</ele>
        <time>2026-08-16T09:43:25.000Z</time>
      </trkpt>
      <trkpt lat="22.851311" lon="110.540094">
        <ele>115.747088</ele>
        <time>2026-08-16T09:43:26.000Z</time>
      </trkpt>
      <trkpt lat="22.851284" lon="110.540115">
        <ele>115.776128</ele>
        <time>2026-08-16T09:43:27.000Z</time>
      </trkpt>
      <trkpt lat="22.851254" lon="110.540136">
        <ele>115.726973</ele>
        <time>2026-08-16T09:43:28.000Z</time>
      </trkpt>
      <trkpt lat="22.851224" lon="110.540159">
        <ele>115.676398</ele>
        <time>2026-08-16T09:43:29.000Z</time>
      </trkpt>
      <trkpt lat="22.851192" lon="110.540181">
        <ele>115.624240</ele>
        <time>2026-08-16T09:43:30.000Z</time>
      </trkpt>
      <trkpt lat="22.851160" lon="110.540202">
        <ele>115.572749</ele>
        <time>2026-08-16T09:43:31.000Z</time>
      </trkpt>
      <trkpt lat="22.851128" lon="110.540226">
        <ele>115.519189</ele>
        <time>2026-08-16T09:43:32.000Z</time>
      </trkpt>
      <trkpt lat="22.851093" lon="110.540249">
        <ele>115.462851</ele>
        <time>2026-08-16T09:43:33.000Z</time>
      </trkpt>
      <trkpt lat="22.851057" lon="110.540274">
        <ele>115.404002</ele>
        <time>2026-08-16T09:43:34.000Z</time>
      </trkpt>
      <trkpt lat="22.851024" lon="110.540298">
        <ele>115.349305</ele>
        <time>2026-08-16T09:43:35.000Z</time>
      </trkpt>
      <trkpt lat="22.850990" lon="110.540322">
        <ele>115.293458</ele>
        <time>2026-08-16T09:43:36.000Z</time>
      </trkpt>
      <trkpt lat="22.850956" lon="110.540347">
        <ele>115.236909</ele>
        <time>2026-08-16T09:43:37.000Z</time>
      </trkpt>
      <trkpt lat="22.850921" lon="110.540371">
        <ele>115.179903</ele>
        <time>2026-08-16T09:43:38.000Z</time>
      </trkpt>
      <trkpt lat="22.850887" lon="110.540399">
        <ele>115.121134</ele>
        <time>2026-08-16T09:43:39.000Z</time>
      </trkpt>
      <trkpt lat="22.850851" lon="110.540427">
        <ele>115.060150</ele>
        <time>2026-08-16T09:43:40.000Z</time>
      </trkpt>
      <trkpt lat="22.850819" lon="110.540456">
        <ele>115.002745</ele>
        <time>2026-08-16T09:43:41.000Z</time>
      </trkpt>
      <trkpt lat="22.850782" lon="110.540485">
        <ele>114.939902</ele>
        <time>2026-08-16T09:43:42.000Z</time>
      </trkpt>
      <trkpt lat="22.850742" lon="110.540515">
        <ele>114.872952</ele>
        <time>2026-08-16T09:43:43.000Z</time>
      </trkpt>
      <trkpt lat="22.850701" lon="110.540546">
        <ele>114.804148</ele>
        <time>2026-08-16T09:43:44.000Z</time>
      </trkpt>
      <trkpt lat="22.850661" lon="110.540576">
        <ele>114.737199</ele>
        <time>2026-08-16T09:43:45.000Z</time>
      </trkpt>
      <trkpt lat="22.850620" lon="110.540605">
        <ele>114.669813</ele>
        <time>2026-08-16T09:43:46.000Z</time>
      </trkpt>
      <trkpt lat="22.850579" lon="110.540635">
        <ele>114.601727</ele>
        <time>2026-08-16T09:43:47.000Z</time>
      </trkpt>
      <trkpt lat="22.850539" lon="110.540664">
        <ele>114.535490</ele>
        <time>2026-08-16T09:43:48.000Z</time>
      </trkpt>
      <trkpt lat="22.850496" lon="110.540694">
        <ele>114.465104</ele>
        <time>2026-08-16T09:43:49.000Z</time>
      </trkpt>
      <trkpt lat="22.850452" lon="110.540724">
        <ele>114.393555</ele>
        <time>2026-08-16T09:43:50.000Z</time>
      </trkpt>
      <trkpt lat="22.850406" lon="110.540757">
        <ele>114.317629</ele>
        <time>2026-08-16T09:43:51.000Z</time>
      </trkpt>
      <trkpt lat="22.850361" lon="110.540792">
        <ele>114.241398</ele>
        <time>2026-08-16T09:43:52.000Z</time>
      </trkpt>
      <trkpt lat="22.850314" lon="110.540826">
        <ele>114.163623</ele>
        <time>2026-08-16T09:43:53.000Z</time>
      </trkpt>
      <trkpt lat="22.850265" lon="110.540860">
        <ele>114.083542</ele>
        <time>2026-08-16T09:43:54.000Z</time>
      </trkpt>
      <trkpt lat="22.850214" lon="110.540896">
        <ele>113.999772</ele>
        <time>2026-08-16T09:43:55.000Z</time>
      </trkpt>
      <trkpt lat="22.850165" lon="110.540934">
        <ele>113.916847</ele>
        <time>2026-08-16T09:43:56.000Z</time>
      </trkpt>
      <trkpt lat="22.850115" lon="110.540971">
        <ele>113.833519</ele>
        <time>2026-08-16T09:43:57.000Z</time>
      </trkpt>
      <trkpt lat="22.850065" lon="110.541007">
        <ele>113.750899</ele>
        <time>2026-08-16T09:43:58.000Z</time>
      </trkpt>
      <trkpt lat="22.850014" lon="110.541044">
        <ele>113.666430</ele>
        <time>2026-08-16T09:43:59.000Z</time>
      </trkpt>
      <trkpt lat="22.849962" lon="110.541084">
        <ele>113.578668</ele>
        <time>2026-08-16T09:44:00.000Z</time>
      </trkpt>
      <trkpt lat="22.849908" lon="110.541125">
        <ele>113.487924</ele>
        <time>2026-08-16T09:44:01.000Z</time>
      </trkpt>
      <trkpt lat="22.849854" lon="110.541165">
        <ele>113.397901</ele>
        <time>2026-08-16T09:44:02.000Z</time>
      </trkpt>
      <trkpt lat="22.849799" lon="110.541206">
        <ele>113.297870</ele>
        <time>2026-08-16T09:44:03.000Z</time>
      </trkpt>
      <trkpt lat="22.849744" lon="110.541247">
        <ele>113.131942</ele>
        <time>2026-08-16T09:44:04.000Z</time>
      </trkpt>
      <trkpt lat="22.849687" lon="110.541289">
        <ele>112.960614</ele>
        <time>2026-08-16T09:44:05.000Z</time>
      </trkpt>
      <trkpt lat="22.849630" lon="110.541332">
        <ele>112.787988</ele>
        <time>2026-08-16T09:44:06.000Z</time>
      </trkpt>
      <trkpt lat="22.849570" lon="110.541375">
        <ele>112.609187</ele>
        <time>2026-08-16T09:44:07.000Z</time>
      </trkpt>
      <trkpt lat="22.849512" lon="110.541417">
        <ele>112.435796</ele>
        <time>2026-08-16T09:44:08.000Z</time>
      </trkpt>
      <trkpt lat="22.849452" lon="110.541459">
        <ele>112.258247</ele>
        <time>2026-08-16T09:44:09.000Z</time>
      </trkpt>
      <trkpt lat="22.849391" lon="110.541501">
        <ele>112.078603</ele>
        <time>2026-08-16T09:44:10.000Z</time>
      </trkpt>
      <trkpt lat="22.849330" lon="110.541543">
        <ele>111.898959</ele>
        <time>2026-08-16T09:44:11.000Z</time>
      </trkpt>
      <trkpt lat="22.849268" lon="110.541586">
        <ele>111.715987</ele>
        <time>2026-08-16T09:44:12.000Z</time>
      </trkpt>
      <trkpt lat="22.849206" lon="110.541630">
        <ele>111.531771</ele>
        <time>2026-08-16T09:44:13.000Z</time>
      </trkpt>
      <trkpt lat="22.849143" lon="110.541673">
        <ele>111.346698</ele>
        <time>2026-08-16T09:44:14.000Z</time>
      </trkpt>
      <trkpt lat="22.849081" lon="110.541717">
        <ele>111.162482</ele>
        <time>2026-08-16T09:44:15.000Z</time>
      </trkpt>
      <trkpt lat="22.849018" lon="110.541762">
        <ele>110.974929</ele>
        <time>2026-08-16T09:44:16.000Z</time>
      </trkpt>
      <trkpt lat="22.848954" lon="110.541808">
        <ele>110.784039</ele>
        <time>2026-08-16T09:44:17.000Z</time>
      </trkpt>
      <trkpt lat="22.848888" lon="110.541854">
        <ele>110.588983</ele>
        <time>2026-08-16T09:44:18.000Z</time>
      </trkpt>
      <trkpt lat="22.848823" lon="110.541900">
        <ele>110.396014</ele>
        <time>2026-08-16T09:44:19.000Z</time>
      </trkpt>
      <trkpt lat="22.848757" lon="110.541946">
        <ele>110.200958</ele>
        <time>2026-08-16T09:44:20.000Z</time>
      </trkpt>
      <trkpt lat="22.848690" lon="110.541989">
        <ele>110.007393</ele>
        <time>2026-08-16T09:44:21.000Z</time>
      </trkpt>
      <trkpt lat="22.848621" lon="110.542032">
        <ele>109.809532</ele>
        <time>2026-08-16T09:44:22.000Z</time>
      </trkpt>
      <trkpt lat="22.848552" lon="110.542074">
        <ele>109.612801</ele>
        <time>2026-08-16T09:44:23.000Z</time>
      </trkpt>
      <trkpt lat="22.848482" lon="110.542117">
        <ele>109.412779</ele>
        <time>2026-08-16T09:44:24.000Z</time>
      </trkpt>
      <trkpt lat="22.848411" lon="110.542156">
        <ele>109.214895</ele>
        <time>2026-08-16T09:44:25.000Z</time>
      </trkpt>
      <trkpt lat="22.848338" lon="110.542194">
        <ele>109.013562</ele>
        <time>2026-08-16T09:44:26.000Z</time>
      </trkpt>
      <trkpt lat="22.848269" lon="110.542235">
        <ele>108.841232</ele>
        <time>2026-08-16T09:44:27.000Z</time>
      </trkpt>
      <trkpt lat="22.848200" lon="110.542278">
        <ele>108.823578</ele>
        <time>2026-08-16T09:44:28.000Z</time>
      </trkpt>
      <trkpt lat="22.848134" lon="110.542320">
        <ele>108.806602</ele>
        <time>2026-08-16T09:44:29.000Z</time>
      </trkpt>
      <trkpt lat="22.848070" lon="110.542366">
        <ele>108.789571</ele>
        <time>2026-08-16T09:44:30.000Z</time>
      </trkpt>
      <trkpt lat="22.848006" lon="110.542410">
        <ele>108.772761</ele>
        <time>2026-08-16T09:44:31.000Z</time>
      </trkpt>
      <trkpt lat="22.847942" lon="110.542451">
        <ele>108.756272</ele>
        <time>2026-08-16T09:44:32.000Z</time>
      </trkpt>
      <trkpt lat="22.847877" lon="110.542491">
        <ele>108.739693</ele>
        <time>2026-08-16T09:44:33.000Z</time>
      </trkpt>
      <trkpt lat="22.847815" lon="110.542530">
        <ele>108.723793</ele>
        <time>2026-08-16T09:44:34.000Z</time>
      </trkpt>
      <trkpt lat="22.847754" lon="110.542566">
        <ele>108.708387</ele>
        <time>2026-08-16T09:44:35.000Z</time>
      </trkpt>
      <trkpt lat="22.847694" lon="110.542600">
        <ele>108.693369</ele>
        <time>2026-08-16T09:44:36.000Z</time>
      </trkpt>
      <trkpt lat="22.847634" lon="110.542632">
        <ele>108.678536</ele>
        <time>2026-08-16T09:44:37.000Z</time>
      </trkpt>
      <trkpt lat="22.847577" lon="110.542664">
        <ele>108.664298</ele>
        <time>2026-08-16T09:44:38.000Z</time>
      </trkpt>
      <trkpt lat="22.847520" lon="110.542696">
        <ele>108.650059</ele>
        <time>2026-08-16T09:44:39.000Z</time>
      </trkpt>
      <trkpt lat="22.847463" lon="110.542727">
        <ele>108.635913</ele>
        <time>2026-08-16T09:44:40.000Z</time>
      </trkpt>
      <trkpt lat="22.847408" lon="110.542758">
        <ele>108.622162</ele>
        <time>2026-08-16T09:44:41.000Z</time>
      </trkpt>
      <trkpt lat="22.847354" lon="110.542789">
        <ele>108.608608</ele>
        <time>2026-08-16T09:44:42.000Z</time>
      </trkpt>
      <trkpt lat="22.847302" lon="110.542824">
        <ele>108.595032</ele>
        <time>2026-08-16T09:44:43.000Z</time>
      </trkpt>
      <trkpt lat="22.847251" lon="110.542855">
        <ele>108.582062</ele>
        <time>2026-08-16T09:44:44.000Z</time>
      </trkpt>
      <trkpt lat="22.847202" lon="110.542885">
        <ele>108.569580</ele>
        <time>2026-08-16T09:44:45.000Z</time>
      </trkpt>
      <trkpt lat="22.847153" lon="110.542916">
        <ele>108.556996</ele>
        <time>2026-08-16T09:44:46.000Z</time>
      </trkpt>
      <trkpt lat="22.847102" lon="110.542944">
        <ele>108.544315</ele>
        <time>2026-08-16T09:44:47.000Z</time>
      </trkpt>
      <trkpt lat="22.847052" lon="110.542973">
        <ele>108.531736</ele>
        <time>2026-08-16T09:44:48.000Z</time>
      </trkpt>
      <trkpt lat="22.847005" lon="110.542998">
        <ele>108.520123</ele>
        <time>2026-08-16T09:44:49.000Z</time>
      </trkpt>
      <trkpt lat="22.846958" lon="110.543024">
        <ele>108.508418</ele>
        <time>2026-08-16T09:44:50.000Z</time>
      </trkpt>
      <trkpt lat="22.846910" lon="110.543052">
        <ele>108.496327</ele>
        <time>2026-08-16T09:44:51.000Z</time>
      </trkpt>
      <trkpt lat="22.846862" lon="110.543078">
        <ele>108.484425</ele>
        <time>2026-08-16T09:44:52.000Z</time>
      </trkpt>
      <trkpt lat="22.846813" lon="110.543105">
        <ele>108.472232</ele>
        <time>2026-08-16T09:44:53.000Z</time>
      </trkpt>
      <trkpt lat="22.846764" lon="110.543132">
        <ele>108.460039</ele>
        <time>2026-08-16T09:44:54.000Z</time>
      </trkpt>
      <trkpt lat="22.846716" lon="110.543160">
        <ele>108.447948</ele>
        <time>2026-08-16T09:44:55.000Z</time>
      </trkpt>
      <trkpt lat="22.846668" lon="110.543190">
        <ele>108.449630</ele>
        <time>2026-08-16T09:44:56.000Z</time>
      </trkpt>
      <trkpt lat="22.846621" lon="110.543219">
        <ele>108.456692</ele>
        <time>2026-08-16T09:44:57.000Z</time>
      </trkpt>
      <trkpt lat="22.846574" lon="110.543244">
        <ele>108.463528</ele>
        <time>2026-08-16T09:44:58.000Z</time>
      </trkpt>
      <trkpt lat="22.846528" lon="110.543271">
        <ele>108.470359</ele>
        <time>2026-08-16T09:44:59.000Z</time>
      </trkpt>
      <trkpt lat="22.846481" lon="110.543300">
        <ele>108.477421</ele>
        <time>2026-08-16T09:45:00.000Z</time>
      </trkpt>
      <trkpt lat="22.846433" lon="110.543326">
        <ele>108.484428</ele>
        <time>2026-08-16T09:45:01.000Z</time>
      </trkpt>
      <trkpt lat="22.846386" lon="110.543350">
        <ele>108.491213</ele>
        <time>2026-08-16T09:45:02.000Z</time>
      </trkpt>
      <trkpt lat="22.846336" lon="110.543375">
        <ele>108.498403</ele>
        <time>2026-08-16T09:45:03.000Z</time>
      </trkpt>
      <trkpt lat="22.846287" lon="110.543400">
        <ele>108.505476</ele>
        <time>2026-08-16T09:45:04.000Z</time>
      </trkpt>
      <trkpt lat="22.846239" lon="110.543423">
        <ele>108.512329</ele>
        <time>2026-08-16T09:45:05.000Z</time>
      </trkpt>
      <trkpt lat="22.846192" lon="110.543447">
        <ele>108.519114</ele>
        <time>2026-08-16T09:45:06.000Z</time>
      </trkpt>
      <trkpt lat="22.846145" lon="110.543473">
        <ele>108.526004</ele>
        <time>2026-08-16T09:45:07.000Z</time>
      </trkpt>
      <trkpt lat="22.846098" lon="110.543497">
        <ele>108.532789</ele>
        <time>2026-08-16T09:45:08.000Z</time>
      </trkpt>
      <trkpt lat="22.846053" lon="110.543523">
        <ele>108.539447</ele>
        <time>2026-08-16T09:45:09.000Z</time>
      </trkpt>
      <trkpt lat="22.846007" lon="110.543547">
        <ele>108.546114</ele>
        <time>2026-08-16T09:45:10.000Z</time>
      </trkpt>
      <trkpt lat="22.845967" lon="110.543573">
        <ele>108.552204</ele>
        <time>2026-08-16T09:45:11.000Z</time>
      </trkpt>
      <trkpt lat="22.845926" lon="110.543599">
        <ele>108.558407</ele>
        <time>2026-08-16T09:45:12.000Z</time>
      </trkpt>
      <trkpt lat="22.845884" lon="110.543625">
        <ele>108.564722</ele>
        <time>2026-08-16T09:45:13.000Z</time>
      </trkpt>
      <trkpt lat="22.845843" lon="110.543649">
        <ele>108.570807</ele>
        <time>2026-08-16T09:45:14.000Z</time>
      </trkpt>
      <trkpt lat="22.845803" lon="110.543672">
        <ele>108.576720</ele>
        <time>2026-08-16T09:45:15.000Z</time>
      </trkpt>
      <trkpt lat="22.845763" lon="110.543699">
        <ele>108.582873</ele>
        <time>2026-08-16T09:45:16.000Z</time>
      </trkpt>
      <trkpt lat="22.845722" lon="110.543730">
        <ele>108.589400</ele>
        <time>2026-08-16T09:45:17.000Z</time>
      </trkpt>
      <trkpt lat="22.845684" lon="110.543759">
        <ele>108.595467</ele>
        <time>2026-08-16T09:45:18.000Z</time>
      </trkpt>
      <trkpt lat="22.845657" lon="110.543785">
        <ele>108.600182</ele>
        <time>2026-08-16T09:45:19.000Z</time>
      </trkpt>
      <trkpt lat="22.845641" lon="110.543805">
        <ele>108.603370</ele>
        <time>2026-08-16T09:45:20.000Z</time>
      </trkpt>
      <trkpt lat="22.845635" lon="110.543809">
        <ele>108.604290</ele>
        <time>2026-08-16T09:45:21.000Z</time>
      </trkpt>
      <trkpt lat="22.845634" lon="110.543810">
        <ele>108.604468</ele>
        <time>2026-08-16T09:45:22.000Z</time>
      </trkpt>
      <trkpt lat="22.845603" lon="110.543826">
        <ele>108.608951</ele>
        <time>2026-08-16T09:45:29.000Z</time>
      </trkpt>
      <trkpt lat="22.845586" lon="110.543838">
        <ele>108.611600</ele>
        <time>2026-08-16T09:45:30.000Z</time>
      </trkpt>
      <trkpt lat="22.845571" lon="110.543851">
        <ele>108.614108</ele>
        <time>2026-08-16T09:45:31.000Z</time>
      </trkpt>
      <trkpt lat="22.845553" lon="110.543870">
        <ele>108.617387</ele>
        <time>2026-08-16T09:45:32.000Z</time>
      </trkpt>
      <trkpt lat="22.845530" lon="110.543890">
        <ele>108.621237</ele>
        <time>2026-08-16T09:45:33.000Z</time>
      </trkpt>
      <trkpt lat="22.845504" lon="110.543914">
        <ele>108.625696</ele>
        <time>2026-08-16T09:45:34.000Z</time>
      </trkpt>
      <trkpt lat="22.845479" lon="110.543943">
        <ele>108.630475</ele>
        <time>2026-08-16T09:45:35.000Z</time>
      </trkpt>
      <trkpt lat="22.845460" lon="110.543981">
        <ele>108.635679</ele>
        <time>2026-08-16T09:45:36.000Z</time>
      </trkpt>
      <trkpt lat="22.845447" lon="110.544022">
        <ele>108.640898</ele>
        <time>2026-08-16T09:45:37.000Z</time>
      </trkpt>
      <trkpt lat="22.845435" lon="110.544065">
        <ele>108.646306</ele>
        <time>2026-08-16T09:45:38.000Z</time>
      </trkpt>
      <trkpt lat="22.845427" lon="110.544111">
        <ele>108.651941</ele>
        <time>2026-08-16T09:45:39.000Z</time>
      </trkpt>
      <trkpt lat="22.845421" lon="110.544156">
        <ele>108.657414</ele>
        <time>2026-08-16T09:45:40.000Z</time>
      </trkpt>
      <trkpt lat="22.845422" lon="110.544203">
        <ele>108.663072</ele>
        <time>2026-08-16T09:45:41.000Z</time>
      </trkpt>
      <trkpt lat="22.845426" lon="110.544254">
        <ele>108.669233</ele>
        <time>2026-08-16T09:45:42.000Z</time>
      </trkpt>
      <trkpt lat="22.845435" lon="110.544305">
        <ele>108.675484</ele>
        <time>2026-08-16T09:45:43.000Z</time>
      </trkpt>
      <trkpt lat="22.845447" lon="110.544356">
        <ele>108.659139</ele>
        <time>2026-08-16T09:45:44.000Z</time>
      </trkpt>
      <trkpt lat="22.845465" lon="110.544407">
        <ele>108.604615</ele>
        <time>2026-08-16T09:45:45.000Z</time>
      </trkpt>
      <trkpt lat="22.845489" lon="110.544459">
        <ele>108.546551</ele>
        <time>2026-08-16T09:45:46.000Z</time>
      </trkpt>
      <trkpt lat="22.845513" lon="110.544514">
        <ele>108.485794</ele>
        <time>2026-08-16T09:45:47.000Z</time>
      </trkpt>
      <trkpt lat="22.845537" lon="110.544569">
        <ele>108.425037</ele>
        <time>2026-08-16T09:45:48.000Z</time>
      </trkpt>
      <trkpt lat="22.845562" lon="110.544625">
        <ele>108.362912</ele>
        <time>2026-08-16T09:45:49.000Z</time>
      </trkpt>
      <trkpt lat="22.845589" lon="110.544680">
        <ele>108.300695</ele>
        <time>2026-08-16T09:45:50.000Z</time>
      </trkpt>
      <trkpt lat="22.845617" lon="110.544735">
        <ele>108.237962</ele>
        <time>2026-08-16T09:45:51.000Z</time>
      </trkpt>
      <trkpt lat="22.845645" lon="110.544791">
        <ele>108.174352</ele>
        <time>2026-08-16T09:45:52.000Z</time>
      </trkpt>
      <trkpt lat="22.845675" lon="110.544848">
        <ele>108.108816</ele>
        <time>2026-08-16T09:45:53.000Z</time>
      </trkpt>
      <trkpt lat="22.845705" lon="110.544904">
        <ele>108.044146</ele>
        <time>2026-08-16T09:45:54.000Z</time>
      </trkpt>
      <trkpt lat="22.845739" lon="110.544958">
        <ele>107.978851</ele>
        <time>2026-08-16T09:45:55.000Z</time>
      </trkpt>
      <trkpt lat="22.845775" lon="110.545014">
        <ele>107.910681</ele>
        <time>2026-08-16T09:45:56.000Z</time>
      </trkpt>
      <trkpt lat="22.845809" lon="110.545070">
        <ele>107.843727</ele>
        <time>2026-08-16T09:45:57.000Z</time>
      </trkpt>
      <trkpt lat="22.845841" lon="110.545128">
        <ele>107.776236</ele>
        <time>2026-08-16T09:45:58.000Z</time>
      </trkpt>
      <trkpt lat="22.845873" lon="110.545186">
        <ele>107.708744</ele>
        <time>2026-08-16T09:45:59.000Z</time>
      </trkpt>
      <trkpt lat="22.845904" lon="110.545244">
        <ele>107.641803</ele>
        <time>2026-08-16T09:46:00.000Z</time>
      </trkpt>
      <trkpt lat="22.845937" lon="110.545304">
        <ele>107.572042</ele>
        <time>2026-08-16T09:46:01.000Z</time>
      </trkpt>
      <trkpt lat="22.845974" lon="110.545358">
        <ele>107.504859</ele>
        <time>2026-08-16T09:46:02.000Z</time>
      </trkpt>
      <trkpt lat="22.846010" lon="110.545412">
        <ele>107.438318</ele>
        <time>2026-08-16T09:46:03.000Z</time>
      </trkpt>
      <trkpt lat="22.846041" lon="110.545467">
        <ele>107.373950</ele>
        <time>2026-08-16T09:46:04.000Z</time>
      </trkpt>
      <trkpt lat="22.846077" lon="110.545521">
        <ele>107.307408</ele>
        <time>2026-08-16T09:46:05.000Z</time>
      </trkpt>
      <trkpt lat="22.846117" lon="110.545573">
        <ele>107.239782</ele>
        <time>2026-08-16T09:46:06.000Z</time>
      </trkpt>
      <trkpt lat="22.846154" lon="110.545625">
        <ele>107.174192</ele>
        <time>2026-08-16T09:46:07.000Z</time>
      </trkpt>
      <trkpt lat="22.846191" lon="110.545679">
        <ele>107.107009</ele>
        <time>2026-08-16T09:46:08.000Z</time>
      </trkpt>
      <trkpt lat="22.846221" lon="110.545730">
        <ele>107.046603</ele>
        <time>2026-08-16T09:46:09.000Z</time>
      </trkpt>
      <trkpt lat="22.846267" lon="110.545776">
        <ele>106.978832</ele>
        <time>2026-08-16T09:46:10.000Z</time>
      </trkpt>
      <trkpt lat="22.846311" lon="110.545828">
        <ele>106.908351</ele>
        <time>2026-08-16T09:46:11.000Z</time>
      </trkpt>
      <trkpt lat="22.846342" lon="110.545892">
        <ele>106.836165</ele>
        <time>2026-08-16T09:46:12.000Z</time>
      </trkpt>
      <trkpt lat="22.846370" lon="110.545958">
        <ele>106.763624</ele>
        <time>2026-08-16T09:46:13.000Z</time>
      </trkpt>
      <trkpt lat="22.846400" lon="110.546026">
        <ele>106.716699</ele>
        <time>2026-08-16T09:46:14.000Z</time>
      </trkpt>
      <trkpt lat="22.846442" lon="110.546087">
        <ele>106.691494</ele>
        <time>2026-08-16T09:46:15.000Z</time>
      </trkpt>
      <trkpt lat="22.846484" lon="110.546147">
        <ele>106.666553</ele>
        <time>2026-08-16T09:46:16.000Z</time>
      </trkpt>
      <trkpt lat="22.846527" lon="110.546204">
        <ele>106.642169</ele>
        <time>2026-08-16T09:46:17.000Z</time>
      </trkpt>
      <trkpt lat="22.846567" lon="110.546265">
        <ele>106.617387</ele>
        <time>2026-08-16T09:46:18.000Z</time>
      </trkpt>
      <trkpt lat="22.846608" lon="110.546326">
        <ele>106.592394</ele>
        <time>2026-08-16T09:46:19.000Z</time>
      </trkpt>
      <trkpt lat="22.846650" lon="110.546388">
        <ele>106.566923</ele>
        <time>2026-08-16T09:46:20.000Z</time>
      </trkpt>
      <trkpt lat="22.846691" lon="110.546447">
        <ele>106.542462</ele>
        <time>2026-08-16T09:46:21.000Z</time>
      </trkpt>
      <trkpt lat="22.846733" lon="110.546507">
        <ele>106.517521</ele>
        <time>2026-08-16T09:46:22.000Z</time>
      </trkpt>
      <trkpt lat="22.846772" lon="110.546567">
        <ele>106.493217</ele>
        <time>2026-08-16T09:46:23.000Z</time>
      </trkpt>
      <trkpt lat="22.846814" lon="110.546627">
        <ele>106.468276</ele>
        <time>2026-08-16T09:46:24.000Z</time>
      </trkpt>
      <trkpt lat="22.846851" lon="110.546686">
        <ele>106.444652</ele>
        <time>2026-08-16T09:46:25.000Z</time>
      </trkpt>
      <trkpt lat="22.846886" lon="110.546744">
        <ele>106.421703</ele>
        <time>2026-08-16T09:46:26.000Z</time>
      </trkpt>
      <trkpt lat="22.846920" lon="110.546799">
        <ele>106.399781</ele>
        <time>2026-08-16T09:46:27.000Z</time>
      </trkpt>
      <trkpt lat="22.846962" lon="110.546850">
        <ele>106.377140</ele>
        <time>2026-08-16T09:46:28.000Z</time>
      </trkpt>
      <trkpt lat="22.846999" lon="110.546906">
        <ele>106.354331</ele>
        <time>2026-08-16T09:46:29.000Z</time>
      </trkpt>
      <trkpt lat="22.847034" lon="110.546962">
        <ele>106.331933</ele>
        <time>2026-08-16T09:46:30.000Z</time>
      </trkpt>
      <trkpt lat="22.847069" lon="110.547017">
        <ele>106.309808</ele>
        <time>2026-08-16T09:46:31.000Z</time>
      </trkpt>
      <trkpt lat="22.847109" lon="110.547069">
        <ele>106.287387</ele>
        <time>2026-08-16T09:46:32.000Z</time>
      </trkpt>
      <trkpt lat="22.847152" lon="110.547117">
        <ele>106.265228</ele>
        <time>2026-08-16T09:46:33.000Z</time>
      </trkpt>
      <trkpt lat="22.847190" lon="110.547169">
        <ele>106.243260</ele>
        <time>2026-08-16T09:46:34.000Z</time>
      </trkpt>
      <trkpt lat="22.847221" lon="110.547220">
        <ele>106.223036</ele>
        <time>2026-08-16T09:46:35.000Z</time>
      </trkpt>
      <trkpt lat="22.847252" lon="110.547269">
        <ele>106.203362</ele>
        <time>2026-08-16T09:46:36.000Z</time>
      </trkpt>
      <trkpt lat="22.847283" lon="110.547318">
        <ele>106.183688</ele>
        <time>2026-08-16T09:46:37.000Z</time>
      </trkpt>
      <trkpt lat="22.847301" lon="110.547371">
        <ele>106.164990</ele>
        <time>2026-08-16T09:46:38.000Z</time>
      </trkpt>
      <trkpt lat="22.847322" lon="110.547422">
        <ele>106.146500</ele>
        <time>2026-08-16T09:46:39.000Z</time>
      </trkpt>
      <trkpt lat="22.847333" lon="110.547475">
        <ele>106.128516</ele>
        <time>2026-08-16T09:46:40.000Z</time>
      </trkpt>
      <trkpt lat="22.847339" lon="110.547526">
        <ele>106.111498</ele>
        <time>2026-08-16T09:46:41.000Z</time>
      </trkpt>
      <trkpt lat="22.847335" lon="110.547573">
        <ele>106.095874</ele>
        <time>2026-08-16T09:46:42.000Z</time>
      </trkpt>
      <trkpt lat="22.847319" lon="110.547612">
        <ele>106.095746</ele>
        <time>2026-08-16T09:46:43.000Z</time>
      </trkpt>
      <trkpt lat="22.847294" lon="110.547648">
        <ele>106.151755</ele>
        <time>2026-08-16T09:46:44.000Z</time>
      </trkpt>
      <trkpt lat="22.847264" lon="110.547678">
        <ele>106.206760</ele>
        <time>2026-08-16T09:46:45.000Z</time>
      </trkpt>
      <trkpt lat="22.847229" lon="110.547707">
        <ele>106.266134</ele>
        <time>2026-08-16T09:46:46.000Z</time>
      </trkpt>
      <trkpt lat="22.847192" lon="110.547735">
        <ele>106.326954</ele>
        <time>2026-08-16T09:46:47.000Z</time>
      </trkpt>
      <trkpt lat="22.847159" lon="110.547766">
        <ele>106.385804</ele>
        <time>2026-08-16T09:46:48.000Z</time>
      </trkpt>
      <trkpt lat="22.847123" lon="110.547797">
        <ele>106.447768</ele>
        <time>2026-08-16T09:46:49.000Z</time>
      </trkpt>
      <trkpt lat="22.847087" lon="110.547831">
        <ele>106.512116</ele>
        <time>2026-08-16T09:46:50.000Z</time>
      </trkpt>
      <trkpt lat="22.847050" lon="110.547864">
        <ele>106.576691</ele>
        <time>2026-08-16T09:46:51.000Z</time>
      </trkpt>
      <trkpt lat="22.847011" lon="110.547892">
        <ele>106.639742</ele>
        <time>2026-08-16T09:46:52.000Z</time>
      </trkpt>
      <trkpt lat="22.846973" lon="110.547922">
        <ele>106.703102</ele>
        <time>2026-08-16T09:46:53.000Z</time>
      </trkpt>
      <trkpt lat="22.846936" lon="110.547953">
        <ele>106.766128</ele>
        <time>2026-08-16T09:46:54.000Z</time>
      </trkpt>
      <trkpt lat="22.846897" lon="110.547982">
        <ele>106.829873</ele>
        <time>2026-08-16T09:46:55.000Z</time>
      </trkpt>
      <trkpt lat="22.846853" lon="110.548011">
        <ele>106.899283</ele>
        <time>2026-08-16T09:46:56.000Z</time>
      </trkpt>
      <trkpt lat="22.846816" lon="110.548043">
        <ele>106.963077</ele>
        <time>2026-08-16T09:46:57.000Z</time>
      </trkpt>
      <trkpt lat="22.846780" lon="110.548077">
        <ele>107.027425</ele>
        <time>2026-08-16T09:46:58.000Z</time>
      </trkpt>
      <trkpt lat="22.846742" lon="110.548109">
        <ele>107.092278</ele>
        <time>2026-08-16T09:46:59.000Z</time>
      </trkpt>
      <trkpt lat="22.846695" lon="110.548128">
        <ele>107.159902</ele>
        <time>2026-08-16T09:47:00.000Z</time>
      </trkpt>
      <trkpt lat="22.846656" lon="110.548158">
        <ele>107.224357</ele>
        <time>2026-08-16T09:47:01.000Z</time>
      </trkpt>
      <trkpt lat="22.846610" lon="110.548180">
        <ele>107.292135</ele>
        <time>2026-08-16T09:47:02.000Z</time>
      </trkpt>
      <trkpt lat="22.846559" lon="110.548193">
        <ele>107.362770</ele>
        <time>2026-08-16T09:47:03.000Z</time>
      </trkpt>
      <trkpt lat="22.846521" lon="110.548222">
        <ele>107.425407</ele>
        <time>2026-08-16T09:47:04.000Z</time>
      </trkpt>
      <trkpt lat="22.846478" lon="110.548239">
        <ele>107.487112</ele>
        <time>2026-08-16T09:47:05.000Z</time>
      </trkpt>
      <trkpt lat="22.846436" lon="110.548262">
        <ele>107.550542</ele>
        <time>2026-08-16T09:47:06.000Z</time>
      </trkpt>
      <trkpt lat="22.846394" lon="110.548283">
        <ele>107.612893</ele>
        <time>2026-08-16T09:47:07.000Z</time>
      </trkpt>
      <trkpt lat="22.846355" lon="110.548307">
        <ele>107.673344</ele>
        <time>2026-08-16T09:47:08.000Z</time>
      </trkpt>
      <trkpt lat="22.846320" lon="110.548335">
        <ele>107.731972</ele>
        <time>2026-08-16T09:47:09.000Z</time>
      </trkpt>
      <trkpt lat="22.846286" lon="110.548361">
        <ele>107.788053</ele>
        <time>2026-08-16T09:47:10.000Z</time>
      </trkpt>
      <trkpt lat="22.846251" lon="110.548385">
        <ele>107.843876</ele>
        <time>2026-08-16T09:47:11.000Z</time>
      </trkpt>
      <trkpt lat="22.846217" lon="110.548410">
        <ele>107.899251</ele>
        <time>2026-08-16T09:47:12.000Z</time>
      </trkpt>
      <trkpt lat="22.846185" lon="110.548436">
        <ele>107.953151</ele>
        <time>2026-08-16T09:47:13.000Z</time>
      </trkpt>
      <trkpt lat="22.846150" lon="110.548458">
        <ele>108.007686</ele>
        <time>2026-08-16T09:47:14.000Z</time>
      </trkpt>
      <trkpt lat="22.846120" lon="110.548484">
        <ele>108.059453</ele>
        <time>2026-08-16T09:47:15.000Z</time>
      </trkpt>
      <trkpt lat="22.846089" lon="110.548508">
        <ele>108.110797</ele>
        <time>2026-08-16T09:47:16.000Z</time>
      </trkpt>
      <trkpt lat="22.846057" lon="110.548532">
        <ele>108.163245</ele>
        <time>2026-08-16T09:47:17.000Z</time>
      </trkpt>
      <trkpt lat="22.846027" lon="110.548561">
        <ele>108.217416</ele>
        <time>2026-08-16T09:47:18.000Z</time>
      </trkpt>
      <trkpt lat="22.845997" lon="110.548585">
        <ele>108.267669</ele>
        <time>2026-08-16T09:47:19.000Z</time>
      </trkpt>
      <trkpt lat="22.845966" lon="110.548607">
        <ele>108.317611</ele>
        <time>2026-08-16T09:47:20.000Z</time>
      </trkpt>
      <trkpt lat="22.845933" lon="110.548630">
        <ele>108.370492</ele>
        <time>2026-08-16T09:47:21.000Z</time>
      </trkpt>
      <trkpt lat="22.845900" lon="110.548651">
        <ele>108.422072</ele>
        <time>2026-08-16T09:47:22.000Z</time>
      </trkpt>
      <trkpt lat="22.845867" lon="110.548671">
        <ele>108.473035</ele>
        <time>2026-08-16T09:47:23.000Z</time>
      </trkpt>
      <trkpt lat="22.845833" lon="110.548693">
        <ele>108.535244</ele>
        <time>2026-08-16T09:47:24.000Z</time>
      </trkpt>
      <trkpt lat="22.845801" lon="110.548715">
        <ele>108.613467</ele>
        <time>2026-08-16T09:47:25.000Z</time>
      </trkpt>
      <trkpt lat="22.845770" lon="110.548738">
        <ele>108.691011</ele>
        <time>2026-08-16T09:47:26.000Z</time>
      </trkpt>
      <trkpt lat="22.845738" lon="110.548759">
        <ele>108.768232</ele>
        <time>2026-08-16T09:47:27.000Z</time>
      </trkpt>
      <trkpt lat="22.845706" lon="110.548782">
        <ele>108.847489</ele>
        <time>2026-08-16T09:47:28.000Z</time>
      </trkpt>
      <trkpt lat="22.845677" lon="110.548805">
        <ele>108.921661</ele>
        <time>2026-08-16T09:47:29.000Z</time>
      </trkpt>
      <trkpt lat="22.845646" lon="110.548828">
        <ele>108.999205</ele>
        <time>2026-08-16T09:47:30.000Z</time>
      </trkpt>
      <trkpt lat="22.845615" lon="110.548850">
        <ele>109.075692</ele>
        <time>2026-08-16T09:47:31.000Z</time>
      </trkpt>
      <trkpt lat="22.845586" lon="110.548875">
        <ele>109.152171</ele>
        <time>2026-08-16T09:47:32.000Z</time>
      </trkpt>
      <trkpt lat="22.845556" lon="110.548899">
        <ele>109.229133</ele>
        <time>2026-08-16T09:47:33.000Z</time>
      </trkpt>
      <trkpt lat="22.845526" lon="110.548924">
        <ele>109.307240</ele>
        <time>2026-08-16T09:47:34.000Z</time>
      </trkpt>
      <trkpt lat="22.845495" lon="110.548948">
        <ele>109.385874</ele>
        <time>2026-08-16T09:47:35.000Z</time>
      </trkpt>
      <trkpt lat="22.845463" lon="110.548972">
        <ele>109.466198</ele>
        <time>2026-08-16T09:47:36.000Z</time>
      </trkpt>
      <trkpt lat="22.845432" lon="110.548997">
        <ele>109.545952</ele>
        <time>2026-08-16T09:47:37.000Z</time>
      </trkpt>
      <trkpt lat="22.845403" lon="110.549021">
        <ele>109.621263</ele>
        <time>2026-08-16T09:47:38.000Z</time>
      </trkpt>
      <trkpt lat="22.845373" lon="110.549044">
        <ele>109.697111</ele>
        <time>2026-08-16T09:47:39.000Z</time>
      </trkpt>
      <trkpt lat="22.845343" lon="110.549069">
        <ele>109.775218</ele>
        <time>2026-08-16T09:47:40.000Z</time>
      </trkpt>
      <trkpt lat="22.845313" lon="110.549093">
        <ele>109.852180</ele>
        <time>2026-08-16T09:47:41.000Z</time>
      </trkpt>
      <trkpt lat="22.845282" lon="110.549117">
        <ele>109.930814</ele>
        <time>2026-08-16T09:47:42.000Z</time>
      </trkpt>
      <trkpt lat="22.845252" lon="110.549141">
        <ele>110.007777</ele>
        <time>2026-08-16T09:47:43.000Z</time>
      </trkpt>
      <trkpt lat="22.845221" lon="110.549163">
        <ele>110.084263</ele>
        <time>2026-08-16T09:47:44.000Z</time>
      </trkpt>
      <trkpt lat="22.845192" lon="110.549188">
        <ele>110.160743</ele>
        <time>2026-08-16T09:47:45.000Z</time>
      </trkpt>
      <trkpt lat="22.845163" lon="110.549214">
        <ele>110.238420</ele>
        <time>2026-08-16T09:47:46.000Z</time>
      </trkpt>
      <trkpt lat="22.845135" lon="110.549242">
        <ele>110.317044</ele>
        <time>2026-08-16T09:47:47.000Z</time>
      </trkpt>
      <trkpt lat="22.845106" lon="110.549268">
        <ele>110.394722</ele>
        <time>2026-08-16T09:47:48.000Z</time>
      </trkpt>
      <trkpt lat="22.845075" lon="110.549294">
        <ele>110.475626</ele>
        <time>2026-08-16T09:47:49.000Z</time>
      </trkpt>
      <trkpt lat="22.845043" lon="110.549322">
        <ele>110.560509</ele>
        <time>2026-08-16T09:47:50.000Z</time>
      </trkpt>
      <trkpt lat="22.845011" lon="110.549353">
        <ele>110.649087</ele>
        <time>2026-08-16T09:47:51.000Z</time>
      </trkpt>
      <trkpt lat="22.844978" lon="110.549387">
        <ele>110.743052</ele>
        <time>2026-08-16T09:47:52.000Z</time>
      </trkpt>
      <trkpt lat="22.844944" lon="110.549418">
        <ele>110.834752</ele>
        <time>2026-08-16T09:47:53.000Z</time>
      </trkpt>
      <trkpt lat="22.844908" lon="110.549447">
        <ele>110.927333</ele>
        <time>2026-08-16T09:47:54.000Z</time>
      </trkpt>
      <trkpt lat="22.844872" lon="110.549475">
        <ele>111.018793</ele>
        <time>2026-08-16T09:47:55.000Z</time>
      </trkpt>
      <trkpt lat="22.844835" lon="110.549500">
        <ele>111.108795</ele>
        <time>2026-08-16T09:47:56.000Z</time>
      </trkpt>
      <trkpt lat="22.844798" lon="110.549525">
        <ele>111.198797</ele>
        <time>2026-08-16T09:47:57.000Z</time>
      </trkpt>
      <trkpt lat="22.844764" lon="110.549552">
        <ele>111.285796</ele>
        <time>2026-08-16T09:47:58.000Z</time>
      </trkpt>
      <trkpt lat="22.844728" lon="110.549577">
        <ele>111.374053</ele>
        <time>2026-08-16T09:47:59.000Z</time>
      </trkpt>
      <trkpt lat="22.844691" lon="110.549603">
        <ele>111.465075</ele>
        <time>2026-08-16T09:48:00.000Z</time>
      </trkpt>
      <trkpt lat="22.844657" lon="110.549633">
        <ele>111.555563</ele>
        <time>2026-08-16T09:48:01.000Z</time>
      </trkpt>
      <trkpt lat="22.844623" lon="110.549663">
        <ele>111.646051</ele>
        <time>2026-08-16T09:48:02.000Z</time>
      </trkpt>
      <trkpt lat="22.844589" lon="110.549693">
        <ele>111.736538</ele>
        <time>2026-08-16T09:48:03.000Z</time>
      </trkpt>
      <trkpt lat="22.844554" lon="110.549719">
        <ele>111.824123</ele>
        <time>2026-08-16T09:48:04.000Z</time>
      </trkpt>
      <trkpt lat="22.844519" lon="110.549744">
        <ele>111.910647</ele>
        <time>2026-08-16T09:48:05.000Z</time>
      </trkpt>
      <trkpt lat="22.844484" lon="110.549769">
        <ele>111.997171</ele>
        <time>2026-08-16T09:48:06.000Z</time>
      </trkpt>
      <trkpt lat="22.844450" lon="110.549796">
        <ele>112.084170</ele>
        <time>2026-08-16T09:48:07.000Z</time>
      </trkpt>
      <trkpt lat="22.844416" lon="110.549824">
        <ele>112.172307</ele>
        <time>2026-08-16T09:48:08.000Z</time>
      </trkpt>
      <trkpt lat="22.844392" lon="110.549838">
        <ele>112.224787</ele>
        <time>2026-08-16T09:48:09.000Z</time>
      </trkpt>
      <trkpt lat="22.844365" lon="110.549860">
        <ele>112.239072</ele>
        <time>2026-08-16T09:48:10.000Z</time>
      </trkpt>
      <trkpt lat="22.844336" lon="110.549879">
        <ele>112.253403</ele>
        <time>2026-08-16T09:48:11.000Z</time>
      </trkpt>
      <trkpt lat="22.844308" lon="110.549897">
        <ele>112.267172</ele>
        <time>2026-08-16T09:48:12.000Z</time>
      </trkpt>
      <trkpt lat="22.844279" lon="110.549916">
        <ele>112.281503</ele>
        <time>2026-08-16T09:48:13.000Z</time>
      </trkpt>
      <trkpt lat="22.844247" lon="110.549938">
        <ele>112.297530</ele>
        <time>2026-08-16T09:48:14.000Z</time>
      </trkpt>
      <trkpt lat="22.844215" lon="110.549960">
        <ele>112.313556</ele>
        <time>2026-08-16T09:48:15.000Z</time>
      </trkpt>
      <trkpt lat="22.844188" lon="110.550001">
        <ele>112.333203</ele>
        <time>2026-08-16T09:48:16.000Z</time>
      </trkpt>
      <trkpt lat="22.844158" lon="110.550029">
        <ele>112.349943</ele>
        <time>2026-08-16T09:48:17.000Z</time>
      </trkpt>
      <trkpt lat="22.844127" lon="110.550052">
        <ele>112.365831</ele>
        <time>2026-08-16T09:48:18.000Z</time>
      </trkpt>
      <trkpt lat="22.844096" lon="110.550078">
        <ele>112.382407</ele>
        <time>2026-08-16T09:48:19.000Z</time>
      </trkpt>
      <trkpt lat="22.844062" lon="110.550104">
        <ele>112.400004</ele>
        <time>2026-08-16T09:48:20.000Z</time>
      </trkpt>
      <trkpt lat="22.844029" lon="110.550133">
        <ele>112.417969</ele>
        <time>2026-08-16T09:48:21.000Z</time>
      </trkpt>
      <trkpt lat="22.843998" lon="110.550160">
        <ele>112.434786</ele>
        <time>2026-08-16T09:48:22.000Z</time>
      </trkpt>
      <trkpt lat="22.843966" lon="110.550187">
        <ele>112.451935</ele>
        <time>2026-08-16T09:48:23.000Z</time>
      </trkpt>
      <trkpt lat="22.843933" lon="110.550211">
        <ele>112.468741</ele>
        <time>2026-08-16T09:48:24.000Z</time>
      </trkpt>
      <trkpt lat="22.843900" lon="110.550236">
        <ele>112.485768</ele>
        <time>2026-08-16T09:48:25.000Z</time>
      </trkpt>
      <trkpt lat="22.843868" lon="110.550263">
        <ele>112.502917</ele>
        <time>2026-08-16T09:48:26.000Z</time>
      </trkpt>
      <trkpt lat="22.843833" lon="110.550287">
        <ele>112.520433</ele>
        <time>2026-08-16T09:48:27.000Z</time>
      </trkpt>
      <trkpt lat="22.843799" lon="110.550312">
        <ele>112.537808</ele>
        <time>2026-08-16T09:48:28.000Z</time>
      </trkpt>
      <trkpt lat="22.843764" lon="110.550334">
        <ele>112.554920</ele>
        <time>2026-08-16T09:48:29.000Z</time>
      </trkpt>
      <trkpt lat="22.843733" lon="110.550353">
        <ele>112.569983</ele>
        <time>2026-08-16T09:48:30.000Z</time>
      </trkpt>
      <trkpt lat="22.843701" lon="110.550373">
        <ele>112.585605</ele>
        <time>2026-08-16T09:48:31.000Z</time>
      </trkpt>
      <trkpt lat="22.843667" lon="110.550394">
        <ele>112.602156</ele>
        <time>2026-08-16T09:48:32.000Z</time>
      </trkpt>
      <trkpt lat="22.843633" lon="110.550414">
        <ele>112.618518</ele>
        <time>2026-08-16T09:48:33.000Z</time>
      </trkpt>
      <trkpt lat="22.843601" lon="110.550437">
        <ele>112.634756</ele>
        <time>2026-08-16T09:48:34.000Z</time>
      </trkpt>
      <trkpt lat="22.843569" lon="110.550463">
        <ele>112.651669</ele>
        <time>2026-08-16T09:48:35.000Z</time>
      </trkpt>
      <trkpt lat="22.843540" lon="110.550496">
        <ele>112.669447</ele>
        <time>2026-08-16T09:48:36.000Z</time>
      </trkpt>
      <trkpt lat="22.843512" lon="110.550528">
        <ele>112.686651</ele>
        <time>2026-08-16T09:48:37.000Z</time>
      </trkpt>
      <trkpt lat="22.843490" lon="110.550567">
        <ele>112.704478</ele>
        <time>2026-08-16T09:48:38.000Z</time>
      </trkpt>
      <trkpt lat="22.843480" lon="110.550607">
        <ele>112.720637</ele>
        <time>2026-08-16T09:48:39.000Z</time>
      </trkpt>
      <trkpt lat="22.843477" lon="110.550651">
        <ele>112.737839</ele>
        <time>2026-08-16T09:48:40.000Z</time>
      </trkpt>
      <trkpt lat="22.843477" lon="110.550695">
        <ele>112.754993</ele>
        <time>2026-08-16T09:48:41.000Z</time>
      </trkpt>
      <trkpt lat="22.843479" lon="110.550743">
        <ele>112.773727</ele>
        <time>2026-08-16T09:48:42.000Z</time>
      </trkpt>
      <trkpt lat="22.843488" lon="110.550793">
        <ele>112.793589</ele>
        <time>2026-08-16T09:48:43.000Z</time>
      </trkpt>
      <trkpt lat="22.843502" lon="110.550842">
        <ele>112.813590</ele>
        <time>2026-08-16T09:48:44.000Z</time>
      </trkpt>
      <trkpt lat="22.843523" lon="110.550889">
        <ele>112.833955</ele>
        <time>2026-08-16T09:48:45.000Z</time>
      </trkpt>
      <trkpt lat="22.843551" lon="110.550935">
        <ele>112.855448</ele>
        <time>2026-08-16T09:48:46.000Z</time>
      </trkpt>
      <trkpt lat="22.843586" lon="110.550980">
        <ele>112.878406</ele>
        <time>2026-08-16T09:48:47.000Z</time>
      </trkpt>
      <trkpt lat="22.843620" lon="110.551024">
        <ele>112.900793</ele>
        <time>2026-08-16T09:48:48.000Z</time>
      </trkpt>
      <trkpt lat="22.843658" lon="110.551069">
        <ele>112.924589</ele>
        <time>2026-08-16T09:48:49.000Z</time>
      </trkpt>
      <trkpt lat="22.843698" lon="110.551112">
        <ele>112.948410</ele>
        <time>2026-08-16T09:48:50.000Z</time>
      </trkpt>
      <trkpt lat="22.843738" lon="110.551157">
        <ele>112.972785</ele>
        <time>2026-08-16T09:48:51.000Z</time>
      </trkpt>
      <trkpt lat="22.843782" lon="110.551201">
        <ele>112.929205</ele>
        <time>2026-08-16T09:48:52.000Z</time>
      </trkpt>
      <trkpt lat="22.843827" lon="110.551241">
        <ele>112.826847</ele>
        <time>2026-08-16T09:48:53.000Z</time>
      </trkpt>
      <trkpt lat="22.843872" lon="110.551282">
        <ele>112.723453</ele>
        <time>2026-08-16T09:48:54.000Z</time>
      </trkpt>
      <trkpt lat="22.843919" lon="110.551322">
        <ele>112.618349</ele>
        <time>2026-08-16T09:48:55.000Z</time>
      </trkpt>
      <trkpt lat="22.843966" lon="110.551363">
        <ele>112.512236</ele>
        <time>2026-08-16T09:48:56.000Z</time>
      </trkpt>
      <trkpt lat="22.844014" lon="110.551403">
        <ele>112.405741</ele>
        <time>2026-08-16T09:48:57.000Z</time>
      </trkpt>
      <trkpt lat="22.844061" lon="110.551446">
        <ele>112.297567</ele>
        <time>2026-08-16T09:48:58.000Z</time>
      </trkpt>
      <trkpt lat="22.844106" lon="110.551487">
        <ele>112.194173</ele>
        <time>2026-08-16T09:48:59.000Z</time>
      </trkpt>
      <trkpt lat="22.844152" lon="110.551526">
        <ele>112.091454</ele>
        <time>2026-08-16T09:49:00.000Z</time>
      </trkpt>
      <trkpt lat="22.844201" lon="110.551560">
        <ele>111.989112</ele>
        <time>2026-08-16T09:49:01.000Z</time>
      </trkpt>
      <trkpt lat="22.844249" lon="110.551596">
        <ele>111.886440</ele>
        <time>2026-08-16T09:49:02.000Z</time>
      </trkpt>
      <trkpt lat="22.844295" lon="110.551629">
        <ele>111.789407</ele>
        <time>2026-08-16T09:49:03.000Z</time>
      </trkpt>
      <trkpt lat="22.844347" lon="110.551659">
        <ele>111.685779</ele>
        <time>2026-08-16T09:49:04.000Z</time>
      </trkpt>
      <trkpt lat="22.844400" lon="110.551690">
        <ele>111.579834</ele>
        <time>2026-08-16T09:49:05.000Z</time>
      </trkpt>
      <trkpt lat="22.844453" lon="110.551723">
        <ele>111.472312</ele>
        <time>2026-08-16T09:49:06.000Z</time>
      </trkpt>
      <trkpt lat="22.844502" lon="110.551763">
        <ele>111.364417</ele>
        <time>2026-08-16T09:49:07.000Z</time>
      </trkpt>
      <trkpt lat="22.844552" lon="110.551803">
        <ele>111.255110</ele>
        <time>2026-08-16T09:49:08.000Z</time>
      </trkpt>
      <trkpt lat="22.844601" lon="110.551844">
        <ele>111.146232</ele>
        <time>2026-08-16T09:49:09.000Z</time>
      </trkpt>
      <trkpt lat="22.844642" lon="110.551887">
        <ele>111.045899</ele>
        <time>2026-08-16T09:49:10.000Z</time>
      </trkpt>
      <trkpt lat="22.844681" lon="110.551927">
        <ele>110.951470</ele>
        <time>2026-08-16T09:49:11.000Z</time>
      </trkpt>
      <trkpt lat="22.844730" lon="110.551969">
        <ele>110.841595</ele>
        <time>2026-08-16T09:49:12.000Z</time>
      </trkpt>
      <trkpt lat="22.844779" lon="110.552012">
        <ele>110.730707</ele>
        <time>2026-08-16T09:49:13.000Z</time>
      </trkpt>
      <trkpt lat="22.844832" lon="110.552052">
        <ele>110.617108</ele>
        <time>2026-08-16T09:49:14.000Z</time>
      </trkpt>
      <trkpt lat="22.844887" lon="110.552096">
        <ele>110.496871</ele>
        <time>2026-08-16T09:49:15.000Z</time>
      </trkpt>
      <trkpt lat="22.844941" lon="110.552141">
        <ele>110.377065</ele>
        <time>2026-08-16T09:49:16.000Z</time>
      </trkpt>
      <trkpt lat="22.844992" lon="110.552188">
        <ele>110.259328</ele>
        <time>2026-08-16T09:49:17.000Z</time>
      </trkpt>
      <trkpt lat="22.845046" lon="110.552231">
        <ele>110.141469</ele>
        <time>2026-08-16T09:49:18.000Z</time>
      </trkpt>
      <trkpt lat="22.845092" lon="110.552278">
        <ele>110.030292</ele>
        <time>2026-08-16T09:49:19.000Z</time>
      </trkpt>
      <trkpt lat="22.845134" lon="110.552326">
        <ele>109.922960</ele>
        <time>2026-08-16T09:49:20.000Z</time>
      </trkpt>
      <trkpt lat="22.845175" lon="110.552371">
        <ele>109.820346</ele>
        <time>2026-08-16T09:49:21.000Z</time>
      </trkpt>
      <trkpt lat="22.845211" lon="110.552406">
        <ele>109.859252</ele>
        <time>2026-08-16T09:49:22.000Z</time>
      </trkpt>
      <trkpt lat="22.845252" lon="110.552437">
        <ele>109.900261</ele>
        <time>2026-08-16T09:49:23.000Z</time>
      </trkpt>
      <trkpt lat="22.845282" lon="110.552463">
        <ele>109.931770</ele>
        <time>2026-08-16T09:49:24.000Z</time>
      </trkpt>
      <trkpt lat="22.845308" lon="110.552491">
        <ele>109.961831</ele>
        <time>2026-08-16T09:49:25.000Z</time>
      </trkpt>
      <trkpt lat="22.845333" lon="110.552518">
        <ele>109.990778</ele>
        <time>2026-08-16T09:49:26.000Z</time>
      </trkpt>
      <trkpt lat="22.845355" lon="110.552542">
        <ele>110.016379</ele>
        <time>2026-08-16T09:49:27.000Z</time>
      </trkpt>
      <trkpt lat="22.845374" lon="110.552557">
        <ele>110.035662</ele>
        <time>2026-08-16T09:49:28.000Z</time>
      </trkpt>
      <trkpt lat="22.845379" lon="110.552566">
        <ele>110.043609</ele>
        <time>2026-08-16T09:49:29.000Z</time>
      </trkpt>
      <trkpt lat="22.845380" lon="110.552571">
        <ele>110.047479</ele>
        <time>2026-08-16T09:49:30.000Z</time>
      </trkpt>
      <trkpt lat="22.845454" lon="110.552645">
        <ele>110.130063</ele>
        <time>2026-08-16T09:49:40.000Z</time>
      </trkpt>
      <trkpt lat="22.845496" lon="110.552674">
        <ele>110.170917</ele>
        <time>2026-08-16T09:49:41.000Z</time>
      </trkpt>
      <trkpt lat="22.845538" lon="110.552702">
        <ele>110.211370</ele>
        <time>2026-08-16T09:49:42.000Z</time>
      </trkpt>
      <trkpt lat="22.845581" lon="110.552734">
        <ele>110.254160</ele>
        <time>2026-08-16T09:49:43.000Z</time>
      </trkpt>
      <trkpt lat="22.845628" lon="110.552771">
        <ele>110.301812</ele>
        <time>2026-08-16T09:49:44.000Z</time>
      </trkpt>
      <trkpt lat="22.845675" lon="110.552810">
        <ele>110.350369</ele>
        <time>2026-08-16T09:49:45.000Z</time>
      </trkpt>
      <trkpt lat="22.845718" lon="110.552852">
        <ele>110.397847</ele>
        <time>2026-08-16T09:49:46.000Z</time>
      </trkpt>
      <trkpt lat="22.845760" lon="110.552893">
        <ele>110.444210</ele>
        <time>2026-08-16T09:49:47.000Z</time>
      </trkpt>
      <trkpt lat="22.845800" lon="110.552933">
        <ele>110.488850</ele>
        <time>2026-08-16T09:49:48.000Z</time>
      </trkpt>
      <trkpt lat="22.845840" lon="110.552968">
        <ele>110.531019</ele>
        <time>2026-08-16T09:49:49.000Z</time>
      </trkpt>
      <trkpt lat="22.845877" lon="110.553001">
        <ele>110.570324</ele>
        <time>2026-08-16T09:49:50.000Z</time>
      </trkpt>
      <trkpt lat="22.845911" lon="110.553030">
        <ele>110.605814</ele>
        <time>2026-08-16T09:49:51.000Z</time>
      </trkpt>
      <trkpt lat="22.845944" lon="110.553057">
        <ele>110.639732</ele>
        <time>2026-08-16T09:49:52.000Z</time>
      </trkpt>
      <trkpt lat="22.845979" lon="110.553083">
        <ele>110.674541</ele>
        <time>2026-08-16T09:49:53.000Z</time>
      </trkpt>
      <trkpt lat="22.846017" lon="110.553109">
        <ele>110.711408</ele>
        <time>2026-08-16T09:49:54.000Z</time>
      </trkpt>
      <trkpt lat="22.846052" lon="110.553136">
        <ele>110.746650</ele>
        <time>2026-08-16T09:49:55.000Z</time>
      </trkpt>
      <trkpt lat="22.846089" lon="110.553167">
        <ele>110.785012</ele>
        <time>2026-08-16T09:49:56.000Z</time>
      </trkpt>
      <trkpt lat="22.846127" lon="110.553196">
        <ele>110.823137</ele>
        <time>2026-08-16T09:49:57.000Z</time>
      </trkpt>
      <trkpt lat="22.846163" lon="110.553224">
        <ele>110.859486</ele>
        <time>2026-08-16T09:49:58.000Z</time>
      </trkpt>
      <trkpt lat="22.846198" lon="110.553256">
        <ele>110.897046</ele>
        <time>2026-08-16T09:49:59.000Z</time>
      </trkpt>
      <trkpt lat="22.846233" lon="110.553285">
        <ele>110.933185</ele>
        <time>2026-08-16T09:50:00.000Z</time>
      </trkpt>
      <trkpt lat="22.846269" lon="110.553313">
        <ele>110.969534</ele>
        <time>2026-08-16T09:50:01.000Z</time>
      </trkpt>
      <trkpt lat="22.846305" lon="110.553341">
        <ele>111.005883</ele>
        <time>2026-08-16T09:50:02.000Z</time>
      </trkpt>
      <trkpt lat="22.846343" lon="110.553370">
        <ele>111.044008</ele>
        <time>2026-08-16T09:50:03.000Z</time>
      </trkpt>
      <trkpt lat="22.846379" lon="110.553399">
        <ele>111.080803</ele>
        <time>2026-08-16T09:50:04.000Z</time>
      </trkpt>
      <trkpt lat="22.846416" lon="110.553428">
        <ele>111.118260</ele>
        <time>2026-08-16T09:50:05.000Z</time>
      </trkpt>
      <trkpt lat="22.846454" lon="110.553458">
        <ele>111.156825</ele>
        <time>2026-08-16T09:50:06.000Z</time>
      </trkpt>
      <trkpt lat="22.846494" lon="110.553482">
        <ele>111.194336</ele>
        <time>2026-08-16T09:50:07.000Z</time>
      </trkpt>
      <trkpt lat="22.846532" lon="110.553509">
        <ele>111.231611</ele>
        <time>2026-08-16T09:50:08.000Z</time>
      </trkpt>
      <trkpt lat="22.846564" lon="110.553540">
        <ele>111.266815</ele>
        <time>2026-08-16T09:50:09.000Z</time>
      </trkpt>
      <trkpt lat="22.846593" lon="110.553574">
        <ele>111.299030</ele>
        <time>2026-08-16T09:50:10.000Z</time>
      </trkpt>
      <trkpt lat="22.846624" lon="110.553605">
        <ele>111.317205</ele>
        <time>2026-08-16T09:50:11.000Z</time>
      </trkpt>
      <trkpt lat="22.846654" lon="110.553636">
        <ele>111.335066</ele>
        <time>2026-08-16T09:50:12.000Z</time>
      </trkpt>
      <trkpt lat="22.846689" lon="110.553660">
        <ele>111.352917</ele>
        <time>2026-08-16T09:50:13.000Z</time>
      </trkpt>
      <trkpt lat="22.846721" lon="110.553689">
        <ele>111.370892</ele>
        <time>2026-08-16T09:50:14.000Z</time>
      </trkpt>
      <trkpt lat="22.846754" lon="110.553715">
        <ele>111.388475</ele>
        <time>2026-08-16T09:50:15.000Z</time>
      </trkpt>
      <trkpt lat="22.846787" lon="110.553740">
        <ele>111.405827</ele>
        <time>2026-08-16T09:50:16.000Z</time>
      </trkpt>
      <trkpt lat="22.846816" lon="110.553769">
        <ele>111.422830</ele>
        <time>2026-08-16T09:50:17.000Z</time>
      </trkpt>
      <trkpt lat="22.846843" lon="110.553798">
        <ele>111.439210</ele>
        <time>2026-08-16T09:50:18.000Z</time>
      </trkpt>
      <trkpt lat="22.846869" lon="110.553835">
        <ele>111.457697</ele>
        <time>2026-08-16T09:50:19.000Z</time>
      </trkpt>
      <trkpt lat="22.846895" lon="110.553869">
        <ele>111.475251</ele>
        <time>2026-08-16T09:50:20.000Z</time>
      </trkpt>
      <trkpt lat="22.846923" lon="110.553907">
        <ele>111.494583</ele>
        <time>2026-08-16T09:50:21.000Z</time>
      </trkpt>
      <trkpt lat="22.846950" lon="110.553941">
        <ele>111.512415</ele>
        <time>2026-08-16T09:50:22.000Z</time>
      </trkpt>
      <trkpt lat="22.846975" lon="110.553978">
        <ele>111.530645</ele>
        <time>2026-08-16T09:50:23.000Z</time>
      </trkpt>
      <trkpt lat="22.847001" lon="110.554017">
        <ele>111.549770</ele>
        <time>2026-08-16T09:50:24.000Z</time>
      </trkpt>
      <trkpt lat="22.847026" lon="110.554055">
        <ele>111.568321</ele>
        <time>2026-08-16T09:50:25.000Z</time>
      </trkpt>
      <trkpt lat="22.847051" lon="110.554093">
        <ele>111.586872</ele>
        <time>2026-08-16T09:50:26.000Z</time>
      </trkpt>
      <trkpt lat="22.847075" lon="110.554138">
        <ele>111.607530</ele>
        <time>2026-08-16T09:50:27.000Z</time>
      </trkpt>
      <trkpt lat="22.847090" lon="110.554172">
        <ele>111.622507</ele>
        <time>2026-08-16T09:50:28.000Z</time>
      </trkpt>
      <trkpt lat="22.847103" lon="110.554207">
        <ele>111.637501</ele>
        <time>2026-08-16T09:50:29.000Z</time>
      </trkpt>
      <trkpt lat="22.847120" lon="110.554239">
        <ele>111.652177</ele>
        <time>2026-08-16T09:50:30.000Z</time>
      </trkpt>
      <trkpt lat="22.847141" lon="110.554275">
        <ele>111.669105</ele>
        <time>2026-08-16T09:50:31.000Z</time>
      </trkpt>
      <trkpt lat="22.847161" lon="110.554321">
        <ele>111.689314</ele>
        <time>2026-08-16T09:50:32.000Z</time>
      </trkpt>
      <trkpt lat="22.847179" lon="110.554363">
        <ele>111.707718</ele>
        <time>2026-08-16T09:50:33.000Z</time>
      </trkpt>
      <trkpt lat="22.847204" lon="110.554405">
        <ele>111.727584</ele>
        <time>2026-08-16T09:50:34.000Z</time>
      </trkpt>
      <trkpt lat="22.847230" lon="110.554439">
        <ele>111.745138</ele>
        <time>2026-08-16T09:50:35.000Z</time>
      </trkpt>
      <trkpt lat="22.847254" lon="110.554479">
        <ele>111.764103</ele>
        <time>2026-08-16T09:50:36.000Z</time>
      </trkpt>
      <trkpt lat="22.847273" lon="110.554515">
        <ele>111.780586</ele>
        <time>2026-08-16T09:50:37.000Z</time>
      </trkpt>
      <trkpt lat="22.847292" lon="110.554560">
        <ele>111.800253</ele>
        <time>2026-08-16T09:50:38.000Z</time>
      </trkpt>
      <trkpt lat="22.847315" lon="110.554605">
        <ele>111.820699</ele>
        <time>2026-08-16T09:50:39.000Z</time>
      </trkpt>
      <trkpt lat="22.847334" lon="110.554654">
        <ele>111.841821</ele>
        <time>2026-08-16T09:50:40.000Z</time>
      </trkpt>
      <trkpt lat="22.847358" lon="110.554704">
        <ele>111.864220</ele>
        <time>2026-08-16T09:50:41.000Z</time>
      </trkpt>
      <trkpt lat="22.847376" lon="110.554758">
        <ele>111.887036</ele>
        <time>2026-08-16T09:50:42.000Z</time>
      </trkpt>
      <trkpt lat="22.847395" lon="110.554812">
        <ele>111.910002</ele>
        <time>2026-08-16T09:50:43.000Z</time>
      </trkpt>
      <trkpt lat="22.847415" lon="110.554870">
        <ele>111.934607</ele>
        <time>2026-08-16T09:50:44.000Z</time>
      </trkpt>
      <trkpt lat="22.847434" lon="110.554923">
        <ele>111.957203</ele>
        <time>2026-08-16T09:50:45.000Z</time>
      </trkpt>
      <trkpt lat="22.847451" lon="110.554976">
        <ele>111.979500</ele>
        <time>2026-08-16T09:50:46.000Z</time>
      </trkpt>
      <trkpt lat="22.847463" lon="110.555032">
        <ele>112.002344</ele>
        <time>2026-08-16T09:50:47.000Z</time>
      </trkpt>
      <trkpt lat="22.847484" lon="110.555086">
        <ele>112.025631</ele>
        <time>2026-08-16T09:50:48.000Z</time>
      </trkpt>
      <trkpt lat="22.847506" lon="110.555138">
        <ele>112.048366</ele>
        <time>2026-08-16T09:50:49.000Z</time>
      </trkpt>
      <trkpt lat="22.847531" lon="110.555188">
        <ele>112.070967</ele>
        <time>2026-08-16T09:50:50.000Z</time>
      </trkpt>
      <trkpt lat="22.847553" lon="110.555239">
        <ele>112.043216</ele>
        <time>2026-08-16T09:50:51.000Z</time>
      </trkpt>
      <trkpt lat="22.847569" lon="110.555296">
        <ele>112.012825</ele>
        <time>2026-08-16T09:50:52.000Z</time>
      </trkpt>
      <trkpt lat="22.847584" lon="110.555355">
        <ele>111.981608</ele>
        <time>2026-08-16T09:50:53.000Z</time>
      </trkpt>
      <trkpt lat="22.847604" lon="110.555414">
        <ele>111.949545</ele>
        <time>2026-08-16T09:50:54.000Z</time>
      </trkpt>
      <trkpt lat="22.847619" lon="110.555469">
        <ele>111.920290</ele>
        <time>2026-08-16T09:50:55.000Z</time>
      </trkpt>
      <trkpt lat="22.847624" lon="110.555521">
        <ele>111.893625</ele>
        <time>2026-08-16T09:50:56.000Z</time>
      </trkpt>
      <trkpt lat="22.847634" lon="110.555575">
        <ele>111.865532</ele>
        <time>2026-08-16T09:50:57.000Z</time>
      </trkpt>
      <trkpt lat="22.847644" lon="110.555625">
        <ele>111.839437</ele>
        <time>2026-08-16T09:50:58.000Z</time>
      </trkpt>
      <trkpt lat="22.847663" lon="110.555681">
        <ele>111.809000</ele>
        <time>2026-08-16T09:50:59.000Z</time>
      </trkpt>
      <trkpt lat="22.847685" lon="110.555739">
        <ele>111.777010</ele>
        <time>2026-08-16T09:51:00.000Z</time>
      </trkpt>
      <trkpt lat="22.847699" lon="110.555796">
        <ele>111.746923</ele>
        <time>2026-08-16T09:51:01.000Z</time>
      </trkpt>
      <trkpt lat="22.847710" lon="110.555857">
        <ele>111.715221</ele>
        <time>2026-08-16T09:51:02.000Z</time>
      </trkpt>
      <trkpt lat="22.847733" lon="110.555920">
        <ele>111.680659</ele>
        <time>2026-08-16T09:51:03.000Z</time>
      </trkpt>
      <trkpt lat="22.847755" lon="110.555989">
        <ele>111.643420</ele>
        <time>2026-08-16T09:51:04.000Z</time>
      </trkpt>
      <trkpt lat="22.847769" lon="110.556059">
        <ele>111.606886</ele>
        <time>2026-08-16T09:51:05.000Z</time>
      </trkpt>
      <trkpt lat="22.847789" lon="110.556123">
        <ele>111.572418</ele>
        <time>2026-08-16T09:51:06.000Z</time>
      </trkpt>
      <trkpt lat="22.847817" lon="110.556190">
        <ele>111.534896</ele>
        <time>2026-08-16T09:51:07.000Z</time>
      </trkpt>
      <trkpt lat="22.847837" lon="110.556252">
        <ele>111.501393</ele>
        <time>2026-08-16T09:51:08.000Z</time>
      </trkpt>
      <trkpt lat="22.847851" lon="110.556315">
        <ele>111.468340</ele>
        <time>2026-08-16T09:51:09.000Z</time>
      </trkpt>
      <trkpt lat="22.847839" lon="110.556359">
        <ele>111.444936</ele>
        <time>2026-08-16T09:51:10.000Z</time>
      </trkpt>
      <trkpt lat="22.847853" lon="110.556415">
        <ele>111.415342</ele>
        <time>2026-08-16T09:51:11.000Z</time>
      </trkpt>
      <trkpt lat="22.847871" lon="110.556472">
        <ele>111.384610</ele>
        <time>2026-08-16T09:51:12.000Z</time>
      </trkpt>
      <trkpt lat="22.847887" lon="110.556529">
        <ele>111.354219</ele>
        <time>2026-08-16T09:51:13.000Z</time>
      </trkpt>
      <trkpt lat="22.847900" lon="110.556587">
        <ele>111.323775</ele>
        <time>2026-08-16T09:51:14.000Z</time>
      </trkpt>
      <trkpt lat="22.847905" lon="110.556646">
        <ele>111.293556</ele>
        <time>2026-08-16T09:51:15.000Z</time>
      </trkpt>
      <trkpt lat="22.847910" lon="110.556703">
        <ele>111.264352</ele>
        <time>2026-08-16T09:51:16.000Z</time>
      </trkpt>
      <trkpt lat="22.847921" lon="110.556758">
        <ele>111.235647</ele>
        <time>2026-08-16T09:51:17.000Z</time>
      </trkpt>
      <trkpt lat="22.847941" lon="110.556820">
        <ele>111.202144</ele>
        <time>2026-08-16T09:51:18.000Z</time>
      </trkpt>
      <trkpt lat="22.847960" lon="110.556877">
        <ele>111.171229</ele>
        <time>2026-08-16T09:51:19.000Z</time>
      </trkpt>
      <trkpt lat="22.847978" lon="110.556935">
        <ele>111.140014</ele>
        <time>2026-08-16T09:51:20.000Z</time>
      </trkpt>
      <trkpt lat="22.848000" lon="110.556991">
        <ele>111.108965</ele>
        <time>2026-08-16T09:51:21.000Z</time>
      </trkpt>
      <trkpt lat="22.848022" lon="110.557052">
        <ele>111.075545</ele>
        <time>2026-08-16T09:51:22.000Z</time>
      </trkpt>
      <trkpt lat="22.848057" lon="110.557126">
        <ele>111.031859</ele>
        <time>2026-08-16T09:51:23.000Z</time>
      </trkpt>
      <trkpt lat="22.848092" lon="110.557199">
        <ele>110.988640</ele>
        <time>2026-08-16T09:51:24.000Z</time>
      </trkpt>
      <trkpt lat="22.848121" lon="110.557266">
        <ele>110.949763</ele>
        <time>2026-08-16T09:51:25.000Z</time>
      </trkpt>
      <trkpt lat="22.848152" lon="110.557333">
        <ele>110.910388</ele>
        <time>2026-08-16T09:51:26.000Z</time>
      </trkpt>
      <trkpt lat="22.848176" lon="110.557397">
        <ele>110.874098</ele>
        <time>2026-08-16T09:51:27.000Z</time>
      </trkpt>
      <trkpt lat="22.848196" lon="110.557460">
        <ele>110.839102</ele>
        <time>2026-08-16T09:51:28.000Z</time>
      </trkpt>
      <trkpt lat="22.848216" lon="110.557521">
        <ele>110.805097</ele>
        <time>2026-08-16T09:51:29.000Z</time>
      </trkpt>
      <trkpt lat="22.848239" lon="110.557582">
        <ele>110.770481</ele>
        <time>2026-08-16T09:51:30.000Z</time>
      </trkpt>
      <trkpt lat="22.848260" lon="110.557642">
        <ele>110.736772</ele>
        <time>2026-08-16T09:51:31.000Z</time>
      </trkpt>
      <trkpt lat="22.848282" lon="110.557707">
        <ele>110.700404</ele>
        <time>2026-08-16T09:51:32.000Z</time>
      </trkpt>
      <trkpt lat="22.848306" lon="110.557762">
        <ele>110.668443</ele>
        <time>2026-08-16T09:51:33.000Z</time>
      </trkpt>
      <trkpt lat="22.848325" lon="110.557821">
        <ele>110.635618</ele>
        <time>2026-08-16T09:51:34.000Z</time>
      </trkpt>
      <trkpt lat="22.848341" lon="110.557880">
        <ele>110.603317</ele>
        <time>2026-08-16T09:51:35.000Z</time>
      </trkpt>
      <trkpt lat="22.848353" lon="110.557940">
        <ele>110.571071</ele>
        <time>2026-08-16T09:51:36.000Z</time>
      </trkpt>
      <trkpt lat="22.848364" lon="110.557997">
        <ele>110.540485</ele>
        <time>2026-08-16T09:51:37.000Z</time>
      </trkpt>
      <trkpt lat="22.848377" lon="110.558054">
        <ele>110.509645</ele>
        <time>2026-08-16T09:51:38.000Z</time>
      </trkpt>
      <trkpt lat="22.848389" lon="110.558114">
        <ele>110.477399</ele>
        <time>2026-08-16T09:51:39.000Z</time>
      </trkpt>
      <trkpt lat="22.848409" lon="110.558175">
        <ele>110.443394</ele>
        <time>2026-08-16T09:51:40.000Z</time>
      </trkpt>
      <trkpt lat="22.848428" lon="110.558227">
        <ele>110.414015</ele>
        <time>2026-08-16T09:51:41.000Z</time>
      </trkpt>
      <trkpt lat="22.848454" lon="110.558277">
        <ele>110.383862</ele>
        <time>2026-08-16T09:51:42.000Z</time>
      </trkpt>
      <trkpt lat="22.848490" lon="110.558327">
        <ele>110.350537</ele>
        <time>2026-08-16T09:51:43.000Z</time>
      </trkpt>
      <trkpt lat="22.848520" lon="110.558387">
        <ele>110.314685</ele>
        <time>2026-08-16T09:51:44.000Z</time>
      </trkpt>
      <trkpt lat="22.848539" lon="110.558443">
        <ele>110.283343</ele>
        <time>2026-08-16T09:51:45.000Z</time>
      </trkpt>
      <trkpt lat="22.848563" lon="110.558500">
        <ele>110.250430</ele>
        <time>2026-08-16T09:51:46.000Z</time>
      </trkpt>
      <trkpt lat="22.848586" lon="110.558559">
        <ele>110.216784</ele>
        <time>2026-08-16T09:51:47.000Z</time>
      </trkpt>
      <trkpt lat="22.848605" lon="110.558612">
        <ele>110.186916</ele>
        <time>2026-08-16T09:51:48.000Z</time>
      </trkpt>
      <trkpt lat="22.848627" lon="110.558662">
        <ele>110.157816</ele>
        <time>2026-08-16T09:51:49.000Z</time>
      </trkpt>
      <trkpt lat="22.848640" lon="110.558712">
        <ele>110.130531</ele>
        <time>2026-08-16T09:51:50.000Z</time>
      </trkpt>
      <trkpt lat="22.848659" lon="110.558761">
        <ele>110.102610</ele>
        <time>2026-08-16T09:51:51.000Z</time>
      </trkpt>
      <trkpt lat="22.848672" lon="110.558814">
        <ele>110.073805</ele>
        <time>2026-08-16T09:51:52.000Z</time>
      </trkpt>
      <trkpt lat="22.848676" lon="110.558862">
        <ele>110.043304</ele>
        <time>2026-08-16T09:51:53.000Z</time>
      </trkpt>
      <trkpt lat="22.848666" lon="110.558907">
        <ele>109.964844</ele>
        <time>2026-08-16T09:51:54.000Z</time>
      </trkpt>
      <trkpt lat="22.848642" lon="110.558948">
        <ele>109.882516</ele>
        <time>2026-08-16T09:51:55.000Z</time>
      </trkpt>
      <trkpt lat="22.848615" lon="110.558987">
        <ele>109.799836</ele>
        <time>2026-08-16T09:51:56.000Z</time>
      </trkpt>
      <trkpt lat="22.848585" lon="110.559024">
        <ele>109.716303</ele>
        <time>2026-08-16T09:51:57.000Z</time>
      </trkpt>
      <trkpt lat="22.848553" lon="110.559057">
        <ele>109.635107</ele>
        <time>2026-08-16T09:51:58.000Z</time>
      </trkpt>
      <trkpt lat="22.848517" lon="110.559083">
        <ele>109.555567</ele>
        <time>2026-08-16T09:51:59.000Z</time>
      </trkpt>
      <trkpt lat="22.848476" lon="110.559100">
        <ele>109.474839</ele>
        <time>2026-08-16T09:52:00.000Z</time>
      </trkpt>
      <trkpt lat="22.848432" lon="110.559115">
        <ele>109.390010</ele>
        <time>2026-08-16T09:52:01.000Z</time>
      </trkpt>
      <trkpt lat="22.848386" lon="110.559125">
        <ele>109.303721</ele>
        <time>2026-08-16T09:52:02.000Z</time>
      </trkpt>
      <trkpt lat="22.848340" lon="110.559134">
        <ele>109.217750</ele>
        <time>2026-08-16T09:52:03.000Z</time>
      </trkpt>
      <trkpt lat="22.848293" lon="110.559145">
        <ele>109.129315</ele>
        <time>2026-08-16T09:52:04.000Z</time>
      </trkpt>
      <trkpt lat="22.848246" lon="110.559159">
        <ele>109.039670</ele>
        <time>2026-08-16T09:52:05.000Z</time>
      </trkpt>
      <trkpt lat="22.848197" lon="110.559172">
        <ele>108.946890</ele>
        <time>2026-08-16T09:52:06.000Z</time>
      </trkpt>
      <trkpt lat="22.848145" lon="110.559186">
        <ele>108.848347</ele>
        <time>2026-08-16T09:52:07.000Z</time>
      </trkpt>
      <trkpt lat="22.848096" lon="110.559199">
        <ele>108.755567</ele>
        <time>2026-08-16T09:52:08.000Z</time>
      </trkpt>
      <trkpt lat="22.848045" lon="110.559212">
        <ele>108.659210</ele>
        <time>2026-08-16T09:52:09.000Z</time>
      </trkpt>
      <trkpt lat="22.847992" lon="110.559221">
        <ele>108.560541</ele>
        <time>2026-08-16T09:52:10.000Z</time>
      </trkpt>
      <trkpt lat="22.847941" lon="110.559233">
        <ele>108.464557</ele>
        <time>2026-08-16T09:52:11.000Z</time>
      </trkpt>
      <trkpt lat="22.847891" lon="110.559247">
        <ele>108.369580</ele>
        <time>2026-08-16T09:52:12.000Z</time>
      </trkpt>
      <trkpt lat="22.847847" lon="110.559257">
        <ele>108.286895</ele>
        <time>2026-08-16T09:52:13.000Z</time>
      </trkpt>
      <trkpt lat="22.847808" lon="110.559266">
        <ele>108.213559</ele>
        <time>2026-08-16T09:52:14.000Z</time>
      </trkpt>
      <trkpt lat="22.847774" lon="110.559274">
        <ele>108.149569</ele>
        <time>2026-08-16T09:52:15.000Z</time>
      </trkpt>
      <trkpt lat="22.847746" lon="110.559280">
        <ele>108.097075</ele>
        <time>2026-08-16T09:52:16.000Z</time>
      </trkpt>
      <trkpt lat="22.847726" lon="110.559284">
        <ele>108.059669</ele>
        <time>2026-08-16T09:52:17.000Z</time>
      </trkpt>
      <trkpt lat="22.847714" lon="110.559285">
        <ele>108.037533</ele>
        <time>2026-08-16T09:52:18.000Z</time>
      </trkpt>
      <trkpt lat="22.847711" lon="110.559284">
        <ele>108.031760</ele>
        <time>2026-08-16T09:52:19.000Z</time>
      </trkpt>
      <trkpt lat="22.847661" lon="110.559285">
        <ele>107.939780</ele>
        <time>2026-08-16T09:53:12.000Z</time>
      </trkpt>
      <trkpt lat="22.847634" lon="110.559291">
        <ele>107.889088</ele>
        <time>2026-08-16T09:53:13.000Z</time>
      </trkpt>
      <trkpt lat="22.847606" lon="110.559299">
        <ele>107.835833</ele>
        <time>2026-08-16T09:53:14.000Z</time>
      </trkpt>
      <trkpt lat="22.847580" lon="110.559304">
        <ele>107.787266</ele>
        <time>2026-08-16T09:53:15.000Z</time>
      </trkpt>
      <trkpt lat="22.847551" lon="110.559310">
        <ele>107.732965</ele>
        <time>2026-08-16T09:53:16.000Z</time>
      </trkpt>
      <trkpt lat="22.847521" lon="110.559321">
        <ele>107.674722</ele>
        <time>2026-08-16T09:53:17.000Z</time>
      </trkpt>
      <trkpt lat="22.847491" lon="110.559330">
        <ele>107.617473</ele>
        <time>2026-08-16T09:53:18.000Z</time>
      </trkpt>
      <trkpt lat="22.847457" lon="110.559341">
        <ele>107.552217</ele>
        <time>2026-08-16T09:53:19.000Z</time>
      </trkpt>
      <trkpt lat="22.847425" lon="110.559348">
        <ele>107.492175</ele>
        <time>2026-08-16T09:53:20.000Z</time>
      </trkpt>
      <trkpt lat="22.847393" lon="110.559356">
        <ele>107.431776</ele>
        <time>2026-08-16T09:53:21.000Z</time>
      </trkpt>
      <trkpt lat="22.847361" lon="110.559366">
        <ele>107.370526</ele>
        <time>2026-08-16T09:53:22.000Z</time>
      </trkpt>
      <trkpt lat="22.847330" lon="110.559373">
        <ele>107.312287</ele>
        <time>2026-08-16T09:53:23.000Z</time>
      </trkpt>
      <trkpt lat="22.847299" lon="110.559383">
        <ele>107.252803</ele>
        <time>2026-08-16T09:53:24.000Z</time>
      </trkpt>
      <trkpt lat="22.847269" lon="110.559389">
        <ele>107.196695</ele>
        <time>2026-08-16T09:53:25.000Z</time>
      </trkpt>
      <trkpt lat="22.847240" lon="110.559394">
        <ele>107.142686</ele>
        <time>2026-08-16T09:53:26.000Z</time>
      </trkpt>
      <trkpt lat="22.847211" lon="110.559397">
        <ele>107.089105</ele>
        <time>2026-08-16T09:53:27.000Z</time>
      </trkpt>
      <trkpt lat="22.847182" lon="110.559403">
        <ele>107.034804</ele>
        <time>2026-08-16T09:53:28.000Z</time>
      </trkpt>
      <trkpt lat="22.847150" lon="110.559411">
        <ele>106.974405</ele>
        <time>2026-08-16T09:53:29.000Z</time>
      </trkpt>
      <trkpt lat="22.847121" lon="110.559419">
        <ele>106.919369</ele>
        <time>2026-08-16T09:53:30.000Z</time>
      </trkpt>
      <trkpt lat="22.847094" lon="110.559427">
        <ele>106.867890</ele>
        <time>2026-08-16T09:53:31.000Z</time>
      </trkpt>
      <trkpt lat="22.847068" lon="110.559434">
        <ele>106.818618</ele>
        <time>2026-08-16T09:53:32.000Z</time>
      </trkpt>
      <trkpt lat="22.847044" lon="110.559442">
        <ele>106.772439</ele>
        <time>2026-08-16T09:53:33.000Z</time>
      </trkpt>
      <trkpt lat="22.847022" lon="110.559448">
        <ele>106.734269</ele>
        <time>2026-08-16T09:53:34.000Z</time>
      </trkpt>
      <trkpt lat="22.847000" lon="110.559458">
        <ele>106.703527</ele>
        <time>2026-08-16T09:53:35.000Z</time>
      </trkpt>
      <trkpt lat="22.846978" lon="110.559466">
        <ele>106.673623</ele>
        <time>2026-08-16T09:53:36.000Z</time>
      </trkpt>
      <trkpt lat="22.846956" lon="110.559472">
        <ele>106.644387</ele>
        <time>2026-08-16T09:53:37.000Z</time>
      </trkpt>
      <trkpt lat="22.846934" lon="110.559477">
        <ele>106.615418</ele>
        <time>2026-08-16T09:53:38.000Z</time>
      </trkpt>
      <trkpt lat="22.846914" lon="110.559480">
        <ele>106.589396</ele>
        <time>2026-08-16T09:53:39.000Z</time>
      </trkpt>
      <trkpt lat="22.846895" lon="110.559484">
        <ele>106.564452</ele>
        <time>2026-08-16T09:53:40.000Z</time>
      </trkpt>
      <trkpt lat="22.846882" lon="110.559489">
        <ele>106.546676</ele>
        <time>2026-08-16T09:53:41.000Z</time>
      </trkpt>
      <trkpt lat="22.846875" lon="110.559491">
        <ele>106.537347</ele>
        <time>2026-08-16T09:53:42.000Z</time>
      </trkpt>
      <trkpt lat="22.846873" lon="110.559492">
        <ele>106.534508</ele>
        <time>2026-08-16T09:53:43.000Z</time>
      </trkpt>
      <trkpt lat="22.846793" lon="110.559514">
        <ele>106.428143</ele>
        <time>2026-08-16T09:54:11.000Z</time>
      </trkpt>
      <trkpt lat="22.846776" lon="110.559517">
        <ele>106.405945</ele>
        <time>2026-08-16T09:54:12.000Z</time>
      </trkpt>
      <trkpt lat="22.846764" lon="110.559520">
        <ele>106.390074</ele>
        <time>2026-08-16T09:54:13.000Z</time>
      </trkpt>
      <trkpt lat="22.846751" lon="110.559522">
        <ele>106.373151</ele>
        <time>2026-08-16T09:54:14.000Z</time>
      </trkpt>
      <trkpt lat="22.846740" lon="110.559524">
        <ele>106.358777</ele>
        <time>2026-08-16T09:54:15.000Z</time>
      </trkpt>
      <trkpt lat="22.846727" lon="110.559527">
        <ele>106.341647</ele>
        <time>2026-08-16T09:54:16.000Z</time>
      </trkpt>
      <trkpt lat="22.846714" lon="110.559528">
        <ele>106.324850</ele>
        <time>2026-08-16T09:54:17.000Z</time>
      </trkpt>
      <trkpt lat="22.846699" lon="110.559525">
        <ele>106.305192</ele>
        <time>2026-08-16T09:54:18.000Z</time>
      </trkpt>
      <trkpt lat="22.846687" lon="110.559520">
        <ele>106.288625</ele>
        <time>2026-08-16T09:54:19.000Z</time>
      </trkpt>
      <trkpt lat="22.846678" lon="110.559515">
        <ele>106.275594</ele>
        <time>2026-08-16T09:54:20.000Z</time>
      </trkpt>
      <trkpt lat="22.846672" lon="110.559513">
        <ele>106.267504</ele>
        <time>2026-08-16T09:54:21.000Z</time>
      </trkpt>
      <trkpt lat="22.846625" lon="110.559551">
        <ele>106.191964</ele>
        <time>2026-08-16T09:55:38.000Z</time>
      </trkpt>
      <trkpt lat="22.846604" lon="110.559563">
        <ele>106.161375</ele>
        <time>2026-08-16T09:55:39.000Z</time>
      </trkpt>
      <trkpt lat="22.846580" lon="110.559578">
        <ele>106.125680</ele>
        <time>2026-08-16T09:55:40.000Z</time>
      </trkpt>
      <trkpt lat="22.846554" lon="110.559593">
        <ele>106.087728</ele>
        <time>2026-08-16T09:55:41.000Z</time>
      </trkpt>
      <trkpt lat="22.846526" lon="110.559606">
        <ele>106.048477</ele>
        <time>2026-08-16T09:55:42.000Z</time>
      </trkpt>
      <trkpt lat="22.846495" lon="110.559619">
        <ele>106.005643</ele>
        <time>2026-08-16T09:55:43.000Z</time>
      </trkpt>
      <trkpt lat="22.846464" lon="110.559634">
        <ele>105.961898</ele>
        <time>2026-08-16T09:55:44.000Z</time>
      </trkpt>
      <trkpt lat="22.846432" lon="110.559649">
        <ele>105.916972</ele>
        <time>2026-08-16T09:55:45.000Z</time>
      </trkpt>
      <trkpt lat="22.846393" lon="110.559659">
        <ele>105.865323</ele>
        <time>2026-08-16T09:55:46.000Z</time>
      </trkpt>
      <trkpt lat="22.846355" lon="110.559669">
        <ele>105.814928</ele>
        <time>2026-08-16T09:55:47.000Z</time>
      </trkpt>
      <trkpt lat="22.846317" lon="110.559675">
        <ele>105.765437</ele>
        <time>2026-08-16T09:55:48.000Z</time>
      </trkpt>
      <trkpt lat="22.846280" lon="110.559680">
        <ele>105.717382</ele>
        <time>2026-08-16T09:55:49.000Z</time>
      </trkpt>
      <trkpt lat="22.846241" lon="110.559687">
        <ele>105.666434</ele>
        <time>2026-08-16T09:55:50.000Z</time>
      </trkpt>
      <trkpt lat="22.846199" lon="110.559694">
        <ele>105.611669</ele>
        <time>2026-08-16T09:55:51.000Z</time>
      </trkpt>
      <trkpt lat="22.846154" lon="110.559700">
        <ele>105.553235</ele>
        <time>2026-08-16T09:55:52.000Z</time>
      </trkpt>
      <trkpt lat="22.846109" lon="110.559705">
        <ele>105.494935</ele>
        <time>2026-08-16T09:55:53.000Z</time>
      </trkpt>
      <trkpt lat="22.846064" lon="110.559714">
        <ele>105.435961</ele>
        <time>2026-08-16T09:55:54.000Z</time>
      </trkpt>
      <trkpt lat="22.846019" lon="110.559724">
        <ele>105.376760</ele>
        <time>2026-08-16T09:55:55.000Z</time>
      </trkpt>
      <trkpt lat="22.845974" lon="110.559735">
        <ele>105.317309</ele>
        <time>2026-08-16T09:55:56.000Z</time>
      </trkpt>
      <trkpt lat="22.845934" lon="110.559747">
        <ele>105.263822</ele>
        <time>2026-08-16T09:55:57.000Z</time>
      </trkpt>
      <trkpt lat="22.845889" lon="110.559761">
        <ele>105.203488</ele>
        <time>2026-08-16T09:55:58.000Z</time>
      </trkpt>
      <trkpt lat="22.845841" lon="110.559772">
        <ele>105.140260</ele>
        <time>2026-08-16T09:55:59.000Z</time>
      </trkpt>
      <trkpt lat="22.845792" lon="110.559784">
        <ele>105.075519</ele>
        <time>2026-08-16T09:56:00.000Z</time>
      </trkpt>
      <trkpt lat="22.845743" lon="110.559795">
        <ele>105.011029</ele>
        <time>2026-08-16T09:56:01.000Z</time>
      </trkpt>
      <trkpt lat="22.845694" lon="110.559805">
        <ele>104.946769</ele>
        <time>2026-08-16T09:56:02.000Z</time>
      </trkpt>
      <trkpt lat="22.845646" lon="110.559816">
        <ele>104.883541</ele>
        <time>2026-08-16T09:56:03.000Z</time>
      </trkpt>
      <trkpt lat="22.845597" lon="110.559827">
        <ele>104.819051</ele>
        <time>2026-08-16T09:56:04.000Z</time>
      </trkpt>
      <trkpt lat="22.845550" lon="110.559840">
        <ele>104.756539</ele>
        <time>2026-08-16T09:56:05.000Z</time>
      </trkpt>
      <trkpt lat="22.845503" lon="110.559853">
        <ele>104.694027</ele>
        <time>2026-08-16T09:56:06.000Z</time>
      </trkpt>
      <trkpt lat="22.845458" lon="110.559863">
        <ele>104.634826</ele>
        <time>2026-08-16T09:56:07.000Z</time>
      </trkpt>
      <trkpt lat="22.845414" lon="110.559875">
        <ele>104.576354</ele>
        <time>2026-08-16T09:56:08.000Z</time>
      </trkpt>
      <trkpt lat="22.845366" lon="110.559888">
        <ele>104.512592</ele>
        <time>2026-08-16T09:56:09.000Z</time>
      </trkpt>
      <trkpt lat="22.845319" lon="110.559895">
        <ele>104.451449</ele>
        <time>2026-08-16T09:56:10.000Z</time>
      </trkpt>
      <trkpt lat="22.845277" lon="110.559906">
        <ele>104.424443</ele>
        <time>2026-08-16T09:56:11.000Z</time>
      </trkpt>
      <trkpt lat="22.845241" lon="110.559914">
        <ele>104.424443</ele>
        <time>2026-08-16T09:56:12.000Z</time>
      </trkpt>
      <trkpt lat="22.845202" lon="110.559924">
        <ele>104.424443</ele>
        <time>2026-08-16T09:56:13.000Z</time>
      </trkpt>
      <trkpt lat="22.845163" lon="110.559933">
        <ele>104.424443</ele>
        <time>2026-08-16T09:56:14.000Z</time>
      </trkpt>
      <trkpt lat="22.845122" lon="110.559942">
        <ele>104.424443</ele>
        <time>2026-08-16T09:56:15.000Z</time>
      </trkpt>
      <trkpt lat="22.845083" lon="110.559953">
        <ele>104.424443</ele>
        <time>2026-08-16T09:56:16.000Z</time>
      </trkpt>
      <trkpt lat="22.845046" lon="110.559963">
        <ele>104.424443</ele>
        <time>2026-08-16T09:56:17.000Z</time>
      </trkpt>
      <trkpt lat="22.845007" lon="110.559975">
        <ele>104.424443</ele>
        <time>2026-08-16T09:56:18.000Z</time>
      </trkpt>
      <trkpt lat="22.844968" lon="110.559988">
        <ele>104.424443</ele>
        <time>2026-08-16T09:56:19.000Z</time>
      </trkpt>
      <trkpt lat="22.844929" lon="110.560000">
        <ele>104.424443</ele>
        <time>2026-08-16T09:56:20.000Z</time>
      </trkpt>
      <trkpt lat="22.844889" lon="110.560012">
        <ele>104.424443</ele>
        <time>2026-08-16T09:56:21.000Z</time>
      </trkpt>
      <trkpt lat="22.844850" lon="110.560014">
        <ele>104.424443</ele>
        <time>2026-08-16T09:56:22.000Z</time>
      </trkpt>
      <trkpt lat="22.844815" lon="110.560006">
        <ele>104.424443</ele>
        <time>2026-08-16T09:56:23.000Z</time>
      </trkpt>
      <trkpt lat="22.844784" lon="110.559986">
        <ele>104.424443</ele>
        <time>2026-08-16T09:56:24.000Z</time>
      </trkpt>
      <trkpt lat="22.844756" lon="110.559964">
        <ele>104.424443</ele>
        <time>2026-08-16T09:56:25.000Z</time>
      </trkpt>
      <trkpt lat="22.844727" lon="110.559939">
        <ele>104.424443</ele>
        <time>2026-08-16T09:56:26.000Z</time>
      </trkpt>
      <trkpt lat="22.844699" lon="110.559917">
        <ele>104.424443</ele>
        <time>2026-08-16T09:56:27.000Z</time>
      </trkpt>
      <trkpt lat="22.844675" lon="110.559891">
        <ele>104.424443</ele>
        <time>2026-08-16T09:56:28.000Z</time>
      </trkpt>
      <trkpt lat="22.844653" lon="110.559864">
        <ele>104.424443</ele>
        <time>2026-08-16T09:56:29.000Z</time>
      </trkpt>
      <trkpt lat="22.844634" lon="110.559837">
        <ele>104.424443</ele>
        <time>2026-08-16T09:56:30.000Z</time>
      </trkpt>
      <trkpt lat="22.844622" lon="110.559805">
        <ele>104.424443</ele>
        <time>2026-08-16T09:56:31.000Z</time>
      </trkpt>
      <trkpt lat="22.844610" lon="110.559774">
        <ele>104.424443</ele>
        <time>2026-08-16T09:56:32.000Z</time>
      </trkpt>
      <trkpt lat="22.844599" lon="110.559740">
        <ele>104.424443</ele>
        <time>2026-08-16T09:56:33.000Z</time>
      </trkpt>
      <trkpt lat="22.844586" lon="110.559705">
        <ele>104.424443</ele>
        <time>2026-08-16T09:56:34.000Z</time>
      </trkpt>
      <trkpt lat="22.844574" lon="110.559668">
        <ele>104.424443</ele>
        <time>2026-08-16T09:56:35.000Z</time>
      </trkpt>
      <trkpt lat="22.844563" lon="110.559632">
        <ele>104.424443</ele>
        <time>2026-08-16T09:56:36.000Z</time>
      </trkpt>
      <trkpt lat="22.844550" lon="110.559597">
        <ele>104.424443</ele>
        <time>2026-08-16T09:56:37.000Z</time>
      </trkpt>
      <trkpt lat="22.844537" lon="110.559559">
        <ele>104.424443</ele>
        <time>2026-08-16T09:56:38.000Z</time>
      </trkpt>
      <trkpt lat="22.844525" lon="110.559521">
        <ele>104.424443</ele>
        <time>2026-08-16T09:56:39.000Z</time>
      </trkpt>
      <trkpt lat="22.844514" lon="110.559480">
        <ele>104.424443</ele>
        <time>2026-08-16T09:56:40.000Z</time>
      </trkpt>
      <trkpt lat="22.844504" lon="110.559441">
        <ele>104.424443</ele>
        <time>2026-08-16T09:56:41.000Z</time>
      </trkpt>
      <trkpt lat="22.844491" lon="110.559402">
        <ele>104.424443</ele>
        <time>2026-08-16T09:56:42.000Z</time>
      </trkpt>
      <trkpt lat="22.844478" lon="110.559365">
        <ele>104.424443</ele>
        <time>2026-08-16T09:56:43.000Z</time>
      </trkpt>
      <trkpt lat="22.844465" lon="110.559327">
        <ele>104.424443</ele>
        <time>2026-08-16T09:56:44.000Z</time>
      </trkpt>
      <trkpt lat="22.844453" lon="110.559288">
        <ele>104.424443</ele>
        <time>2026-08-16T09:56:45.000Z</time>
      </trkpt>
      <trkpt lat="22.844444" lon="110.559252">
        <ele>104.424443</ele>
        <time>2026-08-16T09:56:46.000Z</time>
      </trkpt>
      <trkpt lat="22.844434" lon="110.559217">
        <ele>104.424443</ele>
        <time>2026-08-16T09:56:47.000Z</time>
      </trkpt>
      <trkpt lat="22.844426" lon="110.559183">
        <ele>104.424443</ele>
        <time>2026-08-16T09:56:48.000Z</time>
      </trkpt>
      <trkpt lat="22.844419" lon="110.559149">
        <ele>104.424443</ele>
        <time>2026-08-16T09:56:49.000Z</time>
      </trkpt>
      <trkpt lat="22.844411" lon="110.559116">
        <ele>104.424443</ele>
        <time>2026-08-16T09:56:50.000Z</time>
      </trkpt>
      <trkpt lat="22.844404" lon="110.559087">
        <ele>104.424443</ele>
        <time>2026-08-16T09:56:51.000Z</time>
      </trkpt>
      <trkpt lat="22.844396" lon="110.559057">
        <ele>104.424443</ele>
        <time>2026-08-16T09:56:52.000Z</time>
      </trkpt>
      <trkpt lat="22.844387" lon="110.559030">
        <ele>104.424443</ele>
        <time>2026-08-16T09:56:53.000Z</time>
      </trkpt>
      <trkpt lat="22.844377" lon="110.559001">
        <ele>104.424443</ele>
        <time>2026-08-16T09:56:54.000Z</time>
      </trkpt>
      <trkpt lat="22.844369" lon="110.558973">
        <ele>104.424443</ele>
        <time>2026-08-16T09:56:55.000Z</time>
      </trkpt>
      <trkpt lat="22.844362" lon="110.558946">
        <ele>104.424443</ele>
        <time>2026-08-16T09:56:56.000Z</time>
      </trkpt>
      <trkpt lat="22.844352" lon="110.558918">
        <ele>104.424443</ele>
        <time>2026-08-16T09:56:57.000Z</time>
      </trkpt>
      <trkpt lat="22.844345" lon="110.558892">
        <ele>104.424443</ele>
        <time>2026-08-16T09:56:58.000Z</time>
      </trkpt>
      <trkpt lat="22.844339" lon="110.558871">
        <ele>104.424443</ele>
        <time>2026-08-16T09:56:59.000Z</time>
      </trkpt>
      <trkpt lat="22.844334" lon="110.558844">
        <ele>104.424443</ele>
        <time>2026-08-16T09:57:00.000Z</time>
      </trkpt>
      <trkpt lat="22.844330" lon="110.558820">
        <ele>104.424443</ele>
        <time>2026-08-16T09:57:01.000Z</time>
      </trkpt>
      <trkpt lat="22.844324" lon="110.558795">
        <ele>104.424443</ele>
        <time>2026-08-16T09:57:02.000Z</time>
      </trkpt>
      <trkpt lat="22.844319" lon="110.558771">
        <ele>104.424443</ele>
        <time>2026-08-16T09:57:03.000Z</time>
      </trkpt>
      <trkpt lat="22.844315" lon="110.558749">
        <ele>104.424443</ele>
        <time>2026-08-16T09:57:04.000Z</time>
      </trkpt>
      <trkpt lat="22.844308" lon="110.558727">
        <ele>104.424443</ele>
        <time>2026-08-16T09:57:05.000Z</time>
      </trkpt>
      <trkpt lat="22.844300" lon="110.558707">
        <ele>104.424443</ele>
        <time>2026-08-16T09:57:06.000Z</time>
      </trkpt>
      <trkpt lat="22.844293" lon="110.558689">
        <ele>104.424443</ele>
        <time>2026-08-16T09:57:07.000Z</time>
      </trkpt>
      <trkpt lat="22.844286" lon="110.558671">
        <ele>104.424443</ele>
        <time>2026-08-16T09:57:08.000Z</time>
      </trkpt>
      <trkpt lat="22.844280" lon="110.558656">
        <ele>104.424443</ele>
        <time>2026-08-16T09:57:09.000Z</time>
      </trkpt>
      <trkpt lat="22.844277" lon="110.558649">
        <ele>104.424443</ele>
        <time>2026-08-16T09:57:10.000Z</time>
      </trkpt>
      <trkpt lat="22.844275" lon="110.558644">
        <ele>104.424443</ele>
        <time>2026-08-16T09:57:11.000Z</time>
      </trkpt>
      <trkpt lat="22.844250" lon="110.558579">
        <ele>104.424443</ele>
        <time>2026-08-16T09:57:49.000Z</time>
      </trkpt>
      <trkpt lat="22.844244" lon="110.558560">
        <ele>104.424443</ele>
        <time>2026-08-16T09:57:50.000Z</time>
      </trkpt>
      <trkpt lat="22.844239" lon="110.558539">
        <ele>104.424443</ele>
        <time>2026-08-16T09:57:51.000Z</time>
      </trkpt>
      <trkpt lat="22.844233" lon="110.558519">
        <ele>104.424443</ele>
        <time>2026-08-16T09:57:52.000Z</time>
      </trkpt>
      <trkpt lat="22.844227" lon="110.558498">
        <ele>104.424443</ele>
        <time>2026-08-16T09:57:53.000Z</time>
      </trkpt>
      <trkpt lat="22.844219" lon="110.558478">
        <ele>104.424443</ele>
        <time>2026-08-16T09:57:54.000Z</time>
      </trkpt>
      <trkpt lat="22.844209" lon="110.558454">
        <ele>104.424443</ele>
        <time>2026-08-16T09:57:55.000Z</time>
      </trkpt>
      <trkpt lat="22.844205" lon="110.558434">
        <ele>104.424443</ele>
        <time>2026-08-16T09:57:56.000Z</time>
      </trkpt>
      <trkpt lat="22.844205" lon="110.558409">
        <ele>104.424443</ele>
        <time>2026-08-16T09:57:57.000Z</time>
      </trkpt>
      <trkpt lat="22.844207" lon="110.558384">
        <ele>104.424443</ele>
        <time>2026-08-16T09:57:58.000Z</time>
      </trkpt>
      <trkpt lat="22.844210" lon="110.558358">
        <ele>104.424443</ele>
        <time>2026-08-16T09:57:59.000Z</time>
      </trkpt>
      <trkpt lat="22.844212" lon="110.558339">
        <ele>104.424443</ele>
        <time>2026-08-16T09:58:00.000Z</time>
      </trkpt>
      <trkpt lat="22.844217" lon="110.558321">
        <ele>104.424443</ele>
        <time>2026-08-16T09:58:01.000Z</time>
      </trkpt>
      <trkpt lat="22.844226" lon="110.558301">
        <ele>104.424443</ele>
        <time>2026-08-16T09:58:02.000Z</time>
      </trkpt>
      <trkpt lat="22.844232" lon="110.558281">
        <ele>104.424443</ele>
        <time>2026-08-16T09:58:03.000Z</time>
      </trkpt>
      <trkpt lat="22.844242" lon="110.558261">
        <ele>104.424443</ele>
        <time>2026-08-16T09:58:04.000Z</time>
      </trkpt>
      <trkpt lat="22.844251" lon="110.558241">
        <ele>104.424443</ele>
        <time>2026-08-16T09:58:05.000Z</time>
      </trkpt>
      <trkpt lat="22.844256" lon="110.558228">
        <ele>104.424443</ele>
        <time>2026-08-16T09:58:06.000Z</time>
      </trkpt>
      <trkpt lat="22.844265" lon="110.558216">
        <ele>104.424443</ele>
        <time>2026-08-16T09:58:07.000Z</time>
      </trkpt>
      <trkpt lat="22.844273" lon="110.558202">
        <ele>104.424443</ele>
        <time>2026-08-16T09:58:08.000Z</time>
      </trkpt>
      <trkpt lat="22.844283" lon="110.558179">
        <ele>104.424443</ele>
        <time>2026-08-16T09:58:09.000Z</time>
      </trkpt>
      <trkpt lat="22.844284" lon="110.558160">
        <ele>104.424443</ele>
        <time>2026-08-16T09:58:10.000Z</time>
      </trkpt>
      <trkpt lat="22.844287" lon="110.558138">
        <ele>104.424443</ele>
        <time>2026-08-16T09:58:11.000Z</time>
      </trkpt>
      <trkpt lat="22.844284" lon="110.558125">
        <ele>104.424443</ele>
        <time>2026-08-16T09:58:12.000Z</time>
      </trkpt>
      <trkpt lat="22.844279" lon="110.558114">
        <ele>104.424443</ele>
        <time>2026-08-16T09:58:13.000Z</time>
      </trkpt>
      <trkpt lat="22.844277" lon="110.558104">
        <ele>104.424443</ele>
        <time>2026-08-16T09:58:14.000Z</time>
      </trkpt>
      <trkpt lat="22.844276" lon="110.558098">
        <ele>104.424443</ele>
        <time>2026-08-16T09:58:15.000Z</time>
      </trkpt>
    </trkseg>
  </trk>
</gpx>